<?xml version="1.0" encoding="UTF-8" standalone="no" ?>
<gpx xmlns="http://www.topografix.com/GPX/1/1" xmlns:xsi="http://www.w3.org/2001/XMLSchema-instance" xsi:schemaLocation="http://www.topografix.com/GPX/1/1 http://www.topografix.com/GPX/1/1/gpx.xsd" version="1.1" creator="VisuGPX - https://www.visugpx.com">
  <metadata>
    <name>Montenois Arcey etc</name>
    <desc><![CDATA[Terrain encore bien sec, bonne bise et ciel voilé]]></desc>
  </metadata>
  <trk>
    <name><![CDATA[Rue Antoine Coysevox]]></name>
    <desc><![CDATA[]]></desc>
    <trkseg>
      <trkpt lat="47.51828" lon="6.77521">
        <ele>388</ele>
        <time>2015-03-22T08:17:02.000Z</time>
      </trkpt>
      <trkpt lat="47.51828" lon="6.77519">
        <ele>388</ele>
        <time>2015-03-22T08:17:03.000Z</time>
      </trkpt>
      <trkpt lat="47.51822" lon="6.77517">
        <ele>388</ele>
        <time>2015-03-22T08:17:04.000Z</time>
      </trkpt>
      <trkpt lat="47.51817" lon="6.77514">
        <ele>388</ele>
        <time>2015-03-22T08:17:05.000Z</time>
      </trkpt>
      <trkpt lat="47.51816" lon="6.77508">
        <ele>388</ele>
        <time>2015-03-22T08:17:25.000Z</time>
      </trkpt>
      <trkpt lat="47.51809" lon="6.77505">
        <ele>389</ele>
        <time>2015-03-22T08:17:26.000Z</time>
      </trkpt>
      <trkpt lat="47.51807" lon="6.77504">
        <ele>389</ele>
        <time>2015-03-22T08:17:27.000Z</time>
      </trkpt>
      <trkpt lat="47.51805" lon="6.77503">
        <ele>389</ele>
        <time>2015-03-22T08:17:28.000Z</time>
      </trkpt>
      <trkpt lat="47.51805" lon="6.77496">
        <ele>388</ele>
        <time>2015-03-22T08:17:36.000Z</time>
      </trkpt>
      <trkpt lat="47.51805" lon="6.77495">
        <ele>388</ele>
        <time>2015-03-22T08:17:37.000Z</time>
      </trkpt>
      <trkpt lat="47.51807" lon="6.77491">
        <ele>388</ele>
        <time>2015-03-22T08:17:46.000Z</time>
      </trkpt>
      <trkpt lat="47.51808" lon="6.77486">
        <ele>388</ele>
        <time>2015-03-22T08:17:47.000Z</time>
      </trkpt>
      <trkpt lat="47.51809" lon="6.7748">
        <ele>388</ele>
        <time>2015-03-22T08:18:04.000Z</time>
      </trkpt>
      <trkpt lat="47.51808" lon="6.77479">
        <ele>388</ele>
        <time>2015-03-22T08:18:05.000Z</time>
      </trkpt>
      <trkpt lat="47.51808" lon="6.77474">
        <ele>388</ele>
        <time>2015-03-22T08:18:07.000Z</time>
      </trkpt>
      <trkpt lat="47.51808" lon="6.77471">
        <ele>388</ele>
        <time>2015-03-22T08:18:08.000Z</time>
      </trkpt>
      <trkpt lat="47.51805" lon="6.77466">
        <ele>388</ele>
        <time>2015-03-22T08:18:11.000Z</time>
      </trkpt>
      <trkpt lat="47.51805" lon="6.77465">
        <ele>388</ele>
        <time>2015-03-22T08:18:12.000Z</time>
      </trkpt>
      <trkpt lat="47.51802" lon="6.77461">
        <ele>388</ele>
        <time>2015-03-22T08:18:58.000Z</time>
      </trkpt>
      <trkpt lat="47.51802" lon="6.7746">
        <ele>388</ele>
        <time>2015-03-22T08:18:59.000Z</time>
      </trkpt>
      <trkpt lat="47.51806" lon="6.77462">
        <ele>388</ele>
        <time>2015-03-22T08:19:02.000Z</time>
      </trkpt>
      <trkpt lat="47.51808" lon="6.77464">
        <ele>388</ele>
        <time>2015-03-22T08:19:03.000Z</time>
      </trkpt>
      <trkpt lat="47.51805" lon="6.77468">
        <ele>388</ele>
        <time>2015-03-22T08:19:13.000Z</time>
      </trkpt>
      <trkpt lat="47.51804" lon="6.77469">
        <ele>388</ele>
        <time>2015-03-22T08:19:14.000Z</time>
      </trkpt>
      <trkpt lat="47.51807" lon="6.77473">
        <ele>388</ele>
        <time>2015-03-22T08:19:23.000Z</time>
      </trkpt>
      <trkpt lat="47.51808" lon="6.77475">
        <ele>388</ele>
        <time>2015-03-22T08:19:24.000Z</time>
      </trkpt>
      <trkpt lat="47.5181" lon="6.7748">
        <ele>388</ele>
        <time>2015-03-22T08:19:26.000Z</time>
      </trkpt>
      <trkpt lat="47.51812" lon="6.77483">
        <ele>388</ele>
        <time>2015-03-22T08:19:27.000Z</time>
      </trkpt>
      <trkpt lat="47.51812" lon="6.77487">
        <ele>388</ele>
        <time>2015-03-22T08:19:28.000Z</time>
      </trkpt>
      <trkpt lat="47.51812" lon="6.7749">
        <ele>388</ele>
        <time>2015-03-22T08:19:29.000Z</time>
      </trkpt>
      <trkpt lat="47.51811" lon="6.77495">
        <ele>388</ele>
        <time>2015-03-22T08:19:31.001Z</time>
      </trkpt>
      <trkpt lat="47.51807" lon="6.77494">
        <ele>388</ele>
        <time>2015-03-22T08:19:32.000Z</time>
      </trkpt>
      <trkpt lat="47.51803" lon="6.77494">
        <ele>388</ele>
        <time>2015-03-22T08:19:33.000Z</time>
      </trkpt>
      <trkpt lat="47.51798" lon="6.77492">
        <ele>388</ele>
        <time>2015-03-22T08:19:34.000Z</time>
      </trkpt>
      <trkpt lat="47.51793" lon="6.7749">
        <ele>388</ele>
        <time>2015-03-22T08:19:35.000Z</time>
      </trkpt>
      <trkpt lat="47.51788" lon="6.77489">
        <ele>388</ele>
        <time>2015-03-22T08:19:36.000Z</time>
      </trkpt>
      <trkpt lat="47.51782" lon="6.77487">
        <ele>388</ele>
        <time>2015-03-22T08:19:37.000Z</time>
      </trkpt>
      <trkpt lat="47.51777" lon="6.77486">
        <ele>388</ele>
        <time>2015-03-22T08:19:38.000Z</time>
      </trkpt>
      <trkpt lat="47.51772" lon="6.77484">
        <ele>388</ele>
        <time>2015-03-22T08:19:39.000Z</time>
      </trkpt>
      <trkpt lat="47.51767" lon="6.77483">
        <ele>389</ele>
        <time>2015-03-22T08:19:40.000Z</time>
      </trkpt>
      <trkpt lat="47.51762" lon="6.77482">
        <ele>389</ele>
        <time>2015-03-22T08:19:41.000Z</time>
      </trkpt>
      <trkpt lat="47.51758" lon="6.7748">
        <ele>389</ele>
        <time>2015-03-22T08:19:42.000Z</time>
      </trkpt>
      <trkpt lat="47.51753" lon="6.77479">
        <ele>389</ele>
        <time>2015-03-22T08:19:43.000Z</time>
      </trkpt>
      <trkpt lat="47.51748" lon="6.77479">
        <ele>389</ele>
        <time>2015-03-22T08:19:44.000Z</time>
      </trkpt>
      <trkpt lat="47.51743" lon="6.77478">
        <ele>389</ele>
        <time>2015-03-22T08:19:45.000Z</time>
      </trkpt>
      <trkpt lat="47.51739" lon="6.77477">
        <ele>389</ele>
        <time>2015-03-22T08:19:46.000Z</time>
      </trkpt>
      <trkpt lat="47.51733" lon="6.77481">
        <ele>389</ele>
        <time>2015-03-22T08:19:47.000Z</time>
      </trkpt>
      <trkpt lat="47.5173" lon="6.77486">
        <ele>389</ele>
        <time>2015-03-22T08:19:48.000Z</time>
      </trkpt>
      <trkpt lat="47.51727" lon="6.77493">
        <ele>389</ele>
        <time>2015-03-22T08:19:49.000Z</time>
      </trkpt>
      <trkpt lat="47.51726" lon="6.775">
        <ele>389</ele>
        <time>2015-03-22T08:19:50.000Z</time>
      </trkpt>
      <trkpt lat="47.51725" lon="6.77507">
        <ele>390</ele>
        <time>2015-03-22T08:19:51.000Z</time>
      </trkpt>
      <trkpt lat="47.51724" lon="6.77516">
        <ele>390</ele>
        <time>2015-03-22T08:19:52.000Z</time>
      </trkpt>
      <trkpt lat="47.51724" lon="6.77523">
        <ele>390</ele>
        <time>2015-03-22T08:19:53.000Z</time>
      </trkpt>
      <trkpt lat="47.51723" lon="6.77529">
        <ele>390</ele>
        <time>2015-03-22T08:19:54.000Z</time>
      </trkpt>
      <trkpt lat="47.51721" lon="6.77535">
        <ele>390</ele>
        <time>2015-03-22T08:19:54.999Z</time>
      </trkpt>
      <trkpt lat="47.51719" lon="6.77542">
        <ele>390</ele>
        <time>2015-03-22T08:19:56.000Z</time>
      </trkpt>
      <trkpt lat="47.51718" lon="6.77548">
        <ele>390</ele>
        <time>2015-03-22T08:19:57.000Z</time>
      </trkpt>
      <trkpt lat="47.51715" lon="6.7755">
        <ele>390</ele>
        <time>2015-03-22T08:19:58.000Z</time>
      </trkpt>
      <trkpt lat="47.51711" lon="6.77549">
        <ele>390</ele>
        <time>2015-03-22T08:19:59.000Z</time>
      </trkpt>
      <trkpt lat="47.51708" lon="6.77548">
        <ele>390</ele>
        <time>2015-03-22T08:20:00.000Z</time>
      </trkpt>
      <trkpt lat="47.51704" lon="6.77546">
        <ele>390</ele>
        <time>2015-03-22T08:20:01.000Z</time>
      </trkpt>
      <trkpt lat="47.51699" lon="6.77541">
        <ele>390</ele>
        <time>2015-03-22T08:20:02.000Z</time>
      </trkpt>
      <trkpt lat="47.51694" lon="6.77536">
        <ele>390</ele>
        <time>2015-03-22T08:20:03.000Z</time>
      </trkpt>
      <trkpt lat="47.5169" lon="6.77532">
        <ele>390</ele>
        <time>2015-03-22T08:20:04.000Z</time>
      </trkpt>
      <trkpt lat="47.51684" lon="6.77526">
        <ele>390</ele>
        <time>2015-03-22T08:20:05.000Z</time>
      </trkpt>
      <trkpt lat="47.51679" lon="6.7752">
        <ele>390</ele>
        <time>2015-03-22T08:20:06.000Z</time>
      </trkpt>
      <trkpt lat="47.51674" lon="6.77515">
        <ele>389</ele>
        <time>2015-03-22T08:20:07.000Z</time>
      </trkpt>
      <trkpt lat="47.51669" lon="6.77509">
        <ele>389</ele>
        <time>2015-03-22T08:20:08.000Z</time>
      </trkpt>
      <trkpt lat="47.51664" lon="6.77503">
        <ele>389</ele>
        <time>2015-03-22T08:20:09.000Z</time>
      </trkpt>
      <trkpt lat="47.5166" lon="6.77496">
        <ele>388</ele>
        <time>2015-03-22T08:20:10.000Z</time>
      </trkpt>
      <trkpt lat="47.51655" lon="6.7749">
        <ele>387</ele>
        <time>2015-03-22T08:20:11.000Z</time>
      </trkpt>
      <trkpt lat="47.5165" lon="6.77483">
        <ele>387</ele>
        <time>2015-03-22T08:20:12.000Z</time>
      </trkpt>
      <trkpt lat="47.51645" lon="6.77477">
        <ele>387</ele>
        <time>2015-03-22T08:20:13.000Z</time>
      </trkpt>
      <trkpt lat="47.5164" lon="6.77471">
        <ele>386</ele>
        <time>2015-03-22T08:20:14.000Z</time>
      </trkpt>
      <trkpt lat="47.51635" lon="6.77464">
        <ele>386</ele>
        <time>2015-03-22T08:20:15.000Z</time>
      </trkpt>
      <trkpt lat="47.51629" lon="6.77458">
        <ele>386</ele>
        <time>2015-03-22T08:20:16.000Z</time>
      </trkpt>
      <trkpt lat="47.51623" lon="6.77452">
        <ele>386</ele>
        <time>2015-03-22T08:20:17.000Z</time>
      </trkpt>
      <trkpt lat="47.51618" lon="6.77444">
        <ele>385</ele>
        <time>2015-03-22T08:20:18.000Z</time>
      </trkpt>
      <trkpt lat="47.51612" lon="6.77438">
        <ele>385</ele>
        <time>2015-03-22T08:20:19.000Z</time>
      </trkpt>
      <trkpt lat="47.51607" lon="6.77432">
        <ele>385</ele>
        <time>2015-03-22T08:20:20.000Z</time>
      </trkpt>
      <trkpt lat="47.51601" lon="6.77424">
        <ele>384</ele>
        <time>2015-03-22T08:20:21.000Z</time>
      </trkpt>
      <trkpt lat="47.51594" lon="6.77415">
        <ele>383</ele>
        <time>2015-03-22T08:20:22.000Z</time>
      </trkpt>
      <trkpt lat="47.51587" lon="6.77408">
        <ele>383</ele>
        <time>2015-03-22T08:20:23.000Z</time>
      </trkpt>
      <trkpt lat="47.5158" lon="6.774">
        <ele>382</ele>
        <time>2015-03-22T08:20:24.000Z</time>
      </trkpt>
      <trkpt lat="47.51573" lon="6.77391">
        <ele>381</ele>
        <time>2015-03-22T08:20:25.000Z</time>
      </trkpt>
      <trkpt lat="47.51566" lon="6.77383">
        <ele>381</ele>
        <time>2015-03-22T08:20:26.000Z</time>
      </trkpt>
      <trkpt lat="47.51558" lon="6.77374">
        <ele>381</ele>
        <time>2015-03-22T08:20:27.000Z</time>
      </trkpt>
      <trkpt lat="47.51551" lon="6.77365">
        <ele>381</ele>
        <time>2015-03-22T08:20:28.000Z</time>
      </trkpt>
      <trkpt lat="47.51543" lon="6.77357">
        <ele>380</ele>
        <time>2015-03-22T08:20:29.000Z</time>
      </trkpt>
      <trkpt lat="47.51536" lon="6.77348">
        <ele>380</ele>
        <time>2015-03-22T08:20:30.000Z</time>
      </trkpt>
      <trkpt lat="47.51527" lon="6.77339">
        <ele>380</ele>
        <time>2015-03-22T08:20:31.000Z</time>
      </trkpt>
      <trkpt lat="47.51519" lon="6.77329">
        <ele>378</ele>
        <time>2015-03-22T08:20:32.000Z</time>
      </trkpt>
      <trkpt lat="47.51511" lon="6.77319">
        <ele>378</ele>
        <time>2015-03-22T08:20:33.000Z</time>
      </trkpt>
      <trkpt lat="47.51504" lon="6.77307">
        <ele>378</ele>
        <time>2015-03-22T08:20:34.000Z</time>
      </trkpt>
      <trkpt lat="47.51499" lon="6.77294">
        <ele>377</ele>
        <time>2015-03-22T08:20:35.000Z</time>
      </trkpt>
      <trkpt lat="47.51496" lon="6.7728">
        <ele>377</ele>
        <time>2015-03-22T08:20:36.000Z</time>
      </trkpt>
      <trkpt lat="47.51494" lon="6.77266">
        <ele>376</ele>
        <time>2015-03-22T08:20:37.000Z</time>
      </trkpt>
      <trkpt lat="47.51493" lon="6.77252">
        <ele>376</ele>
        <time>2015-03-22T08:20:38.000Z</time>
      </trkpt>
      <trkpt lat="47.51492" lon="6.77238">
        <ele>376</ele>
        <time>2015-03-22T08:20:39.000Z</time>
      </trkpt>
      <trkpt lat="47.51491" lon="6.77225">
        <ele>375</ele>
        <time>2015-03-22T08:20:40.000Z</time>
      </trkpt>
      <trkpt lat="47.51487" lon="6.77213">
        <ele>375</ele>
        <time>2015-03-22T08:20:41.000Z</time>
      </trkpt>
      <trkpt lat="47.51482" lon="6.77205">
        <ele>375</ele>
        <time>2015-03-22T08:20:42.000Z</time>
      </trkpt>
      <trkpt lat="47.51474" lon="6.77205">
        <ele>375</ele>
        <time>2015-03-22T08:20:43.000Z</time>
      </trkpt>
      <trkpt lat="47.51466" lon="6.77206">
        <ele>375</ele>
        <time>2015-03-22T08:20:44.000Z</time>
      </trkpt>
      <trkpt lat="47.51458" lon="6.77207">
        <ele>375</ele>
        <time>2015-03-22T08:20:45.000Z</time>
      </trkpt>
      <trkpt lat="47.51449" lon="6.7721">
        <ele>375</ele>
        <time>2015-03-22T08:20:46.000Z</time>
      </trkpt>
      <trkpt lat="47.51442" lon="6.77212">
        <ele>375</ele>
        <time>2015-03-22T08:20:47.000Z</time>
      </trkpt>
      <trkpt lat="47.51434" lon="6.77216">
        <ele>375</ele>
        <time>2015-03-22T08:20:48.000Z</time>
      </trkpt>
      <trkpt lat="47.51426" lon="6.7722">
        <ele>375</ele>
        <time>2015-03-22T08:20:49.000Z</time>
      </trkpt>
      <trkpt lat="47.51419" lon="6.77224">
        <ele>375</ele>
        <time>2015-03-22T08:20:50.000Z</time>
      </trkpt>
      <trkpt lat="47.51411" lon="6.77227">
        <ele>376</ele>
        <time>2015-03-22T08:20:51.000Z</time>
      </trkpt>
      <trkpt lat="47.51406" lon="6.7723">
        <ele>376</ele>
        <time>2015-03-22T08:20:52.000Z</time>
      </trkpt>
      <trkpt lat="47.51401" lon="6.77232">
        <ele>376</ele>
        <time>2015-03-22T08:20:53.000Z</time>
      </trkpt>
      <trkpt lat="47.51396" lon="6.77235">
        <ele>376</ele>
        <time>2015-03-22T08:20:54.000Z</time>
      </trkpt>
      <trkpt lat="47.51391" lon="6.77239">
        <ele>376</ele>
        <time>2015-03-22T08:20:55.000Z</time>
      </trkpt>
      <trkpt lat="47.51385" lon="6.77243">
        <ele>376</ele>
        <time>2015-03-22T08:20:56.000Z</time>
      </trkpt>
      <trkpt lat="47.5138" lon="6.77247">
        <ele>376</ele>
        <time>2015-03-22T08:20:57.000Z</time>
      </trkpt>
      <trkpt lat="47.51375" lon="6.77251">
        <ele>377</ele>
        <time>2015-03-22T08:20:58.000Z</time>
      </trkpt>
      <trkpt lat="47.51371" lon="6.77255">
        <ele>378</ele>
        <time>2015-03-22T08:20:59.000Z</time>
      </trkpt>
      <trkpt lat="47.51367" lon="6.77258">
        <ele>378</ele>
        <time>2015-03-22T08:21:00.000Z</time>
      </trkpt>
      <trkpt lat="47.51363" lon="6.77261">
        <ele>378</ele>
        <time>2015-03-22T08:21:01.000Z</time>
      </trkpt>
      <trkpt lat="47.51359" lon="6.77264">
        <ele>378</ele>
        <time>2015-03-22T08:21:02.000Z</time>
      </trkpt>
      <trkpt lat="47.51357" lon="6.77269">
        <ele>378</ele>
        <time>2015-03-22T08:21:03.000Z</time>
      </trkpt>
      <trkpt lat="47.51353" lon="6.77271">
        <ele>378</ele>
        <time>2015-03-22T08:21:04.000Z</time>
      </trkpt>
      <trkpt lat="47.51349" lon="6.77271">
        <ele>378</ele>
        <time>2015-03-22T08:21:05.000Z</time>
      </trkpt>
      <trkpt lat="47.51347" lon="6.77273">
        <ele>378</ele>
        <time>2015-03-22T08:21:06.000Z</time>
      </trkpt>
      <trkpt lat="47.51344" lon="6.77275">
        <ele>378</ele>
        <time>2015-03-22T08:21:07.000Z</time>
      </trkpt>
      <trkpt lat="47.51342" lon="6.77278">
        <ele>378</ele>
        <time>2015-03-22T08:21:08.000Z</time>
      </trkpt>
      <trkpt lat="47.51339" lon="6.7728">
        <ele>378</ele>
        <time>2015-03-22T08:21:09.000Z</time>
      </trkpt>
      <trkpt lat="47.51336" lon="6.77281">
        <ele>378</ele>
        <time>2015-03-22T08:21:10.000Z</time>
      </trkpt>
      <trkpt lat="47.51333" lon="6.77282">
        <ele>378</ele>
        <time>2015-03-22T08:21:11.000Z</time>
      </trkpt>
      <trkpt lat="47.5133" lon="6.77282">
        <ele>377</ele>
        <time>2015-03-22T08:21:12.000Z</time>
      </trkpt>
      <trkpt lat="47.51326" lon="6.77281">
        <ele>377</ele>
        <time>2015-03-22T08:21:13.000Z</time>
      </trkpt>
      <trkpt lat="47.51322" lon="6.77281">
        <ele>377</ele>
        <time>2015-03-22T08:21:14.000Z</time>
      </trkpt>
      <trkpt lat="47.51319" lon="6.77281">
        <ele>377</ele>
        <time>2015-03-22T08:21:15.000Z</time>
      </trkpt>
      <trkpt lat="47.51315" lon="6.7728">
        <ele>377</ele>
        <time>2015-03-22T08:21:16.000Z</time>
      </trkpt>
      <trkpt lat="47.51311" lon="6.77279">
        <ele>377</ele>
        <time>2015-03-22T08:21:17.000Z</time>
      </trkpt>
      <trkpt lat="47.51308" lon="6.77278">
        <ele>377</ele>
        <time>2015-03-22T08:21:18.000Z</time>
      </trkpt>
      <trkpt lat="47.51305" lon="6.77277">
        <ele>377</ele>
        <time>2015-03-22T08:21:19.000Z</time>
      </trkpt>
      <trkpt lat="47.51301" lon="6.77275">
        <ele>377</ele>
        <time>2015-03-22T08:21:20.000Z</time>
      </trkpt>
      <trkpt lat="47.51297" lon="6.77273">
        <ele>377</ele>
        <time>2015-03-22T08:21:21.000Z</time>
      </trkpt>
      <trkpt lat="47.51294" lon="6.77271">
        <ele>377</ele>
        <time>2015-03-22T08:21:22.000Z</time>
      </trkpt>
      <trkpt lat="47.5129" lon="6.77269">
        <ele>377</ele>
        <time>2015-03-22T08:21:23.000Z</time>
      </trkpt>
      <trkpt lat="47.51287" lon="6.77267">
        <ele>377</ele>
        <time>2015-03-22T08:21:24.000Z</time>
      </trkpt>
      <trkpt lat="47.51284" lon="6.77265">
        <ele>377</ele>
        <time>2015-03-22T08:21:25.000Z</time>
      </trkpt>
      <trkpt lat="47.51281" lon="6.77263">
        <ele>377</ele>
        <time>2015-03-22T08:21:26.000Z</time>
      </trkpt>
      <trkpt lat="47.51277" lon="6.77261">
        <ele>377</ele>
        <time>2015-03-22T08:21:27.000Z</time>
      </trkpt>
      <trkpt lat="47.51274" lon="6.77258">
        <ele>377</ele>
        <time>2015-03-22T08:21:28.000Z</time>
      </trkpt>
      <trkpt lat="47.51271" lon="6.77256">
        <ele>378</ele>
        <time>2015-03-22T08:21:29.000Z</time>
      </trkpt>
      <trkpt lat="47.51267" lon="6.77252">
        <ele>378</ele>
        <time>2015-03-22T08:21:30.000Z</time>
      </trkpt>
      <trkpt lat="47.51264" lon="6.77248">
        <ele>378</ele>
        <time>2015-03-22T08:21:31.000Z</time>
      </trkpt>
      <trkpt lat="47.51261" lon="6.7724">
        <ele>378</ele>
        <time>2015-03-22T08:21:32.000Z</time>
      </trkpt>
      <trkpt lat="47.51258" lon="6.77235">
        <ele>378</ele>
        <time>2015-03-22T08:21:33.000Z</time>
      </trkpt>
      <trkpt lat="47.51256" lon="6.7723">
        <ele>378</ele>
        <time>2015-03-22T08:21:34.000Z</time>
      </trkpt>
      <trkpt lat="47.51254" lon="6.77224">
        <ele>378</ele>
        <time>2015-03-22T08:21:35.000Z</time>
      </trkpt>
      <trkpt lat="47.51249" lon="6.77219">
        <ele>376</ele>
        <time>2015-03-22T08:21:36.000Z</time>
      </trkpt>
      <trkpt lat="47.51247" lon="6.77213">
        <ele>376</ele>
        <time>2015-03-22T08:21:37.000Z</time>
      </trkpt>
      <trkpt lat="47.51243" lon="6.77208">
        <ele>376</ele>
        <time>2015-03-22T08:21:38.000Z</time>
      </trkpt>
      <trkpt lat="47.5124" lon="6.77203">
        <ele>376</ele>
        <time>2015-03-22T08:21:39.000Z</time>
      </trkpt>
      <trkpt lat="47.51236" lon="6.77199">
        <ele>376</ele>
        <time>2015-03-22T08:21:40.000Z</time>
      </trkpt>
      <trkpt lat="47.51233" lon="6.77192">
        <ele>376</ele>
        <time>2015-03-22T08:21:41.000Z</time>
      </trkpt>
      <trkpt lat="47.5123" lon="6.77186">
        <ele>377</ele>
        <time>2015-03-22T08:21:42.000Z</time>
      </trkpt>
      <trkpt lat="47.51227" lon="6.77179">
        <ele>377</ele>
        <time>2015-03-22T08:21:43.000Z</time>
      </trkpt>
      <trkpt lat="47.51224" lon="6.77172">
        <ele>377</ele>
        <time>2015-03-22T08:21:44.000Z</time>
      </trkpt>
      <trkpt lat="47.51221" lon="6.77165">
        <ele>378</ele>
        <time>2015-03-22T08:21:45.000Z</time>
      </trkpt>
      <trkpt lat="47.51217" lon="6.77158">
        <ele>378</ele>
        <time>2015-03-22T08:21:46.000Z</time>
      </trkpt>
      <trkpt lat="47.51213" lon="6.7715">
        <ele>378</ele>
        <time>2015-03-22T08:21:47.000Z</time>
      </trkpt>
      <trkpt lat="47.51209" lon="6.77142">
        <ele>378</ele>
        <time>2015-03-22T08:21:48.000Z</time>
      </trkpt>
      <trkpt lat="47.51206" lon="6.77134">
        <ele>378</ele>
        <time>2015-03-22T08:21:49.000Z</time>
      </trkpt>
      <trkpt lat="47.51201" lon="6.77126">
        <ele>378</ele>
        <time>2015-03-22T08:21:50.000Z</time>
      </trkpt>
      <trkpt lat="47.51197" lon="6.77118">
        <ele>378</ele>
        <time>2015-03-22T08:21:51.000Z</time>
      </trkpt>
      <trkpt lat="47.51192" lon="6.7711">
        <ele>378</ele>
        <time>2015-03-22T08:21:52.000Z</time>
      </trkpt>
      <trkpt lat="47.51188" lon="6.77102">
        <ele>378</ele>
        <time>2015-03-22T08:21:53.000Z</time>
      </trkpt>
      <trkpt lat="47.51183" lon="6.77094">
        <ele>378</ele>
        <time>2015-03-22T08:21:54.000Z</time>
      </trkpt>
      <trkpt lat="47.51178" lon="6.77084">
        <ele>378</ele>
        <time>2015-03-22T08:21:55.000Z</time>
      </trkpt>
      <trkpt lat="47.51174" lon="6.77076">
        <ele>377</ele>
        <time>2015-03-22T08:21:56.000Z</time>
      </trkpt>
      <trkpt lat="47.51168" lon="6.77067">
        <ele>377</ele>
        <time>2015-03-22T08:21:57.000Z</time>
      </trkpt>
      <trkpt lat="47.51162" lon="6.77059">
        <ele>376</ele>
        <time>2015-03-22T08:21:58.000Z</time>
      </trkpt>
      <trkpt lat="47.51156" lon="6.77056">
        <ele>376</ele>
        <time>2015-03-22T08:21:59.000Z</time>
      </trkpt>
      <trkpt lat="47.5115" lon="6.77048">
        <ele>376</ele>
        <time>2015-03-22T08:22:00.000Z</time>
      </trkpt>
      <trkpt lat="47.51143" lon="6.77043">
        <ele>376</ele>
        <time>2015-03-22T08:22:01.000Z</time>
      </trkpt>
      <trkpt lat="47.51137" lon="6.7704">
        <ele>375</ele>
        <time>2015-03-22T08:22:02.000Z</time>
      </trkpt>
      <trkpt lat="47.5113" lon="6.77036">
        <ele>375</ele>
        <time>2015-03-22T08:22:03.000Z</time>
      </trkpt>
      <trkpt lat="47.51124" lon="6.7703">
        <ele>375</ele>
        <time>2015-03-22T08:22:04.000Z</time>
      </trkpt>
      <trkpt lat="47.51117" lon="6.77023">
        <ele>375</ele>
        <time>2015-03-22T08:22:05.000Z</time>
      </trkpt>
      <trkpt lat="47.51111" lon="6.77019">
        <ele>375</ele>
        <time>2015-03-22T08:22:06.000Z</time>
      </trkpt>
      <trkpt lat="47.51104" lon="6.77013">
        <ele>375</ele>
        <time>2015-03-22T08:22:07.000Z</time>
      </trkpt>
      <trkpt lat="47.51098" lon="6.77007">
        <ele>375</ele>
        <time>2015-03-22T08:22:08.000Z</time>
      </trkpt>
      <trkpt lat="47.51092" lon="6.77002">
        <ele>375</ele>
        <time>2015-03-22T08:22:09.000Z</time>
      </trkpt>
      <trkpt lat="47.51085" lon="6.76996">
        <ele>375</ele>
        <time>2015-03-22T08:22:10.000Z</time>
      </trkpt>
      <trkpt lat="47.51077" lon="6.76993">
        <ele>375</ele>
        <time>2015-03-22T08:22:11.000Z</time>
      </trkpt>
      <trkpt lat="47.5107" lon="6.76986">
        <ele>375</ele>
        <time>2015-03-22T08:22:12.000Z</time>
      </trkpt>
      <trkpt lat="47.51064" lon="6.76982">
        <ele>375</ele>
        <time>2015-03-22T08:22:13.000Z</time>
      </trkpt>
      <trkpt lat="47.51058" lon="6.76976">
        <ele>375</ele>
        <time>2015-03-22T08:22:14.000Z</time>
      </trkpt>
      <trkpt lat="47.51051" lon="6.76971">
        <ele>375</ele>
        <time>2015-03-22T08:22:15.000Z</time>
      </trkpt>
      <trkpt lat="47.51046" lon="6.76964">
        <ele>375</ele>
        <time>2015-03-22T08:22:16.000Z</time>
      </trkpt>
      <trkpt lat="47.5104" lon="6.76959">
        <ele>375</ele>
        <time>2015-03-22T08:22:17.000Z</time>
      </trkpt>
      <trkpt lat="47.51034" lon="6.76954">
        <ele>375</ele>
        <time>2015-03-22T08:22:18.000Z</time>
      </trkpt>
      <trkpt lat="47.51029" lon="6.76949">
        <ele>375</ele>
        <time>2015-03-22T08:22:19.000Z</time>
      </trkpt>
      <trkpt lat="47.51024" lon="6.76945">
        <ele>375</ele>
        <time>2015-03-22T08:22:20.000Z</time>
      </trkpt>
      <trkpt lat="47.51018" lon="6.76941">
        <ele>375</ele>
        <time>2015-03-22T08:22:21.000Z</time>
      </trkpt>
      <trkpt lat="47.51013" lon="6.76938">
        <ele>375</ele>
        <time>2015-03-22T08:22:22.000Z</time>
      </trkpt>
      <trkpt lat="47.51008" lon="6.76934">
        <ele>375</ele>
        <time>2015-03-22T08:22:23.000Z</time>
      </trkpt>
      <trkpt lat="47.51003" lon="6.7693">
        <ele>375</ele>
        <time>2015-03-22T08:22:24.000Z</time>
      </trkpt>
      <trkpt lat="47.50998" lon="6.76925">
        <ele>375</ele>
        <time>2015-03-22T08:22:25.000Z</time>
      </trkpt>
      <trkpt lat="47.50993" lon="6.7692">
        <ele>375</ele>
        <time>2015-03-22T08:22:26.000Z</time>
      </trkpt>
      <trkpt lat="47.50987" lon="6.76915">
        <ele>377</ele>
        <time>2015-03-22T08:22:27.000Z</time>
      </trkpt>
      <trkpt lat="47.50982" lon="6.76911">
        <ele>377</ele>
        <time>2015-03-22T08:22:28.000Z</time>
      </trkpt>
      <trkpt lat="47.50977" lon="6.76909">
        <ele>377</ele>
        <time>2015-03-22T08:22:29.000Z</time>
      </trkpt>
      <trkpt lat="47.50972" lon="6.76904">
        <ele>377</ele>
        <time>2015-03-22T08:22:30.000Z</time>
      </trkpt>
      <trkpt lat="47.50968" lon="6.769">
        <ele>377</ele>
        <time>2015-03-22T08:22:31.000Z</time>
      </trkpt>
      <trkpt lat="47.50963" lon="6.76895">
        <ele>377</ele>
        <time>2015-03-22T08:22:32.000Z</time>
      </trkpt>
      <trkpt lat="47.50958" lon="6.7689">
        <ele>377</ele>
        <time>2015-03-22T08:22:33.000Z</time>
      </trkpt>
      <trkpt lat="47.50954" lon="6.76885">
        <ele>378</ele>
        <time>2015-03-22T08:22:34.000Z</time>
      </trkpt>
      <trkpt lat="47.50949" lon="6.7688">
        <ele>378</ele>
        <time>2015-03-22T08:22:35.000Z</time>
      </trkpt>
      <trkpt lat="47.50946" lon="6.76875">
        <ele>378</ele>
        <time>2015-03-22T08:22:36.000Z</time>
      </trkpt>
      <trkpt lat="47.50942" lon="6.76869">
        <ele>378</ele>
        <time>2015-03-22T08:22:37.000Z</time>
      </trkpt>
      <trkpt lat="47.50938" lon="6.76863">
        <ele>378</ele>
        <time>2015-03-22T08:22:38.000Z</time>
      </trkpt>
      <trkpt lat="47.50934" lon="6.76858">
        <ele>378</ele>
        <time>2015-03-22T08:22:39.000Z</time>
      </trkpt>
      <trkpt lat="47.5093" lon="6.76852">
        <ele>378</ele>
        <time>2015-03-22T08:22:40.000Z</time>
      </trkpt>
      <trkpt lat="47.50927" lon="6.76847">
        <ele>379</ele>
        <time>2015-03-22T08:22:41.000Z</time>
      </trkpt>
      <trkpt lat="47.50925" lon="6.76842">
        <ele>379</ele>
        <time>2015-03-22T08:22:42.000Z</time>
      </trkpt>
      <trkpt lat="47.50922" lon="6.76836">
        <ele>379</ele>
        <time>2015-03-22T08:22:43.000Z</time>
      </trkpt>
      <trkpt lat="47.5092" lon="6.7683">
        <ele>379</ele>
        <time>2015-03-22T08:22:44.000Z</time>
      </trkpt>
      <trkpt lat="47.50917" lon="6.76822">
        <ele>379</ele>
        <time>2015-03-22T08:22:45.000Z</time>
      </trkpt>
      <trkpt lat="47.50915" lon="6.76817">
        <ele>381</ele>
        <time>2015-03-22T08:22:46.000Z</time>
      </trkpt>
      <trkpt lat="47.50913" lon="6.76812">
        <ele>381</ele>
        <time>2015-03-22T08:22:47.000Z</time>
      </trkpt>
      <trkpt lat="47.5091" lon="6.76807">
        <ele>381</ele>
        <time>2015-03-22T08:22:48.000Z</time>
      </trkpt>
      <trkpt lat="47.50907" lon="6.76801">
        <ele>381</ele>
        <time>2015-03-22T08:22:49.000Z</time>
      </trkpt>
      <trkpt lat="47.50905" lon="6.76794">
        <ele>381</ele>
        <time>2015-03-22T08:22:50.000Z</time>
      </trkpt>
      <trkpt lat="47.50903" lon="6.7679">
        <ele>381</ele>
        <time>2015-03-22T08:22:51.000Z</time>
      </trkpt>
      <trkpt lat="47.509" lon="6.76785">
        <ele>381</ele>
        <time>2015-03-22T08:22:52.000Z</time>
      </trkpt>
      <trkpt lat="47.50899" lon="6.76779">
        <ele>381</ele>
        <time>2015-03-22T08:22:53.000Z</time>
      </trkpt>
      <trkpt lat="47.50897" lon="6.76774">
        <ele>381</ele>
        <time>2015-03-22T08:22:54.000Z</time>
      </trkpt>
      <trkpt lat="47.50896" lon="6.76768">
        <ele>381</ele>
        <time>2015-03-22T08:22:55.000Z</time>
      </trkpt>
      <trkpt lat="47.50894" lon="6.76761">
        <ele>381</ele>
        <time>2015-03-22T08:22:56.000Z</time>
      </trkpt>
      <trkpt lat="47.50892" lon="6.76755">
        <ele>381</ele>
        <time>2015-03-22T08:22:57.000Z</time>
      </trkpt>
      <trkpt lat="47.50891" lon="6.7675">
        <ele>382</ele>
        <time>2015-03-22T08:22:58.000Z</time>
      </trkpt>
      <trkpt lat="47.50889" lon="6.76744">
        <ele>382</ele>
        <time>2015-03-22T08:22:59.000Z</time>
      </trkpt>
      <trkpt lat="47.50887" lon="6.7674">
        <ele>382</ele>
        <time>2015-03-22T08:23:00.000Z</time>
      </trkpt>
      <trkpt lat="47.50885" lon="6.76735">
        <ele>382</ele>
        <time>2015-03-22T08:23:01.000Z</time>
      </trkpt>
      <trkpt lat="47.5088" lon="6.76724">
        <ele>383</ele>
        <time>2015-03-22T08:23:03.000Z</time>
      </trkpt>
      <trkpt lat="47.50878" lon="6.76718">
        <ele>383</ele>
        <time>2015-03-22T08:23:04.000Z</time>
      </trkpt>
      <trkpt lat="47.50877" lon="6.76713">
        <ele>383</ele>
        <time>2015-03-22T08:23:05.000Z</time>
      </trkpt>
      <trkpt lat="47.50875" lon="6.76708">
        <ele>383</ele>
        <time>2015-03-22T08:23:06.000Z</time>
      </trkpt>
      <trkpt lat="47.50873" lon="6.76702">
        <ele>383</ele>
        <time>2015-03-22T08:23:07.000Z</time>
      </trkpt>
      <trkpt lat="47.50871" lon="6.76697">
        <ele>384</ele>
        <time>2015-03-22T08:23:08.000Z</time>
      </trkpt>
      <trkpt lat="47.50869" lon="6.76691">
        <ele>384</ele>
        <time>2015-03-22T08:23:09.000Z</time>
      </trkpt>
      <trkpt lat="47.50867" lon="6.76686">
        <ele>384</ele>
        <time>2015-03-22T08:23:10.000Z</time>
      </trkpt>
      <trkpt lat="47.50864" lon="6.7668">
        <ele>384</ele>
        <time>2015-03-22T08:23:11.000Z</time>
      </trkpt>
      <trkpt lat="47.50862" lon="6.76675">
        <ele>385</ele>
        <time>2015-03-22T08:23:12.000Z</time>
      </trkpt>
      <trkpt lat="47.50859" lon="6.76669">
        <ele>385</ele>
        <time>2015-03-22T08:23:13.000Z</time>
      </trkpt>
      <trkpt lat="47.50857" lon="6.76664">
        <ele>387</ele>
        <time>2015-03-22T08:23:14.000Z</time>
      </trkpt>
      <trkpt lat="47.50855" lon="6.76658">
        <ele>387</ele>
        <time>2015-03-22T08:23:15.000Z</time>
      </trkpt>
      <trkpt lat="47.50853" lon="6.76653">
        <ele>387</ele>
        <time>2015-03-22T08:23:16.000Z</time>
      </trkpt>
      <trkpt lat="47.5085" lon="6.76647">
        <ele>387</ele>
        <time>2015-03-22T08:23:17.000Z</time>
      </trkpt>
      <trkpt lat="47.50848" lon="6.76642">
        <ele>387</ele>
        <time>2015-03-22T08:23:18.000Z</time>
      </trkpt>
      <trkpt lat="47.50846" lon="6.76637">
        <ele>387</ele>
        <time>2015-03-22T08:23:19.000Z</time>
      </trkpt>
      <trkpt lat="47.50844" lon="6.76633">
        <ele>387</ele>
        <time>2015-03-22T08:23:20.000Z</time>
      </trkpt>
      <trkpt lat="47.50843" lon="6.76628">
        <ele>387</ele>
        <time>2015-03-22T08:23:21.000Z</time>
      </trkpt>
      <trkpt lat="47.50841" lon="6.76624">
        <ele>387</ele>
        <time>2015-03-22T08:23:22.000Z</time>
      </trkpt>
      <trkpt lat="47.50839" lon="6.7662">
        <ele>387</ele>
        <time>2015-03-22T08:23:23.000Z</time>
      </trkpt>
      <trkpt lat="47.50838" lon="6.76616">
        <ele>387</ele>
        <time>2015-03-22T08:23:24.000Z</time>
      </trkpt>
      <trkpt lat="47.50836" lon="6.76612">
        <ele>387</ele>
        <time>2015-03-22T08:23:25.000Z</time>
      </trkpt>
      <trkpt lat="47.50834" lon="6.76609">
        <ele>387</ele>
        <time>2015-03-22T08:23:26.000Z</time>
      </trkpt>
      <trkpt lat="47.50833" lon="6.76605">
        <ele>390</ele>
        <time>2015-03-22T08:23:27.000Z</time>
      </trkpt>
      <trkpt lat="47.50832" lon="6.76602">
        <ele>390</ele>
        <time>2015-03-22T08:23:28.000Z</time>
      </trkpt>
      <trkpt lat="47.50829" lon="6.76599">
        <ele>390</ele>
        <time>2015-03-22T08:23:32.000Z</time>
      </trkpt>
      <trkpt lat="47.50827" lon="6.76601">
        <ele>390</ele>
        <time>2015-03-22T08:23:33.000Z</time>
      </trkpt>
      <trkpt lat="47.50824" lon="6.76601">
        <ele>390</ele>
        <time>2015-03-22T08:23:34.000Z</time>
      </trkpt>
      <trkpt lat="47.50821" lon="6.766">
        <ele>390</ele>
        <time>2015-03-22T08:23:35.000Z</time>
      </trkpt>
      <trkpt lat="47.50818" lon="6.76598">
        <ele>390</ele>
        <time>2015-03-22T08:23:36.000Z</time>
      </trkpt>
      <trkpt lat="47.50815" lon="6.76595">
        <ele>390</ele>
        <time>2015-03-22T08:23:37.000Z</time>
      </trkpt>
      <trkpt lat="47.50813" lon="6.76592">
        <ele>390</ele>
        <time>2015-03-22T08:23:38.000Z</time>
      </trkpt>
      <trkpt lat="47.5081" lon="6.7659">
        <ele>390</ele>
        <time>2015-03-22T08:23:39.000Z</time>
      </trkpt>
      <trkpt lat="47.50808" lon="6.7659">
        <ele>390</ele>
        <time>2015-03-22T08:23:40.000Z</time>
      </trkpt>
      <trkpt lat="47.50805" lon="6.7659">
        <ele>390</ele>
        <time>2015-03-22T08:23:41.000Z</time>
      </trkpt>
      <trkpt lat="47.50802" lon="6.76592">
        <ele>391</ele>
        <time>2015-03-22T08:23:42.000Z</time>
      </trkpt>
      <trkpt lat="47.50799" lon="6.76593">
        <ele>391</ele>
        <time>2015-03-22T08:23:43.000Z</time>
      </trkpt>
      <trkpt lat="47.50796" lon="6.76594">
        <ele>391</ele>
        <time>2015-03-22T08:23:44.000Z</time>
      </trkpt>
      <trkpt lat="47.50793" lon="6.76595">
        <ele>391</ele>
        <time>2015-03-22T08:23:45.000Z</time>
      </trkpt>
      <trkpt lat="47.50789" lon="6.76596">
        <ele>391</ele>
        <time>2015-03-22T08:23:46.000Z</time>
      </trkpt>
      <trkpt lat="47.50785" lon="6.76598">
        <ele>391</ele>
        <time>2015-03-22T08:23:47.000Z</time>
      </trkpt>
      <trkpt lat="47.50782" lon="6.766">
        <ele>391</ele>
        <time>2015-03-22T08:23:48.000Z</time>
      </trkpt>
      <trkpt lat="47.50779" lon="6.76602">
        <ele>391</ele>
        <time>2015-03-22T08:23:49.000Z</time>
      </trkpt>
      <trkpt lat="47.50775" lon="6.76604">
        <ele>392</ele>
        <time>2015-03-22T08:23:50.000Z</time>
      </trkpt>
      <trkpt lat="47.50772" lon="6.76605">
        <ele>392</ele>
        <time>2015-03-22T08:23:51.000Z</time>
      </trkpt>
      <trkpt lat="47.50769" lon="6.76607">
        <ele>392</ele>
        <time>2015-03-22T08:23:52.000Z</time>
      </trkpt>
      <trkpt lat="47.50765" lon="6.76607">
        <ele>392</ele>
        <time>2015-03-22T08:23:53.000Z</time>
      </trkpt>
      <trkpt lat="47.50761" lon="6.76607">
        <ele>392</ele>
        <time>2015-03-22T08:23:54.000Z</time>
      </trkpt>
      <trkpt lat="47.50757" lon="6.76607">
        <ele>392</ele>
        <time>2015-03-22T08:23:55.000Z</time>
      </trkpt>
      <trkpt lat="47.50754" lon="6.76607">
        <ele>392</ele>
        <time>2015-03-22T08:23:56.000Z</time>
      </trkpt>
      <trkpt lat="47.5075" lon="6.76606">
        <ele>394</ele>
        <time>2015-03-22T08:23:57.000Z</time>
      </trkpt>
      <trkpt lat="47.50746" lon="6.76606">
        <ele>394</ele>
        <time>2015-03-22T08:23:58.000Z</time>
      </trkpt>
      <trkpt lat="47.50742" lon="6.76605">
        <ele>394</ele>
        <time>2015-03-22T08:23:59.000Z</time>
      </trkpt>
      <trkpt lat="47.50738" lon="6.76604">
        <ele>394</ele>
        <time>2015-03-22T08:24:00.000Z</time>
      </trkpt>
      <trkpt lat="47.50734" lon="6.76604">
        <ele>394</ele>
        <time>2015-03-22T08:24:01.000Z</time>
      </trkpt>
      <trkpt lat="47.5073" lon="6.76603">
        <ele>394</ele>
        <time>2015-03-22T08:24:02.000Z</time>
      </trkpt>
      <trkpt lat="47.50726" lon="6.76602">
        <ele>394</ele>
        <time>2015-03-22T08:24:03.000Z</time>
      </trkpt>
      <trkpt lat="47.50722" lon="6.76601">
        <ele>394</ele>
        <time>2015-03-22T08:24:04.000Z</time>
      </trkpt>
      <trkpt lat="47.50718" lon="6.766">
        <ele>394</ele>
        <time>2015-03-22T08:24:05.000Z</time>
      </trkpt>
      <trkpt lat="47.50714" lon="6.76599">
        <ele>394</ele>
        <time>2015-03-22T08:24:06.000Z</time>
      </trkpt>
      <trkpt lat="47.5071" lon="6.76598">
        <ele>395</ele>
        <time>2015-03-22T08:24:07.000Z</time>
      </trkpt>
      <trkpt lat="47.50706" lon="6.76598">
        <ele>395</ele>
        <time>2015-03-22T08:24:08.000Z</time>
      </trkpt>
      <trkpt lat="47.50701" lon="6.76598">
        <ele>395</ele>
        <time>2015-03-22T08:24:09.000Z</time>
      </trkpt>
      <trkpt lat="47.50697" lon="6.76598">
        <ele>395</ele>
        <time>2015-03-22T08:24:10.000Z</time>
      </trkpt>
      <trkpt lat="47.50694" lon="6.76598">
        <ele>395</ele>
        <time>2015-03-22T08:24:11.000Z</time>
      </trkpt>
      <trkpt lat="47.5069" lon="6.76599">
        <ele>395</ele>
        <time>2015-03-22T08:24:12.000Z</time>
      </trkpt>
      <trkpt lat="47.50686" lon="6.766">
        <ele>395</ele>
        <time>2015-03-22T08:24:13.000Z</time>
      </trkpt>
      <trkpt lat="47.50682" lon="6.766">
        <ele>395</ele>
        <time>2015-03-22T08:24:14.000Z</time>
      </trkpt>
      <trkpt lat="47.50679" lon="6.76601">
        <ele>395</ele>
        <time>2015-03-22T08:24:15.000Z</time>
      </trkpt>
      <trkpt lat="47.50675" lon="6.76602">
        <ele>396</ele>
        <time>2015-03-22T08:24:16.000Z</time>
      </trkpt>
      <trkpt lat="47.50671" lon="6.76603">
        <ele>396</ele>
        <time>2015-03-22T08:24:17.000Z</time>
      </trkpt>
      <trkpt lat="47.50667" lon="6.76603">
        <ele>396</ele>
        <time>2015-03-22T08:24:18.000Z</time>
      </trkpt>
      <trkpt lat="47.50663" lon="6.76604">
        <ele>397</ele>
        <time>2015-03-22T08:24:19.000Z</time>
      </trkpt>
      <trkpt lat="47.5066" lon="6.76606">
        <ele>397</ele>
        <time>2015-03-22T08:24:20.000Z</time>
      </trkpt>
      <trkpt lat="47.50656" lon="6.76607">
        <ele>397</ele>
        <time>2015-03-22T08:24:21.000Z</time>
      </trkpt>
      <trkpt lat="47.50653" lon="6.76609">
        <ele>397</ele>
        <time>2015-03-22T08:24:22.000Z</time>
      </trkpt>
      <trkpt lat="47.5065" lon="6.7661">
        <ele>397</ele>
        <time>2015-03-22T08:24:23.000Z</time>
      </trkpt>
      <trkpt lat="47.50647" lon="6.76611">
        <ele>397</ele>
        <time>2015-03-22T08:24:24.000Z</time>
      </trkpt>
      <trkpt lat="47.50644" lon="6.76612">
        <ele>397</ele>
        <time>2015-03-22T08:24:25.000Z</time>
      </trkpt>
      <trkpt lat="47.5064" lon="6.76614">
        <ele>397</ele>
        <time>2015-03-22T08:24:26.000Z</time>
      </trkpt>
      <trkpt lat="47.50638" lon="6.76616">
        <ele>397</ele>
        <time>2015-03-22T08:24:27.000Z</time>
      </trkpt>
      <trkpt lat="47.50635" lon="6.76619">
        <ele>397</ele>
        <time>2015-03-22T08:24:28.000Z</time>
      </trkpt>
      <trkpt lat="47.50633" lon="6.76622">
        <ele>397</ele>
        <time>2015-03-22T08:24:29.000Z</time>
      </trkpt>
      <trkpt lat="47.50631" lon="6.76623">
        <ele>397</ele>
        <time>2015-03-22T08:24:30.000Z</time>
      </trkpt>
      <trkpt lat="47.50628" lon="6.76625">
        <ele>397</ele>
        <time>2015-03-22T08:24:31.000Z</time>
      </trkpt>
      <trkpt lat="47.50624" lon="6.76627">
        <ele>397</ele>
        <time>2015-03-22T08:24:32.000Z</time>
      </trkpt>
      <trkpt lat="47.50621" lon="6.76629">
        <ele>397</ele>
        <time>2015-03-22T08:24:33.000Z</time>
      </trkpt>
      <trkpt lat="47.50618" lon="6.76631">
        <ele>397</ele>
        <time>2015-03-22T08:24:34.000Z</time>
      </trkpt>
      <trkpt lat="47.50614" lon="6.76632">
        <ele>397</ele>
        <time>2015-03-22T08:24:35.000Z</time>
      </trkpt>
      <trkpt lat="47.50611" lon="6.76634">
        <ele>397</ele>
        <time>2015-03-22T08:24:36.000Z</time>
      </trkpt>
      <trkpt lat="47.50608" lon="6.76635">
        <ele>397</ele>
        <time>2015-03-22T08:24:37.000Z</time>
      </trkpt>
      <trkpt lat="47.50604" lon="6.76635">
        <ele>397</ele>
        <time>2015-03-22T08:24:38.000Z</time>
      </trkpt>
      <trkpt lat="47.50601" lon="6.76636">
        <ele>398</ele>
        <time>2015-03-22T08:24:39.000Z</time>
      </trkpt>
      <trkpt lat="47.50597" lon="6.76637">
        <ele>398</ele>
        <time>2015-03-22T08:24:40.000Z</time>
      </trkpt>
      <trkpt lat="47.50594" lon="6.76638">
        <ele>398</ele>
        <time>2015-03-22T08:24:41.000Z</time>
      </trkpt>
      <trkpt lat="47.5059" lon="6.76639">
        <ele>398</ele>
        <time>2015-03-22T08:24:42.000Z</time>
      </trkpt>
      <trkpt lat="47.50587" lon="6.7664">
        <ele>398</ele>
        <time>2015-03-22T08:24:43.000Z</time>
      </trkpt>
      <trkpt lat="47.50584" lon="6.76641">
        <ele>398</ele>
        <time>2015-03-22T08:24:44.000Z</time>
      </trkpt>
      <trkpt lat="47.50581" lon="6.76642">
        <ele>399</ele>
        <time>2015-03-22T08:24:45.000Z</time>
      </trkpt>
      <trkpt lat="47.50577" lon="6.76643">
        <ele>399</ele>
        <time>2015-03-22T08:24:46.000Z</time>
      </trkpt>
      <trkpt lat="47.50574" lon="6.76644">
        <ele>399</ele>
        <time>2015-03-22T08:24:47.000Z</time>
      </trkpt>
      <trkpt lat="47.50571" lon="6.76645">
        <ele>399</ele>
        <time>2015-03-22T08:24:48.000Z</time>
      </trkpt>
      <trkpt lat="47.50568" lon="6.76645">
        <ele>399</ele>
        <time>2015-03-22T08:24:49.000Z</time>
      </trkpt>
      <trkpt lat="47.50564" lon="6.76646">
        <ele>399</ele>
        <time>2015-03-22T08:24:50.000Z</time>
      </trkpt>
      <trkpt lat="47.50561" lon="6.76647">
        <ele>399</ele>
        <time>2015-03-22T08:24:51.000Z</time>
      </trkpt>
      <trkpt lat="47.50557" lon="6.76648">
        <ele>399</ele>
        <time>2015-03-22T08:24:52.000Z</time>
      </trkpt>
      <trkpt lat="47.50554" lon="6.76649">
        <ele>399</ele>
        <time>2015-03-22T08:24:53.000Z</time>
      </trkpt>
      <trkpt lat="47.5055" lon="6.76649">
        <ele>399</ele>
        <time>2015-03-22T08:24:54.000Z</time>
      </trkpt>
      <trkpt lat="47.50546" lon="6.76651">
        <ele>399</ele>
        <time>2015-03-22T08:24:55.000Z</time>
      </trkpt>
      <trkpt lat="47.50543" lon="6.76652">
        <ele>399</ele>
        <time>2015-03-22T08:24:56.000Z</time>
      </trkpt>
      <trkpt lat="47.5054" lon="6.76654">
        <ele>399</ele>
        <time>2015-03-22T08:24:57.000Z</time>
      </trkpt>
      <trkpt lat="47.50535" lon="6.76655">
        <ele>399</ele>
        <time>2015-03-22T08:24:58.000Z</time>
      </trkpt>
      <trkpt lat="47.5053" lon="6.76656">
        <ele>399</ele>
        <time>2015-03-22T08:24:59.000Z</time>
      </trkpt>
      <trkpt lat="47.50525" lon="6.76657">
        <ele>399</ele>
        <time>2015-03-22T08:25:00.000Z</time>
      </trkpt>
      <trkpt lat="47.50519" lon="6.76656">
        <ele>399</ele>
        <time>2015-03-22T08:25:01.000Z</time>
      </trkpt>
      <trkpt lat="47.50514" lon="6.76658">
        <ele>399</ele>
        <time>2015-03-22T08:25:02.000Z</time>
      </trkpt>
      <trkpt lat="47.50509" lon="6.76659">
        <ele>399</ele>
        <time>2015-03-22T08:25:03.000Z</time>
      </trkpt>
      <trkpt lat="47.50505" lon="6.76661">
        <ele>399</ele>
        <time>2015-03-22T08:25:04.000Z</time>
      </trkpt>
      <trkpt lat="47.505" lon="6.76662">
        <ele>399</ele>
        <time>2015-03-22T08:25:05.000Z</time>
      </trkpt>
      <trkpt lat="47.50495" lon="6.76663">
        <ele>399</ele>
        <time>2015-03-22T08:25:06.000Z</time>
      </trkpt>
      <trkpt lat="47.50489" lon="6.76664">
        <ele>399</ele>
        <time>2015-03-22T08:25:07.000Z</time>
      </trkpt>
      <trkpt lat="47.50484" lon="6.76666">
        <ele>399</ele>
        <time>2015-03-22T08:25:08.000Z</time>
      </trkpt>
      <trkpt lat="47.50478" lon="6.76667">
        <ele>397</ele>
        <time>2015-03-22T08:25:09.000Z</time>
      </trkpt>
      <trkpt lat="47.50471" lon="6.76672">
        <ele>397</ele>
        <time>2015-03-22T08:25:10.000Z</time>
      </trkpt>
      <trkpt lat="47.50465" lon="6.76673">
        <ele>397</ele>
        <time>2015-03-22T08:25:11.000Z</time>
      </trkpt>
      <trkpt lat="47.50459" lon="6.76676">
        <ele>397</ele>
        <time>2015-03-22T08:25:12.000Z</time>
      </trkpt>
      <trkpt lat="47.50454" lon="6.76678">
        <ele>397</ele>
        <time>2015-03-22T08:25:13.000Z</time>
      </trkpt>
      <trkpt lat="47.50449" lon="6.7668">
        <ele>397</ele>
        <time>2015-03-22T08:25:14.000Z</time>
      </trkpt>
      <trkpt lat="47.50444" lon="6.76682">
        <ele>397</ele>
        <time>2015-03-22T08:25:15.000Z</time>
      </trkpt>
      <trkpt lat="47.50439" lon="6.76684">
        <ele>397</ele>
        <time>2015-03-22T08:25:16.000Z</time>
      </trkpt>
      <trkpt lat="47.50433" lon="6.76685">
        <ele>397</ele>
        <time>2015-03-22T08:25:17.000Z</time>
      </trkpt>
      <trkpt lat="47.50428" lon="6.76687">
        <ele>397</ele>
        <time>2015-03-22T08:25:18.000Z</time>
      </trkpt>
      <trkpt lat="47.50423" lon="6.76689">
        <ele>397</ele>
        <time>2015-03-22T08:25:19.000Z</time>
      </trkpt>
      <trkpt lat="47.50419" lon="6.7669">
        <ele>397</ele>
        <time>2015-03-22T08:25:20.000Z</time>
      </trkpt>
      <trkpt lat="47.50415" lon="6.7669">
        <ele>397</ele>
        <time>2015-03-22T08:25:21.000Z</time>
      </trkpt>
      <trkpt lat="47.5041" lon="6.76693">
        <ele>397</ele>
        <time>2015-03-22T08:25:22.000Z</time>
      </trkpt>
      <trkpt lat="47.50405" lon="6.76696">
        <ele>397</ele>
        <time>2015-03-22T08:25:23.000Z</time>
      </trkpt>
      <trkpt lat="47.504" lon="6.76699">
        <ele>397</ele>
        <time>2015-03-22T08:25:24.000Z</time>
      </trkpt>
      <trkpt lat="47.50395" lon="6.76702">
        <ele>397</ele>
        <time>2015-03-22T08:25:25.000Z</time>
      </trkpt>
      <trkpt lat="47.50391" lon="6.76704">
        <ele>397</ele>
        <time>2015-03-22T08:25:26.000Z</time>
      </trkpt>
      <trkpt lat="47.50387" lon="6.76707">
        <ele>397</ele>
        <time>2015-03-22T08:25:27.000Z</time>
      </trkpt>
      <trkpt lat="47.50382" lon="6.7671">
        <ele>398</ele>
        <time>2015-03-22T08:25:28.000Z</time>
      </trkpt>
      <trkpt lat="47.50377" lon="6.76712">
        <ele>398</ele>
        <time>2015-03-22T08:25:29.000Z</time>
      </trkpt>
      <trkpt lat="47.50372" lon="6.76712">
        <ele>398</ele>
        <time>2015-03-22T08:25:30.000Z</time>
      </trkpt>
      <trkpt lat="47.50368" lon="6.76714">
        <ele>398</ele>
        <time>2015-03-22T08:25:31.000Z</time>
      </trkpt>
      <trkpt lat="47.50363" lon="6.76716">
        <ele>398</ele>
        <time>2015-03-22T08:25:32.000Z</time>
      </trkpt>
      <trkpt lat="47.50359" lon="6.76718">
        <ele>398</ele>
        <time>2015-03-22T08:25:33.000Z</time>
      </trkpt>
      <trkpt lat="47.50355" lon="6.76721">
        <ele>398</ele>
        <time>2015-03-22T08:25:34.000Z</time>
      </trkpt>
      <trkpt lat="47.5035" lon="6.76724">
        <ele>398</ele>
        <time>2015-03-22T08:25:35.000Z</time>
      </trkpt>
      <trkpt lat="47.50346" lon="6.76726">
        <ele>398</ele>
        <time>2015-03-22T08:25:36.000Z</time>
      </trkpt>
      <trkpt lat="47.50341" lon="6.76729">
        <ele>398</ele>
        <time>2015-03-22T08:25:37.000Z</time>
      </trkpt>
      <trkpt lat="47.50337" lon="6.76731">
        <ele>398</ele>
        <time>2015-03-22T08:25:38.000Z</time>
      </trkpt>
      <trkpt lat="47.50333" lon="6.7673">
        <ele>398</ele>
        <time>2015-03-22T08:25:39.000Z</time>
      </trkpt>
      <trkpt lat="47.50328" lon="6.76732">
        <ele>398</ele>
        <time>2015-03-22T08:25:40.000Z</time>
      </trkpt>
      <trkpt lat="47.50323" lon="6.76733">
        <ele>398</ele>
        <time>2015-03-22T08:25:41.000Z</time>
      </trkpt>
      <trkpt lat="47.50318" lon="6.76734">
        <ele>398</ele>
        <time>2015-03-22T08:25:42.000Z</time>
      </trkpt>
      <trkpt lat="47.50314" lon="6.76736">
        <ele>398</ele>
        <time>2015-03-22T08:25:43.000Z</time>
      </trkpt>
      <trkpt lat="47.50309" lon="6.76736">
        <ele>398</ele>
        <time>2015-03-22T08:25:44.000Z</time>
      </trkpt>
      <trkpt lat="47.5031" lon="6.76732">
        <ele>398</ele>
        <time>2015-03-22T08:25:45.000Z</time>
      </trkpt>
      <trkpt lat="47.50305" lon="6.76731">
        <ele>398</ele>
        <time>2015-03-22T08:25:46.000Z</time>
      </trkpt>
      <trkpt lat="47.50301" lon="6.76733">
        <ele>399</ele>
        <time>2015-03-22T08:25:47.000Z</time>
      </trkpt>
      <trkpt lat="47.50296" lon="6.76735">
        <ele>399</ele>
        <time>2015-03-22T08:25:48.000Z</time>
      </trkpt>
      <trkpt lat="47.5029" lon="6.76737">
        <ele>399</ele>
        <time>2015-03-22T08:25:49.000Z</time>
      </trkpt>
      <trkpt lat="47.50285" lon="6.76736">
        <ele>399</ele>
        <time>2015-03-22T08:25:50.000Z</time>
      </trkpt>
      <trkpt lat="47.50282" lon="6.76741">
        <ele>399</ele>
        <time>2015-03-22T08:25:51.000Z</time>
      </trkpt>
      <trkpt lat="47.50278" lon="6.76743">
        <ele>399</ele>
        <time>2015-03-22T08:25:52.000Z</time>
      </trkpt>
      <trkpt lat="47.50274" lon="6.76745">
        <ele>399</ele>
        <time>2015-03-22T08:25:53.000Z</time>
      </trkpt>
      <trkpt lat="47.50269" lon="6.76746">
        <ele>399</ele>
        <time>2015-03-22T08:25:54.000Z</time>
      </trkpt>
      <trkpt lat="47.50265" lon="6.76747">
        <ele>399</ele>
        <time>2015-03-22T08:25:55.000Z</time>
      </trkpt>
      <trkpt lat="47.5026" lon="6.76746">
        <ele>399</ele>
        <time>2015-03-22T08:25:56.000Z</time>
      </trkpt>
      <trkpt lat="47.50256" lon="6.76746">
        <ele>400</ele>
        <time>2015-03-22T08:25:57.000Z</time>
      </trkpt>
      <trkpt lat="47.50252" lon="6.76745">
        <ele>400</ele>
        <time>2015-03-22T08:25:58.000Z</time>
      </trkpt>
      <trkpt lat="47.50249" lon="6.76744">
        <ele>400</ele>
        <time>2015-03-22T08:25:59.000Z</time>
      </trkpt>
      <trkpt lat="47.50247" lon="6.76741">
        <ele>401</ele>
        <time>2015-03-22T08:26:00.000Z</time>
      </trkpt>
      <trkpt lat="47.50244" lon="6.76738">
        <ele>401</ele>
        <time>2015-03-22T08:26:01.000Z</time>
      </trkpt>
      <trkpt lat="47.50242" lon="6.76733">
        <ele>401</ele>
        <time>2015-03-22T08:26:02.000Z</time>
      </trkpt>
      <trkpt lat="47.50239" lon="6.76728">
        <ele>401</ele>
        <time>2015-03-22T08:26:03.000Z</time>
      </trkpt>
      <trkpt lat="47.50237" lon="6.76722">
        <ele>401</ele>
        <time>2015-03-22T08:26:04.000Z</time>
      </trkpt>
      <trkpt lat="47.50235" lon="6.76716">
        <ele>401</ele>
        <time>2015-03-22T08:26:05.000Z</time>
      </trkpt>
      <trkpt lat="47.50233" lon="6.76706">
        <ele>401</ele>
        <time>2015-03-22T08:26:06.000Z</time>
      </trkpt>
      <trkpt lat="47.50232" lon="6.76701">
        <ele>401</ele>
        <time>2015-03-22T08:26:07.000Z</time>
      </trkpt>
      <trkpt lat="47.5023" lon="6.76695">
        <ele>401</ele>
        <time>2015-03-22T08:26:08.000Z</time>
      </trkpt>
      <trkpt lat="47.50227" lon="6.7669">
        <ele>401</ele>
        <time>2015-03-22T08:26:09.000Z</time>
      </trkpt>
      <trkpt lat="47.50225" lon="6.76683">
        <ele>401</ele>
        <time>2015-03-22T08:26:10.000Z</time>
      </trkpt>
      <trkpt lat="47.50222" lon="6.76678">
        <ele>401</ele>
        <time>2015-03-22T08:26:11.000Z</time>
      </trkpt>
      <trkpt lat="47.5022" lon="6.76671">
        <ele>401</ele>
        <time>2015-03-22T08:26:12.000Z</time>
      </trkpt>
      <trkpt lat="47.50219" lon="6.76665">
        <ele>401</ele>
        <time>2015-03-22T08:26:13.000Z</time>
      </trkpt>
      <trkpt lat="47.50218" lon="6.76659">
        <ele>401</ele>
        <time>2015-03-22T08:26:14.000Z</time>
      </trkpt>
      <trkpt lat="47.50216" lon="6.76652">
        <ele>401</ele>
        <time>2015-03-22T08:26:15.000Z</time>
      </trkpt>
      <trkpt lat="47.50215" lon="6.76646">
        <ele>402</ele>
        <time>2015-03-22T08:26:16.000Z</time>
      </trkpt>
      <trkpt lat="47.50214" lon="6.76641">
        <ele>402</ele>
        <time>2015-03-22T08:26:17.000Z</time>
      </trkpt>
      <trkpt lat="47.50213" lon="6.76636">
        <ele>402</ele>
        <time>2015-03-22T08:26:18.000Z</time>
      </trkpt>
      <trkpt lat="47.5021" lon="6.76629">
        <ele>402</ele>
        <time>2015-03-22T08:26:19.000Z</time>
      </trkpt>
      <trkpt lat="47.50208" lon="6.76623">
        <ele>402</ele>
        <time>2015-03-22T08:26:20.000Z</time>
      </trkpt>
      <trkpt lat="47.50206" lon="6.76616">
        <ele>402</ele>
        <time>2015-03-22T08:26:21.000Z</time>
      </trkpt>
      <trkpt lat="47.50204" lon="6.76611">
        <ele>402</ele>
        <time>2015-03-22T08:26:22.000Z</time>
      </trkpt>
      <trkpt lat="47.50202" lon="6.76605">
        <ele>402</ele>
        <time>2015-03-22T08:26:23.000Z</time>
      </trkpt>
      <trkpt lat="47.50201" lon="6.76599">
        <ele>403</ele>
        <time>2015-03-22T08:26:24.000Z</time>
      </trkpt>
      <trkpt lat="47.502" lon="6.76595">
        <ele>403</ele>
        <time>2015-03-22T08:26:25.000Z</time>
      </trkpt>
      <trkpt lat="47.502" lon="6.7659">
        <ele>403</ele>
        <time>2015-03-22T08:26:26.000Z</time>
      </trkpt>
      <trkpt lat="47.50199" lon="6.76586">
        <ele>403</ele>
        <time>2015-03-22T08:26:27.000Z</time>
      </trkpt>
      <trkpt lat="47.502" lon="6.76581">
        <ele>402</ele>
        <time>2015-03-22T08:26:28.000Z</time>
      </trkpt>
      <trkpt lat="47.50201" lon="6.76576">
        <ele>402</ele>
        <time>2015-03-22T08:26:29.000Z</time>
      </trkpt>
      <trkpt lat="47.50202" lon="6.76572">
        <ele>402</ele>
        <time>2015-03-22T08:26:30.000Z</time>
      </trkpt>
      <trkpt lat="47.50202" lon="6.76569">
        <ele>402</ele>
        <time>2015-03-22T08:26:31.000Z</time>
      </trkpt>
      <trkpt lat="47.50204" lon="6.76566">
        <ele>402</ele>
        <time>2015-03-22T08:26:32.000Z</time>
      </trkpt>
      <trkpt lat="47.50206" lon="6.76563">
        <ele>401</ele>
        <time>2015-03-22T08:26:33.000Z</time>
      </trkpt>
      <trkpt lat="47.50207" lon="6.76559">
        <ele>401</ele>
        <time>2015-03-22T08:26:34.000Z</time>
      </trkpt>
      <trkpt lat="47.50208" lon="6.76553">
        <ele>401</ele>
        <time>2015-03-22T08:26:35.000Z</time>
      </trkpt>
      <trkpt lat="47.50209" lon="6.76547">
        <ele>401</ele>
        <time>2015-03-22T08:26:36.000Z</time>
      </trkpt>
      <trkpt lat="47.50209" lon="6.76542">
        <ele>401</ele>
        <time>2015-03-22T08:26:37.000Z</time>
      </trkpt>
      <trkpt lat="47.50206" lon="6.76538">
        <ele>401</ele>
        <time>2015-03-22T08:26:39.000Z</time>
      </trkpt>
      <trkpt lat="47.50203" lon="6.76533">
        <ele>401</ele>
        <time>2015-03-22T08:26:40.000Z</time>
      </trkpt>
      <trkpt lat="47.50201" lon="6.76529">
        <ele>401</ele>
        <time>2015-03-22T08:26:41.000Z</time>
      </trkpt>
      <trkpt lat="47.50198" lon="6.76525">
        <ele>401</ele>
        <time>2015-03-22T08:26:41.999Z</time>
      </trkpt>
      <trkpt lat="47.50199" lon="6.76519">
        <ele>401</ele>
        <time>2015-03-22T08:26:43.000Z</time>
      </trkpt>
      <trkpt lat="47.50196" lon="6.76511">
        <ele>402</ele>
        <time>2015-03-22T08:26:44.000Z</time>
      </trkpt>
      <trkpt lat="47.50196" lon="6.76502">
        <ele>402</ele>
        <time>2015-03-22T08:26:45.000Z</time>
      </trkpt>
      <trkpt lat="47.50194" lon="6.76496">
        <ele>399</ele>
        <time>2015-03-22T08:26:46.000Z</time>
      </trkpt>
      <trkpt lat="47.50194" lon="6.76491">
        <ele>399</ele>
        <time>2015-03-22T08:26:47.000Z</time>
      </trkpt>
      <trkpt lat="47.50191" lon="6.76486">
        <ele>399</ele>
        <time>2015-03-22T08:26:48.000Z</time>
      </trkpt>
      <trkpt lat="47.5019" lon="6.76481">
        <ele>398</ele>
        <time>2015-03-22T08:26:49.000Z</time>
      </trkpt>
      <trkpt lat="47.50188" lon="6.76478">
        <ele>398</ele>
        <time>2015-03-22T08:26:50.000Z</time>
      </trkpt>
      <trkpt lat="47.50188" lon="6.76474">
        <ele>398</ele>
        <time>2015-03-22T08:26:51.000Z</time>
      </trkpt>
      <trkpt lat="47.50186" lon="6.76469">
        <ele>398</ele>
        <time>2015-03-22T08:26:52.000Z</time>
      </trkpt>
      <trkpt lat="47.50185" lon="6.76464">
        <ele>397</ele>
        <time>2015-03-22T08:26:53.000Z</time>
      </trkpt>
      <trkpt lat="47.50184" lon="6.76457">
        <ele>397</ele>
        <time>2015-03-22T08:26:54.000Z</time>
      </trkpt>
      <trkpt lat="47.50182" lon="6.7645">
        <ele>397</ele>
        <time>2015-03-22T08:26:55.000Z</time>
      </trkpt>
      <trkpt lat="47.5018" lon="6.76442">
        <ele>397</ele>
        <time>2015-03-22T08:26:56.000Z</time>
      </trkpt>
      <trkpt lat="47.50178" lon="6.76434">
        <ele>397</ele>
        <time>2015-03-22T08:26:57.000Z</time>
      </trkpt>
      <trkpt lat="47.50171" lon="6.76406">
        <ele>395</ele>
        <time>2015-03-22T08:26:58.000Z</time>
      </trkpt>
      <trkpt lat="47.50168" lon="6.76396">
        <ele>394</ele>
        <time>2015-03-22T08:26:59.000Z</time>
      </trkpt>
      <trkpt lat="47.50166" lon="6.76384">
        <ele>400</ele>
        <time>2015-03-22T08:27:00.000Z</time>
      </trkpt>
      <trkpt lat="47.50162" lon="6.76376">
        <ele>400</ele>
        <time>2015-03-22T08:27:01.000Z</time>
      </trkpt>
      <trkpt lat="47.50159" lon="6.76363">
        <ele>399</ele>
        <time>2015-03-22T08:27:02.000Z</time>
      </trkpt>
      <trkpt lat="47.50156" lon="6.76351">
        <ele>397</ele>
        <time>2015-03-22T08:27:03.000Z</time>
      </trkpt>
      <trkpt lat="47.50155" lon="6.76336">
        <ele>396</ele>
        <time>2015-03-22T08:27:04.000Z</time>
      </trkpt>
      <trkpt lat="47.5015" lon="6.76321">
        <ele>395</ele>
        <time>2015-03-22T08:27:05.000Z</time>
      </trkpt>
      <trkpt lat="47.50148" lon="6.76311">
        <ele>395</ele>
        <time>2015-03-22T08:27:06.000Z</time>
      </trkpt>
      <trkpt lat="47.50145" lon="6.76303">
        <ele>396</ele>
        <time>2015-03-22T08:27:07.000Z</time>
      </trkpt>
      <trkpt lat="47.50143" lon="6.76286">
        <ele>395</ele>
        <time>2015-03-22T08:27:08.000Z</time>
      </trkpt>
      <trkpt lat="47.50141" lon="6.76271">
        <ele>394</ele>
        <time>2015-03-22T08:27:09.000Z</time>
      </trkpt>
      <trkpt lat="47.50144" lon="6.7627">
        <ele>394</ele>
        <time>2015-03-22T08:27:10.000Z</time>
      </trkpt>
      <trkpt lat="47.50142" lon="6.76264">
        <ele>394</ele>
        <time>2015-03-22T08:27:11.000Z</time>
      </trkpt>
      <trkpt lat="47.50141" lon="6.76259">
        <ele>394</ele>
        <time>2015-03-22T08:27:12.000Z</time>
      </trkpt>
      <trkpt lat="47.5014" lon="6.76244">
        <ele>390</ele>
        <time>2015-03-22T08:27:13.000Z</time>
      </trkpt>
      <trkpt lat="47.50138" lon="6.76228">
        <ele>390</ele>
        <time>2015-03-22T08:27:14.000Z</time>
      </trkpt>
      <trkpt lat="47.50134" lon="6.76211">
        <ele>390</ele>
        <time>2015-03-22T08:27:15.000Z</time>
      </trkpt>
      <trkpt lat="47.5013" lon="6.76196">
        <ele>389</ele>
        <time>2015-03-22T08:27:16.000Z</time>
      </trkpt>
      <trkpt lat="47.50126" lon="6.7618">
        <ele>389</ele>
        <time>2015-03-22T08:27:17.000Z</time>
      </trkpt>
      <trkpt lat="47.50123" lon="6.76163">
        <ele>385</ele>
        <time>2015-03-22T08:27:18.000Z</time>
      </trkpt>
      <trkpt lat="47.50122" lon="6.7615">
        <ele>385</ele>
        <time>2015-03-22T08:27:19.000Z</time>
      </trkpt>
      <trkpt lat="47.50117" lon="6.76138">
        <ele>385</ele>
        <time>2015-03-22T08:27:20.000Z</time>
      </trkpt>
      <trkpt lat="47.50115" lon="6.76124">
        <ele>385</ele>
        <time>2015-03-22T08:27:21.000Z</time>
      </trkpt>
      <trkpt lat="47.50113" lon="6.76109">
        <ele>385</ele>
        <time>2015-03-22T08:27:22.000Z</time>
      </trkpt>
      <trkpt lat="47.50112" lon="6.76093">
        <ele>385</ele>
        <time>2015-03-22T08:27:23.000Z</time>
      </trkpt>
      <trkpt lat="47.5011" lon="6.7608">
        <ele>382</ele>
        <time>2015-03-22T08:27:24.000Z</time>
      </trkpt>
      <trkpt lat="47.50107" lon="6.76067">
        <ele>382</ele>
        <time>2015-03-22T08:27:25.000Z</time>
      </trkpt>
      <trkpt lat="47.50105" lon="6.76055">
        <ele>381</ele>
        <time>2015-03-22T08:27:26.000Z</time>
      </trkpt>
      <trkpt lat="47.50104" lon="6.76035">
        <ele>380</ele>
        <time>2015-03-22T08:27:27.000Z</time>
      </trkpt>
      <trkpt lat="47.50101" lon="6.76017">
        <ele>379</ele>
        <time>2015-03-22T08:27:28.000Z</time>
      </trkpt>
      <trkpt lat="47.50096" lon="6.76007">
        <ele>379</ele>
        <time>2015-03-22T08:27:29.000Z</time>
      </trkpt>
      <trkpt lat="47.50093" lon="6.75997">
        <ele>377</ele>
        <time>2015-03-22T08:27:30.000Z</time>
      </trkpt>
      <trkpt lat="47.50088" lon="6.75991">
        <ele>377</ele>
        <time>2015-03-22T08:27:31.000Z</time>
      </trkpt>
      <trkpt lat="47.50083" lon="6.75982">
        <ele>379</ele>
        <time>2015-03-22T08:27:32.000Z</time>
      </trkpt>
      <trkpt lat="47.50077" lon="6.75968">
        <ele>379</ele>
        <time>2015-03-22T08:27:33.000Z</time>
      </trkpt>
      <trkpt lat="47.50071" lon="6.75959">
        <ele>378</ele>
        <time>2015-03-22T08:27:34.000Z</time>
      </trkpt>
      <trkpt lat="47.50066" lon="6.7595">
        <ele>378</ele>
        <time>2015-03-22T08:27:35.000Z</time>
      </trkpt>
      <trkpt lat="47.50057" lon="6.75941">
        <ele>378</ele>
        <time>2015-03-22T08:27:36.000Z</time>
      </trkpt>
      <trkpt lat="47.50053" lon="6.75936">
        <ele>378</ele>
        <time>2015-03-22T08:27:37.000Z</time>
      </trkpt>
      <trkpt lat="47.50049" lon="6.75927">
        <ele>378</ele>
        <time>2015-03-22T08:27:38.000Z</time>
      </trkpt>
      <trkpt lat="47.50044" lon="6.75919">
        <ele>378</ele>
        <time>2015-03-22T08:27:38.999Z</time>
      </trkpt>
      <trkpt lat="47.50036" lon="6.7591">
        <ele>376</ele>
        <time>2015-03-22T08:27:40.000Z</time>
      </trkpt>
      <trkpt lat="47.50023" lon="6.75883">
        <ele>377</ele>
        <time>2015-03-22T08:27:41.000Z</time>
      </trkpt>
      <trkpt lat="47.50017" lon="6.75873">
        <ele>377</ele>
        <time>2015-03-22T08:27:42.000Z</time>
      </trkpt>
      <trkpt lat="47.50013" lon="6.75864">
        <ele>377</ele>
        <time>2015-03-22T08:27:43.000Z</time>
      </trkpt>
      <trkpt lat="47.50008" lon="6.7585">
        <ele>377</ele>
        <time>2015-03-22T08:27:44.000Z</time>
      </trkpt>
      <trkpt lat="47.50005" lon="6.75847">
        <ele>378</ele>
        <time>2015-03-22T08:27:45.000Z</time>
      </trkpt>
      <trkpt lat="47.50005" lon="6.75842">
        <ele>378</ele>
        <time>2015-03-22T08:27:46.000Z</time>
      </trkpt>
      <trkpt lat="47.5" lon="6.75836">
        <ele>379</ele>
        <time>2015-03-22T08:27:47.000Z</time>
      </trkpt>
      <trkpt lat="47.49995" lon="6.7583">
        <ele>378</ele>
        <time>2015-03-22T08:27:48.001Z</time>
      </trkpt>
      <trkpt lat="47.49989" lon="6.75811">
        <ele>376</ele>
        <time>2015-03-22T08:27:49.000Z</time>
      </trkpt>
      <trkpt lat="47.49983" lon="6.75801">
        <ele>375</ele>
        <time>2015-03-22T08:27:50.000Z</time>
      </trkpt>
      <trkpt lat="47.49978" lon="6.7579">
        <ele>375</ele>
        <time>2015-03-22T08:27:51.000Z</time>
      </trkpt>
      <trkpt lat="47.49973" lon="6.75787">
        <ele>374</ele>
        <time>2015-03-22T08:27:52.000Z</time>
      </trkpt>
      <trkpt lat="47.49968" lon="6.75774">
        <ele>374</ele>
        <time>2015-03-22T08:27:53.000Z</time>
      </trkpt>
      <trkpt lat="47.49962" lon="6.75765">
        <ele>374</ele>
        <time>2015-03-22T08:27:54.000Z</time>
      </trkpt>
      <trkpt lat="47.49954" lon="6.75759">
        <ele>373</ele>
        <time>2015-03-22T08:27:55.000Z</time>
      </trkpt>
      <trkpt lat="47.49947" lon="6.75751">
        <ele>373</ele>
        <time>2015-03-22T08:27:56.000Z</time>
      </trkpt>
      <trkpt lat="47.4994" lon="6.75743">
        <ele>370</ele>
        <time>2015-03-22T08:27:57.000Z</time>
      </trkpt>
      <trkpt lat="47.49932" lon="6.75733">
        <ele>370</ele>
        <time>2015-03-22T08:27:58.001Z</time>
      </trkpt>
      <trkpt lat="47.49927" lon="6.75724">
        <ele>370</ele>
        <time>2015-03-22T08:27:59.000Z</time>
      </trkpt>
      <trkpt lat="47.4992" lon="6.75713">
        <ele>370</ele>
        <time>2015-03-22T08:28:00.000Z</time>
      </trkpt>
      <trkpt lat="47.49911" lon="6.7571">
        <ele>365</ele>
        <time>2015-03-22T08:28:01.000Z</time>
      </trkpt>
      <trkpt lat="47.49903" lon="6.75705">
        <ele>364</ele>
        <time>2015-03-22T08:28:01.999Z</time>
      </trkpt>
      <trkpt lat="47.499" lon="6.75722">
        <ele>365</ele>
        <time>2015-03-22T08:28:03.000Z</time>
      </trkpt>
      <trkpt lat="47.49894" lon="6.75726">
        <ele>364</ele>
        <time>2015-03-22T08:28:03.999Z</time>
      </trkpt>
      <trkpt lat="47.49888" lon="6.75729">
        <ele>364</ele>
        <time>2015-03-22T08:28:05.000Z</time>
      </trkpt>
      <trkpt lat="47.4988" lon="6.7574">
        <ele>363</ele>
        <time>2015-03-22T08:28:06.000Z</time>
      </trkpt>
      <trkpt lat="47.49868" lon="6.75743">
        <ele>362</ele>
        <time>2015-03-22T08:28:07.000Z</time>
      </trkpt>
      <trkpt lat="47.49858" lon="6.75747">
        <ele>362</ele>
        <time>2015-03-22T08:28:08.000Z</time>
      </trkpt>
      <trkpt lat="47.49847" lon="6.75747">
        <ele>361</ele>
        <time>2015-03-22T08:28:09.000Z</time>
      </trkpt>
      <trkpt lat="47.49837" lon="6.7575">
        <ele>360</ele>
        <time>2015-03-22T08:28:10.001Z</time>
      </trkpt>
      <trkpt lat="47.49824" lon="6.75751">
        <ele>359</ele>
        <time>2015-03-22T08:28:11.000Z</time>
      </trkpt>
      <trkpt lat="47.49815" lon="6.75759">
        <ele>360</ele>
        <time>2015-03-22T08:28:12.000Z</time>
      </trkpt>
      <trkpt lat="47.49803" lon="6.75762">
        <ele>360</ele>
        <time>2015-03-22T08:28:13.000Z</time>
      </trkpt>
      <trkpt lat="47.49791" lon="6.7576">
        <ele>359</ele>
        <time>2015-03-22T08:28:14.000Z</time>
      </trkpt>
      <trkpt lat="47.49781" lon="6.75763">
        <ele>358</ele>
        <time>2015-03-22T08:28:15.000Z</time>
      </trkpt>
      <trkpt lat="47.49771" lon="6.75766">
        <ele>358</ele>
        <time>2015-03-22T08:28:16.000Z</time>
      </trkpt>
      <trkpt lat="47.49761" lon="6.75769">
        <ele>357</ele>
        <time>2015-03-22T08:28:17.000Z</time>
      </trkpt>
      <trkpt lat="47.49752" lon="6.75771">
        <ele>357</ele>
        <time>2015-03-22T08:28:18.000Z</time>
      </trkpt>
      <trkpt lat="47.4974" lon="6.75772">
        <ele>354</ele>
        <time>2015-03-22T08:28:19.000Z</time>
      </trkpt>
      <trkpt lat="47.4973" lon="6.75776">
        <ele>354</ele>
        <time>2015-03-22T08:28:20.000Z</time>
      </trkpt>
      <trkpt lat="47.4972" lon="6.75779">
        <ele>354</ele>
        <time>2015-03-22T08:28:21.000Z</time>
      </trkpt>
      <trkpt lat="47.49711" lon="6.75781">
        <ele>354</ele>
        <time>2015-03-22T08:28:22.000Z</time>
      </trkpt>
      <trkpt lat="47.49701" lon="6.75784">
        <ele>354</ele>
        <time>2015-03-22T08:28:23.000Z</time>
      </trkpt>
      <trkpt lat="47.49693" lon="6.75786">
        <ele>353</ele>
        <time>2015-03-22T08:28:24.000Z</time>
      </trkpt>
      <trkpt lat="47.49685" lon="6.7579">
        <ele>354</ele>
        <time>2015-03-22T08:28:25.000Z</time>
      </trkpt>
      <trkpt lat="47.49676" lon="6.75792">
        <ele>354</ele>
        <time>2015-03-22T08:28:26.000Z</time>
      </trkpt>
      <trkpt lat="47.49668" lon="6.75794">
        <ele>354</ele>
        <time>2015-03-22T08:28:27.000Z</time>
      </trkpt>
      <trkpt lat="47.49659" lon="6.75794">
        <ele>348</ele>
        <time>2015-03-22T08:28:28.000Z</time>
      </trkpt>
      <trkpt lat="47.49653" lon="6.75794">
        <ele>348</ele>
        <time>2015-03-22T08:28:29.000Z</time>
      </trkpt>
      <trkpt lat="47.49645" lon="6.75793">
        <ele>347</ele>
        <time>2015-03-22T08:28:30.000Z</time>
      </trkpt>
      <trkpt lat="47.49635" lon="6.75792">
        <ele>347</ele>
        <time>2015-03-22T08:28:31.000Z</time>
      </trkpt>
      <trkpt lat="47.49626" lon="6.75791">
        <ele>346</ele>
        <time>2015-03-22T08:28:32.000Z</time>
      </trkpt>
      <trkpt lat="47.49621" lon="6.75793">
        <ele>346</ele>
        <time>2015-03-22T08:28:33.000Z</time>
      </trkpt>
      <trkpt lat="47.49615" lon="6.75794">
        <ele>346</ele>
        <time>2015-03-22T08:28:34.000Z</time>
      </trkpt>
      <trkpt lat="47.49609" lon="6.75794">
        <ele>346</ele>
        <time>2015-03-22T08:28:35.000Z</time>
      </trkpt>
      <trkpt lat="47.49604" lon="6.75793">
        <ele>345</ele>
        <time>2015-03-22T08:28:36.000Z</time>
      </trkpt>
      <trkpt lat="47.49595" lon="6.75791">
        <ele>345</ele>
        <time>2015-03-22T08:28:37.000Z</time>
      </trkpt>
      <trkpt lat="47.49586" lon="6.75787">
        <ele>344</ele>
        <time>2015-03-22T08:28:38.000Z</time>
      </trkpt>
      <trkpt lat="47.4958" lon="6.75782">
        <ele>337</ele>
        <time>2015-03-22T08:28:39.000Z</time>
      </trkpt>
      <trkpt lat="47.49575" lon="6.75777">
        <ele>336</ele>
        <time>2015-03-22T08:28:40.000Z</time>
      </trkpt>
      <trkpt lat="47.4957" lon="6.75771">
        <ele>336</ele>
        <time>2015-03-22T08:28:41.000Z</time>
      </trkpt>
      <trkpt lat="47.49567" lon="6.75767">
        <ele>335</ele>
        <time>2015-03-22T08:28:42.000Z</time>
      </trkpt>
      <trkpt lat="47.49566" lon="6.7576">
        <ele>335</ele>
        <time>2015-03-22T08:28:43.000Z</time>
      </trkpt>
      <trkpt lat="47.49567" lon="6.75755">
        <ele>335</ele>
        <time>2015-03-22T08:28:44.000Z</time>
      </trkpt>
      <trkpt lat="47.4957" lon="6.7575">
        <ele>335</ele>
        <time>2015-03-22T08:28:45.000Z</time>
      </trkpt>
      <trkpt lat="47.49573" lon="6.75747">
        <ele>331</ele>
        <time>2015-03-22T08:28:46.000Z</time>
      </trkpt>
      <trkpt lat="47.49577" lon="6.75742">
        <ele>331</ele>
        <time>2015-03-22T08:28:47.000Z</time>
      </trkpt>
      <trkpt lat="47.49581" lon="6.75738">
        <ele>330</ele>
        <time>2015-03-22T08:28:48.000Z</time>
      </trkpt>
      <trkpt lat="47.49585" lon="6.75735">
        <ele>333</ele>
        <time>2015-03-22T08:28:49.000Z</time>
      </trkpt>
      <trkpt lat="47.49591" lon="6.75734">
        <ele>333</ele>
        <time>2015-03-22T08:28:50.000Z</time>
      </trkpt>
      <trkpt lat="47.49591" lon="6.7573">
        <ele>332</ele>
        <time>2015-03-22T08:28:51.000Z</time>
      </trkpt>
      <trkpt lat="47.49595" lon="6.75725">
        <ele>332</ele>
        <time>2015-03-22T08:28:52.000Z</time>
      </trkpt>
      <trkpt lat="47.49599" lon="6.75718">
        <ele>331</ele>
        <time>2015-03-22T08:28:53.000Z</time>
      </trkpt>
      <trkpt lat="47.49602" lon="6.75709">
        <ele>331</ele>
        <time>2015-03-22T08:28:54.000Z</time>
      </trkpt>
      <trkpt lat="47.49601" lon="6.75702">
        <ele>330</ele>
        <time>2015-03-22T08:28:55.000Z</time>
      </trkpt>
      <trkpt lat="47.496" lon="6.75694">
        <ele>329</ele>
        <time>2015-03-22T08:28:56.000Z</time>
      </trkpt>
      <trkpt lat="47.49593" lon="6.7569">
        <ele>328</ele>
        <time>2015-03-22T08:28:57.000Z</time>
      </trkpt>
      <trkpt lat="47.49589" lon="6.75683">
        <ele>326</ele>
        <time>2015-03-22T08:28:58.000Z</time>
      </trkpt>
      <trkpt lat="47.49584" lon="6.75679">
        <ele>325</ele>
        <time>2015-03-22T08:28:59.000Z</time>
      </trkpt>
      <trkpt lat="47.49578" lon="6.75679">
        <ele>323</ele>
        <time>2015-03-22T08:29:00.000Z</time>
      </trkpt>
      <trkpt lat="47.49574" lon="6.75684">
        <ele>323</ele>
        <time>2015-03-22T08:29:01.000Z</time>
      </trkpt>
      <trkpt lat="47.4957" lon="6.75689">
        <ele>324</ele>
        <time>2015-03-22T08:29:02.000Z</time>
      </trkpt>
      <trkpt lat="47.49565" lon="6.75694">
        <ele>325</ele>
        <time>2015-03-22T08:29:03.000Z</time>
      </trkpt>
      <trkpt lat="47.4956" lon="6.75699">
        <ele>325</ele>
        <time>2015-03-22T08:29:04.000Z</time>
      </trkpt>
      <trkpt lat="47.49554" lon="6.75703">
        <ele>325</ele>
        <time>2015-03-22T08:29:05.000Z</time>
      </trkpt>
      <trkpt lat="47.4955" lon="6.75707">
        <ele>325</ele>
        <time>2015-03-22T08:29:06.000Z</time>
      </trkpt>
      <trkpt lat="47.49544" lon="6.75712">
        <ele>325</ele>
        <time>2015-03-22T08:29:07.000Z</time>
      </trkpt>
      <trkpt lat="47.49539" lon="6.75717">
        <ele>325</ele>
        <time>2015-03-22T08:29:08.000Z</time>
      </trkpt>
      <trkpt lat="47.49533" lon="6.7572">
        <ele>325</ele>
        <time>2015-03-22T08:29:09.000Z</time>
      </trkpt>
      <trkpt lat="47.49528" lon="6.75726">
        <ele>325</ele>
        <time>2015-03-22T08:29:10.000Z</time>
      </trkpt>
      <trkpt lat="47.49522" lon="6.75731">
        <ele>325</ele>
        <time>2015-03-22T08:29:11.000Z</time>
      </trkpt>
      <trkpt lat="47.49517" lon="6.75736">
        <ele>325</ele>
        <time>2015-03-22T08:29:12.000Z</time>
      </trkpt>
      <trkpt lat="47.49511" lon="6.75736">
        <ele>325</ele>
        <time>2015-03-22T08:29:13.000Z</time>
      </trkpt>
      <trkpt lat="47.49507" lon="6.75738">
        <ele>325</ele>
        <time>2015-03-22T08:29:14.000Z</time>
      </trkpt>
      <trkpt lat="47.49502" lon="6.75741">
        <ele>324</ele>
        <time>2015-03-22T08:29:15.000Z</time>
      </trkpt>
      <trkpt lat="47.49497" lon="6.75741">
        <ele>323</ele>
        <time>2015-03-22T08:29:16.000Z</time>
      </trkpt>
      <trkpt lat="47.49491" lon="6.75742">
        <ele>323</ele>
        <time>2015-03-22T08:29:17.000Z</time>
      </trkpt>
      <trkpt lat="47.49488" lon="6.75739">
        <ele>322</ele>
        <time>2015-03-22T08:29:18.000Z</time>
      </trkpt>
      <trkpt lat="47.49485" lon="6.75734">
        <ele>322</ele>
        <time>2015-03-22T08:29:19.000Z</time>
      </trkpt>
      <trkpt lat="47.49482" lon="6.75728">
        <ele>322</ele>
        <time>2015-03-22T08:29:20.000Z</time>
      </trkpt>
      <trkpt lat="47.49481" lon="6.75721">
        <ele>322</ele>
        <time>2015-03-22T08:29:21.000Z</time>
      </trkpt>
      <trkpt lat="47.4948" lon="6.75713">
        <ele>321</ele>
        <time>2015-03-22T08:29:22.000Z</time>
      </trkpt>
      <trkpt lat="47.49477" lon="6.75707">
        <ele>321</ele>
        <time>2015-03-22T08:29:23.000Z</time>
      </trkpt>
      <trkpt lat="47.49473" lon="6.75703">
        <ele>321</ele>
        <time>2015-03-22T08:29:24.000Z</time>
      </trkpt>
      <trkpt lat="47.49469" lon="6.757">
        <ele>321</ele>
        <time>2015-03-22T08:29:25.000Z</time>
      </trkpt>
      <trkpt lat="47.49464" lon="6.757">
        <ele>321</ele>
        <time>2015-03-22T08:29:26.000Z</time>
      </trkpt>
      <trkpt lat="47.4946" lon="6.75701">
        <ele>321</ele>
        <time>2015-03-22T08:29:27.000Z</time>
      </trkpt>
      <trkpt lat="47.49455" lon="6.75703">
        <ele>321</ele>
        <time>2015-03-22T08:29:28.000Z</time>
      </trkpt>
      <trkpt lat="47.49451" lon="6.75702">
        <ele>321</ele>
        <time>2015-03-22T08:29:29.000Z</time>
      </trkpt>
      <trkpt lat="47.49449" lon="6.75695">
        <ele>321</ele>
        <time>2015-03-22T08:29:30.000Z</time>
      </trkpt>
      <trkpt lat="47.49447" lon="6.75689">
        <ele>321</ele>
        <time>2015-03-22T08:29:30.999Z</time>
      </trkpt>
      <trkpt lat="47.49445" lon="6.75683">
        <ele>320</ele>
        <time>2015-03-22T08:29:32.000Z</time>
      </trkpt>
      <trkpt lat="47.49443" lon="6.75679">
        <ele>320</ele>
        <time>2015-03-22T08:29:33.000Z</time>
      </trkpt>
      <trkpt lat="47.4944" lon="6.75677">
        <ele>320</ele>
        <time>2015-03-22T08:29:34.000Z</time>
      </trkpt>
      <trkpt lat="47.49436" lon="6.75676">
        <ele>320</ele>
        <time>2015-03-22T08:29:35.000Z</time>
      </trkpt>
      <trkpt lat="47.49431" lon="6.75675">
        <ele>320</ele>
        <time>2015-03-22T08:29:36.000Z</time>
      </trkpt>
      <trkpt lat="47.49428" lon="6.75677">
        <ele>320</ele>
        <time>2015-03-22T08:29:37.000Z</time>
      </trkpt>
      <trkpt lat="47.49424" lon="6.75679">
        <ele>320</ele>
        <time>2015-03-22T08:29:38.000Z</time>
      </trkpt>
      <trkpt lat="47.49422" lon="6.75681">
        <ele>320</ele>
        <time>2015-03-22T08:29:39.000Z</time>
      </trkpt>
      <trkpt lat="47.49417" lon="6.75684">
        <ele>320</ele>
        <time>2015-03-22T08:29:40.000Z</time>
      </trkpt>
      <trkpt lat="47.49413" lon="6.75688">
        <ele>319</ele>
        <time>2015-03-22T08:29:41.000Z</time>
      </trkpt>
      <trkpt lat="47.49406" lon="6.7569">
        <ele>319</ele>
        <time>2015-03-22T08:29:42.000Z</time>
      </trkpt>
      <trkpt lat="47.49403" lon="6.75692">
        <ele>319</ele>
        <time>2015-03-22T08:29:43.000Z</time>
      </trkpt>
      <trkpt lat="47.49398" lon="6.75698">
        <ele>319</ele>
        <time>2015-03-22T08:29:44.000Z</time>
      </trkpt>
      <trkpt lat="47.49393" lon="6.75698">
        <ele>319</ele>
        <time>2015-03-22T08:29:45.000Z</time>
      </trkpt>
      <trkpt lat="47.49389" lon="6.75698">
        <ele>319</ele>
        <time>2015-03-22T08:29:46.000Z</time>
      </trkpt>
      <trkpt lat="47.49385" lon="6.75696">
        <ele>319</ele>
        <time>2015-03-22T08:29:47.000Z</time>
      </trkpt>
      <trkpt lat="47.49382" lon="6.75698">
        <ele>319</ele>
        <time>2015-03-22T08:29:48.000Z</time>
      </trkpt>
      <trkpt lat="47.49378" lon="6.75698">
        <ele>319</ele>
        <time>2015-03-22T08:29:49.000Z</time>
      </trkpt>
      <trkpt lat="47.49375" lon="6.75703">
        <ele>319</ele>
        <time>2015-03-22T08:29:50.000Z</time>
      </trkpt>
      <trkpt lat="47.49369" lon="6.75701">
        <ele>319</ele>
        <time>2015-03-22T08:29:51.000Z</time>
      </trkpt>
      <trkpt lat="47.49367" lon="6.757">
        <ele>319</ele>
        <time>2015-03-22T08:29:52.000Z</time>
      </trkpt>
      <trkpt lat="47.49364" lon="6.75708">
        <ele>319</ele>
        <time>2015-03-22T08:29:53.000Z</time>
      </trkpt>
      <trkpt lat="47.49361" lon="6.75711">
        <ele>319</ele>
        <time>2015-03-22T08:29:54.000Z</time>
      </trkpt>
      <trkpt lat="47.49358" lon="6.75714">
        <ele>319</ele>
        <time>2015-03-22T08:29:55.000Z</time>
      </trkpt>
      <trkpt lat="47.49355" lon="6.75718">
        <ele>319</ele>
        <time>2015-03-22T08:29:56.000Z</time>
      </trkpt>
      <trkpt lat="47.49351" lon="6.75721">
        <ele>319</ele>
        <time>2015-03-22T08:29:56.999Z</time>
      </trkpt>
      <trkpt lat="47.49337" lon="6.75737">
        <ele>318</ele>
        <time>2015-03-22T08:29:58.000Z</time>
      </trkpt>
      <trkpt lat="47.49333" lon="6.7574">
        <ele>318</ele>
        <time>2015-03-22T08:29:59.000Z</time>
      </trkpt>
      <trkpt lat="47.49328" lon="6.75744">
        <ele>318</ele>
        <time>2015-03-22T08:30:00.000Z</time>
      </trkpt>
      <trkpt lat="47.49323" lon="6.75748">
        <ele>318</ele>
        <time>2015-03-22T08:30:01.000Z</time>
      </trkpt>
      <trkpt lat="47.49317" lon="6.75753">
        <ele>318</ele>
        <time>2015-03-22T08:30:02.000Z</time>
      </trkpt>
      <trkpt lat="47.49313" lon="6.75758">
        <ele>318</ele>
        <time>2015-03-22T08:30:03.000Z</time>
      </trkpt>
      <trkpt lat="47.49309" lon="6.75764">
        <ele>318</ele>
        <time>2015-03-22T08:30:04.000Z</time>
      </trkpt>
      <trkpt lat="47.49305" lon="6.75768">
        <ele>318</ele>
        <time>2015-03-22T08:30:05.000Z</time>
      </trkpt>
      <trkpt lat="47.49301" lon="6.75773">
        <ele>318</ele>
        <time>2015-03-22T08:30:06.000Z</time>
      </trkpt>
      <trkpt lat="47.49298" lon="6.75778">
        <ele>318</ele>
        <time>2015-03-22T08:30:07.000Z</time>
      </trkpt>
      <trkpt lat="47.49294" lon="6.75783">
        <ele>318</ele>
        <time>2015-03-22T08:30:08.000Z</time>
      </trkpt>
      <trkpt lat="47.4929" lon="6.75789">
        <ele>318</ele>
        <time>2015-03-22T08:30:09.000Z</time>
      </trkpt>
      <trkpt lat="47.49286" lon="6.75794">
        <ele>318</ele>
        <time>2015-03-22T08:30:10.000Z</time>
      </trkpt>
      <trkpt lat="47.49281" lon="6.75802">
        <ele>318</ele>
        <time>2015-03-22T08:30:11.000Z</time>
      </trkpt>
      <trkpt lat="47.49276" lon="6.75809">
        <ele>317</ele>
        <time>2015-03-22T08:30:12.000Z</time>
      </trkpt>
      <trkpt lat="47.49272" lon="6.75817">
        <ele>317</ele>
        <time>2015-03-22T08:30:13.000Z</time>
      </trkpt>
      <trkpt lat="47.49267" lon="6.75824">
        <ele>316</ele>
        <time>2015-03-22T08:30:14.000Z</time>
      </trkpt>
      <trkpt lat="47.49263" lon="6.75833">
        <ele>315</ele>
        <time>2015-03-22T08:30:15.000Z</time>
      </trkpt>
      <trkpt lat="47.49259" lon="6.75839">
        <ele>315</ele>
        <time>2015-03-22T08:30:16.000Z</time>
      </trkpt>
      <trkpt lat="47.49255" lon="6.75846">
        <ele>316</ele>
        <time>2015-03-22T08:30:17.000Z</time>
      </trkpt>
      <trkpt lat="47.49252" lon="6.75851">
        <ele>317</ele>
        <time>2015-03-22T08:30:18.000Z</time>
      </trkpt>
      <trkpt lat="47.4925" lon="6.75857">
        <ele>317</ele>
        <time>2015-03-22T08:30:19.000Z</time>
      </trkpt>
      <trkpt lat="47.49247" lon="6.75865">
        <ele>317</ele>
        <time>2015-03-22T08:30:20.000Z</time>
      </trkpt>
      <trkpt lat="47.49245" lon="6.75871">
        <ele>318</ele>
        <time>2015-03-22T08:30:21.001Z</time>
      </trkpt>
      <trkpt lat="47.49243" lon="6.75877">
        <ele>318</ele>
        <time>2015-03-22T08:30:22.000Z</time>
      </trkpt>
      <trkpt lat="47.49241" lon="6.75879">
        <ele>318</ele>
        <time>2015-03-22T08:30:23.000Z</time>
      </trkpt>
      <trkpt lat="47.49239" lon="6.75883">
        <ele>318</ele>
        <time>2015-03-22T08:30:24.000Z</time>
      </trkpt>
      <trkpt lat="47.49232" lon="6.75892">
        <ele>318</ele>
        <time>2015-03-22T08:30:25.000Z</time>
      </trkpt>
      <trkpt lat="47.49229" lon="6.75896">
        <ele>318</ele>
        <time>2015-03-22T08:30:26.000Z</time>
      </trkpt>
      <trkpt lat="47.49228" lon="6.75902">
        <ele>318</ele>
        <time>2015-03-22T08:30:27.000Z</time>
      </trkpt>
      <trkpt lat="47.49225" lon="6.75907">
        <ele>318</ele>
        <time>2015-03-22T08:30:29.000Z</time>
      </trkpt>
      <trkpt lat="47.49225" lon="6.75909">
        <ele>318</ele>
        <time>2015-03-22T08:30:30.000Z</time>
      </trkpt>
      <trkpt lat="47.49222" lon="6.75916">
        <ele>319</ele>
        <time>2015-03-22T08:30:31.000Z</time>
      </trkpt>
      <trkpt lat="47.49216" lon="6.75927">
        <ele>320</ele>
        <time>2015-03-22T08:30:32.000Z</time>
      </trkpt>
      <trkpt lat="47.4921" lon="6.75937">
        <ele>320</ele>
        <time>2015-03-22T08:30:33.000Z</time>
      </trkpt>
      <trkpt lat="47.49207" lon="6.75946">
        <ele>320</ele>
        <time>2015-03-22T08:30:34.000Z</time>
      </trkpt>
      <trkpt lat="47.49203" lon="6.75955">
        <ele>320</ele>
        <time>2015-03-22T08:30:35.000Z</time>
      </trkpt>
      <trkpt lat="47.492" lon="6.75963">
        <ele>320</ele>
        <time>2015-03-22T08:30:36.000Z</time>
      </trkpt>
      <trkpt lat="47.49197" lon="6.75973">
        <ele>320</ele>
        <time>2015-03-22T08:30:37.000Z</time>
      </trkpt>
      <trkpt lat="47.49194" lon="6.75981">
        <ele>320</ele>
        <time>2015-03-22T08:30:38.000Z</time>
      </trkpt>
      <trkpt lat="47.49191" lon="6.75987">
        <ele>320</ele>
        <time>2015-03-22T08:30:39.000Z</time>
      </trkpt>
      <trkpt lat="47.49188" lon="6.75994">
        <ele>320</ele>
        <time>2015-03-22T08:30:40.000Z</time>
      </trkpt>
      <trkpt lat="47.49184" lon="6.76001">
        <ele>320</ele>
        <time>2015-03-22T08:30:41.000Z</time>
      </trkpt>
      <trkpt lat="47.49181" lon="6.76009">
        <ele>320</ele>
        <time>2015-03-22T08:30:42.000Z</time>
      </trkpt>
      <trkpt lat="47.49179" lon="6.76015">
        <ele>320</ele>
        <time>2015-03-22T08:30:43.000Z</time>
      </trkpt>
      <trkpt lat="47.49175" lon="6.76024">
        <ele>320</ele>
        <time>2015-03-22T08:30:44.000Z</time>
      </trkpt>
      <trkpt lat="47.49172" lon="6.76031">
        <ele>320</ele>
        <time>2015-03-22T08:30:45.000Z</time>
      </trkpt>
      <trkpt lat="47.49169" lon="6.76036">
        <ele>320</ele>
        <time>2015-03-22T08:30:46.000Z</time>
      </trkpt>
      <trkpt lat="47.49168" lon="6.76043">
        <ele>320</ele>
        <time>2015-03-22T08:30:47.000Z</time>
      </trkpt>
      <trkpt lat="47.49166" lon="6.76049">
        <ele>322</ele>
        <time>2015-03-22T08:30:48.000Z</time>
      </trkpt>
      <trkpt lat="47.49163" lon="6.76057">
        <ele>322</ele>
        <time>2015-03-22T08:30:49.000Z</time>
      </trkpt>
      <trkpt lat="47.4916" lon="6.76066">
        <ele>321</ele>
        <time>2015-03-22T08:30:50.000Z</time>
      </trkpt>
      <trkpt lat="47.49158" lon="6.76074">
        <ele>321</ele>
        <time>2015-03-22T08:30:51.000Z</time>
      </trkpt>
      <trkpt lat="47.49157" lon="6.76082">
        <ele>320</ele>
        <time>2015-03-22T08:30:52.000Z</time>
      </trkpt>
      <trkpt lat="47.49155" lon="6.76092">
        <ele>320</ele>
        <time>2015-03-22T08:30:53.000Z</time>
      </trkpt>
      <trkpt lat="47.49153" lon="6.761">
        <ele>321</ele>
        <time>2015-03-22T08:30:54.000Z</time>
      </trkpt>
      <trkpt lat="47.4915" lon="6.76108">
        <ele>321</ele>
        <time>2015-03-22T08:30:55.000Z</time>
      </trkpt>
      <trkpt lat="47.49148" lon="6.76117">
        <ele>321</ele>
        <time>2015-03-22T08:30:56.000Z</time>
      </trkpt>
      <trkpt lat="47.49147" lon="6.76124">
        <ele>321</ele>
        <time>2015-03-22T08:30:57.000Z</time>
      </trkpt>
      <trkpt lat="47.49146" lon="6.76132">
        <ele>321</ele>
        <time>2015-03-22T08:30:58.000Z</time>
      </trkpt>
      <trkpt lat="47.49144" lon="6.7614">
        <ele>321</ele>
        <time>2015-03-22T08:30:59.000Z</time>
      </trkpt>
      <trkpt lat="47.49142" lon="6.76147">
        <ele>321</ele>
        <time>2015-03-22T08:31:00.000Z</time>
      </trkpt>
      <trkpt lat="47.49141" lon="6.76153">
        <ele>321</ele>
        <time>2015-03-22T08:31:01.000Z</time>
      </trkpt>
      <trkpt lat="47.49139" lon="6.76161">
        <ele>321</ele>
        <time>2015-03-22T08:31:02.000Z</time>
      </trkpt>
      <trkpt lat="47.49138" lon="6.76168">
        <ele>321</ele>
        <time>2015-03-22T08:31:03.000Z</time>
      </trkpt>
      <trkpt lat="47.49136" lon="6.76177">
        <ele>321</ele>
        <time>2015-03-22T08:31:04.000Z</time>
      </trkpt>
      <trkpt lat="47.49135" lon="6.76185">
        <ele>321</ele>
        <time>2015-03-22T08:31:05.000Z</time>
      </trkpt>
      <trkpt lat="47.49134" lon="6.76193">
        <ele>321</ele>
        <time>2015-03-22T08:31:06.000Z</time>
      </trkpt>
      <trkpt lat="47.49135" lon="6.76199">
        <ele>321</ele>
        <time>2015-03-22T08:31:07.000Z</time>
      </trkpt>
      <trkpt lat="47.49136" lon="6.76206">
        <ele>321</ele>
        <time>2015-03-22T08:31:08.000Z</time>
      </trkpt>
      <trkpt lat="47.49133" lon="6.76215">
        <ele>321</ele>
        <time>2015-03-22T08:31:09.000Z</time>
      </trkpt>
      <trkpt lat="47.49132" lon="6.76223">
        <ele>321</ele>
        <time>2015-03-22T08:31:10.000Z</time>
      </trkpt>
      <trkpt lat="47.49135" lon="6.76226">
        <ele>320</ele>
        <time>2015-03-22T08:31:11.000Z</time>
      </trkpt>
      <trkpt lat="47.49135" lon="6.76231">
        <ele>320</ele>
        <time>2015-03-22T08:31:12.000Z</time>
      </trkpt>
      <trkpt lat="47.49135" lon="6.76237">
        <ele>320</ele>
        <time>2015-03-22T08:31:13.000Z</time>
      </trkpt>
      <trkpt lat="47.49136" lon="6.7624">
        <ele>320</ele>
        <time>2015-03-22T08:31:14.000Z</time>
      </trkpt>
      <trkpt lat="47.49138" lon="6.76243">
        <ele>320</ele>
        <time>2015-03-22T08:31:15.000Z</time>
      </trkpt>
      <trkpt lat="47.49138" lon="6.76252">
        <ele>319</ele>
        <time>2015-03-22T08:31:16.000Z</time>
      </trkpt>
      <trkpt lat="47.49137" lon="6.76259">
        <ele>319</ele>
        <time>2015-03-22T08:31:17.000Z</time>
      </trkpt>
      <trkpt lat="47.49138" lon="6.76264">
        <ele>319</ele>
        <time>2015-03-22T08:31:18.000Z</time>
      </trkpt>
      <trkpt lat="47.49139" lon="6.76267">
        <ele>319</ele>
        <time>2015-03-22T08:31:19.000Z</time>
      </trkpt>
      <trkpt lat="47.49139" lon="6.76273">
        <ele>319</ele>
        <time>2015-03-22T08:31:20.000Z</time>
      </trkpt>
      <trkpt lat="47.49139" lon="6.76279">
        <ele>319</ele>
        <time>2015-03-22T08:31:21.000Z</time>
      </trkpt>
      <trkpt lat="47.49139" lon="6.76291">
        <ele>319</ele>
        <time>2015-03-22T08:31:22.000Z</time>
      </trkpt>
      <trkpt lat="47.49138" lon="6.76299">
        <ele>319</ele>
        <time>2015-03-22T08:31:23.000Z</time>
      </trkpt>
      <trkpt lat="47.49138" lon="6.76306">
        <ele>319</ele>
        <time>2015-03-22T08:31:24.000Z</time>
      </trkpt>
      <trkpt lat="47.49139" lon="6.76311">
        <ele>318</ele>
        <time>2015-03-22T08:31:25.000Z</time>
      </trkpt>
      <trkpt lat="47.49138" lon="6.7632">
        <ele>318</ele>
        <time>2015-03-22T08:31:26.000Z</time>
      </trkpt>
      <trkpt lat="47.49139" lon="6.76326">
        <ele>318</ele>
        <time>2015-03-22T08:31:27.000Z</time>
      </trkpt>
      <trkpt lat="47.49139" lon="6.76332">
        <ele>318</ele>
        <time>2015-03-22T08:31:28.000Z</time>
      </trkpt>
      <trkpt lat="47.4914" lon="6.76337">
        <ele>317</ele>
        <time>2015-03-22T08:31:29.000Z</time>
      </trkpt>
      <trkpt lat="47.49142" lon="6.76341">
        <ele>317</ele>
        <time>2015-03-22T08:31:30.000Z</time>
      </trkpt>
      <trkpt lat="47.49142" lon="6.76347">
        <ele>317</ele>
        <time>2015-03-22T08:31:31.000Z</time>
      </trkpt>
      <trkpt lat="47.49143" lon="6.76353">
        <ele>317</ele>
        <time>2015-03-22T08:31:32.000Z</time>
      </trkpt>
      <trkpt lat="47.49142" lon="6.76364">
        <ele>317</ele>
        <time>2015-03-22T08:31:33.000Z</time>
      </trkpt>
      <trkpt lat="47.49137" lon="6.76382">
        <ele>317</ele>
        <time>2015-03-22T08:31:34.000Z</time>
      </trkpt>
      <trkpt lat="47.49138" lon="6.76388">
        <ele>317</ele>
        <time>2015-03-22T08:31:35.000Z</time>
      </trkpt>
      <trkpt lat="47.49139" lon="6.76395">
        <ele>317</ele>
        <time>2015-03-22T08:31:36.000Z</time>
      </trkpt>
      <trkpt lat="47.49139" lon="6.76397">
        <ele>317</ele>
        <time>2015-03-22T08:31:37.000Z</time>
      </trkpt>
      <trkpt lat="47.4914" lon="6.76403">
        <ele>317</ele>
        <time>2015-03-22T08:31:38.000Z</time>
      </trkpt>
      <trkpt lat="47.49141" lon="6.76411">
        <ele>316</ele>
        <time>2015-03-22T08:31:39.000Z</time>
      </trkpt>
      <trkpt lat="47.49142" lon="6.76419">
        <ele>316</ele>
        <time>2015-03-22T08:31:40.000Z</time>
      </trkpt>
      <trkpt lat="47.49142" lon="6.76426">
        <ele>316</ele>
        <time>2015-03-22T08:31:41.000Z</time>
      </trkpt>
      <trkpt lat="47.49142" lon="6.76435">
        <ele>316</ele>
        <time>2015-03-22T08:31:42.000Z</time>
      </trkpt>
      <trkpt lat="47.49141" lon="6.76445">
        <ele>316</ele>
        <time>2015-03-22T08:31:43.000Z</time>
      </trkpt>
      <trkpt lat="47.49139" lon="6.76451">
        <ele>316</ele>
        <time>2015-03-22T08:31:44.000Z</time>
      </trkpt>
      <trkpt lat="47.49139" lon="6.76456">
        <ele>316</ele>
        <time>2015-03-22T08:31:45.000Z</time>
      </trkpt>
      <trkpt lat="47.49138" lon="6.76465">
        <ele>316</ele>
        <time>2015-03-22T08:31:46.000Z</time>
      </trkpt>
      <trkpt lat="47.49139" lon="6.76474">
        <ele>316</ele>
        <time>2015-03-22T08:31:47.000Z</time>
      </trkpt>
      <trkpt lat="47.49141" lon="6.76481">
        <ele>316</ele>
        <time>2015-03-22T08:31:47.999Z</time>
      </trkpt>
      <trkpt lat="47.49148" lon="6.76485">
        <ele>316</ele>
        <time>2015-03-22T08:31:49.000Z</time>
      </trkpt>
      <trkpt lat="47.49154" lon="6.76496">
        <ele>315</ele>
        <time>2015-03-22T08:31:50.000Z</time>
      </trkpt>
      <trkpt lat="47.49161" lon="6.76506">
        <ele>314</ele>
        <time>2015-03-22T08:31:51.000Z</time>
      </trkpt>
      <trkpt lat="47.49163" lon="6.76511">
        <ele>314</ele>
        <time>2015-03-22T08:31:52.000Z</time>
      </trkpt>
      <trkpt lat="47.49168" lon="6.76509">
        <ele>314</ele>
        <time>2015-03-22T08:31:53.000Z</time>
      </trkpt>
      <trkpt lat="47.49173" lon="6.76507">
        <ele>314</ele>
        <time>2015-03-22T08:31:54.000Z</time>
      </trkpt>
      <trkpt lat="47.49177" lon="6.76505">
        <ele>315</ele>
        <time>2015-03-22T08:31:56.000Z</time>
      </trkpt>
      <trkpt lat="47.49179" lon="6.76504">
        <ele>315</ele>
        <time>2015-03-22T08:31:57.000Z</time>
      </trkpt>
      <trkpt lat="47.49181" lon="6.76501">
        <ele>315</ele>
        <time>2015-03-22T08:31:59.000Z</time>
      </trkpt>
      <trkpt lat="47.49182" lon="6.76499">
        <ele>315</ele>
        <time>2015-03-22T08:32:00.000Z</time>
      </trkpt>
      <trkpt lat="47.49184" lon="6.76493">
        <ele>316</ele>
        <time>2015-03-22T08:32:02.000Z</time>
      </trkpt>
      <trkpt lat="47.49182" lon="6.76489">
        <ele>316</ele>
        <time>2015-03-22T08:32:03.000Z</time>
      </trkpt>
      <trkpt lat="47.49181" lon="6.76484">
        <ele>316</ele>
        <time>2015-03-22T08:32:05.000Z</time>
      </trkpt>
      <trkpt lat="47.49179" lon="6.76482">
        <ele>316</ele>
        <time>2015-03-22T08:32:06.000Z</time>
      </trkpt>
      <trkpt lat="47.49176" lon="6.76486">
        <ele>315</ele>
        <time>2015-03-22T08:32:11.000Z</time>
      </trkpt>
      <trkpt lat="47.49176" lon="6.76487">
        <ele>315</ele>
        <time>2015-03-22T08:32:12.000Z</time>
      </trkpt>
      <trkpt lat="47.49179" lon="6.76488">
        <ele>315</ele>
        <time>2015-03-22T08:34:46.000Z</time>
      </trkpt>
      <trkpt lat="47.4918" lon="6.76491">
        <ele>315</ele>
        <time>2015-03-22T08:34:47.000Z</time>
      </trkpt>
      <trkpt lat="47.4918" lon="6.76495">
        <ele>315</ele>
        <time>2015-03-22T08:34:48.000Z</time>
      </trkpt>
      <trkpt lat="47.4918" lon="6.76498">
        <ele>315</ele>
        <time>2015-03-22T08:34:49.000Z</time>
      </trkpt>
      <trkpt lat="47.4918" lon="6.76502">
        <ele>315</ele>
        <time>2015-03-22T08:34:50.000Z</time>
      </trkpt>
      <trkpt lat="47.49179" lon="6.76505">
        <ele>315</ele>
        <time>2015-03-22T08:34:51.000Z</time>
      </trkpt>
      <trkpt lat="47.49176" lon="6.76509">
        <ele>315</ele>
        <time>2015-03-22T08:34:52.000Z</time>
      </trkpt>
      <trkpt lat="47.49174" lon="6.76513">
        <ele>315</ele>
        <time>2015-03-22T08:34:53.000Z</time>
      </trkpt>
      <trkpt lat="47.49171" lon="6.76517">
        <ele>315</ele>
        <time>2015-03-22T08:34:54.000Z</time>
      </trkpt>
      <trkpt lat="47.49163" lon="6.76517">
        <ele>314</ele>
        <time>2015-03-22T08:34:55.000Z</time>
      </trkpt>
      <trkpt lat="47.49159" lon="6.76516">
        <ele>314</ele>
        <time>2015-03-22T08:34:56.000Z</time>
      </trkpt>
      <trkpt lat="47.49155" lon="6.76515">
        <ele>314</ele>
        <time>2015-03-22T08:34:57.000Z</time>
      </trkpt>
      <trkpt lat="47.49152" lon="6.76514">
        <ele>315</ele>
        <time>2015-03-22T08:34:58.000Z</time>
      </trkpt>
      <trkpt lat="47.49148" lon="6.76515">
        <ele>315</ele>
        <time>2015-03-22T08:34:59.000Z</time>
      </trkpt>
      <trkpt lat="47.49144" lon="6.76515">
        <ele>315</ele>
        <time>2015-03-22T08:35:00.000Z</time>
      </trkpt>
      <trkpt lat="47.4914" lon="6.76515">
        <ele>315</ele>
        <time>2015-03-22T08:35:01.000Z</time>
      </trkpt>
      <trkpt lat="47.49136" lon="6.76512">
        <ele>315</ele>
        <time>2015-03-22T08:35:02.000Z</time>
      </trkpt>
      <trkpt lat="47.49132" lon="6.76512">
        <ele>316</ele>
        <time>2015-03-22T08:35:03.000Z</time>
      </trkpt>
      <trkpt lat="47.49129" lon="6.76509">
        <ele>316</ele>
        <time>2015-03-22T08:35:04.000Z</time>
      </trkpt>
      <trkpt lat="47.49127" lon="6.76505">
        <ele>316</ele>
        <time>2015-03-22T08:35:05.000Z</time>
      </trkpt>
      <trkpt lat="47.49128" lon="6.76501">
        <ele>316</ele>
        <time>2015-03-22T08:35:06.000Z</time>
      </trkpt>
      <trkpt lat="47.49128" lon="6.76496">
        <ele>317</ele>
        <time>2015-03-22T08:35:07.000Z</time>
      </trkpt>
      <trkpt lat="47.49129" lon="6.7649">
        <ele>317</ele>
        <time>2015-03-22T08:35:08.000Z</time>
      </trkpt>
      <trkpt lat="47.4913" lon="6.76484">
        <ele>317</ele>
        <time>2015-03-22T08:35:09.000Z</time>
      </trkpt>
      <trkpt lat="47.49131" lon="6.76478">
        <ele>317</ele>
        <time>2015-03-22T08:35:10.000Z</time>
      </trkpt>
      <trkpt lat="47.49132" lon="6.76471">
        <ele>317</ele>
        <time>2015-03-22T08:35:11.000Z</time>
      </trkpt>
      <trkpt lat="47.49132" lon="6.76464">
        <ele>317</ele>
        <time>2015-03-22T08:35:12.000Z</time>
      </trkpt>
      <trkpt lat="47.49133" lon="6.76458">
        <ele>317</ele>
        <time>2015-03-22T08:35:13.000Z</time>
      </trkpt>
      <trkpt lat="47.49134" lon="6.76454">
        <ele>317</ele>
        <time>2015-03-22T08:35:14.000Z</time>
      </trkpt>
      <trkpt lat="47.49135" lon="6.7645">
        <ele>317</ele>
        <time>2015-03-22T08:35:15.000Z</time>
      </trkpt>
      <trkpt lat="47.49136" lon="6.76447">
        <ele>316</ele>
        <time>2015-03-22T08:35:16.000Z</time>
      </trkpt>
      <trkpt lat="47.49136" lon="6.76441">
        <ele>316</ele>
        <time>2015-03-22T08:35:18.000Z</time>
      </trkpt>
      <trkpt lat="47.49134" lon="6.76438">
        <ele>316</ele>
        <time>2015-03-22T08:35:19.000Z</time>
      </trkpt>
      <trkpt lat="47.49132" lon="6.76436">
        <ele>317</ele>
        <time>2015-03-22T08:35:20.000Z</time>
      </trkpt>
      <trkpt lat="47.49129" lon="6.76434">
        <ele>317</ele>
        <time>2015-03-22T08:35:21.000Z</time>
      </trkpt>
      <trkpt lat="47.49126" lon="6.76432">
        <ele>317</ele>
        <time>2015-03-22T08:35:22.000Z</time>
      </trkpt>
      <trkpt lat="47.49123" lon="6.7643">
        <ele>317</ele>
        <time>2015-03-22T08:35:23.000Z</time>
      </trkpt>
      <trkpt lat="47.4912" lon="6.76429">
        <ele>317</ele>
        <time>2015-03-22T08:35:24.000Z</time>
      </trkpt>
      <trkpt lat="47.49117" lon="6.76428">
        <ele>318</ele>
        <time>2015-03-22T08:35:25.000Z</time>
      </trkpt>
      <trkpt lat="47.49114" lon="6.76428">
        <ele>318</ele>
        <time>2015-03-22T08:35:26.000Z</time>
      </trkpt>
      <trkpt lat="47.4911" lon="6.76428">
        <ele>318</ele>
        <time>2015-03-22T08:35:27.000Z</time>
      </trkpt>
      <trkpt lat="47.49108" lon="6.76427">
        <ele>318</ele>
        <time>2015-03-22T08:35:28.000Z</time>
      </trkpt>
      <trkpt lat="47.49106" lon="6.76424">
        <ele>318</ele>
        <time>2015-03-22T08:35:29.000Z</time>
      </trkpt>
      <trkpt lat="47.49105" lon="6.76421">
        <ele>319</ele>
        <time>2015-03-22T08:35:30.000Z</time>
      </trkpt>
      <trkpt lat="47.49104" lon="6.76417">
        <ele>319</ele>
        <time>2015-03-22T08:35:31.000Z</time>
      </trkpt>
      <trkpt lat="47.49104" lon="6.76412">
        <ele>319</ele>
        <time>2015-03-22T08:35:32.000Z</time>
      </trkpt>
      <trkpt lat="47.49105" lon="6.76407">
        <ele>319</ele>
        <time>2015-03-22T08:35:33.000Z</time>
      </trkpt>
      <trkpt lat="47.49107" lon="6.76402">
        <ele>319</ele>
        <time>2015-03-22T08:35:34.000Z</time>
      </trkpt>
      <trkpt lat="47.49109" lon="6.76398">
        <ele>319</ele>
        <time>2015-03-22T08:35:35.000Z</time>
      </trkpt>
      <trkpt lat="47.49111" lon="6.76393">
        <ele>318</ele>
        <time>2015-03-22T08:35:36.000Z</time>
      </trkpt>
      <trkpt lat="47.49112" lon="6.76387">
        <ele>318</ele>
        <time>2015-03-22T08:35:37.000Z</time>
      </trkpt>
      <trkpt lat="47.49113" lon="6.76381">
        <ele>318</ele>
        <time>2015-03-22T08:35:38.000Z</time>
      </trkpt>
      <trkpt lat="47.49114" lon="6.76374">
        <ele>318</ele>
        <time>2015-03-22T08:35:39.000Z</time>
      </trkpt>
      <trkpt lat="47.49115" lon="6.76368">
        <ele>318</ele>
        <time>2015-03-22T08:35:40.000Z</time>
      </trkpt>
      <trkpt lat="47.49117" lon="6.76362">
        <ele>318</ele>
        <time>2015-03-22T08:35:41.000Z</time>
      </trkpt>
      <trkpt lat="47.49118" lon="6.76356">
        <ele>318</ele>
        <time>2015-03-22T08:35:42.000Z</time>
      </trkpt>
      <trkpt lat="47.49118" lon="6.76351">
        <ele>318</ele>
        <time>2015-03-22T08:35:43.000Z</time>
      </trkpt>
      <trkpt lat="47.49119" lon="6.76345">
        <ele>318</ele>
        <time>2015-03-22T08:35:44.000Z</time>
      </trkpt>
      <trkpt lat="47.49119" lon="6.76341">
        <ele>318</ele>
        <time>2015-03-22T08:35:45.000Z</time>
      </trkpt>
      <trkpt lat="47.49119" lon="6.76336">
        <ele>318</ele>
        <time>2015-03-22T08:35:46.000Z</time>
      </trkpt>
      <trkpt lat="47.4912" lon="6.76332">
        <ele>320</ele>
        <time>2015-03-22T08:35:47.000Z</time>
      </trkpt>
      <trkpt lat="47.4912" lon="6.76327">
        <ele>320</ele>
        <time>2015-03-22T08:35:48.000Z</time>
      </trkpt>
      <trkpt lat="47.4912" lon="6.76323">
        <ele>320</ele>
        <time>2015-03-22T08:35:49.000Z</time>
      </trkpt>
      <trkpt lat="47.4912" lon="6.76318">
        <ele>320</ele>
        <time>2015-03-22T08:35:50.000Z</time>
      </trkpt>
      <trkpt lat="47.4912" lon="6.76314">
        <ele>320</ele>
        <time>2015-03-22T08:35:51.000Z</time>
      </trkpt>
      <trkpt lat="47.4912" lon="6.76309">
        <ele>320</ele>
        <time>2015-03-22T08:35:53.000Z</time>
      </trkpt>
      <trkpt lat="47.49119" lon="6.76307">
        <ele>320</ele>
        <time>2015-03-22T08:35:54.000Z</time>
      </trkpt>
      <trkpt lat="47.49119" lon="6.76304">
        <ele>320</ele>
        <time>2015-03-22T08:35:55.999Z</time>
      </trkpt>
      <trkpt lat="47.4912" lon="6.763">
        <ele>320</ele>
        <time>2015-03-22T08:35:57.000Z</time>
      </trkpt>
      <trkpt lat="47.49119" lon="6.76294">
        <ele>320</ele>
        <time>2015-03-22T08:35:59.000Z</time>
      </trkpt>
      <trkpt lat="47.49119" lon="6.7629">
        <ele>320</ele>
        <time>2015-03-22T08:36:00.000Z</time>
      </trkpt>
      <trkpt lat="47.49119" lon="6.76286">
        <ele>320</ele>
        <time>2015-03-22T08:36:01.000Z</time>
      </trkpt>
      <trkpt lat="47.49119" lon="6.76281">
        <ele>320</ele>
        <time>2015-03-22T08:36:02.000Z</time>
      </trkpt>
      <trkpt lat="47.49118" lon="6.76277">
        <ele>320</ele>
        <time>2015-03-22T08:36:03.000Z</time>
      </trkpt>
      <trkpt lat="47.49118" lon="6.76272">
        <ele>320</ele>
        <time>2015-03-22T08:36:04.000Z</time>
      </trkpt>
      <trkpt lat="47.49118" lon="6.76268">
        <ele>320</ele>
        <time>2015-03-22T08:36:05.000Z</time>
      </trkpt>
      <trkpt lat="47.49119" lon="6.76263">
        <ele>320</ele>
        <time>2015-03-22T08:36:06.000Z</time>
      </trkpt>
      <trkpt lat="47.49119" lon="6.76258">
        <ele>320</ele>
        <time>2015-03-22T08:36:07.000Z</time>
      </trkpt>
      <trkpt lat="47.4912" lon="6.76252">
        <ele>320</ele>
        <time>2015-03-22T08:36:08.000Z</time>
      </trkpt>
      <trkpt lat="47.4912" lon="6.76248">
        <ele>321</ele>
        <time>2015-03-22T08:36:09.000Z</time>
      </trkpt>
      <trkpt lat="47.49121" lon="6.76244">
        <ele>321</ele>
        <time>2015-03-22T08:36:10.000Z</time>
      </trkpt>
      <trkpt lat="47.49121" lon="6.76239">
        <ele>321</ele>
        <time>2015-03-22T08:36:11.000Z</time>
      </trkpt>
      <trkpt lat="47.49121" lon="6.76235">
        <ele>321</ele>
        <time>2015-03-22T08:36:12.000Z</time>
      </trkpt>
      <trkpt lat="47.49122" lon="6.7623">
        <ele>321</ele>
        <time>2015-03-22T08:36:13.000Z</time>
      </trkpt>
      <trkpt lat="47.49122" lon="6.76225">
        <ele>321</ele>
        <time>2015-03-22T08:36:14.000Z</time>
      </trkpt>
      <trkpt lat="47.49122" lon="6.76221">
        <ele>321</ele>
        <time>2015-03-22T08:36:15.000Z</time>
      </trkpt>
      <trkpt lat="47.49121" lon="6.76217">
        <ele>321</ele>
        <time>2015-03-22T08:36:16.000Z</time>
      </trkpt>
      <trkpt lat="47.49121" lon="6.76213">
        <ele>321</ele>
        <time>2015-03-22T08:36:17.000Z</time>
      </trkpt>
      <trkpt lat="47.49121" lon="6.76209">
        <ele>321</ele>
        <time>2015-03-22T08:36:18.000Z</time>
      </trkpt>
      <trkpt lat="47.49121" lon="6.76205">
        <ele>321</ele>
        <time>2015-03-22T08:36:19.000Z</time>
      </trkpt>
      <trkpt lat="47.49122" lon="6.76201">
        <ele>321</ele>
        <time>2015-03-22T08:36:20.000Z</time>
      </trkpt>
      <trkpt lat="47.49123" lon="6.76198">
        <ele>321</ele>
        <time>2015-03-22T08:36:21.000Z</time>
      </trkpt>
      <trkpt lat="47.49124" lon="6.76195">
        <ele>321</ele>
        <time>2015-03-22T08:36:22.000Z</time>
      </trkpt>
      <trkpt lat="47.49124" lon="6.76191">
        <ele>321</ele>
        <time>2015-03-22T08:36:23.000Z</time>
      </trkpt>
      <trkpt lat="47.49124" lon="6.76187">
        <ele>321</ele>
        <time>2015-03-22T08:36:24.000Z</time>
      </trkpt>
      <trkpt lat="47.49124" lon="6.76182">
        <ele>321</ele>
        <time>2015-03-22T08:36:25.000Z</time>
      </trkpt>
      <trkpt lat="47.49124" lon="6.76177">
        <ele>321</ele>
        <time>2015-03-22T08:36:26.000Z</time>
      </trkpt>
      <trkpt lat="47.49123" lon="6.76172">
        <ele>321</ele>
        <time>2015-03-22T08:36:27.000Z</time>
      </trkpt>
      <trkpt lat="47.49123" lon="6.76168">
        <ele>321</ele>
        <time>2015-03-22T08:36:28.000Z</time>
      </trkpt>
      <trkpt lat="47.49123" lon="6.76163">
        <ele>322</ele>
        <time>2015-03-22T08:36:29.000Z</time>
      </trkpt>
      <trkpt lat="47.49123" lon="6.76158">
        <ele>322</ele>
        <time>2015-03-22T08:36:30.000Z</time>
      </trkpt>
      <trkpt lat="47.49124" lon="6.76154">
        <ele>322</ele>
        <time>2015-03-22T08:36:31.000Z</time>
      </trkpt>
      <trkpt lat="47.49124" lon="6.76149">
        <ele>322</ele>
        <time>2015-03-22T08:36:32.000Z</time>
      </trkpt>
      <trkpt lat="47.49124" lon="6.76143">
        <ele>322</ele>
        <time>2015-03-22T08:36:33.000Z</time>
      </trkpt>
      <trkpt lat="47.49124" lon="6.76137">
        <ele>322</ele>
        <time>2015-03-22T08:36:34.000Z</time>
      </trkpt>
      <trkpt lat="47.49124" lon="6.76131">
        <ele>322</ele>
        <time>2015-03-22T08:36:35.000Z</time>
      </trkpt>
      <trkpt lat="47.49125" lon="6.76125">
        <ele>322</ele>
        <time>2015-03-22T08:36:36.000Z</time>
      </trkpt>
      <trkpt lat="47.49125" lon="6.7612">
        <ele>322</ele>
        <time>2015-03-22T08:36:37.000Z</time>
      </trkpt>
      <trkpt lat="47.49125" lon="6.76114">
        <ele>322</ele>
        <time>2015-03-22T08:36:38.000Z</time>
      </trkpt>
      <trkpt lat="47.49125" lon="6.76108">
        <ele>322</ele>
        <time>2015-03-22T08:36:39.000Z</time>
      </trkpt>
      <trkpt lat="47.49126" lon="6.76103">
        <ele>322</ele>
        <time>2015-03-22T08:36:40.000Z</time>
      </trkpt>
      <trkpt lat="47.49127" lon="6.76098">
        <ele>322</ele>
        <time>2015-03-22T08:36:41.000Z</time>
      </trkpt>
      <trkpt lat="47.49127" lon="6.76093">
        <ele>322</ele>
        <time>2015-03-22T08:36:42.000Z</time>
      </trkpt>
      <trkpt lat="47.49127" lon="6.76088">
        <ele>322</ele>
        <time>2015-03-22T08:36:43.000Z</time>
      </trkpt>
      <trkpt lat="47.49127" lon="6.76083">
        <ele>324</ele>
        <time>2015-03-22T08:36:44.000Z</time>
      </trkpt>
      <trkpt lat="47.49127" lon="6.76078">
        <ele>324</ele>
        <time>2015-03-22T08:36:45.000Z</time>
      </trkpt>
      <trkpt lat="47.49128" lon="6.76073">
        <ele>324</ele>
        <time>2015-03-22T08:36:46.000Z</time>
      </trkpt>
      <trkpt lat="47.49129" lon="6.76068">
        <ele>324</ele>
        <time>2015-03-22T08:36:47.000Z</time>
      </trkpt>
      <trkpt lat="47.4913" lon="6.76063">
        <ele>324</ele>
        <time>2015-03-22T08:36:48.000Z</time>
      </trkpt>
      <trkpt lat="47.49131" lon="6.76058">
        <ele>324</ele>
        <time>2015-03-22T08:36:49.000Z</time>
      </trkpt>
      <trkpt lat="47.49131" lon="6.76053">
        <ele>324</ele>
        <time>2015-03-22T08:36:50.000Z</time>
      </trkpt>
      <trkpt lat="47.49131" lon="6.76048">
        <ele>324</ele>
        <time>2015-03-22T08:36:51.000Z</time>
      </trkpt>
      <trkpt lat="47.49132" lon="6.76044">
        <ele>324</ele>
        <time>2015-03-22T08:36:52.000Z</time>
      </trkpt>
      <trkpt lat="47.49133" lon="6.7604">
        <ele>324</ele>
        <time>2015-03-22T08:36:53.000Z</time>
      </trkpt>
      <trkpt lat="47.49135" lon="6.76035">
        <ele>324</ele>
        <time>2015-03-22T08:36:54.000Z</time>
      </trkpt>
      <trkpt lat="47.49136" lon="6.76031">
        <ele>324</ele>
        <time>2015-03-22T08:36:55.000Z</time>
      </trkpt>
      <trkpt lat="47.49137" lon="6.76026">
        <ele>324</ele>
        <time>2015-03-22T08:36:56.000Z</time>
      </trkpt>
      <trkpt lat="47.49138" lon="6.76021">
        <ele>324</ele>
        <time>2015-03-22T08:36:57.000Z</time>
      </trkpt>
      <trkpt lat="47.49139" lon="6.76016">
        <ele>324</ele>
        <time>2015-03-22T08:36:58.000Z</time>
      </trkpt>
      <trkpt lat="47.4914" lon="6.76012">
        <ele>323</ele>
        <time>2015-03-22T08:36:59.000Z</time>
      </trkpt>
      <trkpt lat="47.4914" lon="6.76007">
        <ele>323</ele>
        <time>2015-03-22T08:37:00.000Z</time>
      </trkpt>
      <trkpt lat="47.49141" lon="6.76002">
        <ele>323</ele>
        <time>2015-03-22T08:37:01.000Z</time>
      </trkpt>
      <trkpt lat="47.49142" lon="6.75997">
        <ele>325</ele>
        <time>2015-03-22T08:37:02.000Z</time>
      </trkpt>
      <trkpt lat="47.49143" lon="6.75992">
        <ele>325</ele>
        <time>2015-03-22T08:37:03.000Z</time>
      </trkpt>
      <trkpt lat="47.49145" lon="6.75987">
        <ele>325</ele>
        <time>2015-03-22T08:37:04.000Z</time>
      </trkpt>
      <trkpt lat="47.49146" lon="6.75981">
        <ele>325</ele>
        <time>2015-03-22T08:37:05.000Z</time>
      </trkpt>
      <trkpt lat="47.49146" lon="6.75975">
        <ele>326</ele>
        <time>2015-03-22T08:37:06.000Z</time>
      </trkpt>
      <trkpt lat="47.49146" lon="6.75969">
        <ele>326</ele>
        <time>2015-03-22T08:37:07.000Z</time>
      </trkpt>
      <trkpt lat="47.49146" lon="6.75963">
        <ele>326</ele>
        <time>2015-03-22T08:37:08.000Z</time>
      </trkpt>
      <trkpt lat="47.49146" lon="6.75957">
        <ele>327</ele>
        <time>2015-03-22T08:37:09.000Z</time>
      </trkpt>
      <trkpt lat="47.49146" lon="6.75952">
        <ele>327</ele>
        <time>2015-03-22T08:37:10.000Z</time>
      </trkpt>
      <trkpt lat="47.49146" lon="6.75946">
        <ele>327</ele>
        <time>2015-03-22T08:37:11.000Z</time>
      </trkpt>
      <trkpt lat="47.49147" lon="6.75941">
        <ele>327</ele>
        <time>2015-03-22T08:37:12.000Z</time>
      </trkpt>
      <trkpt lat="47.49147" lon="6.75935">
        <ele>327</ele>
        <time>2015-03-22T08:37:13.000Z</time>
      </trkpt>
      <trkpt lat="47.49148" lon="6.75929">
        <ele>326</ele>
        <time>2015-03-22T08:37:14.000Z</time>
      </trkpt>
      <trkpt lat="47.49149" lon="6.75923">
        <ele>326</ele>
        <time>2015-03-22T08:37:15.000Z</time>
      </trkpt>
      <trkpt lat="47.4915" lon="6.75916">
        <ele>328</ele>
        <time>2015-03-22T08:37:16.000Z</time>
      </trkpt>
      <trkpt lat="47.49151" lon="6.75909">
        <ele>328</ele>
        <time>2015-03-22T08:37:17.000Z</time>
      </trkpt>
      <trkpt lat="47.49152" lon="6.75901">
        <ele>329</ele>
        <time>2015-03-22T08:37:18.000Z</time>
      </trkpt>
      <trkpt lat="47.49153" lon="6.75892">
        <ele>329</ele>
        <time>2015-03-22T08:37:19.000Z</time>
      </trkpt>
      <trkpt lat="47.49156" lon="6.75884">
        <ele>330</ele>
        <time>2015-03-22T08:37:20.000Z</time>
      </trkpt>
      <trkpt lat="47.49158" lon="6.75876">
        <ele>330</ele>
        <time>2015-03-22T08:37:21.000Z</time>
      </trkpt>
      <trkpt lat="47.4916" lon="6.75867">
        <ele>330</ele>
        <time>2015-03-22T08:37:22.000Z</time>
      </trkpt>
      <trkpt lat="47.49162" lon="6.75857">
        <ele>330</ele>
        <time>2015-03-22T08:37:23.000Z</time>
      </trkpt>
      <trkpt lat="47.49164" lon="6.75847">
        <ele>329</ele>
        <time>2015-03-22T08:37:24.000Z</time>
      </trkpt>
      <trkpt lat="47.49165" lon="6.75837">
        <ele>327</ele>
        <time>2015-03-22T08:37:25.000Z</time>
      </trkpt>
      <trkpt lat="47.49166" lon="6.75827">
        <ele>329</ele>
        <time>2015-03-22T08:37:26.000Z</time>
      </trkpt>
      <trkpt lat="47.49167" lon="6.75817">
        <ele>325</ele>
        <time>2015-03-22T08:37:27.000Z</time>
      </trkpt>
      <trkpt lat="47.49168" lon="6.75807">
        <ele>325</ele>
        <time>2015-03-22T08:37:28.000Z</time>
      </trkpt>
      <trkpt lat="47.49169" lon="6.75798">
        <ele>326</ele>
        <time>2015-03-22T08:37:29.000Z</time>
      </trkpt>
      <trkpt lat="47.4917" lon="6.75789">
        <ele>326</ele>
        <time>2015-03-22T08:37:30.000Z</time>
      </trkpt>
      <trkpt lat="47.49172" lon="6.7578">
        <ele>327</ele>
        <time>2015-03-22T08:37:31.000Z</time>
      </trkpt>
      <trkpt lat="47.49174" lon="6.75772">
        <ele>328</ele>
        <time>2015-03-22T08:37:32.000Z</time>
      </trkpt>
      <trkpt lat="47.49175" lon="6.75764">
        <ele>329</ele>
        <time>2015-03-22T08:37:33.000Z</time>
      </trkpt>
      <trkpt lat="47.49177" lon="6.75756">
        <ele>331</ele>
        <time>2015-03-22T08:37:34.000Z</time>
      </trkpt>
      <trkpt lat="47.49178" lon="6.75748">
        <ele>334</ele>
        <time>2015-03-22T08:37:35.000Z</time>
      </trkpt>
      <trkpt lat="47.4918" lon="6.7574">
        <ele>333</ele>
        <time>2015-03-22T08:37:36.000Z</time>
      </trkpt>
      <trkpt lat="47.49182" lon="6.75731">
        <ele>333</ele>
        <time>2015-03-22T08:37:37.000Z</time>
      </trkpt>
      <trkpt lat="47.49183" lon="6.75723">
        <ele>333</ele>
        <time>2015-03-22T08:37:38.000Z</time>
      </trkpt>
      <trkpt lat="47.49184" lon="6.75715">
        <ele>334</ele>
        <time>2015-03-22T08:37:39.000Z</time>
      </trkpt>
      <trkpt lat="47.49185" lon="6.75707">
        <ele>334</ele>
        <time>2015-03-22T08:37:40.000Z</time>
      </trkpt>
      <trkpt lat="47.49185" lon="6.757">
        <ele>335</ele>
        <time>2015-03-22T08:37:41.000Z</time>
      </trkpt>
      <trkpt lat="47.49186" lon="6.75694">
        <ele>335</ele>
        <time>2015-03-22T08:37:42.000Z</time>
      </trkpt>
      <trkpt lat="47.49186" lon="6.75687">
        <ele>336</ele>
        <time>2015-03-22T08:37:43.000Z</time>
      </trkpt>
      <trkpt lat="47.49186" lon="6.7568">
        <ele>337</ele>
        <time>2015-03-22T08:37:44.000Z</time>
      </trkpt>
      <trkpt lat="47.49187" lon="6.75673">
        <ele>338</ele>
        <time>2015-03-22T08:37:45.000Z</time>
      </trkpt>
      <trkpt lat="47.49188" lon="6.75667">
        <ele>343</ele>
        <time>2015-03-22T08:37:46.000Z</time>
      </trkpt>
      <trkpt lat="47.49189" lon="6.7566">
        <ele>342</ele>
        <time>2015-03-22T08:37:47.000Z</time>
      </trkpt>
      <trkpt lat="47.4919" lon="6.75655">
        <ele>342</ele>
        <time>2015-03-22T08:37:48.000Z</time>
      </trkpt>
      <trkpt lat="47.49192" lon="6.7565">
        <ele>342</ele>
        <time>2015-03-22T08:37:49.000Z</time>
      </trkpt>
      <trkpt lat="47.49193" lon="6.75645">
        <ele>341</ele>
        <time>2015-03-22T08:37:50.000Z</time>
      </trkpt>
      <trkpt lat="47.49195" lon="6.7564">
        <ele>341</ele>
        <time>2015-03-22T08:37:51.000Z</time>
      </trkpt>
      <trkpt lat="47.49196" lon="6.75635">
        <ele>341</ele>
        <time>2015-03-22T08:37:52.000Z</time>
      </trkpt>
      <trkpt lat="47.49196" lon="6.75629">
        <ele>341</ele>
        <time>2015-03-22T08:37:53.000Z</time>
      </trkpt>
      <trkpt lat="47.49197" lon="6.75623">
        <ele>342</ele>
        <time>2015-03-22T08:37:54.000Z</time>
      </trkpt>
      <trkpt lat="47.49197" lon="6.75616">
        <ele>342</ele>
        <time>2015-03-22T08:37:55.000Z</time>
      </trkpt>
      <trkpt lat="47.49197" lon="6.75609">
        <ele>342</ele>
        <time>2015-03-22T08:37:56.000Z</time>
      </trkpt>
      <trkpt lat="47.49197" lon="6.75602">
        <ele>343</ele>
        <time>2015-03-22T08:37:57.000Z</time>
      </trkpt>
      <trkpt lat="47.49197" lon="6.75596">
        <ele>343</ele>
        <time>2015-03-22T08:37:58.000Z</time>
      </trkpt>
      <trkpt lat="47.49199" lon="6.7559">
        <ele>343</ele>
        <time>2015-03-22T08:37:59.000Z</time>
      </trkpt>
      <trkpt lat="47.492" lon="6.75585">
        <ele>343</ele>
        <time>2015-03-22T08:38:00.000Z</time>
      </trkpt>
      <trkpt lat="47.49202" lon="6.7558">
        <ele>347</ele>
        <time>2015-03-22T08:38:01.000Z</time>
      </trkpt>
      <trkpt lat="47.49204" lon="6.75575">
        <ele>347</ele>
        <time>2015-03-22T08:38:02.000Z</time>
      </trkpt>
      <trkpt lat="47.49205" lon="6.7557">
        <ele>347</ele>
        <time>2015-03-22T08:38:03.000Z</time>
      </trkpt>
      <trkpt lat="47.49206" lon="6.75564">
        <ele>347</ele>
        <time>2015-03-22T08:38:04.000Z</time>
      </trkpt>
      <trkpt lat="47.49207" lon="6.75559">
        <ele>347</ele>
        <time>2015-03-22T08:38:05.000Z</time>
      </trkpt>
      <trkpt lat="47.49207" lon="6.75554">
        <ele>347</ele>
        <time>2015-03-22T08:38:06.000Z</time>
      </trkpt>
      <trkpt lat="47.49208" lon="6.7555">
        <ele>347</ele>
        <time>2015-03-22T08:38:07.000Z</time>
      </trkpt>
      <trkpt lat="47.49208" lon="6.75545">
        <ele>347</ele>
        <time>2015-03-22T08:38:08.000Z</time>
      </trkpt>
      <trkpt lat="47.49209" lon="6.75541">
        <ele>347</ele>
        <time>2015-03-22T08:38:09.000Z</time>
      </trkpt>
      <trkpt lat="47.4921" lon="6.75537">
        <ele>347</ele>
        <time>2015-03-22T08:38:10.000Z</time>
      </trkpt>
      <trkpt lat="47.49211" lon="6.75533">
        <ele>347</ele>
        <time>2015-03-22T08:38:11.000Z</time>
      </trkpt>
      <trkpt lat="47.49212" lon="6.7553">
        <ele>347</ele>
        <time>2015-03-22T08:38:12.000Z</time>
      </trkpt>
      <trkpt lat="47.49214" lon="6.75527">
        <ele>347</ele>
        <time>2015-03-22T08:38:13.000Z</time>
      </trkpt>
      <trkpt lat="47.49215" lon="6.75524">
        <ele>347</ele>
        <time>2015-03-22T08:38:14.000Z</time>
      </trkpt>
      <trkpt lat="47.49216" lon="6.75521">
        <ele>347</ele>
        <time>2015-03-22T08:38:15.000Z</time>
      </trkpt>
      <trkpt lat="47.49218" lon="6.75518">
        <ele>346</ele>
        <time>2015-03-22T08:38:16.000Z</time>
      </trkpt>
      <trkpt lat="47.4922" lon="6.75515">
        <ele>346</ele>
        <time>2015-03-22T08:38:17.000Z</time>
      </trkpt>
      <trkpt lat="47.49222" lon="6.75511">
        <ele>346</ele>
        <time>2015-03-22T08:38:18.000Z</time>
      </trkpt>
      <trkpt lat="47.49224" lon="6.75508">
        <ele>345</ele>
        <time>2015-03-22T08:38:19.000Z</time>
      </trkpt>
      <trkpt lat="47.49225" lon="6.75504">
        <ele>345</ele>
        <time>2015-03-22T08:38:20.000Z</time>
      </trkpt>
      <trkpt lat="47.49227" lon="6.755">
        <ele>345</ele>
        <time>2015-03-22T08:38:21.000Z</time>
      </trkpt>
      <trkpt lat="47.49229" lon="6.75496">
        <ele>348</ele>
        <time>2015-03-22T08:38:22.000Z</time>
      </trkpt>
      <trkpt lat="47.49231" lon="6.75492">
        <ele>347</ele>
        <time>2015-03-22T08:38:23.000Z</time>
      </trkpt>
      <trkpt lat="47.49233" lon="6.75488">
        <ele>347</ele>
        <time>2015-03-22T08:38:24.000Z</time>
      </trkpt>
      <trkpt lat="47.49235" lon="6.75484">
        <ele>347</ele>
        <time>2015-03-22T08:38:25.000Z</time>
      </trkpt>
      <trkpt lat="47.49237" lon="6.75479">
        <ele>348</ele>
        <time>2015-03-22T08:38:26.000Z</time>
      </trkpt>
      <trkpt lat="47.49239" lon="6.75473">
        <ele>348</ele>
        <time>2015-03-22T08:38:27.000Z</time>
      </trkpt>
      <trkpt lat="47.49242" lon="6.75468">
        <ele>349</ele>
        <time>2015-03-22T08:38:28.000Z</time>
      </trkpt>
      <trkpt lat="47.49244" lon="6.75463">
        <ele>349</ele>
        <time>2015-03-22T08:38:29.000Z</time>
      </trkpt>
      <trkpt lat="47.49246" lon="6.75459">
        <ele>349</ele>
        <time>2015-03-22T08:38:30.000Z</time>
      </trkpt>
      <trkpt lat="47.49248" lon="6.75454">
        <ele>349</ele>
        <time>2015-03-22T08:38:31.000Z</time>
      </trkpt>
      <trkpt lat="47.4925" lon="6.75449">
        <ele>349</ele>
        <time>2015-03-22T08:38:32.000Z</time>
      </trkpt>
      <trkpt lat="47.49251" lon="6.75444">
        <ele>338</ele>
        <time>2015-03-22T08:38:33.000Z</time>
      </trkpt>
      <trkpt lat="47.49253" lon="6.75439">
        <ele>339</ele>
        <time>2015-03-22T08:38:34.000Z</time>
      </trkpt>
      <trkpt lat="47.49254" lon="6.75433">
        <ele>340</ele>
        <time>2015-03-22T08:38:35.000Z</time>
      </trkpt>
      <trkpt lat="47.49256" lon="6.75428">
        <ele>340</ele>
        <time>2015-03-22T08:38:36.000Z</time>
      </trkpt>
      <trkpt lat="47.49259" lon="6.75423">
        <ele>341</ele>
        <time>2015-03-22T08:38:37.000Z</time>
      </trkpt>
      <trkpt lat="47.49261" lon="6.75417">
        <ele>341</ele>
        <time>2015-03-22T08:38:38.000Z</time>
      </trkpt>
      <trkpt lat="47.49264" lon="6.75412">
        <ele>341</ele>
        <time>2015-03-22T08:38:39.000Z</time>
      </trkpt>
      <trkpt lat="47.49266" lon="6.75407">
        <ele>341</ele>
        <time>2015-03-22T08:38:40.000Z</time>
      </trkpt>
      <trkpt lat="47.49268" lon="6.75402">
        <ele>341</ele>
        <time>2015-03-22T08:38:41.000Z</time>
      </trkpt>
      <trkpt lat="47.49271" lon="6.75397">
        <ele>340</ele>
        <time>2015-03-22T08:38:42.000Z</time>
      </trkpt>
      <trkpt lat="47.49274" lon="6.75392">
        <ele>340</ele>
        <time>2015-03-22T08:38:43.000Z</time>
      </trkpt>
      <trkpt lat="47.49277" lon="6.75387">
        <ele>340</ele>
        <time>2015-03-22T08:38:44.000Z</time>
      </trkpt>
      <trkpt lat="47.49279" lon="6.75382">
        <ele>339</ele>
        <time>2015-03-22T08:38:45.000Z</time>
      </trkpt>
      <trkpt lat="47.49281" lon="6.75376">
        <ele>339</ele>
        <time>2015-03-22T08:38:46.000Z</time>
      </trkpt>
      <trkpt lat="47.49282" lon="6.75369">
        <ele>339</ele>
        <time>2015-03-22T08:38:47.000Z</time>
      </trkpt>
      <trkpt lat="47.49283" lon="6.75363">
        <ele>339</ele>
        <time>2015-03-22T08:38:48.000Z</time>
      </trkpt>
      <trkpt lat="47.49284" lon="6.75357">
        <ele>339</ele>
        <time>2015-03-22T08:38:49.000Z</time>
      </trkpt>
      <trkpt lat="47.49284" lon="6.75352">
        <ele>339</ele>
        <time>2015-03-22T08:38:50.000Z</time>
      </trkpt>
      <trkpt lat="47.49284" lon="6.75347">
        <ele>340</ele>
        <time>2015-03-22T08:38:51.000Z</time>
      </trkpt>
      <trkpt lat="47.49285" lon="6.75342">
        <ele>340</ele>
        <time>2015-03-22T08:38:52.000Z</time>
      </trkpt>
      <trkpt lat="47.49285" lon="6.75337">
        <ele>340</ele>
        <time>2015-03-22T08:38:53.000Z</time>
      </trkpt>
      <trkpt lat="47.49286" lon="6.75332">
        <ele>340</ele>
        <time>2015-03-22T08:38:54.000Z</time>
      </trkpt>
      <trkpt lat="47.49286" lon="6.75327">
        <ele>340</ele>
        <time>2015-03-22T08:38:55.000Z</time>
      </trkpt>
      <trkpt lat="47.49287" lon="6.75322">
        <ele>340</ele>
        <time>2015-03-22T08:38:56.000Z</time>
      </trkpt>
      <trkpt lat="47.49288" lon="6.75316">
        <ele>340</ele>
        <time>2015-03-22T08:38:57.000Z</time>
      </trkpt>
      <trkpt lat="47.49289" lon="6.7531">
        <ele>340</ele>
        <time>2015-03-22T08:38:58.000Z</time>
      </trkpt>
      <trkpt lat="47.4929" lon="6.75304">
        <ele>340</ele>
        <time>2015-03-22T08:38:59.000Z</time>
      </trkpt>
      <trkpt lat="47.49291" lon="6.75299">
        <ele>340</ele>
        <time>2015-03-22T08:39:00.000Z</time>
      </trkpt>
      <trkpt lat="47.49292" lon="6.75293">
        <ele>340</ele>
        <time>2015-03-22T08:39:01.000Z</time>
      </trkpt>
      <trkpt lat="47.49293" lon="6.75287">
        <ele>340</ele>
        <time>2015-03-22T08:39:02.000Z</time>
      </trkpt>
      <trkpt lat="47.49294" lon="6.75281">
        <ele>340</ele>
        <time>2015-03-22T08:39:03.000Z</time>
      </trkpt>
      <trkpt lat="47.49294" lon="6.75275">
        <ele>340</ele>
        <time>2015-03-22T08:39:04.000Z</time>
      </trkpt>
      <trkpt lat="47.49295" lon="6.7527">
        <ele>340</ele>
        <time>2015-03-22T08:39:05.000Z</time>
      </trkpt>
      <trkpt lat="47.49295" lon="6.75265">
        <ele>339</ele>
        <time>2015-03-22T08:39:06.000Z</time>
      </trkpt>
      <trkpt lat="47.49296" lon="6.7526">
        <ele>339</ele>
        <time>2015-03-22T08:39:07.000Z</time>
      </trkpt>
      <trkpt lat="47.49296" lon="6.75255">
        <ele>339</ele>
        <time>2015-03-22T08:39:08.000Z</time>
      </trkpt>
      <trkpt lat="47.49296" lon="6.7525">
        <ele>339</ele>
        <time>2015-03-22T08:39:09.000Z</time>
      </trkpt>
      <trkpt lat="47.49296" lon="6.75245">
        <ele>341</ele>
        <time>2015-03-22T08:39:10.000Z</time>
      </trkpt>
      <trkpt lat="47.49297" lon="6.75241">
        <ele>341</ele>
        <time>2015-03-22T08:39:11.000Z</time>
      </trkpt>
      <trkpt lat="47.49298" lon="6.75237">
        <ele>341</ele>
        <time>2015-03-22T08:39:12.000Z</time>
      </trkpt>
      <trkpt lat="47.49299" lon="6.75235">
        <ele>341</ele>
        <time>2015-03-22T08:39:13.000Z</time>
      </trkpt>
      <trkpt lat="47.493" lon="6.75228">
        <ele>341</ele>
        <time>2015-03-22T08:39:15.000Z</time>
      </trkpt>
      <trkpt lat="47.493" lon="6.75225">
        <ele>342</ele>
        <time>2015-03-22T08:39:16.000Z</time>
      </trkpt>
      <trkpt lat="47.493" lon="6.75221">
        <ele>342</ele>
        <time>2015-03-22T08:39:17.000Z</time>
      </trkpt>
      <trkpt lat="47.49299" lon="6.75218">
        <ele>342</ele>
        <time>2015-03-22T08:39:18.000Z</time>
      </trkpt>
      <trkpt lat="47.493" lon="6.75213">
        <ele>342</ele>
        <time>2015-03-22T08:39:20.000Z</time>
      </trkpt>
      <trkpt lat="47.49301" lon="6.75211">
        <ele>342</ele>
        <time>2015-03-22T08:39:21.000Z</time>
      </trkpt>
      <trkpt lat="47.49303" lon="6.75208">
        <ele>342</ele>
        <time>2015-03-22T08:39:24.000Z</time>
      </trkpt>
      <trkpt lat="47.49303" lon="6.75205">
        <ele>342</ele>
        <time>2015-03-22T08:39:25.000Z</time>
      </trkpt>
      <trkpt lat="47.49304" lon="6.75201">
        <ele>342</ele>
        <time>2015-03-22T08:39:26.000Z</time>
      </trkpt>
      <trkpt lat="47.49305" lon="6.75197">
        <ele>342</ele>
        <time>2015-03-22T08:39:27.000Z</time>
      </trkpt>
      <trkpt lat="47.49306" lon="6.75193">
        <ele>342</ele>
        <time>2015-03-22T08:39:28.000Z</time>
      </trkpt>
      <trkpt lat="47.49308" lon="6.75188">
        <ele>342</ele>
        <time>2015-03-22T08:39:29.000Z</time>
      </trkpt>
      <trkpt lat="47.4931" lon="6.75183">
        <ele>341</ele>
        <time>2015-03-22T08:39:30.000Z</time>
      </trkpt>
      <trkpt lat="47.49313" lon="6.75178">
        <ele>341</ele>
        <time>2015-03-22T08:39:31.000Z</time>
      </trkpt>
      <trkpt lat="47.49316" lon="6.75174">
        <ele>340</ele>
        <time>2015-03-22T08:39:32.000Z</time>
      </trkpt>
      <trkpt lat="47.49318" lon="6.75169">
        <ele>340</ele>
        <time>2015-03-22T08:39:33.000Z</time>
      </trkpt>
      <trkpt lat="47.49321" lon="6.75164">
        <ele>341</ele>
        <time>2015-03-22T08:39:34.000Z</time>
      </trkpt>
      <trkpt lat="47.49323" lon="6.75159">
        <ele>341</ele>
        <time>2015-03-22T08:39:35.000Z</time>
      </trkpt>
      <trkpt lat="47.49326" lon="6.75154">
        <ele>341</ele>
        <time>2015-03-22T08:39:36.000Z</time>
      </trkpt>
      <trkpt lat="47.49328" lon="6.75149">
        <ele>342</ele>
        <time>2015-03-22T08:39:37.000Z</time>
      </trkpt>
      <trkpt lat="47.49329" lon="6.75145">
        <ele>342</ele>
        <time>2015-03-22T08:39:38.000Z</time>
      </trkpt>
      <trkpt lat="47.49331" lon="6.7514">
        <ele>343</ele>
        <time>2015-03-22T08:39:39.000Z</time>
      </trkpt>
      <trkpt lat="47.49332" lon="6.75136">
        <ele>343</ele>
        <time>2015-03-22T08:39:40.000Z</time>
      </trkpt>
      <trkpt lat="47.49332" lon="6.75131">
        <ele>343</ele>
        <time>2015-03-22T08:39:41.000Z</time>
      </trkpt>
      <trkpt lat="47.49333" lon="6.75127">
        <ele>343</ele>
        <time>2015-03-22T08:39:42.000Z</time>
      </trkpt>
      <trkpt lat="47.49333" lon="6.75123">
        <ele>343</ele>
        <time>2015-03-22T08:39:43.000Z</time>
      </trkpt>
      <trkpt lat="47.49333" lon="6.75117">
        <ele>343</ele>
        <time>2015-03-22T08:39:45.000Z</time>
      </trkpt>
      <trkpt lat="47.49334" lon="6.75114">
        <ele>337</ele>
        <time>2015-03-22T08:39:46.000Z</time>
      </trkpt>
      <trkpt lat="47.49336" lon="6.75111">
        <ele>337</ele>
        <time>2015-03-22T08:39:47.000Z</time>
      </trkpt>
      <trkpt lat="47.49337" lon="6.75107">
        <ele>337</ele>
        <time>2015-03-22T08:39:48.000Z</time>
      </trkpt>
      <trkpt lat="47.49337" lon="6.75103">
        <ele>337</ele>
        <time>2015-03-22T08:39:49.000Z</time>
      </trkpt>
      <trkpt lat="47.49337" lon="6.751">
        <ele>337</ele>
        <time>2015-03-22T08:39:50.000Z</time>
      </trkpt>
      <trkpt lat="47.49338" lon="6.75096">
        <ele>337</ele>
        <time>2015-03-22T08:39:51.000Z</time>
      </trkpt>
      <trkpt lat="47.49338" lon="6.75092">
        <ele>338</ele>
        <time>2015-03-22T08:39:52.000Z</time>
      </trkpt>
      <trkpt lat="47.49338" lon="6.75088">
        <ele>338</ele>
        <time>2015-03-22T08:39:53.000Z</time>
      </trkpt>
      <trkpt lat="47.49338" lon="6.75084">
        <ele>338</ele>
        <time>2015-03-22T08:39:54.000Z</time>
      </trkpt>
      <trkpt lat="47.49338" lon="6.7508">
        <ele>338</ele>
        <time>2015-03-22T08:39:55.000Z</time>
      </trkpt>
      <trkpt lat="47.49338" lon="6.75075">
        <ele>338</ele>
        <time>2015-03-22T08:39:56.000Z</time>
      </trkpt>
      <trkpt lat="47.49338" lon="6.75071">
        <ele>338</ele>
        <time>2015-03-22T08:39:57.000Z</time>
      </trkpt>
      <trkpt lat="47.49338" lon="6.75068">
        <ele>338</ele>
        <time>2015-03-22T08:39:58.000Z</time>
      </trkpt>
      <trkpt lat="47.49339" lon="6.75064">
        <ele>338</ele>
        <time>2015-03-22T08:39:59.000Z</time>
      </trkpt>
      <trkpt lat="47.49339" lon="6.7506">
        <ele>338</ele>
        <time>2015-03-22T08:40:00.000Z</time>
      </trkpt>
      <trkpt lat="47.49339" lon="6.75056">
        <ele>338</ele>
        <time>2015-03-22T08:40:01.000Z</time>
      </trkpt>
      <trkpt lat="47.49339" lon="6.75053">
        <ele>339</ele>
        <time>2015-03-22T08:40:02.000Z</time>
      </trkpt>
      <trkpt lat="47.49339" lon="6.75049">
        <ele>339</ele>
        <time>2015-03-22T08:40:03.000Z</time>
      </trkpt>
      <trkpt lat="47.49339" lon="6.75046">
        <ele>339</ele>
        <time>2015-03-22T08:40:04.000Z</time>
      </trkpt>
      <trkpt lat="47.4934" lon="6.75042">
        <ele>339</ele>
        <time>2015-03-22T08:40:05.000Z</time>
      </trkpt>
      <trkpt lat="47.4934" lon="6.75038">
        <ele>339</ele>
        <time>2015-03-22T08:40:06.000Z</time>
      </trkpt>
      <trkpt lat="47.49339" lon="6.75035">
        <ele>339</ele>
        <time>2015-03-22T08:40:07.000Z</time>
      </trkpt>
      <trkpt lat="47.49338" lon="6.75031">
        <ele>339</ele>
        <time>2015-03-22T08:40:08.000Z</time>
      </trkpt>
      <trkpt lat="47.49337" lon="6.75027">
        <ele>340</ele>
        <time>2015-03-22T08:40:09.000Z</time>
      </trkpt>
      <trkpt lat="47.49337" lon="6.75023">
        <ele>340</ele>
        <time>2015-03-22T08:40:10.000Z</time>
      </trkpt>
      <trkpt lat="47.49337" lon="6.7502">
        <ele>340</ele>
        <time>2015-03-22T08:40:11.000Z</time>
      </trkpt>
      <trkpt lat="47.49337" lon="6.75015">
        <ele>341</ele>
        <time>2015-03-22T08:40:12.000Z</time>
      </trkpt>
      <trkpt lat="47.49337" lon="6.75011">
        <ele>341</ele>
        <time>2015-03-22T08:40:13.000Z</time>
      </trkpt>
      <trkpt lat="47.49337" lon="6.75007">
        <ele>342</ele>
        <time>2015-03-22T08:40:14.000Z</time>
      </trkpt>
      <trkpt lat="47.49336" lon="6.75003">
        <ele>342</ele>
        <time>2015-03-22T08:40:15.000Z</time>
      </trkpt>
      <trkpt lat="47.49336" lon="6.74998">
        <ele>343</ele>
        <time>2015-03-22T08:40:16.000Z</time>
      </trkpt>
      <trkpt lat="47.49336" lon="6.74994">
        <ele>342</ele>
        <time>2015-03-22T08:40:17.000Z</time>
      </trkpt>
      <trkpt lat="47.49335" lon="6.7499">
        <ele>342</ele>
        <time>2015-03-22T08:40:18.000Z</time>
      </trkpt>
      <trkpt lat="47.49334" lon="6.74986">
        <ele>342</ele>
        <time>2015-03-22T08:40:19.000Z</time>
      </trkpt>
      <trkpt lat="47.49334" lon="6.74982">
        <ele>342</ele>
        <time>2015-03-22T08:40:20.000Z</time>
      </trkpt>
      <trkpt lat="47.49333" lon="6.74979">
        <ele>350</ele>
        <time>2015-03-22T08:40:21.000Z</time>
      </trkpt>
      <trkpt lat="47.49333" lon="6.74975">
        <ele>350</ele>
        <time>2015-03-22T08:40:22.000Z</time>
      </trkpt>
      <trkpt lat="47.49333" lon="6.74969">
        <ele>351</ele>
        <time>2015-03-22T08:40:24.000Z</time>
      </trkpt>
      <trkpt lat="47.49333" lon="6.74966">
        <ele>351</ele>
        <time>2015-03-22T08:40:25.000Z</time>
      </trkpt>
      <trkpt lat="47.49333" lon="6.7496">
        <ele>352</ele>
        <time>2015-03-22T08:40:27.000Z</time>
      </trkpt>
      <trkpt lat="47.49333" lon="6.74958">
        <ele>352</ele>
        <time>2015-03-22T08:40:28.000Z</time>
      </trkpt>
      <trkpt lat="47.49332" lon="6.74951">
        <ele>352</ele>
        <time>2015-03-22T08:40:30.000Z</time>
      </trkpt>
      <trkpt lat="47.49332" lon="6.74948">
        <ele>352</ele>
        <time>2015-03-22T08:40:31.000Z</time>
      </trkpt>
      <trkpt lat="47.49332" lon="6.74944">
        <ele>352</ele>
        <time>2015-03-22T08:40:32.000Z</time>
      </trkpt>
      <trkpt lat="47.49333" lon="6.74941">
        <ele>352</ele>
        <time>2015-03-22T08:40:33.000Z</time>
      </trkpt>
      <trkpt lat="47.49333" lon="6.74938">
        <ele>352</ele>
        <time>2015-03-22T08:40:34.000Z</time>
      </trkpt>
      <trkpt lat="47.49334" lon="6.74934">
        <ele>344</ele>
        <time>2015-03-22T08:40:35.000Z</time>
      </trkpt>
      <trkpt lat="47.49334" lon="6.74931">
        <ele>345</ele>
        <time>2015-03-22T08:40:36.000Z</time>
      </trkpt>
      <trkpt lat="47.49334" lon="6.74927">
        <ele>345</ele>
        <time>2015-03-22T08:40:37.000Z</time>
      </trkpt>
      <trkpt lat="47.49335" lon="6.74923">
        <ele>346</ele>
        <time>2015-03-22T08:40:38.000Z</time>
      </trkpt>
      <trkpt lat="47.49336" lon="6.74919">
        <ele>347</ele>
        <time>2015-03-22T08:40:39.000Z</time>
      </trkpt>
      <trkpt lat="47.49336" lon="6.74915">
        <ele>347</ele>
        <time>2015-03-22T08:40:40.000Z</time>
      </trkpt>
      <trkpt lat="47.49337" lon="6.74911">
        <ele>346</ele>
        <time>2015-03-22T08:40:41.000Z</time>
      </trkpt>
      <trkpt lat="47.49337" lon="6.74906">
        <ele>346</ele>
        <time>2015-03-22T08:40:42.000Z</time>
      </trkpt>
      <trkpt lat="47.49337" lon="6.74901">
        <ele>345</ele>
        <time>2015-03-22T08:40:43.000Z</time>
      </trkpt>
      <trkpt lat="47.49337" lon="6.74897">
        <ele>344</ele>
        <time>2015-03-22T08:40:44.000Z</time>
      </trkpt>
      <trkpt lat="47.49337" lon="6.74892">
        <ele>344</ele>
        <time>2015-03-22T08:40:45.000Z</time>
      </trkpt>
      <trkpt lat="47.49337" lon="6.74888">
        <ele>344</ele>
        <time>2015-03-22T08:40:46.000Z</time>
      </trkpt>
      <trkpt lat="47.49337" lon="6.74884">
        <ele>344</ele>
        <time>2015-03-22T08:40:47.000Z</time>
      </trkpt>
      <trkpt lat="47.49338" lon="6.74878">
        <ele>344</ele>
        <time>2015-03-22T08:40:49.000Z</time>
      </trkpt>
      <trkpt lat="47.49338" lon="6.74875">
        <ele>344</ele>
        <time>2015-03-22T08:40:50.000Z</time>
      </trkpt>
      <trkpt lat="47.4934" lon="6.74868">
        <ele>344</ele>
        <time>2015-03-22T08:40:52.000Z</time>
      </trkpt>
      <trkpt lat="47.4934" lon="6.74865">
        <ele>344</ele>
        <time>2015-03-22T08:40:53.000Z</time>
      </trkpt>
      <trkpt lat="47.49341" lon="6.74859">
        <ele>344</ele>
        <time>2015-03-22T08:40:55.000Z</time>
      </trkpt>
      <trkpt lat="47.49341" lon="6.74857">
        <ele>344</ele>
        <time>2015-03-22T08:40:56.000Z</time>
      </trkpt>
      <trkpt lat="47.49342" lon="6.7485">
        <ele>345</ele>
        <time>2015-03-22T08:40:58.000Z</time>
      </trkpt>
      <trkpt lat="47.49342" lon="6.74847">
        <ele>345</ele>
        <time>2015-03-22T08:40:59.000Z</time>
      </trkpt>
      <trkpt lat="47.49343" lon="6.74843">
        <ele>346</ele>
        <time>2015-03-22T08:41:00.000Z</time>
      </trkpt>
      <trkpt lat="47.49343" lon="6.7484">
        <ele>346</ele>
        <time>2015-03-22T08:41:01.000Z</time>
      </trkpt>
      <trkpt lat="47.49343" lon="6.74835">
        <ele>346</ele>
        <time>2015-03-22T08:41:03.000Z</time>
      </trkpt>
      <trkpt lat="47.49343" lon="6.74833">
        <ele>347</ele>
        <time>2015-03-22T08:41:04.000Z</time>
      </trkpt>
      <trkpt lat="47.49343" lon="6.74826">
        <ele>347</ele>
        <time>2015-03-22T08:41:07.000Z</time>
      </trkpt>
      <trkpt lat="47.49343" lon="6.74824">
        <ele>347</ele>
        <time>2015-03-22T08:41:08.000Z</time>
      </trkpt>
      <trkpt lat="47.49343" lon="6.74818">
        <ele>347</ele>
        <time>2015-03-22T08:41:10.000Z</time>
      </trkpt>
      <trkpt lat="47.49343" lon="6.74815">
        <ele>347</ele>
        <time>2015-03-22T08:41:11.000Z</time>
      </trkpt>
      <trkpt lat="47.49343" lon="6.74809">
        <ele>346</ele>
        <time>2015-03-22T08:41:13.000Z</time>
      </trkpt>
      <trkpt lat="47.49343" lon="6.74806">
        <ele>346</ele>
        <time>2015-03-22T08:41:14.000Z</time>
      </trkpt>
      <trkpt lat="47.49344" lon="6.74802">
        <ele>346</ele>
        <time>2015-03-22T08:41:15.000Z</time>
      </trkpt>
      <trkpt lat="47.49344" lon="6.74797">
        <ele>346</ele>
        <time>2015-03-22T08:41:16.000Z</time>
      </trkpt>
      <trkpt lat="47.49345" lon="6.74792">
        <ele>347</ele>
        <time>2015-03-22T08:41:17.000Z</time>
      </trkpt>
      <trkpt lat="47.49345" lon="6.74787">
        <ele>347</ele>
        <time>2015-03-22T08:41:18.000Z</time>
      </trkpt>
      <trkpt lat="47.49345" lon="6.74782">
        <ele>347</ele>
        <time>2015-03-22T08:41:19.000Z</time>
      </trkpt>
      <trkpt lat="47.49345" lon="6.74778">
        <ele>347</ele>
        <time>2015-03-22T08:41:20.000Z</time>
      </trkpt>
      <trkpt lat="47.49345" lon="6.74774">
        <ele>348</ele>
        <time>2015-03-22T08:41:21.000Z</time>
      </trkpt>
      <trkpt lat="47.49345" lon="6.74771">
        <ele>348</ele>
        <time>2015-03-22T08:41:22.000Z</time>
      </trkpt>
      <trkpt lat="47.49345" lon="6.74768">
        <ele>349</ele>
        <time>2015-03-22T08:41:23.000Z</time>
      </trkpt>
      <trkpt lat="47.49345" lon="6.74764">
        <ele>349</ele>
        <time>2015-03-22T08:41:24.000Z</time>
      </trkpt>
      <trkpt lat="47.49346" lon="6.7476">
        <ele>349</ele>
        <time>2015-03-22T08:41:25.000Z</time>
      </trkpt>
      <trkpt lat="47.49346" lon="6.74756">
        <ele>350</ele>
        <time>2015-03-22T08:41:26.000Z</time>
      </trkpt>
      <trkpt lat="47.49346" lon="6.74752">
        <ele>350</ele>
        <time>2015-03-22T08:41:27.000Z</time>
      </trkpt>
      <trkpt lat="47.49347" lon="6.74748">
        <ele>352</ele>
        <time>2015-03-22T08:41:28.000Z</time>
      </trkpt>
      <trkpt lat="47.49347" lon="6.74743">
        <ele>351</ele>
        <time>2015-03-22T08:41:29.000Z</time>
      </trkpt>
      <trkpt lat="47.49348" lon="6.74739">
        <ele>351</ele>
        <time>2015-03-22T08:41:30.000Z</time>
      </trkpt>
      <trkpt lat="47.49348" lon="6.74735">
        <ele>351</ele>
        <time>2015-03-22T08:41:31.000Z</time>
      </trkpt>
      <trkpt lat="47.49348" lon="6.74731">
        <ele>351</ele>
        <time>2015-03-22T08:41:32.000Z</time>
      </trkpt>
      <trkpt lat="47.49348" lon="6.74727">
        <ele>351</ele>
        <time>2015-03-22T08:41:33.000Z</time>
      </trkpt>
      <trkpt lat="47.49348" lon="6.74723">
        <ele>351</ele>
        <time>2015-03-22T08:41:34.000Z</time>
      </trkpt>
      <trkpt lat="47.49348" lon="6.74719">
        <ele>351</ele>
        <time>2015-03-22T08:41:35.000Z</time>
      </trkpt>
      <trkpt lat="47.49348" lon="6.74715">
        <ele>351</ele>
        <time>2015-03-22T08:41:36.000Z</time>
      </trkpt>
      <trkpt lat="47.49348" lon="6.7471">
        <ele>351</ele>
        <time>2015-03-22T08:41:37.000Z</time>
      </trkpt>
      <trkpt lat="47.49348" lon="6.74705">
        <ele>351</ele>
        <time>2015-03-22T08:41:38.000Z</time>
      </trkpt>
      <trkpt lat="47.49349" lon="6.747">
        <ele>351</ele>
        <time>2015-03-22T08:41:39.000Z</time>
      </trkpt>
      <trkpt lat="47.49349" lon="6.74695">
        <ele>352</ele>
        <time>2015-03-22T08:41:40.000Z</time>
      </trkpt>
      <trkpt lat="47.49349" lon="6.7469">
        <ele>352</ele>
        <time>2015-03-22T08:41:41.000Z</time>
      </trkpt>
      <trkpt lat="47.49348" lon="6.74686">
        <ele>353</ele>
        <time>2015-03-22T08:41:42.000Z</time>
      </trkpt>
      <trkpt lat="47.49348" lon="6.74682">
        <ele>353</ele>
        <time>2015-03-22T08:41:43.000Z</time>
      </trkpt>
      <trkpt lat="47.49348" lon="6.74678">
        <ele>354</ele>
        <time>2015-03-22T08:41:44.000Z</time>
      </trkpt>
      <trkpt lat="47.49348" lon="6.74674">
        <ele>354</ele>
        <time>2015-03-22T08:41:45.000Z</time>
      </trkpt>
      <trkpt lat="47.49348" lon="6.7467">
        <ele>355</ele>
        <time>2015-03-22T08:41:46.000Z</time>
      </trkpt>
      <trkpt lat="47.49349" lon="6.74665">
        <ele>355</ele>
        <time>2015-03-22T08:41:47.000Z</time>
      </trkpt>
      <trkpt lat="47.4935" lon="6.74659">
        <ele>355</ele>
        <time>2015-03-22T08:41:48.000Z</time>
      </trkpt>
      <trkpt lat="47.49351" lon="6.74653">
        <ele>354</ele>
        <time>2015-03-22T08:41:49.000Z</time>
      </trkpt>
      <trkpt lat="47.49352" lon="6.74648">
        <ele>354</ele>
        <time>2015-03-22T08:41:50.000Z</time>
      </trkpt>
      <trkpt lat="47.49354" lon="6.74644">
        <ele>353</ele>
        <time>2015-03-22T08:41:51.000Z</time>
      </trkpt>
      <trkpt lat="47.49355" lon="6.74639">
        <ele>353</ele>
        <time>2015-03-22T08:41:52.000Z</time>
      </trkpt>
      <trkpt lat="47.49356" lon="6.74635">
        <ele>353</ele>
        <time>2015-03-22T08:41:53.000Z</time>
      </trkpt>
      <trkpt lat="47.49357" lon="6.7463">
        <ele>353</ele>
        <time>2015-03-22T08:41:54.000Z</time>
      </trkpt>
      <trkpt lat="47.49358" lon="6.74625">
        <ele>352</ele>
        <time>2015-03-22T08:41:55.000Z</time>
      </trkpt>
      <trkpt lat="47.49358" lon="6.74619">
        <ele>352</ele>
        <time>2015-03-22T08:41:56.000Z</time>
      </trkpt>
      <trkpt lat="47.49358" lon="6.74614">
        <ele>353</ele>
        <time>2015-03-22T08:41:57.000Z</time>
      </trkpt>
      <trkpt lat="47.49358" lon="6.74608">
        <ele>353</ele>
        <time>2015-03-22T08:41:58.000Z</time>
      </trkpt>
      <trkpt lat="47.49359" lon="6.74603">
        <ele>353</ele>
        <time>2015-03-22T08:41:59.000Z</time>
      </trkpt>
      <trkpt lat="47.49359" lon="6.74599">
        <ele>353</ele>
        <time>2015-03-22T08:42:00.000Z</time>
      </trkpt>
      <trkpt lat="47.49358" lon="6.74594">
        <ele>353</ele>
        <time>2015-03-22T08:42:01.000Z</time>
      </trkpt>
      <trkpt lat="47.49357" lon="6.74589">
        <ele>354</ele>
        <time>2015-03-22T08:42:02.000Z</time>
      </trkpt>
      <trkpt lat="47.49356" lon="6.74583">
        <ele>354</ele>
        <time>2015-03-22T08:42:03.000Z</time>
      </trkpt>
      <trkpt lat="47.49356" lon="6.74578">
        <ele>355</ele>
        <time>2015-03-22T08:42:04.000Z</time>
      </trkpt>
      <trkpt lat="47.49355" lon="6.74571">
        <ele>355</ele>
        <time>2015-03-22T08:42:05.000Z</time>
      </trkpt>
      <trkpt lat="47.49355" lon="6.74565">
        <ele>355</ele>
        <time>2015-03-22T08:42:06.000Z</time>
      </trkpt>
      <trkpt lat="47.49355" lon="6.74559">
        <ele>355</ele>
        <time>2015-03-22T08:42:07.000Z</time>
      </trkpt>
      <trkpt lat="47.49355" lon="6.74553">
        <ele>355</ele>
        <time>2015-03-22T08:42:08.000Z</time>
      </trkpt>
      <trkpt lat="47.49355" lon="6.74547">
        <ele>355</ele>
        <time>2015-03-22T08:42:09.000Z</time>
      </trkpt>
      <trkpt lat="47.49355" lon="6.74542">
        <ele>355</ele>
        <time>2015-03-22T08:42:10.000Z</time>
      </trkpt>
      <trkpt lat="47.49355" lon="6.74538">
        <ele>355</ele>
        <time>2015-03-22T08:42:11.000Z</time>
      </trkpt>
      <trkpt lat="47.49355" lon="6.74533">
        <ele>355</ele>
        <time>2015-03-22T08:42:12.000Z</time>
      </trkpt>
      <trkpt lat="47.49357" lon="6.74529">
        <ele>355</ele>
        <time>2015-03-22T08:42:13.000Z</time>
      </trkpt>
      <trkpt lat="47.49359" lon="6.74525">
        <ele>355</ele>
        <time>2015-03-22T08:42:14.000Z</time>
      </trkpt>
      <trkpt lat="47.49362" lon="6.7452">
        <ele>355</ele>
        <time>2015-03-22T08:42:15.000Z</time>
      </trkpt>
      <trkpt lat="47.49364" lon="6.74514">
        <ele>355</ele>
        <time>2015-03-22T08:42:16.000Z</time>
      </trkpt>
      <trkpt lat="47.49366" lon="6.74506">
        <ele>355</ele>
        <time>2015-03-22T08:42:17.000Z</time>
      </trkpt>
      <trkpt lat="47.49366" lon="6.74499">
        <ele>356</ele>
        <time>2015-03-22T08:42:18.000Z</time>
      </trkpt>
      <trkpt lat="47.49367" lon="6.74492">
        <ele>356</ele>
        <time>2015-03-22T08:42:19.000Z</time>
      </trkpt>
      <trkpt lat="47.49368" lon="6.74485">
        <ele>356</ele>
        <time>2015-03-22T08:42:20.000Z</time>
      </trkpt>
      <trkpt lat="47.49368" lon="6.74464">
        <ele>355</ele>
        <time>2015-03-22T08:42:21.000Z</time>
      </trkpt>
      <trkpt lat="47.49369" lon="6.74456">
        <ele>355</ele>
        <time>2015-03-22T08:42:22.000Z</time>
      </trkpt>
      <trkpt lat="47.49368" lon="6.74452">
        <ele>355</ele>
        <time>2015-03-22T08:42:23.000Z</time>
      </trkpt>
      <trkpt lat="47.49368" lon="6.74449">
        <ele>356</ele>
        <time>2015-03-22T08:42:24.000Z</time>
      </trkpt>
      <trkpt lat="47.49369" lon="6.74445">
        <ele>356</ele>
        <time>2015-03-22T08:42:25.000Z</time>
      </trkpt>
      <trkpt lat="47.49369" lon="6.74439">
        <ele>356</ele>
        <time>2015-03-22T08:42:26.000Z</time>
      </trkpt>
      <trkpt lat="47.4937" lon="6.74433">
        <ele>356</ele>
        <time>2015-03-22T08:42:27.000Z</time>
      </trkpt>
      <trkpt lat="47.4937" lon="6.74427">
        <ele>356</ele>
        <time>2015-03-22T08:42:28.000Z</time>
      </trkpt>
      <trkpt lat="47.49372" lon="6.74421">
        <ele>355</ele>
        <time>2015-03-22T08:42:29.000Z</time>
      </trkpt>
      <trkpt lat="47.49373" lon="6.74416">
        <ele>356</ele>
        <time>2015-03-22T08:42:30.000Z</time>
      </trkpt>
      <trkpt lat="47.49374" lon="6.74411">
        <ele>356</ele>
        <time>2015-03-22T08:42:31.000Z</time>
      </trkpt>
      <trkpt lat="47.49374" lon="6.74407">
        <ele>355</ele>
        <time>2015-03-22T08:42:32.000Z</time>
      </trkpt>
      <trkpt lat="47.49375" lon="6.74401">
        <ele>355</ele>
        <time>2015-03-22T08:42:33.000Z</time>
      </trkpt>
      <trkpt lat="47.49375" lon="6.74396">
        <ele>355</ele>
        <time>2015-03-22T08:42:34.000Z</time>
      </trkpt>
      <trkpt lat="47.49376" lon="6.74391">
        <ele>355</ele>
        <time>2015-03-22T08:42:35.000Z</time>
      </trkpt>
      <trkpt lat="47.49377" lon="6.74386">
        <ele>355</ele>
        <time>2015-03-22T08:42:36.000Z</time>
      </trkpt>
      <trkpt lat="47.49378" lon="6.74382">
        <ele>355</ele>
        <time>2015-03-22T08:42:37.000Z</time>
      </trkpt>
      <trkpt lat="47.49378" lon="6.74378">
        <ele>355</ele>
        <time>2015-03-22T08:42:38.000Z</time>
      </trkpt>
      <trkpt lat="47.49379" lon="6.74373">
        <ele>355</ele>
        <time>2015-03-22T08:42:40.000Z</time>
      </trkpt>
      <trkpt lat="47.4938" lon="6.74371">
        <ele>355</ele>
        <time>2015-03-22T08:42:41.000Z</time>
      </trkpt>
      <trkpt lat="47.49381" lon="6.74366">
        <ele>355</ele>
        <time>2015-03-22T08:42:43.000Z</time>
      </trkpt>
      <trkpt lat="47.49381" lon="6.74363">
        <ele>355</ele>
        <time>2015-03-22T08:42:44.000Z</time>
      </trkpt>
      <trkpt lat="47.49382" lon="6.74358">
        <ele>355</ele>
        <time>2015-03-22T08:42:45.000Z</time>
      </trkpt>
      <trkpt lat="47.49383" lon="6.74355">
        <ele>354</ele>
        <time>2015-03-22T08:42:46.000Z</time>
      </trkpt>
      <trkpt lat="47.49383" lon="6.7435">
        <ele>354</ele>
        <time>2015-03-22T08:42:48.000Z</time>
      </trkpt>
      <trkpt lat="47.49383" lon="6.74348">
        <ele>354</ele>
        <time>2015-03-22T08:42:49.000Z</time>
      </trkpt>
      <trkpt lat="47.49383" lon="6.74343">
        <ele>354</ele>
        <time>2015-03-22T08:42:51.000Z</time>
      </trkpt>
      <trkpt lat="47.49384" lon="6.74341">
        <ele>354</ele>
        <time>2015-03-22T08:42:52.000Z</time>
      </trkpt>
      <trkpt lat="47.49383" lon="6.74335">
        <ele>354</ele>
        <time>2015-03-22T08:42:55.000Z</time>
      </trkpt>
      <trkpt lat="47.49382" lon="6.74333">
        <ele>355</ele>
        <time>2015-03-22T08:42:56.000Z</time>
      </trkpt>
      <trkpt lat="47.49383" lon="6.74326">
        <ele>355</ele>
        <time>2015-03-22T08:42:59.000Z</time>
      </trkpt>
      <trkpt lat="47.49383" lon="6.74324">
        <ele>355</ele>
        <time>2015-03-22T08:43:00.000Z</time>
      </trkpt>
      <trkpt lat="47.49383" lon="6.74317">
        <ele>355</ele>
        <time>2015-03-22T08:43:03.000Z</time>
      </trkpt>
      <trkpt lat="47.49383" lon="6.74316">
        <ele>355</ele>
        <time>2015-03-22T08:43:04.000Z</time>
      </trkpt>
      <trkpt lat="47.49383" lon="6.74311">
        <ele>355</ele>
        <time>2015-03-22T08:43:16.000Z</time>
      </trkpt>
      <trkpt lat="47.49383" lon="6.74308">
        <ele>355</ele>
        <time>2015-03-22T08:43:17.000Z</time>
      </trkpt>
      <trkpt lat="47.49383" lon="6.74305">
        <ele>355</ele>
        <time>2015-03-22T08:43:18.000Z</time>
      </trkpt>
      <trkpt lat="47.49384" lon="6.74301">
        <ele>355</ele>
        <time>2015-03-22T08:43:19.000Z</time>
      </trkpt>
      <trkpt lat="47.49385" lon="6.74295">
        <ele>355</ele>
        <time>2015-03-22T08:43:20.000Z</time>
      </trkpt>
      <trkpt lat="47.49387" lon="6.7429">
        <ele>355</ele>
        <time>2015-03-22T08:43:21.000Z</time>
      </trkpt>
      <trkpt lat="47.49384" lon="6.74265">
        <ele>355</ele>
        <time>2015-03-22T08:43:22.000Z</time>
      </trkpt>
      <trkpt lat="47.49385" lon="6.74255">
        <ele>354</ele>
        <time>2015-03-22T08:43:23.000Z</time>
      </trkpt>
      <trkpt lat="47.49387" lon="6.74247">
        <ele>355</ele>
        <time>2015-03-22T08:43:24.000Z</time>
      </trkpt>
      <trkpt lat="47.4939" lon="6.74241">
        <ele>354</ele>
        <time>2015-03-22T08:43:25.000Z</time>
      </trkpt>
      <trkpt lat="47.49392" lon="6.74233">
        <ele>354</ele>
        <time>2015-03-22T08:43:26.000Z</time>
      </trkpt>
      <trkpt lat="47.49393" lon="6.74223">
        <ele>355</ele>
        <time>2015-03-22T08:43:27.000Z</time>
      </trkpt>
      <trkpt lat="47.49394" lon="6.7421">
        <ele>355</ele>
        <time>2015-03-22T08:43:28.000Z</time>
      </trkpt>
      <trkpt lat="47.49397" lon="6.74197">
        <ele>354</ele>
        <time>2015-03-22T08:43:29.000Z</time>
      </trkpt>
      <trkpt lat="47.49398" lon="6.74187">
        <ele>353</ele>
        <time>2015-03-22T08:43:30.000Z</time>
      </trkpt>
      <trkpt lat="47.49402" lon="6.74176">
        <ele>352</ele>
        <time>2015-03-22T08:43:31.000Z</time>
      </trkpt>
      <trkpt lat="47.49407" lon="6.74175">
        <ele>350</ele>
        <time>2015-03-22T08:43:32.000Z</time>
      </trkpt>
      <trkpt lat="47.4941" lon="6.74168">
        <ele>348</ele>
        <time>2015-03-22T08:43:33.000Z</time>
      </trkpt>
      <trkpt lat="47.49414" lon="6.74153">
        <ele>350</ele>
        <time>2015-03-22T08:43:34.000Z</time>
      </trkpt>
      <trkpt lat="47.49415" lon="6.74143">
        <ele>352</ele>
        <time>2015-03-22T08:43:35.000Z</time>
      </trkpt>
      <trkpt lat="47.4942" lon="6.74134">
        <ele>350</ele>
        <time>2015-03-22T08:43:36.000Z</time>
      </trkpt>
      <trkpt lat="47.49423" lon="6.74122">
        <ele>350</ele>
        <time>2015-03-22T08:43:37.000Z</time>
      </trkpt>
      <trkpt lat="47.49428" lon="6.74111">
        <ele>350</ele>
        <time>2015-03-22T08:43:38.000Z</time>
      </trkpt>
      <trkpt lat="47.49429" lon="6.74098">
        <ele>350</ele>
        <time>2015-03-22T08:43:39.000Z</time>
      </trkpt>
      <trkpt lat="47.49432" lon="6.74085">
        <ele>349</ele>
        <time>2015-03-22T08:43:40.000Z</time>
      </trkpt>
      <trkpt lat="47.49433" lon="6.74074">
        <ele>349</ele>
        <time>2015-03-22T08:43:41.000Z</time>
      </trkpt>
      <trkpt lat="47.49433" lon="6.74063">
        <ele>350</ele>
        <time>2015-03-22T08:43:42.000Z</time>
      </trkpt>
      <trkpt lat="47.49433" lon="6.74054">
        <ele>350</ele>
        <time>2015-03-22T08:43:43.000Z</time>
      </trkpt>
      <trkpt lat="47.49435" lon="6.74049">
        <ele>350</ele>
        <time>2015-03-22T08:43:44.000Z</time>
      </trkpt>
      <trkpt lat="47.49438" lon="6.74043">
        <ele>350</ele>
        <time>2015-03-22T08:43:45.000Z</time>
      </trkpt>
      <trkpt lat="47.49436" lon="6.74036">
        <ele>350</ele>
        <time>2015-03-22T08:43:46.000Z</time>
      </trkpt>
      <trkpt lat="47.49436" lon="6.74031">
        <ele>350</ele>
        <time>2015-03-22T08:43:47.000Z</time>
      </trkpt>
      <trkpt lat="47.49436" lon="6.74022">
        <ele>350</ele>
        <time>2015-03-22T08:43:48.000Z</time>
      </trkpt>
      <trkpt lat="47.49437" lon="6.74015">
        <ele>350</ele>
        <time>2015-03-22T08:43:49.000Z</time>
      </trkpt>
      <trkpt lat="47.49437" lon="6.74008">
        <ele>350</ele>
        <time>2015-03-22T08:43:50.000Z</time>
      </trkpt>
      <trkpt lat="47.49436" lon="6.74001">
        <ele>350</ele>
        <time>2015-03-22T08:43:51.000Z</time>
      </trkpt>
      <trkpt lat="47.49434" lon="6.73991">
        <ele>348</ele>
        <time>2015-03-22T08:43:52.000Z</time>
      </trkpt>
      <trkpt lat="47.49434" lon="6.73985">
        <ele>348</ele>
        <time>2015-03-22T08:43:53.000Z</time>
      </trkpt>
      <trkpt lat="47.49433" lon="6.7398">
        <ele>348</ele>
        <time>2015-03-22T08:43:54.000Z</time>
      </trkpt>
      <trkpt lat="47.49433" lon="6.73975">
        <ele>348</ele>
        <time>2015-03-22T08:43:55.000Z</time>
      </trkpt>
      <trkpt lat="47.49432" lon="6.7397">
        <ele>348</ele>
        <time>2015-03-22T08:43:56.000Z</time>
      </trkpt>
      <trkpt lat="47.49432" lon="6.73966">
        <ele>347</ele>
        <time>2015-03-22T08:43:57.000Z</time>
      </trkpt>
      <trkpt lat="47.49432" lon="6.73961">
        <ele>347</ele>
        <time>2015-03-22T08:43:58.000Z</time>
      </trkpt>
      <trkpt lat="47.49431" lon="6.73957">
        <ele>347</ele>
        <time>2015-03-22T08:43:59.000Z</time>
      </trkpt>
      <trkpt lat="47.49432" lon="6.73952">
        <ele>347</ele>
        <time>2015-03-22T08:44:00.000Z</time>
      </trkpt>
      <trkpt lat="47.49432" lon="6.73946">
        <ele>347</ele>
        <time>2015-03-22T08:44:01.000Z</time>
      </trkpt>
      <trkpt lat="47.49433" lon="6.7394">
        <ele>347</ele>
        <time>2015-03-22T08:44:02.000Z</time>
      </trkpt>
      <trkpt lat="47.49434" lon="6.73934">
        <ele>346</ele>
        <time>2015-03-22T08:44:03.000Z</time>
      </trkpt>
      <trkpt lat="47.49435" lon="6.73929">
        <ele>346</ele>
        <time>2015-03-22T08:44:04.000Z</time>
      </trkpt>
      <trkpt lat="47.49435" lon="6.73924">
        <ele>346</ele>
        <time>2015-03-22T08:44:05.000Z</time>
      </trkpt>
      <trkpt lat="47.49436" lon="6.73918">
        <ele>346</ele>
        <time>2015-03-22T08:44:06.000Z</time>
      </trkpt>
      <trkpt lat="47.49436" lon="6.73912">
        <ele>344</ele>
        <time>2015-03-22T08:44:07.000Z</time>
      </trkpt>
      <trkpt lat="47.49437" lon="6.73907">
        <ele>343</ele>
        <time>2015-03-22T08:44:08.000Z</time>
      </trkpt>
      <trkpt lat="47.49437" lon="6.73902">
        <ele>343</ele>
        <time>2015-03-22T08:44:09.000Z</time>
      </trkpt>
      <trkpt lat="47.49438" lon="6.73898">
        <ele>343</ele>
        <time>2015-03-22T08:44:10.000Z</time>
      </trkpt>
      <trkpt lat="47.49438" lon="6.73894">
        <ele>343</ele>
        <time>2015-03-22T08:44:11.000Z</time>
      </trkpt>
      <trkpt lat="47.49437" lon="6.73889">
        <ele>343</ele>
        <time>2015-03-22T08:44:12.000Z</time>
      </trkpt>
      <trkpt lat="47.49437" lon="6.73884">
        <ele>342</ele>
        <time>2015-03-22T08:44:13.000Z</time>
      </trkpt>
      <trkpt lat="47.49437" lon="6.7388">
        <ele>342</ele>
        <time>2015-03-22T08:44:14.000Z</time>
      </trkpt>
      <trkpt lat="47.49438" lon="6.73875">
        <ele>342</ele>
        <time>2015-03-22T08:44:15.000Z</time>
      </trkpt>
      <trkpt lat="47.49439" lon="6.7387">
        <ele>342</ele>
        <time>2015-03-22T08:44:16.000Z</time>
      </trkpt>
      <trkpt lat="47.4944" lon="6.73865">
        <ele>342</ele>
        <time>2015-03-22T08:44:17.000Z</time>
      </trkpt>
      <trkpt lat="47.49441" lon="6.73859">
        <ele>342</ele>
        <time>2015-03-22T08:44:18.000Z</time>
      </trkpt>
      <trkpt lat="47.49442" lon="6.73853">
        <ele>342</ele>
        <time>2015-03-22T08:44:19.000Z</time>
      </trkpt>
      <trkpt lat="47.49442" lon="6.73847">
        <ele>342</ele>
        <time>2015-03-22T08:44:20.000Z</time>
      </trkpt>
      <trkpt lat="47.49442" lon="6.73842">
        <ele>342</ele>
        <time>2015-03-22T08:44:21.000Z</time>
      </trkpt>
      <trkpt lat="47.49442" lon="6.73835">
        <ele>342</ele>
        <time>2015-03-22T08:44:22.000Z</time>
      </trkpt>
      <trkpt lat="47.49442" lon="6.73829">
        <ele>340</ele>
        <time>2015-03-22T08:44:23.000Z</time>
      </trkpt>
      <trkpt lat="47.49442" lon="6.73823">
        <ele>340</ele>
        <time>2015-03-22T08:44:24.000Z</time>
      </trkpt>
      <trkpt lat="47.49442" lon="6.73816">
        <ele>340</ele>
        <time>2015-03-22T08:44:25.000Z</time>
      </trkpt>
      <trkpt lat="47.49441" lon="6.7381">
        <ele>340</ele>
        <time>2015-03-22T08:44:26.000Z</time>
      </trkpt>
      <trkpt lat="47.49441" lon="6.73804">
        <ele>340</ele>
        <time>2015-03-22T08:44:27.000Z</time>
      </trkpt>
      <trkpt lat="47.4944" lon="6.73799">
        <ele>340</ele>
        <time>2015-03-22T08:44:28.000Z</time>
      </trkpt>
      <trkpt lat="47.4944" lon="6.73796">
        <ele>340</ele>
        <time>2015-03-22T08:44:29.000Z</time>
      </trkpt>
      <trkpt lat="47.49439" lon="6.73792">
        <ele>340</ele>
        <time>2015-03-22T08:44:30.000Z</time>
      </trkpt>
      <trkpt lat="47.49439" lon="6.73789">
        <ele>340</ele>
        <time>2015-03-22T08:44:31.000Z</time>
      </trkpt>
      <trkpt lat="47.4944" lon="6.73784">
        <ele>340</ele>
        <time>2015-03-22T08:44:32.000Z</time>
      </trkpt>
      <trkpt lat="47.49441" lon="6.7378">
        <ele>340</ele>
        <time>2015-03-22T08:44:33.000Z</time>
      </trkpt>
      <trkpt lat="47.49442" lon="6.73774">
        <ele>340</ele>
        <time>2015-03-22T08:44:34.000Z</time>
      </trkpt>
      <trkpt lat="47.49444" lon="6.73768">
        <ele>340</ele>
        <time>2015-03-22T08:44:35.000Z</time>
      </trkpt>
      <trkpt lat="47.49445" lon="6.73762">
        <ele>340</ele>
        <time>2015-03-22T08:44:36.000Z</time>
      </trkpt>
      <trkpt lat="47.49445" lon="6.73757">
        <ele>340</ele>
        <time>2015-03-22T08:44:37.000Z</time>
      </trkpt>
      <trkpt lat="47.49446" lon="6.73751">
        <ele>340</ele>
        <time>2015-03-22T08:44:38.000Z</time>
      </trkpt>
      <trkpt lat="47.49446" lon="6.73746">
        <ele>340</ele>
        <time>2015-03-22T08:44:39.000Z</time>
      </trkpt>
      <trkpt lat="47.49446" lon="6.7374">
        <ele>340</ele>
        <time>2015-03-22T08:44:40.000Z</time>
      </trkpt>
      <trkpt lat="47.49446" lon="6.73735">
        <ele>340</ele>
        <time>2015-03-22T08:44:41.000Z</time>
      </trkpt>
      <trkpt lat="47.49446" lon="6.7373">
        <ele>340</ele>
        <time>2015-03-22T08:44:42.000Z</time>
      </trkpt>
      <trkpt lat="47.49446" lon="6.73726">
        <ele>340</ele>
        <time>2015-03-22T08:44:43.000Z</time>
      </trkpt>
      <trkpt lat="47.49446" lon="6.73721">
        <ele>340</ele>
        <time>2015-03-22T08:44:44.000Z</time>
      </trkpt>
      <trkpt lat="47.49445" lon="6.73717">
        <ele>340</ele>
        <time>2015-03-22T08:44:45.000Z</time>
      </trkpt>
      <trkpt lat="47.49444" lon="6.73713">
        <ele>340</ele>
        <time>2015-03-22T08:44:46.000Z</time>
      </trkpt>
      <trkpt lat="47.49443" lon="6.73709">
        <ele>340</ele>
        <time>2015-03-22T08:44:47.000Z</time>
      </trkpt>
      <trkpt lat="47.49442" lon="6.73705">
        <ele>340</ele>
        <time>2015-03-22T08:44:48.000Z</time>
      </trkpt>
      <trkpt lat="47.4944" lon="6.73702">
        <ele>340</ele>
        <time>2015-03-22T08:44:49.000Z</time>
      </trkpt>
      <trkpt lat="47.49439" lon="6.73698">
        <ele>340</ele>
        <time>2015-03-22T08:44:50.000Z</time>
      </trkpt>
      <trkpt lat="47.49438" lon="6.73695">
        <ele>341</ele>
        <time>2015-03-22T08:44:51.000Z</time>
      </trkpt>
      <trkpt lat="47.49436" lon="6.73692">
        <ele>341</ele>
        <time>2015-03-22T08:44:52.000Z</time>
      </trkpt>
      <trkpt lat="47.49435" lon="6.73689">
        <ele>341</ele>
        <time>2015-03-22T08:44:53.000Z</time>
      </trkpt>
      <trkpt lat="47.49433" lon="6.73687">
        <ele>341</ele>
        <time>2015-03-22T08:44:54.000Z</time>
      </trkpt>
      <trkpt lat="47.49431" lon="6.73682">
        <ele>342</ele>
        <time>2015-03-22T08:44:56.000Z</time>
      </trkpt>
      <trkpt lat="47.49429" lon="6.7368">
        <ele>343</ele>
        <time>2015-03-22T08:44:57.000Z</time>
      </trkpt>
      <trkpt lat="47.49427" lon="6.73676">
        <ele>343</ele>
        <time>2015-03-22T08:44:59.000Z</time>
      </trkpt>
      <trkpt lat="47.49426" lon="6.73674">
        <ele>344</ele>
        <time>2015-03-22T08:45:00.000Z</time>
      </trkpt>
      <trkpt lat="47.49422" lon="6.7367">
        <ele>345</ele>
        <time>2015-03-22T08:45:02.000Z</time>
      </trkpt>
      <trkpt lat="47.49421" lon="6.73668">
        <ele>346</ele>
        <time>2015-03-22T08:45:03.000Z</time>
      </trkpt>
      <trkpt lat="47.49418" lon="6.73663">
        <ele>346</ele>
        <time>2015-03-22T08:45:05.000Z</time>
      </trkpt>
      <trkpt lat="47.49416" lon="6.7366">
        <ele>348</ele>
        <time>2015-03-22T08:45:06.000Z</time>
      </trkpt>
      <trkpt lat="47.49414" lon="6.73657">
        <ele>348</ele>
        <time>2015-03-22T08:45:07.000Z</time>
      </trkpt>
      <trkpt lat="47.49412" lon="6.73654">
        <ele>349</ele>
        <time>2015-03-22T08:45:08.000Z</time>
      </trkpt>
      <trkpt lat="47.4941" lon="6.73652">
        <ele>349</ele>
        <time>2015-03-22T08:45:09.000Z</time>
      </trkpt>
      <trkpt lat="47.49408" lon="6.73649">
        <ele>349</ele>
        <time>2015-03-22T08:45:10.000Z</time>
      </trkpt>
      <trkpt lat="47.49407" lon="6.73646">
        <ele>349</ele>
        <time>2015-03-22T08:45:11.000Z</time>
      </trkpt>
      <trkpt lat="47.49405" lon="6.73643">
        <ele>350</ele>
        <time>2015-03-22T08:45:12.000Z</time>
      </trkpt>
      <trkpt lat="47.49404" lon="6.73641">
        <ele>350</ele>
        <time>2015-03-22T08:45:13.112Z</time>
      </trkpt>
      <trkpt lat="47.494" lon="6.73636">
        <ele>350</ele>
        <time>2015-03-22T08:45:15.000Z</time>
      </trkpt>
      <trkpt lat="47.49397" lon="6.73632">
        <ele>350</ele>
        <time>2015-03-22T08:45:17.000Z</time>
      </trkpt>
      <trkpt lat="47.49396" lon="6.73631">
        <ele>350</ele>
        <time>2015-03-22T08:45:18.000Z</time>
      </trkpt>
      <trkpt lat="47.49394" lon="6.73626">
        <ele>350</ele>
        <time>2015-03-22T08:45:20.000Z</time>
      </trkpt>
      <trkpt lat="47.49394" lon="6.73624">
        <ele>350</ele>
        <time>2015-03-22T08:45:21.000Z</time>
      </trkpt>
      <trkpt lat="47.49396" lon="6.73619">
        <ele>350</ele>
        <time>2015-03-22T08:45:25.000Z</time>
      </trkpt>
      <trkpt lat="47.49396" lon="6.73618">
        <ele>350</ele>
        <time>2015-03-22T08:45:26.000Z</time>
      </trkpt>
      <trkpt lat="47.49398" lon="6.73613">
        <ele>350</ele>
        <time>2015-03-22T08:45:31.000Z</time>
      </trkpt>
      <trkpt lat="47.49398" lon="6.73612">
        <ele>350</ele>
        <time>2015-03-22T08:45:32.000Z</time>
      </trkpt>
      <trkpt lat="47.49398" lon="6.73605">
        <ele>349</ele>
        <time>2015-03-22T08:45:35.000Z</time>
      </trkpt>
      <trkpt lat="47.49398" lon="6.73602">
        <ele>349</ele>
        <time>2015-03-22T08:45:36.000Z</time>
      </trkpt>
      <trkpt lat="47.49399" lon="6.73597">
        <ele>349</ele>
        <time>2015-03-22T08:45:37.000Z</time>
      </trkpt>
      <trkpt lat="47.49399" lon="6.73593">
        <ele>349</ele>
        <time>2015-03-22T08:45:38.000Z</time>
      </trkpt>
      <trkpt lat="47.494" lon="6.73589">
        <ele>348</ele>
        <time>2015-03-22T08:45:39.000Z</time>
      </trkpt>
      <trkpt lat="47.494" lon="6.73585">
        <ele>348</ele>
        <time>2015-03-22T08:45:40.000Z</time>
      </trkpt>
      <trkpt lat="47.49402" lon="6.73582">
        <ele>348</ele>
        <time>2015-03-22T08:45:41.000Z</time>
      </trkpt>
      <trkpt lat="47.49403" lon="6.73579">
        <ele>348</ele>
        <time>2015-03-22T08:45:42.000Z</time>
      </trkpt>
      <trkpt lat="47.49404" lon="6.73576">
        <ele>348</ele>
        <time>2015-03-22T08:45:43.000Z</time>
      </trkpt>
      <trkpt lat="47.49405" lon="6.73572">
        <ele>348</ele>
        <time>2015-03-22T08:45:44.000Z</time>
      </trkpt>
      <trkpt lat="47.49407" lon="6.73569">
        <ele>348</ele>
        <time>2015-03-22T08:45:45.000Z</time>
      </trkpt>
      <trkpt lat="47.49408" lon="6.73566">
        <ele>348</ele>
        <time>2015-03-22T08:45:46.000Z</time>
      </trkpt>
      <trkpt lat="47.49409" lon="6.73561">
        <ele>348</ele>
        <time>2015-03-22T08:45:47.000Z</time>
      </trkpt>
      <trkpt lat="47.4941" lon="6.73556">
        <ele>349</ele>
        <time>2015-03-22T08:45:48.000Z</time>
      </trkpt>
      <trkpt lat="47.49411" lon="6.73551">
        <ele>349</ele>
        <time>2015-03-22T08:45:49.000Z</time>
      </trkpt>
      <trkpt lat="47.49412" lon="6.73546">
        <ele>349</ele>
        <time>2015-03-22T08:45:50.000Z</time>
      </trkpt>
      <trkpt lat="47.49413" lon="6.73542">
        <ele>349</ele>
        <time>2015-03-22T08:45:51.000Z</time>
      </trkpt>
      <trkpt lat="47.49413" lon="6.73538">
        <ele>349</ele>
        <time>2015-03-22T08:45:52.000Z</time>
      </trkpt>
      <trkpt lat="47.49414" lon="6.73533">
        <ele>349</ele>
        <time>2015-03-22T08:45:53.000Z</time>
      </trkpt>
      <trkpt lat="47.49415" lon="6.73529">
        <ele>349</ele>
        <time>2015-03-22T08:45:54.000Z</time>
      </trkpt>
      <trkpt lat="47.49417" lon="6.73525">
        <ele>343</ele>
        <time>2015-03-22T08:45:55.000Z</time>
      </trkpt>
      <trkpt lat="47.49418" lon="6.73522">
        <ele>343</ele>
        <time>2015-03-22T08:45:56.000Z</time>
      </trkpt>
      <trkpt lat="47.49419" lon="6.73518">
        <ele>343</ele>
        <time>2015-03-22T08:45:57.000Z</time>
      </trkpt>
      <trkpt lat="47.49419" lon="6.73515">
        <ele>343</ele>
        <time>2015-03-22T08:45:58.000Z</time>
      </trkpt>
      <trkpt lat="47.4942" lon="6.73511">
        <ele>344</ele>
        <time>2015-03-22T08:45:59.000Z</time>
      </trkpt>
      <trkpt lat="47.49421" lon="6.73508">
        <ele>344</ele>
        <time>2015-03-22T08:46:00.000Z</time>
      </trkpt>
      <trkpt lat="47.49422" lon="6.73505">
        <ele>344</ele>
        <time>2015-03-22T08:46:01.000Z</time>
      </trkpt>
      <trkpt lat="47.49423" lon="6.73501">
        <ele>344</ele>
        <time>2015-03-22T08:46:02.000Z</time>
      </trkpt>
      <trkpt lat="47.49423" lon="6.73497">
        <ele>345</ele>
        <time>2015-03-22T08:46:03.000Z</time>
      </trkpt>
      <trkpt lat="47.49424" lon="6.73493">
        <ele>345</ele>
        <time>2015-03-22T08:46:04.000Z</time>
      </trkpt>
      <trkpt lat="47.49425" lon="6.73489">
        <ele>345</ele>
        <time>2015-03-22T08:46:05.000Z</time>
      </trkpt>
      <trkpt lat="47.49425" lon="6.73486">
        <ele>345</ele>
        <time>2015-03-22T08:46:06.000Z</time>
      </trkpt>
      <trkpt lat="47.49426" lon="6.73482">
        <ele>345</ele>
        <time>2015-03-22T08:46:07.000Z</time>
      </trkpt>
      <trkpt lat="47.49426" lon="6.73479">
        <ele>345</ele>
        <time>2015-03-22T08:46:08.000Z</time>
      </trkpt>
      <trkpt lat="47.49427" lon="6.73475">
        <ele>345</ele>
        <time>2015-03-22T08:46:09.000Z</time>
      </trkpt>
      <trkpt lat="47.49427" lon="6.73471">
        <ele>345</ele>
        <time>2015-03-22T08:46:10.000Z</time>
      </trkpt>
      <trkpt lat="47.49428" lon="6.73468">
        <ele>345</ele>
        <time>2015-03-22T08:46:11.000Z</time>
      </trkpt>
      <trkpt lat="47.49428" lon="6.73464">
        <ele>345</ele>
        <time>2015-03-22T08:46:12.000Z</time>
      </trkpt>
      <trkpt lat="47.49429" lon="6.73461">
        <ele>345</ele>
        <time>2015-03-22T08:46:13.000Z</time>
      </trkpt>
      <trkpt lat="47.49429" lon="6.73457">
        <ele>345</ele>
        <time>2015-03-22T08:46:14.000Z</time>
      </trkpt>
      <trkpt lat="47.4943" lon="6.73453">
        <ele>346</ele>
        <time>2015-03-22T08:46:15.000Z</time>
      </trkpt>
      <trkpt lat="47.49431" lon="6.73449">
        <ele>346</ele>
        <time>2015-03-22T08:46:16.000Z</time>
      </trkpt>
      <trkpt lat="47.49433" lon="6.73445">
        <ele>346</ele>
        <time>2015-03-22T08:46:17.000Z</time>
      </trkpt>
      <trkpt lat="47.49434" lon="6.73442">
        <ele>346</ele>
        <time>2015-03-22T08:46:18.000Z</time>
      </trkpt>
      <trkpt lat="47.49436" lon="6.73438">
        <ele>346</ele>
        <time>2015-03-22T08:46:19.000Z</time>
      </trkpt>
      <trkpt lat="47.49437" lon="6.73434">
        <ele>346</ele>
        <time>2015-03-22T08:46:20.000Z</time>
      </trkpt>
      <trkpt lat="47.49439" lon="6.7343">
        <ele>346</ele>
        <time>2015-03-22T08:46:21.000Z</time>
      </trkpt>
      <trkpt lat="47.4944" lon="6.73426">
        <ele>346</ele>
        <time>2015-03-22T08:46:22.000Z</time>
      </trkpt>
      <trkpt lat="47.49441" lon="6.73422">
        <ele>346</ele>
        <time>2015-03-22T08:46:23.000Z</time>
      </trkpt>
      <trkpt lat="47.49442" lon="6.73418">
        <ele>346</ele>
        <time>2015-03-22T08:46:24.000Z</time>
      </trkpt>
      <trkpt lat="47.49443" lon="6.73414">
        <ele>349</ele>
        <time>2015-03-22T08:46:25.000Z</time>
      </trkpt>
      <trkpt lat="47.49444" lon="6.7341">
        <ele>349</ele>
        <time>2015-03-22T08:46:26.000Z</time>
      </trkpt>
      <trkpt lat="47.49445" lon="6.73406">
        <ele>349</ele>
        <time>2015-03-22T08:46:27.000Z</time>
      </trkpt>
      <trkpt lat="47.49446" lon="6.73402">
        <ele>349</ele>
        <time>2015-03-22T08:46:28.000Z</time>
      </trkpt>
      <trkpt lat="47.49447" lon="6.73399">
        <ele>349</ele>
        <time>2015-03-22T08:46:29.000Z</time>
      </trkpt>
      <trkpt lat="47.49447" lon="6.73395">
        <ele>349</ele>
        <time>2015-03-22T08:46:30.000Z</time>
      </trkpt>
      <trkpt lat="47.49447" lon="6.73391">
        <ele>349</ele>
        <time>2015-03-22T08:46:31.000Z</time>
      </trkpt>
      <trkpt lat="47.49448" lon="6.73388">
        <ele>349</ele>
        <time>2015-03-22T08:46:32.000Z</time>
      </trkpt>
      <trkpt lat="47.49449" lon="6.73385">
        <ele>349</ele>
        <time>2015-03-22T08:46:33.000Z</time>
      </trkpt>
      <trkpt lat="47.4945" lon="6.73381">
        <ele>349</ele>
        <time>2015-03-22T08:46:34.000Z</time>
      </trkpt>
      <trkpt lat="47.49451" lon="6.73378">
        <ele>349</ele>
        <time>2015-03-22T08:46:35.000Z</time>
      </trkpt>
      <trkpt lat="47.49453" lon="6.73375">
        <ele>349</ele>
        <time>2015-03-22T08:46:36.000Z</time>
      </trkpt>
      <trkpt lat="47.49455" lon="6.73371">
        <ele>349</ele>
        <time>2015-03-22T08:46:37.000Z</time>
      </trkpt>
      <trkpt lat="47.49456" lon="6.73368">
        <ele>349</ele>
        <time>2015-03-22T08:46:38.000Z</time>
      </trkpt>
      <trkpt lat="47.49458" lon="6.73364">
        <ele>348</ele>
        <time>2015-03-22T08:46:39.000Z</time>
      </trkpt>
      <trkpt lat="47.4946" lon="6.7336">
        <ele>348</ele>
        <time>2015-03-22T08:46:40.000Z</time>
      </trkpt>
      <trkpt lat="47.49461" lon="6.73356">
        <ele>348</ele>
        <time>2015-03-22T08:46:41.000Z</time>
      </trkpt>
      <trkpt lat="47.49463" lon="6.73352">
        <ele>348</ele>
        <time>2015-03-22T08:46:42.000Z</time>
      </trkpt>
      <trkpt lat="47.49464" lon="6.73348">
        <ele>348</ele>
        <time>2015-03-22T08:46:43.000Z</time>
      </trkpt>
      <trkpt lat="47.49466" lon="6.73344">
        <ele>348</ele>
        <time>2015-03-22T08:46:44.000Z</time>
      </trkpt>
      <trkpt lat="47.49468" lon="6.73341">
        <ele>348</ele>
        <time>2015-03-22T08:46:45.000Z</time>
      </trkpt>
      <trkpt lat="47.4947" lon="6.73338">
        <ele>347</ele>
        <time>2015-03-22T08:46:46.000Z</time>
      </trkpt>
      <trkpt lat="47.49473" lon="6.73334">
        <ele>347</ele>
        <time>2015-03-22T08:46:47.000Z</time>
      </trkpt>
      <trkpt lat="47.49475" lon="6.7333">
        <ele>350</ele>
        <time>2015-03-22T08:46:48.000Z</time>
      </trkpt>
      <trkpt lat="47.49478" lon="6.73327">
        <ele>350</ele>
        <time>2015-03-22T08:46:49.000Z</time>
      </trkpt>
      <trkpt lat="47.49479" lon="6.73324">
        <ele>350</ele>
        <time>2015-03-22T08:46:50.000Z</time>
      </trkpt>
      <trkpt lat="47.49481" lon="6.73321">
        <ele>350</ele>
        <time>2015-03-22T08:46:51.000Z</time>
      </trkpt>
      <trkpt lat="47.49481" lon="6.73318">
        <ele>350</ele>
        <time>2015-03-22T08:46:52.000Z</time>
      </trkpt>
      <trkpt lat="47.49483" lon="6.73312">
        <ele>351</ele>
        <time>2015-03-22T08:46:54.000Z</time>
      </trkpt>
      <trkpt lat="47.49484" lon="6.73309">
        <ele>351</ele>
        <time>2015-03-22T08:46:55.000Z</time>
      </trkpt>
      <trkpt lat="47.49485" lon="6.73304">
        <ele>351</ele>
        <time>2015-03-22T08:46:57.000Z</time>
      </trkpt>
      <trkpt lat="47.49486" lon="6.73301">
        <ele>352</ele>
        <time>2015-03-22T08:46:58.000Z</time>
      </trkpt>
      <trkpt lat="47.49487" lon="6.73296">
        <ele>352</ele>
        <time>2015-03-22T08:47:00.000Z</time>
      </trkpt>
      <trkpt lat="47.49488" lon="6.73293">
        <ele>352</ele>
        <time>2015-03-22T08:47:01.000Z</time>
      </trkpt>
      <trkpt lat="47.49489" lon="6.73288">
        <ele>353</ele>
        <time>2015-03-22T08:47:03.000Z</time>
      </trkpt>
      <trkpt lat="47.49489" lon="6.73285">
        <ele>353</ele>
        <time>2015-03-22T08:47:04.000Z</time>
      </trkpt>
      <trkpt lat="47.4949" lon="6.73279">
        <ele>353</ele>
        <time>2015-03-22T08:47:06.000Z</time>
      </trkpt>
      <trkpt lat="47.4949" lon="6.73276">
        <ele>353</ele>
        <time>2015-03-22T08:47:07.000Z</time>
      </trkpt>
      <trkpt lat="47.49492" lon="6.7327">
        <ele>353</ele>
        <time>2015-03-22T08:47:09.000Z</time>
      </trkpt>
      <trkpt lat="47.49492" lon="6.73267">
        <ele>353</ele>
        <time>2015-03-22T08:47:10.000Z</time>
      </trkpt>
      <trkpt lat="47.49494" lon="6.73262">
        <ele>353</ele>
        <time>2015-03-22T08:47:12.000Z</time>
      </trkpt>
      <trkpt lat="47.49494" lon="6.7326">
        <ele>352</ele>
        <time>2015-03-22T08:47:13.000Z</time>
      </trkpt>
      <trkpt lat="47.49496" lon="6.73254">
        <ele>352</ele>
        <time>2015-03-22T08:47:16.000Z</time>
      </trkpt>
      <trkpt lat="47.49497" lon="6.73253">
        <ele>352</ele>
        <time>2015-03-22T08:47:17.000Z</time>
      </trkpt>
      <trkpt lat="47.49498" lon="6.73247">
        <ele>353</ele>
        <time>2015-03-22T08:47:21.000Z</time>
      </trkpt>
      <trkpt lat="47.49498" lon="6.73246">
        <ele>353</ele>
        <time>2015-03-22T08:47:22.000Z</time>
      </trkpt>
      <trkpt lat="47.49498" lon="6.7324">
        <ele>356</ele>
        <time>2015-03-22T08:47:26.000Z</time>
      </trkpt>
      <trkpt lat="47.49499" lon="6.73238">
        <ele>356</ele>
        <time>2015-03-22T08:47:27.000Z</time>
      </trkpt>
      <trkpt lat="47.49499" lon="6.73232">
        <ele>358</ele>
        <time>2015-03-22T08:47:30.000Z</time>
      </trkpt>
      <trkpt lat="47.49499" lon="6.7323">
        <ele>358</ele>
        <time>2015-03-22T08:47:31.000Z</time>
      </trkpt>
      <trkpt lat="47.495" lon="6.73224">
        <ele>351</ele>
        <time>2015-03-22T08:47:34.000Z</time>
      </trkpt>
      <trkpt lat="47.495" lon="6.73223">
        <ele>351</ele>
        <time>2015-03-22T08:47:35.000Z</time>
      </trkpt>
      <trkpt lat="47.495" lon="6.73217">
        <ele>360</ele>
        <time>2015-03-22T08:47:38.000Z</time>
      </trkpt>
      <trkpt lat="47.49499" lon="6.73215">
        <ele>361</ele>
        <time>2015-03-22T08:47:39.000Z</time>
      </trkpt>
      <trkpt lat="47.49498" lon="6.7321">
        <ele>361</ele>
        <time>2015-03-22T08:47:42.000Z</time>
      </trkpt>
      <trkpt lat="47.49498" lon="6.73206">
        <ele>362</ele>
        <time>2015-03-22T08:47:43.000Z</time>
      </trkpt>
      <trkpt lat="47.49497" lon="6.73201">
        <ele>362</ele>
        <time>2015-03-22T08:47:45.000Z</time>
      </trkpt>
      <trkpt lat="47.49497" lon="6.73199">
        <ele>362</ele>
        <time>2015-03-22T08:47:46.000Z</time>
      </trkpt>
      <trkpt lat="47.49496" lon="6.73194">
        <ele>362</ele>
        <time>2015-03-22T08:47:48.000Z</time>
      </trkpt>
      <trkpt lat="47.49496" lon="6.73191">
        <ele>362</ele>
        <time>2015-03-22T08:47:49.000Z</time>
      </trkpt>
      <trkpt lat="47.49497" lon="6.73186">
        <ele>362</ele>
        <time>2015-03-22T08:47:51.000Z</time>
      </trkpt>
      <trkpt lat="47.49498" lon="6.73182">
        <ele>362</ele>
        <time>2015-03-22T08:47:52.000Z</time>
      </trkpt>
      <trkpt lat="47.49498" lon="6.73177">
        <ele>362</ele>
        <time>2015-03-22T08:47:55.000Z</time>
      </trkpt>
      <trkpt lat="47.49498" lon="6.73175">
        <ele>362</ele>
        <time>2015-03-22T08:47:56.000Z</time>
      </trkpt>
      <trkpt lat="47.49499" lon="6.73169">
        <ele>361</ele>
        <time>2015-03-22T08:48:00.000Z</time>
      </trkpt>
      <trkpt lat="47.495" lon="6.73167">
        <ele>361</ele>
        <time>2015-03-22T08:48:01.000Z</time>
      </trkpt>
      <trkpt lat="47.49502" lon="6.73163">
        <ele>360</ele>
        <time>2015-03-22T08:48:03.000Z</time>
      </trkpt>
      <trkpt lat="47.49502" lon="6.7316">
        <ele>360</ele>
        <time>2015-03-22T08:48:04.000Z</time>
      </trkpt>
      <trkpt lat="47.49504" lon="6.73155">
        <ele>359</ele>
        <time>2015-03-22T08:48:07.000Z</time>
      </trkpt>
      <trkpt lat="47.49504" lon="6.73152">
        <ele>359</ele>
        <time>2015-03-22T08:48:08.000Z</time>
      </trkpt>
      <trkpt lat="47.49504" lon="6.73146">
        <ele>358</ele>
        <time>2015-03-22T08:48:10.000Z</time>
      </trkpt>
      <trkpt lat="47.49504" lon="6.73143">
        <ele>358</ele>
        <time>2015-03-22T08:48:11.000Z</time>
      </trkpt>
      <trkpt lat="47.49504" lon="6.73137">
        <ele>358</ele>
        <time>2015-03-22T08:48:13.000Z</time>
      </trkpt>
      <trkpt lat="47.49504" lon="6.73134">
        <ele>358</ele>
        <time>2015-03-22T08:48:14.000Z</time>
      </trkpt>
      <trkpt lat="47.49503" lon="6.73129">
        <ele>358</ele>
        <time>2015-03-22T08:48:16.000Z</time>
      </trkpt>
      <trkpt lat="47.49503" lon="6.73127">
        <ele>358</ele>
        <time>2015-03-22T08:48:17.000Z</time>
      </trkpt>
      <trkpt lat="47.49502" lon="6.7312">
        <ele>358</ele>
        <time>2015-03-22T08:48:19.000Z</time>
      </trkpt>
      <trkpt lat="47.49501" lon="6.73117">
        <ele>359</ele>
        <time>2015-03-22T08:48:20.000Z</time>
      </trkpt>
      <trkpt lat="47.49501" lon="6.73113">
        <ele>359</ele>
        <time>2015-03-22T08:48:21.000Z</time>
      </trkpt>
      <trkpt lat="47.49501" lon="6.73109">
        <ele>359</ele>
        <time>2015-03-22T08:48:22.000Z</time>
      </trkpt>
      <trkpt lat="47.49502" lon="6.73104">
        <ele>360</ele>
        <time>2015-03-22T08:48:23.000Z</time>
      </trkpt>
      <trkpt lat="47.49504" lon="6.73099">
        <ele>361</ele>
        <time>2015-03-22T08:48:24.000Z</time>
      </trkpt>
      <trkpt lat="47.49506" lon="6.73094">
        <ele>361</ele>
        <time>2015-03-22T08:48:25.000Z</time>
      </trkpt>
      <trkpt lat="47.49508" lon="6.73088">
        <ele>362</ele>
        <time>2015-03-22T08:48:26.000Z</time>
      </trkpt>
      <trkpt lat="47.49511" lon="6.73075">
        <ele>361</ele>
        <time>2015-03-22T08:48:27.000Z</time>
      </trkpt>
      <trkpt lat="47.49514" lon="6.73069">
        <ele>360</ele>
        <time>2015-03-22T08:48:28.000Z</time>
      </trkpt>
      <trkpt lat="47.49517" lon="6.73063">
        <ele>360</ele>
        <time>2015-03-22T08:48:29.000Z</time>
      </trkpt>
      <trkpt lat="47.4952" lon="6.73058">
        <ele>359</ele>
        <time>2015-03-22T08:48:30.000Z</time>
      </trkpt>
      <trkpt lat="47.49524" lon="6.7305">
        <ele>358</ele>
        <time>2015-03-22T08:48:31.000Z</time>
      </trkpt>
      <trkpt lat="47.49527" lon="6.73043">
        <ele>358</ele>
        <time>2015-03-22T08:48:32.000Z</time>
      </trkpt>
      <trkpt lat="47.49531" lon="6.73036">
        <ele>358</ele>
        <time>2015-03-22T08:48:33.000Z</time>
      </trkpt>
      <trkpt lat="47.49534" lon="6.73027">
        <ele>357</ele>
        <time>2015-03-22T08:48:34.000Z</time>
      </trkpt>
      <trkpt lat="47.49534" lon="6.73019">
        <ele>358</ele>
        <time>2015-03-22T08:48:35.000Z</time>
      </trkpt>
      <trkpt lat="47.49534" lon="6.73009">
        <ele>358</ele>
        <time>2015-03-22T08:48:36.000Z</time>
      </trkpt>
      <trkpt lat="47.49531" lon="6.73005">
        <ele>358</ele>
        <time>2015-03-22T08:48:37.000Z</time>
      </trkpt>
      <trkpt lat="47.49531" lon="6.73">
        <ele>358</ele>
        <time>2015-03-22T08:48:38.000Z</time>
      </trkpt>
      <trkpt lat="47.49528" lon="6.72997">
        <ele>359</ele>
        <time>2015-03-22T08:48:40.000Z</time>
      </trkpt>
      <trkpt lat="47.49527" lon="6.72996">
        <ele>359</ele>
        <time>2015-03-22T08:48:41.000Z</time>
      </trkpt>
      <trkpt lat="47.49525" lon="6.72992">
        <ele>359</ele>
        <time>2015-03-22T08:48:43.000Z</time>
      </trkpt>
      <trkpt lat="47.49525" lon="6.72989">
        <ele>359</ele>
        <time>2015-03-22T08:48:44.000Z</time>
      </trkpt>
      <trkpt lat="47.49523" lon="6.72983">
        <ele>359</ele>
        <time>2015-03-22T08:48:46.000Z</time>
      </trkpt>
      <trkpt lat="47.49522" lon="6.72981">
        <ele>359</ele>
        <time>2015-03-22T08:48:47.000Z</time>
      </trkpt>
      <trkpt lat="47.4952" lon="6.72976">
        <ele>359</ele>
        <time>2015-03-22T08:48:50.000Z</time>
      </trkpt>
      <trkpt lat="47.4952" lon="6.72974">
        <ele>359</ele>
        <time>2015-03-22T08:48:51.000Z</time>
      </trkpt>
      <trkpt lat="47.49518" lon="6.72969">
        <ele>360</ele>
        <time>2015-03-22T08:48:53.000Z</time>
      </trkpt>
      <trkpt lat="47.49517" lon="6.72966">
        <ele>360</ele>
        <time>2015-03-22T08:48:54.000Z</time>
      </trkpt>
      <trkpt lat="47.49515" lon="6.72961">
        <ele>360</ele>
        <time>2015-03-22T08:48:56.000Z</time>
      </trkpt>
      <trkpt lat="47.49514" lon="6.72958">
        <ele>360</ele>
        <time>2015-03-22T08:48:57.000Z</time>
      </trkpt>
      <trkpt lat="47.49511" lon="6.72953">
        <ele>360</ele>
        <time>2015-03-22T08:48:59.000Z</time>
      </trkpt>
      <trkpt lat="47.4951" lon="6.7295">
        <ele>361</ele>
        <time>2015-03-22T08:49:00.000Z</time>
      </trkpt>
      <trkpt lat="47.49507" lon="6.72946">
        <ele>361</ele>
        <time>2015-03-22T08:49:03.000Z</time>
      </trkpt>
      <trkpt lat="47.49506" lon="6.72944">
        <ele>361</ele>
        <time>2015-03-22T08:49:04.000Z</time>
      </trkpt>
      <trkpt lat="47.49506" lon="6.72939">
        <ele>362</ele>
        <time>2015-03-22T08:49:07.000Z</time>
      </trkpt>
      <trkpt lat="47.49506" lon="6.72937">
        <ele>362</ele>
        <time>2015-03-22T08:49:08.000Z</time>
      </trkpt>
      <trkpt lat="47.49507" lon="6.72933">
        <ele>363</ele>
        <time>2015-03-22T08:49:10.000Z</time>
      </trkpt>
      <trkpt lat="47.49508" lon="6.72929">
        <ele>364</ele>
        <time>2015-03-22T08:49:11.000Z</time>
      </trkpt>
      <trkpt lat="47.49508" lon="6.72923">
        <ele>365</ele>
        <time>2015-03-22T08:49:13.000Z</time>
      </trkpt>
      <trkpt lat="47.49509" lon="6.7292">
        <ele>365</ele>
        <time>2015-03-22T08:49:14.000Z</time>
      </trkpt>
      <trkpt lat="47.49509" lon="6.72915">
        <ele>366</ele>
        <time>2015-03-22T08:49:15.000Z</time>
      </trkpt>
      <trkpt lat="47.4951" lon="6.7291">
        <ele>366</ele>
        <time>2015-03-22T08:49:16.000Z</time>
      </trkpt>
      <trkpt lat="47.4951" lon="6.72906">
        <ele>365</ele>
        <time>2015-03-22T08:49:17.000Z</time>
      </trkpt>
      <trkpt lat="47.4951" lon="6.72903">
        <ele>365</ele>
        <time>2015-03-22T08:49:18.000Z</time>
      </trkpt>
      <trkpt lat="47.4951" lon="6.72898">
        <ele>365</ele>
        <time>2015-03-22T08:49:20.001Z</time>
      </trkpt>
      <trkpt lat="47.49509" lon="6.72895">
        <ele>365</ele>
        <time>2015-03-22T08:49:21.000Z</time>
      </trkpt>
      <trkpt lat="47.4951" lon="6.72893">
        <ele>365</ele>
        <time>2015-03-22T08:49:22.000Z</time>
      </trkpt>
      <trkpt lat="47.49511" lon="6.72889">
        <ele>364</ele>
        <time>2015-03-22T08:49:23.000Z</time>
      </trkpt>
      <trkpt lat="47.49513" lon="6.72884">
        <ele>364</ele>
        <time>2015-03-22T08:49:25.000Z</time>
      </trkpt>
      <trkpt lat="47.49513" lon="6.72881">
        <ele>364</ele>
        <time>2015-03-22T08:49:26.000Z</time>
      </trkpt>
      <trkpt lat="47.49513" lon="6.72876">
        <ele>364</ele>
        <time>2015-03-22T08:49:28.001Z</time>
      </trkpt>
      <trkpt lat="47.49513" lon="6.72873">
        <ele>365</ele>
        <time>2015-03-22T08:49:29.000Z</time>
      </trkpt>
      <trkpt lat="47.49515" lon="6.72866">
        <ele>365</ele>
        <time>2015-03-22T08:49:32.000Z</time>
      </trkpt>
      <trkpt lat="47.49515" lon="6.72864">
        <ele>365</ele>
        <time>2015-03-22T08:49:33.000Z</time>
      </trkpt>
      <trkpt lat="47.49516" lon="6.7286">
        <ele>366</ele>
        <time>2015-03-22T08:49:35.000Z</time>
      </trkpt>
      <trkpt lat="47.49517" lon="6.72857">
        <ele>366</ele>
        <time>2015-03-22T08:49:36.000Z</time>
      </trkpt>
      <trkpt lat="47.49518" lon="6.72853">
        <ele>366</ele>
        <time>2015-03-22T08:49:38.000Z</time>
      </trkpt>
      <trkpt lat="47.49519" lon="6.72851">
        <ele>366</ele>
        <time>2015-03-22T08:49:39.000Z</time>
      </trkpt>
      <trkpt lat="47.49519" lon="6.72847">
        <ele>367</ele>
        <time>2015-03-22T08:49:40.000Z</time>
      </trkpt>
      <trkpt lat="47.4952" lon="6.72844">
        <ele>367</ele>
        <time>2015-03-22T08:49:41.000Z</time>
      </trkpt>
      <trkpt lat="47.49521" lon="6.7284">
        <ele>367</ele>
        <time>2015-03-22T08:49:42.000Z</time>
      </trkpt>
      <trkpt lat="47.49522" lon="6.72836">
        <ele>367</ele>
        <time>2015-03-22T08:49:43.000Z</time>
      </trkpt>
      <trkpt lat="47.49522" lon="6.72833">
        <ele>371</ele>
        <time>2015-03-22T08:49:44.000Z</time>
      </trkpt>
      <trkpt lat="47.49523" lon="6.7283">
        <ele>371</ele>
        <time>2015-03-22T08:49:45.000Z</time>
      </trkpt>
      <trkpt lat="47.49524" lon="6.72827">
        <ele>371</ele>
        <time>2015-03-22T08:49:46.000Z</time>
      </trkpt>
      <trkpt lat="47.49525" lon="6.72824">
        <ele>370</ele>
        <time>2015-03-22T08:49:47.000Z</time>
      </trkpt>
      <trkpt lat="47.49526" lon="6.7282">
        <ele>370</ele>
        <time>2015-03-22T08:49:48.001Z</time>
      </trkpt>
      <trkpt lat="47.49527" lon="6.72817">
        <ele>370</ele>
        <time>2015-03-22T08:49:49.000Z</time>
      </trkpt>
      <trkpt lat="47.49528" lon="6.72813">
        <ele>370</ele>
        <time>2015-03-22T08:49:50.000Z</time>
      </trkpt>
      <trkpt lat="47.49528" lon="6.72809">
        <ele>370</ele>
        <time>2015-03-22T08:49:51.000Z</time>
      </trkpt>
      <trkpt lat="47.49529" lon="6.72805">
        <ele>370</ele>
        <time>2015-03-22T08:49:52.000Z</time>
      </trkpt>
      <trkpt lat="47.4953" lon="6.72801">
        <ele>370</ele>
        <time>2015-03-22T08:49:53.000Z</time>
      </trkpt>
      <trkpt lat="47.49531" lon="6.72796">
        <ele>370</ele>
        <time>2015-03-22T08:49:54.000Z</time>
      </trkpt>
      <trkpt lat="47.49532" lon="6.72792">
        <ele>370</ele>
        <time>2015-03-22T08:49:55.000Z</time>
      </trkpt>
      <trkpt lat="47.49533" lon="6.72788">
        <ele>370</ele>
        <time>2015-03-22T08:49:56.000Z</time>
      </trkpt>
      <trkpt lat="47.49533" lon="6.72784">
        <ele>371</ele>
        <time>2015-03-22T08:49:57.000Z</time>
      </trkpt>
      <trkpt lat="47.49533" lon="6.72781">
        <ele>371</ele>
        <time>2015-03-22T08:49:58.000Z</time>
      </trkpt>
      <trkpt lat="47.49533" lon="6.72777">
        <ele>371</ele>
        <time>2015-03-22T08:49:59.000Z</time>
      </trkpt>
      <trkpt lat="47.49534" lon="6.72772">
        <ele>371</ele>
        <time>2015-03-22T08:50:01.000Z</time>
      </trkpt>
      <trkpt lat="47.49536" lon="6.72768">
        <ele>371</ele>
        <time>2015-03-22T08:50:02.000Z</time>
      </trkpt>
      <trkpt lat="47.49537" lon="6.72764">
        <ele>371</ele>
        <time>2015-03-22T08:50:03.000Z</time>
      </trkpt>
      <trkpt lat="47.49538" lon="6.72761">
        <ele>371</ele>
        <time>2015-03-22T08:50:04.000Z</time>
      </trkpt>
      <trkpt lat="47.4954" lon="6.72757">
        <ele>371</ele>
        <time>2015-03-22T08:50:05.000Z</time>
      </trkpt>
      <trkpt lat="47.49541" lon="6.72754">
        <ele>371</ele>
        <time>2015-03-22T08:50:06.000Z</time>
      </trkpt>
      <trkpt lat="47.49542" lon="6.72751">
        <ele>371</ele>
        <time>2015-03-22T08:50:07.000Z</time>
      </trkpt>
      <trkpt lat="47.49542" lon="6.72748">
        <ele>374</ele>
        <time>2015-03-22T08:50:08.000Z</time>
      </trkpt>
      <trkpt lat="47.49543" lon="6.72744">
        <ele>374</ele>
        <time>2015-03-22T08:50:09.000Z</time>
      </trkpt>
      <trkpt lat="47.49544" lon="6.72739">
        <ele>374</ele>
        <time>2015-03-22T08:50:10.000Z</time>
      </trkpt>
      <trkpt lat="47.49544" lon="6.72736">
        <ele>374</ele>
        <time>2015-03-22T08:50:11.000Z</time>
      </trkpt>
      <trkpt lat="47.49545" lon="6.72732">
        <ele>374</ele>
        <time>2015-03-22T08:50:12.000Z</time>
      </trkpt>
      <trkpt lat="47.49546" lon="6.72729">
        <ele>374</ele>
        <time>2015-03-22T08:50:13.000Z</time>
      </trkpt>
      <trkpt lat="47.49548" lon="6.72725">
        <ele>374</ele>
        <time>2015-03-22T08:50:14.000Z</time>
      </trkpt>
      <trkpt lat="47.49549" lon="6.72722">
        <ele>374</ele>
        <time>2015-03-22T08:50:15.002Z</time>
      </trkpt>
      <trkpt lat="47.49551" lon="6.72715">
        <ele>374</ele>
        <time>2015-03-22T08:50:16.000Z</time>
      </trkpt>
      <trkpt lat="47.49552" lon="6.72709">
        <ele>374</ele>
        <time>2015-03-22T08:50:17.000Z</time>
      </trkpt>
      <trkpt lat="47.49552" lon="6.72703">
        <ele>374</ele>
        <time>2015-03-22T08:50:18.000Z</time>
      </trkpt>
      <trkpt lat="47.49551" lon="6.72697">
        <ele>374</ele>
        <time>2015-03-22T08:50:19.000Z</time>
      </trkpt>
      <trkpt lat="47.49551" lon="6.7269">
        <ele>374</ele>
        <time>2015-03-22T08:50:20.000Z</time>
      </trkpt>
      <trkpt lat="47.49551" lon="6.72685">
        <ele>374</ele>
        <time>2015-03-22T08:50:21.000Z</time>
      </trkpt>
      <trkpt lat="47.49551" lon="6.72679">
        <ele>374</ele>
        <time>2015-03-22T08:50:22.000Z</time>
      </trkpt>
      <trkpt lat="47.49551" lon="6.72673">
        <ele>374</ele>
        <time>2015-03-22T08:50:23.000Z</time>
      </trkpt>
      <trkpt lat="47.49552" lon="6.72668">
        <ele>374</ele>
        <time>2015-03-22T08:50:24.000Z</time>
      </trkpt>
      <trkpt lat="47.49553" lon="6.72663">
        <ele>375</ele>
        <time>2015-03-22T08:50:25.000Z</time>
      </trkpt>
      <trkpt lat="47.49554" lon="6.72658">
        <ele>375</ele>
        <time>2015-03-22T08:50:26.000Z</time>
      </trkpt>
      <trkpt lat="47.49555" lon="6.72653">
        <ele>375</ele>
        <time>2015-03-22T08:50:27.000Z</time>
      </trkpt>
      <trkpt lat="47.49556" lon="6.72648">
        <ele>375</ele>
        <time>2015-03-22T08:50:28.000Z</time>
      </trkpt>
      <trkpt lat="47.49556" lon="6.72642">
        <ele>375</ele>
        <time>2015-03-22T08:50:29.000Z</time>
      </trkpt>
      <trkpt lat="47.49558" lon="6.72637">
        <ele>375</ele>
        <time>2015-03-22T08:50:30.000Z</time>
      </trkpt>
      <trkpt lat="47.49559" lon="6.72631">
        <ele>375</ele>
        <time>2015-03-22T08:50:31.000Z</time>
      </trkpt>
      <trkpt lat="47.49561" lon="6.72626">
        <ele>375</ele>
        <time>2015-03-22T08:50:32.000Z</time>
      </trkpt>
      <trkpt lat="47.49562" lon="6.72621">
        <ele>375</ele>
        <time>2015-03-22T08:50:33.000Z</time>
      </trkpt>
      <trkpt lat="47.49564" lon="6.72616">
        <ele>375</ele>
        <time>2015-03-22T08:50:34.000Z</time>
      </trkpt>
      <trkpt lat="47.49565" lon="6.72611">
        <ele>375</ele>
        <time>2015-03-22T08:50:35.000Z</time>
      </trkpt>
      <trkpt lat="47.49566" lon="6.72605">
        <ele>374</ele>
        <time>2015-03-22T08:50:36.000Z</time>
      </trkpt>
      <trkpt lat="47.49567" lon="6.726">
        <ele>374</ele>
        <time>2015-03-22T08:50:37.000Z</time>
      </trkpt>
      <trkpt lat="47.49567" lon="6.72594">
        <ele>374</ele>
        <time>2015-03-22T08:50:38.000Z</time>
      </trkpt>
      <trkpt lat="47.49566" lon="6.72589">
        <ele>374</ele>
        <time>2015-03-22T08:50:39.000Z</time>
      </trkpt>
      <trkpt lat="47.49565" lon="6.72584">
        <ele>374</ele>
        <time>2015-03-22T08:50:40.000Z</time>
      </trkpt>
      <trkpt lat="47.49565" lon="6.7258">
        <ele>376</ele>
        <time>2015-03-22T08:50:41.000Z</time>
      </trkpt>
      <trkpt lat="47.49564" lon="6.72576">
        <ele>376</ele>
        <time>2015-03-22T08:50:42.000Z</time>
      </trkpt>
      <trkpt lat="47.49563" lon="6.72572">
        <ele>377</ele>
        <time>2015-03-22T08:50:43.000Z</time>
      </trkpt>
      <trkpt lat="47.49563" lon="6.72569">
        <ele>377</ele>
        <time>2015-03-22T08:50:44.000Z</time>
      </trkpt>
      <trkpt lat="47.49562" lon="6.72562">
        <ele>378</ele>
        <time>2015-03-22T08:50:46.000Z</time>
      </trkpt>
      <trkpt lat="47.49561" lon="6.72559">
        <ele>378</ele>
        <time>2015-03-22T08:50:47.000Z</time>
      </trkpt>
      <trkpt lat="47.49561" lon="6.72555">
        <ele>378</ele>
        <time>2015-03-22T08:50:48.000Z</time>
      </trkpt>
      <trkpt lat="47.49561" lon="6.72551">
        <ele>379</ele>
        <time>2015-03-22T08:50:49.000Z</time>
      </trkpt>
      <trkpt lat="47.49561" lon="6.72547">
        <ele>379</ele>
        <time>2015-03-22T08:50:50.000Z</time>
      </trkpt>
      <trkpt lat="47.49561" lon="6.72543">
        <ele>379</ele>
        <time>2015-03-22T08:50:51.000Z</time>
      </trkpt>
      <trkpt lat="47.49561" lon="6.72538">
        <ele>379</ele>
        <time>2015-03-22T08:50:52.000Z</time>
      </trkpt>
      <trkpt lat="47.49562" lon="6.72535">
        <ele>379</ele>
        <time>2015-03-22T08:50:53.000Z</time>
      </trkpt>
      <trkpt lat="47.49562" lon="6.72531">
        <ele>379</ele>
        <time>2015-03-22T08:50:54.000Z</time>
      </trkpt>
      <trkpt lat="47.49563" lon="6.72527">
        <ele>379</ele>
        <time>2015-03-22T08:50:55.000Z</time>
      </trkpt>
      <trkpt lat="47.49564" lon="6.72524">
        <ele>379</ele>
        <time>2015-03-22T08:50:56.000Z</time>
      </trkpt>
      <trkpt lat="47.49566" lon="6.72521">
        <ele>379</ele>
        <time>2015-03-22T08:50:57.000Z</time>
      </trkpt>
      <trkpt lat="47.49568" lon="6.72516">
        <ele>379</ele>
        <time>2015-03-22T08:50:59.000Z</time>
      </trkpt>
      <trkpt lat="47.49568" lon="6.72513">
        <ele>379</ele>
        <time>2015-03-22T08:51:00.000Z</time>
      </trkpt>
      <trkpt lat="47.4957" lon="6.72507">
        <ele>379</ele>
        <time>2015-03-22T08:51:02.000Z</time>
      </trkpt>
      <trkpt lat="47.49571" lon="6.72503">
        <ele>379</ele>
        <time>2015-03-22T08:51:03.000Z</time>
      </trkpt>
      <trkpt lat="47.49572" lon="6.725">
        <ele>379</ele>
        <time>2015-03-22T08:51:04.000Z</time>
      </trkpt>
      <trkpt lat="47.49574" lon="6.72498">
        <ele>381</ele>
        <time>2015-03-22T08:51:05.000Z</time>
      </trkpt>
      <trkpt lat="47.49575" lon="6.72495">
        <ele>381</ele>
        <time>2015-03-22T08:51:06.000Z</time>
      </trkpt>
      <trkpt lat="47.49577" lon="6.72492">
        <ele>381</ele>
        <time>2015-03-22T08:51:07.000Z</time>
      </trkpt>
      <trkpt lat="47.49579" lon="6.72489">
        <ele>382</ele>
        <time>2015-03-22T08:51:08.000Z</time>
      </trkpt>
      <trkpt lat="47.49582" lon="6.72486">
        <ele>382</ele>
        <time>2015-03-22T08:51:09.000Z</time>
      </trkpt>
      <trkpt lat="47.49584" lon="6.72483">
        <ele>376</ele>
        <time>2015-03-22T08:51:10.000Z</time>
      </trkpt>
      <trkpt lat="47.49586" lon="6.7248">
        <ele>376</ele>
        <time>2015-03-22T08:51:11.000Z</time>
      </trkpt>
      <trkpt lat="47.49587" lon="6.72477">
        <ele>376</ele>
        <time>2015-03-22T08:51:12.000Z</time>
      </trkpt>
      <trkpt lat="47.49589" lon="6.72473">
        <ele>376</ele>
        <time>2015-03-22T08:51:13.000Z</time>
      </trkpt>
      <trkpt lat="47.4959" lon="6.72469">
        <ele>376</ele>
        <time>2015-03-22T08:51:14.000Z</time>
      </trkpt>
      <trkpt lat="47.49591" lon="6.72465">
        <ele>376</ele>
        <time>2015-03-22T08:51:15.000Z</time>
      </trkpt>
      <trkpt lat="47.49592" lon="6.72461">
        <ele>376</ele>
        <time>2015-03-22T08:51:16.000Z</time>
      </trkpt>
      <trkpt lat="47.49593" lon="6.72458">
        <ele>376</ele>
        <time>2015-03-22T08:51:17.000Z</time>
      </trkpt>
      <trkpt lat="47.49595" lon="6.72452">
        <ele>377</ele>
        <time>2015-03-22T08:51:19.000Z</time>
      </trkpt>
      <trkpt lat="47.49595" lon="6.7245">
        <ele>377</ele>
        <time>2015-03-22T08:51:20.000Z</time>
      </trkpt>
      <trkpt lat="47.49596" lon="6.72443">
        <ele>378</ele>
        <time>2015-03-22T08:51:22.000Z</time>
      </trkpt>
      <trkpt lat="47.49596" lon="6.7244">
        <ele>378</ele>
        <time>2015-03-22T08:51:23.000Z</time>
      </trkpt>
      <trkpt lat="47.49597" lon="6.72435">
        <ele>379</ele>
        <time>2015-03-22T08:51:25.000Z</time>
      </trkpt>
      <trkpt lat="47.49597" lon="6.72432">
        <ele>380</ele>
        <time>2015-03-22T08:51:26.000Z</time>
      </trkpt>
      <trkpt lat="47.49598" lon="6.72427">
        <ele>380</ele>
        <time>2015-03-22T08:51:28.000Z</time>
      </trkpt>
      <trkpt lat="47.49599" lon="6.72425">
        <ele>380</ele>
        <time>2015-03-22T08:51:29.000Z</time>
      </trkpt>
      <trkpt lat="47.496" lon="6.7242">
        <ele>381</ele>
        <time>2015-03-22T08:51:31.000Z</time>
      </trkpt>
      <trkpt lat="47.49601" lon="6.72417">
        <ele>381</ele>
        <time>2015-03-22T08:51:32.000Z</time>
      </trkpt>
      <trkpt lat="47.49602" lon="6.72411">
        <ele>384</ele>
        <time>2015-03-22T08:51:34.000Z</time>
      </trkpt>
      <trkpt lat="47.49603" lon="6.72407">
        <ele>383</ele>
        <time>2015-03-22T08:51:35.000Z</time>
      </trkpt>
      <trkpt lat="47.49603" lon="6.72404">
        <ele>383</ele>
        <time>2015-03-22T08:51:36.000Z</time>
      </trkpt>
      <trkpt lat="47.49604" lon="6.72401">
        <ele>383</ele>
        <time>2015-03-22T08:51:37.000Z</time>
      </trkpt>
      <trkpt lat="47.49605" lon="6.72397">
        <ele>383</ele>
        <time>2015-03-22T08:51:38.000Z</time>
      </trkpt>
      <trkpt lat="47.49605" lon="6.72394">
        <ele>383</ele>
        <time>2015-03-22T08:51:39.000Z</time>
      </trkpt>
      <trkpt lat="47.49606" lon="6.7239">
        <ele>383</ele>
        <time>2015-03-22T08:51:40.000Z</time>
      </trkpt>
      <trkpt lat="47.49607" lon="6.72387">
        <ele>382</ele>
        <time>2015-03-22T08:51:41.000Z</time>
      </trkpt>
      <trkpt lat="47.49607" lon="6.72383">
        <ele>382</ele>
        <time>2015-03-22T08:51:42.000Z</time>
      </trkpt>
      <trkpt lat="47.49608" lon="6.72379">
        <ele>383</ele>
        <time>2015-03-22T08:51:43.000Z</time>
      </trkpt>
      <trkpt lat="47.49608" lon="6.72376">
        <ele>383</ele>
        <time>2015-03-22T08:51:44.000Z</time>
      </trkpt>
      <trkpt lat="47.49609" lon="6.72372">
        <ele>383</ele>
        <time>2015-03-22T08:51:45.000Z</time>
      </trkpt>
      <trkpt lat="47.49609" lon="6.72368">
        <ele>383</ele>
        <time>2015-03-22T08:51:46.000Z</time>
      </trkpt>
      <trkpt lat="47.49609" lon="6.72364">
        <ele>383</ele>
        <time>2015-03-22T08:51:47.000Z</time>
      </trkpt>
      <trkpt lat="47.49609" lon="6.7236">
        <ele>383</ele>
        <time>2015-03-22T08:51:48.000Z</time>
      </trkpt>
      <trkpt lat="47.49609" lon="6.72357">
        <ele>384</ele>
        <time>2015-03-22T08:51:49.000Z</time>
      </trkpt>
      <trkpt lat="47.49609" lon="6.72353">
        <ele>384</ele>
        <time>2015-03-22T08:51:50.000Z</time>
      </trkpt>
      <trkpt lat="47.4961" lon="6.72349">
        <ele>384</ele>
        <time>2015-03-22T08:51:51.000Z</time>
      </trkpt>
      <trkpt lat="47.4961" lon="6.72345">
        <ele>385</ele>
        <time>2015-03-22T08:51:52.000Z</time>
      </trkpt>
      <trkpt lat="47.49611" lon="6.72342">
        <ele>385</ele>
        <time>2015-03-22T08:51:53.000Z</time>
      </trkpt>
      <trkpt lat="47.49613" lon="6.72337">
        <ele>384</ele>
        <time>2015-03-22T08:51:55.000Z</time>
      </trkpt>
      <trkpt lat="47.49614" lon="6.72334">
        <ele>384</ele>
        <time>2015-03-22T08:51:56.000Z</time>
      </trkpt>
      <trkpt lat="47.49616" lon="6.72328">
        <ele>387</ele>
        <time>2015-03-22T08:51:58.000Z</time>
      </trkpt>
      <trkpt lat="47.49616" lon="6.72325">
        <ele>387</ele>
        <time>2015-03-22T08:51:59.000Z</time>
      </trkpt>
      <trkpt lat="47.49617" lon="6.72319">
        <ele>386</ele>
        <time>2015-03-22T08:52:01.000Z</time>
      </trkpt>
      <trkpt lat="47.49618" lon="6.72316">
        <ele>386</ele>
        <time>2015-03-22T08:52:02.000Z</time>
      </trkpt>
      <trkpt lat="47.4962" lon="6.72311">
        <ele>386</ele>
        <time>2015-03-22T08:52:04.000Z</time>
      </trkpt>
      <trkpt lat="47.49621" lon="6.72308">
        <ele>386</ele>
        <time>2015-03-22T08:52:05.000Z</time>
      </trkpt>
      <trkpt lat="47.49622" lon="6.72303">
        <ele>386</ele>
        <time>2015-03-22T08:52:07.000Z</time>
      </trkpt>
      <trkpt lat="47.49622" lon="6.72299">
        <ele>386</ele>
        <time>2015-03-22T08:52:08.000Z</time>
      </trkpt>
      <trkpt lat="47.49622" lon="6.72293">
        <ele>386</ele>
        <time>2015-03-22T08:52:10.000Z</time>
      </trkpt>
      <trkpt lat="47.49622" lon="6.7229">
        <ele>386</ele>
        <time>2015-03-22T08:52:11.000Z</time>
      </trkpt>
      <trkpt lat="47.49623" lon="6.72283">
        <ele>386</ele>
        <time>2015-03-22T08:52:13.000Z</time>
      </trkpt>
      <trkpt lat="47.49624" lon="6.7228">
        <ele>386</ele>
        <time>2015-03-22T08:52:14.000Z</time>
      </trkpt>
      <trkpt lat="47.49624" lon="6.72277">
        <ele>386</ele>
        <time>2015-03-22T08:52:15.000Z</time>
      </trkpt>
      <trkpt lat="47.49625" lon="6.72273">
        <ele>386</ele>
        <time>2015-03-22T08:52:16.000Z</time>
      </trkpt>
      <trkpt lat="47.49627" lon="6.7227">
        <ele>386</ele>
        <time>2015-03-22T08:52:17.000Z</time>
      </trkpt>
      <trkpt lat="47.49628" lon="6.72266">
        <ele>385</ele>
        <time>2015-03-22T08:52:18.000Z</time>
      </trkpt>
      <trkpt lat="47.49629" lon="6.72261">
        <ele>385</ele>
        <time>2015-03-22T08:52:19.000Z</time>
      </trkpt>
      <trkpt lat="47.49629" lon="6.72256">
        <ele>385</ele>
        <time>2015-03-22T08:52:20.000Z</time>
      </trkpt>
      <trkpt lat="47.4963" lon="6.72251">
        <ele>385</ele>
        <time>2015-03-22T08:52:21.000Z</time>
      </trkpt>
      <trkpt lat="47.4963" lon="6.72245">
        <ele>388</ele>
        <time>2015-03-22T08:52:22.000Z</time>
      </trkpt>
      <trkpt lat="47.49631" lon="6.7224">
        <ele>388</ele>
        <time>2015-03-22T08:52:23.000Z</time>
      </trkpt>
      <trkpt lat="47.49632" lon="6.72235">
        <ele>388</ele>
        <time>2015-03-22T08:52:24.000Z</time>
      </trkpt>
      <trkpt lat="47.49633" lon="6.7223">
        <ele>388</ele>
        <time>2015-03-22T08:52:25.000Z</time>
      </trkpt>
      <trkpt lat="47.49634" lon="6.72225">
        <ele>388</ele>
        <time>2015-03-22T08:52:26.000Z</time>
      </trkpt>
      <trkpt lat="47.49634" lon="6.72221">
        <ele>389</ele>
        <time>2015-03-22T08:52:27.000Z</time>
      </trkpt>
      <trkpt lat="47.49634" lon="6.72216">
        <ele>389</ele>
        <time>2015-03-22T08:52:28.000Z</time>
      </trkpt>
      <trkpt lat="47.49633" lon="6.72211">
        <ele>389</ele>
        <time>2015-03-22T08:52:29.000Z</time>
      </trkpt>
      <trkpt lat="47.49633" lon="6.72207">
        <ele>390</ele>
        <time>2015-03-22T08:52:30.000Z</time>
      </trkpt>
      <trkpt lat="47.49632" lon="6.72203">
        <ele>390</ele>
        <time>2015-03-22T08:52:31.000Z</time>
      </trkpt>
      <trkpt lat="47.49632" lon="6.72199">
        <ele>390</ele>
        <time>2015-03-22T08:52:32.000Z</time>
      </trkpt>
      <trkpt lat="47.49632" lon="6.72196">
        <ele>390</ele>
        <time>2015-03-22T08:52:33.000Z</time>
      </trkpt>
      <trkpt lat="47.49633" lon="6.72192">
        <ele>390</ele>
        <time>2015-03-22T08:52:34.000Z</time>
      </trkpt>
      <trkpt lat="47.49632" lon="6.72187">
        <ele>390</ele>
        <time>2015-03-22T08:52:35.000Z</time>
      </trkpt>
      <trkpt lat="47.49632" lon="6.72183">
        <ele>390</ele>
        <time>2015-03-22T08:52:36.000Z</time>
      </trkpt>
      <trkpt lat="47.49632" lon="6.72178">
        <ele>390</ele>
        <time>2015-03-22T08:52:37.000Z</time>
      </trkpt>
      <trkpt lat="47.49632" lon="6.72173">
        <ele>390</ele>
        <time>2015-03-22T08:52:38.000Z</time>
      </trkpt>
      <trkpt lat="47.49632" lon="6.72168">
        <ele>390</ele>
        <time>2015-03-22T08:52:39.000Z</time>
      </trkpt>
      <trkpt lat="47.49632" lon="6.72164">
        <ele>395</ele>
        <time>2015-03-22T08:52:40.000Z</time>
      </trkpt>
      <trkpt lat="47.49633" lon="6.7216">
        <ele>395</ele>
        <time>2015-03-22T08:52:41.000Z</time>
      </trkpt>
      <trkpt lat="47.49634" lon="6.72157">
        <ele>395</ele>
        <time>2015-03-22T08:52:42.000Z</time>
      </trkpt>
      <trkpt lat="47.49636" lon="6.72152">
        <ele>395</ele>
        <time>2015-03-22T08:52:44.000Z</time>
      </trkpt>
      <trkpt lat="47.49636" lon="6.72151">
        <ele>395</ele>
        <time>2015-03-22T08:52:45.000Z</time>
      </trkpt>
      <trkpt lat="47.49639" lon="6.72146">
        <ele>394</ele>
        <time>2015-03-22T08:52:48.000Z</time>
      </trkpt>
      <trkpt lat="47.4964" lon="6.72144">
        <ele>394</ele>
        <time>2015-03-22T08:52:49.000Z</time>
      </trkpt>
      <trkpt lat="47.49642" lon="6.72138">
        <ele>395</ele>
        <time>2015-03-22T08:52:51.000Z</time>
      </trkpt>
      <trkpt lat="47.49643" lon="6.72135">
        <ele>395</ele>
        <time>2015-03-22T08:52:52.000Z</time>
      </trkpt>
      <trkpt lat="47.49645" lon="6.72129">
        <ele>395</ele>
        <time>2015-03-22T08:52:54.000Z</time>
      </trkpt>
      <trkpt lat="47.49646" lon="6.72127">
        <ele>395</ele>
        <time>2015-03-22T08:52:55.000Z</time>
      </trkpt>
      <trkpt lat="47.49648" lon="6.72121">
        <ele>395</ele>
        <time>2015-03-22T08:52:57.000Z</time>
      </trkpt>
      <trkpt lat="47.49649" lon="6.72119">
        <ele>395</ele>
        <time>2015-03-22T08:52:58.000Z</time>
      </trkpt>
      <trkpt lat="47.49651" lon="6.72114">
        <ele>395</ele>
        <time>2015-03-22T08:53:00.000Z</time>
      </trkpt>
      <trkpt lat="47.49652" lon="6.72111">
        <ele>395</ele>
        <time>2015-03-22T08:53:01.000Z</time>
      </trkpt>
      <trkpt lat="47.49654" lon="6.72106">
        <ele>395</ele>
        <time>2015-03-22T08:53:03.000Z</time>
      </trkpt>
      <trkpt lat="47.49656" lon="6.72103">
        <ele>394</ele>
        <time>2015-03-22T08:53:04.000Z</time>
      </trkpt>
      <trkpt lat="47.49657" lon="6.721">
        <ele>394</ele>
        <time>2015-03-22T08:53:05.000Z</time>
      </trkpt>
      <trkpt lat="47.49659" lon="6.72097">
        <ele>393</ele>
        <time>2015-03-22T08:53:06.000Z</time>
      </trkpt>
      <trkpt lat="47.49661" lon="6.72094">
        <ele>393</ele>
        <time>2015-03-22T08:53:07.000Z</time>
      </trkpt>
      <trkpt lat="47.49663" lon="6.72091">
        <ele>392</ele>
        <time>2015-03-22T08:53:08.000Z</time>
      </trkpt>
      <trkpt lat="47.49664" lon="6.72088">
        <ele>391</ele>
        <time>2015-03-22T08:53:09.000Z</time>
      </trkpt>
      <trkpt lat="47.49665" lon="6.72084">
        <ele>390</ele>
        <time>2015-03-22T08:53:10.000Z</time>
      </trkpt>
      <trkpt lat="47.49667" lon="6.72081">
        <ele>390</ele>
        <time>2015-03-22T08:53:11.000Z</time>
      </trkpt>
      <trkpt lat="47.49667" lon="6.72078">
        <ele>388</ele>
        <time>2015-03-22T08:53:12.000Z</time>
      </trkpt>
      <trkpt lat="47.49668" lon="6.72075">
        <ele>387</ele>
        <time>2015-03-22T08:53:13.000Z</time>
      </trkpt>
      <trkpt lat="47.49669" lon="6.72072">
        <ele>387</ele>
        <time>2015-03-22T08:53:14.000Z</time>
      </trkpt>
      <trkpt lat="47.49671" lon="6.72068">
        <ele>386</ele>
        <time>2015-03-22T08:53:16.000Z</time>
      </trkpt>
      <trkpt lat="47.49672" lon="6.72065">
        <ele>386</ele>
        <time>2015-03-22T08:53:17.000Z</time>
      </trkpt>
      <trkpt lat="47.49673" lon="6.7206">
        <ele>386</ele>
        <time>2015-03-22T08:53:19.000Z</time>
      </trkpt>
      <trkpt lat="47.49673" lon="6.72057">
        <ele>386</ele>
        <time>2015-03-22T08:53:20.000Z</time>
      </trkpt>
      <trkpt lat="47.49673" lon="6.72053">
        <ele>386</ele>
        <time>2015-03-22T08:53:21.000Z</time>
      </trkpt>
      <trkpt lat="47.49673" lon="6.72049">
        <ele>386</ele>
        <time>2015-03-22T08:53:22.000Z</time>
      </trkpt>
      <trkpt lat="47.49674" lon="6.72046">
        <ele>386</ele>
        <time>2015-03-22T08:53:23.000Z</time>
      </trkpt>
      <trkpt lat="47.49675" lon="6.72042">
        <ele>386</ele>
        <time>2015-03-22T08:53:24.000Z</time>
      </trkpt>
      <trkpt lat="47.49676" lon="6.72036">
        <ele>386</ele>
        <time>2015-03-22T08:53:26.000Z</time>
      </trkpt>
      <trkpt lat="47.49676" lon="6.72033">
        <ele>386</ele>
        <time>2015-03-22T08:53:27.000Z</time>
      </trkpt>
      <trkpt lat="47.49678" lon="6.72027">
        <ele>387</ele>
        <time>2015-03-22T08:53:29.000Z</time>
      </trkpt>
      <trkpt lat="47.49679" lon="6.72024">
        <ele>387</ele>
        <time>2015-03-22T08:53:30.000Z</time>
      </trkpt>
      <trkpt lat="47.4968" lon="6.72019">
        <ele>387</ele>
        <time>2015-03-22T08:53:32.000Z</time>
      </trkpt>
      <trkpt lat="47.49681" lon="6.72016">
        <ele>388</ele>
        <time>2015-03-22T08:53:33.000Z</time>
      </trkpt>
      <trkpt lat="47.49681" lon="6.72013">
        <ele>388</ele>
        <time>2015-03-22T08:53:34.000Z</time>
      </trkpt>
      <trkpt lat="47.49681" lon="6.72009">
        <ele>388</ele>
        <time>2015-03-22T08:53:35.000Z</time>
      </trkpt>
      <trkpt lat="47.49681" lon="6.72003">
        <ele>389</ele>
        <time>2015-03-22T08:53:37.000Z</time>
      </trkpt>
      <trkpt lat="47.49681" lon="6.72001">
        <ele>389</ele>
        <time>2015-03-22T08:53:38.000Z</time>
      </trkpt>
      <trkpt lat="47.49683" lon="6.71996">
        <ele>391</ele>
        <time>2015-03-22T08:53:40.000Z</time>
      </trkpt>
      <trkpt lat="47.49684" lon="6.71992">
        <ele>390</ele>
        <time>2015-03-22T08:53:41.000Z</time>
      </trkpt>
      <trkpt lat="47.49684" lon="6.71989">
        <ele>390</ele>
        <time>2015-03-22T08:53:42.000Z</time>
      </trkpt>
      <trkpt lat="47.49685" lon="6.71985">
        <ele>390</ele>
        <time>2015-03-22T08:53:43.000Z</time>
      </trkpt>
      <trkpt lat="47.49686" lon="6.71981">
        <ele>390</ele>
        <time>2015-03-22T08:53:44.000Z</time>
      </trkpt>
      <trkpt lat="47.49686" lon="6.71978">
        <ele>389</ele>
        <time>2015-03-22T08:53:45.000Z</time>
      </trkpt>
      <trkpt lat="47.49686" lon="6.71974">
        <ele>389</ele>
        <time>2015-03-22T08:53:46.000Z</time>
      </trkpt>
      <trkpt lat="47.49687" lon="6.71971">
        <ele>389</ele>
        <time>2015-03-22T08:53:47.000Z</time>
      </trkpt>
      <trkpt lat="47.49688" lon="6.71965">
        <ele>389</ele>
        <time>2015-03-22T08:53:49.000Z</time>
      </trkpt>
      <trkpt lat="47.49688" lon="6.71962">
        <ele>389</ele>
        <time>2015-03-22T08:53:50.000Z</time>
      </trkpt>
      <trkpt lat="47.49688" lon="6.71958">
        <ele>389</ele>
        <time>2015-03-22T08:53:51.000Z</time>
      </trkpt>
      <trkpt lat="47.49688" lon="6.71954">
        <ele>389</ele>
        <time>2015-03-22T08:53:52.000Z</time>
      </trkpt>
      <trkpt lat="47.49688" lon="6.7195">
        <ele>389</ele>
        <time>2015-03-22T08:53:53.000Z</time>
      </trkpt>
      <trkpt lat="47.49688" lon="6.71947">
        <ele>390</ele>
        <time>2015-03-22T08:53:54.000Z</time>
      </trkpt>
      <trkpt lat="47.49689" lon="6.71941">
        <ele>390</ele>
        <time>2015-03-22T08:53:56.000Z</time>
      </trkpt>
      <trkpt lat="47.4969" lon="6.71938">
        <ele>390</ele>
        <time>2015-03-22T08:53:57.000Z</time>
      </trkpt>
      <trkpt lat="47.4969" lon="6.71935">
        <ele>390</ele>
        <time>2015-03-22T08:53:58.000Z</time>
      </trkpt>
      <trkpt lat="47.49691" lon="6.71931">
        <ele>390</ele>
        <time>2015-03-22T08:53:59.000Z</time>
      </trkpt>
      <trkpt lat="47.49692" lon="6.71927">
        <ele>390</ele>
        <time>2015-03-22T08:54:00.000Z</time>
      </trkpt>
      <trkpt lat="47.49693" lon="6.71923">
        <ele>390</ele>
        <time>2015-03-22T08:54:01.000Z</time>
      </trkpt>
      <trkpt lat="47.49694" lon="6.71919">
        <ele>390</ele>
        <time>2015-03-22T08:54:02.000Z</time>
      </trkpt>
      <trkpt lat="47.49694" lon="6.71915">
        <ele>392</ele>
        <time>2015-03-22T08:54:03.000Z</time>
      </trkpt>
      <trkpt lat="47.49695" lon="6.71912">
        <ele>392</ele>
        <time>2015-03-22T08:54:04.000Z</time>
      </trkpt>
      <trkpt lat="47.49696" lon="6.71908">
        <ele>392</ele>
        <time>2015-03-22T08:54:05.000Z</time>
      </trkpt>
      <trkpt lat="47.49697" lon="6.71904">
        <ele>392</ele>
        <time>2015-03-22T08:54:06.000Z</time>
      </trkpt>
      <trkpt lat="47.49698" lon="6.719">
        <ele>391</ele>
        <time>2015-03-22T08:54:07.000Z</time>
      </trkpt>
      <trkpt lat="47.497" lon="6.71895">
        <ele>391</ele>
        <time>2015-03-22T08:54:08.000Z</time>
      </trkpt>
      <trkpt lat="47.49701" lon="6.71891">
        <ele>391</ele>
        <time>2015-03-22T08:54:09.000Z</time>
      </trkpt>
      <trkpt lat="47.49702" lon="6.71887">
        <ele>391</ele>
        <time>2015-03-22T08:54:10.000Z</time>
      </trkpt>
      <trkpt lat="47.49704" lon="6.71883">
        <ele>391</ele>
        <time>2015-03-22T08:54:11.000Z</time>
      </trkpt>
      <trkpt lat="47.49705" lon="6.71878">
        <ele>391</ele>
        <time>2015-03-22T08:54:12.000Z</time>
      </trkpt>
      <trkpt lat="47.49706" lon="6.71873">
        <ele>391</ele>
        <time>2015-03-22T08:54:13.000Z</time>
      </trkpt>
      <trkpt lat="47.49706" lon="6.71867">
        <ele>391</ele>
        <time>2015-03-22T08:54:14.000Z</time>
      </trkpt>
      <trkpt lat="47.49707" lon="6.71861">
        <ele>391</ele>
        <time>2015-03-22T08:54:15.000Z</time>
      </trkpt>
      <trkpt lat="47.49707" lon="6.71855">
        <ele>391</ele>
        <time>2015-03-22T08:54:16.000Z</time>
      </trkpt>
      <trkpt lat="47.49707" lon="6.71849">
        <ele>391</ele>
        <time>2015-03-22T08:54:17.000Z</time>
      </trkpt>
      <trkpt lat="47.49706" lon="6.71842">
        <ele>391</ele>
        <time>2015-03-22T08:54:18.000Z</time>
      </trkpt>
      <trkpt lat="47.49705" lon="6.71836">
        <ele>392</ele>
        <time>2015-03-22T08:54:19.000Z</time>
      </trkpt>
      <trkpt lat="47.49703" lon="6.7183">
        <ele>394</ele>
        <time>2015-03-22T08:54:20.000Z</time>
      </trkpt>
      <trkpt lat="47.49702" lon="6.71825">
        <ele>394</ele>
        <time>2015-03-22T08:54:21.000Z</time>
      </trkpt>
      <trkpt lat="47.49701" lon="6.71819">
        <ele>394</ele>
        <time>2015-03-22T08:54:22.000Z</time>
      </trkpt>
      <trkpt lat="47.49701" lon="6.71813">
        <ele>394</ele>
        <time>2015-03-22T08:54:23.000Z</time>
      </trkpt>
      <trkpt lat="47.49701" lon="6.71807">
        <ele>394</ele>
        <time>2015-03-22T08:54:24.000Z</time>
      </trkpt>
      <trkpt lat="47.49702" lon="6.718">
        <ele>394</ele>
        <time>2015-03-22T08:54:25.000Z</time>
      </trkpt>
      <trkpt lat="47.49702" lon="6.71781">
        <ele>395</ele>
        <time>2015-03-22T08:54:26.000Z</time>
      </trkpt>
      <trkpt lat="47.49701" lon="6.71773">
        <ele>395</ele>
        <time>2015-03-22T08:54:27.000Z</time>
      </trkpt>
      <trkpt lat="47.49701" lon="6.71766">
        <ele>396</ele>
        <time>2015-03-22T08:54:28.000Z</time>
      </trkpt>
      <trkpt lat="47.497" lon="6.71761">
        <ele>396</ele>
        <time>2015-03-22T08:54:29.000Z</time>
      </trkpt>
      <trkpt lat="47.497" lon="6.71754">
        <ele>396</ele>
        <time>2015-03-22T08:54:30.000Z</time>
      </trkpt>
      <trkpt lat="47.49699" lon="6.71748">
        <ele>399</ele>
        <time>2015-03-22T08:54:31.000Z</time>
      </trkpt>
      <trkpt lat="47.49699" lon="6.71742">
        <ele>399</ele>
        <time>2015-03-22T08:54:32.000Z</time>
      </trkpt>
      <trkpt lat="47.49701" lon="6.71738">
        <ele>399</ele>
        <time>2015-03-22T08:54:34.000Z</time>
      </trkpt>
      <trkpt lat="47.49702" lon="6.71735">
        <ele>399</ele>
        <time>2015-03-22T08:54:35.000Z</time>
      </trkpt>
      <trkpt lat="47.49703" lon="6.7173">
        <ele>399</ele>
        <time>2015-03-22T08:54:40.000Z</time>
      </trkpt>
      <trkpt lat="47.49703" lon="6.71729">
        <ele>399</ele>
        <time>2015-03-22T08:54:41.000Z</time>
      </trkpt>
      <trkpt lat="47.49705" lon="6.71724">
        <ele>398</ele>
        <time>2015-03-22T08:54:44.000Z</time>
      </trkpt>
      <trkpt lat="47.49706" lon="6.71722">
        <ele>398</ele>
        <time>2015-03-22T08:54:45.000Z</time>
      </trkpt>
      <trkpt lat="47.49708" lon="6.71718">
        <ele>398</ele>
        <time>2015-03-22T08:54:47.000Z</time>
      </trkpt>
      <trkpt lat="47.49708" lon="6.71715">
        <ele>398</ele>
        <time>2015-03-22T08:54:48.000Z</time>
      </trkpt>
      <trkpt lat="47.4971" lon="6.7171">
        <ele>398</ele>
        <time>2015-03-22T08:54:51.000Z</time>
      </trkpt>
      <trkpt lat="47.49711" lon="6.71709">
        <ele>398</ele>
        <time>2015-03-22T08:54:52.000Z</time>
      </trkpt>
      <trkpt lat="47.49713" lon="6.71703">
        <ele>398</ele>
        <time>2015-03-22T08:55:21.000Z</time>
      </trkpt>
      <trkpt lat="47.49713" lon="6.71703">
        <ele>398</ele>
        <time>2015-03-22T08:55:22.000Z</time>
      </trkpt>
      <trkpt lat="47.49715" lon="6.71698">
        <ele>398</ele>
        <time>2015-03-22T08:55:33.000Z</time>
      </trkpt>
      <trkpt lat="47.49716" lon="6.71697">
        <ele>398</ele>
        <time>2015-03-22T08:55:34.000Z</time>
      </trkpt>
      <trkpt lat="47.49717" lon="6.71691">
        <ele>398</ele>
        <time>2015-03-22T08:55:41.000Z</time>
      </trkpt>
      <trkpt lat="47.49717" lon="6.7169">
        <ele>398</ele>
        <time>2015-03-22T08:55:42.000Z</time>
      </trkpt>
      <trkpt lat="47.49717" lon="6.71685">
        <ele>398</ele>
        <time>2015-03-22T08:56:10.000Z</time>
      </trkpt>
      <trkpt lat="47.49717" lon="6.71683">
        <ele>398</ele>
        <time>2015-03-22T08:56:11.000Z</time>
      </trkpt>
      <trkpt lat="47.49718" lon="6.71678">
        <ele>397</ele>
        <time>2015-03-22T08:56:13.000Z</time>
      </trkpt>
      <trkpt lat="47.49718" lon="6.71675">
        <ele>397</ele>
        <time>2015-03-22T08:56:14.000Z</time>
      </trkpt>
      <trkpt lat="47.4972" lon="6.71669">
        <ele>397</ele>
        <time>2015-03-22T08:56:16.000Z</time>
      </trkpt>
      <trkpt lat="47.4972" lon="6.71666">
        <ele>400</ele>
        <time>2015-03-22T08:56:17.000Z</time>
      </trkpt>
      <trkpt lat="47.49719" lon="6.71663">
        <ele>400</ele>
        <time>2015-03-22T08:56:18.000Z</time>
      </trkpt>
      <trkpt lat="47.49719" lon="6.7166">
        <ele>401</ele>
        <time>2015-03-22T08:56:19.000Z</time>
      </trkpt>
      <trkpt lat="47.49719" lon="6.71656">
        <ele>401</ele>
        <time>2015-03-22T08:56:20.000Z</time>
      </trkpt>
      <trkpt lat="47.49719" lon="6.71652">
        <ele>401</ele>
        <time>2015-03-22T08:56:21.000Z</time>
      </trkpt>
      <trkpt lat="47.49719" lon="6.71648">
        <ele>401</ele>
        <time>2015-03-22T08:56:22.000Z</time>
      </trkpt>
      <trkpt lat="47.49719" lon="6.71644">
        <ele>402</ele>
        <time>2015-03-22T08:56:23.000Z</time>
      </trkpt>
      <trkpt lat="47.49719" lon="6.7164">
        <ele>402</ele>
        <time>2015-03-22T08:56:24.000Z</time>
      </trkpt>
      <trkpt lat="47.49719" lon="6.71635">
        <ele>402</ele>
        <time>2015-03-22T08:56:25.000Z</time>
      </trkpt>
      <trkpt lat="47.4972" lon="6.71631">
        <ele>402</ele>
        <time>2015-03-22T08:56:26.000Z</time>
      </trkpt>
      <trkpt lat="47.49722" lon="6.71627">
        <ele>402</ele>
        <time>2015-03-22T08:56:27.000Z</time>
      </trkpt>
      <trkpt lat="47.49724" lon="6.71623">
        <ele>402</ele>
        <time>2015-03-22T08:56:28.000Z</time>
      </trkpt>
      <trkpt lat="47.49726" lon="6.71619">
        <ele>401</ele>
        <time>2015-03-22T08:56:29.000Z</time>
      </trkpt>
      <trkpt lat="47.49727" lon="6.71616">
        <ele>401</ele>
        <time>2015-03-22T08:56:30.000Z</time>
      </trkpt>
      <trkpt lat="47.49728" lon="6.71613">
        <ele>401</ele>
        <time>2015-03-22T08:56:31.000Z</time>
      </trkpt>
      <trkpt lat="47.4973" lon="6.7161">
        <ele>401</ele>
        <time>2015-03-22T08:56:32.000Z</time>
      </trkpt>
      <trkpt lat="47.49731" lon="6.71607">
        <ele>400</ele>
        <time>2015-03-22T08:56:33.000Z</time>
      </trkpt>
      <trkpt lat="47.49732" lon="6.71604">
        <ele>400</ele>
        <time>2015-03-22T08:56:34.000Z</time>
      </trkpt>
      <trkpt lat="47.49733" lon="6.716">
        <ele>399</ele>
        <time>2015-03-22T08:56:35.000Z</time>
      </trkpt>
      <trkpt lat="47.49735" lon="6.71596">
        <ele>398</ele>
        <time>2015-03-22T08:56:36.000Z</time>
      </trkpt>
      <trkpt lat="47.49736" lon="6.71592">
        <ele>397</ele>
        <time>2015-03-22T08:56:37.000Z</time>
      </trkpt>
      <trkpt lat="47.49738" lon="6.71588">
        <ele>396</ele>
        <time>2015-03-22T08:56:38.000Z</time>
      </trkpt>
      <trkpt lat="47.49739" lon="6.71583">
        <ele>398</ele>
        <time>2015-03-22T08:56:39.000Z</time>
      </trkpt>
      <trkpt lat="47.4974" lon="6.71579">
        <ele>398</ele>
        <time>2015-03-22T08:56:40.000Z</time>
      </trkpt>
      <trkpt lat="47.49741" lon="6.71574">
        <ele>399</ele>
        <time>2015-03-22T08:56:41.000Z</time>
      </trkpt>
      <trkpt lat="47.49742" lon="6.71569">
        <ele>401</ele>
        <time>2015-03-22T08:56:42.000Z</time>
      </trkpt>
      <trkpt lat="47.49743" lon="6.71563">
        <ele>402</ele>
        <time>2015-03-22T08:56:43.000Z</time>
      </trkpt>
      <trkpt lat="47.49744" lon="6.71557">
        <ele>404</ele>
        <time>2015-03-22T08:56:44.000Z</time>
      </trkpt>
      <trkpt lat="47.49745" lon="6.71551">
        <ele>405</ele>
        <time>2015-03-22T08:56:45.000Z</time>
      </trkpt>
      <trkpt lat="47.49746" lon="6.71546">
        <ele>406</ele>
        <time>2015-03-22T08:56:46.000Z</time>
      </trkpt>
      <trkpt lat="47.49747" lon="6.7154">
        <ele>406</ele>
        <time>2015-03-22T08:56:47.000Z</time>
      </trkpt>
      <trkpt lat="47.49748" lon="6.71535">
        <ele>406</ele>
        <time>2015-03-22T08:56:48.000Z</time>
      </trkpt>
      <trkpt lat="47.49749" lon="6.7153">
        <ele>406</ele>
        <time>2015-03-22T08:56:49.000Z</time>
      </trkpt>
      <trkpt lat="47.49751" lon="6.71526">
        <ele>390</ele>
        <time>2015-03-22T08:56:50.000Z</time>
      </trkpt>
      <trkpt lat="47.49752" lon="6.71523">
        <ele>391</ele>
        <time>2015-03-22T08:56:51.000Z</time>
      </trkpt>
      <trkpt lat="47.49754" lon="6.71519">
        <ele>392</ele>
        <time>2015-03-22T08:56:52.000Z</time>
      </trkpt>
      <trkpt lat="47.49756" lon="6.71514">
        <ele>393</ele>
        <time>2015-03-22T08:56:53.000Z</time>
      </trkpt>
      <trkpt lat="47.49757" lon="6.71509">
        <ele>394</ele>
        <time>2015-03-22T08:56:54.000Z</time>
      </trkpt>
      <trkpt lat="47.49759" lon="6.71502">
        <ele>395</ele>
        <time>2015-03-22T08:56:55.000Z</time>
      </trkpt>
      <trkpt lat="47.4976" lon="6.71496">
        <ele>397</ele>
        <time>2015-03-22T08:56:56.000Z</time>
      </trkpt>
      <trkpt lat="47.49761" lon="6.7149">
        <ele>396</ele>
        <time>2015-03-22T08:56:57.000Z</time>
      </trkpt>
      <trkpt lat="47.49761" lon="6.71484">
        <ele>395</ele>
        <time>2015-03-22T08:56:58.000Z</time>
      </trkpt>
      <trkpt lat="47.49761" lon="6.71478">
        <ele>394</ele>
        <time>2015-03-22T08:56:59.000Z</time>
      </trkpt>
      <trkpt lat="47.4976" lon="6.71471">
        <ele>394</ele>
        <time>2015-03-22T08:57:00.000Z</time>
      </trkpt>
      <trkpt lat="47.49759" lon="6.71465">
        <ele>394</ele>
        <time>2015-03-22T08:57:01.000Z</time>
      </trkpt>
      <trkpt lat="47.49759" lon="6.7146">
        <ele>394</ele>
        <time>2015-03-22T08:57:02.000Z</time>
      </trkpt>
      <trkpt lat="47.49759" lon="6.71456">
        <ele>394</ele>
        <time>2015-03-22T08:57:03.000Z</time>
      </trkpt>
      <trkpt lat="47.49758" lon="6.71451">
        <ele>395</ele>
        <time>2015-03-22T08:57:04.000Z</time>
      </trkpt>
      <trkpt lat="47.49758" lon="6.71446">
        <ele>395</ele>
        <time>2015-03-22T08:57:05.000Z</time>
      </trkpt>
      <trkpt lat="47.49758" lon="6.71441">
        <ele>396</ele>
        <time>2015-03-22T08:57:06.000Z</time>
      </trkpt>
      <trkpt lat="47.49757" lon="6.71434">
        <ele>398</ele>
        <time>2015-03-22T08:57:07.000Z</time>
      </trkpt>
      <trkpt lat="47.49757" lon="6.71428">
        <ele>400</ele>
        <time>2015-03-22T08:57:08.000Z</time>
      </trkpt>
      <trkpt lat="47.49757" lon="6.71422">
        <ele>402</ele>
        <time>2015-03-22T08:57:09.000Z</time>
      </trkpt>
      <trkpt lat="47.49757" lon="6.71416">
        <ele>403</ele>
        <time>2015-03-22T08:57:10.000Z</time>
      </trkpt>
      <trkpt lat="47.49756" lon="6.71409">
        <ele>402</ele>
        <time>2015-03-22T08:57:11.000Z</time>
      </trkpt>
      <trkpt lat="47.49756" lon="6.71405">
        <ele>401</ele>
        <time>2015-03-22T08:57:11.999Z</time>
      </trkpt>
      <trkpt lat="47.49756" lon="6.71397">
        <ele>399</ele>
        <time>2015-03-22T08:57:13.000Z</time>
      </trkpt>
      <trkpt lat="47.49755" lon="6.71392">
        <ele>398</ele>
        <time>2015-03-22T08:57:14.000Z</time>
      </trkpt>
      <trkpt lat="47.49755" lon="6.71387">
        <ele>398</ele>
        <time>2015-03-22T08:57:15.000Z</time>
      </trkpt>
      <trkpt lat="47.49755" lon="6.71382">
        <ele>398</ele>
        <time>2015-03-22T08:57:16.000Z</time>
      </trkpt>
      <trkpt lat="47.49755" lon="6.71378">
        <ele>397</ele>
        <time>2015-03-22T08:57:17.000Z</time>
      </trkpt>
      <trkpt lat="47.49755" lon="6.71373">
        <ele>397</ele>
        <time>2015-03-22T08:57:18.000Z</time>
      </trkpt>
      <trkpt lat="47.49755" lon="6.71368">
        <ele>398</ele>
        <time>2015-03-22T08:57:19.000Z</time>
      </trkpt>
      <trkpt lat="47.49755" lon="6.71363">
        <ele>398</ele>
        <time>2015-03-22T08:57:20.000Z</time>
      </trkpt>
      <trkpt lat="47.49754" lon="6.71358">
        <ele>399</ele>
        <time>2015-03-22T08:57:21.000Z</time>
      </trkpt>
      <trkpt lat="47.49754" lon="6.71352">
        <ele>400</ele>
        <time>2015-03-22T08:57:22.000Z</time>
      </trkpt>
      <trkpt lat="47.49752" lon="6.71347">
        <ele>402</ele>
        <time>2015-03-22T08:57:23.000Z</time>
      </trkpt>
      <trkpt lat="47.49751" lon="6.71342">
        <ele>404</ele>
        <time>2015-03-22T08:57:24.000Z</time>
      </trkpt>
      <trkpt lat="47.49749" lon="6.71337">
        <ele>410</ele>
        <time>2015-03-22T08:57:25.000Z</time>
      </trkpt>
      <trkpt lat="47.49748" lon="6.71332">
        <ele>409</ele>
        <time>2015-03-22T08:57:26.000Z</time>
      </trkpt>
      <trkpt lat="47.49747" lon="6.71327">
        <ele>411</ele>
        <time>2015-03-22T08:57:27.000Z</time>
      </trkpt>
      <trkpt lat="47.49747" lon="6.71321">
        <ele>413</ele>
        <time>2015-03-22T08:57:28.000Z</time>
      </trkpt>
      <trkpt lat="47.49746" lon="6.71316">
        <ele>414</ele>
        <time>2015-03-22T08:57:29.000Z</time>
      </trkpt>
      <trkpt lat="47.49746" lon="6.7131">
        <ele>415</ele>
        <time>2015-03-22T08:57:30.000Z</time>
      </trkpt>
      <trkpt lat="47.49745" lon="6.71305">
        <ele>415</ele>
        <time>2015-03-22T08:57:31.000Z</time>
      </trkpt>
      <trkpt lat="47.49743" lon="6.713">
        <ele>415</ele>
        <time>2015-03-22T08:57:32.000Z</time>
      </trkpt>
      <trkpt lat="47.49742" lon="6.71295">
        <ele>415</ele>
        <time>2015-03-22T08:57:33.000Z</time>
      </trkpt>
      <trkpt lat="47.4974" lon="6.71291">
        <ele>415</ele>
        <time>2015-03-22T08:57:34.000Z</time>
      </trkpt>
      <trkpt lat="47.49739" lon="6.71286">
        <ele>415</ele>
        <time>2015-03-22T08:57:35.000Z</time>
      </trkpt>
      <trkpt lat="47.49737" lon="6.71281">
        <ele>415</ele>
        <time>2015-03-22T08:57:36.000Z</time>
      </trkpt>
      <trkpt lat="47.49736" lon="6.71277">
        <ele>414</ele>
        <time>2015-03-22T08:57:37.000Z</time>
      </trkpt>
      <trkpt lat="47.49735" lon="6.71273">
        <ele>414</ele>
        <time>2015-03-22T08:57:38.000Z</time>
      </trkpt>
      <trkpt lat="47.49735" lon="6.71268">
        <ele>413</ele>
        <time>2015-03-22T08:57:39.000Z</time>
      </trkpt>
      <trkpt lat="47.49736" lon="6.71264">
        <ele>412</ele>
        <time>2015-03-22T08:57:40.000Z</time>
      </trkpt>
      <trkpt lat="47.49737" lon="6.7126">
        <ele>411</ele>
        <time>2015-03-22T08:57:41.000Z</time>
      </trkpt>
      <trkpt lat="47.49738" lon="6.71255">
        <ele>409</ele>
        <time>2015-03-22T08:57:42.000Z</time>
      </trkpt>
      <trkpt lat="47.4974" lon="6.7125">
        <ele>406</ele>
        <time>2015-03-22T08:57:43.000Z</time>
      </trkpt>
      <trkpt lat="47.49741" lon="6.71244">
        <ele>406</ele>
        <time>2015-03-22T08:57:44.000Z</time>
      </trkpt>
      <trkpt lat="47.49741" lon="6.71238">
        <ele>407</ele>
        <time>2015-03-22T08:57:45.000Z</time>
      </trkpt>
      <trkpt lat="47.49741" lon="6.71233">
        <ele>408</ele>
        <time>2015-03-22T08:57:46.000Z</time>
      </trkpt>
      <trkpt lat="47.4974" lon="6.71226">
        <ele>409</ele>
        <time>2015-03-22T08:57:47.000Z</time>
      </trkpt>
      <trkpt lat="47.49738" lon="6.7122">
        <ele>410</ele>
        <time>2015-03-22T08:57:48.000Z</time>
      </trkpt>
      <trkpt lat="47.49737" lon="6.71213">
        <ele>410</ele>
        <time>2015-03-22T08:57:49.000Z</time>
      </trkpt>
      <trkpt lat="47.49736" lon="6.71206">
        <ele>410</ele>
        <time>2015-03-22T08:57:50.000Z</time>
      </trkpt>
      <trkpt lat="47.49735" lon="6.712">
        <ele>410</ele>
        <time>2015-03-22T08:57:51.000Z</time>
      </trkpt>
      <trkpt lat="47.49735" lon="6.71195">
        <ele>409</ele>
        <time>2015-03-22T08:57:52.000Z</time>
      </trkpt>
      <trkpt lat="47.49734" lon="6.71189">
        <ele>408</ele>
        <time>2015-03-22T08:57:53.000Z</time>
      </trkpt>
      <trkpt lat="47.49734" lon="6.71183">
        <ele>407</ele>
        <time>2015-03-22T08:57:54.000Z</time>
      </trkpt>
      <trkpt lat="47.49733" lon="6.71177">
        <ele>406</ele>
        <time>2015-03-22T08:57:55.000Z</time>
      </trkpt>
      <trkpt lat="47.49733" lon="6.71171">
        <ele>406</ele>
        <time>2015-03-22T08:57:56.000Z</time>
      </trkpt>
      <trkpt lat="47.49732" lon="6.71164">
        <ele>404</ele>
        <time>2015-03-22T08:57:57.000Z</time>
      </trkpt>
      <trkpt lat="47.49732" lon="6.71158">
        <ele>404</ele>
        <time>2015-03-22T08:57:58.000Z</time>
      </trkpt>
      <trkpt lat="47.49731" lon="6.71153">
        <ele>405</ele>
        <time>2015-03-22T08:57:59.000Z</time>
      </trkpt>
      <trkpt lat="47.49729" lon="6.71148">
        <ele>406</ele>
        <time>2015-03-22T08:58:00.000Z</time>
      </trkpt>
      <trkpt lat="47.49728" lon="6.71142">
        <ele>407</ele>
        <time>2015-03-22T08:58:01.000Z</time>
      </trkpt>
      <trkpt lat="47.49727" lon="6.71137">
        <ele>407</ele>
        <time>2015-03-22T08:58:02.000Z</time>
      </trkpt>
      <trkpt lat="47.49726" lon="6.71131">
        <ele>408</ele>
        <time>2015-03-22T08:58:03.000Z</time>
      </trkpt>
      <trkpt lat="47.49725" lon="6.71126">
        <ele>408</ele>
        <time>2015-03-22T08:58:04.000Z</time>
      </trkpt>
      <trkpt lat="47.49725" lon="6.7112">
        <ele>407</ele>
        <time>2015-03-22T08:58:05.000Z</time>
      </trkpt>
      <trkpt lat="47.49726" lon="6.71114">
        <ele>407</ele>
        <time>2015-03-22T08:58:06.000Z</time>
      </trkpt>
      <trkpt lat="47.49727" lon="6.71108">
        <ele>406</ele>
        <time>2015-03-22T08:58:07.000Z</time>
      </trkpt>
      <trkpt lat="47.49727" lon="6.71103">
        <ele>406</ele>
        <time>2015-03-22T08:58:08.000Z</time>
      </trkpt>
      <trkpt lat="47.49728" lon="6.71098">
        <ele>405</ele>
        <time>2015-03-22T08:58:09.000Z</time>
      </trkpt>
      <trkpt lat="47.49728" lon="6.71092">
        <ele>404</ele>
        <time>2015-03-22T08:58:10.000Z</time>
      </trkpt>
      <trkpt lat="47.49729" lon="6.71086">
        <ele>404</ele>
        <time>2015-03-22T08:58:11.000Z</time>
      </trkpt>
      <trkpt lat="47.49729" lon="6.71081">
        <ele>402</ele>
        <time>2015-03-22T08:58:12.000Z</time>
      </trkpt>
      <trkpt lat="47.49729" lon="6.71075">
        <ele>402</ele>
        <time>2015-03-22T08:58:13.000Z</time>
      </trkpt>
      <trkpt lat="47.49728" lon="6.71068">
        <ele>402</ele>
        <time>2015-03-22T08:58:14.000Z</time>
      </trkpt>
      <trkpt lat="47.49728" lon="6.71063">
        <ele>403</ele>
        <time>2015-03-22T08:58:15.000Z</time>
      </trkpt>
      <trkpt lat="47.49728" lon="6.71057">
        <ele>403</ele>
        <time>2015-03-22T08:58:16.000Z</time>
      </trkpt>
      <trkpt lat="47.49727" lon="6.71052">
        <ele>403</ele>
        <time>2015-03-22T08:58:17.000Z</time>
      </trkpt>
      <trkpt lat="47.49727" lon="6.71047">
        <ele>404</ele>
        <time>2015-03-22T08:58:18.000Z</time>
      </trkpt>
      <trkpt lat="47.49727" lon="6.71043">
        <ele>403</ele>
        <time>2015-03-22T08:58:19.000Z</time>
      </trkpt>
      <trkpt lat="47.49727" lon="6.71038">
        <ele>403</ele>
        <time>2015-03-22T08:58:20.000Z</time>
      </trkpt>
      <trkpt lat="47.49727" lon="6.71033">
        <ele>403</ele>
        <time>2015-03-22T08:58:21.000Z</time>
      </trkpt>
      <trkpt lat="47.49727" lon="6.71027">
        <ele>403</ele>
        <time>2015-03-22T08:58:22.000Z</time>
      </trkpt>
      <trkpt lat="47.49726" lon="6.71021">
        <ele>402</ele>
        <time>2015-03-22T08:58:23.000Z</time>
      </trkpt>
      <trkpt lat="47.49726" lon="6.71016">
        <ele>402</ele>
        <time>2015-03-22T08:58:24.000Z</time>
      </trkpt>
      <trkpt lat="47.49725" lon="6.71012">
        <ele>402</ele>
        <time>2015-03-22T08:58:25.000Z</time>
      </trkpt>
      <trkpt lat="47.49725" lon="6.71008">
        <ele>401</ele>
        <time>2015-03-22T08:58:26.000Z</time>
      </trkpt>
      <trkpt lat="47.49725" lon="6.71004">
        <ele>401</ele>
        <time>2015-03-22T08:58:27.000Z</time>
      </trkpt>
      <trkpt lat="47.49724" lon="6.71">
        <ele>398</ele>
        <time>2015-03-22T08:58:28.000Z</time>
      </trkpt>
      <trkpt lat="47.49724" lon="6.70996">
        <ele>398</ele>
        <time>2015-03-22T08:58:29.000Z</time>
      </trkpt>
      <trkpt lat="47.49724" lon="6.70991">
        <ele>398</ele>
        <time>2015-03-22T08:58:30.000Z</time>
      </trkpt>
      <trkpt lat="47.49723" lon="6.70987">
        <ele>398</ele>
        <time>2015-03-22T08:58:31.000Z</time>
      </trkpt>
      <trkpt lat="47.49722" lon="6.70984">
        <ele>399</ele>
        <time>2015-03-22T08:58:32.000Z</time>
      </trkpt>
      <trkpt lat="47.49722" lon="6.7098">
        <ele>399</ele>
        <time>2015-03-22T08:58:33.000Z</time>
      </trkpt>
      <trkpt lat="47.49721" lon="6.70977">
        <ele>399</ele>
        <time>2015-03-22T08:58:34.000Z</time>
      </trkpt>
      <trkpt lat="47.49721" lon="6.70973">
        <ele>399</ele>
        <time>2015-03-22T08:58:35.000Z</time>
      </trkpt>
      <trkpt lat="47.4972" lon="6.70969">
        <ele>399</ele>
        <time>2015-03-22T08:58:36.000Z</time>
      </trkpt>
      <trkpt lat="47.49719" lon="6.70965">
        <ele>399</ele>
        <time>2015-03-22T08:58:37.000Z</time>
      </trkpt>
      <trkpt lat="47.49718" lon="6.70961">
        <ele>399</ele>
        <time>2015-03-22T08:58:38.000Z</time>
      </trkpt>
      <trkpt lat="47.49717" lon="6.70956">
        <ele>399</ele>
        <time>2015-03-22T08:58:39.000Z</time>
      </trkpt>
      <trkpt lat="47.49716" lon="6.70952">
        <ele>399</ele>
        <time>2015-03-22T08:58:40.000Z</time>
      </trkpt>
      <trkpt lat="47.49715" lon="6.70948">
        <ele>399</ele>
        <time>2015-03-22T08:58:41.000Z</time>
      </trkpt>
      <trkpt lat="47.49714" lon="6.70944">
        <ele>399</ele>
        <time>2015-03-22T08:58:42.000Z</time>
      </trkpt>
      <trkpt lat="47.49713" lon="6.7094">
        <ele>399</ele>
        <time>2015-03-22T08:58:43.000Z</time>
      </trkpt>
      <trkpt lat="47.49712" lon="6.70936">
        <ele>399</ele>
        <time>2015-03-22T08:58:44.000Z</time>
      </trkpt>
      <trkpt lat="47.49711" lon="6.70932">
        <ele>399</ele>
        <time>2015-03-22T08:58:45.000Z</time>
      </trkpt>
      <trkpt lat="47.4971" lon="6.70928">
        <ele>399</ele>
        <time>2015-03-22T08:58:46.000Z</time>
      </trkpt>
      <trkpt lat="47.4971" lon="6.70923">
        <ele>399</ele>
        <time>2015-03-22T08:58:47.000Z</time>
      </trkpt>
      <trkpt lat="47.49709" lon="6.70917">
        <ele>399</ele>
        <time>2015-03-22T08:58:48.000Z</time>
      </trkpt>
      <trkpt lat="47.49708" lon="6.70912">
        <ele>396</ele>
        <time>2015-03-22T08:58:49.000Z</time>
      </trkpt>
      <trkpt lat="47.49706" lon="6.70907">
        <ele>396</ele>
        <time>2015-03-22T08:58:50.000Z</time>
      </trkpt>
      <trkpt lat="47.49705" lon="6.70901">
        <ele>397</ele>
        <time>2015-03-22T08:58:51.000Z</time>
      </trkpt>
      <trkpt lat="47.49703" lon="6.70895">
        <ele>397</ele>
        <time>2015-03-22T08:58:52.000Z</time>
      </trkpt>
      <trkpt lat="47.49701" lon="6.70889">
        <ele>397</ele>
        <time>2015-03-22T08:58:53.000Z</time>
      </trkpt>
      <trkpt lat="47.49699" lon="6.70883">
        <ele>397</ele>
        <time>2015-03-22T08:58:54.000Z</time>
      </trkpt>
      <trkpt lat="47.49697" lon="6.70876">
        <ele>397</ele>
        <time>2015-03-22T08:58:55.000Z</time>
      </trkpt>
      <trkpt lat="47.49696" lon="6.7087">
        <ele>397</ele>
        <time>2015-03-22T08:58:56.000Z</time>
      </trkpt>
      <trkpt lat="47.49695" lon="6.70864">
        <ele>397</ele>
        <time>2015-03-22T08:58:57.000Z</time>
      </trkpt>
      <trkpt lat="47.49694" lon="6.70859">
        <ele>397</ele>
        <time>2015-03-22T08:58:58.000Z</time>
      </trkpt>
      <trkpt lat="47.49694" lon="6.70853">
        <ele>398</ele>
        <time>2015-03-22T08:58:59.000Z</time>
      </trkpt>
      <trkpt lat="47.49693" lon="6.70848">
        <ele>398</ele>
        <time>2015-03-22T08:59:00.000Z</time>
      </trkpt>
      <trkpt lat="47.49692" lon="6.70842">
        <ele>398</ele>
        <time>2015-03-22T08:59:01.000Z</time>
      </trkpt>
      <trkpt lat="47.4969" lon="6.70836">
        <ele>399</ele>
        <time>2015-03-22T08:59:02.000Z</time>
      </trkpt>
      <trkpt lat="47.49689" lon="6.70831">
        <ele>397</ele>
        <time>2015-03-22T08:59:03.000Z</time>
      </trkpt>
      <trkpt lat="47.49687" lon="6.70825">
        <ele>397</ele>
        <time>2015-03-22T08:59:04.000Z</time>
      </trkpt>
      <trkpt lat="47.49686" lon="6.7082">
        <ele>396</ele>
        <time>2015-03-22T08:59:05.000Z</time>
      </trkpt>
      <trkpt lat="47.49685" lon="6.70816">
        <ele>396</ele>
        <time>2015-03-22T08:59:06.000Z</time>
      </trkpt>
      <trkpt lat="47.49684" lon="6.70812">
        <ele>396</ele>
        <time>2015-03-22T08:59:07.000Z</time>
      </trkpt>
      <trkpt lat="47.49683" lon="6.70806">
        <ele>395</ele>
        <time>2015-03-22T08:59:09.000Z</time>
      </trkpt>
      <trkpt lat="47.49682" lon="6.70803">
        <ele>395</ele>
        <time>2015-03-22T08:59:10.000Z</time>
      </trkpt>
      <trkpt lat="47.49681" lon="6.70799">
        <ele>395</ele>
        <time>2015-03-22T08:59:12.000Z</time>
      </trkpt>
      <trkpt lat="47.49681" lon="6.70797">
        <ele>395</ele>
        <time>2015-03-22T08:59:13.000Z</time>
      </trkpt>
      <trkpt lat="47.49679" lon="6.70791">
        <ele>395</ele>
        <time>2015-03-22T08:59:43.000Z</time>
      </trkpt>
      <trkpt lat="47.49679" lon="6.70791">
        <ele>395</ele>
        <time>2015-03-22T08:59:44.000Z</time>
      </trkpt>
      <trkpt lat="47.4968" lon="6.70787">
        <ele>394</ele>
        <time>2015-03-22T09:00:44.000Z</time>
      </trkpt>
      <trkpt lat="47.4968" lon="6.70784">
        <ele>394</ele>
        <time>2015-03-22T09:00:45.000Z</time>
      </trkpt>
      <trkpt lat="47.49681" lon="6.70778">
        <ele>394</ele>
        <time>2015-03-22T09:00:46.000Z</time>
      </trkpt>
      <trkpt lat="47.49682" lon="6.70772">
        <ele>394</ele>
        <time>2015-03-22T09:00:47.000Z</time>
      </trkpt>
      <trkpt lat="47.49682" lon="6.70765">
        <ele>394</ele>
        <time>2015-03-22T09:00:48.000Z</time>
      </trkpt>
      <trkpt lat="47.49683" lon="6.70757">
        <ele>395</ele>
        <time>2015-03-22T09:00:49.000Z</time>
      </trkpt>
      <trkpt lat="47.49682" lon="6.70742">
        <ele>392</ele>
        <time>2015-03-22T09:00:50.000Z</time>
      </trkpt>
      <trkpt lat="47.49681" lon="6.70732">
        <ele>391</ele>
        <time>2015-03-22T09:00:51.000Z</time>
      </trkpt>
      <trkpt lat="47.49681" lon="6.70723">
        <ele>390</ele>
        <time>2015-03-22T09:00:52.000Z</time>
      </trkpt>
      <trkpt lat="47.49682" lon="6.70711">
        <ele>389</ele>
        <time>2015-03-22T09:00:53.000Z</time>
      </trkpt>
      <trkpt lat="47.49691" lon="6.70704">
        <ele>388</ele>
        <time>2015-03-22T09:00:54.000Z</time>
      </trkpt>
      <trkpt lat="47.49697" lon="6.70698">
        <ele>388</ele>
        <time>2015-03-22T09:00:55.000Z</time>
      </trkpt>
      <trkpt lat="47.49704" lon="6.70694">
        <ele>387</ele>
        <time>2015-03-22T09:00:56.000Z</time>
      </trkpt>
      <trkpt lat="47.49711" lon="6.70692">
        <ele>386</ele>
        <time>2015-03-22T09:00:57.000Z</time>
      </trkpt>
      <trkpt lat="47.49717" lon="6.70689">
        <ele>385</ele>
        <time>2015-03-22T09:00:58.000Z</time>
      </trkpt>
      <trkpt lat="47.49723" lon="6.70684">
        <ele>384</ele>
        <time>2015-03-22T09:00:59.000Z</time>
      </trkpt>
      <trkpt lat="47.49729" lon="6.70681">
        <ele>383</ele>
        <time>2015-03-22T09:01:00.000Z</time>
      </trkpt>
      <trkpt lat="47.49735" lon="6.70677">
        <ele>382</ele>
        <time>2015-03-22T09:01:01.000Z</time>
      </trkpt>
      <trkpt lat="47.49742" lon="6.70672">
        <ele>380</ele>
        <time>2015-03-22T09:01:02.000Z</time>
      </trkpt>
      <trkpt lat="47.49748" lon="6.70669">
        <ele>378</ele>
        <time>2015-03-22T09:01:03.000Z</time>
      </trkpt>
      <trkpt lat="47.49754" lon="6.70664">
        <ele>377</ele>
        <time>2015-03-22T09:01:04.000Z</time>
      </trkpt>
      <trkpt lat="47.49761" lon="6.70659">
        <ele>376</ele>
        <time>2015-03-22T09:01:05.000Z</time>
      </trkpt>
      <trkpt lat="47.49763" lon="6.70654">
        <ele>376</ele>
        <time>2015-03-22T09:01:06.000Z</time>
      </trkpt>
      <trkpt lat="47.4977" lon="6.7065">
        <ele>376</ele>
        <time>2015-03-22T09:01:07.000Z</time>
      </trkpt>
      <trkpt lat="47.49776" lon="6.70644">
        <ele>375</ele>
        <time>2015-03-22T09:01:08.000Z</time>
      </trkpt>
      <trkpt lat="47.49783" lon="6.70639">
        <ele>375</ele>
        <time>2015-03-22T09:01:09.000Z</time>
      </trkpt>
      <trkpt lat="47.49789" lon="6.70635">
        <ele>375</ele>
        <time>2015-03-22T09:01:10.000Z</time>
      </trkpt>
      <trkpt lat="47.49794" lon="6.70631">
        <ele>375</ele>
        <time>2015-03-22T09:01:11.000Z</time>
      </trkpt>
      <trkpt lat="47.49801" lon="6.70625">
        <ele>375</ele>
        <time>2015-03-22T09:01:12.000Z</time>
      </trkpt>
      <trkpt lat="47.49807" lon="6.7062">
        <ele>375</ele>
        <time>2015-03-22T09:01:13.000Z</time>
      </trkpt>
      <trkpt lat="47.49812" lon="6.70614">
        <ele>374</ele>
        <time>2015-03-22T09:01:14.000Z</time>
      </trkpt>
      <trkpt lat="47.49817" lon="6.70608">
        <ele>374</ele>
        <time>2015-03-22T09:01:15.000Z</time>
      </trkpt>
      <trkpt lat="47.49821" lon="6.70603">
        <ele>374</ele>
        <time>2015-03-22T09:01:16.000Z</time>
      </trkpt>
      <trkpt lat="47.49827" lon="6.70598">
        <ele>374</ele>
        <time>2015-03-22T09:01:17.000Z</time>
      </trkpt>
      <trkpt lat="47.49831" lon="6.70594">
        <ele>374</ele>
        <time>2015-03-22T09:01:18.000Z</time>
      </trkpt>
      <trkpt lat="47.49836" lon="6.70589">
        <ele>374</ele>
        <time>2015-03-22T09:01:19.000Z</time>
      </trkpt>
      <trkpt lat="47.4984" lon="6.70584">
        <ele>374</ele>
        <time>2015-03-22T09:01:20.000Z</time>
      </trkpt>
      <trkpt lat="47.49844" lon="6.70578">
        <ele>374</ele>
        <time>2015-03-22T09:01:21.000Z</time>
      </trkpt>
      <trkpt lat="47.49848" lon="6.70571">
        <ele>374</ele>
        <time>2015-03-22T09:01:22.000Z</time>
      </trkpt>
      <trkpt lat="47.49852" lon="6.70565">
        <ele>374</ele>
        <time>2015-03-22T09:01:23.000Z</time>
      </trkpt>
      <trkpt lat="47.49857" lon="6.7056">
        <ele>374</ele>
        <time>2015-03-22T09:01:24.000Z</time>
      </trkpt>
      <trkpt lat="47.4986" lon="6.70554">
        <ele>374</ele>
        <time>2015-03-22T09:01:25.000Z</time>
      </trkpt>
      <trkpt lat="47.49865" lon="6.70549">
        <ele>374</ele>
        <time>2015-03-22T09:01:26.000Z</time>
      </trkpt>
      <trkpt lat="47.49868" lon="6.70543">
        <ele>374</ele>
        <time>2015-03-22T09:01:27.000Z</time>
      </trkpt>
      <trkpt lat="47.49871" lon="6.70538">
        <ele>374</ele>
        <time>2015-03-22T09:01:28.000Z</time>
      </trkpt>
      <trkpt lat="47.49875" lon="6.70533">
        <ele>374</ele>
        <time>2015-03-22T09:01:29.000Z</time>
      </trkpt>
      <trkpt lat="47.49879" lon="6.70528">
        <ele>374</ele>
        <time>2015-03-22T09:01:30.000Z</time>
      </trkpt>
      <trkpt lat="47.49884" lon="6.70521">
        <ele>374</ele>
        <time>2015-03-22T09:01:31.000Z</time>
      </trkpt>
      <trkpt lat="47.49888" lon="6.70516">
        <ele>374</ele>
        <time>2015-03-22T09:01:32.000Z</time>
      </trkpt>
      <trkpt lat="47.49891" lon="6.7051">
        <ele>374</ele>
        <time>2015-03-22T09:01:33.000Z</time>
      </trkpt>
      <trkpt lat="47.49895" lon="6.70504">
        <ele>375</ele>
        <time>2015-03-22T09:01:34.000Z</time>
      </trkpt>
      <trkpt lat="47.49898" lon="6.705">
        <ele>375</ele>
        <time>2015-03-22T09:01:35.000Z</time>
      </trkpt>
      <trkpt lat="47.49901" lon="6.70496">
        <ele>374</ele>
        <time>2015-03-22T09:01:36.000Z</time>
      </trkpt>
      <trkpt lat="47.49904" lon="6.7049">
        <ele>374</ele>
        <time>2015-03-22T09:01:37.000Z</time>
      </trkpt>
      <trkpt lat="47.49908" lon="6.70484">
        <ele>374</ele>
        <time>2015-03-22T09:01:38.000Z</time>
      </trkpt>
      <trkpt lat="47.49911" lon="6.70479">
        <ele>374</ele>
        <time>2015-03-22T09:01:39.000Z</time>
      </trkpt>
      <trkpt lat="47.49914" lon="6.70475">
        <ele>374</ele>
        <time>2015-03-22T09:01:40.000Z</time>
      </trkpt>
      <trkpt lat="47.49917" lon="6.7047">
        <ele>374</ele>
        <time>2015-03-22T09:01:41.000Z</time>
      </trkpt>
      <trkpt lat="47.4992" lon="6.70463">
        <ele>375</ele>
        <time>2015-03-22T09:01:42.000Z</time>
      </trkpt>
      <trkpt lat="47.49924" lon="6.70458">
        <ele>375</ele>
        <time>2015-03-22T09:01:43.000Z</time>
      </trkpt>
      <trkpt lat="47.49928" lon="6.70453">
        <ele>375</ele>
        <time>2015-03-22T09:01:44.000Z</time>
      </trkpt>
      <trkpt lat="47.49932" lon="6.70449">
        <ele>375</ele>
        <time>2015-03-22T09:01:45.000Z</time>
      </trkpt>
      <trkpt lat="47.49935" lon="6.70444">
        <ele>375</ele>
        <time>2015-03-22T09:01:46.000Z</time>
      </trkpt>
      <trkpt lat="47.49939" lon="6.7044">
        <ele>375</ele>
        <time>2015-03-22T09:01:47.000Z</time>
      </trkpt>
      <trkpt lat="47.49943" lon="6.70436">
        <ele>375</ele>
        <time>2015-03-22T09:01:48.000Z</time>
      </trkpt>
      <trkpt lat="47.49947" lon="6.70431">
        <ele>375</ele>
        <time>2015-03-22T09:01:49.000Z</time>
      </trkpt>
      <trkpt lat="47.49951" lon="6.70427">
        <ele>375</ele>
        <time>2015-03-22T09:01:50.000Z</time>
      </trkpt>
      <trkpt lat="47.49954" lon="6.70422">
        <ele>375</ele>
        <time>2015-03-22T09:01:51.000Z</time>
      </trkpt>
      <trkpt lat="47.49958" lon="6.70417">
        <ele>375</ele>
        <time>2015-03-22T09:01:52.000Z</time>
      </trkpt>
      <trkpt lat="47.49962" lon="6.70413">
        <ele>374</ele>
        <time>2015-03-22T09:01:53.000Z</time>
      </trkpt>
      <trkpt lat="47.49965" lon="6.70408">
        <ele>374</ele>
        <time>2015-03-22T09:01:54.000Z</time>
      </trkpt>
      <trkpt lat="47.49968" lon="6.70405">
        <ele>374</ele>
        <time>2015-03-22T09:01:55.000Z</time>
      </trkpt>
      <trkpt lat="47.49972" lon="6.704">
        <ele>374</ele>
        <time>2015-03-22T09:01:56.000Z</time>
      </trkpt>
      <trkpt lat="47.49976" lon="6.70396">
        <ele>374</ele>
        <time>2015-03-22T09:01:57.000Z</time>
      </trkpt>
      <trkpt lat="47.49979" lon="6.70392">
        <ele>374</ele>
        <time>2015-03-22T09:01:58.000Z</time>
      </trkpt>
      <trkpt lat="47.49983" lon="6.70386">
        <ele>374</ele>
        <time>2015-03-22T09:01:59.000Z</time>
      </trkpt>
      <trkpt lat="47.49987" lon="6.70382">
        <ele>374</ele>
        <time>2015-03-22T09:02:00.000Z</time>
      </trkpt>
      <trkpt lat="47.49991" lon="6.70377">
        <ele>374</ele>
        <time>2015-03-22T09:02:01.000Z</time>
      </trkpt>
      <trkpt lat="47.49995" lon="6.70372">
        <ele>374</ele>
        <time>2015-03-22T09:02:02.000Z</time>
      </trkpt>
      <trkpt lat="47.49999" lon="6.70367">
        <ele>374</ele>
        <time>2015-03-22T09:02:03.000Z</time>
      </trkpt>
      <trkpt lat="47.50003" lon="6.70361">
        <ele>374</ele>
        <time>2015-03-22T09:02:04.000Z</time>
      </trkpt>
      <trkpt lat="47.50006" lon="6.70354">
        <ele>374</ele>
        <time>2015-03-22T09:02:05.000Z</time>
      </trkpt>
      <trkpt lat="47.5001" lon="6.70347">
        <ele>373</ele>
        <time>2015-03-22T09:02:06.000Z</time>
      </trkpt>
      <trkpt lat="47.50012" lon="6.7034">
        <ele>373</ele>
        <time>2015-03-22T09:02:07.000Z</time>
      </trkpt>
      <trkpt lat="47.50016" lon="6.70333">
        <ele>373</ele>
        <time>2015-03-22T09:02:08.000Z</time>
      </trkpt>
      <trkpt lat="47.5002" lon="6.70325">
        <ele>373</ele>
        <time>2015-03-22T09:02:09.000Z</time>
      </trkpt>
      <trkpt lat="47.50023" lon="6.70318">
        <ele>373</ele>
        <time>2015-03-22T09:02:10.000Z</time>
      </trkpt>
      <trkpt lat="47.50026" lon="6.70311">
        <ele>373</ele>
        <time>2015-03-22T09:02:11.000Z</time>
      </trkpt>
      <trkpt lat="47.50028" lon="6.70304">
        <ele>373</ele>
        <time>2015-03-22T09:02:12.000Z</time>
      </trkpt>
      <trkpt lat="47.50031" lon="6.70299">
        <ele>373</ele>
        <time>2015-03-22T09:02:13.000Z</time>
      </trkpt>
      <trkpt lat="47.50035" lon="6.70292">
        <ele>373</ele>
        <time>2015-03-22T09:02:14.000Z</time>
      </trkpt>
      <trkpt lat="47.50038" lon="6.70285">
        <ele>373</ele>
        <time>2015-03-22T09:02:15.000Z</time>
      </trkpt>
      <trkpt lat="47.50042" lon="6.70279">
        <ele>373</ele>
        <time>2015-03-22T09:02:16.000Z</time>
      </trkpt>
      <trkpt lat="47.50046" lon="6.70273">
        <ele>373</ele>
        <time>2015-03-22T09:02:17.000Z</time>
      </trkpt>
      <trkpt lat="47.5005" lon="6.70269">
        <ele>373</ele>
        <time>2015-03-22T09:02:18.000Z</time>
      </trkpt>
      <trkpt lat="47.50055" lon="6.70264">
        <ele>373</ele>
        <time>2015-03-22T09:02:19.000Z</time>
      </trkpt>
      <trkpt lat="47.5006" lon="6.7026">
        <ele>373</ele>
        <time>2015-03-22T09:02:20.000Z</time>
      </trkpt>
      <trkpt lat="47.50064" lon="6.70256">
        <ele>373</ele>
        <time>2015-03-22T09:02:21.000Z</time>
      </trkpt>
      <trkpt lat="47.50068" lon="6.70252">
        <ele>373</ele>
        <time>2015-03-22T09:02:22.000Z</time>
      </trkpt>
      <trkpt lat="47.50073" lon="6.70249">
        <ele>373</ele>
        <time>2015-03-22T09:02:23.000Z</time>
      </trkpt>
      <trkpt lat="47.50076" lon="6.70247">
        <ele>373</ele>
        <time>2015-03-22T09:02:24.000Z</time>
      </trkpt>
      <trkpt lat="47.5008" lon="6.70244">
        <ele>373</ele>
        <time>2015-03-22T09:02:25.000Z</time>
      </trkpt>
      <trkpt lat="47.50085" lon="6.70242">
        <ele>373</ele>
        <time>2015-03-22T09:02:26.000Z</time>
      </trkpt>
      <trkpt lat="47.50089" lon="6.70239">
        <ele>374</ele>
        <time>2015-03-22T09:02:27.000Z</time>
      </trkpt>
      <trkpt lat="47.50092" lon="6.70236">
        <ele>374</ele>
        <time>2015-03-22T09:02:28.000Z</time>
      </trkpt>
      <trkpt lat="47.50096" lon="6.70233">
        <ele>374</ele>
        <time>2015-03-22T09:02:29.000Z</time>
      </trkpt>
      <trkpt lat="47.50099" lon="6.7023">
        <ele>374</ele>
        <time>2015-03-22T09:02:30.000Z</time>
      </trkpt>
      <trkpt lat="47.50103" lon="6.70225">
        <ele>374</ele>
        <time>2015-03-22T09:02:31.000Z</time>
      </trkpt>
      <trkpt lat="47.50106" lon="6.70221">
        <ele>374</ele>
        <time>2015-03-22T09:02:32.000Z</time>
      </trkpt>
      <trkpt lat="47.50109" lon="6.70218">
        <ele>374</ele>
        <time>2015-03-22T09:02:33.000Z</time>
      </trkpt>
      <trkpt lat="47.50113" lon="6.70213">
        <ele>375</ele>
        <time>2015-03-22T09:02:34.000Z</time>
      </trkpt>
      <trkpt lat="47.50117" lon="6.70211">
        <ele>375</ele>
        <time>2015-03-22T09:02:35.000Z</time>
      </trkpt>
      <trkpt lat="47.50121" lon="6.70209">
        <ele>375</ele>
        <time>2015-03-22T09:02:36.000Z</time>
      </trkpt>
      <trkpt lat="47.50123" lon="6.70206">
        <ele>375</ele>
        <time>2015-03-22T09:02:37.000Z</time>
      </trkpt>
      <trkpt lat="47.50126" lon="6.70202">
        <ele>375</ele>
        <time>2015-03-22T09:02:38.000Z</time>
      </trkpt>
      <trkpt lat="47.50127" lon="6.70198">
        <ele>375</ele>
        <time>2015-03-22T09:02:39.000Z</time>
      </trkpt>
      <trkpt lat="47.50129" lon="6.70194">
        <ele>375</ele>
        <time>2015-03-22T09:02:40.000Z</time>
      </trkpt>
      <trkpt lat="47.50131" lon="6.7019">
        <ele>375</ele>
        <time>2015-03-22T09:02:41.000Z</time>
      </trkpt>
      <trkpt lat="47.50134" lon="6.70187">
        <ele>375</ele>
        <time>2015-03-22T09:02:42.000Z</time>
      </trkpt>
      <trkpt lat="47.50137" lon="6.70185">
        <ele>375</ele>
        <time>2015-03-22T09:02:43.000Z</time>
      </trkpt>
      <trkpt lat="47.50141" lon="6.70183">
        <ele>375</ele>
        <time>2015-03-22T09:02:44.000Z</time>
      </trkpt>
      <trkpt lat="47.50145" lon="6.70182">
        <ele>375</ele>
        <time>2015-03-22T09:02:45.000Z</time>
      </trkpt>
      <trkpt lat="47.50147" lon="6.7018">
        <ele>376</ele>
        <time>2015-03-22T09:02:46.000Z</time>
      </trkpt>
      <trkpt lat="47.5015" lon="6.70178">
        <ele>376</ele>
        <time>2015-03-22T09:02:47.000Z</time>
      </trkpt>
      <trkpt lat="47.50153" lon="6.70177">
        <ele>376</ele>
        <time>2015-03-22T09:02:48.000Z</time>
      </trkpt>
      <trkpt lat="47.50154" lon="6.70171">
        <ele>376</ele>
        <time>2015-03-22T09:02:50.000Z</time>
      </trkpt>
      <trkpt lat="47.50155" lon="6.70168">
        <ele>376</ele>
        <time>2015-03-22T09:02:51.000Z</time>
      </trkpt>
      <trkpt lat="47.50156" lon="6.70164">
        <ele>377</ele>
        <time>2015-03-22T09:02:52.000Z</time>
      </trkpt>
      <trkpt lat="47.50157" lon="6.70161">
        <ele>377</ele>
        <time>2015-03-22T09:02:53.000Z</time>
      </trkpt>
      <trkpt lat="47.50159" lon="6.70158">
        <ele>377</ele>
        <time>2015-03-22T09:02:54.000Z</time>
      </trkpt>
      <trkpt lat="47.50162" lon="6.70155">
        <ele>377</ele>
        <time>2015-03-22T09:02:55.000Z</time>
      </trkpt>
      <trkpt lat="47.50164" lon="6.70152">
        <ele>377</ele>
        <time>2015-03-22T09:02:56.000Z</time>
      </trkpt>
      <trkpt lat="47.50165" lon="6.7015">
        <ele>377</ele>
        <time>2015-03-22T09:02:57.000Z</time>
      </trkpt>
      <trkpt lat="47.50167" lon="6.70148">
        <ele>378</ele>
        <time>2015-03-22T09:02:58.000Z</time>
      </trkpt>
      <trkpt lat="47.50169" lon="6.70144">
        <ele>379</ele>
        <time>2015-03-22T09:02:59.000Z</time>
      </trkpt>
      <trkpt lat="47.50175" lon="6.7013">
        <ele>379</ele>
        <time>2015-03-22T09:03:00.000Z</time>
      </trkpt>
      <trkpt lat="47.50179" lon="6.70126">
        <ele>379</ele>
        <time>2015-03-22T09:03:01.000Z</time>
      </trkpt>
      <trkpt lat="47.50177" lon="6.70121">
        <ele>379</ele>
        <time>2015-03-22T09:03:02.000Z</time>
      </trkpt>
      <trkpt lat="47.50176" lon="6.70116">
        <ele>380</ele>
        <time>2015-03-22T09:03:03.000Z</time>
      </trkpt>
      <trkpt lat="47.50179" lon="6.70111">
        <ele>380</ele>
        <time>2015-03-22T09:03:04.000Z</time>
      </trkpt>
      <trkpt lat="47.50183" lon="6.70106">
        <ele>380</ele>
        <time>2015-03-22T09:03:05.000Z</time>
      </trkpt>
      <trkpt lat="47.50186" lon="6.70101">
        <ele>380</ele>
        <time>2015-03-22T09:03:06.000Z</time>
      </trkpt>
      <trkpt lat="47.5019" lon="6.70096">
        <ele>380</ele>
        <time>2015-03-22T09:03:07.000Z</time>
      </trkpt>
      <trkpt lat="47.50193" lon="6.70091">
        <ele>380</ele>
        <time>2015-03-22T09:03:08.000Z</time>
      </trkpt>
      <trkpt lat="47.50197" lon="6.70087">
        <ele>380</ele>
        <time>2015-03-22T09:03:09.000Z</time>
      </trkpt>
      <trkpt lat="47.502" lon="6.70082">
        <ele>381</ele>
        <time>2015-03-22T09:03:10.000Z</time>
      </trkpt>
      <trkpt lat="47.50203" lon="6.70077">
        <ele>381</ele>
        <time>2015-03-22T09:03:11.000Z</time>
      </trkpt>
      <trkpt lat="47.50206" lon="6.70073">
        <ele>381</ele>
        <time>2015-03-22T09:03:12.000Z</time>
      </trkpt>
      <trkpt lat="47.50209" lon="6.70069">
        <ele>381</ele>
        <time>2015-03-22T09:03:13.000Z</time>
      </trkpt>
      <trkpt lat="47.50212" lon="6.70065">
        <ele>381</ele>
        <time>2015-03-22T09:03:14.000Z</time>
      </trkpt>
      <trkpt lat="47.50215" lon="6.70062">
        <ele>381</ele>
        <time>2015-03-22T09:03:15.000Z</time>
      </trkpt>
      <trkpt lat="47.50219" lon="6.70059">
        <ele>382</ele>
        <time>2015-03-22T09:03:16.000Z</time>
      </trkpt>
      <trkpt lat="47.50223" lon="6.70056">
        <ele>382</ele>
        <time>2015-03-22T09:03:17.000Z</time>
      </trkpt>
      <trkpt lat="47.50228" lon="6.70054">
        <ele>382</ele>
        <time>2015-03-22T09:03:18.000Z</time>
      </trkpt>
      <trkpt lat="47.50233" lon="6.70052">
        <ele>382</ele>
        <time>2015-03-22T09:03:19.000Z</time>
      </trkpt>
      <trkpt lat="47.50237" lon="6.7005">
        <ele>382</ele>
        <time>2015-03-22T09:03:20.000Z</time>
      </trkpt>
      <trkpt lat="47.50242" lon="6.70047">
        <ele>382</ele>
        <time>2015-03-22T09:03:21.000Z</time>
      </trkpt>
      <trkpt lat="47.50246" lon="6.70044">
        <ele>382</ele>
        <time>2015-03-22T09:03:22.000Z</time>
      </trkpt>
      <trkpt lat="47.5025" lon="6.70041">
        <ele>383</ele>
        <time>2015-03-22T09:03:23.000Z</time>
      </trkpt>
      <trkpt lat="47.50254" lon="6.70038">
        <ele>383</ele>
        <time>2015-03-22T09:03:24.000Z</time>
      </trkpt>
      <trkpt lat="47.50257" lon="6.70036">
        <ele>384</ele>
        <time>2015-03-22T09:03:25.000Z</time>
      </trkpt>
      <trkpt lat="47.5026" lon="6.70033">
        <ele>384</ele>
        <time>2015-03-22T09:03:26.000Z</time>
      </trkpt>
      <trkpt lat="47.50264" lon="6.70031">
        <ele>384</ele>
        <time>2015-03-22T09:03:27.000Z</time>
      </trkpt>
      <trkpt lat="47.50268" lon="6.70029">
        <ele>384</ele>
        <time>2015-03-22T09:03:28.000Z</time>
      </trkpt>
      <trkpt lat="47.50272" lon="6.70027">
        <ele>384</ele>
        <time>2015-03-22T09:03:29.000Z</time>
      </trkpt>
      <trkpt lat="47.50276" lon="6.70025">
        <ele>384</ele>
        <time>2015-03-22T09:03:30.000Z</time>
      </trkpt>
      <trkpt lat="47.5028" lon="6.70024">
        <ele>384</ele>
        <time>2015-03-22T09:03:31.000Z</time>
      </trkpt>
      <trkpt lat="47.50283" lon="6.70022">
        <ele>384</ele>
        <time>2015-03-22T09:03:32.000Z</time>
      </trkpt>
      <trkpt lat="47.50287" lon="6.70021">
        <ele>384</ele>
        <time>2015-03-22T09:03:33.000Z</time>
      </trkpt>
      <trkpt lat="47.5029" lon="6.70019">
        <ele>384</ele>
        <time>2015-03-22T09:03:34.000Z</time>
      </trkpt>
      <trkpt lat="47.50294" lon="6.70018">
        <ele>384</ele>
        <time>2015-03-22T09:03:35.000Z</time>
      </trkpt>
      <trkpt lat="47.50297" lon="6.70017">
        <ele>384</ele>
        <time>2015-03-22T09:03:36.000Z</time>
      </trkpt>
      <trkpt lat="47.50301" lon="6.70016">
        <ele>384</ele>
        <time>2015-03-22T09:03:37.000Z</time>
      </trkpt>
      <trkpt lat="47.50305" lon="6.70015">
        <ele>384</ele>
        <time>2015-03-22T09:03:38.000Z</time>
      </trkpt>
      <trkpt lat="47.50309" lon="6.70014">
        <ele>385</ele>
        <time>2015-03-22T09:03:39.000Z</time>
      </trkpt>
      <trkpt lat="47.50312" lon="6.70014">
        <ele>385</ele>
        <time>2015-03-22T09:03:40.000Z</time>
      </trkpt>
      <trkpt lat="47.50316" lon="6.70013">
        <ele>385</ele>
        <time>2015-03-22T09:03:41.000Z</time>
      </trkpt>
      <trkpt lat="47.5032" lon="6.70012">
        <ele>385</ele>
        <time>2015-03-22T09:03:42.000Z</time>
      </trkpt>
      <trkpt lat="47.50324" lon="6.70011">
        <ele>385</ele>
        <time>2015-03-22T09:03:43.000Z</time>
      </trkpt>
      <trkpt lat="47.50327" lon="6.7001">
        <ele>385</ele>
        <time>2015-03-22T09:03:44.000Z</time>
      </trkpt>
      <trkpt lat="47.50331" lon="6.70009">
        <ele>385</ele>
        <time>2015-03-22T09:03:45.000Z</time>
      </trkpt>
      <trkpt lat="47.50335" lon="6.70008">
        <ele>386</ele>
        <time>2015-03-22T09:03:46.000Z</time>
      </trkpt>
      <trkpt lat="47.50338" lon="6.70007">
        <ele>386</ele>
        <time>2015-03-22T09:03:47.000Z</time>
      </trkpt>
      <trkpt lat="47.50341" lon="6.70006">
        <ele>386</ele>
        <time>2015-03-22T09:03:48.000Z</time>
      </trkpt>
      <trkpt lat="47.50345" lon="6.70005">
        <ele>386</ele>
        <time>2015-03-22T09:03:49.000Z</time>
      </trkpt>
      <trkpt lat="47.50349" lon="6.70004">
        <ele>386</ele>
        <time>2015-03-22T09:03:50.000Z</time>
      </trkpt>
      <trkpt lat="47.50353" lon="6.70003">
        <ele>386</ele>
        <time>2015-03-22T09:03:51.000Z</time>
      </trkpt>
      <trkpt lat="47.50356" lon="6.70003">
        <ele>386</ele>
        <time>2015-03-22T09:03:52.000Z</time>
      </trkpt>
      <trkpt lat="47.5036" lon="6.70002">
        <ele>386</ele>
        <time>2015-03-22T09:03:53.000Z</time>
      </trkpt>
      <trkpt lat="47.50363" lon="6.70001">
        <ele>386</ele>
        <time>2015-03-22T09:03:54.000Z</time>
      </trkpt>
      <trkpt lat="47.50367" lon="6.70001">
        <ele>386</ele>
        <time>2015-03-22T09:03:55.000Z</time>
      </trkpt>
      <trkpt lat="47.5037" lon="6.69999">
        <ele>386</ele>
        <time>2015-03-22T09:03:56.000Z</time>
      </trkpt>
      <trkpt lat="47.50374" lon="6.69998">
        <ele>386</ele>
        <time>2015-03-22T09:03:57.000Z</time>
      </trkpt>
      <trkpt lat="47.50378" lon="6.69996">
        <ele>386</ele>
        <time>2015-03-22T09:03:58.000Z</time>
      </trkpt>
      <trkpt lat="47.50383" lon="6.69994">
        <ele>386</ele>
        <time>2015-03-22T09:03:59.000Z</time>
      </trkpt>
      <trkpt lat="47.50387" lon="6.69992">
        <ele>386</ele>
        <time>2015-03-22T09:04:00.000Z</time>
      </trkpt>
      <trkpt lat="47.50393" lon="6.69988">
        <ele>386</ele>
        <time>2015-03-22T09:04:01.000Z</time>
      </trkpt>
      <trkpt lat="47.50397" lon="6.69983">
        <ele>386</ele>
        <time>2015-03-22T09:04:02.000Z</time>
      </trkpt>
      <trkpt lat="47.50401" lon="6.69982">
        <ele>386</ele>
        <time>2015-03-22T09:04:03.000Z</time>
      </trkpt>
      <trkpt lat="47.50406" lon="6.6998">
        <ele>386</ele>
        <time>2015-03-22T09:04:04.000Z</time>
      </trkpt>
      <trkpt lat="47.5041" lon="6.69979">
        <ele>386</ele>
        <time>2015-03-22T09:04:05.000Z</time>
      </trkpt>
      <trkpt lat="47.50414" lon="6.69977">
        <ele>386</ele>
        <time>2015-03-22T09:04:06.000Z</time>
      </trkpt>
      <trkpt lat="47.50418" lon="6.69976">
        <ele>386</ele>
        <time>2015-03-22T09:04:07.000Z</time>
      </trkpt>
      <trkpt lat="47.50422" lon="6.69974">
        <ele>386</ele>
        <time>2015-03-22T09:04:08.000Z</time>
      </trkpt>
      <trkpt lat="47.50426" lon="6.69972">
        <ele>386</ele>
        <time>2015-03-22T09:04:09.000Z</time>
      </trkpt>
      <trkpt lat="47.5043" lon="6.6997">
        <ele>386</ele>
        <time>2015-03-22T09:04:10.000Z</time>
      </trkpt>
      <trkpt lat="47.50435" lon="6.69968">
        <ele>386</ele>
        <time>2015-03-22T09:04:11.000Z</time>
      </trkpt>
      <trkpt lat="47.50439" lon="6.69967">
        <ele>386</ele>
        <time>2015-03-22T09:04:12.000Z</time>
      </trkpt>
      <trkpt lat="47.50442" lon="6.69965">
        <ele>386</ele>
        <time>2015-03-22T09:04:13.000Z</time>
      </trkpt>
      <trkpt lat="47.50446" lon="6.69963">
        <ele>386</ele>
        <time>2015-03-22T09:04:14.000Z</time>
      </trkpt>
      <trkpt lat="47.5045" lon="6.69961">
        <ele>386</ele>
        <time>2015-03-22T09:04:15.000Z</time>
      </trkpt>
      <trkpt lat="47.50454" lon="6.69959">
        <ele>386</ele>
        <time>2015-03-22T09:04:16.000Z</time>
      </trkpt>
      <trkpt lat="47.50458" lon="6.69958">
        <ele>386</ele>
        <time>2015-03-22T09:04:17.000Z</time>
      </trkpt>
      <trkpt lat="47.50463" lon="6.69956">
        <ele>386</ele>
        <time>2015-03-22T09:04:18.000Z</time>
      </trkpt>
      <trkpt lat="47.50467" lon="6.69954">
        <ele>386</ele>
        <time>2015-03-22T09:04:19.000Z</time>
      </trkpt>
      <trkpt lat="47.50471" lon="6.69952">
        <ele>386</ele>
        <time>2015-03-22T09:04:20.000Z</time>
      </trkpt>
      <trkpt lat="47.50476" lon="6.6995">
        <ele>386</ele>
        <time>2015-03-22T09:04:21.000Z</time>
      </trkpt>
      <trkpt lat="47.50481" lon="6.69948">
        <ele>386</ele>
        <time>2015-03-22T09:04:22.000Z</time>
      </trkpt>
      <trkpt lat="47.50485" lon="6.69946">
        <ele>386</ele>
        <time>2015-03-22T09:04:23.000Z</time>
      </trkpt>
      <trkpt lat="47.50488" lon="6.69944">
        <ele>386</ele>
        <time>2015-03-22T09:04:24.000Z</time>
      </trkpt>
      <trkpt lat="47.50493" lon="6.69941">
        <ele>386</ele>
        <time>2015-03-22T09:04:25.000Z</time>
      </trkpt>
      <trkpt lat="47.50497" lon="6.69937">
        <ele>386</ele>
        <time>2015-03-22T09:04:26.000Z</time>
      </trkpt>
      <trkpt lat="47.50501" lon="6.69934">
        <ele>386</ele>
        <time>2015-03-22T09:04:27.000Z</time>
      </trkpt>
      <trkpt lat="47.50504" lon="6.6993">
        <ele>386</ele>
        <time>2015-03-22T09:04:28.000Z</time>
      </trkpt>
      <trkpt lat="47.50509" lon="6.69926">
        <ele>386</ele>
        <time>2015-03-22T09:04:29.000Z</time>
      </trkpt>
      <trkpt lat="47.50512" lon="6.69922">
        <ele>386</ele>
        <time>2015-03-22T09:04:30.000Z</time>
      </trkpt>
      <trkpt lat="47.50516" lon="6.69917">
        <ele>386</ele>
        <time>2015-03-22T09:04:31.000Z</time>
      </trkpt>
      <trkpt lat="47.5052" lon="6.69914">
        <ele>386</ele>
        <time>2015-03-22T09:04:32.000Z</time>
      </trkpt>
      <trkpt lat="47.50524" lon="6.69909">
        <ele>386</ele>
        <time>2015-03-22T09:04:33.000Z</time>
      </trkpt>
      <trkpt lat="47.50529" lon="6.69904">
        <ele>386</ele>
        <time>2015-03-22T09:04:34.000Z</time>
      </trkpt>
      <trkpt lat="47.50533" lon="6.69899">
        <ele>386</ele>
        <time>2015-03-22T09:04:35.000Z</time>
      </trkpt>
      <trkpt lat="47.50538" lon="6.69895">
        <ele>386</ele>
        <time>2015-03-22T09:04:36.000Z</time>
      </trkpt>
      <trkpt lat="47.50542" lon="6.6989">
        <ele>386</ele>
        <time>2015-03-22T09:04:37.000Z</time>
      </trkpt>
      <trkpt lat="47.50547" lon="6.69886">
        <ele>386</ele>
        <time>2015-03-22T09:04:38.000Z</time>
      </trkpt>
      <trkpt lat="47.50551" lon="6.69882">
        <ele>386</ele>
        <time>2015-03-22T09:04:39.000Z</time>
      </trkpt>
      <trkpt lat="47.50556" lon="6.69878">
        <ele>386</ele>
        <time>2015-03-22T09:04:40.000Z</time>
      </trkpt>
      <trkpt lat="47.5056" lon="6.69875">
        <ele>386</ele>
        <time>2015-03-22T09:04:41.000Z</time>
      </trkpt>
      <trkpt lat="47.50564" lon="6.69871">
        <ele>386</ele>
        <time>2015-03-22T09:04:42.000Z</time>
      </trkpt>
      <trkpt lat="47.50568" lon="6.69867">
        <ele>386</ele>
        <time>2015-03-22T09:04:43.000Z</time>
      </trkpt>
      <trkpt lat="47.50572" lon="6.69862">
        <ele>385</ele>
        <time>2015-03-22T09:04:44.000Z</time>
      </trkpt>
      <trkpt lat="47.50576" lon="6.69857">
        <ele>385</ele>
        <time>2015-03-22T09:04:45.000Z</time>
      </trkpt>
      <trkpt lat="47.5058" lon="6.69853">
        <ele>385</ele>
        <time>2015-03-22T09:04:46.000Z</time>
      </trkpt>
      <trkpt lat="47.50584" lon="6.69847">
        <ele>385</ele>
        <time>2015-03-22T09:04:47.000Z</time>
      </trkpt>
      <trkpt lat="47.50588" lon="6.69843">
        <ele>385</ele>
        <time>2015-03-22T09:04:48.000Z</time>
      </trkpt>
      <trkpt lat="47.50593" lon="6.69839">
        <ele>385</ele>
        <time>2015-03-22T09:04:49.000Z</time>
      </trkpt>
      <trkpt lat="47.50597" lon="6.69835">
        <ele>385</ele>
        <time>2015-03-22T09:04:50.000Z</time>
      </trkpt>
      <trkpt lat="47.50603" lon="6.69831">
        <ele>384</ele>
        <time>2015-03-22T09:04:51.000Z</time>
      </trkpt>
      <trkpt lat="47.50608" lon="6.69828">
        <ele>384</ele>
        <time>2015-03-22T09:04:52.000Z</time>
      </trkpt>
      <trkpt lat="47.50611" lon="6.69824">
        <ele>384</ele>
        <time>2015-03-22T09:04:53.000Z</time>
      </trkpt>
      <trkpt lat="47.50615" lon="6.69819">
        <ele>384</ele>
        <time>2015-03-22T09:04:54.000Z</time>
      </trkpt>
      <trkpt lat="47.5062" lon="6.69815">
        <ele>384</ele>
        <time>2015-03-22T09:04:55.000Z</time>
      </trkpt>
      <trkpt lat="47.50624" lon="6.69811">
        <ele>384</ele>
        <time>2015-03-22T09:04:56.000Z</time>
      </trkpt>
      <trkpt lat="47.50628" lon="6.69808">
        <ele>384</ele>
        <time>2015-03-22T09:04:57.000Z</time>
      </trkpt>
      <trkpt lat="47.50632" lon="6.69803">
        <ele>384</ele>
        <time>2015-03-22T09:04:58.000Z</time>
      </trkpt>
      <trkpt lat="47.50638" lon="6.698">
        <ele>384</ele>
        <time>2015-03-22T09:04:59.000Z</time>
      </trkpt>
      <trkpt lat="47.50643" lon="6.69797">
        <ele>384</ele>
        <time>2015-03-22T09:05:00.000Z</time>
      </trkpt>
      <trkpt lat="47.50648" lon="6.69794">
        <ele>384</ele>
        <time>2015-03-22T09:05:01.000Z</time>
      </trkpt>
      <trkpt lat="47.50653" lon="6.69789">
        <ele>384</ele>
        <time>2015-03-22T09:05:02.000Z</time>
      </trkpt>
      <trkpt lat="47.50657" lon="6.69784">
        <ele>383</ele>
        <time>2015-03-22T09:05:03.000Z</time>
      </trkpt>
      <trkpt lat="47.50661" lon="6.69779">
        <ele>383</ele>
        <time>2015-03-22T09:05:04.000Z</time>
      </trkpt>
      <trkpt lat="47.50667" lon="6.69773">
        <ele>383</ele>
        <time>2015-03-22T09:05:05.000Z</time>
      </trkpt>
      <trkpt lat="47.50672" lon="6.69769">
        <ele>382</ele>
        <time>2015-03-22T09:05:06.000Z</time>
      </trkpt>
      <trkpt lat="47.50677" lon="6.69766">
        <ele>382</ele>
        <time>2015-03-22T09:05:07.000Z</time>
      </trkpt>
      <trkpt lat="47.50683" lon="6.69761">
        <ele>382</ele>
        <time>2015-03-22T09:05:08.000Z</time>
      </trkpt>
      <trkpt lat="47.50688" lon="6.69756">
        <ele>382</ele>
        <time>2015-03-22T09:05:09.000Z</time>
      </trkpt>
      <trkpt lat="47.50694" lon="6.6975">
        <ele>382</ele>
        <time>2015-03-22T09:05:10.000Z</time>
      </trkpt>
      <trkpt lat="47.50699" lon="6.69745">
        <ele>381</ele>
        <time>2015-03-22T09:05:11.000Z</time>
      </trkpt>
      <trkpt lat="47.50704" lon="6.69741">
        <ele>381</ele>
        <time>2015-03-22T09:05:12.000Z</time>
      </trkpt>
      <trkpt lat="47.5071" lon="6.69735">
        <ele>381</ele>
        <time>2015-03-22T09:05:13.000Z</time>
      </trkpt>
      <trkpt lat="47.50716" lon="6.69729">
        <ele>381</ele>
        <time>2015-03-22T09:05:14.000Z</time>
      </trkpt>
      <trkpt lat="47.50723" lon="6.69722">
        <ele>381</ele>
        <time>2015-03-22T09:05:15.000Z</time>
      </trkpt>
      <trkpt lat="47.5073" lon="6.69716">
        <ele>381</ele>
        <time>2015-03-22T09:05:16.000Z</time>
      </trkpt>
      <trkpt lat="47.50737" lon="6.69709">
        <ele>381</ele>
        <time>2015-03-22T09:05:17.000Z</time>
      </trkpt>
      <trkpt lat="47.50745" lon="6.69702">
        <ele>380</ele>
        <time>2015-03-22T09:05:18.000Z</time>
      </trkpt>
      <trkpt lat="47.5075" lon="6.69696">
        <ele>379</ele>
        <time>2015-03-22T09:05:19.000Z</time>
      </trkpt>
      <trkpt lat="47.50756" lon="6.6969">
        <ele>379</ele>
        <time>2015-03-22T09:05:20.000Z</time>
      </trkpt>
      <trkpt lat="47.50761" lon="6.69684">
        <ele>379</ele>
        <time>2015-03-22T09:05:21.000Z</time>
      </trkpt>
      <trkpt lat="47.50766" lon="6.69678">
        <ele>379</ele>
        <time>2015-03-22T09:05:22.000Z</time>
      </trkpt>
      <trkpt lat="47.50767" lon="6.69672">
        <ele>379</ele>
        <time>2015-03-22T09:05:23.000Z</time>
      </trkpt>
      <trkpt lat="47.50767" lon="6.69665">
        <ele>378</ele>
        <time>2015-03-22T09:05:24.000Z</time>
      </trkpt>
      <trkpt lat="47.5077" lon="6.69658">
        <ele>378</ele>
        <time>2015-03-22T09:05:25.000Z</time>
      </trkpt>
      <trkpt lat="47.50772" lon="6.69651">
        <ele>378</ele>
        <time>2015-03-22T09:05:26.000Z</time>
      </trkpt>
      <trkpt lat="47.50776" lon="6.69646">
        <ele>377</ele>
        <time>2015-03-22T09:05:27.000Z</time>
      </trkpt>
      <trkpt lat="47.50781" lon="6.6964">
        <ele>377</ele>
        <time>2015-03-22T09:05:28.000Z</time>
      </trkpt>
      <trkpt lat="47.50785" lon="6.69633">
        <ele>377</ele>
        <time>2015-03-22T09:05:29.000Z</time>
      </trkpt>
      <trkpt lat="47.50789" lon="6.6963">
        <ele>377</ele>
        <time>2015-03-22T09:05:30.000Z</time>
      </trkpt>
      <trkpt lat="47.50791" lon="6.69625">
        <ele>377</ele>
        <time>2015-03-22T09:05:31.000Z</time>
      </trkpt>
      <trkpt lat="47.50788" lon="6.69619">
        <ele>377</ele>
        <time>2015-03-22T09:05:32.000Z</time>
      </trkpt>
      <trkpt lat="47.50787" lon="6.69613">
        <ele>377</ele>
        <time>2015-03-22T09:05:33.000Z</time>
      </trkpt>
      <trkpt lat="47.50785" lon="6.69608">
        <ele>377</ele>
        <time>2015-03-22T09:05:34.000Z</time>
      </trkpt>
      <trkpt lat="47.50783" lon="6.69602">
        <ele>377</ele>
        <time>2015-03-22T09:05:35.000Z</time>
      </trkpt>
      <trkpt lat="47.5078" lon="6.69593">
        <ele>377</ele>
        <time>2015-03-22T09:05:36.000Z</time>
      </trkpt>
      <trkpt lat="47.50777" lon="6.69583">
        <ele>377</ele>
        <time>2015-03-22T09:05:37.000Z</time>
      </trkpt>
      <trkpt lat="47.50773" lon="6.69574">
        <ele>375</ele>
        <time>2015-03-22T09:05:38.000Z</time>
      </trkpt>
      <trkpt lat="47.50772" lon="6.69566">
        <ele>375</ele>
        <time>2015-03-22T09:05:39.000Z</time>
      </trkpt>
      <trkpt lat="47.50767" lon="6.69556">
        <ele>375</ele>
        <time>2015-03-22T09:05:40.000Z</time>
      </trkpt>
      <trkpt lat="47.50763" lon="6.69547">
        <ele>375</ele>
        <time>2015-03-22T09:05:41.000Z</time>
      </trkpt>
      <trkpt lat="47.50758" lon="6.69538">
        <ele>375</ele>
        <time>2015-03-22T09:05:42.000Z</time>
      </trkpt>
      <trkpt lat="47.50753" lon="6.69531">
        <ele>374</ele>
        <time>2015-03-22T09:05:43.000Z</time>
      </trkpt>
      <trkpt lat="47.50751" lon="6.69525">
        <ele>374</ele>
        <time>2015-03-22T09:05:44.000Z</time>
      </trkpt>
      <trkpt lat="47.50748" lon="6.6952">
        <ele>373</ele>
        <time>2015-03-22T09:05:45.000Z</time>
      </trkpt>
      <trkpt lat="47.50743" lon="6.69516">
        <ele>373</ele>
        <time>2015-03-22T09:05:46.000Z</time>
      </trkpt>
      <trkpt lat="47.50739" lon="6.69513">
        <ele>373</ele>
        <time>2015-03-22T09:05:47.000Z</time>
      </trkpt>
      <trkpt lat="47.50734" lon="6.69514">
        <ele>373</ele>
        <time>2015-03-22T09:05:48.000Z</time>
      </trkpt>
      <trkpt lat="47.50728" lon="6.69513">
        <ele>373</ele>
        <time>2015-03-22T09:05:49.000Z</time>
      </trkpt>
      <trkpt lat="47.50721" lon="6.69513">
        <ele>373</ele>
        <time>2015-03-22T09:05:50.000Z</time>
      </trkpt>
      <trkpt lat="47.50715" lon="6.69511">
        <ele>373</ele>
        <time>2015-03-22T09:05:51.000Z</time>
      </trkpt>
      <trkpt lat="47.5071" lon="6.6951">
        <ele>373</ele>
        <time>2015-03-22T09:05:52.000Z</time>
      </trkpt>
      <trkpt lat="47.50704" lon="6.69507">
        <ele>373</ele>
        <time>2015-03-22T09:05:53.000Z</time>
      </trkpt>
      <trkpt lat="47.50697" lon="6.69505">
        <ele>373</ele>
        <time>2015-03-22T09:05:54.000Z</time>
      </trkpt>
      <trkpt lat="47.5069" lon="6.69503">
        <ele>373</ele>
        <time>2015-03-22T09:05:55.000Z</time>
      </trkpt>
      <trkpt lat="47.50684" lon="6.69502">
        <ele>372</ele>
        <time>2015-03-22T09:05:56.000Z</time>
      </trkpt>
      <trkpt lat="47.50681" lon="6.69497">
        <ele>370</ele>
        <time>2015-03-22T09:05:57.000Z</time>
      </trkpt>
      <trkpt lat="47.5068" lon="6.69492">
        <ele>370</ele>
        <time>2015-03-22T09:05:58.000Z</time>
      </trkpt>
      <trkpt lat="47.50679" lon="6.69487">
        <ele>370</ele>
        <time>2015-03-22T09:05:59.000Z</time>
      </trkpt>
      <trkpt lat="47.5068" lon="6.69481">
        <ele>370</ele>
        <time>2015-03-22T09:06:00.000Z</time>
      </trkpt>
      <trkpt lat="47.5068" lon="6.69476">
        <ele>370</ele>
        <time>2015-03-22T09:06:01.000Z</time>
      </trkpt>
      <trkpt lat="47.50681" lon="6.69466">
        <ele>369</ele>
        <time>2015-03-22T09:06:02.000Z</time>
      </trkpt>
      <trkpt lat="47.5068" lon="6.69461">
        <ele>369</ele>
        <time>2015-03-22T09:06:03.000Z</time>
      </trkpt>
      <trkpt lat="47.50679" lon="6.69456">
        <ele>369</ele>
        <time>2015-03-22T09:06:04.000Z</time>
      </trkpt>
      <trkpt lat="47.50676" lon="6.69452">
        <ele>369</ele>
        <time>2015-03-22T09:06:05.000Z</time>
      </trkpt>
      <trkpt lat="47.50674" lon="6.69447">
        <ele>368</ele>
        <time>2015-03-22T09:06:06.000Z</time>
      </trkpt>
      <trkpt lat="47.50671" lon="6.69443">
        <ele>368</ele>
        <time>2015-03-22T09:06:07.000Z</time>
      </trkpt>
      <trkpt lat="47.50669" lon="6.69438">
        <ele>368</ele>
        <time>2015-03-22T09:06:08.000Z</time>
      </trkpt>
      <trkpt lat="47.50666" lon="6.69434">
        <ele>367</ele>
        <time>2015-03-22T09:06:09.000Z</time>
      </trkpt>
      <trkpt lat="47.50664" lon="6.69429">
        <ele>366</ele>
        <time>2015-03-22T09:06:10.000Z</time>
      </trkpt>
      <trkpt lat="47.5066" lon="6.69422">
        <ele>366</ele>
        <time>2015-03-22T09:06:11.000Z</time>
      </trkpt>
      <trkpt lat="47.50656" lon="6.69417">
        <ele>364</ele>
        <time>2015-03-22T09:06:12.000Z</time>
      </trkpt>
      <trkpt lat="47.50653" lon="6.69411">
        <ele>364</ele>
        <time>2015-03-22T09:06:13.000Z</time>
      </trkpt>
      <trkpt lat="47.50649" lon="6.69406">
        <ele>364</ele>
        <time>2015-03-22T09:06:14.000Z</time>
      </trkpt>
      <trkpt lat="47.50644" lon="6.69399">
        <ele>364</ele>
        <time>2015-03-22T09:06:15.000Z</time>
      </trkpt>
      <trkpt lat="47.50639" lon="6.69394">
        <ele>364</ele>
        <time>2015-03-22T09:06:16.000Z</time>
      </trkpt>
      <trkpt lat="47.50635" lon="6.69389">
        <ele>364</ele>
        <time>2015-03-22T09:06:17.000Z</time>
      </trkpt>
      <trkpt lat="47.5063" lon="6.69378">
        <ele>363</ele>
        <time>2015-03-22T09:06:18.000Z</time>
      </trkpt>
      <trkpt lat="47.50624" lon="6.69371">
        <ele>363</ele>
        <time>2015-03-22T09:06:19.000Z</time>
      </trkpt>
      <trkpt lat="47.5062" lon="6.69364">
        <ele>363</ele>
        <time>2015-03-22T09:06:20.000Z</time>
      </trkpt>
      <trkpt lat="47.50615" lon="6.69356">
        <ele>363</ele>
        <time>2015-03-22T09:06:21.000Z</time>
      </trkpt>
      <trkpt lat="47.50608" lon="6.6935">
        <ele>362</ele>
        <time>2015-03-22T09:06:22.000Z</time>
      </trkpt>
      <trkpt lat="47.50603" lon="6.69341">
        <ele>361</ele>
        <time>2015-03-22T09:06:23.000Z</time>
      </trkpt>
      <trkpt lat="47.50599" lon="6.69332">
        <ele>359</ele>
        <time>2015-03-22T09:06:24.000Z</time>
      </trkpt>
      <trkpt lat="47.50595" lon="6.69323">
        <ele>359</ele>
        <time>2015-03-22T09:06:25.000Z</time>
      </trkpt>
      <trkpt lat="47.50594" lon="6.69318">
        <ele>359</ele>
        <time>2015-03-22T09:06:26.000Z</time>
      </trkpt>
      <trkpt lat="47.50593" lon="6.69309">
        <ele>359</ele>
        <time>2015-03-22T09:06:27.000Z</time>
      </trkpt>
      <trkpt lat="47.50589" lon="6.69296">
        <ele>359</ele>
        <time>2015-03-22T09:06:28.000Z</time>
      </trkpt>
      <trkpt lat="47.50586" lon="6.69286">
        <ele>359</ele>
        <time>2015-03-22T09:06:28.999Z</time>
      </trkpt>
      <trkpt lat="47.50581" lon="6.69274">
        <ele>356</ele>
        <time>2015-03-22T09:06:30.000Z</time>
      </trkpt>
      <trkpt lat="47.50577" lon="6.69263">
        <ele>356</ele>
        <time>2015-03-22T09:06:31.000Z</time>
      </trkpt>
      <trkpt lat="47.50574" lon="6.69253">
        <ele>356</ele>
        <time>2015-03-22T09:06:32.000Z</time>
      </trkpt>
      <trkpt lat="47.5057" lon="6.69243">
        <ele>355</ele>
        <time>2015-03-22T09:06:33.000Z</time>
      </trkpt>
      <trkpt lat="47.50567" lon="6.69235">
        <ele>355</ele>
        <time>2015-03-22T09:06:34.000Z</time>
      </trkpt>
      <trkpt lat="47.50563" lon="6.69227">
        <ele>355</ele>
        <time>2015-03-22T09:06:35.000Z</time>
      </trkpt>
      <trkpt lat="47.5056" lon="6.69218">
        <ele>355</ele>
        <time>2015-03-22T09:06:36.000Z</time>
      </trkpt>
      <trkpt lat="47.50558" lon="6.6921">
        <ele>355</ele>
        <time>2015-03-22T09:06:37.000Z</time>
      </trkpt>
      <trkpt lat="47.50555" lon="6.69202">
        <ele>354</ele>
        <time>2015-03-22T09:06:38.000Z</time>
      </trkpt>
      <trkpt lat="47.50551" lon="6.69195">
        <ele>354</ele>
        <time>2015-03-22T09:06:39.000Z</time>
      </trkpt>
      <trkpt lat="47.50549" lon="6.69189">
        <ele>354</ele>
        <time>2015-03-22T09:06:40.000Z</time>
      </trkpt>
      <trkpt lat="47.50548" lon="6.69182">
        <ele>354</ele>
        <time>2015-03-22T09:06:41.000Z</time>
      </trkpt>
      <trkpt lat="47.50548" lon="6.69178">
        <ele>354</ele>
        <time>2015-03-22T09:06:42.000Z</time>
      </trkpt>
      <trkpt lat="47.5055" lon="6.69173">
        <ele>354</ele>
        <time>2015-03-22T09:06:43.000Z</time>
      </trkpt>
      <trkpt lat="47.50552" lon="6.6917">
        <ele>354</ele>
        <time>2015-03-22T09:06:44.000Z</time>
      </trkpt>
      <trkpt lat="47.50555" lon="6.69166">
        <ele>353</ele>
        <time>2015-03-22T09:06:45.000Z</time>
      </trkpt>
      <trkpt lat="47.50559" lon="6.69162">
        <ele>353</ele>
        <time>2015-03-22T09:06:46.000Z</time>
      </trkpt>
      <trkpt lat="47.50561" lon="6.69159">
        <ele>353</ele>
        <time>2015-03-22T09:06:47.000Z</time>
      </trkpt>
      <trkpt lat="47.50565" lon="6.69158">
        <ele>353</ele>
        <time>2015-03-22T09:06:48.000Z</time>
      </trkpt>
      <trkpt lat="47.50568" lon="6.69154">
        <ele>353</ele>
        <time>2015-03-22T09:06:49.000Z</time>
      </trkpt>
      <trkpt lat="47.50571" lon="6.69151">
        <ele>353</ele>
        <time>2015-03-22T09:06:50.000Z</time>
      </trkpt>
      <trkpt lat="47.50573" lon="6.69147">
        <ele>353</ele>
        <time>2015-03-22T09:06:51.000Z</time>
      </trkpt>
      <trkpt lat="47.50568" lon="6.69141">
        <ele>353</ele>
        <time>2015-03-22T09:06:52.000Z</time>
      </trkpt>
      <trkpt lat="47.50563" lon="6.69135">
        <ele>353</ele>
        <time>2015-03-22T09:06:53.000Z</time>
      </trkpt>
      <trkpt lat="47.50559" lon="6.6913">
        <ele>353</ele>
        <time>2015-03-22T09:06:54.000Z</time>
      </trkpt>
      <trkpt lat="47.50555" lon="6.69125">
        <ele>353</ele>
        <time>2015-03-22T09:06:55.000Z</time>
      </trkpt>
      <trkpt lat="47.50552" lon="6.6912">
        <ele>353</ele>
        <time>2015-03-22T09:06:56.000Z</time>
      </trkpt>
      <trkpt lat="47.50548" lon="6.69114">
        <ele>353</ele>
        <time>2015-03-22T09:06:57.000Z</time>
      </trkpt>
      <trkpt lat="47.50544" lon="6.69109">
        <ele>353</ele>
        <time>2015-03-22T09:06:58.000Z</time>
      </trkpt>
      <trkpt lat="47.50539" lon="6.69103">
        <ele>353</ele>
        <time>2015-03-22T09:06:59.000Z</time>
      </trkpt>
      <trkpt lat="47.50535" lon="6.69097">
        <ele>353</ele>
        <time>2015-03-22T09:07:00.000Z</time>
      </trkpt>
      <trkpt lat="47.5053" lon="6.6909">
        <ele>353</ele>
        <time>2015-03-22T09:07:01.000Z</time>
      </trkpt>
      <trkpt lat="47.50526" lon="6.69083">
        <ele>352</ele>
        <time>2015-03-22T09:07:02.000Z</time>
      </trkpt>
      <trkpt lat="47.50522" lon="6.69077">
        <ele>352</ele>
        <time>2015-03-22T09:07:03.000Z</time>
      </trkpt>
      <trkpt lat="47.50519" lon="6.69072">
        <ele>352</ele>
        <time>2015-03-22T09:07:04.000Z</time>
      </trkpt>
      <trkpt lat="47.50515" lon="6.69068">
        <ele>352</ele>
        <time>2015-03-22T09:07:05.000Z</time>
      </trkpt>
      <trkpt lat="47.50511" lon="6.69063">
        <ele>352</ele>
        <time>2015-03-22T09:07:06.000Z</time>
      </trkpt>
      <trkpt lat="47.50508" lon="6.69058">
        <ele>352</ele>
        <time>2015-03-22T09:07:07.000Z</time>
      </trkpt>
      <trkpt lat="47.50505" lon="6.69053">
        <ele>352</ele>
        <time>2015-03-22T09:07:08.000Z</time>
      </trkpt>
      <trkpt lat="47.50501" lon="6.69047">
        <ele>352</ele>
        <time>2015-03-22T09:07:09.000Z</time>
      </trkpt>
      <trkpt lat="47.50497" lon="6.69043">
        <ele>353</ele>
        <time>2015-03-22T09:07:10.000Z</time>
      </trkpt>
      <trkpt lat="47.50495" lon="6.69038">
        <ele>353</ele>
        <time>2015-03-22T09:07:11.000Z</time>
      </trkpt>
      <trkpt lat="47.50492" lon="6.69034">
        <ele>353</ele>
        <time>2015-03-22T09:07:12.000Z</time>
      </trkpt>
      <trkpt lat="47.5049" lon="6.69027">
        <ele>353</ele>
        <time>2015-03-22T09:07:13.000Z</time>
      </trkpt>
      <trkpt lat="47.50488" lon="6.69021">
        <ele>353</ele>
        <time>2015-03-22T09:07:14.000Z</time>
      </trkpt>
      <trkpt lat="47.50484" lon="6.69016">
        <ele>353</ele>
        <time>2015-03-22T09:07:15.000Z</time>
      </trkpt>
      <trkpt lat="47.50482" lon="6.69012">
        <ele>353</ele>
        <time>2015-03-22T09:07:16.000Z</time>
      </trkpt>
      <trkpt lat="47.50481" lon="6.69008">
        <ele>353</ele>
        <time>2015-03-22T09:07:17.000Z</time>
      </trkpt>
      <trkpt lat="47.50478" lon="6.69005">
        <ele>353</ele>
        <time>2015-03-22T09:07:18.000Z</time>
      </trkpt>
      <trkpt lat="47.50475" lon="6.69001">
        <ele>353</ele>
        <time>2015-03-22T09:07:19.000Z</time>
      </trkpt>
      <trkpt lat="47.50472" lon="6.68997">
        <ele>354</ele>
        <time>2015-03-22T09:07:20.000Z</time>
      </trkpt>
      <trkpt lat="47.50469" lon="6.68994">
        <ele>354</ele>
        <time>2015-03-22T09:07:21.000Z</time>
      </trkpt>
      <trkpt lat="47.50467" lon="6.68991">
        <ele>354</ele>
        <time>2015-03-22T09:07:22.000Z</time>
      </trkpt>
      <trkpt lat="47.50465" lon="6.68988">
        <ele>355</ele>
        <time>2015-03-22T09:07:23.000Z</time>
      </trkpt>
      <trkpt lat="47.50463" lon="6.68982">
        <ele>355</ele>
        <time>2015-03-22T09:07:24.000Z</time>
      </trkpt>
      <trkpt lat="47.5046" lon="6.68978">
        <ele>355</ele>
        <time>2015-03-22T09:07:25.000Z</time>
      </trkpt>
      <trkpt lat="47.50457" lon="6.68974">
        <ele>355</ele>
        <time>2015-03-22T09:07:26.000Z</time>
      </trkpt>
      <trkpt lat="47.50453" lon="6.6897">
        <ele>355</ele>
        <time>2015-03-22T09:07:27.000Z</time>
      </trkpt>
      <trkpt lat="47.5045" lon="6.68965">
        <ele>355</ele>
        <time>2015-03-22T09:07:28.000Z</time>
      </trkpt>
      <trkpt lat="47.50447" lon="6.68961">
        <ele>355</ele>
        <time>2015-03-22T09:07:29.000Z</time>
      </trkpt>
      <trkpt lat="47.50444" lon="6.68956">
        <ele>355</ele>
        <time>2015-03-22T09:07:30.000Z</time>
      </trkpt>
      <trkpt lat="47.50441" lon="6.68952">
        <ele>355</ele>
        <time>2015-03-22T09:07:31.000Z</time>
      </trkpt>
      <trkpt lat="47.50439" lon="6.68948">
        <ele>355</ele>
        <time>2015-03-22T09:07:32.000Z</time>
      </trkpt>
      <trkpt lat="47.50436" lon="6.68945">
        <ele>355</ele>
        <time>2015-03-22T09:07:33.000Z</time>
      </trkpt>
      <trkpt lat="47.50433" lon="6.68941">
        <ele>356</ele>
        <time>2015-03-22T09:07:34.000Z</time>
      </trkpt>
      <trkpt lat="47.5043" lon="6.68939">
        <ele>356</ele>
        <time>2015-03-22T09:07:35.000Z</time>
      </trkpt>
      <trkpt lat="47.50427" lon="6.68936">
        <ele>356</ele>
        <time>2015-03-22T09:07:36.000Z</time>
      </trkpt>
      <trkpt lat="47.50424" lon="6.68935">
        <ele>356</ele>
        <time>2015-03-22T09:07:37.000Z</time>
      </trkpt>
      <trkpt lat="47.5042" lon="6.68933">
        <ele>356</ele>
        <time>2015-03-22T09:07:38.000Z</time>
      </trkpt>
      <trkpt lat="47.50417" lon="6.68932">
        <ele>356</ele>
        <time>2015-03-22T09:07:39.000Z</time>
      </trkpt>
      <trkpt lat="47.50413" lon="6.6893">
        <ele>357</ele>
        <time>2015-03-22T09:07:40.000Z</time>
      </trkpt>
      <trkpt lat="47.5041" lon="6.68929">
        <ele>357</ele>
        <time>2015-03-22T09:07:41.000Z</time>
      </trkpt>
      <trkpt lat="47.50406" lon="6.68928">
        <ele>357</ele>
        <time>2015-03-22T09:07:42.000Z</time>
      </trkpt>
      <trkpt lat="47.50403" lon="6.68926">
        <ele>357</ele>
        <time>2015-03-22T09:07:43.000Z</time>
      </trkpt>
      <trkpt lat="47.504" lon="6.68924">
        <ele>357</ele>
        <time>2015-03-22T09:07:44.000Z</time>
      </trkpt>
      <trkpt lat="47.50397" lon="6.68923">
        <ele>358</ele>
        <time>2015-03-22T09:07:45.000Z</time>
      </trkpt>
      <trkpt lat="47.50394" lon="6.68921">
        <ele>358</ele>
        <time>2015-03-22T09:07:46.000Z</time>
      </trkpt>
      <trkpt lat="47.5039" lon="6.68919">
        <ele>358</ele>
        <time>2015-03-22T09:07:47.000Z</time>
      </trkpt>
      <trkpt lat="47.50387" lon="6.68917">
        <ele>358</ele>
        <time>2015-03-22T09:07:48.000Z</time>
      </trkpt>
      <trkpt lat="47.50384" lon="6.68915">
        <ele>360</ele>
        <time>2015-03-22T09:07:49.000Z</time>
      </trkpt>
      <trkpt lat="47.50381" lon="6.68913">
        <ele>360</ele>
        <time>2015-03-22T09:07:50.000Z</time>
      </trkpt>
      <trkpt lat="47.50378" lon="6.6891">
        <ele>360</ele>
        <time>2015-03-22T09:07:51.000Z</time>
      </trkpt>
      <trkpt lat="47.50375" lon="6.68907">
        <ele>360</ele>
        <time>2015-03-22T09:07:52.000Z</time>
      </trkpt>
      <trkpt lat="47.50372" lon="6.68905">
        <ele>360</ele>
        <time>2015-03-22T09:07:53.000Z</time>
      </trkpt>
      <trkpt lat="47.5037" lon="6.68902">
        <ele>360</ele>
        <time>2015-03-22T09:07:54.000Z</time>
      </trkpt>
      <trkpt lat="47.50367" lon="6.68899">
        <ele>360</ele>
        <time>2015-03-22T09:07:55.000Z</time>
      </trkpt>
      <trkpt lat="47.50365" lon="6.68895">
        <ele>361</ele>
        <time>2015-03-22T09:07:56.000Z</time>
      </trkpt>
      <trkpt lat="47.50363" lon="6.68891">
        <ele>361</ele>
        <time>2015-03-22T09:07:57.000Z</time>
      </trkpt>
      <trkpt lat="47.50361" lon="6.68886">
        <ele>361</ele>
        <time>2015-03-22T09:07:58.000Z</time>
      </trkpt>
      <trkpt lat="47.50359" lon="6.68882">
        <ele>361</ele>
        <time>2015-03-22T09:07:59.000Z</time>
      </trkpt>
      <trkpt lat="47.50357" lon="6.68878">
        <ele>361</ele>
        <time>2015-03-22T09:08:00.000Z</time>
      </trkpt>
      <trkpt lat="47.50353" lon="6.68873">
        <ele>361</ele>
        <time>2015-03-22T09:08:02.000Z</time>
      </trkpt>
      <trkpt lat="47.50352" lon="6.68873">
        <ele>361</ele>
        <time>2015-03-22T09:08:03.000Z</time>
      </trkpt>
      <trkpt lat="47.50349" lon="6.68869">
        <ele>362</ele>
        <time>2015-03-22T09:08:07.000Z</time>
      </trkpt>
      <trkpt lat="47.50348" lon="6.68867">
        <ele>362</ele>
        <time>2015-03-22T09:08:08.000Z</time>
      </trkpt>
      <trkpt lat="47.50347" lon="6.68861">
        <ele>362</ele>
        <time>2015-03-22T09:08:10.000Z</time>
      </trkpt>
      <trkpt lat="47.50346" lon="6.68858">
        <ele>363</ele>
        <time>2015-03-22T09:08:11.000Z</time>
      </trkpt>
      <trkpt lat="47.50346" lon="6.68851">
        <ele>363</ele>
        <time>2015-03-22T09:08:13.000Z</time>
      </trkpt>
      <trkpt lat="47.50345" lon="6.68849">
        <ele>363</ele>
        <time>2015-03-22T09:08:14.000Z</time>
      </trkpt>
      <trkpt lat="47.50344" lon="6.68846">
        <ele>364</ele>
        <time>2015-03-22T09:08:15.000Z</time>
      </trkpt>
      <trkpt lat="47.50342" lon="6.68842">
        <ele>364</ele>
        <time>2015-03-22T09:08:16.000Z</time>
      </trkpt>
      <trkpt lat="47.5034" lon="6.68837">
        <ele>365</ele>
        <time>2015-03-22T09:08:17.000Z</time>
      </trkpt>
      <trkpt lat="47.50339" lon="6.68832">
        <ele>366</ele>
        <time>2015-03-22T09:08:18.000Z</time>
      </trkpt>
      <trkpt lat="47.50337" lon="6.68827">
        <ele>365</ele>
        <time>2015-03-22T09:08:19.000Z</time>
      </trkpt>
      <trkpt lat="47.50335" lon="6.68823">
        <ele>365</ele>
        <time>2015-03-22T09:08:20.000Z</time>
      </trkpt>
      <trkpt lat="47.50334" lon="6.68818">
        <ele>364</ele>
        <time>2015-03-22T09:08:21.000Z</time>
      </trkpt>
      <trkpt lat="47.50332" lon="6.68814">
        <ele>367</ele>
        <time>2015-03-22T09:08:22.000Z</time>
      </trkpt>
      <trkpt lat="47.50331" lon="6.6881">
        <ele>367</ele>
        <time>2015-03-22T09:08:23.000Z</time>
      </trkpt>
      <trkpt lat="47.50329" lon="6.68806">
        <ele>367</ele>
        <time>2015-03-22T09:08:24.000Z</time>
      </trkpt>
      <trkpt lat="47.50328" lon="6.68802">
        <ele>367</ele>
        <time>2015-03-22T09:08:25.000Z</time>
      </trkpt>
      <trkpt lat="47.50326" lon="6.68797">
        <ele>367</ele>
        <time>2015-03-22T09:08:26.000Z</time>
      </trkpt>
      <trkpt lat="47.5032" lon="6.68778">
        <ele>366</ele>
        <time>2015-03-22T09:08:27.000Z</time>
      </trkpt>
      <trkpt lat="47.5032" lon="6.68773">
        <ele>366</ele>
        <time>2015-03-22T09:08:28.000Z</time>
      </trkpt>
      <trkpt lat="47.5032" lon="6.6877">
        <ele>366</ele>
        <time>2015-03-22T09:08:29.000Z</time>
      </trkpt>
      <trkpt lat="47.50319" lon="6.68765">
        <ele>366</ele>
        <time>2015-03-22T09:08:30.000Z</time>
      </trkpt>
      <trkpt lat="47.50318" lon="6.6876">
        <ele>366</ele>
        <time>2015-03-22T09:08:31.000Z</time>
      </trkpt>
      <trkpt lat="47.50316" lon="6.68754">
        <ele>366</ele>
        <time>2015-03-22T09:08:32.000Z</time>
      </trkpt>
      <trkpt lat="47.50314" lon="6.68748">
        <ele>365</ele>
        <time>2015-03-22T09:08:33.000Z</time>
      </trkpt>
      <trkpt lat="47.50313" lon="6.68742">
        <ele>365</ele>
        <time>2015-03-22T09:08:34.000Z</time>
      </trkpt>
      <trkpt lat="47.50311" lon="6.68735">
        <ele>365</ele>
        <time>2015-03-22T09:08:35.000Z</time>
      </trkpt>
      <trkpt lat="47.50309" lon="6.68729">
        <ele>366</ele>
        <time>2015-03-22T09:08:36.000Z</time>
      </trkpt>
      <trkpt lat="47.50308" lon="6.68723">
        <ele>366</ele>
        <time>2015-03-22T09:08:37.000Z</time>
      </trkpt>
      <trkpt lat="47.50307" lon="6.68719">
        <ele>366</ele>
        <time>2015-03-22T09:08:38.000Z</time>
      </trkpt>
      <trkpt lat="47.50305" lon="6.68716">
        <ele>366</ele>
        <time>2015-03-22T09:08:39.000Z</time>
      </trkpt>
      <trkpt lat="47.50304" lon="6.68709">
        <ele>366</ele>
        <time>2015-03-22T09:08:41.000Z</time>
      </trkpt>
      <trkpt lat="47.50303" lon="6.68707">
        <ele>366</ele>
        <time>2015-03-22T09:08:42.000Z</time>
      </trkpt>
      <trkpt lat="47.50302" lon="6.68704">
        <ele>366</ele>
        <time>2015-03-22T09:08:43.000Z</time>
      </trkpt>
      <trkpt lat="47.503" lon="6.68701">
        <ele>366</ele>
        <time>2015-03-22T09:08:44.000Z</time>
      </trkpt>
      <trkpt lat="47.50299" lon="6.68698">
        <ele>366</ele>
        <time>2015-03-22T09:08:45.000Z</time>
      </trkpt>
      <trkpt lat="47.50297" lon="6.68695">
        <ele>366</ele>
        <time>2015-03-22T09:08:46.000Z</time>
      </trkpt>
      <trkpt lat="47.50296" lon="6.68692">
        <ele>366</ele>
        <time>2015-03-22T09:08:47.000Z</time>
      </trkpt>
      <trkpt lat="47.50294" lon="6.68689">
        <ele>366</ele>
        <time>2015-03-22T09:08:48.000Z</time>
      </trkpt>
      <trkpt lat="47.50293" lon="6.68685">
        <ele>366</ele>
        <time>2015-03-22T09:08:49.000Z</time>
      </trkpt>
      <trkpt lat="47.50292" lon="6.6868">
        <ele>366</ele>
        <time>2015-03-22T09:08:50.000Z</time>
      </trkpt>
      <trkpt lat="47.50291" lon="6.68675">
        <ele>366</ele>
        <time>2015-03-22T09:08:51.000Z</time>
      </trkpt>
      <trkpt lat="47.5029" lon="6.6867">
        <ele>367</ele>
        <time>2015-03-22T09:08:52.000Z</time>
      </trkpt>
      <trkpt lat="47.50288" lon="6.68665">
        <ele>367</ele>
        <time>2015-03-22T09:08:53.000Z</time>
      </trkpt>
      <trkpt lat="47.50286" lon="6.6866">
        <ele>368</ele>
        <time>2015-03-22T09:08:54.000Z</time>
      </trkpt>
      <trkpt lat="47.50284" lon="6.68656">
        <ele>368</ele>
        <time>2015-03-22T09:08:55.000Z</time>
      </trkpt>
      <trkpt lat="47.50281" lon="6.68651">
        <ele>368</ele>
        <time>2015-03-22T09:08:56.000Z</time>
      </trkpt>
      <trkpt lat="47.50279" lon="6.68645">
        <ele>368</ele>
        <time>2015-03-22T09:08:57.000Z</time>
      </trkpt>
      <trkpt lat="47.50277" lon="6.6864">
        <ele>368</ele>
        <time>2015-03-22T09:08:58.000Z</time>
      </trkpt>
      <trkpt lat="47.50275" lon="6.68635">
        <ele>368</ele>
        <time>2015-03-22T09:08:59.000Z</time>
      </trkpt>
      <trkpt lat="47.50274" lon="6.6863">
        <ele>368</ele>
        <time>2015-03-22T09:09:00.000Z</time>
      </trkpt>
      <trkpt lat="47.50272" lon="6.68626">
        <ele>368</ele>
        <time>2015-03-22T09:09:01.000Z</time>
      </trkpt>
      <trkpt lat="47.50271" lon="6.68621">
        <ele>369</ele>
        <time>2015-03-22T09:09:02.000Z</time>
      </trkpt>
      <trkpt lat="47.5027" lon="6.68617">
        <ele>369</ele>
        <time>2015-03-22T09:09:03.000Z</time>
      </trkpt>
      <trkpt lat="47.50269" lon="6.68612">
        <ele>369</ele>
        <time>2015-03-22T09:09:04.000Z</time>
      </trkpt>
      <trkpt lat="47.50268" lon="6.68608">
        <ele>369</ele>
        <time>2015-03-22T09:09:05.000Z</time>
      </trkpt>
      <trkpt lat="47.50267" lon="6.68605">
        <ele>369</ele>
        <time>2015-03-22T09:09:06.000Z</time>
      </trkpt>
      <trkpt lat="47.50266" lon="6.68601">
        <ele>369</ele>
        <time>2015-03-22T09:09:07.000Z</time>
      </trkpt>
      <trkpt lat="47.50265" lon="6.68598">
        <ele>370</ele>
        <time>2015-03-22T09:09:08.000Z</time>
      </trkpt>
      <trkpt lat="47.50263" lon="6.68594">
        <ele>370</ele>
        <time>2015-03-22T09:09:12.000Z</time>
      </trkpt>
      <trkpt lat="47.50262" lon="6.68593">
        <ele>370</ele>
        <time>2015-03-22T09:09:13.000Z</time>
      </trkpt>
      <trkpt lat="47.50259" lon="6.6859">
        <ele>370</ele>
        <time>2015-03-22T09:09:15.000Z</time>
      </trkpt>
      <trkpt lat="47.50258" lon="6.68587">
        <ele>371</ele>
        <time>2015-03-22T09:09:16.000Z</time>
      </trkpt>
      <trkpt lat="47.50256" lon="6.68583">
        <ele>372</ele>
        <time>2015-03-22T09:09:18.000Z</time>
      </trkpt>
      <trkpt lat="47.50256" lon="6.6858">
        <ele>372</ele>
        <time>2015-03-22T09:09:19.000Z</time>
      </trkpt>
      <trkpt lat="47.50254" lon="6.68575">
        <ele>372</ele>
        <time>2015-03-22T09:09:21.000Z</time>
      </trkpt>
      <trkpt lat="47.50254" lon="6.68574">
        <ele>372</ele>
        <time>2015-03-22T09:09:22.000Z</time>
      </trkpt>
      <trkpt lat="47.50252" lon="6.68569">
        <ele>372</ele>
        <time>2015-03-22T09:09:24.000Z</time>
      </trkpt>
      <trkpt lat="47.5025" lon="6.68564">
        <ele>372</ele>
        <time>2015-03-22T09:09:25.000Z</time>
      </trkpt>
      <trkpt lat="47.50248" lon="6.68559">
        <ele>372</ele>
        <time>2015-03-22T09:09:26.000Z</time>
      </trkpt>
      <trkpt lat="47.50246" lon="6.68554">
        <ele>372</ele>
        <time>2015-03-22T09:09:27.000Z</time>
      </trkpt>
      <trkpt lat="47.50243" lon="6.68548">
        <ele>372</ele>
        <time>2015-03-22T09:09:28.000Z</time>
      </trkpt>
      <trkpt lat="47.50241" lon="6.68543">
        <ele>372</ele>
        <time>2015-03-22T09:09:29.000Z</time>
      </trkpt>
      <trkpt lat="47.50239" lon="6.68537">
        <ele>373</ele>
        <time>2015-03-22T09:09:30.000Z</time>
      </trkpt>
      <trkpt lat="47.50238" lon="6.68533">
        <ele>373</ele>
        <time>2015-03-22T09:09:31.000Z</time>
      </trkpt>
      <trkpt lat="47.50235" lon="6.68526">
        <ele>373</ele>
        <time>2015-03-22T09:09:32.000Z</time>
      </trkpt>
      <trkpt lat="47.50233" lon="6.6852">
        <ele>373</ele>
        <time>2015-03-22T09:09:33.000Z</time>
      </trkpt>
      <trkpt lat="47.5023" lon="6.68516">
        <ele>373</ele>
        <time>2015-03-22T09:09:34.000Z</time>
      </trkpt>
      <trkpt lat="47.50229" lon="6.68511">
        <ele>373</ele>
        <time>2015-03-22T09:09:35.000Z</time>
      </trkpt>
      <trkpt lat="47.50227" lon="6.68507">
        <ele>373</ele>
        <time>2015-03-22T09:09:36.000Z</time>
      </trkpt>
      <trkpt lat="47.50225" lon="6.68503">
        <ele>373</ele>
        <time>2015-03-22T09:09:37.000Z</time>
      </trkpt>
      <trkpt lat="47.50223" lon="6.685">
        <ele>376</ele>
        <time>2015-03-22T09:09:38.000Z</time>
      </trkpt>
      <trkpt lat="47.50222" lon="6.68496">
        <ele>376</ele>
        <time>2015-03-22T09:09:39.000Z</time>
      </trkpt>
      <trkpt lat="47.50221" lon="6.68492">
        <ele>376</ele>
        <time>2015-03-22T09:09:40.000Z</time>
      </trkpt>
      <trkpt lat="47.5022" lon="6.68488">
        <ele>376</ele>
        <time>2015-03-22T09:09:41.000Z</time>
      </trkpt>
      <trkpt lat="47.50219" lon="6.68484">
        <ele>376</ele>
        <time>2015-03-22T09:09:42.000Z</time>
      </trkpt>
      <trkpt lat="47.50219" lon="6.6848">
        <ele>376</ele>
        <time>2015-03-22T09:09:43.000Z</time>
      </trkpt>
      <trkpt lat="47.50218" lon="6.68477">
        <ele>377</ele>
        <time>2015-03-22T09:09:44.000Z</time>
      </trkpt>
      <trkpt lat="47.50217" lon="6.68473">
        <ele>377</ele>
        <time>2015-03-22T09:09:45.000Z</time>
      </trkpt>
      <trkpt lat="47.50216" lon="6.68469">
        <ele>377</ele>
        <time>2015-03-22T09:09:46.000Z</time>
      </trkpt>
      <trkpt lat="47.50214" lon="6.68465">
        <ele>377</ele>
        <time>2015-03-22T09:09:47.000Z</time>
      </trkpt>
      <trkpt lat="47.50212" lon="6.68461">
        <ele>377</ele>
        <time>2015-03-22T09:09:48.000Z</time>
      </trkpt>
      <trkpt lat="47.5021" lon="6.68457">
        <ele>377</ele>
        <time>2015-03-22T09:09:49.000Z</time>
      </trkpt>
      <trkpt lat="47.50208" lon="6.68455">
        <ele>377</ele>
        <time>2015-03-22T09:09:50.000Z</time>
      </trkpt>
      <trkpt lat="47.50205" lon="6.68452">
        <ele>377</ele>
        <time>2015-03-22T09:09:51.000Z</time>
      </trkpt>
      <trkpt lat="47.50202" lon="6.68451">
        <ele>377</ele>
        <time>2015-03-22T09:09:52.000Z</time>
      </trkpt>
      <trkpt lat="47.50199" lon="6.6845">
        <ele>377</ele>
        <time>2015-03-22T09:09:53.000Z</time>
      </trkpt>
      <trkpt lat="47.50196" lon="6.68451">
        <ele>377</ele>
        <time>2015-03-22T09:09:54.000Z</time>
      </trkpt>
      <trkpt lat="47.50193" lon="6.68452">
        <ele>377</ele>
        <time>2015-03-22T09:09:55.000Z</time>
      </trkpt>
      <trkpt lat="47.5019" lon="6.68452">
        <ele>377</ele>
        <time>2015-03-22T09:09:56.000Z</time>
      </trkpt>
      <trkpt lat="47.50188" lon="6.68452">
        <ele>377</ele>
        <time>2015-03-22T09:09:57.000Z</time>
      </trkpt>
      <trkpt lat="47.50185" lon="6.68452">
        <ele>377</ele>
        <time>2015-03-22T09:09:58.000Z</time>
      </trkpt>
      <trkpt lat="47.50181" lon="6.68451">
        <ele>377</ele>
        <time>2015-03-22T09:09:59.000Z</time>
      </trkpt>
      <trkpt lat="47.50178" lon="6.68449">
        <ele>377</ele>
        <time>2015-03-22T09:10:00.000Z</time>
      </trkpt>
      <trkpt lat="47.50175" lon="6.68448">
        <ele>377</ele>
        <time>2015-03-22T09:10:01.000Z</time>
      </trkpt>
      <trkpt lat="47.50172" lon="6.68446">
        <ele>377</ele>
        <time>2015-03-22T09:10:02.000Z</time>
      </trkpt>
      <trkpt lat="47.5017" lon="6.68444">
        <ele>377</ele>
        <time>2015-03-22T09:10:03.000Z</time>
      </trkpt>
      <trkpt lat="47.50168" lon="6.68442">
        <ele>377</ele>
        <time>2015-03-22T09:10:04.000Z</time>
      </trkpt>
      <trkpt lat="47.50165" lon="6.6844">
        <ele>374</ele>
        <time>2015-03-22T09:10:05.000Z</time>
      </trkpt>
      <trkpt lat="47.50163" lon="6.68438">
        <ele>374</ele>
        <time>2015-03-22T09:10:06.000Z</time>
      </trkpt>
      <trkpt lat="47.5016" lon="6.68436">
        <ele>374</ele>
        <time>2015-03-22T09:10:07.000Z</time>
      </trkpt>
      <trkpt lat="47.50157" lon="6.68434">
        <ele>374</ele>
        <time>2015-03-22T09:10:08.000Z</time>
      </trkpt>
      <trkpt lat="47.50154" lon="6.68433">
        <ele>374</ele>
        <time>2015-03-22T09:10:09.000Z</time>
      </trkpt>
      <trkpt lat="47.50151" lon="6.6843">
        <ele>374</ele>
        <time>2015-03-22T09:10:10.000Z</time>
      </trkpt>
      <trkpt lat="47.50149" lon="6.68429">
        <ele>374</ele>
        <time>2015-03-22T09:10:11.000Z</time>
      </trkpt>
      <trkpt lat="47.50146" lon="6.68427">
        <ele>374</ele>
        <time>2015-03-22T09:10:12.000Z</time>
      </trkpt>
      <trkpt lat="47.50142" lon="6.68424">
        <ele>374</ele>
        <time>2015-03-22T09:10:14.000Z</time>
      </trkpt>
      <trkpt lat="47.5014" lon="6.68421">
        <ele>374</ele>
        <time>2015-03-22T09:10:15.000Z</time>
      </trkpt>
      <trkpt lat="47.50138" lon="6.68418">
        <ele>374</ele>
        <time>2015-03-22T09:10:16.000Z</time>
      </trkpt>
      <trkpt lat="47.50137" lon="6.68416">
        <ele>378</ele>
        <time>2015-03-22T09:10:17.001Z</time>
      </trkpt>
      <trkpt lat="47.50133" lon="6.68409">
        <ele>378</ele>
        <time>2015-03-22T09:10:18.000Z</time>
      </trkpt>
      <trkpt lat="47.5013" lon="6.68405">
        <ele>378</ele>
        <time>2015-03-22T09:10:19.000Z</time>
      </trkpt>
      <trkpt lat="47.50128" lon="6.684">
        <ele>378</ele>
        <time>2015-03-22T09:10:20.000Z</time>
      </trkpt>
      <trkpt lat="47.50126" lon="6.68395">
        <ele>378</ele>
        <time>2015-03-22T09:10:21.000Z</time>
      </trkpt>
      <trkpt lat="47.50125" lon="6.68391">
        <ele>378</ele>
        <time>2015-03-22T09:10:22.000Z</time>
      </trkpt>
      <trkpt lat="47.50124" lon="6.68387">
        <ele>378</ele>
        <time>2015-03-22T09:10:23.000Z</time>
      </trkpt>
      <trkpt lat="47.50123" lon="6.68382">
        <ele>378</ele>
        <time>2015-03-22T09:10:24.000Z</time>
      </trkpt>
      <trkpt lat="47.50122" lon="6.68378">
        <ele>379</ele>
        <time>2015-03-22T09:10:25.000Z</time>
      </trkpt>
      <trkpt lat="47.50121" lon="6.68374">
        <ele>379</ele>
        <time>2015-03-22T09:10:26.000Z</time>
      </trkpt>
      <trkpt lat="47.5012" lon="6.68368">
        <ele>379</ele>
        <time>2015-03-22T09:10:28.000Z</time>
      </trkpt>
      <trkpt lat="47.5012" lon="6.68365">
        <ele>379</ele>
        <time>2015-03-22T09:10:29.000Z</time>
      </trkpt>
      <trkpt lat="47.5012" lon="6.68361">
        <ele>379</ele>
        <time>2015-03-22T09:10:30.000Z</time>
      </trkpt>
      <trkpt lat="47.5012" lon="6.68357">
        <ele>379</ele>
        <time>2015-03-22T09:10:31.000Z</time>
      </trkpt>
      <trkpt lat="47.50121" lon="6.68353">
        <ele>380</ele>
        <time>2015-03-22T09:10:32.000Z</time>
      </trkpt>
      <trkpt lat="47.50121" lon="6.68349">
        <ele>380</ele>
        <time>2015-03-22T09:10:33.000Z</time>
      </trkpt>
      <trkpt lat="47.50122" lon="6.68346">
        <ele>380</ele>
        <time>2015-03-22T09:10:34.000Z</time>
      </trkpt>
      <trkpt lat="47.50121" lon="6.68342">
        <ele>380</ele>
        <time>2015-03-22T09:10:35.000Z</time>
      </trkpt>
      <trkpt lat="47.50121" lon="6.68339">
        <ele>380</ele>
        <time>2015-03-22T09:10:36.000Z</time>
      </trkpt>
      <trkpt lat="47.5012" lon="6.68334">
        <ele>380</ele>
        <time>2015-03-22T09:10:37.000Z</time>
      </trkpt>
      <trkpt lat="47.50118" lon="6.6833">
        <ele>383</ele>
        <time>2015-03-22T09:10:38.000Z</time>
      </trkpt>
      <trkpt lat="47.50117" lon="6.68326">
        <ele>383</ele>
        <time>2015-03-22T09:10:39.000Z</time>
      </trkpt>
      <trkpt lat="47.50116" lon="6.68322">
        <ele>383</ele>
        <time>2015-03-22T09:10:40.000Z</time>
      </trkpt>
      <trkpt lat="47.50115" lon="6.68317">
        <ele>383</ele>
        <time>2015-03-22T09:10:41.000Z</time>
      </trkpt>
      <trkpt lat="47.50115" lon="6.68313">
        <ele>383</ele>
        <time>2015-03-22T09:10:42.000Z</time>
      </trkpt>
      <trkpt lat="47.50115" lon="6.68309">
        <ele>383</ele>
        <time>2015-03-22T09:10:43.000Z</time>
      </trkpt>
      <trkpt lat="47.50115" lon="6.68304">
        <ele>383</ele>
        <time>2015-03-22T09:10:45.000Z</time>
      </trkpt>
      <trkpt lat="47.50115" lon="6.68303">
        <ele>383</ele>
        <time>2015-03-22T09:10:46.000Z</time>
      </trkpt>
      <trkpt lat="47.50114" lon="6.68299">
        <ele>384</ele>
        <time>2015-03-22T09:10:48.000Z</time>
      </trkpt>
      <trkpt lat="47.50113" lon="6.68296">
        <ele>384</ele>
        <time>2015-03-22T09:10:49.000Z</time>
      </trkpt>
      <trkpt lat="47.50113" lon="6.68292">
        <ele>384</ele>
        <time>2015-03-22T09:10:50.999Z</time>
      </trkpt>
      <trkpt lat="47.50113" lon="6.68285">
        <ele>384</ele>
        <time>2015-03-22T09:10:52.000Z</time>
      </trkpt>
      <trkpt lat="47.50113" lon="6.68279">
        <ele>384</ele>
        <time>2015-03-22T09:10:53.000Z</time>
      </trkpt>
      <trkpt lat="47.50112" lon="6.68273">
        <ele>384</ele>
        <time>2015-03-22T09:10:54.000Z</time>
      </trkpt>
      <trkpt lat="47.50111" lon="6.68267">
        <ele>384</ele>
        <time>2015-03-22T09:10:55.000Z</time>
      </trkpt>
      <trkpt lat="47.50111" lon="6.68261">
        <ele>384</ele>
        <time>2015-03-22T09:10:56.000Z</time>
      </trkpt>
      <trkpt lat="47.5011" lon="6.68255">
        <ele>384</ele>
        <time>2015-03-22T09:10:57.000Z</time>
      </trkpt>
      <trkpt lat="47.50109" lon="6.68249">
        <ele>385</ele>
        <time>2015-03-22T09:10:58.000Z</time>
      </trkpt>
      <trkpt lat="47.50108" lon="6.68243">
        <ele>385</ele>
        <time>2015-03-22T09:10:59.000Z</time>
      </trkpt>
      <trkpt lat="47.50107" lon="6.68237">
        <ele>385</ele>
        <time>2015-03-22T09:11:00.000Z</time>
      </trkpt>
      <trkpt lat="47.50105" lon="6.68232">
        <ele>385</ele>
        <time>2015-03-22T09:11:01.000Z</time>
      </trkpt>
      <trkpt lat="47.50104" lon="6.68227">
        <ele>385</ele>
        <time>2015-03-22T09:11:02.000Z</time>
      </trkpt>
      <trkpt lat="47.50102" lon="6.68222">
        <ele>385</ele>
        <time>2015-03-22T09:11:03.000Z</time>
      </trkpt>
      <trkpt lat="47.501" lon="6.68217">
        <ele>385</ele>
        <time>2015-03-22T09:11:04.000Z</time>
      </trkpt>
      <trkpt lat="47.50098" lon="6.68213">
        <ele>385</ele>
        <time>2015-03-22T09:11:05.000Z</time>
      </trkpt>
      <trkpt lat="47.50096" lon="6.6821">
        <ele>385</ele>
        <time>2015-03-22T09:11:06.000Z</time>
      </trkpt>
      <trkpt lat="47.50095" lon="6.68206">
        <ele>385</ele>
        <time>2015-03-22T09:11:07.000Z</time>
      </trkpt>
      <trkpt lat="47.50093" lon="6.68203">
        <ele>385</ele>
        <time>2015-03-22T09:11:08.000Z</time>
      </trkpt>
      <trkpt lat="47.50092" lon="6.68199">
        <ele>385</ele>
        <time>2015-03-22T09:11:09.000Z</time>
      </trkpt>
      <trkpt lat="47.50091" lon="6.68195">
        <ele>385</ele>
        <time>2015-03-22T09:11:10.000Z</time>
      </trkpt>
      <trkpt lat="47.5009" lon="6.6819">
        <ele>385</ele>
        <time>2015-03-22T09:11:11.000Z</time>
      </trkpt>
      <trkpt lat="47.50088" lon="6.68185">
        <ele>385</ele>
        <time>2015-03-22T09:11:12.000Z</time>
      </trkpt>
      <trkpt lat="47.50086" lon="6.68179">
        <ele>385</ele>
        <time>2015-03-22T09:11:13.000Z</time>
      </trkpt>
      <trkpt lat="47.50083" lon="6.68173">
        <ele>383</ele>
        <time>2015-03-22T09:11:14.000Z</time>
      </trkpt>
      <trkpt lat="47.50081" lon="6.68166">
        <ele>384</ele>
        <time>2015-03-22T09:11:15.000Z</time>
      </trkpt>
      <trkpt lat="47.50079" lon="6.6816">
        <ele>383</ele>
        <time>2015-03-22T09:11:16.000Z</time>
      </trkpt>
      <trkpt lat="47.50078" lon="6.68153">
        <ele>383</ele>
        <time>2015-03-22T09:11:17.000Z</time>
      </trkpt>
      <trkpt lat="47.50076" lon="6.68147">
        <ele>382</ele>
        <time>2015-03-22T09:11:18.000Z</time>
      </trkpt>
      <trkpt lat="47.50076" lon="6.68141">
        <ele>382</ele>
        <time>2015-03-22T09:11:19.000Z</time>
      </trkpt>
      <trkpt lat="47.50076" lon="6.68136">
        <ele>382</ele>
        <time>2015-03-22T09:11:20.000Z</time>
      </trkpt>
      <trkpt lat="47.50076" lon="6.68133">
        <ele>382</ele>
        <time>2015-03-22T09:11:21.000Z</time>
      </trkpt>
      <trkpt lat="47.50076" lon="6.68127">
        <ele>382</ele>
        <time>2015-03-22T09:11:23.000Z</time>
      </trkpt>
      <trkpt lat="47.50075" lon="6.68125">
        <ele>382</ele>
        <time>2015-03-22T09:11:24.000Z</time>
      </trkpt>
      <trkpt lat="47.50075" lon="6.68119">
        <ele>382</ele>
        <time>2015-03-22T09:11:26.000Z</time>
      </trkpt>
      <trkpt lat="47.50075" lon="6.68115">
        <ele>382</ele>
        <time>2015-03-22T09:11:27.000Z</time>
      </trkpt>
      <trkpt lat="47.50076" lon="6.6811">
        <ele>382</ele>
        <time>2015-03-22T09:11:28.000Z</time>
      </trkpt>
      <trkpt lat="47.50077" lon="6.68105">
        <ele>383</ele>
        <time>2015-03-22T09:11:29.000Z</time>
      </trkpt>
      <trkpt lat="47.50079" lon="6.681">
        <ele>383</ele>
        <time>2015-03-22T09:11:30.000Z</time>
      </trkpt>
      <trkpt lat="47.5008" lon="6.68095">
        <ele>383</ele>
        <time>2015-03-22T09:11:31.000Z</time>
      </trkpt>
      <trkpt lat="47.50082" lon="6.6809">
        <ele>384</ele>
        <time>2015-03-22T09:11:32.000Z</time>
      </trkpt>
      <trkpt lat="47.50083" lon="6.68086">
        <ele>384</ele>
        <time>2015-03-22T09:11:33.000Z</time>
      </trkpt>
      <trkpt lat="47.50084" lon="6.68082">
        <ele>385</ele>
        <time>2015-03-22T09:11:34.000Z</time>
      </trkpt>
      <trkpt lat="47.50085" lon="6.68077">
        <ele>386</ele>
        <time>2015-03-22T09:11:35.000Z</time>
      </trkpt>
      <trkpt lat="47.50086" lon="6.68073">
        <ele>386</ele>
        <time>2015-03-22T09:11:36.000Z</time>
      </trkpt>
      <trkpt lat="47.50087" lon="6.68068">
        <ele>386</ele>
        <time>2015-03-22T09:11:37.000Z</time>
      </trkpt>
      <trkpt lat="47.50088" lon="6.68064">
        <ele>387</ele>
        <time>2015-03-22T09:11:38.000Z</time>
      </trkpt>
      <trkpt lat="47.50089" lon="6.68058">
        <ele>387</ele>
        <time>2015-03-22T09:11:39.000Z</time>
      </trkpt>
      <trkpt lat="47.5009" lon="6.68053">
        <ele>387</ele>
        <time>2015-03-22T09:11:40.000Z</time>
      </trkpt>
      <trkpt lat="47.50091" lon="6.68046">
        <ele>387</ele>
        <time>2015-03-22T09:11:41.000Z</time>
      </trkpt>
      <trkpt lat="47.50091" lon="6.68041">
        <ele>387</ele>
        <time>2015-03-22T09:11:42.000Z</time>
      </trkpt>
      <trkpt lat="47.50091" lon="6.68035">
        <ele>387</ele>
        <time>2015-03-22T09:11:43.000Z</time>
      </trkpt>
      <trkpt lat="47.5009" lon="6.68031">
        <ele>387</ele>
        <time>2015-03-22T09:11:44.000Z</time>
      </trkpt>
      <trkpt lat="47.5009" lon="6.68026">
        <ele>387</ele>
        <time>2015-03-22T09:11:45.000Z</time>
      </trkpt>
      <trkpt lat="47.5009" lon="6.68022">
        <ele>387</ele>
        <time>2015-03-22T09:11:46.000Z</time>
      </trkpt>
      <trkpt lat="47.5009" lon="6.68017">
        <ele>386</ele>
        <time>2015-03-22T09:11:47.000Z</time>
      </trkpt>
      <trkpt lat="47.50089" lon="6.68012">
        <ele>386</ele>
        <time>2015-03-22T09:11:48.000Z</time>
      </trkpt>
      <trkpt lat="47.50089" lon="6.68006">
        <ele>386</ele>
        <time>2015-03-22T09:11:49.000Z</time>
      </trkpt>
      <trkpt lat="47.50089" lon="6.68001">
        <ele>386</ele>
        <time>2015-03-22T09:11:50.000Z</time>
      </trkpt>
      <trkpt lat="47.50089" lon="6.67996">
        <ele>386</ele>
        <time>2015-03-22T09:11:51.000Z</time>
      </trkpt>
      <trkpt lat="47.50089" lon="6.6799">
        <ele>386</ele>
        <time>2015-03-22T09:11:54.000Z</time>
      </trkpt>
      <trkpt lat="47.50088" lon="6.67989">
        <ele>386</ele>
        <time>2015-03-22T09:11:55.000Z</time>
      </trkpt>
      <trkpt lat="47.50087" lon="6.67983">
        <ele>386</ele>
        <time>2015-03-22T09:11:57.000Z</time>
      </trkpt>
      <trkpt lat="47.50086" lon="6.67979">
        <ele>386</ele>
        <time>2015-03-22T09:11:58.000Z</time>
      </trkpt>
      <trkpt lat="47.50086" lon="6.67978">
        <ele>386</ele>
        <time>2015-03-22T09:11:59.001Z</time>
      </trkpt>
      <trkpt lat="47.50085" lon="6.67969">
        <ele>387</ele>
        <time>2015-03-22T09:12:00.000Z</time>
      </trkpt>
      <trkpt lat="47.50085" lon="6.67964">
        <ele>387</ele>
        <time>2015-03-22T09:12:01.000Z</time>
      </trkpt>
      <trkpt lat="47.50085" lon="6.67958">
        <ele>387</ele>
        <time>2015-03-22T09:12:02.000Z</time>
      </trkpt>
      <trkpt lat="47.50086" lon="6.67953">
        <ele>386</ele>
        <time>2015-03-22T09:12:03.000Z</time>
      </trkpt>
      <trkpt lat="47.50088" lon="6.67949">
        <ele>386</ele>
        <time>2015-03-22T09:12:04.000Z</time>
      </trkpt>
      <trkpt lat="47.5009" lon="6.67944">
        <ele>386</ele>
        <time>2015-03-22T09:12:05.000Z</time>
      </trkpt>
      <trkpt lat="47.50092" lon="6.67941">
        <ele>386</ele>
        <time>2015-03-22T09:12:06.000Z</time>
      </trkpt>
      <trkpt lat="47.50092" lon="6.67937">
        <ele>386</ele>
        <time>2015-03-22T09:12:07.000Z</time>
      </trkpt>
      <trkpt lat="47.50093" lon="6.67934">
        <ele>386</ele>
        <time>2015-03-22T09:12:08.000Z</time>
      </trkpt>
      <trkpt lat="47.50094" lon="6.67928">
        <ele>386</ele>
        <time>2015-03-22T09:12:10.000Z</time>
      </trkpt>
      <trkpt lat="47.50094" lon="6.67925">
        <ele>386</ele>
        <time>2015-03-22T09:12:11.000Z</time>
      </trkpt>
      <trkpt lat="47.50094" lon="6.67921">
        <ele>385</ele>
        <time>2015-03-22T09:12:12.000Z</time>
      </trkpt>
      <trkpt lat="47.50094" lon="6.67918">
        <ele>385</ele>
        <time>2015-03-22T09:12:13.000Z</time>
      </trkpt>
      <trkpt lat="47.50094" lon="6.67912">
        <ele>385</ele>
        <time>2015-03-22T09:12:21.000Z</time>
      </trkpt>
      <trkpt lat="47.50094" lon="6.67912">
        <ele>385</ele>
        <time>2015-03-22T09:12:22.000Z</time>
      </trkpt>
      <trkpt lat="47.50091" lon="6.67906">
        <ele>385</ele>
        <time>2015-03-22T09:12:34.999Z</time>
      </trkpt>
      <trkpt lat="47.50091" lon="6.67906">
        <ele>385</ele>
        <time>2015-03-22T09:12:36.000Z</time>
      </trkpt>
      <trkpt lat="47.50091" lon="6.67899">
        <ele>385</ele>
        <time>2015-03-22T09:12:58.001Z</time>
      </trkpt>
      <trkpt lat="47.50091" lon="6.67898">
        <ele>385</ele>
        <time>2015-03-22T09:12:59.000Z</time>
      </trkpt>
      <trkpt lat="47.50092" lon="6.67892">
        <ele>385</ele>
        <time>2015-03-22T09:13:02.000Z</time>
      </trkpt>
      <trkpt lat="47.50092" lon="6.6789">
        <ele>385</ele>
        <time>2015-03-22T09:13:03.000Z</time>
      </trkpt>
      <trkpt lat="47.50092" lon="6.67884">
        <ele>385</ele>
        <time>2015-03-22T09:13:05.000Z</time>
      </trkpt>
      <trkpt lat="47.5009" lon="6.6788">
        <ele>385</ele>
        <time>2015-03-22T09:13:06.000Z</time>
      </trkpt>
      <trkpt lat="47.50089" lon="6.67876">
        <ele>384</ele>
        <time>2015-03-22T09:13:07.000Z</time>
      </trkpt>
      <trkpt lat="47.50087" lon="6.67871">
        <ele>384</ele>
        <time>2015-03-22T09:13:08.000Z</time>
      </trkpt>
      <trkpt lat="47.50084" lon="6.67866">
        <ele>384</ele>
        <time>2015-03-22T09:13:09.000Z</time>
      </trkpt>
      <trkpt lat="47.50081" lon="6.67859">
        <ele>378</ele>
        <time>2015-03-22T09:13:10.000Z</time>
      </trkpt>
      <trkpt lat="47.50079" lon="6.67852">
        <ele>378</ele>
        <time>2015-03-22T09:13:11.000Z</time>
      </trkpt>
      <trkpt lat="47.50077" lon="6.67845">
        <ele>378</ele>
        <time>2015-03-22T09:13:12.000Z</time>
      </trkpt>
      <trkpt lat="47.50076" lon="6.67839">
        <ele>379</ele>
        <time>2015-03-22T09:13:13.000Z</time>
      </trkpt>
      <trkpt lat="47.50076" lon="6.67834">
        <ele>379</ele>
        <time>2015-03-22T09:13:14.000Z</time>
      </trkpt>
      <trkpt lat="47.50077" lon="6.6783">
        <ele>378</ele>
        <time>2015-03-22T09:13:15.000Z</time>
      </trkpt>
      <trkpt lat="47.50079" lon="6.67827">
        <ele>378</ele>
        <time>2015-03-22T09:13:16.000Z</time>
      </trkpt>
      <trkpt lat="47.50081" lon="6.67825">
        <ele>378</ele>
        <time>2015-03-22T09:13:17.000Z</time>
      </trkpt>
      <trkpt lat="47.50083" lon="6.67822">
        <ele>377</ele>
        <time>2015-03-22T09:13:18.000Z</time>
      </trkpt>
      <trkpt lat="47.50085" lon="6.67819">
        <ele>380</ele>
        <time>2015-03-22T09:13:19.000Z</time>
      </trkpt>
      <trkpt lat="47.50087" lon="6.67816">
        <ele>380</ele>
        <time>2015-03-22T09:13:20.000Z</time>
      </trkpt>
      <trkpt lat="47.50088" lon="6.67812">
        <ele>380</ele>
        <time>2015-03-22T09:13:21.000Z</time>
      </trkpt>
      <trkpt lat="47.50091" lon="6.67808">
        <ele>380</ele>
        <time>2015-03-22T09:13:22.000Z</time>
      </trkpt>
      <trkpt lat="47.50093" lon="6.67803">
        <ele>380</ele>
        <time>2015-03-22T09:13:23.000Z</time>
      </trkpt>
      <trkpt lat="47.50096" lon="6.67797">
        <ele>380</ele>
        <time>2015-03-22T09:13:24.000Z</time>
      </trkpt>
      <trkpt lat="47.50098" lon="6.67792">
        <ele>380</ele>
        <time>2015-03-22T09:13:25.000Z</time>
      </trkpt>
      <trkpt lat="47.501" lon="6.67788">
        <ele>379</ele>
        <time>2015-03-22T09:13:26.000Z</time>
      </trkpt>
      <trkpt lat="47.50102" lon="6.67784">
        <ele>379</ele>
        <time>2015-03-22T09:13:27.000Z</time>
      </trkpt>
      <trkpt lat="47.50105" lon="6.67782">
        <ele>379</ele>
        <time>2015-03-22T09:13:28.000Z</time>
      </trkpt>
      <trkpt lat="47.50109" lon="6.67779">
        <ele>379</ele>
        <time>2015-03-22T09:13:29.000Z</time>
      </trkpt>
      <trkpt lat="47.50113" lon="6.67777">
        <ele>379</ele>
        <time>2015-03-22T09:13:30.000Z</time>
      </trkpt>
      <trkpt lat="47.50117" lon="6.67775">
        <ele>380</ele>
        <time>2015-03-22T09:13:31.000Z</time>
      </trkpt>
      <trkpt lat="47.5012" lon="6.67772">
        <ele>380</ele>
        <time>2015-03-22T09:13:32.000Z</time>
      </trkpt>
      <trkpt lat="47.50123" lon="6.67767">
        <ele>380</ele>
        <time>2015-03-22T09:13:33.000Z</time>
      </trkpt>
      <trkpt lat="47.50126" lon="6.67762">
        <ele>380</ele>
        <time>2015-03-22T09:13:34.000Z</time>
      </trkpt>
      <trkpt lat="47.50129" lon="6.67757">
        <ele>380</ele>
        <time>2015-03-22T09:13:35.000Z</time>
      </trkpt>
      <trkpt lat="47.50131" lon="6.67752">
        <ele>380</ele>
        <time>2015-03-22T09:13:36.000Z</time>
      </trkpt>
      <trkpt lat="47.50134" lon="6.67747">
        <ele>376</ele>
        <time>2015-03-22T09:13:37.000Z</time>
      </trkpt>
      <trkpt lat="47.50137" lon="6.67742">
        <ele>376</ele>
        <time>2015-03-22T09:13:38.000Z</time>
      </trkpt>
      <trkpt lat="47.5014" lon="6.67738">
        <ele>376</ele>
        <time>2015-03-22T09:13:39.000Z</time>
      </trkpt>
      <trkpt lat="47.50144" lon="6.67733">
        <ele>376</ele>
        <time>2015-03-22T09:13:40.000Z</time>
      </trkpt>
      <trkpt lat="47.50147" lon="6.67729">
        <ele>376</ele>
        <time>2015-03-22T09:13:41.000Z</time>
      </trkpt>
      <trkpt lat="47.5015" lon="6.67725">
        <ele>376</ele>
        <time>2015-03-22T09:13:42.000Z</time>
      </trkpt>
      <trkpt lat="47.50153" lon="6.6772">
        <ele>376</ele>
        <time>2015-03-22T09:13:43.000Z</time>
      </trkpt>
      <trkpt lat="47.50155" lon="6.67716">
        <ele>376</ele>
        <time>2015-03-22T09:13:44.000Z</time>
      </trkpt>
      <trkpt lat="47.50158" lon="6.67712">
        <ele>375</ele>
        <time>2015-03-22T09:13:45.000Z</time>
      </trkpt>
      <trkpt lat="47.5016" lon="6.67711">
        <ele>375</ele>
        <time>2015-03-22T09:13:46.000Z</time>
      </trkpt>
      <trkpt lat="47.50163" lon="6.67712">
        <ele>376</ele>
        <time>2015-03-22T09:13:47.000Z</time>
      </trkpt>
      <trkpt lat="47.50165" lon="6.67714">
        <ele>376</ele>
        <time>2015-03-22T09:13:48.000Z</time>
      </trkpt>
      <trkpt lat="47.50167" lon="6.67718">
        <ele>378</ele>
        <time>2015-03-22T09:13:49.000Z</time>
      </trkpt>
      <trkpt lat="47.50169" lon="6.67721">
        <ele>379</ele>
        <time>2015-03-22T09:13:50.000Z</time>
      </trkpt>
      <trkpt lat="47.50171" lon="6.67725">
        <ele>379</ele>
        <time>2015-03-22T09:13:51.000Z</time>
      </trkpt>
      <trkpt lat="47.50173" lon="6.67728">
        <ele>379</ele>
        <time>2015-03-22T09:13:52.000Z</time>
      </trkpt>
      <trkpt lat="47.50175" lon="6.67731">
        <ele>379</ele>
        <time>2015-03-22T09:13:53.000Z</time>
      </trkpt>
      <trkpt lat="47.50176" lon="6.67734">
        <ele>380</ele>
        <time>2015-03-22T09:13:54.000Z</time>
      </trkpt>
      <trkpt lat="47.50178" lon="6.67737">
        <ele>380</ele>
        <time>2015-03-22T09:13:55.000Z</time>
      </trkpt>
      <trkpt lat="47.5018" lon="6.67741">
        <ele>380</ele>
        <time>2015-03-22T09:13:56.000Z</time>
      </trkpt>
      <trkpt lat="47.50182" lon="6.67744">
        <ele>380</ele>
        <time>2015-03-22T09:13:57.000Z</time>
      </trkpt>
      <trkpt lat="47.50184" lon="6.67747">
        <ele>380</ele>
        <time>2015-03-22T09:13:58.000Z</time>
      </trkpt>
      <trkpt lat="47.50186" lon="6.6775">
        <ele>383</ele>
        <time>2015-03-22T09:13:59.000Z</time>
      </trkpt>
      <trkpt lat="47.50189" lon="6.67753">
        <ele>383</ele>
        <time>2015-03-22T09:14:00.000Z</time>
      </trkpt>
      <trkpt lat="47.50191" lon="6.67755">
        <ele>383</ele>
        <time>2015-03-22T09:14:01.000Z</time>
      </trkpt>
      <trkpt lat="47.50194" lon="6.67757">
        <ele>383</ele>
        <time>2015-03-22T09:14:02.000Z</time>
      </trkpt>
      <trkpt lat="47.50196" lon="6.67758">
        <ele>384</ele>
        <time>2015-03-22T09:14:03.000Z</time>
      </trkpt>
      <trkpt lat="47.50199" lon="6.6776">
        <ele>384</ele>
        <time>2015-03-22T09:14:04.000Z</time>
      </trkpt>
      <trkpt lat="47.50202" lon="6.67762">
        <ele>384</ele>
        <time>2015-03-22T09:14:05.000Z</time>
      </trkpt>
      <trkpt lat="47.50205" lon="6.67763">
        <ele>384</ele>
        <time>2015-03-22T09:14:06.000Z</time>
      </trkpt>
      <trkpt lat="47.50208" lon="6.67765">
        <ele>384</ele>
        <time>2015-03-22T09:14:07.000Z</time>
      </trkpt>
      <trkpt lat="47.50211" lon="6.67767">
        <ele>384</ele>
        <time>2015-03-22T09:14:08.000Z</time>
      </trkpt>
      <trkpt lat="47.50214" lon="6.67768">
        <ele>384</ele>
        <time>2015-03-22T09:14:09.000Z</time>
      </trkpt>
      <trkpt lat="47.50216" lon="6.6777">
        <ele>384</ele>
        <time>2015-03-22T09:14:10.000Z</time>
      </trkpt>
      <trkpt lat="47.50219" lon="6.67772">
        <ele>384</ele>
        <time>2015-03-22T09:14:11.000Z</time>
      </trkpt>
      <trkpt lat="47.50221" lon="6.67774">
        <ele>384</ele>
        <time>2015-03-22T09:14:12.000Z</time>
      </trkpt>
      <trkpt lat="47.50223" lon="6.67776">
        <ele>384</ele>
        <time>2015-03-22T09:14:13.000Z</time>
      </trkpt>
      <trkpt lat="47.50226" lon="6.67778">
        <ele>384</ele>
        <time>2015-03-22T09:14:14.000Z</time>
      </trkpt>
      <trkpt lat="47.50227" lon="6.67783">
        <ele>384</ele>
        <time>2015-03-22T09:14:16.000Z</time>
      </trkpt>
      <trkpt lat="47.50227" lon="6.67785">
        <ele>384</ele>
        <time>2015-03-22T09:14:17.000Z</time>
      </trkpt>
      <trkpt lat="47.50227" lon="6.67791">
        <ele>385</ele>
        <time>2015-03-22T09:14:19.000Z</time>
      </trkpt>
      <trkpt lat="47.50228" lon="6.67794">
        <ele>385</ele>
        <time>2015-03-22T09:14:20.000Z</time>
      </trkpt>
      <trkpt lat="47.5023" lon="6.67797">
        <ele>385</ele>
        <time>2015-03-22T09:14:21.000Z</time>
      </trkpt>
      <trkpt lat="47.50232" lon="6.678">
        <ele>385</ele>
        <time>2015-03-22T09:14:22.000Z</time>
      </trkpt>
      <trkpt lat="47.50233" lon="6.67802">
        <ele>385</ele>
        <time>2015-03-22T09:14:23.000Z</time>
      </trkpt>
      <trkpt lat="47.50235" lon="6.67805">
        <ele>386</ele>
        <time>2015-03-22T09:14:24.000Z</time>
      </trkpt>
      <trkpt lat="47.50237" lon="6.67807">
        <ele>386</ele>
        <time>2015-03-22T09:14:25.000Z</time>
      </trkpt>
      <trkpt lat="47.5024" lon="6.6781">
        <ele>386</ele>
        <time>2015-03-22T09:14:26.000Z</time>
      </trkpt>
      <trkpt lat="47.50243" lon="6.67812">
        <ele>386</ele>
        <time>2015-03-22T09:14:27.000Z</time>
      </trkpt>
      <trkpt lat="47.50245" lon="6.67815">
        <ele>387</ele>
        <time>2015-03-22T09:14:28.000Z</time>
      </trkpt>
      <trkpt lat="47.50248" lon="6.67817">
        <ele>387</ele>
        <time>2015-03-22T09:14:29.000Z</time>
      </trkpt>
      <trkpt lat="47.50249" lon="6.6782">
        <ele>387</ele>
        <time>2015-03-22T09:14:30.000Z</time>
      </trkpt>
      <trkpt lat="47.50249" lon="6.67825">
        <ele>388</ele>
        <time>2015-03-22T09:14:32.000Z</time>
      </trkpt>
      <trkpt lat="47.50249" lon="6.67828">
        <ele>388</ele>
        <time>2015-03-22T09:14:33.000Z</time>
      </trkpt>
      <trkpt lat="47.50251" lon="6.67833">
        <ele>389</ele>
        <time>2015-03-22T09:14:35.000Z</time>
      </trkpt>
      <trkpt lat="47.50252" lon="6.67835">
        <ele>390</ele>
        <time>2015-03-22T09:14:36.000Z</time>
      </trkpt>
      <trkpt lat="47.50255" lon="6.6784">
        <ele>391</ele>
        <time>2015-03-22T09:14:38.000Z</time>
      </trkpt>
      <trkpt lat="47.50256" lon="6.67843">
        <ele>391</ele>
        <time>2015-03-22T09:14:39.000Z</time>
      </trkpt>
      <trkpt lat="47.50259" lon="6.67848">
        <ele>392</ele>
        <time>2015-03-22T09:14:41.000Z</time>
      </trkpt>
      <trkpt lat="47.50261" lon="6.6785">
        <ele>392</ele>
        <time>2015-03-22T09:14:42.000Z</time>
      </trkpt>
      <trkpt lat="47.50262" lon="6.67853">
        <ele>392</ele>
        <time>2015-03-22T09:14:43.000Z</time>
      </trkpt>
      <trkpt lat="47.50264" lon="6.67856">
        <ele>393</ele>
        <time>2015-03-22T09:14:44.000Z</time>
      </trkpt>
      <trkpt lat="47.50265" lon="6.6786">
        <ele>393</ele>
        <time>2015-03-22T09:14:45.000Z</time>
      </trkpt>
      <trkpt lat="47.50266" lon="6.67863">
        <ele>393</ele>
        <time>2015-03-22T09:14:46.000Z</time>
      </trkpt>
      <trkpt lat="47.50268" lon="6.67868">
        <ele>393</ele>
        <time>2015-03-22T09:14:48.000Z</time>
      </trkpt>
      <trkpt lat="47.50268" lon="6.67871">
        <ele>394</ele>
        <time>2015-03-22T09:14:49.000Z</time>
      </trkpt>
      <trkpt lat="47.50269" lon="6.67877">
        <ele>394</ele>
        <time>2015-03-22T09:14:51.000Z</time>
      </trkpt>
      <trkpt lat="47.5027" lon="6.67881">
        <ele>394</ele>
        <time>2015-03-22T09:14:52.000Z</time>
      </trkpt>
      <trkpt lat="47.5027" lon="6.67885">
        <ele>394</ele>
        <time>2015-03-22T09:14:53.000Z</time>
      </trkpt>
      <trkpt lat="47.50271" lon="6.67889">
        <ele>394</ele>
        <time>2015-03-22T09:14:54.000Z</time>
      </trkpt>
      <trkpt lat="47.50272" lon="6.67893">
        <ele>395</ele>
        <time>2015-03-22T09:14:55.000Z</time>
      </trkpt>
      <trkpt lat="47.50273" lon="6.67897">
        <ele>395</ele>
        <time>2015-03-22T09:14:56.000Z</time>
      </trkpt>
      <trkpt lat="47.50274" lon="6.67902">
        <ele>395</ele>
        <time>2015-03-22T09:14:57.000Z</time>
      </trkpt>
      <trkpt lat="47.50269" lon="6.67911">
        <ele>395</ele>
        <time>2015-03-22T09:14:58.000Z</time>
      </trkpt>
      <trkpt lat="47.50272" lon="6.67915">
        <ele>395</ele>
        <time>2015-03-22T09:14:59.000Z</time>
      </trkpt>
      <trkpt lat="47.50272" lon="6.67918">
        <ele>397</ele>
        <time>2015-03-22T09:15:00.000Z</time>
      </trkpt>
      <trkpt lat="47.50276" lon="6.67918">
        <ele>397</ele>
        <time>2015-03-22T09:15:01.000Z</time>
      </trkpt>
      <trkpt lat="47.50279" lon="6.67921">
        <ele>398</ele>
        <time>2015-03-22T09:15:03.002Z</time>
      </trkpt>
      <trkpt lat="47.50284" lon="6.6792">
        <ele>398</ele>
        <time>2015-03-22T09:15:04.000Z</time>
      </trkpt>
      <trkpt lat="47.50288" lon="6.67919">
        <ele>398</ele>
        <time>2015-03-22T09:15:05.000Z</time>
      </trkpt>
      <trkpt lat="47.50293" lon="6.67917">
        <ele>398</ele>
        <time>2015-03-22T09:15:06.000Z</time>
      </trkpt>
      <trkpt lat="47.50298" lon="6.67916">
        <ele>396</ele>
        <time>2015-03-22T09:15:07.000Z</time>
      </trkpt>
      <trkpt lat="47.50302" lon="6.67915">
        <ele>396</ele>
        <time>2015-03-22T09:15:08.000Z</time>
      </trkpt>
      <trkpt lat="47.50306" lon="6.67914">
        <ele>396</ele>
        <time>2015-03-22T09:15:09.000Z</time>
      </trkpt>
      <trkpt lat="47.50311" lon="6.67914">
        <ele>397</ele>
        <time>2015-03-22T09:15:10.000Z</time>
      </trkpt>
      <trkpt lat="47.50316" lon="6.67914">
        <ele>397</ele>
        <time>2015-03-22T09:15:11.000Z</time>
      </trkpt>
      <trkpt lat="47.50322" lon="6.67914">
        <ele>398</ele>
        <time>2015-03-22T09:15:12.000Z</time>
      </trkpt>
      <trkpt lat="47.50328" lon="6.67913">
        <ele>399</ele>
        <time>2015-03-22T09:15:13.000Z</time>
      </trkpt>
      <trkpt lat="47.50334" lon="6.67911">
        <ele>400</ele>
        <time>2015-03-22T09:15:14.000Z</time>
      </trkpt>
      <trkpt lat="47.50338" lon="6.67908">
        <ele>399</ele>
        <time>2015-03-22T09:15:15.000Z</time>
      </trkpt>
      <trkpt lat="47.50342" lon="6.67905">
        <ele>399</ele>
        <time>2015-03-22T09:15:16.000Z</time>
      </trkpt>
      <trkpt lat="47.50345" lon="6.67903">
        <ele>399</ele>
        <time>2015-03-22T09:15:17.000Z</time>
      </trkpt>
      <trkpt lat="47.50348" lon="6.679">
        <ele>399</ele>
        <time>2015-03-22T09:15:18.000Z</time>
      </trkpt>
      <trkpt lat="47.50351" lon="6.67896">
        <ele>399</ele>
        <time>2015-03-22T09:15:19.000Z</time>
      </trkpt>
      <trkpt lat="47.50353" lon="6.67892">
        <ele>398</ele>
        <time>2015-03-22T09:15:20.000Z</time>
      </trkpt>
      <trkpt lat="47.50357" lon="6.67888">
        <ele>398</ele>
        <time>2015-03-22T09:15:21.000Z</time>
      </trkpt>
      <trkpt lat="47.5036" lon="6.67882">
        <ele>398</ele>
        <time>2015-03-22T09:15:22.000Z</time>
      </trkpt>
      <trkpt lat="47.50364" lon="6.67878">
        <ele>398</ele>
        <time>2015-03-22T09:15:23.000Z</time>
      </trkpt>
      <trkpt lat="47.50368" lon="6.67873">
        <ele>398</ele>
        <time>2015-03-22T09:15:24.000Z</time>
      </trkpt>
      <trkpt lat="47.50372" lon="6.67869">
        <ele>398</ele>
        <time>2015-03-22T09:15:25.000Z</time>
      </trkpt>
      <trkpt lat="47.50376" lon="6.67866">
        <ele>398</ele>
        <time>2015-03-22T09:15:26.000Z</time>
      </trkpt>
      <trkpt lat="47.50381" lon="6.67863">
        <ele>398</ele>
        <time>2015-03-22T09:15:27.000Z</time>
      </trkpt>
      <trkpt lat="47.50386" lon="6.67861">
        <ele>398</ele>
        <time>2015-03-22T09:15:28.000Z</time>
      </trkpt>
      <trkpt lat="47.5039" lon="6.67858">
        <ele>398</ele>
        <time>2015-03-22T09:15:29.000Z</time>
      </trkpt>
      <trkpt lat="47.50394" lon="6.67854">
        <ele>399</ele>
        <time>2015-03-22T09:15:30.000Z</time>
      </trkpt>
      <trkpt lat="47.50397" lon="6.6785">
        <ele>399</ele>
        <time>2015-03-22T09:15:31.000Z</time>
      </trkpt>
      <trkpt lat="47.50401" lon="6.67846">
        <ele>399</ele>
        <time>2015-03-22T09:15:32.000Z</time>
      </trkpt>
      <trkpt lat="47.50404" lon="6.67841">
        <ele>399</ele>
        <time>2015-03-22T09:15:33.000Z</time>
      </trkpt>
      <trkpt lat="47.50407" lon="6.67836">
        <ele>399</ele>
        <time>2015-03-22T09:15:34.000Z</time>
      </trkpt>
      <trkpt lat="47.5041" lon="6.67833">
        <ele>399</ele>
        <time>2015-03-22T09:15:35.000Z</time>
      </trkpt>
      <trkpt lat="47.50413" lon="6.6783">
        <ele>399</ele>
        <time>2015-03-22T09:15:36.000Z</time>
      </trkpt>
      <trkpt lat="47.50417" lon="6.67829">
        <ele>400</ele>
        <time>2015-03-22T09:15:37.000Z</time>
      </trkpt>
      <trkpt lat="47.50421" lon="6.67829">
        <ele>400</ele>
        <time>2015-03-22T09:15:38.000Z</time>
      </trkpt>
      <trkpt lat="47.50425" lon="6.67828">
        <ele>399</ele>
        <time>2015-03-22T09:15:39.000Z</time>
      </trkpt>
      <trkpt lat="47.50429" lon="6.67828">
        <ele>399</ele>
        <time>2015-03-22T09:15:40.000Z</time>
      </trkpt>
      <trkpt lat="47.50431" lon="6.67828">
        <ele>399</ele>
        <time>2015-03-22T09:15:41.000Z</time>
      </trkpt>
      <trkpt lat="47.50435" lon="6.67826">
        <ele>399</ele>
        <time>2015-03-22T09:15:43.000Z</time>
      </trkpt>
      <trkpt lat="47.50437" lon="6.67826">
        <ele>399</ele>
        <time>2015-03-22T09:15:44.000Z</time>
      </trkpt>
      <trkpt lat="47.5044" lon="6.67825">
        <ele>399</ele>
        <time>2015-03-22T09:15:45.000Z</time>
      </trkpt>
      <trkpt lat="47.50443" lon="6.67824">
        <ele>399</ele>
        <time>2015-03-22T09:15:46.000Z</time>
      </trkpt>
      <trkpt lat="47.50447" lon="6.67824">
        <ele>399</ele>
        <time>2015-03-22T09:15:47.000Z</time>
      </trkpt>
      <trkpt lat="47.5045" lon="6.67823">
        <ele>399</ele>
        <time>2015-03-22T09:15:48.000Z</time>
      </trkpt>
      <trkpt lat="47.50463" lon="6.67816">
        <ele>399</ele>
        <time>2015-03-22T09:15:49.000Z</time>
      </trkpt>
      <trkpt lat="47.50468" lon="6.67809">
        <ele>399</ele>
        <time>2015-03-22T09:15:50.000Z</time>
      </trkpt>
      <trkpt lat="47.50473" lon="6.67807">
        <ele>399</ele>
        <time>2015-03-22T09:15:51.000Z</time>
      </trkpt>
      <trkpt lat="47.50478" lon="6.67806">
        <ele>399</ele>
        <time>2015-03-22T09:15:52.000Z</time>
      </trkpt>
      <trkpt lat="47.50483" lon="6.67807">
        <ele>399</ele>
        <time>2015-03-22T09:15:53.000Z</time>
      </trkpt>
      <trkpt lat="47.50489" lon="6.6781">
        <ele>399</ele>
        <time>2015-03-22T09:15:54.000Z</time>
      </trkpt>
      <trkpt lat="47.50492" lon="6.67813">
        <ele>399</ele>
        <time>2015-03-22T09:15:55.000Z</time>
      </trkpt>
      <trkpt lat="47.50498" lon="6.67817">
        <ele>399</ele>
        <time>2015-03-22T09:15:56.000Z</time>
      </trkpt>
      <trkpt lat="47.50506" lon="6.67823">
        <ele>398</ele>
        <time>2015-03-22T09:15:57.000Z</time>
      </trkpt>
      <trkpt lat="47.50515" lon="6.67827">
        <ele>398</ele>
        <time>2015-03-22T09:15:58.000Z</time>
      </trkpt>
      <trkpt lat="47.50522" lon="6.67832">
        <ele>398</ele>
        <time>2015-03-22T09:15:59.000Z</time>
      </trkpt>
      <trkpt lat="47.50527" lon="6.67837">
        <ele>397</ele>
        <time>2015-03-22T09:16:00.000Z</time>
      </trkpt>
      <trkpt lat="47.5053" lon="6.67844">
        <ele>397</ele>
        <time>2015-03-22T09:16:01.000Z</time>
      </trkpt>
      <trkpt lat="47.50536" lon="6.6785">
        <ele>397</ele>
        <time>2015-03-22T09:16:02.000Z</time>
      </trkpt>
      <trkpt lat="47.50542" lon="6.67854">
        <ele>396</ele>
        <time>2015-03-22T09:16:03.000Z</time>
      </trkpt>
      <trkpt lat="47.50548" lon="6.6786">
        <ele>396</ele>
        <time>2015-03-22T09:16:04.000Z</time>
      </trkpt>
      <trkpt lat="47.50552" lon="6.67864">
        <ele>396</ele>
        <time>2015-03-22T09:16:05.000Z</time>
      </trkpt>
      <trkpt lat="47.50553" lon="6.67868">
        <ele>396</ele>
        <time>2015-03-22T09:16:06.000Z</time>
      </trkpt>
      <trkpt lat="47.50556" lon="6.67871">
        <ele>396</ele>
        <time>2015-03-22T09:16:07.001Z</time>
      </trkpt>
      <trkpt lat="47.50564" lon="6.67876">
        <ele>396</ele>
        <time>2015-03-22T09:16:08.000Z</time>
      </trkpt>
      <trkpt lat="47.50573" lon="6.6788">
        <ele>395</ele>
        <time>2015-03-22T09:16:09.000Z</time>
      </trkpt>
      <trkpt lat="47.5058" lon="6.67886">
        <ele>395</ele>
        <time>2015-03-22T09:16:10.000Z</time>
      </trkpt>
      <trkpt lat="47.50585" lon="6.67893">
        <ele>393</ele>
        <time>2015-03-22T09:16:11.000Z</time>
      </trkpt>
      <trkpt lat="47.50591" lon="6.67897">
        <ele>393</ele>
        <time>2015-03-22T09:16:12.000Z</time>
      </trkpt>
      <trkpt lat="47.50596" lon="6.67902">
        <ele>393</ele>
        <time>2015-03-22T09:16:13.000Z</time>
      </trkpt>
      <trkpt lat="47.50601" lon="6.67903">
        <ele>393</ele>
        <time>2015-03-22T09:16:14.000Z</time>
      </trkpt>
      <trkpt lat="47.506" lon="6.67912">
        <ele>393</ele>
        <time>2015-03-22T09:16:15.000Z</time>
      </trkpt>
      <trkpt lat="47.50603" lon="6.67916">
        <ele>393</ele>
        <time>2015-03-22T09:16:16.000Z</time>
      </trkpt>
      <trkpt lat="47.50614" lon="6.6792">
        <ele>392</ele>
        <time>2015-03-22T09:16:17.000Z</time>
      </trkpt>
      <trkpt lat="47.50621" lon="6.67924">
        <ele>392</ele>
        <time>2015-03-22T09:16:18.000Z</time>
      </trkpt>
      <trkpt lat="47.50629" lon="6.67929">
        <ele>392</ele>
        <time>2015-03-22T09:16:19.000Z</time>
      </trkpt>
      <trkpt lat="47.50634" lon="6.67933">
        <ele>392</ele>
        <time>2015-03-22T09:16:20.000Z</time>
      </trkpt>
      <trkpt lat="47.50637" lon="6.67939">
        <ele>392</ele>
        <time>2015-03-22T09:16:20.999Z</time>
      </trkpt>
      <trkpt lat="47.5064" lon="6.67945">
        <ele>392</ele>
        <time>2015-03-22T09:16:22.000Z</time>
      </trkpt>
      <trkpt lat="47.50642" lon="6.67945">
        <ele>392</ele>
        <time>2015-03-22T09:16:23.000Z</time>
      </trkpt>
      <trkpt lat="47.50645" lon="6.67948">
        <ele>392</ele>
        <time>2015-03-22T09:16:24.000Z</time>
      </trkpt>
      <trkpt lat="47.50647" lon="6.67952">
        <ele>392</ele>
        <time>2015-03-22T09:16:26.000Z</time>
      </trkpt>
      <trkpt lat="47.50648" lon="6.67954">
        <ele>392</ele>
        <time>2015-03-22T09:16:27.000Z</time>
      </trkpt>
      <trkpt lat="47.5065" lon="6.67956">
        <ele>392</ele>
        <time>2015-03-22T09:16:28.000Z</time>
      </trkpt>
      <trkpt lat="47.50653" lon="6.67954">
        <ele>392</ele>
        <time>2015-03-22T09:16:29.000Z</time>
      </trkpt>
      <trkpt lat="47.50656" lon="6.6795">
        <ele>392</ele>
        <time>2015-03-22T09:16:32.000Z</time>
      </trkpt>
      <trkpt lat="47.50658" lon="6.67949">
        <ele>392</ele>
        <time>2015-03-22T09:16:33.000Z</time>
      </trkpt>
      <trkpt lat="47.50661" lon="6.67945">
        <ele>392</ele>
        <time>2015-03-22T09:16:35.000Z</time>
      </trkpt>
      <trkpt lat="47.50662" lon="6.67942">
        <ele>392</ele>
        <time>2015-03-22T09:16:36.000Z</time>
      </trkpt>
      <trkpt lat="47.50665" lon="6.67937">
        <ele>392</ele>
        <time>2015-03-22T09:16:38.000Z</time>
      </trkpt>
      <trkpt lat="47.50666" lon="6.67934">
        <ele>392</ele>
        <time>2015-03-22T09:16:39.000Z</time>
      </trkpt>
      <trkpt lat="47.50667" lon="6.6793">
        <ele>391</ele>
        <time>2015-03-22T09:16:41.000Z</time>
      </trkpt>
      <trkpt lat="47.50669" lon="6.67927">
        <ele>391</ele>
        <time>2015-03-22T09:16:42.000Z</time>
      </trkpt>
      <trkpt lat="47.5067" lon="6.67924">
        <ele>391</ele>
        <time>2015-03-22T09:16:43.000Z</time>
      </trkpt>
      <trkpt lat="47.50671" lon="6.67921">
        <ele>391</ele>
        <time>2015-03-22T09:16:44.000Z</time>
      </trkpt>
      <trkpt lat="47.50673" lon="6.67917">
        <ele>391</ele>
        <time>2015-03-22T09:16:45.000Z</time>
      </trkpt>
      <trkpt lat="47.50674" lon="6.67913">
        <ele>391</ele>
        <time>2015-03-22T09:16:46.000Z</time>
      </trkpt>
      <trkpt lat="47.50676" lon="6.67909">
        <ele>391</ele>
        <time>2015-03-22T09:16:47.000Z</time>
      </trkpt>
      <trkpt lat="47.50677" lon="6.67905">
        <ele>391</ele>
        <time>2015-03-22T09:16:48.000Z</time>
      </trkpt>
      <trkpt lat="47.50679" lon="6.67902">
        <ele>391</ele>
        <time>2015-03-22T09:16:49.000Z</time>
      </trkpt>
      <trkpt lat="47.50681" lon="6.67899">
        <ele>391</ele>
        <time>2015-03-22T09:16:50.000Z</time>
      </trkpt>
      <trkpt lat="47.50683" lon="6.67896">
        <ele>391</ele>
        <time>2015-03-22T09:16:51.000Z</time>
      </trkpt>
      <trkpt lat="47.50685" lon="6.67894">
        <ele>391</ele>
        <time>2015-03-22T09:16:52.000Z</time>
      </trkpt>
      <trkpt lat="47.50687" lon="6.67891">
        <ele>391</ele>
        <time>2015-03-22T09:16:53.000Z</time>
      </trkpt>
      <trkpt lat="47.50689" lon="6.67888">
        <ele>391</ele>
        <time>2015-03-22T09:16:54.000Z</time>
      </trkpt>
      <trkpt lat="47.50691" lon="6.67885">
        <ele>391</ele>
        <time>2015-03-22T09:16:55.000Z</time>
      </trkpt>
      <trkpt lat="47.50694" lon="6.67881">
        <ele>391</ele>
        <time>2015-03-22T09:16:56.000Z</time>
      </trkpt>
      <trkpt lat="47.50696" lon="6.67877">
        <ele>391</ele>
        <time>2015-03-22T09:16:57.000Z</time>
      </trkpt>
      <trkpt lat="47.50698" lon="6.67874">
        <ele>391</ele>
        <time>2015-03-22T09:16:58.000Z</time>
      </trkpt>
      <trkpt lat="47.507" lon="6.67871">
        <ele>391</ele>
        <time>2015-03-22T09:16:59.000Z</time>
      </trkpt>
      <trkpt lat="47.50702" lon="6.67868">
        <ele>391</ele>
        <time>2015-03-22T09:17:00.000Z</time>
      </trkpt>
      <trkpt lat="47.50704" lon="6.67864">
        <ele>391</ele>
        <time>2015-03-22T09:17:01.000Z</time>
      </trkpt>
      <trkpt lat="47.50705" lon="6.67861">
        <ele>391</ele>
        <time>2015-03-22T09:17:02.000Z</time>
      </trkpt>
      <trkpt lat="47.50707" lon="6.67857">
        <ele>391</ele>
        <time>2015-03-22T09:17:03.000Z</time>
      </trkpt>
      <trkpt lat="47.50708" lon="6.67853">
        <ele>391</ele>
        <time>2015-03-22T09:17:04.000Z</time>
      </trkpt>
      <trkpt lat="47.50709" lon="6.67847">
        <ele>391</ele>
        <time>2015-03-22T09:17:05.000Z</time>
      </trkpt>
      <trkpt lat="47.50709" lon="6.67842">
        <ele>391</ele>
        <time>2015-03-22T09:17:06.000Z</time>
      </trkpt>
      <trkpt lat="47.5071" lon="6.67838">
        <ele>391</ele>
        <time>2015-03-22T09:17:07.000Z</time>
      </trkpt>
      <trkpt lat="47.50712" lon="6.67833">
        <ele>392</ele>
        <time>2015-03-22T09:17:08.000Z</time>
      </trkpt>
      <trkpt lat="47.50712" lon="6.67829">
        <ele>392</ele>
        <time>2015-03-22T09:17:09.000Z</time>
      </trkpt>
      <trkpt lat="47.50712" lon="6.67825">
        <ele>392</ele>
        <time>2015-03-22T09:17:10.000Z</time>
      </trkpt>
      <trkpt lat="47.50712" lon="6.67822">
        <ele>392</ele>
        <time>2015-03-22T09:17:11.000Z</time>
      </trkpt>
      <trkpt lat="47.50712" lon="6.67818">
        <ele>392</ele>
        <time>2015-03-22T09:17:12.000Z</time>
      </trkpt>
      <trkpt lat="47.50712" lon="6.67813">
        <ele>392</ele>
        <time>2015-03-22T09:17:13.000Z</time>
      </trkpt>
      <trkpt lat="47.50713" lon="6.67809">
        <ele>392</ele>
        <time>2015-03-22T09:17:14.000Z</time>
      </trkpt>
      <trkpt lat="47.50714" lon="6.67804">
        <ele>392</ele>
        <time>2015-03-22T09:17:15.000Z</time>
      </trkpt>
      <trkpt lat="47.50714" lon="6.67799">
        <ele>392</ele>
        <time>2015-03-22T09:17:16.000Z</time>
      </trkpt>
      <trkpt lat="47.50715" lon="6.67794">
        <ele>392</ele>
        <time>2015-03-22T09:17:17.000Z</time>
      </trkpt>
      <trkpt lat="47.50715" lon="6.67789">
        <ele>392</ele>
        <time>2015-03-22T09:17:18.000Z</time>
      </trkpt>
      <trkpt lat="47.50715" lon="6.67784">
        <ele>392</ele>
        <time>2015-03-22T09:17:19.000Z</time>
      </trkpt>
      <trkpt lat="47.50714" lon="6.67779">
        <ele>392</ele>
        <time>2015-03-22T09:17:20.000Z</time>
      </trkpt>
      <trkpt lat="47.50715" lon="6.67774">
        <ele>392</ele>
        <time>2015-03-22T09:17:21.000Z</time>
      </trkpt>
      <trkpt lat="47.50715" lon="6.67769">
        <ele>392</ele>
        <time>2015-03-22T09:17:22.000Z</time>
      </trkpt>
      <trkpt lat="47.50716" lon="6.67764">
        <ele>392</ele>
        <time>2015-03-22T09:17:23.000Z</time>
      </trkpt>
      <trkpt lat="47.50717" lon="6.67759">
        <ele>392</ele>
        <time>2015-03-22T09:17:24.000Z</time>
      </trkpt>
      <trkpt lat="47.50717" lon="6.67755">
        <ele>392</ele>
        <time>2015-03-22T09:17:25.000Z</time>
      </trkpt>
      <trkpt lat="47.50718" lon="6.6775">
        <ele>392</ele>
        <time>2015-03-22T09:17:26.000Z</time>
      </trkpt>
      <trkpt lat="47.50718" lon="6.67745">
        <ele>392</ele>
        <time>2015-03-22T09:17:27.000Z</time>
      </trkpt>
      <trkpt lat="47.50717" lon="6.67739">
        <ele>392</ele>
        <time>2015-03-22T09:17:28.000Z</time>
      </trkpt>
      <trkpt lat="47.50716" lon="6.67733">
        <ele>392</ele>
        <time>2015-03-22T09:17:29.000Z</time>
      </trkpt>
      <trkpt lat="47.50715" lon="6.67727">
        <ele>392</ele>
        <time>2015-03-22T09:17:30.000Z</time>
      </trkpt>
      <trkpt lat="47.50713" lon="6.67721">
        <ele>392</ele>
        <time>2015-03-22T09:17:31.000Z</time>
      </trkpt>
      <trkpt lat="47.50712" lon="6.67716">
        <ele>392</ele>
        <time>2015-03-22T09:17:32.000Z</time>
      </trkpt>
      <trkpt lat="47.5071" lon="6.6771">
        <ele>392</ele>
        <time>2015-03-22T09:17:33.000Z</time>
      </trkpt>
      <trkpt lat="47.50709" lon="6.67705">
        <ele>392</ele>
        <time>2015-03-22T09:17:34.000Z</time>
      </trkpt>
      <trkpt lat="47.50708" lon="6.677">
        <ele>392</ele>
        <time>2015-03-22T09:17:35.000Z</time>
      </trkpt>
      <trkpt lat="47.50707" lon="6.67694">
        <ele>392</ele>
        <time>2015-03-22T09:17:36.000Z</time>
      </trkpt>
      <trkpt lat="47.50706" lon="6.67688">
        <ele>392</ele>
        <time>2015-03-22T09:17:37.000Z</time>
      </trkpt>
      <trkpt lat="47.50705" lon="6.67683">
        <ele>392</ele>
        <time>2015-03-22T09:17:38.000Z</time>
      </trkpt>
      <trkpt lat="47.50704" lon="6.67678">
        <ele>392</ele>
        <time>2015-03-22T09:17:39.000Z</time>
      </trkpt>
      <trkpt lat="47.50707" lon="6.67663">
        <ele>391</ele>
        <time>2015-03-22T09:17:40.000Z</time>
      </trkpt>
      <trkpt lat="47.50706" lon="6.67655">
        <ele>391</ele>
        <time>2015-03-22T09:17:41.000Z</time>
      </trkpt>
      <trkpt lat="47.50703" lon="6.67647">
        <ele>391</ele>
        <time>2015-03-22T09:17:42.000Z</time>
      </trkpt>
      <trkpt lat="47.507" lon="6.67637">
        <ele>391</ele>
        <time>2015-03-22T09:17:43.000Z</time>
      </trkpt>
      <trkpt lat="47.50698" lon="6.6763">
        <ele>391</ele>
        <time>2015-03-22T09:17:44.000Z</time>
      </trkpt>
      <trkpt lat="47.50697" lon="6.67624">
        <ele>390</ele>
        <time>2015-03-22T09:17:45.000Z</time>
      </trkpt>
      <trkpt lat="47.50696" lon="6.67623">
        <ele>390</ele>
        <time>2015-03-22T09:17:46.000Z</time>
      </trkpt>
      <trkpt lat="47.50695" lon="6.67619">
        <ele>390</ele>
        <time>2015-03-22T09:17:47.000Z</time>
      </trkpt>
      <trkpt lat="47.50693" lon="6.67615">
        <ele>390</ele>
        <time>2015-03-22T09:17:48.000Z</time>
      </trkpt>
      <trkpt lat="47.50693" lon="6.6761">
        <ele>390</ele>
        <time>2015-03-22T09:17:50.000Z</time>
      </trkpt>
      <trkpt lat="47.50691" lon="6.67607">
        <ele>390</ele>
        <time>2015-03-22T09:17:51.000Z</time>
      </trkpt>
      <trkpt lat="47.50691" lon="6.67605">
        <ele>390</ele>
        <time>2015-03-22T09:17:52.000Z</time>
      </trkpt>
      <trkpt lat="47.50688" lon="6.676">
        <ele>390</ele>
        <time>2015-03-22T09:17:53.000Z</time>
      </trkpt>
      <trkpt lat="47.50687" lon="6.67595">
        <ele>390</ele>
        <time>2015-03-22T09:17:54.000Z</time>
      </trkpt>
      <trkpt lat="47.50686" lon="6.67592">
        <ele>390</ele>
        <time>2015-03-22T09:17:55.000Z</time>
      </trkpt>
      <trkpt lat="47.50685" lon="6.67588">
        <ele>390</ele>
        <time>2015-03-22T09:17:56.000Z</time>
      </trkpt>
      <trkpt lat="47.50684" lon="6.67585">
        <ele>390</ele>
        <time>2015-03-22T09:17:57.000Z</time>
      </trkpt>
      <trkpt lat="47.50683" lon="6.67581">
        <ele>389</ele>
        <time>2015-03-22T09:17:58.000Z</time>
      </trkpt>
      <trkpt lat="47.50682" lon="6.67577">
        <ele>389</ele>
        <time>2015-03-22T09:17:59.000Z</time>
      </trkpt>
      <trkpt lat="47.5068" lon="6.67573">
        <ele>389</ele>
        <time>2015-03-22T09:18:00.000Z</time>
      </trkpt>
      <trkpt lat="47.50678" lon="6.67569">
        <ele>389</ele>
        <time>2015-03-22T09:18:01.000Z</time>
      </trkpt>
      <trkpt lat="47.50675" lon="6.67565">
        <ele>389</ele>
        <time>2015-03-22T09:18:02.000Z</time>
      </trkpt>
      <trkpt lat="47.50673" lon="6.67561">
        <ele>389</ele>
        <time>2015-03-22T09:18:03.000Z</time>
      </trkpt>
      <trkpt lat="47.50671" lon="6.67556">
        <ele>389</ele>
        <time>2015-03-22T09:18:04.000Z</time>
      </trkpt>
      <trkpt lat="47.50669" lon="6.67551">
        <ele>389</ele>
        <time>2015-03-22T09:18:05.000Z</time>
      </trkpt>
      <trkpt lat="47.50667" lon="6.67546">
        <ele>389</ele>
        <time>2015-03-22T09:18:06.000Z</time>
      </trkpt>
      <trkpt lat="47.50665" lon="6.6754">
        <ele>386</ele>
        <time>2015-03-22T09:18:07.000Z</time>
      </trkpt>
      <trkpt lat="47.50663" lon="6.67533">
        <ele>386</ele>
        <time>2015-03-22T09:18:08.000Z</time>
      </trkpt>
      <trkpt lat="47.50661" lon="6.67527">
        <ele>386</ele>
        <time>2015-03-22T09:18:09.000Z</time>
      </trkpt>
      <trkpt lat="47.50659" lon="6.67521">
        <ele>386</ele>
        <time>2015-03-22T09:18:10.000Z</time>
      </trkpt>
      <trkpt lat="47.50657" lon="6.67516">
        <ele>386</ele>
        <time>2015-03-22T09:18:11.000Z</time>
      </trkpt>
      <trkpt lat="47.50655" lon="6.6751">
        <ele>386</ele>
        <time>2015-03-22T09:18:12.000Z</time>
      </trkpt>
      <trkpt lat="47.50653" lon="6.67505">
        <ele>386</ele>
        <time>2015-03-22T09:18:13.000Z</time>
      </trkpt>
      <trkpt lat="47.50651" lon="6.67501">
        <ele>386</ele>
        <time>2015-03-22T09:18:14.000Z</time>
      </trkpt>
      <trkpt lat="47.50649" lon="6.67496">
        <ele>385</ele>
        <time>2015-03-22T09:18:15.000Z</time>
      </trkpt>
      <trkpt lat="47.50647" lon="6.67491">
        <ele>385</ele>
        <time>2015-03-22T09:18:16.000Z</time>
      </trkpt>
      <trkpt lat="47.50645" lon="6.67486">
        <ele>384</ele>
        <time>2015-03-22T09:18:17.000Z</time>
      </trkpt>
      <trkpt lat="47.50643" lon="6.67481">
        <ele>384</ele>
        <time>2015-03-22T09:18:18.000Z</time>
      </trkpt>
      <trkpt lat="47.50641" lon="6.67476">
        <ele>384</ele>
        <time>2015-03-22T09:18:19.000Z</time>
      </trkpt>
      <trkpt lat="47.50638" lon="6.67471">
        <ele>384</ele>
        <time>2015-03-22T09:18:20.000Z</time>
      </trkpt>
      <trkpt lat="47.50636" lon="6.67465">
        <ele>383</ele>
        <time>2015-03-22T09:18:21.000Z</time>
      </trkpt>
      <trkpt lat="47.50634" lon="6.67459">
        <ele>383</ele>
        <time>2015-03-22T09:18:22.000Z</time>
      </trkpt>
      <trkpt lat="47.50632" lon="6.67454">
        <ele>383</ele>
        <time>2015-03-22T09:18:23.000Z</time>
      </trkpt>
      <trkpt lat="47.5063" lon="6.67448">
        <ele>383</ele>
        <time>2015-03-22T09:18:24.000Z</time>
      </trkpt>
      <trkpt lat="47.50628" lon="6.67443">
        <ele>383</ele>
        <time>2015-03-22T09:18:25.000Z</time>
      </trkpt>
      <trkpt lat="47.50625" lon="6.67437">
        <ele>383</ele>
        <time>2015-03-22T09:18:26.000Z</time>
      </trkpt>
      <trkpt lat="47.50623" lon="6.67432">
        <ele>383</ele>
        <time>2015-03-22T09:18:27.000Z</time>
      </trkpt>
      <trkpt lat="47.50621" lon="6.67426">
        <ele>382</ele>
        <time>2015-03-22T09:18:28.000Z</time>
      </trkpt>
      <trkpt lat="47.50618" lon="6.6742">
        <ele>382</ele>
        <time>2015-03-22T09:18:29.000Z</time>
      </trkpt>
      <trkpt lat="47.50616" lon="6.67413">
        <ele>381</ele>
        <time>2015-03-22T09:18:29.999Z</time>
      </trkpt>
      <trkpt lat="47.50614" lon="6.67407">
        <ele>381</ele>
        <time>2015-03-22T09:18:31.001Z</time>
      </trkpt>
      <trkpt lat="47.50611" lon="6.674">
        <ele>380</ele>
        <time>2015-03-22T09:18:32.000Z</time>
      </trkpt>
      <trkpt lat="47.50608" lon="6.67392">
        <ele>380</ele>
        <time>2015-03-22T09:18:33.000Z</time>
      </trkpt>
      <trkpt lat="47.50605" lon="6.67383">
        <ele>380</ele>
        <time>2015-03-22T09:18:34.000Z</time>
      </trkpt>
      <trkpt lat="47.506" lon="6.67375">
        <ele>379</ele>
        <time>2015-03-22T09:18:35.000Z</time>
      </trkpt>
      <trkpt lat="47.50597" lon="6.67366">
        <ele>379</ele>
        <time>2015-03-22T09:18:36.000Z</time>
      </trkpt>
      <trkpt lat="47.50593" lon="6.67357">
        <ele>378</ele>
        <time>2015-03-22T09:18:37.000Z</time>
      </trkpt>
      <trkpt lat="47.50589" lon="6.67346">
        <ele>377</ele>
        <time>2015-03-22T09:18:38.000Z</time>
      </trkpt>
      <trkpt lat="47.50587" lon="6.67337">
        <ele>375</ele>
        <time>2015-03-22T09:18:39.000Z</time>
      </trkpt>
      <trkpt lat="47.50587" lon="6.67329">
        <ele>374</ele>
        <time>2015-03-22T09:18:40.000Z</time>
      </trkpt>
      <trkpt lat="47.50588" lon="6.67323">
        <ele>373</ele>
        <time>2015-03-22T09:18:41.000Z</time>
      </trkpt>
      <trkpt lat="47.50592" lon="6.67321">
        <ele>373</ele>
        <time>2015-03-22T09:18:42.000Z</time>
      </trkpt>
      <trkpt lat="47.50597" lon="6.67323">
        <ele>373</ele>
        <time>2015-03-22T09:18:43.000Z</time>
      </trkpt>
      <trkpt lat="47.50601" lon="6.67323">
        <ele>373</ele>
        <time>2015-03-22T09:18:44.000Z</time>
      </trkpt>
      <trkpt lat="47.50608" lon="6.67325">
        <ele>374</ele>
        <time>2015-03-22T09:18:45.000Z</time>
      </trkpt>
      <trkpt lat="47.50612" lon="6.67326">
        <ele>374</ele>
        <time>2015-03-22T09:18:46.000Z</time>
      </trkpt>
      <trkpt lat="47.50617" lon="6.67328">
        <ele>374</ele>
        <time>2015-03-22T09:18:47.000Z</time>
      </trkpt>
      <trkpt lat="47.50621" lon="6.67331">
        <ele>374</ele>
        <time>2015-03-22T09:18:48.000Z</time>
      </trkpt>
      <trkpt lat="47.50626" lon="6.6733">
        <ele>375</ele>
        <time>2015-03-22T09:18:49.000Z</time>
      </trkpt>
      <trkpt lat="47.50631" lon="6.6733">
        <ele>375</ele>
        <time>2015-03-22T09:18:50.000Z</time>
      </trkpt>
      <trkpt lat="47.50637" lon="6.67327">
        <ele>376</ele>
        <time>2015-03-22T09:18:51.000Z</time>
      </trkpt>
      <trkpt lat="47.50642" lon="6.67324">
        <ele>376</ele>
        <time>2015-03-22T09:18:52.000Z</time>
      </trkpt>
      <trkpt lat="47.50646" lon="6.67321">
        <ele>377</ele>
        <time>2015-03-22T09:18:53.000Z</time>
      </trkpt>
      <trkpt lat="47.50651" lon="6.67318">
        <ele>377</ele>
        <time>2015-03-22T09:18:54.000Z</time>
      </trkpt>
      <trkpt lat="47.50658" lon="6.67313">
        <ele>377</ele>
        <time>2015-03-22T09:18:55.000Z</time>
      </trkpt>
      <trkpt lat="47.50663" lon="6.67309">
        <ele>376</ele>
        <time>2015-03-22T09:18:56.000Z</time>
      </trkpt>
      <trkpt lat="47.50668" lon="6.67304">
        <ele>376</ele>
        <time>2015-03-22T09:18:57.000Z</time>
      </trkpt>
      <trkpt lat="47.50673" lon="6.67299">
        <ele>375</ele>
        <time>2015-03-22T09:18:58.000Z</time>
      </trkpt>
      <trkpt lat="47.50677" lon="6.67295">
        <ele>375</ele>
        <time>2015-03-22T09:18:59.000Z</time>
      </trkpt>
      <trkpt lat="47.50684" lon="6.67289">
        <ele>374</ele>
        <time>2015-03-22T09:19:00.000Z</time>
      </trkpt>
      <trkpt lat="47.5069" lon="6.67284">
        <ele>373</ele>
        <time>2015-03-22T09:19:01.000Z</time>
      </trkpt>
      <trkpt lat="47.50695" lon="6.67278">
        <ele>373</ele>
        <time>2015-03-22T09:19:02.000Z</time>
      </trkpt>
      <trkpt lat="47.50701" lon="6.67273">
        <ele>372</ele>
        <time>2015-03-22T09:19:03.000Z</time>
      </trkpt>
      <trkpt lat="47.50706" lon="6.67266">
        <ele>372</ele>
        <time>2015-03-22T09:19:04.000Z</time>
      </trkpt>
      <trkpt lat="47.5071" lon="6.67263">
        <ele>371</ele>
        <time>2015-03-22T09:19:05.000Z</time>
      </trkpt>
      <trkpt lat="47.50716" lon="6.67257">
        <ele>371</ele>
        <time>2015-03-22T09:19:06.001Z</time>
      </trkpt>
      <trkpt lat="47.50724" lon="6.6725">
        <ele>363</ele>
        <time>2015-03-22T09:19:07.000Z</time>
      </trkpt>
      <trkpt lat="47.50734" lon="6.67243">
        <ele>362</ele>
        <time>2015-03-22T09:19:08.000Z</time>
      </trkpt>
      <trkpt lat="47.5074" lon="6.67237">
        <ele>362</ele>
        <time>2015-03-22T09:19:09.000Z</time>
      </trkpt>
      <trkpt lat="47.50746" lon="6.67231">
        <ele>362</ele>
        <time>2015-03-22T09:19:10.000Z</time>
      </trkpt>
      <trkpt lat="47.50754" lon="6.67224">
        <ele>362</ele>
        <time>2015-03-22T09:19:11.000Z</time>
      </trkpt>
      <trkpt lat="47.5076" lon="6.67218">
        <ele>361</ele>
        <time>2015-03-22T09:19:12.000Z</time>
      </trkpt>
      <trkpt lat="47.50766" lon="6.67212">
        <ele>361</ele>
        <time>2015-03-22T09:19:13.000Z</time>
      </trkpt>
      <trkpt lat="47.50773" lon="6.67206">
        <ele>361</ele>
        <time>2015-03-22T09:19:14.000Z</time>
      </trkpt>
      <trkpt lat="47.50778" lon="6.67201">
        <ele>361</ele>
        <time>2015-03-22T09:19:15.000Z</time>
      </trkpt>
      <trkpt lat="47.50782" lon="6.67195">
        <ele>361</ele>
        <time>2015-03-22T09:19:16.000Z</time>
      </trkpt>
      <trkpt lat="47.50788" lon="6.67189">
        <ele>361</ele>
        <time>2015-03-22T09:19:17.000Z</time>
      </trkpt>
      <trkpt lat="47.50791" lon="6.67184">
        <ele>361</ele>
        <time>2015-03-22T09:19:18.000Z</time>
      </trkpt>
      <trkpt lat="47.50796" lon="6.6718">
        <ele>361</ele>
        <time>2015-03-22T09:19:19.000Z</time>
      </trkpt>
      <trkpt lat="47.50801" lon="6.67176">
        <ele>362</ele>
        <time>2015-03-22T09:19:20.000Z</time>
      </trkpt>
      <trkpt lat="47.50805" lon="6.67173">
        <ele>362</ele>
        <time>2015-03-22T09:19:21.000Z</time>
      </trkpt>
      <trkpt lat="47.50809" lon="6.67169">
        <ele>362</ele>
        <time>2015-03-22T09:19:22.000Z</time>
      </trkpt>
      <trkpt lat="47.50813" lon="6.67164">
        <ele>362</ele>
        <time>2015-03-22T09:19:23.000Z</time>
      </trkpt>
      <trkpt lat="47.50817" lon="6.67161">
        <ele>362</ele>
        <time>2015-03-22T09:19:24.000Z</time>
      </trkpt>
      <trkpt lat="47.50821" lon="6.67159">
        <ele>363</ele>
        <time>2015-03-22T09:19:25.000Z</time>
      </trkpt>
      <trkpt lat="47.50823" lon="6.67155">
        <ele>363</ele>
        <time>2015-03-22T09:19:26.000Z</time>
      </trkpt>
      <trkpt lat="47.50826" lon="6.67151">
        <ele>363</ele>
        <time>2015-03-22T09:19:27.000Z</time>
      </trkpt>
      <trkpt lat="47.50826" lon="6.67148">
        <ele>363</ele>
        <time>2015-03-22T09:19:28.000Z</time>
      </trkpt>
      <trkpt lat="47.50829" lon="6.67144">
        <ele>362</ele>
        <time>2015-03-22T09:19:29.000Z</time>
      </trkpt>
      <trkpt lat="47.50831" lon="6.67141">
        <ele>362</ele>
        <time>2015-03-22T09:19:30.000Z</time>
      </trkpt>
      <trkpt lat="47.50834" lon="6.67138">
        <ele>366</ele>
        <time>2015-03-22T09:19:31.000Z</time>
      </trkpt>
      <trkpt lat="47.50836" lon="6.67136">
        <ele>366</ele>
        <time>2015-03-22T09:19:32.000Z</time>
      </trkpt>
      <trkpt lat="47.50838" lon="6.67134">
        <ele>366</ele>
        <time>2015-03-22T09:19:33.000Z</time>
      </trkpt>
      <trkpt lat="47.5084" lon="6.67131">
        <ele>367</ele>
        <time>2015-03-22T09:19:34.000Z</time>
      </trkpt>
      <trkpt lat="47.50842" lon="6.67128">
        <ele>367</ele>
        <time>2015-03-22T09:19:35.000Z</time>
      </trkpt>
      <trkpt lat="47.50844" lon="6.67126">
        <ele>367</ele>
        <time>2015-03-22T09:19:36.000Z</time>
      </trkpt>
      <trkpt lat="47.50846" lon="6.67124">
        <ele>367</ele>
        <time>2015-03-22T09:19:37.000Z</time>
      </trkpt>
      <trkpt lat="47.50849" lon="6.67121">
        <ele>367</ele>
        <time>2015-03-22T09:19:39.000Z</time>
      </trkpt>
      <trkpt lat="47.50851" lon="6.67119">
        <ele>367</ele>
        <time>2015-03-22T09:19:40.000Z</time>
      </trkpt>
      <trkpt lat="47.50853" lon="6.67115">
        <ele>367</ele>
        <time>2015-03-22T09:19:42.000Z</time>
      </trkpt>
      <trkpt lat="47.50854" lon="6.67113">
        <ele>367</ele>
        <time>2015-03-22T09:19:43.000Z</time>
      </trkpt>
      <trkpt lat="47.50856" lon="6.67107">
        <ele>367</ele>
        <time>2015-03-22T09:19:47.000Z</time>
      </trkpt>
      <trkpt lat="47.50858" lon="6.67106">
        <ele>367</ele>
        <time>2015-03-22T09:19:48.000Z</time>
      </trkpt>
      <trkpt lat="47.50861" lon="6.67104">
        <ele>367</ele>
        <time>2015-03-22T09:19:50.000Z</time>
      </trkpt>
      <trkpt lat="47.50863" lon="6.67102">
        <ele>367</ele>
        <time>2015-03-22T09:19:51.000Z</time>
      </trkpt>
      <trkpt lat="47.50866" lon="6.671">
        <ele>367</ele>
        <time>2015-03-22T09:19:53.000Z</time>
      </trkpt>
      <trkpt lat="47.50868" lon="6.67098">
        <ele>367</ele>
        <time>2015-03-22T09:19:54.000Z</time>
      </trkpt>
      <trkpt lat="47.50871" lon="6.67095">
        <ele>367</ele>
        <time>2015-03-22T09:19:56.000Z</time>
      </trkpt>
      <trkpt lat="47.50873" lon="6.67094">
        <ele>367</ele>
        <time>2015-03-22T09:19:57.000Z</time>
      </trkpt>
      <trkpt lat="47.50876" lon="6.67092">
        <ele>368</ele>
        <time>2015-03-22T09:19:58.000Z</time>
      </trkpt>
      <trkpt lat="47.50878" lon="6.6709">
        <ele>368</ele>
        <time>2015-03-22T09:19:59.000Z</time>
      </trkpt>
      <trkpt lat="47.5088" lon="6.67088">
        <ele>368</ele>
        <time>2015-03-22T09:20:00.000Z</time>
      </trkpt>
      <trkpt lat="47.50882" lon="6.67087">
        <ele>368</ele>
        <time>2015-03-22T09:20:01.000Z</time>
      </trkpt>
      <trkpt lat="47.50884" lon="6.67085">
        <ele>368</ele>
        <time>2015-03-22T09:20:02.000Z</time>
      </trkpt>
      <trkpt lat="47.50887" lon="6.67083">
        <ele>368</ele>
        <time>2015-03-22T09:20:03.000Z</time>
      </trkpt>
      <trkpt lat="47.5089" lon="6.67082">
        <ele>368</ele>
        <time>2015-03-22T09:20:04.000Z</time>
      </trkpt>
      <trkpt lat="47.50893" lon="6.67081">
        <ele>368</ele>
        <time>2015-03-22T09:20:05.000Z</time>
      </trkpt>
      <trkpt lat="47.50895" lon="6.67079">
        <ele>368</ele>
        <time>2015-03-22T09:20:06.000Z</time>
      </trkpt>
      <trkpt lat="47.50898" lon="6.67078">
        <ele>368</ele>
        <time>2015-03-22T09:20:07.000Z</time>
      </trkpt>
      <trkpt lat="47.50901" lon="6.67076">
        <ele>368</ele>
        <time>2015-03-22T09:20:08.000Z</time>
      </trkpt>
      <trkpt lat="47.50903" lon="6.67075">
        <ele>369</ele>
        <time>2015-03-22T09:20:09.000Z</time>
      </trkpt>
      <trkpt lat="47.50906" lon="6.67073">
        <ele>369</ele>
        <time>2015-03-22T09:20:10.000Z</time>
      </trkpt>
      <trkpt lat="47.50909" lon="6.67072">
        <ele>369</ele>
        <time>2015-03-22T09:20:11.000Z</time>
      </trkpt>
      <trkpt lat="47.50911" lon="6.67071">
        <ele>369</ele>
        <time>2015-03-22T09:20:12.000Z</time>
      </trkpt>
      <trkpt lat="47.50914" lon="6.67069">
        <ele>369</ele>
        <time>2015-03-22T09:20:13.000Z</time>
      </trkpt>
      <trkpt lat="47.50916" lon="6.67067">
        <ele>369</ele>
        <time>2015-03-22T09:20:14.000Z</time>
      </trkpt>
      <trkpt lat="47.50919" lon="6.67066">
        <ele>369</ele>
        <time>2015-03-22T09:20:15.000Z</time>
      </trkpt>
      <trkpt lat="47.50922" lon="6.67064">
        <ele>369</ele>
        <time>2015-03-22T09:20:16.000Z</time>
      </trkpt>
      <trkpt lat="47.50925" lon="6.67062">
        <ele>369</ele>
        <time>2015-03-22T09:20:17.000Z</time>
      </trkpt>
      <trkpt lat="47.50928" lon="6.67061">
        <ele>369</ele>
        <time>2015-03-22T09:20:18.000Z</time>
      </trkpt>
      <trkpt lat="47.50931" lon="6.67059">
        <ele>369</ele>
        <time>2015-03-22T09:20:19.000Z</time>
      </trkpt>
      <trkpt lat="47.50933" lon="6.67058">
        <ele>369</ele>
        <time>2015-03-22T09:20:20.000Z</time>
      </trkpt>
      <trkpt lat="47.50935" lon="6.67056">
        <ele>369</ele>
        <time>2015-03-22T09:20:21.000Z</time>
      </trkpt>
      <trkpt lat="47.50937" lon="6.67054">
        <ele>369</ele>
        <time>2015-03-22T09:20:22.000Z</time>
      </trkpt>
      <trkpt lat="47.5094" lon="6.67053">
        <ele>369</ele>
        <time>2015-03-22T09:20:23.000Z</time>
      </trkpt>
      <trkpt lat="47.50942" lon="6.67051">
        <ele>369</ele>
        <time>2015-03-22T09:20:24.000Z</time>
      </trkpt>
      <trkpt lat="47.50945" lon="6.67049">
        <ele>369</ele>
        <time>2015-03-22T09:20:25.000Z</time>
      </trkpt>
      <trkpt lat="47.50948" lon="6.67047">
        <ele>369</ele>
        <time>2015-03-22T09:20:26.000Z</time>
      </trkpt>
      <trkpt lat="47.5095" lon="6.67045">
        <ele>369</ele>
        <time>2015-03-22T09:20:27.000Z</time>
      </trkpt>
      <trkpt lat="47.50953" lon="6.67043">
        <ele>369</ele>
        <time>2015-03-22T09:20:28.000Z</time>
      </trkpt>
      <trkpt lat="47.50955" lon="6.67041">
        <ele>369</ele>
        <time>2015-03-22T09:20:29.000Z</time>
      </trkpt>
      <trkpt lat="47.50957" lon="6.67038">
        <ele>369</ele>
        <time>2015-03-22T09:20:30.000Z</time>
      </trkpt>
      <trkpt lat="47.5096" lon="6.67036">
        <ele>369</ele>
        <time>2015-03-22T09:20:31.000Z</time>
      </trkpt>
      <trkpt lat="47.50963" lon="6.67035">
        <ele>369</ele>
        <time>2015-03-22T09:20:32.000Z</time>
      </trkpt>
      <trkpt lat="47.50966" lon="6.67033">
        <ele>369</ele>
        <time>2015-03-22T09:20:33.000Z</time>
      </trkpt>
      <trkpt lat="47.5097" lon="6.6703">
        <ele>369</ele>
        <time>2015-03-22T09:20:34.000Z</time>
      </trkpt>
      <trkpt lat="47.50973" lon="6.67028">
        <ele>369</ele>
        <time>2015-03-22T09:20:35.000Z</time>
      </trkpt>
      <trkpt lat="47.50976" lon="6.67026">
        <ele>369</ele>
        <time>2015-03-22T09:20:36.000Z</time>
      </trkpt>
      <trkpt lat="47.50979" lon="6.67023">
        <ele>369</ele>
        <time>2015-03-22T09:20:37.000Z</time>
      </trkpt>
      <trkpt lat="47.50982" lon="6.67021">
        <ele>369</ele>
        <time>2015-03-22T09:20:38.000Z</time>
      </trkpt>
      <trkpt lat="47.50985" lon="6.67019">
        <ele>370</ele>
        <time>2015-03-22T09:20:39.000Z</time>
      </trkpt>
      <trkpt lat="47.50987" lon="6.67017">
        <ele>370</ele>
        <time>2015-03-22T09:20:40.000Z</time>
      </trkpt>
      <trkpt lat="47.50989" lon="6.67015">
        <ele>370</ele>
        <time>2015-03-22T09:20:41.000Z</time>
      </trkpt>
      <trkpt lat="47.50991" lon="6.67013">
        <ele>370</ele>
        <time>2015-03-22T09:20:42.000Z</time>
      </trkpt>
      <trkpt lat="47.50993" lon="6.67011">
        <ele>370</ele>
        <time>2015-03-22T09:20:43.000Z</time>
      </trkpt>
      <trkpt lat="47.50996" lon="6.67009">
        <ele>370</ele>
        <time>2015-03-22T09:20:44.000Z</time>
      </trkpt>
      <trkpt lat="47.50998" lon="6.67007">
        <ele>370</ele>
        <time>2015-03-22T09:20:45.000Z</time>
      </trkpt>
      <trkpt lat="47.51001" lon="6.67005">
        <ele>370</ele>
        <time>2015-03-22T09:20:46.000Z</time>
      </trkpt>
      <trkpt lat="47.51003" lon="6.67003">
        <ele>370</ele>
        <time>2015-03-22T09:20:47.000Z</time>
      </trkpt>
      <trkpt lat="47.51006" lon="6.67001">
        <ele>370</ele>
        <time>2015-03-22T09:20:48.000Z</time>
      </trkpt>
      <trkpt lat="47.51008" lon="6.67">
        <ele>370</ele>
        <time>2015-03-22T09:20:49.000Z</time>
      </trkpt>
      <trkpt lat="47.51011" lon="6.66997">
        <ele>370</ele>
        <time>2015-03-22T09:20:50.000Z</time>
      </trkpt>
      <trkpt lat="47.51014" lon="6.66994">
        <ele>370</ele>
        <time>2015-03-22T09:20:51.000Z</time>
      </trkpt>
      <trkpt lat="47.51018" lon="6.66992">
        <ele>370</ele>
        <time>2015-03-22T09:20:52.000Z</time>
      </trkpt>
      <trkpt lat="47.51021" lon="6.66989">
        <ele>371</ele>
        <time>2015-03-22T09:20:53.000Z</time>
      </trkpt>
      <trkpt lat="47.51025" lon="6.66987">
        <ele>371</ele>
        <time>2015-03-22T09:20:54.000Z</time>
      </trkpt>
      <trkpt lat="47.51028" lon="6.66984">
        <ele>371</ele>
        <time>2015-03-22T09:20:55.000Z</time>
      </trkpt>
      <trkpt lat="47.51031" lon="6.66982">
        <ele>371</ele>
        <time>2015-03-22T09:20:56.000Z</time>
      </trkpt>
      <trkpt lat="47.51034" lon="6.66979">
        <ele>371</ele>
        <time>2015-03-22T09:20:57.000Z</time>
      </trkpt>
      <trkpt lat="47.51037" lon="6.66976">
        <ele>371</ele>
        <time>2015-03-22T09:20:58.000Z</time>
      </trkpt>
      <trkpt lat="47.5104" lon="6.66974">
        <ele>371</ele>
        <time>2015-03-22T09:20:59.000Z</time>
      </trkpt>
      <trkpt lat="47.51043" lon="6.66972">
        <ele>371</ele>
        <time>2015-03-22T09:21:00.000Z</time>
      </trkpt>
      <trkpt lat="47.51046" lon="6.6697">
        <ele>371</ele>
        <time>2015-03-22T09:21:01.000Z</time>
      </trkpt>
      <trkpt lat="47.51049" lon="6.66967">
        <ele>371</ele>
        <time>2015-03-22T09:21:02.000Z</time>
      </trkpt>
      <trkpt lat="47.51052" lon="6.66965">
        <ele>371</ele>
        <time>2015-03-22T09:21:03.000Z</time>
      </trkpt>
      <trkpt lat="47.51055" lon="6.66962">
        <ele>371</ele>
        <time>2015-03-22T09:21:04.000Z</time>
      </trkpt>
      <trkpt lat="47.51059" lon="6.66959">
        <ele>371</ele>
        <time>2015-03-22T09:21:05.000Z</time>
      </trkpt>
      <trkpt lat="47.51062" lon="6.66956">
        <ele>371</ele>
        <time>2015-03-22T09:21:06.000Z</time>
      </trkpt>
      <trkpt lat="47.51065" lon="6.66953">
        <ele>371</ele>
        <time>2015-03-22T09:21:07.000Z</time>
      </trkpt>
      <trkpt lat="47.51069" lon="6.6695">
        <ele>371</ele>
        <time>2015-03-22T09:21:08.000Z</time>
      </trkpt>
      <trkpt lat="47.51072" lon="6.66946">
        <ele>371</ele>
        <time>2015-03-22T09:21:09.000Z</time>
      </trkpt>
      <trkpt lat="47.51076" lon="6.66942">
        <ele>371</ele>
        <time>2015-03-22T09:21:10.000Z</time>
      </trkpt>
      <trkpt lat="47.5108" lon="6.6694">
        <ele>371</ele>
        <time>2015-03-22T09:21:11.000Z</time>
      </trkpt>
      <trkpt lat="47.51084" lon="6.66936">
        <ele>370</ele>
        <time>2015-03-22T09:21:12.000Z</time>
      </trkpt>
      <trkpt lat="47.51088" lon="6.66932">
        <ele>370</ele>
        <time>2015-03-22T09:21:13.000Z</time>
      </trkpt>
      <trkpt lat="47.51092" lon="6.66928">
        <ele>370</ele>
        <time>2015-03-22T09:21:14.000Z</time>
      </trkpt>
      <trkpt lat="47.51096" lon="6.66923">
        <ele>370</ele>
        <time>2015-03-22T09:21:15.000Z</time>
      </trkpt>
      <trkpt lat="47.511" lon="6.66919">
        <ele>370</ele>
        <time>2015-03-22T09:21:16.000Z</time>
      </trkpt>
      <trkpt lat="47.51104" lon="6.66914">
        <ele>369</ele>
        <time>2015-03-22T09:21:17.000Z</time>
      </trkpt>
      <trkpt lat="47.51108" lon="6.66909">
        <ele>369</ele>
        <time>2015-03-22T09:21:18.000Z</time>
      </trkpt>
      <trkpt lat="47.51112" lon="6.66904">
        <ele>369</ele>
        <time>2015-03-22T09:21:19.000Z</time>
      </trkpt>
      <trkpt lat="47.51117" lon="6.66901">
        <ele>368</ele>
        <time>2015-03-22T09:21:20.000Z</time>
      </trkpt>
      <trkpt lat="47.51121" lon="6.66897">
        <ele>368</ele>
        <time>2015-03-22T09:21:21.000Z</time>
      </trkpt>
      <trkpt lat="47.51124" lon="6.66894">
        <ele>368</ele>
        <time>2015-03-22T09:21:22.000Z</time>
      </trkpt>
      <trkpt lat="47.51128" lon="6.6689">
        <ele>368</ele>
        <time>2015-03-22T09:21:23.000Z</time>
      </trkpt>
      <trkpt lat="47.51132" lon="6.66886">
        <ele>368</ele>
        <time>2015-03-22T09:21:24.000Z</time>
      </trkpt>
      <trkpt lat="47.51135" lon="6.66883">
        <ele>368</ele>
        <time>2015-03-22T09:21:25.000Z</time>
      </trkpt>
      <trkpt lat="47.51139" lon="6.6688">
        <ele>368</ele>
        <time>2015-03-22T09:21:26.000Z</time>
      </trkpt>
      <trkpt lat="47.51142" lon="6.66877">
        <ele>368</ele>
        <time>2015-03-22T09:21:27.000Z</time>
      </trkpt>
      <trkpt lat="47.51145" lon="6.66872">
        <ele>368</ele>
        <time>2015-03-22T09:21:27.999Z</time>
      </trkpt>
      <trkpt lat="47.51144" lon="6.66867">
        <ele>368</ele>
        <time>2015-03-22T09:21:29.000Z</time>
      </trkpt>
      <trkpt lat="47.51143" lon="6.66864">
        <ele>368</ele>
        <time>2015-03-22T09:21:30.000Z</time>
      </trkpt>
      <trkpt lat="47.51141" lon="6.66862">
        <ele>368</ele>
        <time>2015-03-22T09:21:31.000Z</time>
      </trkpt>
      <trkpt lat="47.5114" lon="6.6686">
        <ele>368</ele>
        <time>2015-03-22T09:21:32.000Z</time>
      </trkpt>
      <trkpt lat="47.51137" lon="6.66857">
        <ele>368</ele>
        <time>2015-03-22T09:21:33.000Z</time>
      </trkpt>
      <trkpt lat="47.51135" lon="6.66855">
        <ele>368</ele>
        <time>2015-03-22T09:21:34.000Z</time>
      </trkpt>
      <trkpt lat="47.51133" lon="6.66853">
        <ele>368</ele>
        <time>2015-03-22T09:21:35.000Z</time>
      </trkpt>
      <trkpt lat="47.51131" lon="6.6685">
        <ele>368</ele>
        <time>2015-03-22T09:21:36.000Z</time>
      </trkpt>
      <trkpt lat="47.51128" lon="6.66848">
        <ele>368</ele>
        <time>2015-03-22T09:21:37.000Z</time>
      </trkpt>
      <trkpt lat="47.51126" lon="6.66846">
        <ele>368</ele>
        <time>2015-03-22T09:21:38.000Z</time>
      </trkpt>
      <trkpt lat="47.51123" lon="6.66843">
        <ele>368</ele>
        <time>2015-03-22T09:21:39.000Z</time>
      </trkpt>
      <trkpt lat="47.51121" lon="6.66841">
        <ele>368</ele>
        <time>2015-03-22T09:21:40.000Z</time>
      </trkpt>
      <trkpt lat="47.51118" lon="6.66838">
        <ele>368</ele>
        <time>2015-03-22T09:21:41.000Z</time>
      </trkpt>
      <trkpt lat="47.51115" lon="6.66836">
        <ele>368</ele>
        <time>2015-03-22T09:21:42.000Z</time>
      </trkpt>
      <trkpt lat="47.51112" lon="6.66833">
        <ele>368</ele>
        <time>2015-03-22T09:21:43.000Z</time>
      </trkpt>
      <trkpt lat="47.51109" lon="6.6683">
        <ele>368</ele>
        <time>2015-03-22T09:21:44.000Z</time>
      </trkpt>
      <trkpt lat="47.51106" lon="6.66827">
        <ele>368</ele>
        <time>2015-03-22T09:21:45.000Z</time>
      </trkpt>
      <trkpt lat="47.51103" lon="6.66824">
        <ele>368</ele>
        <time>2015-03-22T09:21:46.000Z</time>
      </trkpt>
      <trkpt lat="47.51099" lon="6.66821">
        <ele>368</ele>
        <time>2015-03-22T09:21:47.000Z</time>
      </trkpt>
      <trkpt lat="47.51096" lon="6.66818">
        <ele>368</ele>
        <time>2015-03-22T09:21:48.000Z</time>
      </trkpt>
      <trkpt lat="47.51093" lon="6.66815">
        <ele>368</ele>
        <time>2015-03-22T09:21:49.000Z</time>
      </trkpt>
      <trkpt lat="47.51089" lon="6.66812">
        <ele>368</ele>
        <time>2015-03-22T09:21:50.000Z</time>
      </trkpt>
      <trkpt lat="47.51086" lon="6.66808">
        <ele>368</ele>
        <time>2015-03-22T09:21:51.000Z</time>
      </trkpt>
      <trkpt lat="47.51082" lon="6.66805">
        <ele>369</ele>
        <time>2015-03-22T09:21:52.000Z</time>
      </trkpt>
      <trkpt lat="47.51078" lon="6.66801">
        <ele>369</ele>
        <time>2015-03-22T09:21:53.000Z</time>
      </trkpt>
      <trkpt lat="47.51075" lon="6.66797">
        <ele>369</ele>
        <time>2015-03-22T09:21:54.000Z</time>
      </trkpt>
      <trkpt lat="47.51072" lon="6.66794">
        <ele>370</ele>
        <time>2015-03-22T09:21:55.000Z</time>
      </trkpt>
      <trkpt lat="47.51068" lon="6.6679">
        <ele>370</ele>
        <time>2015-03-22T09:21:56.000Z</time>
      </trkpt>
      <trkpt lat="47.51065" lon="6.66786">
        <ele>370</ele>
        <time>2015-03-22T09:21:57.000Z</time>
      </trkpt>
      <trkpt lat="47.51062" lon="6.66782">
        <ele>370</ele>
        <time>2015-03-22T09:21:58.000Z</time>
      </trkpt>
      <trkpt lat="47.51058" lon="6.66778">
        <ele>370</ele>
        <time>2015-03-22T09:21:59.000Z</time>
      </trkpt>
      <trkpt lat="47.51055" lon="6.66775">
        <ele>370</ele>
        <time>2015-03-22T09:22:00.001Z</time>
      </trkpt>
      <trkpt lat="47.51052" lon="6.66772">
        <ele>370</ele>
        <time>2015-03-22T09:22:01.001Z</time>
      </trkpt>
      <trkpt lat="47.51049" lon="6.66769">
        <ele>370</ele>
        <time>2015-03-22T09:22:02.000Z</time>
      </trkpt>
      <trkpt lat="47.51046" lon="6.66767">
        <ele>370</ele>
        <time>2015-03-22T09:22:03.000Z</time>
      </trkpt>
      <trkpt lat="47.51043" lon="6.66765">
        <ele>370</ele>
        <time>2015-03-22T09:22:04.000Z</time>
      </trkpt>
      <trkpt lat="47.5104" lon="6.66762">
        <ele>370</ele>
        <time>2015-03-22T09:22:05.000Z</time>
      </trkpt>
      <trkpt lat="47.51037" lon="6.66759">
        <ele>370</ele>
        <time>2015-03-22T09:22:06.000Z</time>
      </trkpt>
      <trkpt lat="47.51033" lon="6.66757">
        <ele>370</ele>
        <time>2015-03-22T09:22:07.000Z</time>
      </trkpt>
      <trkpt lat="47.5103" lon="6.66754">
        <ele>370</ele>
        <time>2015-03-22T09:22:08.000Z</time>
      </trkpt>
      <trkpt lat="47.51027" lon="6.66752">
        <ele>370</ele>
        <time>2015-03-22T09:22:09.000Z</time>
      </trkpt>
      <trkpt lat="47.51023" lon="6.6675">
        <ele>370</ele>
        <time>2015-03-22T09:22:10.000Z</time>
      </trkpt>
      <trkpt lat="47.5102" lon="6.66747">
        <ele>370</ele>
        <time>2015-03-22T09:22:11.000Z</time>
      </trkpt>
      <trkpt lat="47.51017" lon="6.66744">
        <ele>370</ele>
        <time>2015-03-22T09:22:12.000Z</time>
      </trkpt>
      <trkpt lat="47.51013" lon="6.66742">
        <ele>370</ele>
        <time>2015-03-22T09:22:13.000Z</time>
      </trkpt>
      <trkpt lat="47.5101" lon="6.66739">
        <ele>370</ele>
        <time>2015-03-22T09:22:14.000Z</time>
      </trkpt>
      <trkpt lat="47.51007" lon="6.66736">
        <ele>370</ele>
        <time>2015-03-22T09:22:15.000Z</time>
      </trkpt>
      <trkpt lat="47.51004" lon="6.66733">
        <ele>370</ele>
        <time>2015-03-22T09:22:16.000Z</time>
      </trkpt>
      <trkpt lat="47.51001" lon="6.6673">
        <ele>369</ele>
        <time>2015-03-22T09:22:17.000Z</time>
      </trkpt>
      <trkpt lat="47.50998" lon="6.66727">
        <ele>370</ele>
        <time>2015-03-22T09:22:18.000Z</time>
      </trkpt>
      <trkpt lat="47.50995" lon="6.66724">
        <ele>370</ele>
        <time>2015-03-22T09:22:19.000Z</time>
      </trkpt>
      <trkpt lat="47.50992" lon="6.66722">
        <ele>370</ele>
        <time>2015-03-22T09:22:20.000Z</time>
      </trkpt>
      <trkpt lat="47.50989" lon="6.66719">
        <ele>370</ele>
        <time>2015-03-22T09:22:21.000Z</time>
      </trkpt>
      <trkpt lat="47.50986" lon="6.66717">
        <ele>370</ele>
        <time>2015-03-22T09:22:22.000Z</time>
      </trkpt>
      <trkpt lat="47.50983" lon="6.66714">
        <ele>370</ele>
        <time>2015-03-22T09:22:23.000Z</time>
      </trkpt>
      <trkpt lat="47.5098" lon="6.66712">
        <ele>370</ele>
        <time>2015-03-22T09:22:24.000Z</time>
      </trkpt>
      <trkpt lat="47.50977" lon="6.66709">
        <ele>370</ele>
        <time>2015-03-22T09:22:25.000Z</time>
      </trkpt>
      <trkpt lat="47.50974" lon="6.66707">
        <ele>370</ele>
        <time>2015-03-22T09:22:26.000Z</time>
      </trkpt>
      <trkpt lat="47.50971" lon="6.66704">
        <ele>370</ele>
        <time>2015-03-22T09:22:27.000Z</time>
      </trkpt>
      <trkpt lat="47.50968" lon="6.66702">
        <ele>370</ele>
        <time>2015-03-22T09:22:27.999Z</time>
      </trkpt>
      <trkpt lat="47.50966" lon="6.66698">
        <ele>370</ele>
        <time>2015-03-22T09:22:29.000Z</time>
      </trkpt>
      <trkpt lat="47.50963" lon="6.66696">
        <ele>370</ele>
        <time>2015-03-22T09:22:30.000Z</time>
      </trkpt>
      <trkpt lat="47.50961" lon="6.66693">
        <ele>370</ele>
        <time>2015-03-22T09:22:31.000Z</time>
      </trkpt>
      <trkpt lat="47.50958" lon="6.6669">
        <ele>369</ele>
        <time>2015-03-22T09:22:32.000Z</time>
      </trkpt>
      <trkpt lat="47.50955" lon="6.66687">
        <ele>369</ele>
        <time>2015-03-22T09:22:33.000Z</time>
      </trkpt>
      <trkpt lat="47.50952" lon="6.66685">
        <ele>369</ele>
        <time>2015-03-22T09:22:34.000Z</time>
      </trkpt>
      <trkpt lat="47.5095" lon="6.66682">
        <ele>369</ele>
        <time>2015-03-22T09:22:35.000Z</time>
      </trkpt>
      <trkpt lat="47.50947" lon="6.6668">
        <ele>369</ele>
        <time>2015-03-22T09:22:36.000Z</time>
      </trkpt>
      <trkpt lat="47.50944" lon="6.66677">
        <ele>369</ele>
        <time>2015-03-22T09:22:37.000Z</time>
      </trkpt>
      <trkpt lat="47.50941" lon="6.66675">
        <ele>369</ele>
        <time>2015-03-22T09:22:38.000Z</time>
      </trkpt>
      <trkpt lat="47.50938" lon="6.66673">
        <ele>369</ele>
        <time>2015-03-22T09:22:39.000Z</time>
      </trkpt>
      <trkpt lat="47.50935" lon="6.6667">
        <ele>369</ele>
        <time>2015-03-22T09:22:40.000Z</time>
      </trkpt>
      <trkpt lat="47.50932" lon="6.66667">
        <ele>369</ele>
        <time>2015-03-22T09:22:41.000Z</time>
      </trkpt>
      <trkpt lat="47.50929" lon="6.66664">
        <ele>369</ele>
        <time>2015-03-22T09:22:42.000Z</time>
      </trkpt>
      <trkpt lat="47.50925" lon="6.66661">
        <ele>369</ele>
        <time>2015-03-22T09:22:43.000Z</time>
      </trkpt>
      <trkpt lat="47.50922" lon="6.66657">
        <ele>369</ele>
        <time>2015-03-22T09:22:44.000Z</time>
      </trkpt>
      <trkpt lat="47.50919" lon="6.66654">
        <ele>369</ele>
        <time>2015-03-22T09:22:45.000Z</time>
      </trkpt>
      <trkpt lat="47.50915" lon="6.6665">
        <ele>370</ele>
        <time>2015-03-22T09:22:46.000Z</time>
      </trkpt>
      <trkpt lat="47.50911" lon="6.66647">
        <ele>370</ele>
        <time>2015-03-22T09:22:47.000Z</time>
      </trkpt>
      <trkpt lat="47.50907" lon="6.66644">
        <ele>370</ele>
        <time>2015-03-22T09:22:48.000Z</time>
      </trkpt>
      <trkpt lat="47.50903" lon="6.66641">
        <ele>370</ele>
        <time>2015-03-22T09:22:49.000Z</time>
      </trkpt>
      <trkpt lat="47.50899" lon="6.66638">
        <ele>370</ele>
        <time>2015-03-22T09:22:50.000Z</time>
      </trkpt>
      <trkpt lat="47.50896" lon="6.66635">
        <ele>370</ele>
        <time>2015-03-22T09:22:51.000Z</time>
      </trkpt>
      <trkpt lat="47.50892" lon="6.66631">
        <ele>370</ele>
        <time>2015-03-22T09:22:52.000Z</time>
      </trkpt>
      <trkpt lat="47.50889" lon="6.66628">
        <ele>370</ele>
        <time>2015-03-22T09:22:53.000Z</time>
      </trkpt>
      <trkpt lat="47.50886" lon="6.66625">
        <ele>370</ele>
        <time>2015-03-22T09:22:54.000Z</time>
      </trkpt>
      <trkpt lat="47.50882" lon="6.66622">
        <ele>370</ele>
        <time>2015-03-22T09:22:55.000Z</time>
      </trkpt>
      <trkpt lat="47.50878" lon="6.66619">
        <ele>370</ele>
        <time>2015-03-22T09:22:56.000Z</time>
      </trkpt>
      <trkpt lat="47.50875" lon="6.66615">
        <ele>370</ele>
        <time>2015-03-22T09:22:57.000Z</time>
      </trkpt>
      <trkpt lat="47.5087" lon="6.66612">
        <ele>370</ele>
        <time>2015-03-22T09:22:58.000Z</time>
      </trkpt>
      <trkpt lat="47.50866" lon="6.66609">
        <ele>370</ele>
        <time>2015-03-22T09:22:59.000Z</time>
      </trkpt>
      <trkpt lat="47.50862" lon="6.66605">
        <ele>371</ele>
        <time>2015-03-22T09:23:00.000Z</time>
      </trkpt>
      <trkpt lat="47.50858" lon="6.66602">
        <ele>371</ele>
        <time>2015-03-22T09:23:01.000Z</time>
      </trkpt>
      <trkpt lat="47.50855" lon="6.66599">
        <ele>371</ele>
        <time>2015-03-22T09:23:02.000Z</time>
      </trkpt>
      <trkpt lat="47.50851" lon="6.66595">
        <ele>371</ele>
        <time>2015-03-22T09:23:03.000Z</time>
      </trkpt>
      <trkpt lat="47.50847" lon="6.66588">
        <ele>371</ele>
        <time>2015-03-22T09:23:04.000Z</time>
      </trkpt>
      <trkpt lat="47.50843" lon="6.66584">
        <ele>371</ele>
        <time>2015-03-22T09:23:05.000Z</time>
      </trkpt>
      <trkpt lat="47.50839" lon="6.66579">
        <ele>372</ele>
        <time>2015-03-22T09:23:06.000Z</time>
      </trkpt>
      <trkpt lat="47.50837" lon="6.66571">
        <ele>372</ele>
        <time>2015-03-22T09:23:07.000Z</time>
      </trkpt>
      <trkpt lat="47.50834" lon="6.66564">
        <ele>373</ele>
        <time>2015-03-22T09:23:08.000Z</time>
      </trkpt>
      <trkpt lat="47.50832" lon="6.66555">
        <ele>376</ele>
        <time>2015-03-22T09:23:09.000Z</time>
      </trkpt>
      <trkpt lat="47.5083" lon="6.66549">
        <ele>376</ele>
        <time>2015-03-22T09:23:10.000Z</time>
      </trkpt>
      <trkpt lat="47.50827" lon="6.66542">
        <ele>376</ele>
        <time>2015-03-22T09:23:11.000Z</time>
      </trkpt>
      <trkpt lat="47.50825" lon="6.66533">
        <ele>377</ele>
        <time>2015-03-22T09:23:12.000Z</time>
      </trkpt>
      <trkpt lat="47.50823" lon="6.66525">
        <ele>377</ele>
        <time>2015-03-22T09:23:13.000Z</time>
      </trkpt>
      <trkpt lat="47.50821" lon="6.66521">
        <ele>378</ele>
        <time>2015-03-22T09:23:14.000Z</time>
      </trkpt>
      <trkpt lat="47.5082" lon="6.66516">
        <ele>378</ele>
        <time>2015-03-22T09:23:15.000Z</time>
      </trkpt>
      <trkpt lat="47.50819" lon="6.66515">
        <ele>378</ele>
        <time>2015-03-22T09:23:16.000Z</time>
      </trkpt>
      <trkpt lat="47.50815" lon="6.66511">
        <ele>378</ele>
        <time>2015-03-22T09:23:17.000Z</time>
      </trkpt>
      <trkpt lat="47.50812" lon="6.66508">
        <ele>378</ele>
        <time>2015-03-22T09:23:18.000Z</time>
      </trkpt>
      <trkpt lat="47.50808" lon="6.66508">
        <ele>378</ele>
        <time>2015-03-22T09:23:19.000Z</time>
      </trkpt>
      <trkpt lat="47.50806" lon="6.66506">
        <ele>378</ele>
        <time>2015-03-22T09:23:20.000Z</time>
      </trkpt>
      <trkpt lat="47.50804" lon="6.66504">
        <ele>378</ele>
        <time>2015-03-22T09:23:21.000Z</time>
      </trkpt>
      <trkpt lat="47.508" lon="6.66502">
        <ele>379</ele>
        <time>2015-03-22T09:23:23.000Z</time>
      </trkpt>
      <trkpt lat="47.50799" lon="6.66502">
        <ele>379</ele>
        <time>2015-03-22T09:23:24.000Z</time>
      </trkpt>
      <trkpt lat="47.50796" lon="6.66501">
        <ele>379</ele>
        <time>2015-03-22T09:23:26.000Z</time>
      </trkpt>
      <trkpt lat="47.50794" lon="6.66501">
        <ele>379</ele>
        <time>2015-03-22T09:23:27.000Z</time>
      </trkpt>
      <trkpt lat="47.5079" lon="6.66499">
        <ele>388</ele>
        <time>2015-03-22T09:23:29.000Z</time>
      </trkpt>
      <trkpt lat="47.50788" lon="6.66498">
        <ele>388</ele>
        <time>2015-03-22T09:23:30.000Z</time>
      </trkpt>
      <trkpt lat="47.50785" lon="6.66495">
        <ele>388</ele>
        <time>2015-03-22T09:23:32.000Z</time>
      </trkpt>
      <trkpt lat="47.50783" lon="6.66493">
        <ele>388</ele>
        <time>2015-03-22T09:23:33.000Z</time>
      </trkpt>
      <trkpt lat="47.50779" lon="6.6649">
        <ele>389</ele>
        <time>2015-03-22T09:23:35.000Z</time>
      </trkpt>
      <trkpt lat="47.50778" lon="6.66489">
        <ele>389</ele>
        <time>2015-03-22T09:23:36.000Z</time>
      </trkpt>
      <trkpt lat="47.50774" lon="6.66488">
        <ele>389</ele>
        <time>2015-03-22T09:23:38.000Z</time>
      </trkpt>
      <trkpt lat="47.50772" lon="6.66488">
        <ele>389</ele>
        <time>2015-03-22T09:23:39.000Z</time>
      </trkpt>
      <trkpt lat="47.50769" lon="6.66487">
        <ele>389</ele>
        <time>2015-03-22T09:23:41.000Z</time>
      </trkpt>
      <trkpt lat="47.50767" lon="6.66487">
        <ele>389</ele>
        <time>2015-03-22T09:23:42.000Z</time>
      </trkpt>
      <trkpt lat="47.50765" lon="6.66487">
        <ele>389</ele>
        <time>2015-03-22T09:23:43.000Z</time>
      </trkpt>
      <trkpt lat="47.50762" lon="6.66487">
        <ele>389</ele>
        <time>2015-03-22T09:23:44.000Z</time>
      </trkpt>
      <trkpt lat="47.50759" lon="6.66488">
        <ele>389</ele>
        <time>2015-03-22T09:23:45.000Z</time>
      </trkpt>
      <trkpt lat="47.50757" lon="6.66488">
        <ele>389</ele>
        <time>2015-03-22T09:23:46.000Z</time>
      </trkpt>
      <trkpt lat="47.50753" lon="6.66487">
        <ele>389</ele>
        <time>2015-03-22T09:23:48.000Z</time>
      </trkpt>
      <trkpt lat="47.50752" lon="6.66486">
        <ele>389</ele>
        <time>2015-03-22T09:23:49.000Z</time>
      </trkpt>
      <trkpt lat="47.50749" lon="6.66482">
        <ele>392</ele>
        <time>2015-03-22T09:23:51.000Z</time>
      </trkpt>
      <trkpt lat="47.50748" lon="6.66479">
        <ele>392</ele>
        <time>2015-03-22T09:23:52.000Z</time>
      </trkpt>
      <trkpt lat="47.50748" lon="6.66476">
        <ele>393</ele>
        <time>2015-03-22T09:23:53.000Z</time>
      </trkpt>
      <trkpt lat="47.50747" lon="6.66473">
        <ele>393</ele>
        <time>2015-03-22T09:23:54.000Z</time>
      </trkpt>
      <trkpt lat="47.50744" lon="6.66468">
        <ele>394</ele>
        <time>2015-03-22T09:23:56.000Z</time>
      </trkpt>
      <trkpt lat="47.50742" lon="6.66467">
        <ele>394</ele>
        <time>2015-03-22T09:23:57.000Z</time>
      </trkpt>
      <trkpt lat="47.50739" lon="6.66466">
        <ele>394</ele>
        <time>2015-03-22T09:23:59.000Z</time>
      </trkpt>
      <trkpt lat="47.50737" lon="6.66465">
        <ele>395</ele>
        <time>2015-03-22T09:24:00.000Z</time>
      </trkpt>
      <trkpt lat="47.50734" lon="6.66463">
        <ele>395</ele>
        <time>2015-03-22T09:24:03.000Z</time>
      </trkpt>
      <trkpt lat="47.50733" lon="6.66462">
        <ele>395</ele>
        <time>2015-03-22T09:24:04.000Z</time>
      </trkpt>
      <trkpt lat="47.50729" lon="6.66462">
        <ele>395</ele>
        <time>2015-03-22T09:24:07.000Z</time>
      </trkpt>
      <trkpt lat="47.50728" lon="6.66462">
        <ele>395</ele>
        <time>2015-03-22T09:24:08.000Z</time>
      </trkpt>
      <trkpt lat="47.50724" lon="6.66461">
        <ele>395</ele>
        <time>2015-03-22T09:24:11.000Z</time>
      </trkpt>
      <trkpt lat="47.50722" lon="6.66462">
        <ele>395</ele>
        <time>2015-03-22T09:24:12.000Z</time>
      </trkpt>
      <trkpt lat="47.50719" lon="6.66463">
        <ele>395</ele>
        <time>2015-03-22T09:24:14.001Z</time>
      </trkpt>
      <trkpt lat="47.50715" lon="6.66467">
        <ele>394</ele>
        <time>2015-03-22T09:24:15.000Z</time>
      </trkpt>
      <trkpt lat="47.50711" lon="6.66469">
        <ele>394</ele>
        <time>2015-03-22T09:24:16.000Z</time>
      </trkpt>
      <trkpt lat="47.50708" lon="6.66471">
        <ele>394</ele>
        <time>2015-03-22T09:24:17.000Z</time>
      </trkpt>
      <trkpt lat="47.50705" lon="6.66473">
        <ele>394</ele>
        <time>2015-03-22T09:24:18.000Z</time>
      </trkpt>
      <trkpt lat="47.50701" lon="6.66475">
        <ele>394</ele>
        <time>2015-03-22T09:24:19.000Z</time>
      </trkpt>
      <trkpt lat="47.50699" lon="6.66476">
        <ele>393</ele>
        <time>2015-03-22T09:24:20.000Z</time>
      </trkpt>
      <trkpt lat="47.50696" lon="6.66478">
        <ele>393</ele>
        <time>2015-03-22T09:24:21.000Z</time>
      </trkpt>
      <trkpt lat="47.50694" lon="6.6648">
        <ele>393</ele>
        <time>2015-03-22T09:24:22.000Z</time>
      </trkpt>
      <trkpt lat="47.50691" lon="6.66482">
        <ele>393</ele>
        <time>2015-03-22T09:24:23.000Z</time>
      </trkpt>
      <trkpt lat="47.50688" lon="6.66485">
        <ele>392</ele>
        <time>2015-03-22T09:24:24.000Z</time>
      </trkpt>
      <trkpt lat="47.50685" lon="6.66487">
        <ele>392</ele>
        <time>2015-03-22T09:24:25.000Z</time>
      </trkpt>
      <trkpt lat="47.50682" lon="6.66489">
        <ele>391</ele>
        <time>2015-03-22T09:24:27.001Z</time>
      </trkpt>
      <trkpt lat="47.5068" lon="6.6649">
        <ele>391</ele>
        <time>2015-03-22T09:24:28.000Z</time>
      </trkpt>
      <trkpt lat="47.50676" lon="6.66491">
        <ele>390</ele>
        <time>2015-03-22T09:24:30.000Z</time>
      </trkpt>
      <trkpt lat="47.50674" lon="6.66492">
        <ele>390</ele>
        <time>2015-03-22T09:24:31.000Z</time>
      </trkpt>
      <trkpt lat="47.50672" lon="6.66492">
        <ele>390</ele>
        <time>2015-03-22T09:24:32.000Z</time>
      </trkpt>
      <trkpt lat="47.5067" lon="6.66493">
        <ele>389</ele>
        <time>2015-03-22T09:24:33.000Z</time>
      </trkpt>
      <trkpt lat="47.50667" lon="6.66494">
        <ele>389</ele>
        <time>2015-03-22T09:24:34.000Z</time>
      </trkpt>
      <trkpt lat="47.50665" lon="6.66496">
        <ele>388</ele>
        <time>2015-03-22T09:24:35.000Z</time>
      </trkpt>
      <trkpt lat="47.50662" lon="6.66498">
        <ele>388</ele>
        <time>2015-03-22T09:24:36.000Z</time>
      </trkpt>
      <trkpt lat="47.50659" lon="6.66499">
        <ele>388</ele>
        <time>2015-03-22T09:24:37.000Z</time>
      </trkpt>
      <trkpt lat="47.50657" lon="6.66501">
        <ele>384</ele>
        <time>2015-03-22T09:24:38.000Z</time>
      </trkpt>
      <trkpt lat="47.50655" lon="6.66503">
        <ele>384</ele>
        <time>2015-03-22T09:24:39.000Z</time>
      </trkpt>
      <trkpt lat="47.50653" lon="6.66504">
        <ele>383</ele>
        <time>2015-03-22T09:24:40.000Z</time>
      </trkpt>
      <trkpt lat="47.50651" lon="6.66506">
        <ele>383</ele>
        <time>2015-03-22T09:24:41.000Z</time>
      </trkpt>
      <trkpt lat="47.50648" lon="6.66507">
        <ele>383</ele>
        <time>2015-03-22T09:24:42.000Z</time>
      </trkpt>
      <trkpt lat="47.50645" lon="6.66507">
        <ele>382</ele>
        <time>2015-03-22T09:24:43.000Z</time>
      </trkpt>
      <trkpt lat="47.50642" lon="6.66508">
        <ele>382</ele>
        <time>2015-03-22T09:24:44.000Z</time>
      </trkpt>
      <trkpt lat="47.50639" lon="6.66509">
        <ele>382</ele>
        <time>2015-03-22T09:24:45.000Z</time>
      </trkpt>
      <trkpt lat="47.50635" lon="6.66509">
        <ele>382</ele>
        <time>2015-03-22T09:24:46.000Z</time>
      </trkpt>
      <trkpt lat="47.50633" lon="6.66508">
        <ele>382</ele>
        <time>2015-03-22T09:24:47.000Z</time>
      </trkpt>
      <trkpt lat="47.5063" lon="6.66506">
        <ele>382</ele>
        <time>2015-03-22T09:24:49.000Z</time>
      </trkpt>
      <trkpt lat="47.50629" lon="6.66504">
        <ele>382</ele>
        <time>2015-03-22T09:24:50.000Z</time>
      </trkpt>
      <trkpt lat="47.50626" lon="6.66501">
        <ele>382</ele>
        <time>2015-03-22T09:24:52.000Z</time>
      </trkpt>
      <trkpt lat="47.50624" lon="6.665">
        <ele>391</ele>
        <time>2015-03-22T09:24:53.000Z</time>
      </trkpt>
      <trkpt lat="47.50621" lon="6.66495">
        <ele>391</ele>
        <time>2015-03-22T09:24:55.000Z</time>
      </trkpt>
      <trkpt lat="47.5062" lon="6.66492">
        <ele>391</ele>
        <time>2015-03-22T09:24:56.000Z</time>
      </trkpt>
      <trkpt lat="47.50619" lon="6.66487">
        <ele>391</ele>
        <time>2015-03-22T09:24:58.000Z</time>
      </trkpt>
      <trkpt lat="47.50619" lon="6.66485">
        <ele>391</ele>
        <time>2015-03-22T09:24:59.000Z</time>
      </trkpt>
      <trkpt lat="47.50621" lon="6.6648">
        <ele>391</ele>
        <time>2015-03-22T09:25:02.000Z</time>
      </trkpt>
      <trkpt lat="47.50621" lon="6.66478">
        <ele>391</ele>
        <time>2015-03-22T09:25:03.000Z</time>
      </trkpt>
      <trkpt lat="47.50622" lon="6.66473">
        <ele>392</ele>
        <time>2015-03-22T09:25:06.000Z</time>
      </trkpt>
      <trkpt lat="47.50623" lon="6.66471">
        <ele>392</ele>
        <time>2015-03-22T09:25:07.000Z</time>
      </trkpt>
      <trkpt lat="47.50625" lon="6.66468">
        <ele>392</ele>
        <time>2015-03-22T09:25:10.000Z</time>
      </trkpt>
      <trkpt lat="47.50627" lon="6.66468">
        <ele>392</ele>
        <time>2015-03-22T09:25:11.000Z</time>
      </trkpt>
      <trkpt lat="47.5063" lon="6.66465">
        <ele>392</ele>
        <time>2015-03-22T09:25:14.000Z</time>
      </trkpt>
      <trkpt lat="47.50631" lon="6.66465">
        <ele>392</ele>
        <time>2015-03-22T09:25:15.000Z</time>
      </trkpt>
      <trkpt lat="47.50634" lon="6.66464">
        <ele>393</ele>
        <time>2015-03-22T09:25:19.000Z</time>
      </trkpt>
      <trkpt lat="47.50636" lon="6.66463">
        <ele>393</ele>
        <time>2015-03-22T09:25:20.000Z</time>
      </trkpt>
      <trkpt lat="47.50639" lon="6.6646">
        <ele>393</ele>
        <time>2015-03-22T09:25:22.000Z</time>
      </trkpt>
      <trkpt lat="47.50641" lon="6.66459">
        <ele>393</ele>
        <time>2015-03-22T09:25:23.000Z</time>
      </trkpt>
      <trkpt lat="47.50643" lon="6.66457">
        <ele>393</ele>
        <time>2015-03-22T09:25:24.000Z</time>
      </trkpt>
      <trkpt lat="47.50645" lon="6.66455">
        <ele>393</ele>
        <time>2015-03-22T09:25:25.000Z</time>
      </trkpt>
      <trkpt lat="47.50647" lon="6.66453">
        <ele>394</ele>
        <time>2015-03-22T09:25:26.000Z</time>
      </trkpt>
      <trkpt lat="47.50649" lon="6.66451">
        <ele>394</ele>
        <time>2015-03-22T09:25:27.000Z</time>
      </trkpt>
      <trkpt lat="47.5065" lon="6.6645">
        <ele>394</ele>
        <time>2015-03-22T09:25:28.002Z</time>
      </trkpt>
      <trkpt lat="47.50655" lon="6.66446">
        <ele>395</ele>
        <time>2015-03-22T09:25:29.001Z</time>
      </trkpt>
      <trkpt lat="47.50659" lon="6.66443">
        <ele>395</ele>
        <time>2015-03-22T09:25:30.000Z</time>
      </trkpt>
      <trkpt lat="47.50662" lon="6.6644">
        <ele>396</ele>
        <time>2015-03-22T09:25:31.000Z</time>
      </trkpt>
      <trkpt lat="47.50665" lon="6.66438">
        <ele>396</ele>
        <time>2015-03-22T09:25:32.000Z</time>
      </trkpt>
      <trkpt lat="47.50668" lon="6.66435">
        <ele>398</ele>
        <time>2015-03-22T09:25:33.000Z</time>
      </trkpt>
      <trkpt lat="47.5067" lon="6.66433">
        <ele>399</ele>
        <time>2015-03-22T09:25:34.000Z</time>
      </trkpt>
      <trkpt lat="47.50672" lon="6.66431">
        <ele>399</ele>
        <time>2015-03-22T09:25:35.000Z</time>
      </trkpt>
      <trkpt lat="47.50674" lon="6.66426">
        <ele>399</ele>
        <time>2015-03-22T09:25:37.000Z</time>
      </trkpt>
      <trkpt lat="47.50674" lon="6.66424">
        <ele>400</ele>
        <time>2015-03-22T09:25:38.000Z</time>
      </trkpt>
      <trkpt lat="47.50676" lon="6.6642">
        <ele>400</ele>
        <time>2015-03-22T09:25:40.000Z</time>
      </trkpt>
      <trkpt lat="47.50677" lon="6.66418">
        <ele>400</ele>
        <time>2015-03-22T09:25:41.000Z</time>
      </trkpt>
      <trkpt lat="47.5068" lon="6.66414">
        <ele>404</ele>
        <time>2015-03-22T09:25:48.000Z</time>
      </trkpt>
      <trkpt lat="47.5068" lon="6.66413">
        <ele>405</ele>
        <time>2015-03-22T09:25:49.000Z</time>
      </trkpt>
      <trkpt lat="47.50683" lon="6.66411">
        <ele>405</ele>
        <time>2015-03-22T09:25:51.000Z</time>
      </trkpt>
      <trkpt lat="47.50685" lon="6.6641">
        <ele>405</ele>
        <time>2015-03-22T09:25:52.000Z</time>
      </trkpt>
      <trkpt lat="47.50687" lon="6.66409">
        <ele>405</ele>
        <time>2015-03-22T09:25:53.000Z</time>
      </trkpt>
      <trkpt lat="47.50689" lon="6.66409">
        <ele>406</ele>
        <time>2015-03-22T09:25:54.000Z</time>
      </trkpt>
      <trkpt lat="47.50693" lon="6.66407">
        <ele>406</ele>
        <time>2015-03-22T09:25:56.000Z</time>
      </trkpt>
      <trkpt lat="47.50694" lon="6.66406">
        <ele>406</ele>
        <time>2015-03-22T09:25:57.000Z</time>
      </trkpt>
      <trkpt lat="47.50696" lon="6.66403">
        <ele>406</ele>
        <time>2015-03-22T09:25:59.000Z</time>
      </trkpt>
      <trkpt lat="47.50698" lon="6.66401">
        <ele>406</ele>
        <time>2015-03-22T09:26:00.000Z</time>
      </trkpt>
      <trkpt lat="47.50701" lon="6.66398">
        <ele>407</ele>
        <time>2015-03-22T09:26:02.000Z</time>
      </trkpt>
      <trkpt lat="47.50702" lon="6.66397">
        <ele>407</ele>
        <time>2015-03-22T09:26:03.000Z</time>
      </trkpt>
      <trkpt lat="47.50706" lon="6.66397">
        <ele>407</ele>
        <time>2015-03-22T09:26:05.000Z</time>
      </trkpt>
      <trkpt lat="47.50707" lon="6.66396">
        <ele>407</ele>
        <time>2015-03-22T09:26:06.000Z</time>
      </trkpt>
      <trkpt lat="47.5071" lon="6.66394">
        <ele>407</ele>
        <time>2015-03-22T09:26:12.000Z</time>
      </trkpt>
      <trkpt lat="47.50712" lon="6.66392">
        <ele>407</ele>
        <time>2015-03-22T09:26:13.000Z</time>
      </trkpt>
      <trkpt lat="47.50715" lon="6.6639">
        <ele>407</ele>
        <time>2015-03-22T09:26:14.000Z</time>
      </trkpt>
      <trkpt lat="47.50717" lon="6.66389">
        <ele>407</ele>
        <time>2015-03-22T09:26:15.000Z</time>
      </trkpt>
      <trkpt lat="47.5072" lon="6.66387">
        <ele>408</ele>
        <time>2015-03-22T09:26:16.000Z</time>
      </trkpt>
      <trkpt lat="47.50723" lon="6.66385">
        <ele>408</ele>
        <time>2015-03-22T09:26:17.000Z</time>
      </trkpt>
      <trkpt lat="47.50726" lon="6.66383">
        <ele>408</ele>
        <time>2015-03-22T09:26:18.000Z</time>
      </trkpt>
      <trkpt lat="47.50728" lon="6.66381">
        <ele>408</ele>
        <time>2015-03-22T09:26:19.000Z</time>
      </trkpt>
      <trkpt lat="47.5073" lon="6.66379">
        <ele>408</ele>
        <time>2015-03-22T09:26:20.000Z</time>
      </trkpt>
      <trkpt lat="47.50733" lon="6.66377">
        <ele>408</ele>
        <time>2015-03-22T09:26:21.000Z</time>
      </trkpt>
      <trkpt lat="47.50735" lon="6.66376">
        <ele>408</ele>
        <time>2015-03-22T09:26:22.000Z</time>
      </trkpt>
      <trkpt lat="47.50736" lon="6.66374">
        <ele>409</ele>
        <time>2015-03-22T09:26:23.000Z</time>
      </trkpt>
      <trkpt lat="47.50738" lon="6.66372">
        <ele>409</ele>
        <time>2015-03-22T09:26:24.000Z</time>
      </trkpt>
      <trkpt lat="47.5074" lon="6.6637">
        <ele>409</ele>
        <time>2015-03-22T09:26:25.000Z</time>
      </trkpt>
      <trkpt lat="47.50742" lon="6.66368">
        <ele>409</ele>
        <time>2015-03-22T09:26:26.000Z</time>
      </trkpt>
      <trkpt lat="47.50746" lon="6.66366">
        <ele>409</ele>
        <time>2015-03-22T09:26:27.000Z</time>
      </trkpt>
      <trkpt lat="47.50749" lon="6.66364">
        <ele>410</ele>
        <time>2015-03-22T09:26:29.000Z</time>
      </trkpt>
      <trkpt lat="47.5075" lon="6.66363">
        <ele>408</ele>
        <time>2015-03-22T09:26:30.000Z</time>
      </trkpt>
      <trkpt lat="47.50752" lon="6.6636">
        <ele>409</ele>
        <time>2015-03-22T09:26:32.000Z</time>
      </trkpt>
      <trkpt lat="47.50754" lon="6.66359">
        <ele>409</ele>
        <time>2015-03-22T09:26:33.000Z</time>
      </trkpt>
      <trkpt lat="47.50758" lon="6.66356">
        <ele>409</ele>
        <time>2015-03-22T09:26:35.000Z</time>
      </trkpt>
      <trkpt lat="47.50759" lon="6.66355">
        <ele>409</ele>
        <time>2015-03-22T09:26:36.000Z</time>
      </trkpt>
      <trkpt lat="47.50763" lon="6.66352">
        <ele>409</ele>
        <time>2015-03-22T09:26:38.000Z</time>
      </trkpt>
      <trkpt lat="47.50764" lon="6.66351">
        <ele>409</ele>
        <time>2015-03-22T09:26:39.000Z</time>
      </trkpt>
      <trkpt lat="47.50764" lon="6.66344">
        <ele>410</ele>
        <time>2015-03-22T09:26:47.000Z</time>
      </trkpt>
      <trkpt lat="47.50767" lon="6.66344">
        <ele>410</ele>
        <time>2015-03-22T09:26:48.000Z</time>
      </trkpt>
      <trkpt lat="47.50769" lon="6.66343">
        <ele>410</ele>
        <time>2015-03-22T09:26:49.000Z</time>
      </trkpt>
      <trkpt lat="47.50772" lon="6.66342">
        <ele>409</ele>
        <time>2015-03-22T09:26:50.000Z</time>
      </trkpt>
      <trkpt lat="47.50775" lon="6.66342">
        <ele>409</ele>
        <time>2015-03-22T09:26:51.000Z</time>
      </trkpt>
      <trkpt lat="47.50778" lon="6.6634">
        <ele>409</ele>
        <time>2015-03-22T09:26:52.000Z</time>
      </trkpt>
      <trkpt lat="47.50781" lon="6.66339">
        <ele>409</ele>
        <time>2015-03-22T09:26:53.000Z</time>
      </trkpt>
      <trkpt lat="47.50784" lon="6.66339">
        <ele>409</ele>
        <time>2015-03-22T09:26:54.000Z</time>
      </trkpt>
      <trkpt lat="47.50787" lon="6.66338">
        <ele>408</ele>
        <time>2015-03-22T09:26:56.000Z</time>
      </trkpt>
      <trkpt lat="47.50788" lon="6.66337">
        <ele>408</ele>
        <time>2015-03-22T09:26:57.000Z</time>
      </trkpt>
      <trkpt lat="47.5079" lon="6.66336">
        <ele>408</ele>
        <time>2015-03-22T09:26:59.000Z</time>
      </trkpt>
      <trkpt lat="47.50792" lon="6.66334">
        <ele>408</ele>
        <time>2015-03-22T09:27:00.000Z</time>
      </trkpt>
      <trkpt lat="47.50794" lon="6.66333">
        <ele>413</ele>
        <time>2015-03-22T09:27:01.000Z</time>
      </trkpt>
      <trkpt lat="47.50798" lon="6.66331">
        <ele>413</ele>
        <time>2015-03-22T09:27:02.000Z</time>
      </trkpt>
      <trkpt lat="47.50801" lon="6.66329">
        <ele>413</ele>
        <time>2015-03-22T09:27:05.000Z</time>
      </trkpt>
      <trkpt lat="47.50802" lon="6.66328">
        <ele>413</ele>
        <time>2015-03-22T09:27:06.000Z</time>
      </trkpt>
      <trkpt lat="47.50805" lon="6.66324">
        <ele>413</ele>
        <time>2015-03-22T09:27:08.000Z</time>
      </trkpt>
      <trkpt lat="47.50807" lon="6.66322">
        <ele>413</ele>
        <time>2015-03-22T09:27:09.000Z</time>
      </trkpt>
      <trkpt lat="47.50809" lon="6.6632">
        <ele>413</ele>
        <time>2015-03-22T09:27:10.000Z</time>
      </trkpt>
      <trkpt lat="47.50811" lon="6.66317">
        <ele>413</ele>
        <time>2015-03-22T09:27:11.000Z</time>
      </trkpt>
      <trkpt lat="47.50812" lon="6.66315">
        <ele>413</ele>
        <time>2015-03-22T09:27:12.000Z</time>
      </trkpt>
      <trkpt lat="47.50814" lon="6.66312">
        <ele>413</ele>
        <time>2015-03-22T09:27:13.000Z</time>
      </trkpt>
      <trkpt lat="47.50816" lon="6.6631">
        <ele>413</ele>
        <time>2015-03-22T09:27:14.000Z</time>
      </trkpt>
      <trkpt lat="47.50818" lon="6.66307">
        <ele>413</ele>
        <time>2015-03-22T09:27:15.000Z</time>
      </trkpt>
      <trkpt lat="47.5082" lon="6.66305">
        <ele>413</ele>
        <time>2015-03-22T09:27:16.000Z</time>
      </trkpt>
      <trkpt lat="47.50822" lon="6.66303">
        <ele>413</ele>
        <time>2015-03-22T09:27:17.000Z</time>
      </trkpt>
      <trkpt lat="47.50825" lon="6.663">
        <ele>413</ele>
        <time>2015-03-22T09:27:19.000Z</time>
      </trkpt>
      <trkpt lat="47.50825" lon="6.66299">
        <ele>413</ele>
        <time>2015-03-22T09:27:20.000Z</time>
      </trkpt>
      <trkpt lat="47.50828" lon="6.66296">
        <ele>413</ele>
        <time>2015-03-22T09:27:22.000Z</time>
      </trkpt>
      <trkpt lat="47.50829" lon="6.66294">
        <ele>413</ele>
        <time>2015-03-22T09:27:23.000Z</time>
      </trkpt>
      <trkpt lat="47.50831" lon="6.66292">
        <ele>413</ele>
        <time>2015-03-22T09:27:24.000Z</time>
      </trkpt>
      <trkpt lat="47.50833" lon="6.6629">
        <ele>413</ele>
        <time>2015-03-22T09:27:25.000Z</time>
      </trkpt>
      <trkpt lat="47.50835" lon="6.66288">
        <ele>414</ele>
        <time>2015-03-22T09:27:26.000Z</time>
      </trkpt>
      <trkpt lat="47.50837" lon="6.66286">
        <ele>414</ele>
        <time>2015-03-22T09:27:27.000Z</time>
      </trkpt>
      <trkpt lat="47.5084" lon="6.66283">
        <ele>414</ele>
        <time>2015-03-22T09:27:28.000Z</time>
      </trkpt>
      <trkpt lat="47.50842" lon="6.66281">
        <ele>415</ele>
        <time>2015-03-22T09:27:29.000Z</time>
      </trkpt>
      <trkpt lat="47.50844" lon="6.66276">
        <ele>415</ele>
        <time>2015-03-22T09:27:31.000Z</time>
      </trkpt>
      <trkpt lat="47.50844" lon="6.66273">
        <ele>415</ele>
        <time>2015-03-22T09:27:32.000Z</time>
      </trkpt>
      <trkpt lat="47.50843" lon="6.66268">
        <ele>415</ele>
        <time>2015-03-22T09:27:34.000Z</time>
      </trkpt>
      <trkpt lat="47.50844" lon="6.66266">
        <ele>415</ele>
        <time>2015-03-22T09:27:35.000Z</time>
      </trkpt>
      <trkpt lat="47.50847" lon="6.66261">
        <ele>415</ele>
        <time>2015-03-22T09:27:44.000Z</time>
      </trkpt>
      <trkpt lat="47.50847" lon="6.66259">
        <ele>416</ele>
        <time>2015-03-22T09:27:45.000Z</time>
      </trkpt>
      <trkpt lat="47.50849" lon="6.66256">
        <ele>416</ele>
        <time>2015-03-22T09:27:46.000Z</time>
      </trkpt>
      <trkpt lat="47.50851" lon="6.66252">
        <ele>416</ele>
        <time>2015-03-22T09:27:47.000Z</time>
      </trkpt>
      <trkpt lat="47.50853" lon="6.66248">
        <ele>420</ele>
        <time>2015-03-22T09:27:48.000Z</time>
      </trkpt>
      <trkpt lat="47.50855" lon="6.66244">
        <ele>420</ele>
        <time>2015-03-22T09:27:49.000Z</time>
      </trkpt>
      <trkpt lat="47.50857" lon="6.66241">
        <ele>420</ele>
        <time>2015-03-22T09:27:50.000Z</time>
      </trkpt>
      <trkpt lat="47.50859" lon="6.66239">
        <ele>421</ele>
        <time>2015-03-22T09:27:51.000Z</time>
      </trkpt>
      <trkpt lat="47.50862" lon="6.66238">
        <ele>421</ele>
        <time>2015-03-22T09:27:52.000Z</time>
      </trkpt>
      <trkpt lat="47.50866" lon="6.66236">
        <ele>421</ele>
        <time>2015-03-22T09:27:53.000Z</time>
      </trkpt>
      <trkpt lat="47.5087" lon="6.66234">
        <ele>422</ele>
        <time>2015-03-22T09:27:54.000Z</time>
      </trkpt>
      <trkpt lat="47.50874" lon="6.66231">
        <ele>422</ele>
        <time>2015-03-22T09:27:55.000Z</time>
      </trkpt>
      <trkpt lat="47.50878" lon="6.66229">
        <ele>422</ele>
        <time>2015-03-22T09:27:56.000Z</time>
      </trkpt>
      <trkpt lat="47.50882" lon="6.66226">
        <ele>423</ele>
        <time>2015-03-22T09:27:57.000Z</time>
      </trkpt>
      <trkpt lat="47.50886" lon="6.66224">
        <ele>423</ele>
        <time>2015-03-22T09:27:58.000Z</time>
      </trkpt>
      <trkpt lat="47.50889" lon="6.66223">
        <ele>423</ele>
        <time>2015-03-22T09:27:59.000Z</time>
      </trkpt>
      <trkpt lat="47.50892" lon="6.66221">
        <ele>423</ele>
        <time>2015-03-22T09:28:00.000Z</time>
      </trkpt>
      <trkpt lat="47.50895" lon="6.66221">
        <ele>424</ele>
        <time>2015-03-22T09:28:01.000Z</time>
      </trkpt>
      <trkpt lat="47.50897" lon="6.6622">
        <ele>424</ele>
        <time>2015-03-22T09:28:02.000Z</time>
      </trkpt>
      <trkpt lat="47.509" lon="6.6622">
        <ele>424</ele>
        <time>2015-03-22T09:28:04.000Z</time>
      </trkpt>
      <trkpt lat="47.50902" lon="6.66219">
        <ele>424</ele>
        <time>2015-03-22T09:28:05.000Z</time>
      </trkpt>
      <trkpt lat="47.50905" lon="6.66215">
        <ele>424</ele>
        <time>2015-03-22T09:28:08.000Z</time>
      </trkpt>
      <trkpt lat="47.50907" lon="6.66213">
        <ele>424</ele>
        <time>2015-03-22T09:28:09.000Z</time>
      </trkpt>
      <trkpt lat="47.5091" lon="6.66211">
        <ele>424</ele>
        <time>2015-03-22T09:28:10.000Z</time>
      </trkpt>
      <trkpt lat="47.50912" lon="6.6621">
        <ele>425</ele>
        <time>2015-03-22T09:28:11.000Z</time>
      </trkpt>
      <trkpt lat="47.50913" lon="6.66209">
        <ele>425</ele>
        <time>2015-03-22T09:28:12.001Z</time>
      </trkpt>
      <trkpt lat="47.50917" lon="6.66209">
        <ele>427</ele>
        <time>2015-03-22T09:28:13.000Z</time>
      </trkpt>
      <trkpt lat="47.50921" lon="6.6621">
        <ele>427</ele>
        <time>2015-03-22T09:28:15.000Z</time>
      </trkpt>
      <trkpt lat="47.50923" lon="6.6621">
        <ele>427</ele>
        <time>2015-03-22T09:28:16.000Z</time>
      </trkpt>
      <trkpt lat="47.50927" lon="6.66209">
        <ele>427</ele>
        <time>2015-03-22T09:28:18.000Z</time>
      </trkpt>
      <trkpt lat="47.50929" lon="6.66209">
        <ele>427</ele>
        <time>2015-03-22T09:28:19.000Z</time>
      </trkpt>
      <trkpt lat="47.50932" lon="6.66208">
        <ele>427</ele>
        <time>2015-03-22T09:28:21.000Z</time>
      </trkpt>
      <trkpt lat="47.50934" lon="6.66207">
        <ele>427</ele>
        <time>2015-03-22T09:28:22.000Z</time>
      </trkpt>
      <trkpt lat="47.50937" lon="6.66207">
        <ele>427</ele>
        <time>2015-03-22T09:28:24.000Z</time>
      </trkpt>
      <trkpt lat="47.50939" lon="6.66206">
        <ele>427</ele>
        <time>2015-03-22T09:28:25.000Z</time>
      </trkpt>
      <trkpt lat="47.50942" lon="6.66206">
        <ele>427</ele>
        <time>2015-03-22T09:28:26.000Z</time>
      </trkpt>
      <trkpt lat="47.50945" lon="6.66206">
        <ele>427</ele>
        <time>2015-03-22T09:28:27.000Z</time>
      </trkpt>
      <trkpt lat="47.50948" lon="6.66205">
        <ele>427</ele>
        <time>2015-03-22T09:28:28.000Z</time>
      </trkpt>
      <trkpt lat="47.50951" lon="6.66204">
        <ele>427</ele>
        <time>2015-03-22T09:28:29.000Z</time>
      </trkpt>
      <trkpt lat="47.50953" lon="6.66203">
        <ele>427</ele>
        <time>2015-03-22T09:28:30.000Z</time>
      </trkpt>
      <trkpt lat="47.50955" lon="6.66202">
        <ele>427</ele>
        <time>2015-03-22T09:28:31.000Z</time>
      </trkpt>
      <trkpt lat="47.50958" lon="6.66201">
        <ele>427</ele>
        <time>2015-03-22T09:28:32.000Z</time>
      </trkpt>
      <trkpt lat="47.50961" lon="6.662">
        <ele>427</ele>
        <time>2015-03-22T09:28:33.000Z</time>
      </trkpt>
      <trkpt lat="47.50964" lon="6.66198">
        <ele>427</ele>
        <time>2015-03-22T09:28:39.000Z</time>
      </trkpt>
      <trkpt lat="47.50965" lon="6.66198">
        <ele>427</ele>
        <time>2015-03-22T09:28:40.000Z</time>
      </trkpt>
      <trkpt lat="47.50968" lon="6.66198">
        <ele>427</ele>
        <time>2015-03-22T09:28:42.000Z</time>
      </trkpt>
      <trkpt lat="47.5097" lon="6.66197">
        <ele>427</ele>
        <time>2015-03-22T09:28:43.000Z</time>
      </trkpt>
      <trkpt lat="47.50972" lon="6.66195">
        <ele>427</ele>
        <time>2015-03-22T09:28:44.000Z</time>
      </trkpt>
      <trkpt lat="47.50975" lon="6.66193">
        <ele>428</ele>
        <time>2015-03-22T09:28:45.000Z</time>
      </trkpt>
      <trkpt lat="47.50977" lon="6.6619">
        <ele>428</ele>
        <time>2015-03-22T09:28:46.000Z</time>
      </trkpt>
      <trkpt lat="47.5098" lon="6.66187">
        <ele>428</ele>
        <time>2015-03-22T09:28:47.000Z</time>
      </trkpt>
      <trkpt lat="47.50982" lon="6.66184">
        <ele>429</ele>
        <time>2015-03-22T09:28:48.000Z</time>
      </trkpt>
      <trkpt lat="47.50983" lon="6.6618">
        <ele>429</ele>
        <time>2015-03-22T09:28:49.000Z</time>
      </trkpt>
      <trkpt lat="47.50985" lon="6.66177">
        <ele>430</ele>
        <time>2015-03-22T09:28:50.000Z</time>
      </trkpt>
      <trkpt lat="47.50987" lon="6.66173">
        <ele>430</ele>
        <time>2015-03-22T09:28:51.000Z</time>
      </trkpt>
      <trkpt lat="47.50989" lon="6.66168">
        <ele>431</ele>
        <time>2015-03-22T09:28:53.000Z</time>
      </trkpt>
      <trkpt lat="47.50989" lon="6.66165">
        <ele>434</ele>
        <time>2015-03-22T09:28:54.000Z</time>
      </trkpt>
      <trkpt lat="47.5099" lon="6.66159">
        <ele>434</ele>
        <time>2015-03-22T09:28:56.000Z</time>
      </trkpt>
      <trkpt lat="47.50991" lon="6.66155">
        <ele>434</ele>
        <time>2015-03-22T09:28:57.000Z</time>
      </trkpt>
      <trkpt lat="47.50992" lon="6.66152">
        <ele>434</ele>
        <time>2015-03-22T09:28:58.000Z</time>
      </trkpt>
      <trkpt lat="47.50993" lon="6.66149">
        <ele>435</ele>
        <time>2015-03-22T09:28:59.000Z</time>
      </trkpt>
      <trkpt lat="47.50995" lon="6.66146">
        <ele>435</ele>
        <time>2015-03-22T09:29:00.000Z</time>
      </trkpt>
      <trkpt lat="47.50997" lon="6.66144">
        <ele>435</ele>
        <time>2015-03-22T09:29:01.000Z</time>
      </trkpt>
      <trkpt lat="47.50999" lon="6.66141">
        <ele>435</ele>
        <time>2015-03-22T09:29:02.000Z</time>
      </trkpt>
      <trkpt lat="47.51001" lon="6.66139">
        <ele>433</ele>
        <time>2015-03-22T09:29:03.000Z</time>
      </trkpt>
      <trkpt lat="47.51003" lon="6.66135">
        <ele>433</ele>
        <time>2015-03-22T09:29:05.000Z</time>
      </trkpt>
      <trkpt lat="47.51003" lon="6.66134">
        <ele>433</ele>
        <time>2015-03-22T09:29:06.000Z</time>
      </trkpt>
      <trkpt lat="47.51005" lon="6.66131">
        <ele>433</ele>
        <time>2015-03-22T09:29:09.002Z</time>
      </trkpt>
      <trkpt lat="47.51006" lon="6.66128">
        <ele>433</ele>
        <time>2015-03-22T09:29:10.000Z</time>
      </trkpt>
      <trkpt lat="47.51008" lon="6.66123">
        <ele>434</ele>
        <time>2015-03-22T09:29:16.000Z</time>
      </trkpt>
      <trkpt lat="47.51009" lon="6.66122">
        <ele>434</ele>
        <time>2015-03-22T09:29:17.000Z</time>
      </trkpt>
      <trkpt lat="47.51009" lon="6.66115">
        <ele>434</ele>
        <time>2015-03-22T09:32:39.000Z</time>
      </trkpt>
      <trkpt lat="47.51009" lon="6.66115">
        <ele>434</ele>
        <time>2015-03-22T09:32:40.000Z</time>
      </trkpt>
      <trkpt lat="47.51008" lon="6.66109">
        <ele>435</ele>
        <time>2015-03-22T09:32:50.000Z</time>
      </trkpt>
      <trkpt lat="47.51007" lon="6.66108">
        <ele>435</ele>
        <time>2015-03-22T09:32:51.000Z</time>
      </trkpt>
      <trkpt lat="47.51004" lon="6.66106">
        <ele>435</ele>
        <time>2015-03-22T09:32:53.000Z</time>
      </trkpt>
      <trkpt lat="47.51003" lon="6.66104">
        <ele>436</ele>
        <time>2015-03-22T09:32:54.000Z</time>
      </trkpt>
      <trkpt lat="47.51" lon="6.66101">
        <ele>437</ele>
        <time>2015-03-22T09:32:56.000Z</time>
      </trkpt>
      <trkpt lat="47.50999" lon="6.66099">
        <ele>438</ele>
        <time>2015-03-22T09:32:57.000Z</time>
      </trkpt>
      <trkpt lat="47.50997" lon="6.66096">
        <ele>438</ele>
        <time>2015-03-22T09:32:58.000Z</time>
      </trkpt>
      <trkpt lat="47.51003" lon="6.66086">
        <ele>439</ele>
        <time>2015-03-22T09:32:59.000Z</time>
      </trkpt>
      <trkpt lat="47.51005" lon="6.66082">
        <ele>439</ele>
        <time>2015-03-22T09:33:00.000Z</time>
      </trkpt>
      <trkpt lat="47.51008" lon="6.66076">
        <ele>439</ele>
        <time>2015-03-22T09:33:01.000Z</time>
      </trkpt>
      <trkpt lat="47.51008" lon="6.66071">
        <ele>439</ele>
        <time>2015-03-22T09:33:02.000Z</time>
      </trkpt>
      <trkpt lat="47.5101" lon="6.66068">
        <ele>438</ele>
        <time>2015-03-22T09:33:03.000Z</time>
      </trkpt>
      <trkpt lat="47.51011" lon="6.66061">
        <ele>438</ele>
        <time>2015-03-22T09:33:04.000Z</time>
      </trkpt>
      <trkpt lat="47.51012" lon="6.66055">
        <ele>438</ele>
        <time>2015-03-22T09:33:05.000Z</time>
      </trkpt>
      <trkpt lat="47.51015" lon="6.66052">
        <ele>438</ele>
        <time>2015-03-22T09:33:06.000Z</time>
      </trkpt>
      <trkpt lat="47.51015" lon="6.66047">
        <ele>438</ele>
        <time>2015-03-22T09:33:07.000Z</time>
      </trkpt>
      <trkpt lat="47.51012" lon="6.66036">
        <ele>438</ele>
        <time>2015-03-22T09:33:08.000Z</time>
      </trkpt>
      <trkpt lat="47.51014" lon="6.6603">
        <ele>438</ele>
        <time>2015-03-22T09:33:09.000Z</time>
      </trkpt>
      <trkpt lat="47.51015" lon="6.66028">
        <ele>438</ele>
        <time>2015-03-22T09:33:10.000Z</time>
      </trkpt>
      <trkpt lat="47.51016" lon="6.66025">
        <ele>438</ele>
        <time>2015-03-22T09:33:11.000Z</time>
      </trkpt>
      <trkpt lat="47.51018" lon="6.6602">
        <ele>438</ele>
        <time>2015-03-22T09:33:12.000Z</time>
      </trkpt>
      <trkpt lat="47.51019" lon="6.66015">
        <ele>438</ele>
        <time>2015-03-22T09:33:13.000Z</time>
      </trkpt>
      <trkpt lat="47.51021" lon="6.66009">
        <ele>438</ele>
        <time>2015-03-22T09:33:14.000Z</time>
      </trkpt>
      <trkpt lat="47.51022" lon="6.66003">
        <ele>438</ele>
        <time>2015-03-22T09:33:15.000Z</time>
      </trkpt>
      <trkpt lat="47.51022" lon="6.65998">
        <ele>439</ele>
        <time>2015-03-22T09:33:16.000Z</time>
      </trkpt>
      <trkpt lat="47.51022" lon="6.65993">
        <ele>439</ele>
        <time>2015-03-22T09:33:17.000Z</time>
      </trkpt>
      <trkpt lat="47.51023" lon="6.65988">
        <ele>439</ele>
        <time>2015-03-22T09:33:18.000Z</time>
      </trkpt>
      <trkpt lat="47.51023" lon="6.65983">
        <ele>439</ele>
        <time>2015-03-22T09:33:19.000Z</time>
      </trkpt>
      <trkpt lat="47.51023" lon="6.65978">
        <ele>438</ele>
        <time>2015-03-22T09:33:20.000Z</time>
      </trkpt>
      <trkpt lat="47.51024" lon="6.65973">
        <ele>438</ele>
        <time>2015-03-22T09:33:21.000Z</time>
      </trkpt>
      <trkpt lat="47.51025" lon="6.65968">
        <ele>438</ele>
        <time>2015-03-22T09:33:22.000Z</time>
      </trkpt>
      <trkpt lat="47.51026" lon="6.65963">
        <ele>438</ele>
        <time>2015-03-22T09:33:23.000Z</time>
      </trkpt>
      <trkpt lat="47.51027" lon="6.65957">
        <ele>438</ele>
        <time>2015-03-22T09:33:24.000Z</time>
      </trkpt>
      <trkpt lat="47.51029" lon="6.65952">
        <ele>438</ele>
        <time>2015-03-22T09:33:25.000Z</time>
      </trkpt>
      <trkpt lat="47.51031" lon="6.65947">
        <ele>438</ele>
        <time>2015-03-22T09:33:26.000Z</time>
      </trkpt>
      <trkpt lat="47.51032" lon="6.65943">
        <ele>438</ele>
        <time>2015-03-22T09:33:27.001Z</time>
      </trkpt>
      <trkpt lat="47.51036" lon="6.65935">
        <ele>438</ele>
        <time>2015-03-22T09:33:28.000Z</time>
      </trkpt>
      <trkpt lat="47.51038" lon="6.65929">
        <ele>438</ele>
        <time>2015-03-22T09:33:29.000Z</time>
      </trkpt>
      <trkpt lat="47.51039" lon="6.65924">
        <ele>438</ele>
        <time>2015-03-22T09:33:30.000Z</time>
      </trkpt>
      <trkpt lat="47.51041" lon="6.65919">
        <ele>438</ele>
        <time>2015-03-22T09:33:31.000Z</time>
      </trkpt>
      <trkpt lat="47.51042" lon="6.65915">
        <ele>439</ele>
        <time>2015-03-22T09:33:32.000Z</time>
      </trkpt>
      <trkpt lat="47.51044" lon="6.65912">
        <ele>439</ele>
        <time>2015-03-22T09:33:33.000Z</time>
      </trkpt>
      <trkpt lat="47.51047" lon="6.65909">
        <ele>439</ele>
        <time>2015-03-22T09:33:34.000Z</time>
      </trkpt>
      <trkpt lat="47.51049" lon="6.65907">
        <ele>439</ele>
        <time>2015-03-22T09:33:35.000Z</time>
      </trkpt>
      <trkpt lat="47.51051" lon="6.65904">
        <ele>439</ele>
        <time>2015-03-22T09:33:36.000Z</time>
      </trkpt>
      <trkpt lat="47.51053" lon="6.65901">
        <ele>439</ele>
        <time>2015-03-22T09:33:37.000Z</time>
      </trkpt>
      <trkpt lat="47.51054" lon="6.65898">
        <ele>439</ele>
        <time>2015-03-22T09:33:38.000Z</time>
      </trkpt>
      <trkpt lat="47.51056" lon="6.65895">
        <ele>439</ele>
        <time>2015-03-22T09:33:39.000Z</time>
      </trkpt>
      <trkpt lat="47.51058" lon="6.65891">
        <ele>439</ele>
        <time>2015-03-22T09:33:40.000Z</time>
      </trkpt>
      <trkpt lat="47.51059" lon="6.65888">
        <ele>439</ele>
        <time>2015-03-22T09:33:41.000Z</time>
      </trkpt>
      <trkpt lat="47.51061" lon="6.65884">
        <ele>439</ele>
        <time>2015-03-22T09:33:42.000Z</time>
      </trkpt>
      <trkpt lat="47.51063" lon="6.65881">
        <ele>439</ele>
        <time>2015-03-22T09:33:43.000Z</time>
      </trkpt>
      <trkpt lat="47.51065" lon="6.65876">
        <ele>439</ele>
        <time>2015-03-22T09:33:44.000Z</time>
      </trkpt>
      <trkpt lat="47.51067" lon="6.65872">
        <ele>439</ele>
        <time>2015-03-22T09:33:45.000Z</time>
      </trkpt>
      <trkpt lat="47.51068" lon="6.65868">
        <ele>440</ele>
        <time>2015-03-22T09:33:46.000Z</time>
      </trkpt>
      <trkpt lat="47.51069" lon="6.65864">
        <ele>440</ele>
        <time>2015-03-22T09:33:47.000Z</time>
      </trkpt>
      <trkpt lat="47.51069" lon="6.6586">
        <ele>440</ele>
        <time>2015-03-22T09:33:48.000Z</time>
      </trkpt>
      <trkpt lat="47.5107" lon="6.65856">
        <ele>440</ele>
        <time>2015-03-22T09:33:49.000Z</time>
      </trkpt>
      <trkpt lat="47.51072" lon="6.65851">
        <ele>440</ele>
        <time>2015-03-22T09:33:50.000Z</time>
      </trkpt>
      <trkpt lat="47.51073" lon="6.65846">
        <ele>440</ele>
        <time>2015-03-22T09:33:51.000Z</time>
      </trkpt>
      <trkpt lat="47.51075" lon="6.65841">
        <ele>440</ele>
        <time>2015-03-22T09:33:52.000Z</time>
      </trkpt>
      <trkpt lat="47.51076" lon="6.65836">
        <ele>441</ele>
        <time>2015-03-22T09:33:53.000Z</time>
      </trkpt>
      <trkpt lat="47.51078" lon="6.65832">
        <ele>441</ele>
        <time>2015-03-22T09:33:54.000Z</time>
      </trkpt>
      <trkpt lat="47.5108" lon="6.65827">
        <ele>441</ele>
        <time>2015-03-22T09:33:55.000Z</time>
      </trkpt>
      <trkpt lat="47.51081" lon="6.65823">
        <ele>440</ele>
        <time>2015-03-22T09:33:56.000Z</time>
      </trkpt>
      <trkpt lat="47.51083" lon="6.65818">
        <ele>440</ele>
        <time>2015-03-22T09:33:57.000Z</time>
      </trkpt>
      <trkpt lat="47.51085" lon="6.65812">
        <ele>435</ele>
        <time>2015-03-22T09:33:58.000Z</time>
      </trkpt>
      <trkpt lat="47.51086" lon="6.65807">
        <ele>434</ele>
        <time>2015-03-22T09:33:59.000Z</time>
      </trkpt>
      <trkpt lat="47.51087" lon="6.65803">
        <ele>434</ele>
        <time>2015-03-22T09:33:59.999Z</time>
      </trkpt>
      <trkpt lat="47.51089" lon="6.65795">
        <ele>433</ele>
        <time>2015-03-22T09:34:01.000Z</time>
      </trkpt>
      <trkpt lat="47.5109" lon="6.65788">
        <ele>433</ele>
        <time>2015-03-22T09:34:02.000Z</time>
      </trkpt>
      <trkpt lat="47.51091" lon="6.65781">
        <ele>433</ele>
        <time>2015-03-22T09:34:03.000Z</time>
      </trkpt>
      <trkpt lat="47.51092" lon="6.65774">
        <ele>434</ele>
        <time>2015-03-22T09:34:04.000Z</time>
      </trkpt>
      <trkpt lat="47.51092" lon="6.65766">
        <ele>434</ele>
        <time>2015-03-22T09:34:05.000Z</time>
      </trkpt>
      <trkpt lat="47.51093" lon="6.6576">
        <ele>435</ele>
        <time>2015-03-22T09:34:06.000Z</time>
      </trkpt>
      <trkpt lat="47.51094" lon="6.65753">
        <ele>436</ele>
        <time>2015-03-22T09:34:07.000Z</time>
      </trkpt>
      <trkpt lat="47.51095" lon="6.65748">
        <ele>436</ele>
        <time>2015-03-22T09:34:08.000Z</time>
      </trkpt>
      <trkpt lat="47.51095" lon="6.65742">
        <ele>435</ele>
        <time>2015-03-22T09:34:09.000Z</time>
      </trkpt>
      <trkpt lat="47.51096" lon="6.65736">
        <ele>434</ele>
        <time>2015-03-22T09:34:10.000Z</time>
      </trkpt>
      <trkpt lat="47.51092" lon="6.65719">
        <ele>433</ele>
        <time>2015-03-22T09:34:11.000Z</time>
      </trkpt>
      <trkpt lat="47.51092" lon="6.65713">
        <ele>433</ele>
        <time>2015-03-22T09:34:12.000Z</time>
      </trkpt>
      <trkpt lat="47.51093" lon="6.65705">
        <ele>432</ele>
        <time>2015-03-22T09:34:13.000Z</time>
      </trkpt>
      <trkpt lat="47.51093" lon="6.65699">
        <ele>432</ele>
        <time>2015-03-22T09:34:14.000Z</time>
      </trkpt>
      <trkpt lat="47.51094" lon="6.65693">
        <ele>432</ele>
        <time>2015-03-22T09:34:15.000Z</time>
      </trkpt>
      <trkpt lat="47.51094" lon="6.65687">
        <ele>433</ele>
        <time>2015-03-22T09:34:16.000Z</time>
      </trkpt>
      <trkpt lat="47.51095" lon="6.65679">
        <ele>433</ele>
        <time>2015-03-22T09:34:17.000Z</time>
      </trkpt>
      <trkpt lat="47.51094" lon="6.65668">
        <ele>434</ele>
        <time>2015-03-22T09:34:18.000Z</time>
      </trkpt>
      <trkpt lat="47.51096" lon="6.65659">
        <ele>432</ele>
        <time>2015-03-22T09:34:19.000Z</time>
      </trkpt>
      <trkpt lat="47.51097" lon="6.65655">
        <ele>432</ele>
        <time>2015-03-22T09:34:20.000Z</time>
      </trkpt>
      <trkpt lat="47.51103" lon="6.65641">
        <ele>430</ele>
        <time>2015-03-22T09:34:21.000Z</time>
      </trkpt>
      <trkpt lat="47.51106" lon="6.65629">
        <ele>429</ele>
        <time>2015-03-22T09:34:22.000Z</time>
      </trkpt>
      <trkpt lat="47.51109" lon="6.6562">
        <ele>429</ele>
        <time>2015-03-22T09:34:23.000Z</time>
      </trkpt>
      <trkpt lat="47.51112" lon="6.65609">
        <ele>429</ele>
        <time>2015-03-22T09:34:24.000Z</time>
      </trkpt>
      <trkpt lat="47.51114" lon="6.656">
        <ele>429</ele>
        <time>2015-03-22T09:34:25.000Z</time>
      </trkpt>
      <trkpt lat="47.51115" lon="6.65586">
        <ele>428</ele>
        <time>2015-03-22T09:34:26.000Z</time>
      </trkpt>
      <trkpt lat="47.51113" lon="6.65571">
        <ele>427</ele>
        <time>2015-03-22T09:34:27.000Z</time>
      </trkpt>
      <trkpt lat="47.51117" lon="6.65557">
        <ele>426</ele>
        <time>2015-03-22T09:34:28.000Z</time>
      </trkpt>
      <trkpt lat="47.51118" lon="6.65543">
        <ele>425</ele>
        <time>2015-03-22T09:34:29.000Z</time>
      </trkpt>
      <trkpt lat="47.51122" lon="6.6553">
        <ele>425</ele>
        <time>2015-03-22T09:34:30.000Z</time>
      </trkpt>
      <trkpt lat="47.51125" lon="6.65521">
        <ele>425</ele>
        <time>2015-03-22T09:34:31.001Z</time>
      </trkpt>
      <trkpt lat="47.51127" lon="6.6551">
        <ele>424</ele>
        <time>2015-03-22T09:34:32.000Z</time>
      </trkpt>
      <trkpt lat="47.51131" lon="6.65496">
        <ele>422</ele>
        <time>2015-03-22T09:34:33.000Z</time>
      </trkpt>
      <trkpt lat="47.51136" lon="6.65488">
        <ele>422</ele>
        <time>2015-03-22T09:34:34.000Z</time>
      </trkpt>
      <trkpt lat="47.5114" lon="6.65477">
        <ele>421</ele>
        <time>2015-03-22T09:34:35.000Z</time>
      </trkpt>
      <trkpt lat="47.51146" lon="6.65475">
        <ele>421</ele>
        <time>2015-03-22T09:34:36.000Z</time>
      </trkpt>
      <trkpt lat="47.51153" lon="6.65474">
        <ele>421</ele>
        <time>2015-03-22T09:34:37.000Z</time>
      </trkpt>
      <trkpt lat="47.5116" lon="6.65473">
        <ele>421</ele>
        <time>2015-03-22T09:34:38.000Z</time>
      </trkpt>
      <trkpt lat="47.51166" lon="6.65472">
        <ele>421</ele>
        <time>2015-03-22T09:34:39.000Z</time>
      </trkpt>
      <trkpt lat="47.51173" lon="6.65468">
        <ele>416</ele>
        <time>2015-03-22T09:34:40.000Z</time>
      </trkpt>
      <trkpt lat="47.51182" lon="6.65463">
        <ele>415</ele>
        <time>2015-03-22T09:34:41.000Z</time>
      </trkpt>
      <trkpt lat="47.5119" lon="6.65458">
        <ele>414</ele>
        <time>2015-03-22T09:34:42.000Z</time>
      </trkpt>
      <trkpt lat="47.51198" lon="6.65451">
        <ele>414</ele>
        <time>2015-03-22T09:34:43.000Z</time>
      </trkpt>
      <trkpt lat="47.51204" lon="6.65446">
        <ele>413</ele>
        <time>2015-03-22T09:34:44.000Z</time>
      </trkpt>
      <trkpt lat="47.51211" lon="6.65434">
        <ele>413</ele>
        <time>2015-03-22T09:34:45.000Z</time>
      </trkpt>
      <trkpt lat="47.51216" lon="6.65425">
        <ele>412</ele>
        <time>2015-03-22T09:34:46.000Z</time>
      </trkpt>
      <trkpt lat="47.51219" lon="6.65416">
        <ele>411</ele>
        <time>2015-03-22T09:34:47.000Z</time>
      </trkpt>
      <trkpt lat="47.51224" lon="6.65407">
        <ele>411</ele>
        <time>2015-03-22T09:34:48.000Z</time>
      </trkpt>
      <trkpt lat="47.51228" lon="6.65397">
        <ele>410</ele>
        <time>2015-03-22T09:34:49.000Z</time>
      </trkpt>
      <trkpt lat="47.51232" lon="6.65387">
        <ele>410</ele>
        <time>2015-03-22T09:34:50.000Z</time>
      </trkpt>
      <trkpt lat="47.51234" lon="6.65374">
        <ele>410</ele>
        <time>2015-03-22T09:34:51.000Z</time>
      </trkpt>
      <trkpt lat="47.51236" lon="6.65361">
        <ele>410</ele>
        <time>2015-03-22T09:34:52.000Z</time>
      </trkpt>
      <trkpt lat="47.51236" lon="6.65352">
        <ele>409</ele>
        <time>2015-03-22T09:34:53.000Z</time>
      </trkpt>
      <trkpt lat="47.51237" lon="6.65343">
        <ele>409</ele>
        <time>2015-03-22T09:34:54.000Z</time>
      </trkpt>
      <trkpt lat="47.51243" lon="6.65328">
        <ele>407</ele>
        <time>2015-03-22T09:34:55.000Z</time>
      </trkpt>
      <trkpt lat="47.51245" lon="6.65316">
        <ele>407</ele>
        <time>2015-03-22T09:34:56.000Z</time>
      </trkpt>
      <trkpt lat="47.51249" lon="6.65308">
        <ele>407</ele>
        <time>2015-03-22T09:34:57.001Z</time>
      </trkpt>
      <trkpt lat="47.51254" lon="6.65301">
        <ele>403</ele>
        <time>2015-03-22T09:34:58.000Z</time>
      </trkpt>
      <trkpt lat="47.51262" lon="6.65295">
        <ele>403</ele>
        <time>2015-03-22T09:34:59.000Z</time>
      </trkpt>
      <trkpt lat="47.51269" lon="6.65282">
        <ele>402</ele>
        <time>2015-03-22T09:35:00.000Z</time>
      </trkpt>
      <trkpt lat="47.51276" lon="6.65276">
        <ele>402</ele>
        <time>2015-03-22T09:35:01.000Z</time>
      </trkpt>
      <trkpt lat="47.51287" lon="6.65255">
        <ele>401</ele>
        <time>2015-03-22T09:35:03.000Z</time>
      </trkpt>
      <trkpt lat="47.51294" lon="6.65241">
        <ele>398</ele>
        <time>2015-03-22T09:35:04.000Z</time>
      </trkpt>
      <trkpt lat="47.51301" lon="6.6523">
        <ele>397</ele>
        <time>2015-03-22T09:35:04.999Z</time>
      </trkpt>
      <trkpt lat="47.51308" lon="6.65221">
        <ele>397</ele>
        <time>2015-03-22T09:35:06.000Z</time>
      </trkpt>
      <trkpt lat="47.51314" lon="6.65211">
        <ele>396</ele>
        <time>2015-03-22T09:35:07.001Z</time>
      </trkpt>
      <trkpt lat="47.51324" lon="6.65204">
        <ele>395</ele>
        <time>2015-03-22T09:35:08.000Z</time>
      </trkpt>
      <trkpt lat="47.51335" lon="6.65197">
        <ele>389</ele>
        <time>2015-03-22T09:35:09.000Z</time>
      </trkpt>
      <trkpt lat="47.51343" lon="6.65192">
        <ele>389</ele>
        <time>2015-03-22T09:35:10.000Z</time>
      </trkpt>
      <trkpt lat="47.51351" lon="6.65185">
        <ele>389</ele>
        <time>2015-03-22T09:35:11.000Z</time>
      </trkpt>
      <trkpt lat="47.51359" lon="6.65178">
        <ele>388</ele>
        <time>2015-03-22T09:35:12.000Z</time>
      </trkpt>
      <trkpt lat="47.51367" lon="6.65171">
        <ele>388</ele>
        <time>2015-03-22T09:35:13.000Z</time>
      </trkpt>
      <trkpt lat="47.51372" lon="6.65161">
        <ele>384</ele>
        <time>2015-03-22T09:35:14.000Z</time>
      </trkpt>
      <trkpt lat="47.51376" lon="6.65159">
        <ele>384</ele>
        <time>2015-03-22T09:35:15.000Z</time>
      </trkpt>
      <trkpt lat="47.51382" lon="6.65154">
        <ele>383</ele>
        <time>2015-03-22T09:35:16.000Z</time>
      </trkpt>
      <trkpt lat="47.51385" lon="6.6515">
        <ele>383</ele>
        <time>2015-03-22T09:35:17.000Z</time>
      </trkpt>
      <trkpt lat="47.51389" lon="6.65146">
        <ele>383</ele>
        <time>2015-03-22T09:35:18.000Z</time>
      </trkpt>
      <trkpt lat="47.51393" lon="6.65145">
        <ele>382</ele>
        <time>2015-03-22T09:35:19.000Z</time>
      </trkpt>
      <trkpt lat="47.51394" lon="6.65141">
        <ele>382</ele>
        <time>2015-03-22T09:35:20.000Z</time>
      </trkpt>
      <trkpt lat="47.51397" lon="6.6514">
        <ele>382</ele>
        <time>2015-03-22T09:35:21.000Z</time>
      </trkpt>
      <trkpt lat="47.514" lon="6.65135">
        <ele>382</ele>
        <time>2015-03-22T09:35:22.000Z</time>
      </trkpt>
      <trkpt lat="47.51404" lon="6.65133">
        <ele>382</ele>
        <time>2015-03-22T09:35:23.000Z</time>
      </trkpt>
      <trkpt lat="47.51409" lon="6.6513">
        <ele>381</ele>
        <time>2015-03-22T09:35:24.000Z</time>
      </trkpt>
      <trkpt lat="47.51414" lon="6.65128">
        <ele>381</ele>
        <time>2015-03-22T09:35:25.000Z</time>
      </trkpt>
      <trkpt lat="47.51418" lon="6.65126">
        <ele>374</ele>
        <time>2015-03-22T09:35:26.000Z</time>
      </trkpt>
      <trkpt lat="47.51429" lon="6.65128">
        <ele>373</ele>
        <time>2015-03-22T09:35:27.000Z</time>
      </trkpt>
      <trkpt lat="47.51432" lon="6.65129">
        <ele>373</ele>
        <time>2015-03-22T09:35:28.000Z</time>
      </trkpt>
      <trkpt lat="47.51435" lon="6.65128">
        <ele>373</ele>
        <time>2015-03-22T09:35:29.000Z</time>
      </trkpt>
      <trkpt lat="47.51438" lon="6.65123">
        <ele>373</ele>
        <time>2015-03-22T09:35:30.000Z</time>
      </trkpt>
      <trkpt lat="47.51437" lon="6.65117">
        <ele>373</ele>
        <time>2015-03-22T09:35:31.000Z</time>
      </trkpt>
      <trkpt lat="47.51433" lon="6.65115">
        <ele>373</ele>
        <time>2015-03-22T09:35:32.000Z</time>
      </trkpt>
      <trkpt lat="47.51431" lon="6.65113">
        <ele>373</ele>
        <time>2015-03-22T09:35:33.000Z</time>
      </trkpt>
      <trkpt lat="47.51427" lon="6.65111">
        <ele>373</ele>
        <time>2015-03-22T09:35:35.000Z</time>
      </trkpt>
      <trkpt lat="47.51427" lon="6.65109">
        <ele>373</ele>
        <time>2015-03-22T09:35:36.000Z</time>
      </trkpt>
      <trkpt lat="47.51425" lon="6.65105">
        <ele>373</ele>
        <time>2015-03-22T09:35:40.000Z</time>
      </trkpt>
      <trkpt lat="47.51424" lon="6.65104">
        <ele>373</ele>
        <time>2015-03-22T09:35:41.000Z</time>
      </trkpt>
      <trkpt lat="47.51421" lon="6.65101">
        <ele>374</ele>
        <time>2015-03-22T09:35:43.000Z</time>
      </trkpt>
      <trkpt lat="47.5142" lon="6.651">
        <ele>374</ele>
        <time>2015-03-22T09:35:44.000Z</time>
      </trkpt>
      <trkpt lat="47.51418" lon="6.65098">
        <ele>374</ele>
        <time>2015-03-22T09:35:45.000Z</time>
      </trkpt>
      <trkpt lat="47.51416" lon="6.65095">
        <ele>378</ele>
        <time>2015-03-22T09:35:46.000Z</time>
      </trkpt>
      <trkpt lat="47.51414" lon="6.65092">
        <ele>377</ele>
        <time>2015-03-22T09:35:47.000Z</time>
      </trkpt>
      <trkpt lat="47.51412" lon="6.65089">
        <ele>377</ele>
        <time>2015-03-22T09:35:48.000Z</time>
      </trkpt>
      <trkpt lat="47.5141" lon="6.65086">
        <ele>377</ele>
        <time>2015-03-22T09:35:49.000Z</time>
      </trkpt>
      <trkpt lat="47.51409" lon="6.65083">
        <ele>376</ele>
        <time>2015-03-22T09:35:50.000Z</time>
      </trkpt>
      <trkpt lat="47.51407" lon="6.6508">
        <ele>376</ele>
        <time>2015-03-22T09:35:51.000Z</time>
      </trkpt>
      <trkpt lat="47.51405" lon="6.65077">
        <ele>376</ele>
        <time>2015-03-22T09:35:52.000Z</time>
      </trkpt>
      <trkpt lat="47.51403" lon="6.65074">
        <ele>376</ele>
        <time>2015-03-22T09:35:53.000Z</time>
      </trkpt>
      <trkpt lat="47.51401" lon="6.65071">
        <ele>376</ele>
        <time>2015-03-22T09:35:54.000Z</time>
      </trkpt>
      <trkpt lat="47.51399" lon="6.65068">
        <ele>376</ele>
        <time>2015-03-22T09:35:55.000Z</time>
      </trkpt>
      <trkpt lat="47.51397" lon="6.65065">
        <ele>376</ele>
        <time>2015-03-22T09:35:56.000Z</time>
      </trkpt>
      <trkpt lat="47.51395" lon="6.65063">
        <ele>376</ele>
        <time>2015-03-22T09:35:57.000Z</time>
      </trkpt>
      <trkpt lat="47.51393" lon="6.65061">
        <ele>376</ele>
        <time>2015-03-22T09:35:58.000Z</time>
      </trkpt>
      <trkpt lat="47.5139" lon="6.65058">
        <ele>377</ele>
        <time>2015-03-22T09:35:59.000Z</time>
      </trkpt>
      <trkpt lat="47.51388" lon="6.65054">
        <ele>377</ele>
        <time>2015-03-22T09:36:00.000Z</time>
      </trkpt>
      <trkpt lat="47.51384" lon="6.6505">
        <ele>377</ele>
        <time>2015-03-22T09:36:01.000Z</time>
      </trkpt>
      <trkpt lat="47.51381" lon="6.65046">
        <ele>377</ele>
        <time>2015-03-22T09:36:02.000Z</time>
      </trkpt>
      <trkpt lat="47.51379" lon="6.65042">
        <ele>377</ele>
        <time>2015-03-22T09:36:03.000Z</time>
      </trkpt>
      <trkpt lat="47.51376" lon="6.65034">
        <ele>377</ele>
        <time>2015-03-22T09:36:04.000Z</time>
      </trkpt>
      <trkpt lat="47.51373" lon="6.65028">
        <ele>377</ele>
        <time>2015-03-22T09:36:05.000Z</time>
      </trkpt>
      <trkpt lat="47.51371" lon="6.65023">
        <ele>377</ele>
        <time>2015-03-22T09:36:06.000Z</time>
      </trkpt>
      <trkpt lat="47.51369" lon="6.65023">
        <ele>377</ele>
        <time>2015-03-22T09:36:07.000Z</time>
      </trkpt>
      <trkpt lat="47.51367" lon="6.6502">
        <ele>377</ele>
        <time>2015-03-22T09:36:08.000Z</time>
      </trkpt>
      <trkpt lat="47.51366" lon="6.65016">
        <ele>377</ele>
        <time>2015-03-22T09:36:09.000Z</time>
      </trkpt>
      <trkpt lat="47.51362" lon="6.65011">
        <ele>377</ele>
        <time>2015-03-22T09:36:10.000Z</time>
      </trkpt>
      <trkpt lat="47.51358" lon="6.65007">
        <ele>377</ele>
        <time>2015-03-22T09:36:11.000Z</time>
      </trkpt>
      <trkpt lat="47.51354" lon="6.65002">
        <ele>378</ele>
        <time>2015-03-22T09:36:12.000Z</time>
      </trkpt>
      <trkpt lat="47.5135" lon="6.64998">
        <ele>374</ele>
        <time>2015-03-22T09:36:13.000Z</time>
      </trkpt>
      <trkpt lat="47.51346" lon="6.64993">
        <ele>375</ele>
        <time>2015-03-22T09:36:14.000Z</time>
      </trkpt>
      <trkpt lat="47.51343" lon="6.64989">
        <ele>375</ele>
        <time>2015-03-22T09:36:15.000Z</time>
      </trkpt>
      <trkpt lat="47.51339" lon="6.64985">
        <ele>375</ele>
        <time>2015-03-22T09:36:16.000Z</time>
      </trkpt>
      <trkpt lat="47.51335" lon="6.64981">
        <ele>374</ele>
        <time>2015-03-22T09:36:17.000Z</time>
      </trkpt>
      <trkpt lat="47.51331" lon="6.64977">
        <ele>377</ele>
        <time>2015-03-22T09:36:18.000Z</time>
      </trkpt>
      <trkpt lat="47.51327" lon="6.64972">
        <ele>376</ele>
        <time>2015-03-22T09:36:19.000Z</time>
      </trkpt>
      <trkpt lat="47.51325" lon="6.6497">
        <ele>376</ele>
        <time>2015-03-22T09:36:20.000Z</time>
      </trkpt>
      <trkpt lat="47.51322" lon="6.64966">
        <ele>376</ele>
        <time>2015-03-22T09:36:21.000Z</time>
      </trkpt>
      <trkpt lat="47.51319" lon="6.64961">
        <ele>375</ele>
        <time>2015-03-22T09:36:22.000Z</time>
      </trkpt>
      <trkpt lat="47.51315" lon="6.64954">
        <ele>375</ele>
        <time>2015-03-22T09:36:23.000Z</time>
      </trkpt>
      <trkpt lat="47.5131" lon="6.64944">
        <ele>374</ele>
        <time>2015-03-22T09:36:24.000Z</time>
      </trkpt>
      <trkpt lat="47.51306" lon="6.64933">
        <ele>373</ele>
        <time>2015-03-22T09:36:25.000Z</time>
      </trkpt>
      <trkpt lat="47.51301" lon="6.64925">
        <ele>373</ele>
        <time>2015-03-22T09:36:26.000Z</time>
      </trkpt>
      <trkpt lat="47.51296" lon="6.64915">
        <ele>366</ele>
        <time>2015-03-22T09:36:27.000Z</time>
      </trkpt>
      <trkpt lat="47.5129" lon="6.64905">
        <ele>366</ele>
        <time>2015-03-22T09:36:28.000Z</time>
      </trkpt>
      <trkpt lat="47.51284" lon="6.64898">
        <ele>366</ele>
        <time>2015-03-22T09:36:29.000Z</time>
      </trkpt>
      <trkpt lat="47.51277" lon="6.64891">
        <ele>366</ele>
        <time>2015-03-22T09:36:30.000Z</time>
      </trkpt>
      <trkpt lat="47.5127" lon="6.64888">
        <ele>366</ele>
        <time>2015-03-22T09:36:31.000Z</time>
      </trkpt>
      <trkpt lat="47.51259" lon="6.64887">
        <ele>367</ele>
        <time>2015-03-22T09:36:32.000Z</time>
      </trkpt>
      <trkpt lat="47.51251" lon="6.64886">
        <ele>367</ele>
        <time>2015-03-22T09:36:33.000Z</time>
      </trkpt>
      <trkpt lat="47.51244" lon="6.64884">
        <ele>366</ele>
        <time>2015-03-22T09:36:34.000Z</time>
      </trkpt>
      <trkpt lat="47.51237" lon="6.64883">
        <ele>366</ele>
        <time>2015-03-22T09:36:35.000Z</time>
      </trkpt>
      <trkpt lat="47.51226" lon="6.64893">
        <ele>367</ele>
        <time>2015-03-22T09:36:36.000Z</time>
      </trkpt>
      <trkpt lat="47.51216" lon="6.64899">
        <ele>366</ele>
        <time>2015-03-22T09:36:37.000Z</time>
      </trkpt>
      <trkpt lat="47.51207" lon="6.64897">
        <ele>366</ele>
        <time>2015-03-22T09:36:38.000Z</time>
      </trkpt>
      <trkpt lat="47.51198" lon="6.64896">
        <ele>365</ele>
        <time>2015-03-22T09:36:39.000Z</time>
      </trkpt>
      <trkpt lat="47.5119" lon="6.64897">
        <ele>365</ele>
        <time>2015-03-22T09:36:39.999Z</time>
      </trkpt>
      <trkpt lat="47.51183" lon="6.64888">
        <ele>365</ele>
        <time>2015-03-22T09:36:41.000Z</time>
      </trkpt>
      <trkpt lat="47.51177" lon="6.64883">
        <ele>365</ele>
        <time>2015-03-22T09:36:42.000Z</time>
      </trkpt>
      <trkpt lat="47.51173" lon="6.64876">
        <ele>364</ele>
        <time>2015-03-22T09:36:43.000Z</time>
      </trkpt>
      <trkpt lat="47.51168" lon="6.64869">
        <ele>364</ele>
        <time>2015-03-22T09:36:44.000Z</time>
      </trkpt>
      <trkpt lat="47.51164" lon="6.64864">
        <ele>364</ele>
        <time>2015-03-22T09:36:45.000Z</time>
      </trkpt>
      <trkpt lat="47.51161" lon="6.64858">
        <ele>364</ele>
        <time>2015-03-22T09:36:46.000Z</time>
      </trkpt>
      <trkpt lat="47.51158" lon="6.6485">
        <ele>364</ele>
        <time>2015-03-22T09:36:47.000Z</time>
      </trkpt>
      <trkpt lat="47.51157" lon="6.64845">
        <ele>364</ele>
        <time>2015-03-22T09:36:48.000Z</time>
      </trkpt>
      <trkpt lat="47.51156" lon="6.64839">
        <ele>364</ele>
        <time>2015-03-22T09:36:49.000Z</time>
      </trkpt>
      <trkpt lat="47.51153" lon="6.64833">
        <ele>364</ele>
        <time>2015-03-22T09:36:50.000Z</time>
      </trkpt>
      <trkpt lat="47.51151" lon="6.64824">
        <ele>365</ele>
        <time>2015-03-22T09:36:51.000Z</time>
      </trkpt>
      <trkpt lat="47.51148" lon="6.64816">
        <ele>365</ele>
        <time>2015-03-22T09:36:52.000Z</time>
      </trkpt>
      <trkpt lat="47.51146" lon="6.64808">
        <ele>365</ele>
        <time>2015-03-22T09:36:53.000Z</time>
      </trkpt>
      <trkpt lat="47.51145" lon="6.64802">
        <ele>365</ele>
        <time>2015-03-22T09:36:54.000Z</time>
      </trkpt>
      <trkpt lat="47.51145" lon="6.64798">
        <ele>366</ele>
        <time>2015-03-22T09:36:55.000Z</time>
      </trkpt>
      <trkpt lat="47.51143" lon="6.6479">
        <ele>366</ele>
        <time>2015-03-22T09:36:56.000Z</time>
      </trkpt>
      <trkpt lat="47.5114" lon="6.64783">
        <ele>366</ele>
        <time>2015-03-22T09:36:57.000Z</time>
      </trkpt>
      <trkpt lat="47.51136" lon="6.64777">
        <ele>366</ele>
        <time>2015-03-22T09:36:58.000Z</time>
      </trkpt>
      <trkpt lat="47.51135" lon="6.6477">
        <ele>366</ele>
        <time>2015-03-22T09:36:59.000Z</time>
      </trkpt>
      <trkpt lat="47.51134" lon="6.64765">
        <ele>366</ele>
        <time>2015-03-22T09:37:00.000Z</time>
      </trkpt>
      <trkpt lat="47.5113" lon="6.64762">
        <ele>366</ele>
        <time>2015-03-22T09:37:01.000Z</time>
      </trkpt>
      <trkpt lat="47.51125" lon="6.64755">
        <ele>366</ele>
        <time>2015-03-22T09:37:03.000Z</time>
      </trkpt>
      <trkpt lat="47.51123" lon="6.64749">
        <ele>368</ele>
        <time>2015-03-22T09:37:04.000Z</time>
      </trkpt>
      <trkpt lat="47.5112" lon="6.64743">
        <ele>368</ele>
        <time>2015-03-22T09:37:05.000Z</time>
      </trkpt>
      <trkpt lat="47.51117" lon="6.64739">
        <ele>368</ele>
        <time>2015-03-22T09:37:06.000Z</time>
      </trkpt>
      <trkpt lat="47.51113" lon="6.64735">
        <ele>368</ele>
        <time>2015-03-22T09:37:07.000Z</time>
      </trkpt>
      <trkpt lat="47.51109" lon="6.6473">
        <ele>368</ele>
        <time>2015-03-22T09:37:08.000Z</time>
      </trkpt>
      <trkpt lat="47.51105" lon="6.64725">
        <ele>368</ele>
        <time>2015-03-22T09:37:09.000Z</time>
      </trkpt>
      <trkpt lat="47.51102" lon="6.6472">
        <ele>368</ele>
        <time>2015-03-22T09:37:10.000Z</time>
      </trkpt>
      <trkpt lat="47.51098" lon="6.6472">
        <ele>368</ele>
        <time>2015-03-22T09:37:11.000Z</time>
      </trkpt>
      <trkpt lat="47.51095" lon="6.64716">
        <ele>369</ele>
        <time>2015-03-22T09:37:12.000Z</time>
      </trkpt>
      <trkpt lat="47.51092" lon="6.64713">
        <ele>369</ele>
        <time>2015-03-22T09:37:13.000Z</time>
      </trkpt>
      <trkpt lat="47.51091" lon="6.64709">
        <ele>369</ele>
        <time>2015-03-22T09:37:14.000Z</time>
      </trkpt>
      <trkpt lat="47.51088" lon="6.64706">
        <ele>369</ele>
        <time>2015-03-22T09:37:15.000Z</time>
      </trkpt>
      <trkpt lat="47.51086" lon="6.64702">
        <ele>369</ele>
        <time>2015-03-22T09:37:16.000Z</time>
      </trkpt>
      <trkpt lat="47.51084" lon="6.64699">
        <ele>369</ele>
        <time>2015-03-22T09:37:17.000Z</time>
      </trkpt>
      <trkpt lat="47.51083" lon="6.64696">
        <ele>370</ele>
        <time>2015-03-22T09:37:18.000Z</time>
      </trkpt>
      <trkpt lat="47.51082" lon="6.64692">
        <ele>370</ele>
        <time>2015-03-22T09:37:19.000Z</time>
      </trkpt>
      <trkpt lat="47.51078" lon="6.64683">
        <ele>370</ele>
        <time>2015-03-22T09:37:20.000Z</time>
      </trkpt>
      <trkpt lat="47.51076" lon="6.64678">
        <ele>370</ele>
        <time>2015-03-22T09:37:21.000Z</time>
      </trkpt>
      <trkpt lat="47.51073" lon="6.64674">
        <ele>370</ele>
        <time>2015-03-22T09:37:22.000Z</time>
      </trkpt>
      <trkpt lat="47.51072" lon="6.64671">
        <ele>371</ele>
        <time>2015-03-22T09:37:23.000Z</time>
      </trkpt>
      <trkpt lat="47.51069" lon="6.6467">
        <ele>371</ele>
        <time>2015-03-22T09:37:24.000Z</time>
      </trkpt>
      <trkpt lat="47.51069" lon="6.64668">
        <ele>371</ele>
        <time>2015-03-22T09:37:25.000Z</time>
      </trkpt>
      <trkpt lat="47.51067" lon="6.64664">
        <ele>371</ele>
        <time>2015-03-22T09:37:26.000Z</time>
      </trkpt>
      <trkpt lat="47.51066" lon="6.6466">
        <ele>371</ele>
        <time>2015-03-22T09:37:27.000Z</time>
      </trkpt>
      <trkpt lat="47.51064" lon="6.64654">
        <ele>372</ele>
        <time>2015-03-22T09:37:28.000Z</time>
      </trkpt>
      <trkpt lat="47.51062" lon="6.6465">
        <ele>372</ele>
        <time>2015-03-22T09:37:29.000Z</time>
      </trkpt>
      <trkpt lat="47.5106" lon="6.64646">
        <ele>372</ele>
        <time>2015-03-22T09:37:30.000Z</time>
      </trkpt>
      <trkpt lat="47.51058" lon="6.64642">
        <ele>372</ele>
        <time>2015-03-22T09:37:31.000Z</time>
      </trkpt>
      <trkpt lat="47.51056" lon="6.64639">
        <ele>372</ele>
        <time>2015-03-22T09:37:32.000Z</time>
      </trkpt>
      <trkpt lat="47.51053" lon="6.64635">
        <ele>372</ele>
        <time>2015-03-22T09:37:33.000Z</time>
      </trkpt>
      <trkpt lat="47.51051" lon="6.64632">
        <ele>372</ele>
        <time>2015-03-22T09:37:34.000Z</time>
      </trkpt>
      <trkpt lat="47.51049" lon="6.64628">
        <ele>372</ele>
        <time>2015-03-22T09:37:35.000Z</time>
      </trkpt>
      <trkpt lat="47.51047" lon="6.64625">
        <ele>372</ele>
        <time>2015-03-22T09:37:36.000Z</time>
      </trkpt>
      <trkpt lat="47.51045" lon="6.64623">
        <ele>372</ele>
        <time>2015-03-22T09:37:37.000Z</time>
      </trkpt>
      <trkpt lat="47.51044" lon="6.6462">
        <ele>373</ele>
        <time>2015-03-22T09:37:38.000Z</time>
      </trkpt>
      <trkpt lat="47.51041" lon="6.64615">
        <ele>373</ele>
        <time>2015-03-22T09:37:40.000Z</time>
      </trkpt>
      <trkpt lat="47.5104" lon="6.64612">
        <ele>373</ele>
        <time>2015-03-22T09:37:41.000Z</time>
      </trkpt>
      <trkpt lat="47.51039" lon="6.64608">
        <ele>373</ele>
        <time>2015-03-22T09:37:42.000Z</time>
      </trkpt>
      <trkpt lat="47.51039" lon="6.64604">
        <ele>373</ele>
        <time>2015-03-22T09:37:43.000Z</time>
      </trkpt>
      <trkpt lat="47.51038" lon="6.64599">
        <ele>373</ele>
        <time>2015-03-22T09:37:44.000Z</time>
      </trkpt>
      <trkpt lat="47.51037" lon="6.64594">
        <ele>373</ele>
        <time>2015-03-22T09:37:45.000Z</time>
      </trkpt>
      <trkpt lat="47.51036" lon="6.64591">
        <ele>373</ele>
        <time>2015-03-22T09:37:46.000Z</time>
      </trkpt>
      <trkpt lat="47.51034" lon="6.64587">
        <ele>373</ele>
        <time>2015-03-22T09:37:47.000Z</time>
      </trkpt>
      <trkpt lat="47.51032" lon="6.64585">
        <ele>373</ele>
        <time>2015-03-22T09:37:48.000Z</time>
      </trkpt>
      <trkpt lat="47.51031" lon="6.64582">
        <ele>373</ele>
        <time>2015-03-22T09:37:49.000Z</time>
      </trkpt>
      <trkpt lat="47.51029" lon="6.6458">
        <ele>373</ele>
        <time>2015-03-22T09:37:50.000Z</time>
      </trkpt>
      <trkpt lat="47.51028" lon="6.64577">
        <ele>373</ele>
        <time>2015-03-22T09:37:51.000Z</time>
      </trkpt>
      <trkpt lat="47.51026" lon="6.64573">
        <ele>373</ele>
        <time>2015-03-22T09:37:52.000Z</time>
      </trkpt>
      <trkpt lat="47.51024" lon="6.64569">
        <ele>373</ele>
        <time>2015-03-22T09:37:53.000Z</time>
      </trkpt>
      <trkpt lat="47.51022" lon="6.64564">
        <ele>373</ele>
        <time>2015-03-22T09:37:54.000Z</time>
      </trkpt>
      <trkpt lat="47.5102" lon="6.6456">
        <ele>373</ele>
        <time>2015-03-22T09:37:55.000Z</time>
      </trkpt>
      <trkpt lat="47.51018" lon="6.64555">
        <ele>373</ele>
        <time>2015-03-22T09:37:56.000Z</time>
      </trkpt>
      <trkpt lat="47.51016" lon="6.6455">
        <ele>373</ele>
        <time>2015-03-22T09:37:57.000Z</time>
      </trkpt>
      <trkpt lat="47.51015" lon="6.64546">
        <ele>373</ele>
        <time>2015-03-22T09:37:58.000Z</time>
      </trkpt>
      <trkpt lat="47.51013" lon="6.64541">
        <ele>373</ele>
        <time>2015-03-22T09:37:59.000Z</time>
      </trkpt>
      <trkpt lat="47.51012" lon="6.64537">
        <ele>373</ele>
        <time>2015-03-22T09:38:00.000Z</time>
      </trkpt>
      <trkpt lat="47.5101" lon="6.64532">
        <ele>373</ele>
        <time>2015-03-22T09:38:01.000Z</time>
      </trkpt>
      <trkpt lat="47.51008" lon="6.64528">
        <ele>373</ele>
        <time>2015-03-22T09:38:02.000Z</time>
      </trkpt>
      <trkpt lat="47.51005" lon="6.64524">
        <ele>372</ele>
        <time>2015-03-22T09:38:03.000Z</time>
      </trkpt>
      <trkpt lat="47.51002" lon="6.64519">
        <ele>372</ele>
        <time>2015-03-22T09:38:04.000Z</time>
      </trkpt>
      <trkpt lat="47.51" lon="6.64516">
        <ele>373</ele>
        <time>2015-03-22T09:38:05.000Z</time>
      </trkpt>
      <trkpt lat="47.50997" lon="6.64512">
        <ele>373</ele>
        <time>2015-03-22T09:38:06.000Z</time>
      </trkpt>
      <trkpt lat="47.50994" lon="6.64507">
        <ele>373</ele>
        <time>2015-03-22T09:38:07.000Z</time>
      </trkpt>
      <trkpt lat="47.50992" lon="6.64503">
        <ele>373</ele>
        <time>2015-03-22T09:38:08.000Z</time>
      </trkpt>
      <trkpt lat="47.50989" lon="6.64498">
        <ele>373</ele>
        <time>2015-03-22T09:38:09.000Z</time>
      </trkpt>
      <trkpt lat="47.50986" lon="6.64494">
        <ele>373</ele>
        <time>2015-03-22T09:38:10.000Z</time>
      </trkpt>
      <trkpt lat="47.50984" lon="6.64489">
        <ele>373</ele>
        <time>2015-03-22T09:38:11.000Z</time>
      </trkpt>
      <trkpt lat="47.50981" lon="6.64485">
        <ele>373</ele>
        <time>2015-03-22T09:38:12.000Z</time>
      </trkpt>
      <trkpt lat="47.50978" lon="6.64481">
        <ele>373</ele>
        <time>2015-03-22T09:38:13.000Z</time>
      </trkpt>
      <trkpt lat="47.50975" lon="6.64477">
        <ele>373</ele>
        <time>2015-03-22T09:38:14.000Z</time>
      </trkpt>
      <trkpt lat="47.50972" lon="6.64473">
        <ele>373</ele>
        <time>2015-03-22T09:38:15.000Z</time>
      </trkpt>
      <trkpt lat="47.50969" lon="6.64468">
        <ele>373</ele>
        <time>2015-03-22T09:38:16.000Z</time>
      </trkpt>
      <trkpt lat="47.50966" lon="6.64463">
        <ele>373</ele>
        <time>2015-03-22T09:38:17.000Z</time>
      </trkpt>
      <trkpt lat="47.50964" lon="6.64457">
        <ele>373</ele>
        <time>2015-03-22T09:38:18.000Z</time>
      </trkpt>
      <trkpt lat="47.50961" lon="6.64451">
        <ele>373</ele>
        <time>2015-03-22T09:38:19.000Z</time>
      </trkpt>
      <trkpt lat="47.50958" lon="6.64445">
        <ele>374</ele>
        <time>2015-03-22T09:38:20.000Z</time>
      </trkpt>
      <trkpt lat="47.50955" lon="6.64439">
        <ele>374</ele>
        <time>2015-03-22T09:38:21.000Z</time>
      </trkpt>
      <trkpt lat="47.50953" lon="6.64432">
        <ele>374</ele>
        <time>2015-03-22T09:38:22.000Z</time>
      </trkpt>
      <trkpt lat="47.50951" lon="6.64426">
        <ele>374</ele>
        <time>2015-03-22T09:38:23.000Z</time>
      </trkpt>
      <trkpt lat="47.50947" lon="6.64418">
        <ele>374</ele>
        <time>2015-03-22T09:38:24.000Z</time>
      </trkpt>
      <trkpt lat="47.50945" lon="6.64409">
        <ele>374</ele>
        <time>2015-03-22T09:38:25.000Z</time>
      </trkpt>
      <trkpt lat="47.50944" lon="6.64401">
        <ele>374</ele>
        <time>2015-03-22T09:38:26.000Z</time>
      </trkpt>
      <trkpt lat="47.50943" lon="6.64394">
        <ele>374</ele>
        <time>2015-03-22T09:38:27.000Z</time>
      </trkpt>
      <trkpt lat="47.50943" lon="6.64384">
        <ele>374</ele>
        <time>2015-03-22T09:38:28.000Z</time>
      </trkpt>
      <trkpt lat="47.50943" lon="6.64376">
        <ele>374</ele>
        <time>2015-03-22T09:38:29.000Z</time>
      </trkpt>
      <trkpt lat="47.50941" lon="6.6437">
        <ele>374</ele>
        <time>2015-03-22T09:38:30.000Z</time>
      </trkpt>
      <trkpt lat="47.50939" lon="6.64365">
        <ele>374</ele>
        <time>2015-03-22T09:38:31.000Z</time>
      </trkpt>
      <trkpt lat="47.50937" lon="6.64357">
        <ele>374</ele>
        <time>2015-03-22T09:38:32.000Z</time>
      </trkpt>
      <trkpt lat="47.50937" lon="6.64349">
        <ele>374</ele>
        <time>2015-03-22T09:38:33.000Z</time>
      </trkpt>
      <trkpt lat="47.50936" lon="6.64345">
        <ele>374</ele>
        <time>2015-03-22T09:38:34.000Z</time>
      </trkpt>
      <trkpt lat="47.50936" lon="6.64339">
        <ele>374</ele>
        <time>2015-03-22T09:38:35.000Z</time>
      </trkpt>
      <trkpt lat="47.50935" lon="6.64333">
        <ele>375</ele>
        <time>2015-03-22T09:38:36.000Z</time>
      </trkpt>
      <trkpt lat="47.50934" lon="6.64328">
        <ele>375</ele>
        <time>2015-03-22T09:38:37.000Z</time>
      </trkpt>
      <trkpt lat="47.50932" lon="6.64323">
        <ele>375</ele>
        <time>2015-03-22T09:38:38.000Z</time>
      </trkpt>
      <trkpt lat="47.50932" lon="6.64316">
        <ele>375</ele>
        <time>2015-03-22T09:38:39.000Z</time>
      </trkpt>
      <trkpt lat="47.50931" lon="6.6431">
        <ele>375</ele>
        <time>2015-03-22T09:38:40.000Z</time>
      </trkpt>
      <trkpt lat="47.5093" lon="6.64304">
        <ele>375</ele>
        <time>2015-03-22T09:38:41.000Z</time>
      </trkpt>
      <trkpt lat="47.5093" lon="6.64298">
        <ele>375</ele>
        <time>2015-03-22T09:38:42.000Z</time>
      </trkpt>
      <trkpt lat="47.50929" lon="6.64293">
        <ele>376</ele>
        <time>2015-03-22T09:38:43.000Z</time>
      </trkpt>
      <trkpt lat="47.50928" lon="6.64287">
        <ele>376</ele>
        <time>2015-03-22T09:38:44.000Z</time>
      </trkpt>
      <trkpt lat="47.50927" lon="6.64282">
        <ele>376</ele>
        <time>2015-03-22T09:38:45.000Z</time>
      </trkpt>
      <trkpt lat="47.50926" lon="6.64277">
        <ele>376</ele>
        <time>2015-03-22T09:38:46.000Z</time>
      </trkpt>
      <trkpt lat="47.50925" lon="6.64272">
        <ele>375</ele>
        <time>2015-03-22T09:38:47.000Z</time>
      </trkpt>
      <trkpt lat="47.50923" lon="6.64266">
        <ele>375</ele>
        <time>2015-03-22T09:38:48.000Z</time>
      </trkpt>
      <trkpt lat="47.50923" lon="6.64262">
        <ele>375</ele>
        <time>2015-03-22T09:38:49.000Z</time>
      </trkpt>
      <trkpt lat="47.50922" lon="6.64257">
        <ele>375</ele>
        <time>2015-03-22T09:38:50.000Z</time>
      </trkpt>
      <trkpt lat="47.50922" lon="6.64253">
        <ele>375</ele>
        <time>2015-03-22T09:38:51.000Z</time>
      </trkpt>
      <trkpt lat="47.50922" lon="6.64249">
        <ele>375</ele>
        <time>2015-03-22T09:38:52.000Z</time>
      </trkpt>
      <trkpt lat="47.50922" lon="6.64246">
        <ele>375</ele>
        <time>2015-03-22T09:38:53.000Z</time>
      </trkpt>
      <trkpt lat="47.50922" lon="6.64242">
        <ele>375</ele>
        <time>2015-03-22T09:38:54.000Z</time>
      </trkpt>
      <trkpt lat="47.50921" lon="6.64238">
        <ele>375</ele>
        <time>2015-03-22T09:38:55.000Z</time>
      </trkpt>
      <trkpt lat="47.5092" lon="6.64234">
        <ele>375</ele>
        <time>2015-03-22T09:38:56.000Z</time>
      </trkpt>
      <trkpt lat="47.50918" lon="6.64229">
        <ele>376</ele>
        <time>2015-03-22T09:38:57.000Z</time>
      </trkpt>
      <trkpt lat="47.50917" lon="6.64225">
        <ele>376</ele>
        <time>2015-03-22T09:38:58.000Z</time>
      </trkpt>
      <trkpt lat="47.50916" lon="6.64222">
        <ele>374</ele>
        <time>2015-03-22T09:38:59.000Z</time>
      </trkpt>
      <trkpt lat="47.50915" lon="6.64217">
        <ele>374</ele>
        <time>2015-03-22T09:39:01.000Z</time>
      </trkpt>
      <trkpt lat="47.50915" lon="6.64214">
        <ele>374</ele>
        <time>2015-03-22T09:39:02.000Z</time>
      </trkpt>
      <trkpt lat="47.50916" lon="6.64211">
        <ele>374</ele>
        <time>2015-03-22T09:39:03.000Z</time>
      </trkpt>
      <trkpt lat="47.50916" lon="6.64207">
        <ele>374</ele>
        <time>2015-03-22T09:39:04.000Z</time>
      </trkpt>
      <trkpt lat="47.50915" lon="6.64203">
        <ele>374</ele>
        <time>2015-03-22T09:39:05.000Z</time>
      </trkpt>
      <trkpt lat="47.50915" lon="6.64199">
        <ele>374</ele>
        <time>2015-03-22T09:39:06.000Z</time>
      </trkpt>
      <trkpt lat="47.50915" lon="6.64193">
        <ele>374</ele>
        <time>2015-03-22T09:39:08.000Z</time>
      </trkpt>
      <trkpt lat="47.50916" lon="6.64189">
        <ele>374</ele>
        <time>2015-03-22T09:39:09.002Z</time>
      </trkpt>
      <trkpt lat="47.50918" lon="6.64185">
        <ele>375</ele>
        <time>2015-03-22T09:39:10.000Z</time>
      </trkpt>
      <trkpt lat="47.50921" lon="6.64181">
        <ele>375</ele>
        <time>2015-03-22T09:39:11.000Z</time>
      </trkpt>
      <trkpt lat="47.50924" lon="6.64178">
        <ele>375</ele>
        <time>2015-03-22T09:39:12.000Z</time>
      </trkpt>
      <trkpt lat="47.50926" lon="6.64175">
        <ele>375</ele>
        <time>2015-03-22T09:39:13.000Z</time>
      </trkpt>
      <trkpt lat="47.5093" lon="6.64171">
        <ele>375</ele>
        <time>2015-03-22T09:39:14.000Z</time>
      </trkpt>
      <trkpt lat="47.50935" lon="6.64169">
        <ele>376</ele>
        <time>2015-03-22T09:39:15.000Z</time>
      </trkpt>
      <trkpt lat="47.50939" lon="6.64166">
        <ele>374</ele>
        <time>2015-03-22T09:39:16.000Z</time>
      </trkpt>
      <trkpt lat="47.50943" lon="6.64163">
        <ele>375</ele>
        <time>2015-03-22T09:39:17.000Z</time>
      </trkpt>
      <trkpt lat="47.50948" lon="6.64161">
        <ele>375</ele>
        <time>2015-03-22T09:39:18.000Z</time>
      </trkpt>
      <trkpt lat="47.50951" lon="6.64159">
        <ele>375</ele>
        <time>2015-03-22T09:39:19.001Z</time>
      </trkpt>
      <trkpt lat="47.50958" lon="6.64154">
        <ele>375</ele>
        <time>2015-03-22T09:39:20.000Z</time>
      </trkpt>
      <trkpt lat="47.50965" lon="6.64151">
        <ele>375</ele>
        <time>2015-03-22T09:39:21.000Z</time>
      </trkpt>
      <trkpt lat="47.5097" lon="6.64149">
        <ele>375</ele>
        <time>2015-03-22T09:39:22.000Z</time>
      </trkpt>
      <trkpt lat="47.50976" lon="6.64148">
        <ele>376</ele>
        <time>2015-03-22T09:39:23.001Z</time>
      </trkpt>
      <trkpt lat="47.50981" lon="6.64146">
        <ele>376</ele>
        <time>2015-03-22T09:39:24.000Z</time>
      </trkpt>
      <trkpt lat="47.50984" lon="6.64146">
        <ele>376</ele>
        <time>2015-03-22T09:39:25.000Z</time>
      </trkpt>
      <trkpt lat="47.50987" lon="6.64146">
        <ele>376</ele>
        <time>2015-03-22T09:39:26.000Z</time>
      </trkpt>
      <trkpt lat="47.50991" lon="6.64146">
        <ele>376</ele>
        <time>2015-03-22T09:39:29.000Z</time>
      </trkpt>
      <trkpt lat="47.50994" lon="6.64146">
        <ele>376</ele>
        <time>2015-03-22T09:39:30.000Z</time>
      </trkpt>
      <trkpt lat="47.50997" lon="6.64146">
        <ele>376</ele>
        <time>2015-03-22T09:39:31.000Z</time>
      </trkpt>
      <trkpt lat="47.51" lon="6.64145">
        <ele>376</ele>
        <time>2015-03-22T09:39:32.000Z</time>
      </trkpt>
      <trkpt lat="47.51003" lon="6.64145">
        <ele>378</ele>
        <time>2015-03-22T09:39:33.000Z</time>
      </trkpt>
      <trkpt lat="47.51005" lon="6.64146">
        <ele>378</ele>
        <time>2015-03-22T09:39:34.000Z</time>
      </trkpt>
      <trkpt lat="47.51008" lon="6.64146">
        <ele>378</ele>
        <time>2015-03-22T09:39:35.000Z</time>
      </trkpt>
      <trkpt lat="47.5101" lon="6.64147">
        <ele>378</ele>
        <time>2015-03-22T09:39:36.000Z</time>
      </trkpt>
      <trkpt lat="47.51013" lon="6.64149">
        <ele>378</ele>
        <time>2015-03-22T09:39:37.000Z</time>
      </trkpt>
      <trkpt lat="47.51014" lon="6.6415">
        <ele>378</ele>
        <time>2015-03-22T09:39:38.000Z</time>
      </trkpt>
      <trkpt lat="47.51016" lon="6.64153">
        <ele>378</ele>
        <time>2015-03-22T09:39:40.000Z</time>
      </trkpt>
      <trkpt lat="47.51018" lon="6.64154">
        <ele>379</ele>
        <time>2015-03-22T09:39:41.000Z</time>
      </trkpt>
      <trkpt lat="47.51021" lon="6.64156">
        <ele>379</ele>
        <time>2015-03-22T09:39:43.000Z</time>
      </trkpt>
      <trkpt lat="47.51023" lon="6.64155">
        <ele>379</ele>
        <time>2015-03-22T09:39:44.000Z</time>
      </trkpt>
      <trkpt lat="47.51027" lon="6.64156">
        <ele>379</ele>
        <time>2015-03-22T09:39:46.000Z</time>
      </trkpt>
      <trkpt lat="47.51029" lon="6.64156">
        <ele>379</ele>
        <time>2015-03-22T09:39:47.000Z</time>
      </trkpt>
      <trkpt lat="47.51031" lon="6.64157">
        <ele>379</ele>
        <time>2015-03-22T09:39:49.001Z</time>
      </trkpt>
      <trkpt lat="47.51033" lon="6.64159">
        <ele>379</ele>
        <time>2015-03-22T09:39:50.000Z</time>
      </trkpt>
      <trkpt lat="47.51036" lon="6.64161">
        <ele>379</ele>
        <time>2015-03-22T09:39:52.000Z</time>
      </trkpt>
      <trkpt lat="47.51038" lon="6.64162">
        <ele>379</ele>
        <time>2015-03-22T09:39:53.000Z</time>
      </trkpt>
      <trkpt lat="47.51041" lon="6.64162">
        <ele>379</ele>
        <time>2015-03-22T09:39:54.000Z</time>
      </trkpt>
      <trkpt lat="47.51044" lon="6.64162">
        <ele>379</ele>
        <time>2015-03-22T09:39:55.000Z</time>
      </trkpt>
      <trkpt lat="47.51047" lon="6.64162">
        <ele>380</ele>
        <time>2015-03-22T09:39:56.000Z</time>
      </trkpt>
      <trkpt lat="47.5105" lon="6.64162">
        <ele>380</ele>
        <time>2015-03-22T09:39:57.000Z</time>
      </trkpt>
      <trkpt lat="47.51053" lon="6.64161">
        <ele>380</ele>
        <time>2015-03-22T09:39:58.000Z</time>
      </trkpt>
      <trkpt lat="47.51057" lon="6.64161">
        <ele>380</ele>
        <time>2015-03-22T09:39:59.000Z</time>
      </trkpt>
      <trkpt lat="47.51061" lon="6.64161">
        <ele>381</ele>
        <time>2015-03-22T09:40:01.000Z</time>
      </trkpt>
      <trkpt lat="47.51063" lon="6.64161">
        <ele>381</ele>
        <time>2015-03-22T09:40:02.000Z</time>
      </trkpt>
      <trkpt lat="47.51066" lon="6.6416">
        <ele>381</ele>
        <time>2015-03-22T09:40:04.000Z</time>
      </trkpt>
      <trkpt lat="47.51067" lon="6.6416">
        <ele>381</ele>
        <time>2015-03-22T09:40:05.000Z</time>
      </trkpt>
      <trkpt lat="47.51069" lon="6.6416">
        <ele>382</ele>
        <time>2015-03-22T09:40:06.000Z</time>
      </trkpt>
      <trkpt lat="47.51072" lon="6.64159">
        <ele>382</ele>
        <time>2015-03-22T09:40:07.000Z</time>
      </trkpt>
      <trkpt lat="47.51075" lon="6.64159">
        <ele>382</ele>
        <time>2015-03-22T09:40:08.000Z</time>
      </trkpt>
      <trkpt lat="47.51077" lon="6.6416">
        <ele>383</ele>
        <time>2015-03-22T09:40:09.000Z</time>
      </trkpt>
      <trkpt lat="47.5108" lon="6.6416">
        <ele>383</ele>
        <time>2015-03-22T09:40:11.000Z</time>
      </trkpt>
      <trkpt lat="47.51082" lon="6.64161">
        <ele>383</ele>
        <time>2015-03-22T09:40:12.000Z</time>
      </trkpt>
      <trkpt lat="47.51084" lon="6.64162">
        <ele>384</ele>
        <time>2015-03-22T09:40:13.000Z</time>
      </trkpt>
      <trkpt lat="47.51086" lon="6.64163">
        <ele>385</ele>
        <time>2015-03-22T09:40:14.000Z</time>
      </trkpt>
      <trkpt lat="47.51089" lon="6.64165">
        <ele>384</ele>
        <time>2015-03-22T09:40:15.000Z</time>
      </trkpt>
      <trkpt lat="47.51091" lon="6.64166">
        <ele>384</ele>
        <time>2015-03-22T09:40:16.000Z</time>
      </trkpt>
      <trkpt lat="47.51095" lon="6.64168">
        <ele>386</ele>
        <time>2015-03-22T09:40:18.000Z</time>
      </trkpt>
      <trkpt lat="47.51096" lon="6.64169">
        <ele>387</ele>
        <time>2015-03-22T09:40:19.000Z</time>
      </trkpt>
      <trkpt lat="47.511" lon="6.6417">
        <ele>387</ele>
        <time>2015-03-22T09:40:21.000Z</time>
      </trkpt>
      <trkpt lat="47.51102" lon="6.6417">
        <ele>387</ele>
        <time>2015-03-22T09:40:22.000Z</time>
      </trkpt>
      <trkpt lat="47.51104" lon="6.6417">
        <ele>387</ele>
        <time>2015-03-22T09:40:23.000Z</time>
      </trkpt>
      <trkpt lat="47.51106" lon="6.6417">
        <ele>387</ele>
        <time>2015-03-22T09:40:24.000Z</time>
      </trkpt>
      <trkpt lat="47.5111" lon="6.64173">
        <ele>388</ele>
        <time>2015-03-22T09:40:31.000Z</time>
      </trkpt>
      <trkpt lat="47.5111" lon="6.64174">
        <ele>388</ele>
        <time>2015-03-22T09:40:32.000Z</time>
      </trkpt>
      <trkpt lat="47.51113" lon="6.64177">
        <ele>388</ele>
        <time>2015-03-22T09:40:34.000Z</time>
      </trkpt>
      <trkpt lat="47.51115" lon="6.64178">
        <ele>388</ele>
        <time>2015-03-22T09:40:35.000Z</time>
      </trkpt>
      <trkpt lat="47.51118" lon="6.6418">
        <ele>388</ele>
        <time>2015-03-22T09:40:36.000Z</time>
      </trkpt>
      <trkpt lat="47.5112" lon="6.64182">
        <ele>388</ele>
        <time>2015-03-22T09:40:37.000Z</time>
      </trkpt>
      <trkpt lat="47.51122" lon="6.64183">
        <ele>388</ele>
        <time>2015-03-22T09:40:38.000Z</time>
      </trkpt>
      <trkpt lat="47.51124" lon="6.64184">
        <ele>389</ele>
        <time>2015-03-22T09:40:39.000Z</time>
      </trkpt>
      <trkpt lat="47.51127" lon="6.64185">
        <ele>389</ele>
        <time>2015-03-22T09:40:40.000Z</time>
      </trkpt>
      <trkpt lat="47.51129" lon="6.64185">
        <ele>389</ele>
        <time>2015-03-22T09:40:41.000Z</time>
      </trkpt>
      <trkpt lat="47.51133" lon="6.64186">
        <ele>389</ele>
        <time>2015-03-22T09:40:45.000Z</time>
      </trkpt>
      <trkpt lat="47.51134" lon="6.64186">
        <ele>389</ele>
        <time>2015-03-22T09:40:46.000Z</time>
      </trkpt>
      <trkpt lat="47.51138" lon="6.64187">
        <ele>389</ele>
        <time>2015-03-22T09:40:50.000Z</time>
      </trkpt>
      <trkpt lat="47.51139" lon="6.64187">
        <ele>389</ele>
        <time>2015-03-22T09:40:51.000Z</time>
      </trkpt>
      <trkpt lat="47.51143" lon="6.64185">
        <ele>389</ele>
        <time>2015-03-22T09:40:54.000Z</time>
      </trkpt>
      <trkpt lat="47.51144" lon="6.64186">
        <ele>389</ele>
        <time>2015-03-22T09:40:55.000Z</time>
      </trkpt>
      <trkpt lat="47.51147" lon="6.64185">
        <ele>389</ele>
        <time>2015-03-22T09:40:57.000Z</time>
      </trkpt>
      <trkpt lat="47.51149" lon="6.64185">
        <ele>390</ele>
        <time>2015-03-22T09:40:58.000Z</time>
      </trkpt>
      <trkpt lat="47.51153" lon="6.64186">
        <ele>390</ele>
        <time>2015-03-22T09:41:01.000Z</time>
      </trkpt>
      <trkpt lat="47.51154" lon="6.64187">
        <ele>390</ele>
        <time>2015-03-22T09:41:02.000Z</time>
      </trkpt>
      <trkpt lat="47.51156" lon="6.64192">
        <ele>390</ele>
        <time>2015-03-22T09:41:05.000Z</time>
      </trkpt>
      <trkpt lat="47.51156" lon="6.64193">
        <ele>390</ele>
        <time>2015-03-22T09:41:06.000Z</time>
      </trkpt>
      <trkpt lat="47.51158" lon="6.64196">
        <ele>390</ele>
        <time>2015-03-22T09:41:08.000Z</time>
      </trkpt>
      <trkpt lat="47.5116" lon="6.64198">
        <ele>390</ele>
        <time>2015-03-22T09:41:09.000Z</time>
      </trkpt>
      <trkpt lat="47.51162" lon="6.642">
        <ele>390</ele>
        <time>2015-03-22T09:41:11.000Z</time>
      </trkpt>
      <trkpt lat="47.51167" lon="6.642">
        <ele>390</ele>
        <time>2015-03-22T09:41:12.000Z</time>
      </trkpt>
      <trkpt lat="47.5117" lon="6.642">
        <ele>392</ele>
        <time>2015-03-22T09:41:13.000Z</time>
      </trkpt>
      <trkpt lat="47.51173" lon="6.642">
        <ele>392</ele>
        <time>2015-03-22T09:41:14.000Z</time>
      </trkpt>
      <trkpt lat="47.51177" lon="6.64201">
        <ele>392</ele>
        <time>2015-03-22T09:41:15.000Z</time>
      </trkpt>
      <trkpt lat="47.5118" lon="6.64202">
        <ele>392</ele>
        <time>2015-03-22T09:41:16.000Z</time>
      </trkpt>
      <trkpt lat="47.51183" lon="6.64203">
        <ele>392</ele>
        <time>2015-03-22T09:41:17.000Z</time>
      </trkpt>
      <trkpt lat="47.51186" lon="6.64204">
        <ele>392</ele>
        <time>2015-03-22T09:41:18.000Z</time>
      </trkpt>
      <trkpt lat="47.51189" lon="6.64205">
        <ele>392</ele>
        <time>2015-03-22T09:41:19.000Z</time>
      </trkpt>
      <trkpt lat="47.51192" lon="6.64205">
        <ele>392</ele>
        <time>2015-03-22T09:41:20.000Z</time>
      </trkpt>
      <trkpt lat="47.51196" lon="6.64206">
        <ele>392</ele>
        <time>2015-03-22T09:41:21.000Z</time>
      </trkpt>
      <trkpt lat="47.51198" lon="6.64207">
        <ele>392</ele>
        <time>2015-03-22T09:41:22.000Z</time>
      </trkpt>
      <trkpt lat="47.51201" lon="6.64207">
        <ele>392</ele>
        <time>2015-03-22T09:41:23.000Z</time>
      </trkpt>
      <trkpt lat="47.51203" lon="6.64207">
        <ele>392</ele>
        <time>2015-03-22T09:41:24.000Z</time>
      </trkpt>
      <trkpt lat="47.51208" lon="6.64208">
        <ele>392</ele>
        <time>2015-03-22T09:41:26.000Z</time>
      </trkpt>
      <trkpt lat="47.51209" lon="6.64209">
        <ele>392</ele>
        <time>2015-03-22T09:41:27.000Z</time>
      </trkpt>
      <trkpt lat="47.51212" lon="6.6421">
        <ele>392</ele>
        <time>2015-03-22T09:41:29.000Z</time>
      </trkpt>
      <trkpt lat="47.51215" lon="6.6421">
        <ele>392</ele>
        <time>2015-03-22T09:41:30.000Z</time>
      </trkpt>
      <trkpt lat="47.51218" lon="6.64211">
        <ele>392</ele>
        <time>2015-03-22T09:41:31.000Z</time>
      </trkpt>
      <trkpt lat="47.5122" lon="6.64211">
        <ele>392</ele>
        <time>2015-03-22T09:41:32.000Z</time>
      </trkpt>
      <trkpt lat="47.51223" lon="6.64214">
        <ele>392</ele>
        <time>2015-03-22T09:41:34.000Z</time>
      </trkpt>
      <trkpt lat="47.51225" lon="6.64216">
        <ele>392</ele>
        <time>2015-03-22T09:41:35.000Z</time>
      </trkpt>
      <trkpt lat="47.51227" lon="6.6422">
        <ele>392</ele>
        <time>2015-03-22T09:41:37.000Z</time>
      </trkpt>
      <trkpt lat="47.51228" lon="6.64221">
        <ele>392</ele>
        <time>2015-03-22T09:41:38.000Z</time>
      </trkpt>
      <trkpt lat="47.51232" lon="6.64223">
        <ele>392</ele>
        <time>2015-03-22T09:41:40.000Z</time>
      </trkpt>
      <trkpt lat="47.51233" lon="6.64225">
        <ele>393</ele>
        <time>2015-03-22T09:41:41.000Z</time>
      </trkpt>
      <trkpt lat="47.51234" lon="6.64229">
        <ele>393</ele>
        <time>2015-03-22T09:41:43.000Z</time>
      </trkpt>
      <trkpt lat="47.51236" lon="6.64232">
        <ele>393</ele>
        <time>2015-03-22T09:41:44.000Z</time>
      </trkpt>
      <trkpt lat="47.51238" lon="6.64235">
        <ele>393</ele>
        <time>2015-03-22T09:41:45.000Z</time>
      </trkpt>
      <trkpt lat="47.51241" lon="6.64237">
        <ele>393</ele>
        <time>2015-03-22T09:41:46.000Z</time>
      </trkpt>
      <trkpt lat="47.51243" lon="6.64242">
        <ele>393</ele>
        <time>2015-03-22T09:41:48.000Z</time>
      </trkpt>
      <trkpt lat="47.51244" lon="6.64245">
        <ele>393</ele>
        <time>2015-03-22T09:41:49.000Z</time>
      </trkpt>
      <trkpt lat="47.51244" lon="6.64251">
        <ele>394</ele>
        <time>2015-03-22T09:41:51.000Z</time>
      </trkpt>
      <trkpt lat="47.51245" lon="6.64253">
        <ele>394</ele>
        <time>2015-03-22T09:41:52.000Z</time>
      </trkpt>
      <trkpt lat="47.51248" lon="6.64258">
        <ele>394</ele>
        <time>2015-03-22T09:41:54.000Z</time>
      </trkpt>
      <trkpt lat="47.51251" lon="6.6426">
        <ele>394</ele>
        <time>2015-03-22T09:41:55.000Z</time>
      </trkpt>
      <trkpt lat="47.51254" lon="6.64262">
        <ele>394</ele>
        <time>2015-03-22T09:41:56.000Z</time>
      </trkpt>
      <trkpt lat="47.51257" lon="6.64263">
        <ele>394</ele>
        <time>2015-03-22T09:41:57.000Z</time>
      </trkpt>
      <trkpt lat="47.51259" lon="6.64265">
        <ele>393</ele>
        <time>2015-03-22T09:41:58.000Z</time>
      </trkpt>
      <trkpt lat="47.51262" lon="6.64267">
        <ele>393</ele>
        <time>2015-03-22T09:41:59.000Z</time>
      </trkpt>
      <trkpt lat="47.51264" lon="6.64269">
        <ele>393</ele>
        <time>2015-03-22T09:42:00.000Z</time>
      </trkpt>
      <trkpt lat="47.51267" lon="6.64271">
        <ele>393</ele>
        <time>2015-03-22T09:42:01.000Z</time>
      </trkpt>
      <trkpt lat="47.5127" lon="6.64272">
        <ele>393</ele>
        <time>2015-03-22T09:42:02.000Z</time>
      </trkpt>
      <trkpt lat="47.51271" lon="6.64273">
        <ele>393</ele>
        <time>2015-03-22T09:42:03.001Z</time>
      </trkpt>
      <trkpt lat="47.51275" lon="6.64274">
        <ele>393</ele>
        <time>2015-03-22T09:42:04.000Z</time>
      </trkpt>
      <trkpt lat="47.51278" lon="6.64273">
        <ele>393</ele>
        <time>2015-03-22T09:42:05.000Z</time>
      </trkpt>
      <trkpt lat="47.5128" lon="6.64272">
        <ele>393</ele>
        <time>2015-03-22T09:42:06.000Z</time>
      </trkpt>
      <trkpt lat="47.51283" lon="6.6427">
        <ele>393</ele>
        <time>2015-03-22T09:42:07.000Z</time>
      </trkpt>
      <trkpt lat="47.51287" lon="6.64268">
        <ele>393</ele>
        <time>2015-03-22T09:42:08.000Z</time>
      </trkpt>
      <trkpt lat="47.5129" lon="6.64266">
        <ele>393</ele>
        <time>2015-03-22T09:42:09.000Z</time>
      </trkpt>
      <trkpt lat="47.51294" lon="6.64264">
        <ele>393</ele>
        <time>2015-03-22T09:42:10.000Z</time>
      </trkpt>
      <trkpt lat="47.51298" lon="6.64262">
        <ele>393</ele>
        <time>2015-03-22T09:42:11.000Z</time>
      </trkpt>
      <trkpt lat="47.51301" lon="6.6426">
        <ele>393</ele>
        <time>2015-03-22T09:42:12.000Z</time>
      </trkpt>
      <trkpt lat="47.51305" lon="6.64258">
        <ele>393</ele>
        <time>2015-03-22T09:42:13.000Z</time>
      </trkpt>
      <trkpt lat="47.51309" lon="6.64257">
        <ele>393</ele>
        <time>2015-03-22T09:42:14.000Z</time>
      </trkpt>
      <trkpt lat="47.51313" lon="6.64256">
        <ele>393</ele>
        <time>2015-03-22T09:42:15.000Z</time>
      </trkpt>
      <trkpt lat="47.51317" lon="6.64255">
        <ele>393</ele>
        <time>2015-03-22T09:42:16.000Z</time>
      </trkpt>
      <trkpt lat="47.51321" lon="6.64254">
        <ele>393</ele>
        <time>2015-03-22T09:42:17.000Z</time>
      </trkpt>
      <trkpt lat="47.51325" lon="6.64253">
        <ele>394</ele>
        <time>2015-03-22T09:42:18.001Z</time>
      </trkpt>
      <trkpt lat="47.51328" lon="6.64251">
        <ele>394</ele>
        <time>2015-03-22T09:42:18.999Z</time>
      </trkpt>
      <trkpt lat="47.5133" lon="6.64245">
        <ele>394</ele>
        <time>2015-03-22T09:42:23.000Z</time>
      </trkpt>
      <trkpt lat="47.51333" lon="6.64243">
        <ele>394</ele>
        <time>2015-03-22T09:42:24.000Z</time>
      </trkpt>
      <trkpt lat="47.51336" lon="6.64243">
        <ele>394</ele>
        <time>2015-03-22T09:42:26.000Z</time>
      </trkpt>
      <trkpt lat="47.51341" lon="6.64244">
        <ele>394</ele>
        <time>2015-03-22T09:42:27.000Z</time>
      </trkpt>
      <trkpt lat="47.51343" lon="6.64243">
        <ele>394</ele>
        <time>2015-03-22T09:42:28.000Z</time>
      </trkpt>
      <trkpt lat="47.51346" lon="6.64241">
        <ele>394</ele>
        <time>2015-03-22T09:42:29.000Z</time>
      </trkpt>
      <trkpt lat="47.51355" lon="6.64241">
        <ele>395</ele>
        <time>2015-03-22T09:42:30.000Z</time>
      </trkpt>
      <trkpt lat="47.51359" lon="6.64242">
        <ele>395</ele>
        <time>2015-03-22T09:42:31.000Z</time>
      </trkpt>
      <trkpt lat="47.51364" lon="6.64242">
        <ele>395</ele>
        <time>2015-03-22T09:42:32.000Z</time>
      </trkpt>
      <trkpt lat="47.51367" lon="6.64242">
        <ele>395</ele>
        <time>2015-03-22T09:42:33.000Z</time>
      </trkpt>
      <trkpt lat="47.51374" lon="6.64242">
        <ele>395</ele>
        <time>2015-03-22T09:42:34.000Z</time>
      </trkpt>
      <trkpt lat="47.51378" lon="6.64242">
        <ele>395</ele>
        <time>2015-03-22T09:42:35.000Z</time>
      </trkpt>
      <trkpt lat="47.51383" lon="6.6424">
        <ele>395</ele>
        <time>2015-03-22T09:42:36.000Z</time>
      </trkpt>
      <trkpt lat="47.51388" lon="6.64239">
        <ele>395</ele>
        <time>2015-03-22T09:42:37.000Z</time>
      </trkpt>
      <trkpt lat="47.51392" lon="6.64239">
        <ele>395</ele>
        <time>2015-03-22T09:42:38.000Z</time>
      </trkpt>
      <trkpt lat="47.51395" lon="6.6424">
        <ele>395</ele>
        <time>2015-03-22T09:42:39.000Z</time>
      </trkpt>
      <trkpt lat="47.51398" lon="6.6424">
        <ele>395</ele>
        <time>2015-03-22T09:42:40.000Z</time>
      </trkpt>
      <trkpt lat="47.514" lon="6.64241">
        <ele>395</ele>
        <time>2015-03-22T09:42:41.000Z</time>
      </trkpt>
      <trkpt lat="47.51403" lon="6.64242">
        <ele>395</ele>
        <time>2015-03-22T09:42:42.000Z</time>
      </trkpt>
      <trkpt lat="47.51405" lon="6.64243">
        <ele>395</ele>
        <time>2015-03-22T09:42:43.000Z</time>
      </trkpt>
      <trkpt lat="47.51408" lon="6.64244">
        <ele>395</ele>
        <time>2015-03-22T09:42:44.000Z</time>
      </trkpt>
      <trkpt lat="47.5141" lon="6.64245">
        <ele>395</ele>
        <time>2015-03-22T09:42:45.000Z</time>
      </trkpt>
      <trkpt lat="47.51413" lon="6.64246">
        <ele>395</ele>
        <time>2015-03-22T09:42:46.000Z</time>
      </trkpt>
      <trkpt lat="47.51416" lon="6.64247">
        <ele>395</ele>
        <time>2015-03-22T09:42:47.000Z</time>
      </trkpt>
      <trkpt lat="47.5142" lon="6.64246">
        <ele>395</ele>
        <time>2015-03-22T09:42:48.000Z</time>
      </trkpt>
      <trkpt lat="47.51423" lon="6.64244">
        <ele>394</ele>
        <time>2015-03-22T09:42:49.000Z</time>
      </trkpt>
      <trkpt lat="47.51426" lon="6.64241">
        <ele>394</ele>
        <time>2015-03-22T09:42:50.000Z</time>
      </trkpt>
      <trkpt lat="47.51429" lon="6.64238">
        <ele>394</ele>
        <time>2015-03-22T09:42:51.000Z</time>
      </trkpt>
      <trkpt lat="47.51433" lon="6.64235">
        <ele>394</ele>
        <time>2015-03-22T09:42:52.000Z</time>
      </trkpt>
      <trkpt lat="47.51437" lon="6.64233">
        <ele>393</ele>
        <time>2015-03-22T09:42:53.000Z</time>
      </trkpt>
      <trkpt lat="47.51441" lon="6.64231">
        <ele>393</ele>
        <time>2015-03-22T09:42:54.000Z</time>
      </trkpt>
      <trkpt lat="47.51445" lon="6.64229">
        <ele>393</ele>
        <time>2015-03-22T09:42:55.000Z</time>
      </trkpt>
      <trkpt lat="47.51448" lon="6.64228">
        <ele>393</ele>
        <time>2015-03-22T09:42:56.000Z</time>
      </trkpt>
      <trkpt lat="47.51452" lon="6.64227">
        <ele>393</ele>
        <time>2015-03-22T09:42:57.000Z</time>
      </trkpt>
      <trkpt lat="47.51455" lon="6.64226">
        <ele>393</ele>
        <time>2015-03-22T09:42:58.000Z</time>
      </trkpt>
      <trkpt lat="47.51458" lon="6.64223">
        <ele>392</ele>
        <time>2015-03-22T09:42:59.000Z</time>
      </trkpt>
      <trkpt lat="47.51462" lon="6.6422">
        <ele>392</ele>
        <time>2015-03-22T09:43:00.000Z</time>
      </trkpt>
      <trkpt lat="47.51465" lon="6.64217">
        <ele>392</ele>
        <time>2015-03-22T09:43:01.000Z</time>
      </trkpt>
      <trkpt lat="47.51469" lon="6.64214">
        <ele>392</ele>
        <time>2015-03-22T09:43:02.000Z</time>
      </trkpt>
      <trkpt lat="47.51472" lon="6.6421">
        <ele>392</ele>
        <time>2015-03-22T09:43:03.000Z</time>
      </trkpt>
      <trkpt lat="47.51476" lon="6.64207">
        <ele>392</ele>
        <time>2015-03-22T09:43:04.000Z</time>
      </trkpt>
      <trkpt lat="47.51479" lon="6.64202">
        <ele>392</ele>
        <time>2015-03-22T09:43:05.000Z</time>
      </trkpt>
      <trkpt lat="47.51481" lon="6.64198">
        <ele>392</ele>
        <time>2015-03-22T09:43:06.000Z</time>
      </trkpt>
      <trkpt lat="47.51483" lon="6.64194">
        <ele>391</ele>
        <time>2015-03-22T09:43:07.000Z</time>
      </trkpt>
      <trkpt lat="47.51484" lon="6.64188">
        <ele>391</ele>
        <time>2015-03-22T09:43:08.000Z</time>
      </trkpt>
      <trkpt lat="47.51485" lon="6.64181">
        <ele>391</ele>
        <time>2015-03-22T09:43:09.000Z</time>
      </trkpt>
      <trkpt lat="47.51485" lon="6.64175">
        <ele>391</ele>
        <time>2015-03-22T09:43:10.000Z</time>
      </trkpt>
      <trkpt lat="47.51485" lon="6.6417">
        <ele>391</ele>
        <time>2015-03-22T09:43:11.000Z</time>
      </trkpt>
      <trkpt lat="47.51486" lon="6.64166">
        <ele>390</ele>
        <time>2015-03-22T09:43:12.000Z</time>
      </trkpt>
      <trkpt lat="47.51488" lon="6.64161">
        <ele>390</ele>
        <time>2015-03-22T09:43:13.000Z</time>
      </trkpt>
      <trkpt lat="47.51489" lon="6.64157">
        <ele>390</ele>
        <time>2015-03-22T09:43:14.000Z</time>
      </trkpt>
      <trkpt lat="47.51491" lon="6.64153">
        <ele>390</ele>
        <time>2015-03-22T09:43:15.000Z</time>
      </trkpt>
      <trkpt lat="47.51492" lon="6.6415">
        <ele>389</ele>
        <time>2015-03-22T09:43:16.000Z</time>
      </trkpt>
      <trkpt lat="47.51494" lon="6.64147">
        <ele>389</ele>
        <time>2015-03-22T09:43:17.000Z</time>
      </trkpt>
      <trkpt lat="47.51496" lon="6.64143">
        <ele>389</ele>
        <time>2015-03-22T09:43:19.000Z</time>
      </trkpt>
      <trkpt lat="47.51497" lon="6.64142">
        <ele>389</ele>
        <time>2015-03-22T09:43:20.000Z</time>
      </trkpt>
      <trkpt lat="47.515" lon="6.64139">
        <ele>389</ele>
        <time>2015-03-22T09:43:22.000Z</time>
      </trkpt>
      <trkpt lat="47.51501" lon="6.64134">
        <ele>387</ele>
        <time>2015-03-22T09:43:23.000Z</time>
      </trkpt>
      <trkpt lat="47.51503" lon="6.64131">
        <ele>386</ele>
        <time>2015-03-22T09:43:24.000Z</time>
      </trkpt>
      <trkpt lat="47.51505" lon="6.64127">
        <ele>386</ele>
        <time>2015-03-22T09:43:25.000Z</time>
      </trkpt>
      <trkpt lat="47.51507" lon="6.64124">
        <ele>386</ele>
        <time>2015-03-22T09:43:26.000Z</time>
      </trkpt>
      <trkpt lat="47.5151" lon="6.64122">
        <ele>386</ele>
        <time>2015-03-22T09:43:27.000Z</time>
      </trkpt>
      <trkpt lat="47.51513" lon="6.64119">
        <ele>386</ele>
        <time>2015-03-22T09:43:28.000Z</time>
      </trkpt>
      <trkpt lat="47.51516" lon="6.64117">
        <ele>386</ele>
        <time>2015-03-22T09:43:29.000Z</time>
      </trkpt>
      <trkpt lat="47.51519" lon="6.64114">
        <ele>386</ele>
        <time>2015-03-22T09:43:30.000Z</time>
      </trkpt>
      <trkpt lat="47.51521" lon="6.64112">
        <ele>386</ele>
        <time>2015-03-22T09:43:31.001Z</time>
      </trkpt>
      <trkpt lat="47.51524" lon="6.64108">
        <ele>386</ele>
        <time>2015-03-22T09:43:32.000Z</time>
      </trkpt>
      <trkpt lat="47.51527" lon="6.64105">
        <ele>386</ele>
        <time>2015-03-22T09:43:33.000Z</time>
      </trkpt>
      <trkpt lat="47.51529" lon="6.64103">
        <ele>386</ele>
        <time>2015-03-22T09:43:34.000Z</time>
      </trkpt>
      <trkpt lat="47.51531" lon="6.64101">
        <ele>385</ele>
        <time>2015-03-22T09:43:35.000Z</time>
      </trkpt>
      <trkpt lat="47.51534" lon="6.64099">
        <ele>385</ele>
        <time>2015-03-22T09:43:37.000Z</time>
      </trkpt>
      <trkpt lat="47.51535" lon="6.64097">
        <ele>385</ele>
        <time>2015-03-22T09:43:38.000Z</time>
      </trkpt>
      <trkpt lat="47.51531" lon="6.64101">
        <ele>385</ele>
        <time>2015-03-22T09:46:04.000Z</time>
      </trkpt>
      <trkpt lat="47.51531" lon="6.64101">
        <ele>385</ele>
        <time>2015-03-22T09:46:05.000Z</time>
      </trkpt>
      <trkpt lat="47.51535" lon="6.64104">
        <ele>385</ele>
        <time>2015-03-22T09:47:39.000Z</time>
      </trkpt>
      <trkpt lat="47.51536" lon="6.64104">
        <ele>385</ele>
        <time>2015-03-22T09:47:40.000Z</time>
      </trkpt>
      <trkpt lat="47.5154" lon="6.64101">
        <ele>385</ele>
        <time>2015-03-22T09:48:15.000Z</time>
      </trkpt>
      <trkpt lat="47.5154" lon="6.64101">
        <ele>385</ele>
        <time>2015-03-22T09:48:16.000Z</time>
      </trkpt>
      <trkpt lat="47.51535" lon="6.641">
        <ele>385</ele>
        <time>2015-03-22T09:49:48.000Z</time>
      </trkpt>
      <trkpt lat="47.51535" lon="6.641">
        <ele>385</ele>
        <time>2015-03-22T09:49:49.000Z</time>
      </trkpt>
      <trkpt lat="47.51536" lon="6.64099">
        <ele>385</ele>
        <time>2015-03-22T09:50:43.000Z</time>
      </trkpt>
      <trkpt lat="47.51542" lon="6.64093">
        <ele>385</ele>
        <time>2015-03-22T09:50:44.000Z</time>
      </trkpt>
      <trkpt lat="47.51544" lon="6.64091">
        <ele>385</ele>
        <time>2015-03-22T09:50:45.000Z</time>
      </trkpt>
      <trkpt lat="47.51548" lon="6.64088">
        <ele>385</ele>
        <time>2015-03-22T09:50:46.000Z</time>
      </trkpt>
      <trkpt lat="47.51551" lon="6.64086">
        <ele>385</ele>
        <time>2015-03-22T09:50:47.000Z</time>
      </trkpt>
      <trkpt lat="47.51554" lon="6.64084">
        <ele>385</ele>
        <time>2015-03-22T09:50:48.000Z</time>
      </trkpt>
      <trkpt lat="47.51558" lon="6.64082">
        <ele>384</ele>
        <time>2015-03-22T09:50:49.000Z</time>
      </trkpt>
      <trkpt lat="47.51561" lon="6.64079">
        <ele>384</ele>
        <time>2015-03-22T09:50:50.000Z</time>
      </trkpt>
      <trkpt lat="47.51564" lon="6.64077">
        <ele>384</ele>
        <time>2015-03-22T09:50:51.000Z</time>
      </trkpt>
      <trkpt lat="47.51569" lon="6.64074">
        <ele>384</ele>
        <time>2015-03-22T09:50:52.000Z</time>
      </trkpt>
      <trkpt lat="47.51571" lon="6.64073">
        <ele>383</ele>
        <time>2015-03-22T09:50:53.000Z</time>
      </trkpt>
      <trkpt lat="47.51574" lon="6.64072">
        <ele>383</ele>
        <time>2015-03-22T09:50:54.000Z</time>
      </trkpt>
      <trkpt lat="47.51576" lon="6.64071">
        <ele>383</ele>
        <time>2015-03-22T09:50:55.000Z</time>
      </trkpt>
      <trkpt lat="47.51579" lon="6.6407">
        <ele>383</ele>
        <time>2015-03-22T09:50:56.000Z</time>
      </trkpt>
      <trkpt lat="47.51582" lon="6.64068">
        <ele>383</ele>
        <time>2015-03-22T09:50:57.000Z</time>
      </trkpt>
      <trkpt lat="47.51585" lon="6.64067">
        <ele>384</ele>
        <time>2015-03-22T09:50:58.000Z</time>
      </trkpt>
      <trkpt lat="47.51587" lon="6.64065">
        <ele>384</ele>
        <time>2015-03-22T09:50:59.000Z</time>
      </trkpt>
      <trkpt lat="47.51589" lon="6.64064">
        <ele>384</ele>
        <time>2015-03-22T09:50:59.999Z</time>
      </trkpt>
      <trkpt lat="47.5159" lon="6.6406">
        <ele>384</ele>
        <time>2015-03-22T09:51:01.000Z</time>
      </trkpt>
      <trkpt lat="47.5159" lon="6.64056">
        <ele>384</ele>
        <time>2015-03-22T09:51:02.000Z</time>
      </trkpt>
      <trkpt lat="47.51586" lon="6.64045">
        <ele>384</ele>
        <time>2015-03-22T09:51:03.000Z</time>
      </trkpt>
      <trkpt lat="47.51583" lon="6.64039">
        <ele>384</ele>
        <time>2015-03-22T09:51:04.000Z</time>
      </trkpt>
      <trkpt lat="47.51581" lon="6.64034">
        <ele>384</ele>
        <time>2015-03-22T09:51:05.000Z</time>
      </trkpt>
      <trkpt lat="47.51577" lon="6.64028">
        <ele>384</ele>
        <time>2015-03-22T09:51:06.000Z</time>
      </trkpt>
      <trkpt lat="47.51574" lon="6.64022">
        <ele>384</ele>
        <time>2015-03-22T09:51:07.000Z</time>
      </trkpt>
      <trkpt lat="47.51572" lon="6.64014">
        <ele>384</ele>
        <time>2015-03-22T09:51:08.000Z</time>
      </trkpt>
      <trkpt lat="47.51568" lon="6.64009">
        <ele>384</ele>
        <time>2015-03-22T09:51:09.000Z</time>
      </trkpt>
      <trkpt lat="47.51565" lon="6.64003">
        <ele>384</ele>
        <time>2015-03-22T09:51:10.000Z</time>
      </trkpt>
      <trkpt lat="47.51561" lon="6.63997">
        <ele>386</ele>
        <time>2015-03-22T09:51:11.000Z</time>
      </trkpt>
      <trkpt lat="47.51557" lon="6.63991">
        <ele>386</ele>
        <time>2015-03-22T09:51:12.000Z</time>
      </trkpt>
      <trkpt lat="47.51555" lon="6.63984">
        <ele>386</ele>
        <time>2015-03-22T09:51:13.000Z</time>
      </trkpt>
      <trkpt lat="47.51552" lon="6.63978">
        <ele>386</ele>
        <time>2015-03-22T09:51:14.000Z</time>
      </trkpt>
      <trkpt lat="47.51549" lon="6.63973">
        <ele>386</ele>
        <time>2015-03-22T09:51:15.000Z</time>
      </trkpt>
      <trkpt lat="47.51547" lon="6.63969">
        <ele>386</ele>
        <time>2015-03-22T09:51:16.000Z</time>
      </trkpt>
      <trkpt lat="47.51545" lon="6.63965">
        <ele>386</ele>
        <time>2015-03-22T09:51:17.000Z</time>
      </trkpt>
      <trkpt lat="47.51543" lon="6.6396">
        <ele>386</ele>
        <time>2015-03-22T09:51:18.000Z</time>
      </trkpt>
      <trkpt lat="47.51541" lon="6.63955">
        <ele>386</ele>
        <time>2015-03-22T09:51:19.000Z</time>
      </trkpt>
      <trkpt lat="47.51538" lon="6.63949">
        <ele>386</ele>
        <time>2015-03-22T09:51:20.000Z</time>
      </trkpt>
      <trkpt lat="47.51536" lon="6.63942">
        <ele>387</ele>
        <time>2015-03-22T09:51:21.000Z</time>
      </trkpt>
      <trkpt lat="47.51534" lon="6.63938">
        <ele>387</ele>
        <time>2015-03-22T09:51:22.000Z</time>
      </trkpt>
      <trkpt lat="47.51531" lon="6.63932">
        <ele>387</ele>
        <time>2015-03-22T09:51:23.000Z</time>
      </trkpt>
      <trkpt lat="47.51528" lon="6.63927">
        <ele>386</ele>
        <time>2015-03-22T09:51:24.000Z</time>
      </trkpt>
      <trkpt lat="47.51524" lon="6.63919">
        <ele>386</ele>
        <time>2015-03-22T09:51:25.000Z</time>
      </trkpt>
      <trkpt lat="47.51521" lon="6.63914">
        <ele>389</ele>
        <time>2015-03-22T09:51:26.000Z</time>
      </trkpt>
      <trkpt lat="47.51518" lon="6.63909">
        <ele>389</ele>
        <time>2015-03-22T09:51:27.000Z</time>
      </trkpt>
      <trkpt lat="47.51515" lon="6.63904">
        <ele>389</ele>
        <time>2015-03-22T09:51:28.000Z</time>
      </trkpt>
      <trkpt lat="47.51512" lon="6.63898">
        <ele>389</ele>
        <time>2015-03-22T09:51:29.000Z</time>
      </trkpt>
      <trkpt lat="47.51509" lon="6.63892">
        <ele>389</ele>
        <time>2015-03-22T09:51:30.000Z</time>
      </trkpt>
      <trkpt lat="47.51506" lon="6.63887">
        <ele>390</ele>
        <time>2015-03-22T09:51:31.000Z</time>
      </trkpt>
      <trkpt lat="47.51503" lon="6.63881">
        <ele>390</ele>
        <time>2015-03-22T09:51:32.000Z</time>
      </trkpt>
      <trkpt lat="47.515" lon="6.63875">
        <ele>390</ele>
        <time>2015-03-22T09:51:33.000Z</time>
      </trkpt>
      <trkpt lat="47.51497" lon="6.63869">
        <ele>386</ele>
        <time>2015-03-22T09:51:34.000Z</time>
      </trkpt>
      <trkpt lat="47.51494" lon="6.63864">
        <ele>386</ele>
        <time>2015-03-22T09:51:35.000Z</time>
      </trkpt>
      <trkpt lat="47.51491" lon="6.63858">
        <ele>387</ele>
        <time>2015-03-22T09:51:36.000Z</time>
      </trkpt>
      <trkpt lat="47.51487" lon="6.6385">
        <ele>387</ele>
        <time>2015-03-22T09:51:37.000Z</time>
      </trkpt>
      <trkpt lat="47.51484" lon="6.63844">
        <ele>387</ele>
        <time>2015-03-22T09:51:38.000Z</time>
      </trkpt>
      <trkpt lat="47.51481" lon="6.63838">
        <ele>387</ele>
        <time>2015-03-22T09:51:39.000Z</time>
      </trkpt>
      <trkpt lat="47.51478" lon="6.63832">
        <ele>389</ele>
        <time>2015-03-22T09:51:40.000Z</time>
      </trkpt>
      <trkpt lat="47.51475" lon="6.63826">
        <ele>388</ele>
        <time>2015-03-22T09:51:41.000Z</time>
      </trkpt>
      <trkpt lat="47.51471" lon="6.6382">
        <ele>388</ele>
        <time>2015-03-22T09:51:42.000Z</time>
      </trkpt>
      <trkpt lat="47.51467" lon="6.63814">
        <ele>388</ele>
        <time>2015-03-22T09:51:43.000Z</time>
      </trkpt>
      <trkpt lat="47.51464" lon="6.63807">
        <ele>388</ele>
        <time>2015-03-22T09:51:44.000Z</time>
      </trkpt>
      <trkpt lat="47.51461" lon="6.63801">
        <ele>387</ele>
        <time>2015-03-22T09:51:45.000Z</time>
      </trkpt>
      <trkpt lat="47.51458" lon="6.63795">
        <ele>387</ele>
        <time>2015-03-22T09:51:46.000Z</time>
      </trkpt>
      <trkpt lat="47.51454" lon="6.63788">
        <ele>387</ele>
        <time>2015-03-22T09:51:47.000Z</time>
      </trkpt>
      <trkpt lat="47.51451" lon="6.63781">
        <ele>387</ele>
        <time>2015-03-22T09:51:48.000Z</time>
      </trkpt>
      <trkpt lat="47.51447" lon="6.63773">
        <ele>387</ele>
        <time>2015-03-22T09:51:49.000Z</time>
      </trkpt>
      <trkpt lat="47.51444" lon="6.63767">
        <ele>387</ele>
        <time>2015-03-22T09:51:50.000Z</time>
      </trkpt>
      <trkpt lat="47.51441" lon="6.63762">
        <ele>387</ele>
        <time>2015-03-22T09:51:51.000Z</time>
      </trkpt>
      <trkpt lat="47.51438" lon="6.63756">
        <ele>387</ele>
        <time>2015-03-22T09:51:52.000Z</time>
      </trkpt>
      <trkpt lat="47.51434" lon="6.63749">
        <ele>389</ele>
        <time>2015-03-22T09:51:53.000Z</time>
      </trkpt>
      <trkpt lat="47.51432" lon="6.63741">
        <ele>389</ele>
        <time>2015-03-22T09:51:54.000Z</time>
      </trkpt>
      <trkpt lat="47.51429" lon="6.63736">
        <ele>389</ele>
        <time>2015-03-22T09:51:55.000Z</time>
      </trkpt>
      <trkpt lat="47.51425" lon="6.63731">
        <ele>390</ele>
        <time>2015-03-22T09:51:56.000Z</time>
      </trkpt>
      <trkpt lat="47.51422" lon="6.63725">
        <ele>390</ele>
        <time>2015-03-22T09:51:57.000Z</time>
      </trkpt>
      <trkpt lat="47.51419" lon="6.63719">
        <ele>390</ele>
        <time>2015-03-22T09:51:58.000Z</time>
      </trkpt>
      <trkpt lat="47.51415" lon="6.63712">
        <ele>387</ele>
        <time>2015-03-22T09:51:59.000Z</time>
      </trkpt>
      <trkpt lat="47.51413" lon="6.63706">
        <ele>387</ele>
        <time>2015-03-22T09:52:00.000Z</time>
      </trkpt>
      <trkpt lat="47.5141" lon="6.63701">
        <ele>387</ele>
        <time>2015-03-22T09:52:01.000Z</time>
      </trkpt>
      <trkpt lat="47.5141" lon="6.63695">
        <ele>387</ele>
        <time>2015-03-22T09:52:02.000Z</time>
      </trkpt>
      <trkpt lat="47.51412" lon="6.63689">
        <ele>388</ele>
        <time>2015-03-22T09:52:03.000Z</time>
      </trkpt>
      <trkpt lat="47.51412" lon="6.63683">
        <ele>388</ele>
        <time>2015-03-22T09:52:04.000Z</time>
      </trkpt>
      <trkpt lat="47.51414" lon="6.63676">
        <ele>389</ele>
        <time>2015-03-22T09:52:05.000Z</time>
      </trkpt>
      <trkpt lat="47.51416" lon="6.63672">
        <ele>389</ele>
        <time>2015-03-22T09:52:06.000Z</time>
      </trkpt>
      <trkpt lat="47.51417" lon="6.63665">
        <ele>391</ele>
        <time>2015-03-22T09:52:07.000Z</time>
      </trkpt>
      <trkpt lat="47.51416" lon="6.63659">
        <ele>390</ele>
        <time>2015-03-22T09:52:09.000Z</time>
      </trkpt>
      <trkpt lat="47.51417" lon="6.63655">
        <ele>393</ele>
        <time>2015-03-22T09:52:10.000Z</time>
      </trkpt>
      <trkpt lat="47.51416" lon="6.63651">
        <ele>391</ele>
        <time>2015-03-22T09:52:11.000Z</time>
      </trkpt>
      <trkpt lat="47.51417" lon="6.63648">
        <ele>391</ele>
        <time>2015-03-22T09:52:12.000Z</time>
      </trkpt>
      <trkpt lat="47.51416" lon="6.63641">
        <ele>391</ele>
        <time>2015-03-22T09:52:14.000Z</time>
      </trkpt>
      <trkpt lat="47.51416" lon="6.63638">
        <ele>391</ele>
        <time>2015-03-22T09:52:15.000Z</time>
      </trkpt>
      <trkpt lat="47.51416" lon="6.63634">
        <ele>392</ele>
        <time>2015-03-22T09:52:16.000Z</time>
      </trkpt>
      <trkpt lat="47.51415" lon="6.6363">
        <ele>392</ele>
        <time>2015-03-22T09:52:17.000Z</time>
      </trkpt>
      <trkpt lat="47.51415" lon="6.63626">
        <ele>392</ele>
        <time>2015-03-22T09:52:18.000Z</time>
      </trkpt>
      <trkpt lat="47.51415" lon="6.63623">
        <ele>392</ele>
        <time>2015-03-22T09:52:19.000Z</time>
      </trkpt>
      <trkpt lat="47.51416" lon="6.63618">
        <ele>393</ele>
        <time>2015-03-22T09:52:21.000Z</time>
      </trkpt>
      <trkpt lat="47.51416" lon="6.63616">
        <ele>393</ele>
        <time>2015-03-22T09:52:22.000Z</time>
      </trkpt>
      <trkpt lat="47.51415" lon="6.63609">
        <ele>393</ele>
        <time>2015-03-22T09:52:24.000Z</time>
      </trkpt>
      <trkpt lat="47.51414" lon="6.63605">
        <ele>394</ele>
        <time>2015-03-22T09:52:25.000Z</time>
      </trkpt>
      <trkpt lat="47.51414" lon="6.63601">
        <ele>394</ele>
        <time>2015-03-22T09:52:26.000Z</time>
      </trkpt>
      <trkpt lat="47.51413" lon="6.63597">
        <ele>395</ele>
        <time>2015-03-22T09:52:27.000Z</time>
      </trkpt>
      <trkpt lat="47.51413" lon="6.63593">
        <ele>396</ele>
        <time>2015-03-22T09:52:28.000Z</time>
      </trkpt>
      <trkpt lat="47.51412" lon="6.6359">
        <ele>396</ele>
        <time>2015-03-22T09:52:29.000Z</time>
      </trkpt>
      <trkpt lat="47.51412" lon="6.63586">
        <ele>397</ele>
        <time>2015-03-22T09:52:30.000Z</time>
      </trkpt>
      <trkpt lat="47.51412" lon="6.63582">
        <ele>398</ele>
        <time>2015-03-22T09:52:31.000Z</time>
      </trkpt>
      <trkpt lat="47.51412" lon="6.63576">
        <ele>398</ele>
        <time>2015-03-22T09:52:33.000Z</time>
      </trkpt>
      <trkpt lat="47.51411" lon="6.63574">
        <ele>398</ele>
        <time>2015-03-22T09:52:34.000Z</time>
      </trkpt>
      <trkpt lat="47.51411" lon="6.63568">
        <ele>398</ele>
        <time>2015-03-22T09:52:36.000Z</time>
      </trkpt>
      <trkpt lat="47.5141" lon="6.63564">
        <ele>398</ele>
        <time>2015-03-22T09:52:37.000Z</time>
      </trkpt>
      <trkpt lat="47.5141" lon="6.63561">
        <ele>398</ele>
        <time>2015-03-22T09:52:38.000Z</time>
      </trkpt>
      <trkpt lat="47.5141" lon="6.63557">
        <ele>399</ele>
        <time>2015-03-22T09:52:39.000Z</time>
      </trkpt>
      <trkpt lat="47.5141" lon="6.63553">
        <ele>399</ele>
        <time>2015-03-22T09:52:40.000Z</time>
      </trkpt>
      <trkpt lat="47.5141" lon="6.63549">
        <ele>399</ele>
        <time>2015-03-22T09:52:41.000Z</time>
      </trkpt>
      <trkpt lat="47.5141" lon="6.63546">
        <ele>399</ele>
        <time>2015-03-22T09:52:42.000Z</time>
      </trkpt>
      <trkpt lat="47.5141" lon="6.63542">
        <ele>399</ele>
        <time>2015-03-22T09:52:43.000Z</time>
      </trkpt>
      <trkpt lat="47.5141" lon="6.63538">
        <ele>400</ele>
        <time>2015-03-22T09:52:44.000Z</time>
      </trkpt>
      <trkpt lat="47.5141" lon="6.63535">
        <ele>400</ele>
        <time>2015-03-22T09:52:45.000Z</time>
      </trkpt>
      <trkpt lat="47.51409" lon="6.63532">
        <ele>400</ele>
        <time>2015-03-22T09:52:46.000Z</time>
      </trkpt>
      <trkpt lat="47.51409" lon="6.63528">
        <ele>400</ele>
        <time>2015-03-22T09:52:47.000Z</time>
      </trkpt>
      <trkpt lat="47.51408" lon="6.63522">
        <ele>401</ele>
        <time>2015-03-22T09:52:49.000Z</time>
      </trkpt>
      <trkpt lat="47.51407" lon="6.6352">
        <ele>401</ele>
        <time>2015-03-22T09:52:50.000Z</time>
      </trkpt>
      <trkpt lat="47.51406" lon="6.63514">
        <ele>402</ele>
        <time>2015-03-22T09:52:52.000Z</time>
      </trkpt>
      <trkpt lat="47.51405" lon="6.63511">
        <ele>402</ele>
        <time>2015-03-22T09:52:53.000Z</time>
      </trkpt>
      <trkpt lat="47.51405" lon="6.63507">
        <ele>403</ele>
        <time>2015-03-22T09:52:54.000Z</time>
      </trkpt>
      <trkpt lat="47.51404" lon="6.63503">
        <ele>403</ele>
        <time>2015-03-22T09:52:55.000Z</time>
      </trkpt>
      <trkpt lat="47.51403" lon="6.63499">
        <ele>405</ele>
        <time>2015-03-22T09:52:56.000Z</time>
      </trkpt>
      <trkpt lat="47.51403" lon="6.63496">
        <ele>405</ele>
        <time>2015-03-22T09:52:57.000Z</time>
      </trkpt>
      <trkpt lat="47.51401" lon="6.63491">
        <ele>405</ele>
        <time>2015-03-22T09:52:59.000Z</time>
      </trkpt>
      <trkpt lat="47.51401" lon="6.6349">
        <ele>405</ele>
        <time>2015-03-22T09:53:00.000Z</time>
      </trkpt>
      <trkpt lat="47.514" lon="6.63485">
        <ele>405</ele>
        <time>2015-03-22T09:53:02.000Z</time>
      </trkpt>
      <trkpt lat="47.514" lon="6.63482">
        <ele>405</ele>
        <time>2015-03-22T09:53:03.000Z</time>
      </trkpt>
      <trkpt lat="47.51399" lon="6.63476">
        <ele>405</ele>
        <time>2015-03-22T09:53:06.000Z</time>
      </trkpt>
      <trkpt lat="47.51399" lon="6.63475">
        <ele>405</ele>
        <time>2015-03-22T09:53:07.000Z</time>
      </trkpt>
      <trkpt lat="47.51399" lon="6.6347">
        <ele>405</ele>
        <time>2015-03-22T09:53:10.000Z</time>
      </trkpt>
      <trkpt lat="47.51399" lon="6.63467">
        <ele>405</ele>
        <time>2015-03-22T09:53:11.000Z</time>
      </trkpt>
      <trkpt lat="47.51399" lon="6.63462">
        <ele>406</ele>
        <time>2015-03-22T09:53:13.000Z</time>
      </trkpt>
      <trkpt lat="47.51398" lon="6.63459">
        <ele>406</ele>
        <time>2015-03-22T09:53:14.000Z</time>
      </trkpt>
      <trkpt lat="47.51397" lon="6.63454">
        <ele>406</ele>
        <time>2015-03-22T09:53:16.000Z</time>
      </trkpt>
      <trkpt lat="47.51397" lon="6.63452">
        <ele>406</ele>
        <time>2015-03-22T09:53:17.000Z</time>
      </trkpt>
      <trkpt lat="47.51397" lon="6.63448">
        <ele>406</ele>
        <time>2015-03-22T09:53:19.000Z</time>
      </trkpt>
      <trkpt lat="47.51397" lon="6.63445">
        <ele>407</ele>
        <time>2015-03-22T09:53:20.000Z</time>
      </trkpt>
      <trkpt lat="47.51397" lon="6.63441">
        <ele>407</ele>
        <time>2015-03-22T09:53:21.000Z</time>
      </trkpt>
      <trkpt lat="47.51395" lon="6.63437">
        <ele>407</ele>
        <time>2015-03-22T09:53:22.000Z</time>
      </trkpt>
      <trkpt lat="47.51393" lon="6.63433">
        <ele>407</ele>
        <time>2015-03-22T09:53:23.000Z</time>
      </trkpt>
      <trkpt lat="47.51393" lon="6.6343">
        <ele>407</ele>
        <time>2015-03-22T09:53:24.000Z</time>
      </trkpt>
      <trkpt lat="47.51394" lon="6.63423">
        <ele>408</ele>
        <time>2015-03-22T09:53:28.000Z</time>
      </trkpt>
      <trkpt lat="47.51394" lon="6.63423">
        <ele>408</ele>
        <time>2015-03-22T09:53:29.000Z</time>
      </trkpt>
      <trkpt lat="47.51393" lon="6.63416">
        <ele>411</ele>
        <time>2015-03-22T09:53:32.000Z</time>
      </trkpt>
      <trkpt lat="47.51393" lon="6.63414">
        <ele>411</ele>
        <time>2015-03-22T09:53:33.000Z</time>
      </trkpt>
      <trkpt lat="47.51391" lon="6.63408">
        <ele>411</ele>
        <time>2015-03-22T09:53:36.000Z</time>
      </trkpt>
      <trkpt lat="47.51391" lon="6.63405">
        <ele>411</ele>
        <time>2015-03-22T09:53:37.000Z</time>
      </trkpt>
      <trkpt lat="47.51391" lon="6.634">
        <ele>411</ele>
        <time>2015-03-22T09:53:40.000Z</time>
      </trkpt>
      <trkpt lat="47.5139" lon="6.63398">
        <ele>411</ele>
        <time>2015-03-22T09:53:41.000Z</time>
      </trkpt>
      <trkpt lat="47.51393" lon="6.63393">
        <ele>411</ele>
        <time>2015-03-22T09:53:45.000Z</time>
      </trkpt>
      <trkpt lat="47.51394" lon="6.63392">
        <ele>411</ele>
        <time>2015-03-22T09:53:46.000Z</time>
      </trkpt>
      <trkpt lat="47.51397" lon="6.63388">
        <ele>411</ele>
        <time>2015-03-22T09:53:48.000Z</time>
      </trkpt>
      <trkpt lat="47.51398" lon="6.63383">
        <ele>411</ele>
        <time>2015-03-22T09:53:49.000Z</time>
      </trkpt>
      <trkpt lat="47.51399" lon="6.6338">
        <ele>411</ele>
        <time>2015-03-22T09:53:50.000Z</time>
      </trkpt>
      <trkpt lat="47.51399" lon="6.63376">
        <ele>411</ele>
        <time>2015-03-22T09:53:51.000Z</time>
      </trkpt>
      <trkpt lat="47.514" lon="6.63373">
        <ele>411</ele>
        <time>2015-03-22T09:53:52.000Z</time>
      </trkpt>
      <trkpt lat="47.514" lon="6.63368">
        <ele>412</ele>
        <time>2015-03-22T09:53:53.000Z</time>
      </trkpt>
      <trkpt lat="47.51401" lon="6.63364">
        <ele>412</ele>
        <time>2015-03-22T09:53:54.000Z</time>
      </trkpt>
      <trkpt lat="47.51401" lon="6.6336">
        <ele>412</ele>
        <time>2015-03-22T09:53:55.000Z</time>
      </trkpt>
      <trkpt lat="47.51403" lon="6.63355">
        <ele>413</ele>
        <time>2015-03-22T09:53:56.975Z</time>
      </trkpt>
      <trkpt lat="47.51403" lon="6.63351">
        <ele>413</ele>
        <time>2015-03-22T09:53:58.000Z</time>
      </trkpt>
      <trkpt lat="47.51404" lon="6.63344">
        <ele>414</ele>
        <time>2015-03-22T09:54:00.000Z</time>
      </trkpt>
      <trkpt lat="47.51404" lon="6.63341">
        <ele>414</ele>
        <time>2015-03-22T09:54:01.000Z</time>
      </trkpt>
      <trkpt lat="47.51405" lon="6.63337">
        <ele>414</ele>
        <time>2015-03-22T09:54:02.000Z</time>
      </trkpt>
      <trkpt lat="47.51405" lon="6.63332">
        <ele>417</ele>
        <time>2015-03-22T09:54:03.000Z</time>
      </trkpt>
      <trkpt lat="47.51405" lon="6.63328">
        <ele>417</ele>
        <time>2015-03-22T09:54:04.000Z</time>
      </trkpt>
      <trkpt lat="47.51405" lon="6.63323">
        <ele>417</ele>
        <time>2015-03-22T09:54:05.000Z</time>
      </trkpt>
      <trkpt lat="47.51405" lon="6.63318">
        <ele>417</ele>
        <time>2015-03-22T09:54:06.000Z</time>
      </trkpt>
      <trkpt lat="47.51405" lon="6.63314">
        <ele>417</ele>
        <time>2015-03-22T09:54:07.000Z</time>
      </trkpt>
      <trkpt lat="47.51406" lon="6.63309">
        <ele>417</ele>
        <time>2015-03-22T09:54:08.000Z</time>
      </trkpt>
      <trkpt lat="47.51406" lon="6.63304">
        <ele>417</ele>
        <time>2015-03-22T09:54:09.000Z</time>
      </trkpt>
      <trkpt lat="47.51406" lon="6.63299">
        <ele>418</ele>
        <time>2015-03-22T09:54:10.000Z</time>
      </trkpt>
      <trkpt lat="47.51406" lon="6.63294">
        <ele>418</ele>
        <time>2015-03-22T09:54:11.000Z</time>
      </trkpt>
      <trkpt lat="47.51407" lon="6.63289">
        <ele>418</ele>
        <time>2015-03-22T09:54:12.000Z</time>
      </trkpt>
      <trkpt lat="47.51407" lon="6.63285">
        <ele>419</ele>
        <time>2015-03-22T09:54:13.000Z</time>
      </trkpt>
      <trkpt lat="47.51407" lon="6.6328">
        <ele>419</ele>
        <time>2015-03-22T09:54:14.000Z</time>
      </trkpt>
      <trkpt lat="47.51407" lon="6.63276">
        <ele>419</ele>
        <time>2015-03-22T09:54:15.000Z</time>
      </trkpt>
      <trkpt lat="47.51407" lon="6.63271">
        <ele>420</ele>
        <time>2015-03-22T09:54:16.000Z</time>
      </trkpt>
      <trkpt lat="47.51407" lon="6.63267">
        <ele>420</ele>
        <time>2015-03-22T09:54:17.000Z</time>
      </trkpt>
      <trkpt lat="47.51407" lon="6.63262">
        <ele>421</ele>
        <time>2015-03-22T09:54:18.000Z</time>
      </trkpt>
      <trkpt lat="47.51407" lon="6.63258">
        <ele>422</ele>
        <time>2015-03-22T09:54:19.000Z</time>
      </trkpt>
      <trkpt lat="47.51406" lon="6.63253">
        <ele>422</ele>
        <time>2015-03-22T09:54:20.000Z</time>
      </trkpt>
      <trkpt lat="47.51406" lon="6.63249">
        <ele>424</ele>
        <time>2015-03-22T09:54:21.000Z</time>
      </trkpt>
      <trkpt lat="47.51406" lon="6.63244">
        <ele>424</ele>
        <time>2015-03-22T09:54:22.000Z</time>
      </trkpt>
      <trkpt lat="47.51406" lon="6.6324">
        <ele>424</ele>
        <time>2015-03-22T09:54:23.000Z</time>
      </trkpt>
      <trkpt lat="47.51406" lon="6.63235">
        <ele>424</ele>
        <time>2015-03-22T09:54:24.000Z</time>
      </trkpt>
      <trkpt lat="47.51406" lon="6.63231">
        <ele>424</ele>
        <time>2015-03-22T09:54:25.000Z</time>
      </trkpt>
      <trkpt lat="47.51406" lon="6.63227">
        <ele>424</ele>
        <time>2015-03-22T09:54:26.000Z</time>
      </trkpt>
      <trkpt lat="47.51406" lon="6.63223">
        <ele>424</ele>
        <time>2015-03-22T09:54:27.000Z</time>
      </trkpt>
      <trkpt lat="47.51406" lon="6.63219">
        <ele>424</ele>
        <time>2015-03-22T09:54:28.000Z</time>
      </trkpt>
      <trkpt lat="47.51406" lon="6.63215">
        <ele>425</ele>
        <time>2015-03-22T09:54:29.000Z</time>
      </trkpt>
      <trkpt lat="47.51406" lon="6.63211">
        <ele>425</ele>
        <time>2015-03-22T09:54:30.000Z</time>
      </trkpt>
      <trkpt lat="47.51406" lon="6.63207">
        <ele>425</ele>
        <time>2015-03-22T09:54:31.000Z</time>
      </trkpt>
      <trkpt lat="47.51406" lon="6.63204">
        <ele>425</ele>
        <time>2015-03-22T09:54:32.000Z</time>
      </trkpt>
      <trkpt lat="47.51406" lon="6.632">
        <ele>425</ele>
        <time>2015-03-22T09:54:33.000Z</time>
      </trkpt>
      <trkpt lat="47.51406" lon="6.63196">
        <ele>425</ele>
        <time>2015-03-22T09:54:34.000Z</time>
      </trkpt>
      <trkpt lat="47.51407" lon="6.63193">
        <ele>426</ele>
        <time>2015-03-22T09:54:35.000Z</time>
      </trkpt>
      <trkpt lat="47.51406" lon="6.63189">
        <ele>426</ele>
        <time>2015-03-22T09:54:36.000Z</time>
      </trkpt>
      <trkpt lat="47.51404" lon="6.63186">
        <ele>426</ele>
        <time>2015-03-22T09:54:37.000Z</time>
      </trkpt>
      <trkpt lat="47.51403" lon="6.63182">
        <ele>426</ele>
        <time>2015-03-22T09:54:38.000Z</time>
      </trkpt>
      <trkpt lat="47.51403" lon="6.63179">
        <ele>426</ele>
        <time>2015-03-22T09:54:39.000Z</time>
      </trkpt>
      <trkpt lat="47.51404" lon="6.63173">
        <ele>427</ele>
        <time>2015-03-22T09:54:41.000Z</time>
      </trkpt>
      <trkpt lat="47.51405" lon="6.6317">
        <ele>427</ele>
        <time>2015-03-22T09:54:42.000Z</time>
      </trkpt>
      <trkpt lat="47.51407" lon="6.63164">
        <ele>429</ele>
        <time>2015-03-22T09:54:45.000Z</time>
      </trkpt>
      <trkpt lat="47.51407" lon="6.63164">
        <ele>429</ele>
        <time>2015-03-22T09:54:46.000Z</time>
      </trkpt>
      <trkpt lat="47.51408" lon="6.63159">
        <ele>429</ele>
        <time>2015-03-22T09:54:49.000Z</time>
      </trkpt>
      <trkpt lat="47.51408" lon="6.63157">
        <ele>429</ele>
        <time>2015-03-22T09:54:50.000Z</time>
      </trkpt>
      <trkpt lat="47.51409" lon="6.6315">
        <ele>430</ele>
        <time>2015-03-22T09:54:52.000Z</time>
      </trkpt>
      <trkpt lat="47.5141" lon="6.63147">
        <ele>430</ele>
        <time>2015-03-22T09:54:53.000Z</time>
      </trkpt>
      <trkpt lat="47.5141" lon="6.63143">
        <ele>430</ele>
        <time>2015-03-22T09:54:54.000Z</time>
      </trkpt>
      <trkpt lat="47.51411" lon="6.63138">
        <ele>430</ele>
        <time>2015-03-22T09:54:55.000Z</time>
      </trkpt>
      <trkpt lat="47.51412" lon="6.63135">
        <ele>430</ele>
        <time>2015-03-22T09:54:56.000Z</time>
      </trkpt>
      <trkpt lat="47.51412" lon="6.63131">
        <ele>430</ele>
        <time>2015-03-22T09:54:57.000Z</time>
      </trkpt>
      <trkpt lat="47.51412" lon="6.63124">
        <ele>431</ele>
        <time>2015-03-22T09:54:59.000Z</time>
      </trkpt>
      <trkpt lat="47.51412" lon="6.63121">
        <ele>431</ele>
        <time>2015-03-22T09:55:00.000Z</time>
      </trkpt>
      <trkpt lat="47.51412" lon="6.63118">
        <ele>431</ele>
        <time>2015-03-22T09:55:01.000Z</time>
      </trkpt>
      <trkpt lat="47.51412" lon="6.63114">
        <ele>431</ele>
        <time>2015-03-22T09:55:02.000Z</time>
      </trkpt>
      <trkpt lat="47.51412" lon="6.6311">
        <ele>431</ele>
        <time>2015-03-22T09:55:03.000Z</time>
      </trkpt>
      <trkpt lat="47.51412" lon="6.63106">
        <ele>432</ele>
        <time>2015-03-22T09:55:04.000Z</time>
      </trkpt>
      <trkpt lat="47.51411" lon="6.63101">
        <ele>432</ele>
        <time>2015-03-22T09:55:05.000Z</time>
      </trkpt>
      <trkpt lat="47.51411" lon="6.63095">
        <ele>432</ele>
        <time>2015-03-22T09:55:06.000Z</time>
      </trkpt>
      <trkpt lat="47.51412" lon="6.6309">
        <ele>433</ele>
        <time>2015-03-22T09:55:07.000Z</time>
      </trkpt>
      <trkpt lat="47.51413" lon="6.63086">
        <ele>433</ele>
        <time>2015-03-22T09:55:08.000Z</time>
      </trkpt>
      <trkpt lat="47.51414" lon="6.63082">
        <ele>434</ele>
        <time>2015-03-22T09:55:09.000Z</time>
      </trkpt>
      <trkpt lat="47.51415" lon="6.63079">
        <ele>434</ele>
        <time>2015-03-22T09:55:10.000Z</time>
      </trkpt>
      <trkpt lat="47.51417" lon="6.63073">
        <ele>436</ele>
        <time>2015-03-22T09:55:13.000Z</time>
      </trkpt>
      <trkpt lat="47.51417" lon="6.63072">
        <ele>435</ele>
        <time>2015-03-22T09:55:14.000Z</time>
      </trkpt>
      <trkpt lat="47.51416" lon="6.63069">
        <ele>435</ele>
        <time>2015-03-22T09:55:16.000Z</time>
      </trkpt>
      <trkpt lat="47.51413" lon="6.63066">
        <ele>435</ele>
        <time>2015-03-22T09:55:17.000Z</time>
      </trkpt>
      <trkpt lat="47.51411" lon="6.63063">
        <ele>435</ele>
        <time>2015-03-22T09:55:18.000Z</time>
      </trkpt>
      <trkpt lat="47.51408" lon="6.6306">
        <ele>435</ele>
        <time>2015-03-22T09:55:19.000Z</time>
      </trkpt>
      <trkpt lat="47.51406" lon="6.63057">
        <ele>435</ele>
        <time>2015-03-22T09:55:20.000Z</time>
      </trkpt>
      <trkpt lat="47.51404" lon="6.63054">
        <ele>435</ele>
        <time>2015-03-22T09:55:21.000Z</time>
      </trkpt>
      <trkpt lat="47.51402" lon="6.63049">
        <ele>435</ele>
        <time>2015-03-22T09:55:23.000Z</time>
      </trkpt>
      <trkpt lat="47.51401" lon="6.63048">
        <ele>435</ele>
        <time>2015-03-22T09:55:24.000Z</time>
      </trkpt>
      <trkpt lat="47.51399" lon="6.63043">
        <ele>436</ele>
        <time>2015-03-22T09:55:27.000Z</time>
      </trkpt>
      <trkpt lat="47.51397" lon="6.63041">
        <ele>436</ele>
        <time>2015-03-22T09:55:27.999Z</time>
      </trkpt>
      <trkpt lat="47.51396" lon="6.63035">
        <ele>436</ele>
        <time>2015-03-22T09:55:31.000Z</time>
      </trkpt>
      <trkpt lat="47.51396" lon="6.63032">
        <ele>436</ele>
        <time>2015-03-22T09:55:32.000Z</time>
      </trkpt>
      <trkpt lat="47.51397" lon="6.63026">
        <ele>436</ele>
        <time>2015-03-22T09:55:34.000Z</time>
      </trkpt>
      <trkpt lat="47.51397" lon="6.63023">
        <ele>437</ele>
        <time>2015-03-22T09:55:35.000Z</time>
      </trkpt>
      <trkpt lat="47.51396" lon="6.63018">
        <ele>437</ele>
        <time>2015-03-22T09:55:37.000Z</time>
      </trkpt>
      <trkpt lat="47.51395" lon="6.63016">
        <ele>437</ele>
        <time>2015-03-22T09:55:38.000Z</time>
      </trkpt>
      <trkpt lat="47.51394" lon="6.63011">
        <ele>437</ele>
        <time>2015-03-22T09:55:40.000Z</time>
      </trkpt>
      <trkpt lat="47.51395" lon="6.63008">
        <ele>437</ele>
        <time>2015-03-22T09:55:41.000Z</time>
      </trkpt>
      <trkpt lat="47.51395" lon="6.63003">
        <ele>437</ele>
        <time>2015-03-22T09:55:43.000Z</time>
      </trkpt>
      <trkpt lat="47.51395" lon="6.63001">
        <ele>437</ele>
        <time>2015-03-22T09:55:44.000Z</time>
      </trkpt>
      <trkpt lat="47.51394" lon="6.62995">
        <ele>440</ele>
        <time>2015-03-22T09:55:47.000Z</time>
      </trkpt>
      <trkpt lat="47.51394" lon="6.62994">
        <ele>440</ele>
        <time>2015-03-22T09:55:48.000Z</time>
      </trkpt>
      <trkpt lat="47.51395" lon="6.62989">
        <ele>440</ele>
        <time>2015-03-22T09:55:52.000Z</time>
      </trkpt>
      <trkpt lat="47.51395" lon="6.62987">
        <ele>440</ele>
        <time>2015-03-22T09:55:53.000Z</time>
      </trkpt>
      <trkpt lat="47.51395" lon="6.62981">
        <ele>440</ele>
        <time>2015-03-22T09:55:55.000Z</time>
      </trkpt>
      <trkpt lat="47.51395" lon="6.62979">
        <ele>440</ele>
        <time>2015-03-22T09:55:56.000Z</time>
      </trkpt>
      <trkpt lat="47.51395" lon="6.62973">
        <ele>441</ele>
        <time>2015-03-22T09:55:58.000Z</time>
      </trkpt>
      <trkpt lat="47.51396" lon="6.6297">
        <ele>441</ele>
        <time>2015-03-22T09:55:59.000Z</time>
      </trkpt>
      <trkpt lat="47.51396" lon="6.62966">
        <ele>441</ele>
        <time>2015-03-22T09:56:01.000Z</time>
      </trkpt>
      <trkpt lat="47.51395" lon="6.62963">
        <ele>441</ele>
        <time>2015-03-22T09:56:02.000Z</time>
      </trkpt>
      <trkpt lat="47.51396" lon="6.62957">
        <ele>441</ele>
        <time>2015-03-22T09:56:05.000Z</time>
      </trkpt>
      <trkpt lat="47.51396" lon="6.62955">
        <ele>441</ele>
        <time>2015-03-22T09:56:06.000Z</time>
      </trkpt>
      <trkpt lat="47.51397" lon="6.6295">
        <ele>442</ele>
        <time>2015-03-22T09:56:09.000Z</time>
      </trkpt>
      <trkpt lat="47.51397" lon="6.62948">
        <ele>442</ele>
        <time>2015-03-22T09:56:10.000Z</time>
      </trkpt>
      <trkpt lat="47.51398" lon="6.62942">
        <ele>442</ele>
        <time>2015-03-22T09:56:12.000Z</time>
      </trkpt>
      <trkpt lat="47.51399" lon="6.6294">
        <ele>443</ele>
        <time>2015-03-22T09:56:13.000Z</time>
      </trkpt>
      <trkpt lat="47.514" lon="6.62934">
        <ele>443</ele>
        <time>2015-03-22T09:56:16.000Z</time>
      </trkpt>
      <trkpt lat="47.51401" lon="6.62933">
        <ele>443</ele>
        <time>2015-03-22T09:56:17.000Z</time>
      </trkpt>
      <trkpt lat="47.51403" lon="6.62927">
        <ele>444</ele>
        <time>2015-03-22T09:56:20.000Z</time>
      </trkpt>
      <trkpt lat="47.51403" lon="6.62925">
        <ele>444</ele>
        <time>2015-03-22T09:56:21.000Z</time>
      </trkpt>
      <trkpt lat="47.51405" lon="6.6292">
        <ele>445</ele>
        <time>2015-03-22T09:56:23.999Z</time>
      </trkpt>
      <trkpt lat="47.51406" lon="6.62917">
        <ele>445</ele>
        <time>2015-03-22T09:56:25.000Z</time>
      </trkpt>
      <trkpt lat="47.51408" lon="6.62911">
        <ele>447</ele>
        <time>2015-03-22T09:56:27.000Z</time>
      </trkpt>
      <trkpt lat="47.51409" lon="6.62908">
        <ele>447</ele>
        <time>2015-03-22T09:56:28.000Z</time>
      </trkpt>
      <trkpt lat="47.5141" lon="6.62903">
        <ele>447</ele>
        <time>2015-03-22T09:56:30.000Z</time>
      </trkpt>
      <trkpt lat="47.51411" lon="6.62902">
        <ele>447</ele>
        <time>2015-03-22T09:56:31.000Z</time>
      </trkpt>
      <trkpt lat="47.51411" lon="6.62896">
        <ele>447</ele>
        <time>2015-03-22T09:56:36.000Z</time>
      </trkpt>
      <trkpt lat="47.51412" lon="6.62894">
        <ele>447</ele>
        <time>2015-03-22T09:56:37.000Z</time>
      </trkpt>
      <trkpt lat="47.51412" lon="6.62888">
        <ele>447</ele>
        <time>2015-03-22T09:56:39.000Z</time>
      </trkpt>
      <trkpt lat="47.51411" lon="6.62886">
        <ele>447</ele>
        <time>2015-03-22T09:56:40.000Z</time>
      </trkpt>
      <trkpt lat="47.51409" lon="6.62881">
        <ele>447</ele>
        <time>2015-03-22T09:56:42.000Z</time>
      </trkpt>
      <trkpt lat="47.51408" lon="6.62879">
        <ele>447</ele>
        <time>2015-03-22T09:56:43.000Z</time>
      </trkpt>
      <trkpt lat="47.51406" lon="6.62874">
        <ele>447</ele>
        <time>2015-03-22T09:56:45.000Z</time>
      </trkpt>
      <trkpt lat="47.51406" lon="6.62872">
        <ele>447</ele>
        <time>2015-03-22T09:56:46.000Z</time>
      </trkpt>
      <trkpt lat="47.51405" lon="6.62867">
        <ele>447</ele>
        <time>2015-03-22T09:56:48.000Z</time>
      </trkpt>
      <trkpt lat="47.51404" lon="6.62864">
        <ele>447</ele>
        <time>2015-03-22T09:56:49.000Z</time>
      </trkpt>
      <trkpt lat="47.51404" lon="6.62861">
        <ele>447</ele>
        <time>2015-03-22T09:56:50.000Z</time>
      </trkpt>
      <trkpt lat="47.51404" lon="6.62857">
        <ele>448</ele>
        <time>2015-03-22T09:56:51.000Z</time>
      </trkpt>
      <trkpt lat="47.51403" lon="6.62853">
        <ele>448</ele>
        <time>2015-03-22T09:56:52.000Z</time>
      </trkpt>
      <trkpt lat="47.51402" lon="6.62849">
        <ele>448</ele>
        <time>2015-03-22T09:56:53.000Z</time>
      </trkpt>
      <trkpt lat="47.51402" lon="6.62846">
        <ele>448</ele>
        <time>2015-03-22T09:56:54.000Z</time>
      </trkpt>
      <trkpt lat="47.51402" lon="6.62842">
        <ele>448</ele>
        <time>2015-03-22T09:56:55.000Z</time>
      </trkpt>
      <trkpt lat="47.51401" lon="6.62839">
        <ele>448</ele>
        <time>2015-03-22T09:56:56.000Z</time>
      </trkpt>
      <trkpt lat="47.514" lon="6.62836">
        <ele>448</ele>
        <time>2015-03-22T09:56:57.000Z</time>
      </trkpt>
      <trkpt lat="47.514" lon="6.62832">
        <ele>450</ele>
        <time>2015-03-22T09:56:58.000Z</time>
      </trkpt>
      <trkpt lat="47.514" lon="6.62828">
        <ele>450</ele>
        <time>2015-03-22T09:56:59.000Z</time>
      </trkpt>
      <trkpt lat="47.51401" lon="6.62824">
        <ele>450</ele>
        <time>2015-03-22T09:57:00.000Z</time>
      </trkpt>
      <trkpt lat="47.51402" lon="6.62822">
        <ele>450</ele>
        <time>2015-03-22T09:57:01.000Z</time>
      </trkpt>
      <trkpt lat="47.51404" lon="6.62817">
        <ele>450</ele>
        <time>2015-03-22T09:57:03.000Z</time>
      </trkpt>
      <trkpt lat="47.51404" lon="6.62815">
        <ele>450</ele>
        <time>2015-03-22T09:57:04.000Z</time>
      </trkpt>
      <trkpt lat="47.51405" lon="6.62809">
        <ele>450</ele>
        <time>2015-03-22T09:57:08.000Z</time>
      </trkpt>
      <trkpt lat="47.51405" lon="6.62808">
        <ele>450</ele>
        <time>2015-03-22T09:57:09.000Z</time>
      </trkpt>
      <trkpt lat="47.51405" lon="6.62803">
        <ele>450</ele>
        <time>2015-03-22T09:57:11.000Z</time>
      </trkpt>
      <trkpt lat="47.51405" lon="6.628">
        <ele>450</ele>
        <time>2015-03-22T09:57:12.000Z</time>
      </trkpt>
      <trkpt lat="47.51405" lon="6.62794">
        <ele>450</ele>
        <time>2015-03-22T09:57:14.000Z</time>
      </trkpt>
      <trkpt lat="47.51405" lon="6.6279">
        <ele>450</ele>
        <time>2015-03-22T09:57:15.000Z</time>
      </trkpt>
      <trkpt lat="47.51404" lon="6.62786">
        <ele>450</ele>
        <time>2015-03-22T09:57:16.000Z</time>
      </trkpt>
      <trkpt lat="47.51404" lon="6.62783">
        <ele>450</ele>
        <time>2015-03-22T09:57:17.000Z</time>
      </trkpt>
      <trkpt lat="47.51404" lon="6.62777">
        <ele>450</ele>
        <time>2015-03-22T09:57:19.000Z</time>
      </trkpt>
      <trkpt lat="47.51404" lon="6.62774">
        <ele>450</ele>
        <time>2015-03-22T09:57:20.000Z</time>
      </trkpt>
      <trkpt lat="47.51405" lon="6.62767">
        <ele>450</ele>
        <time>2015-03-22T09:57:22.000Z</time>
      </trkpt>
      <trkpt lat="47.51406" lon="6.62764">
        <ele>450</ele>
        <time>2015-03-22T09:57:23.000Z</time>
      </trkpt>
      <trkpt lat="47.51406" lon="6.6276">
        <ele>451</ele>
        <time>2015-03-22T09:57:24.000Z</time>
      </trkpt>
      <trkpt lat="47.51407" lon="6.62756">
        <ele>451</ele>
        <time>2015-03-22T09:57:25.000Z</time>
      </trkpt>
      <trkpt lat="47.51408" lon="6.62751">
        <ele>451</ele>
        <time>2015-03-22T09:57:26.000Z</time>
      </trkpt>
      <trkpt lat="47.51409" lon="6.62747">
        <ele>451</ele>
        <time>2015-03-22T09:57:27.000Z</time>
      </trkpt>
      <trkpt lat="47.5141" lon="6.62743">
        <ele>451</ele>
        <time>2015-03-22T09:57:28.000Z</time>
      </trkpt>
      <trkpt lat="47.51412" lon="6.62737">
        <ele>451</ele>
        <time>2015-03-22T09:57:29.000Z</time>
      </trkpt>
      <trkpt lat="47.51413" lon="6.62732">
        <ele>451</ele>
        <time>2015-03-22T09:57:30.000Z</time>
      </trkpt>
      <trkpt lat="47.51415" lon="6.62726">
        <ele>452</ele>
        <time>2015-03-22T09:57:31.000Z</time>
      </trkpt>
      <trkpt lat="47.51417" lon="6.62721">
        <ele>452</ele>
        <time>2015-03-22T09:57:32.000Z</time>
      </trkpt>
      <trkpt lat="47.51418" lon="6.62716">
        <ele>452</ele>
        <time>2015-03-22T09:57:33.000Z</time>
      </trkpt>
      <trkpt lat="47.5142" lon="6.62711">
        <ele>452</ele>
        <time>2015-03-22T09:57:34.000Z</time>
      </trkpt>
      <trkpt lat="47.51422" lon="6.62707">
        <ele>452</ele>
        <time>2015-03-22T09:57:35.000Z</time>
      </trkpt>
      <trkpt lat="47.51423" lon="6.62704">
        <ele>452</ele>
        <time>2015-03-22T09:57:36.000Z</time>
      </trkpt>
      <trkpt lat="47.51425" lon="6.62702">
        <ele>452</ele>
        <time>2015-03-22T09:57:37.000Z</time>
      </trkpt>
      <trkpt lat="47.51427" lon="6.627">
        <ele>452</ele>
        <time>2015-03-22T09:57:38.000Z</time>
      </trkpt>
      <trkpt lat="47.51429" lon="6.62698">
        <ele>452</ele>
        <time>2015-03-22T09:57:39.000Z</time>
      </trkpt>
      <trkpt lat="47.51431" lon="6.62693">
        <ele>452</ele>
        <time>2015-03-22T09:57:41.000Z</time>
      </trkpt>
      <trkpt lat="47.51432" lon="6.6269">
        <ele>452</ele>
        <time>2015-03-22T09:57:42.000Z</time>
      </trkpt>
      <trkpt lat="47.51433" lon="6.62684">
        <ele>452</ele>
        <time>2015-03-22T09:57:44.000Z</time>
      </trkpt>
      <trkpt lat="47.51433" lon="6.62681">
        <ele>452</ele>
        <time>2015-03-22T09:57:45.000Z</time>
      </trkpt>
      <trkpt lat="47.51435" lon="6.62675">
        <ele>452</ele>
        <time>2015-03-22T09:57:47.000Z</time>
      </trkpt>
      <trkpt lat="47.51435" lon="6.62672">
        <ele>452</ele>
        <time>2015-03-22T09:57:48.000Z</time>
      </trkpt>
      <trkpt lat="47.51438" lon="6.62668">
        <ele>452</ele>
        <time>2015-03-22T09:57:50.000Z</time>
      </trkpt>
      <trkpt lat="47.51439" lon="6.62666">
        <ele>454</ele>
        <time>2015-03-22T09:57:51.000Z</time>
      </trkpt>
      <trkpt lat="47.51441" lon="6.6266">
        <ele>454</ele>
        <time>2015-03-22T09:57:54.000Z</time>
      </trkpt>
      <trkpt lat="47.51441" lon="6.62659">
        <ele>454</ele>
        <time>2015-03-22T09:57:55.000Z</time>
      </trkpt>
      <trkpt lat="47.51442" lon="6.62655">
        <ele>454</ele>
        <time>2015-03-22T09:57:57.000Z</time>
      </trkpt>
      <trkpt lat="47.51442" lon="6.62652">
        <ele>454</ele>
        <time>2015-03-22T09:57:58.000Z</time>
      </trkpt>
      <trkpt lat="47.51443" lon="6.62648">
        <ele>454</ele>
        <time>2015-03-22T09:57:59.000Z</time>
      </trkpt>
      <trkpt lat="47.51443" lon="6.62644">
        <ele>454</ele>
        <time>2015-03-22T09:58:00.000Z</time>
      </trkpt>
      <trkpt lat="47.51443" lon="6.6264">
        <ele>454</ele>
        <time>2015-03-22T09:58:01.000Z</time>
      </trkpt>
      <trkpt lat="47.51443" lon="6.62635">
        <ele>454</ele>
        <time>2015-03-22T09:58:02.000Z</time>
      </trkpt>
      <trkpt lat="47.51443" lon="6.6263">
        <ele>455</ele>
        <time>2015-03-22T09:58:03.000Z</time>
      </trkpt>
      <trkpt lat="47.51443" lon="6.62627">
        <ele>455</ele>
        <time>2015-03-22T09:58:04.000Z</time>
      </trkpt>
      <trkpt lat="47.51444" lon="6.62621">
        <ele>455</ele>
        <time>2015-03-22T09:58:06.000Z</time>
      </trkpt>
      <trkpt lat="47.51445" lon="6.62619">
        <ele>455</ele>
        <time>2015-03-22T09:58:06.999Z</time>
      </trkpt>
      <trkpt lat="47.51446" lon="6.62614">
        <ele>455</ele>
        <time>2015-03-22T09:58:08.000Z</time>
      </trkpt>
      <trkpt lat="47.51447" lon="6.6261">
        <ele>455</ele>
        <time>2015-03-22T09:58:09.000Z</time>
      </trkpt>
      <trkpt lat="47.51448" lon="6.62605">
        <ele>455</ele>
        <time>2015-03-22T09:58:10.000Z</time>
      </trkpt>
      <trkpt lat="47.51449" lon="6.62601">
        <ele>455</ele>
        <time>2015-03-22T09:58:11.000Z</time>
      </trkpt>
      <trkpt lat="47.51451" lon="6.62598">
        <ele>455</ele>
        <time>2015-03-22T09:58:12.000Z</time>
      </trkpt>
      <trkpt lat="47.51452" lon="6.62594">
        <ele>455</ele>
        <time>2015-03-22T09:58:13.000Z</time>
      </trkpt>
      <trkpt lat="47.51453" lon="6.62591">
        <ele>455</ele>
        <time>2015-03-22T09:58:14.000Z</time>
      </trkpt>
      <trkpt lat="47.51455" lon="6.62587">
        <ele>455</ele>
        <time>2015-03-22T09:58:15.000Z</time>
      </trkpt>
      <trkpt lat="47.51456" lon="6.62584">
        <ele>455</ele>
        <time>2015-03-22T09:58:16.001Z</time>
      </trkpt>
      <trkpt lat="47.51457" lon="6.62582">
        <ele>458</ele>
        <time>2015-03-22T09:58:17.000Z</time>
      </trkpt>
      <trkpt lat="47.5146" lon="6.62579">
        <ele>458</ele>
        <time>2015-03-22T09:58:19.000Z</time>
      </trkpt>
      <trkpt lat="47.51461" lon="6.62579">
        <ele>458</ele>
        <time>2015-03-22T09:58:20.000Z</time>
      </trkpt>
      <trkpt lat="47.51463" lon="6.62575">
        <ele>458</ele>
        <time>2015-03-22T09:58:22.000Z</time>
      </trkpt>
      <trkpt lat="47.51464" lon="6.62573">
        <ele>458</ele>
        <time>2015-03-22T09:58:23.000Z</time>
      </trkpt>
      <trkpt lat="47.51464" lon="6.62567">
        <ele>458</ele>
        <time>2015-03-22T09:58:25.000Z</time>
      </trkpt>
      <trkpt lat="47.51464" lon="6.62563">
        <ele>458</ele>
        <time>2015-03-22T09:58:26.000Z</time>
      </trkpt>
      <trkpt lat="47.51464" lon="6.6256">
        <ele>458</ele>
        <time>2015-03-22T09:58:27.000Z</time>
      </trkpt>
      <trkpt lat="47.51465" lon="6.62556">
        <ele>458</ele>
        <time>2015-03-22T09:58:28.000Z</time>
      </trkpt>
      <trkpt lat="47.51465" lon="6.62552">
        <ele>459</ele>
        <time>2015-03-22T09:58:29.000Z</time>
      </trkpt>
      <trkpt lat="47.51466" lon="6.62548">
        <ele>459</ele>
        <time>2015-03-22T09:58:30.000Z</time>
      </trkpt>
      <trkpt lat="47.51468" lon="6.62545">
        <ele>459</ele>
        <time>2015-03-22T09:58:31.000Z</time>
      </trkpt>
      <trkpt lat="47.51469" lon="6.62542">
        <ele>459</ele>
        <time>2015-03-22T09:58:32.000Z</time>
      </trkpt>
      <trkpt lat="47.51472" lon="6.62537">
        <ele>459</ele>
        <time>2015-03-22T09:58:34.000Z</time>
      </trkpt>
      <trkpt lat="47.51473" lon="6.62535">
        <ele>459</ele>
        <time>2015-03-22T09:58:35.000Z</time>
      </trkpt>
      <trkpt lat="47.51475" lon="6.62531">
        <ele>459</ele>
        <time>2015-03-22T09:58:37.000Z</time>
      </trkpt>
      <trkpt lat="47.51476" lon="6.62529">
        <ele>459</ele>
        <time>2015-03-22T09:58:38.000Z</time>
      </trkpt>
      <trkpt lat="47.51477" lon="6.62523">
        <ele>459</ele>
        <time>2015-03-22T09:59:08.000Z</time>
      </trkpt>
      <trkpt lat="47.51477" lon="6.62523">
        <ele>459</ele>
        <time>2015-03-22T09:59:09.000Z</time>
      </trkpt>
      <trkpt lat="47.51477" lon="6.62518">
        <ele>459</ele>
        <time>2015-03-22T10:01:12.000Z</time>
      </trkpt>
      <trkpt lat="47.51476" lon="6.62516">
        <ele>459</ele>
        <time>2015-03-22T10:01:13.000Z</time>
      </trkpt>
      <trkpt lat="47.51479" lon="6.62512">
        <ele>459</ele>
        <time>2015-03-22T10:01:55.998Z</time>
      </trkpt>
      <trkpt lat="47.51479" lon="6.62512">
        <ele>459</ele>
        <time>2015-03-22T10:01:57.000Z</time>
      </trkpt>
      <trkpt lat="47.51482" lon="6.62507">
        <ele>459</ele>
        <time>2015-03-22T10:02:00.000Z</time>
      </trkpt>
      <trkpt lat="47.51482" lon="6.62505">
        <ele>459</ele>
        <time>2015-03-22T10:02:01.000Z</time>
      </trkpt>
      <trkpt lat="47.51484" lon="6.625">
        <ele>459</ele>
        <time>2015-03-22T10:02:03.000Z</time>
      </trkpt>
      <trkpt lat="47.51486" lon="6.62497">
        <ele>460</ele>
        <time>2015-03-22T10:02:04.000Z</time>
      </trkpt>
      <trkpt lat="47.51487" lon="6.62493">
        <ele>460</ele>
        <time>2015-03-22T10:02:05.000Z</time>
      </trkpt>
      <trkpt lat="47.51489" lon="6.6249">
        <ele>460</ele>
        <time>2015-03-22T10:02:06.000Z</time>
      </trkpt>
      <trkpt lat="47.5149" lon="6.62487">
        <ele>460</ele>
        <time>2015-03-22T10:02:07.000Z</time>
      </trkpt>
      <trkpt lat="47.51491" lon="6.62483">
        <ele>460</ele>
        <time>2015-03-22T10:02:07.999Z</time>
      </trkpt>
      <trkpt lat="47.51492" lon="6.6248">
        <ele>460</ele>
        <time>2015-03-22T10:02:09.000Z</time>
      </trkpt>
      <trkpt lat="47.51493" lon="6.62475">
        <ele>460</ele>
        <time>2015-03-22T10:02:10.000Z</time>
      </trkpt>
      <trkpt lat="47.51495" lon="6.6247">
        <ele>460</ele>
        <time>2015-03-22T10:02:11.000Z</time>
      </trkpt>
      <trkpt lat="47.51498" lon="6.62465">
        <ele>461</ele>
        <time>2015-03-22T10:02:12.000Z</time>
      </trkpt>
      <trkpt lat="47.51501" lon="6.6246">
        <ele>457</ele>
        <time>2015-03-22T10:02:13.000Z</time>
      </trkpt>
      <trkpt lat="47.51505" lon="6.62456">
        <ele>457</ele>
        <time>2015-03-22T10:02:14.000Z</time>
      </trkpt>
      <trkpt lat="47.51508" lon="6.62452">
        <ele>457</ele>
        <time>2015-03-22T10:02:15.000Z</time>
      </trkpt>
      <trkpt lat="47.51511" lon="6.62447">
        <ele>457</ele>
        <time>2015-03-22T10:02:16.000Z</time>
      </trkpt>
      <trkpt lat="47.51513" lon="6.62443">
        <ele>457</ele>
        <time>2015-03-22T10:02:17.000Z</time>
      </trkpt>
      <trkpt lat="47.51516" lon="6.62438">
        <ele>458</ele>
        <time>2015-03-22T10:02:18.000Z</time>
      </trkpt>
      <trkpt lat="47.51518" lon="6.62434">
        <ele>458</ele>
        <time>2015-03-22T10:02:19.000Z</time>
      </trkpt>
      <trkpt lat="47.5152" lon="6.62426">
        <ele>458</ele>
        <time>2015-03-22T10:02:20.000Z</time>
      </trkpt>
      <trkpt lat="47.51521" lon="6.6242">
        <ele>458</ele>
        <time>2015-03-22T10:02:21.000Z</time>
      </trkpt>
      <trkpt lat="47.51522" lon="6.62413">
        <ele>459</ele>
        <time>2015-03-22T10:02:22.000Z</time>
      </trkpt>
      <trkpt lat="47.51523" lon="6.62405">
        <ele>459</ele>
        <time>2015-03-22T10:02:23.000Z</time>
      </trkpt>
      <trkpt lat="47.51524" lon="6.62398">
        <ele>459</ele>
        <time>2015-03-22T10:02:24.000Z</time>
      </trkpt>
      <trkpt lat="47.51524" lon="6.62392">
        <ele>459</ele>
        <time>2015-03-22T10:02:25.000Z</time>
      </trkpt>
      <trkpt lat="47.51525" lon="6.62387">
        <ele>459</ele>
        <time>2015-03-22T10:02:26.000Z</time>
      </trkpt>
      <trkpt lat="47.51525" lon="6.62382">
        <ele>459</ele>
        <time>2015-03-22T10:02:27.000Z</time>
      </trkpt>
      <trkpt lat="47.51525" lon="6.62377">
        <ele>459</ele>
        <time>2015-03-22T10:02:28.000Z</time>
      </trkpt>
      <trkpt lat="47.51524" lon="6.62373">
        <ele>459</ele>
        <time>2015-03-22T10:02:29.000Z</time>
      </trkpt>
      <trkpt lat="47.51523" lon="6.62369">
        <ele>459</ele>
        <time>2015-03-22T10:02:30.000Z</time>
      </trkpt>
      <trkpt lat="47.51522" lon="6.62365">
        <ele>459</ele>
        <time>2015-03-22T10:02:31.000Z</time>
      </trkpt>
      <trkpt lat="47.51522" lon="6.62361">
        <ele>459</ele>
        <time>2015-03-22T10:02:32.000Z</time>
      </trkpt>
      <trkpt lat="47.51523" lon="6.62356">
        <ele>459</ele>
        <time>2015-03-22T10:02:33.000Z</time>
      </trkpt>
      <trkpt lat="47.51524" lon="6.62352">
        <ele>459</ele>
        <time>2015-03-22T10:02:34.000Z</time>
      </trkpt>
      <trkpt lat="47.51526" lon="6.62347">
        <ele>459</ele>
        <time>2015-03-22T10:02:35.000Z</time>
      </trkpt>
      <trkpt lat="47.51528" lon="6.62343">
        <ele>459</ele>
        <time>2015-03-22T10:02:36.000Z</time>
      </trkpt>
      <trkpt lat="47.51531" lon="6.62338">
        <ele>459</ele>
        <time>2015-03-22T10:02:37.000Z</time>
      </trkpt>
      <trkpt lat="47.51532" lon="6.62335">
        <ele>459</ele>
        <time>2015-03-22T10:02:38.000Z</time>
      </trkpt>
      <trkpt lat="47.51535" lon="6.62329">
        <ele>460</ele>
        <time>2015-03-22T10:02:39.000Z</time>
      </trkpt>
      <trkpt lat="47.51538" lon="6.62325">
        <ele>460</ele>
        <time>2015-03-22T10:02:40.000Z</time>
      </trkpt>
      <trkpt lat="47.51541" lon="6.6232">
        <ele>460</ele>
        <time>2015-03-22T10:02:41.000Z</time>
      </trkpt>
      <trkpt lat="47.51544" lon="6.62315">
        <ele>460</ele>
        <time>2015-03-22T10:02:42.000Z</time>
      </trkpt>
      <trkpt lat="47.51547" lon="6.6231">
        <ele>460</ele>
        <time>2015-03-22T10:02:43.000Z</time>
      </trkpt>
      <trkpt lat="47.51549" lon="6.62306">
        <ele>460</ele>
        <time>2015-03-22T10:02:44.000Z</time>
      </trkpt>
      <trkpt lat="47.51552" lon="6.62303">
        <ele>460</ele>
        <time>2015-03-22T10:02:45.000Z</time>
      </trkpt>
      <trkpt lat="47.51554" lon="6.62298">
        <ele>460</ele>
        <time>2015-03-22T10:02:46.000Z</time>
      </trkpt>
      <trkpt lat="47.51556" lon="6.62295">
        <ele>460</ele>
        <time>2015-03-22T10:02:46.999Z</time>
      </trkpt>
      <trkpt lat="47.51559" lon="6.6229">
        <ele>460</ele>
        <time>2015-03-22T10:02:48.000Z</time>
      </trkpt>
      <trkpt lat="47.51561" lon="6.62285">
        <ele>460</ele>
        <time>2015-03-22T10:02:49.000Z</time>
      </trkpt>
      <trkpt lat="47.51563" lon="6.6228">
        <ele>460</ele>
        <time>2015-03-22T10:02:50.000Z</time>
      </trkpt>
      <trkpt lat="47.51564" lon="6.62276">
        <ele>460</ele>
        <time>2015-03-22T10:02:51.000Z</time>
      </trkpt>
      <trkpt lat="47.51566" lon="6.62273">
        <ele>460</ele>
        <time>2015-03-22T10:02:52.000Z</time>
      </trkpt>
      <trkpt lat="47.51567" lon="6.6227">
        <ele>460</ele>
        <time>2015-03-22T10:02:53.000Z</time>
      </trkpt>
      <trkpt lat="47.51569" lon="6.62265">
        <ele>461</ele>
        <time>2015-03-22T10:02:54.000Z</time>
      </trkpt>
      <trkpt lat="47.51571" lon="6.62261">
        <ele>461</ele>
        <time>2015-03-22T10:02:55.000Z</time>
      </trkpt>
      <trkpt lat="47.51573" lon="6.62257">
        <ele>461</ele>
        <time>2015-03-22T10:02:56.000Z</time>
      </trkpt>
      <trkpt lat="47.51574" lon="6.62251">
        <ele>461</ele>
        <time>2015-03-22T10:02:57.000Z</time>
      </trkpt>
      <trkpt lat="47.51577" lon="6.62238">
        <ele>462</ele>
        <time>2015-03-22T10:02:58.000Z</time>
      </trkpt>
      <trkpt lat="47.51574" lon="6.62232">
        <ele>462</ele>
        <time>2015-03-22T10:02:59.000Z</time>
      </trkpt>
      <trkpt lat="47.51578" lon="6.62232">
        <ele>462</ele>
        <time>2015-03-22T10:03:01.000Z</time>
      </trkpt>
      <trkpt lat="47.51577" lon="6.62227">
        <ele>462</ele>
        <time>2015-03-22T10:03:02.000Z</time>
      </trkpt>
      <trkpt lat="47.51577" lon="6.62223">
        <ele>462</ele>
        <time>2015-03-22T10:03:03.000Z</time>
      </trkpt>
      <trkpt lat="47.51576" lon="6.62219">
        <ele>463</ele>
        <time>2015-03-22T10:03:04.000Z</time>
      </trkpt>
      <trkpt lat="47.51575" lon="6.62213">
        <ele>463</ele>
        <time>2015-03-22T10:03:06.000Z</time>
      </trkpt>
      <trkpt lat="47.51575" lon="6.6221">
        <ele>463</ele>
        <time>2015-03-22T10:03:07.000Z</time>
      </trkpt>
      <trkpt lat="47.51575" lon="6.62204">
        <ele>463</ele>
        <time>2015-03-22T10:03:09.000Z</time>
      </trkpt>
      <trkpt lat="47.51576" lon="6.622">
        <ele>463</ele>
        <time>2015-03-22T10:03:10.000Z</time>
      </trkpt>
      <trkpt lat="47.51576" lon="6.62196">
        <ele>464</ele>
        <time>2015-03-22T10:03:11.000Z</time>
      </trkpt>
      <trkpt lat="47.51576" lon="6.62193">
        <ele>464</ele>
        <time>2015-03-22T10:03:12.000Z</time>
      </trkpt>
      <trkpt lat="47.51577" lon="6.62188">
        <ele>464</ele>
        <time>2015-03-22T10:03:13.999Z</time>
      </trkpt>
      <trkpt lat="47.51579" lon="6.62182">
        <ele>465</ele>
        <time>2015-03-22T10:03:15.000Z</time>
      </trkpt>
      <trkpt lat="47.51581" lon="6.62178">
        <ele>466</ele>
        <time>2015-03-22T10:03:16.000Z</time>
      </trkpt>
      <trkpt lat="47.51582" lon="6.62174">
        <ele>466</ele>
        <time>2015-03-22T10:03:17.000Z</time>
      </trkpt>
      <trkpt lat="47.51584" lon="6.6217">
        <ele>468</ele>
        <time>2015-03-22T10:03:18.000Z</time>
      </trkpt>
      <trkpt lat="47.51584" lon="6.62166">
        <ele>468</ele>
        <time>2015-03-22T10:03:19.000Z</time>
      </trkpt>
      <trkpt lat="47.51583" lon="6.62163">
        <ele>468</ele>
        <time>2015-03-22T10:03:20.000Z</time>
      </trkpt>
      <trkpt lat="47.51582" lon="6.6216">
        <ele>467</ele>
        <time>2015-03-22T10:03:21.000Z</time>
      </trkpt>
      <trkpt lat="47.51581" lon="6.62157">
        <ele>467</ele>
        <time>2015-03-22T10:03:22.000Z</time>
      </trkpt>
      <trkpt lat="47.5158" lon="6.62153">
        <ele>467</ele>
        <time>2015-03-22T10:03:23.000Z</time>
      </trkpt>
      <trkpt lat="47.51579" lon="6.62151">
        <ele>467</ele>
        <time>2015-03-22T10:03:24.001Z</time>
      </trkpt>
      <trkpt lat="47.51578" lon="6.62147">
        <ele>467</ele>
        <time>2015-03-22T10:03:25.000Z</time>
      </trkpt>
      <trkpt lat="47.51578" lon="6.62141">
        <ele>467</ele>
        <time>2015-03-22T10:03:27.000Z</time>
      </trkpt>
      <trkpt lat="47.51578" lon="6.62137">
        <ele>467</ele>
        <time>2015-03-22T10:03:28.000Z</time>
      </trkpt>
      <trkpt lat="47.51578" lon="6.62133">
        <ele>467</ele>
        <time>2015-03-22T10:03:29.000Z</time>
      </trkpt>
      <trkpt lat="47.51578" lon="6.62128">
        <ele>467</ele>
        <time>2015-03-22T10:03:30.000Z</time>
      </trkpt>
      <trkpt lat="47.51578" lon="6.62122">
        <ele>467</ele>
        <time>2015-03-22T10:03:31.000Z</time>
      </trkpt>
      <trkpt lat="47.51578" lon="6.62118">
        <ele>467</ele>
        <time>2015-03-22T10:03:32.000Z</time>
      </trkpt>
      <trkpt lat="47.51578" lon="6.62113">
        <ele>468</ele>
        <time>2015-03-22T10:03:33.000Z</time>
      </trkpt>
      <trkpt lat="47.51578" lon="6.62109">
        <ele>468</ele>
        <time>2015-03-22T10:03:34.000Z</time>
      </trkpt>
      <trkpt lat="47.51577" lon="6.62104">
        <ele>468</ele>
        <time>2015-03-22T10:03:36.000Z</time>
      </trkpt>
      <trkpt lat="47.51577" lon="6.62101">
        <ele>469</ele>
        <time>2015-03-22T10:03:37.000Z</time>
      </trkpt>
      <trkpt lat="47.51577" lon="6.62096">
        <ele>469</ele>
        <time>2015-03-22T10:03:39.001Z</time>
      </trkpt>
      <trkpt lat="47.51577" lon="6.62093">
        <ele>470</ele>
        <time>2015-03-22T10:03:40.000Z</time>
      </trkpt>
      <trkpt lat="47.51577" lon="6.62088">
        <ele>470</ele>
        <time>2015-03-22T10:03:42.000Z</time>
      </trkpt>
      <trkpt lat="47.51577" lon="6.62085">
        <ele>470</ele>
        <time>2015-03-22T10:03:43.000Z</time>
      </trkpt>
      <trkpt lat="47.51578" lon="6.62079">
        <ele>471</ele>
        <time>2015-03-22T10:03:45.000Z</time>
      </trkpt>
      <trkpt lat="47.51578" lon="6.62076">
        <ele>471</ele>
        <time>2015-03-22T10:03:46.000Z</time>
      </trkpt>
      <trkpt lat="47.5158" lon="6.62071">
        <ele>471</ele>
        <time>2015-03-22T10:03:47.999Z</time>
      </trkpt>
      <trkpt lat="47.51582" lon="6.62068">
        <ele>470</ele>
        <time>2015-03-22T10:03:49.000Z</time>
      </trkpt>
      <trkpt lat="47.51583" lon="6.62066">
        <ele>470</ele>
        <time>2015-03-22T10:03:50.000Z</time>
      </trkpt>
      <trkpt lat="47.51586" lon="6.62063">
        <ele>473</ele>
        <time>2015-03-22T10:03:51.000Z</time>
      </trkpt>
      <trkpt lat="47.51586" lon="6.62062">
        <ele>473</ele>
        <time>2015-03-22T10:03:51.998Z</time>
      </trkpt>
      <trkpt lat="47.5159" lon="6.62057">
        <ele>473</ele>
        <time>2015-03-22T10:03:53.000Z</time>
      </trkpt>
      <trkpt lat="47.51591" lon="6.62055">
        <ele>474</ele>
        <time>2015-03-22T10:03:54.000Z</time>
      </trkpt>
      <trkpt lat="47.51594" lon="6.62049">
        <ele>474</ele>
        <time>2015-03-22T10:03:55.000Z</time>
      </trkpt>
      <trkpt lat="47.51596" lon="6.62047">
        <ele>474</ele>
        <time>2015-03-22T10:03:56.001Z</time>
      </trkpt>
      <trkpt lat="47.51597" lon="6.62041">
        <ele>474</ele>
        <time>2015-03-22T10:03:57.000Z</time>
      </trkpt>
      <trkpt lat="47.51598" lon="6.62038">
        <ele>474</ele>
        <time>2015-03-22T10:03:58.000Z</time>
      </trkpt>
      <trkpt lat="47.51599" lon="6.62034">
        <ele>474</ele>
        <time>2015-03-22T10:03:59.000Z</time>
      </trkpt>
      <trkpt lat="47.51601" lon="6.6203">
        <ele>474</ele>
        <time>2015-03-22T10:04:00.000Z</time>
      </trkpt>
      <trkpt lat="47.51602" lon="6.62027">
        <ele>474</ele>
        <time>2015-03-22T10:04:01.000Z</time>
      </trkpt>
      <trkpt lat="47.51604" lon="6.62024">
        <ele>474</ele>
        <time>2015-03-22T10:04:02.000Z</time>
      </trkpt>
      <trkpt lat="47.51605" lon="6.62021">
        <ele>474</ele>
        <time>2015-03-22T10:04:03.000Z</time>
      </trkpt>
      <trkpt lat="47.51606" lon="6.62018">
        <ele>474</ele>
        <time>2015-03-22T10:04:04.000Z</time>
      </trkpt>
      <trkpt lat="47.51607" lon="6.62015">
        <ele>474</ele>
        <time>2015-03-22T10:04:05.000Z</time>
      </trkpt>
      <trkpt lat="47.51608" lon="6.62012">
        <ele>474</ele>
        <time>2015-03-22T10:04:06.000Z</time>
      </trkpt>
      <trkpt lat="47.51609" lon="6.62009">
        <ele>474</ele>
        <time>2015-03-22T10:04:07.000Z</time>
      </trkpt>
      <trkpt lat="47.51611" lon="6.62003">
        <ele>474</ele>
        <time>2015-03-22T10:04:09.000Z</time>
      </trkpt>
      <trkpt lat="47.51612" lon="6.62001">
        <ele>474</ele>
        <time>2015-03-22T10:04:10.002Z</time>
      </trkpt>
      <trkpt lat="47.51615" lon="6.61996">
        <ele>475</ele>
        <time>2015-03-22T10:04:12.000Z</time>
      </trkpt>
      <trkpt lat="47.51617" lon="6.61994">
        <ele>475</ele>
        <time>2015-03-22T10:04:13.000Z</time>
      </trkpt>
      <trkpt lat="47.51619" lon="6.61991">
        <ele>476</ele>
        <time>2015-03-22T10:04:14.000Z</time>
      </trkpt>
      <trkpt lat="47.5162" lon="6.61987">
        <ele>476</ele>
        <time>2015-03-22T10:04:15.000Z</time>
      </trkpt>
      <trkpt lat="47.51621" lon="6.61984">
        <ele>476</ele>
        <time>2015-03-22T10:04:16.000Z</time>
      </trkpt>
      <trkpt lat="47.51622" lon="6.6198">
        <ele>476</ele>
        <time>2015-03-22T10:04:17.000Z</time>
      </trkpt>
      <trkpt lat="47.51623" lon="6.61976">
        <ele>476</ele>
        <time>2015-03-22T10:04:18.000Z</time>
      </trkpt>
      <trkpt lat="47.51624" lon="6.61972">
        <ele>476</ele>
        <time>2015-03-22T10:04:19.000Z</time>
      </trkpt>
      <trkpt lat="47.51625" lon="6.61968">
        <ele>476</ele>
        <time>2015-03-22T10:04:20.000Z</time>
      </trkpt>
      <trkpt lat="47.51626" lon="6.61963">
        <ele>476</ele>
        <time>2015-03-22T10:04:21.000Z</time>
      </trkpt>
      <trkpt lat="47.51627" lon="6.6196">
        <ele>476</ele>
        <time>2015-03-22T10:04:21.999Z</time>
      </trkpt>
      <trkpt lat="47.51628" lon="6.61953">
        <ele>476</ele>
        <time>2015-03-22T10:04:23.000Z</time>
      </trkpt>
      <trkpt lat="47.51629" lon="6.61948">
        <ele>476</ele>
        <time>2015-03-22T10:04:24.000Z</time>
      </trkpt>
      <trkpt lat="47.5163" lon="6.61945">
        <ele>476</ele>
        <time>2015-03-22T10:04:25.000Z</time>
      </trkpt>
      <trkpt lat="47.51633" lon="6.61941">
        <ele>476</ele>
        <time>2015-03-22T10:04:27.000Z</time>
      </trkpt>
      <trkpt lat="47.51634" lon="6.61939">
        <ele>476</ele>
        <time>2015-03-22T10:04:28.000Z</time>
      </trkpt>
      <trkpt lat="47.51636" lon="6.61936">
        <ele>476</ele>
        <time>2015-03-22T10:04:29.000Z</time>
      </trkpt>
      <trkpt lat="47.51638" lon="6.61933">
        <ele>476</ele>
        <time>2015-03-22T10:04:30.000Z</time>
      </trkpt>
      <trkpt lat="47.51639" lon="6.61931">
        <ele>476</ele>
        <time>2015-03-22T10:04:31.001Z</time>
      </trkpt>
      <trkpt lat="47.51639" lon="6.61914">
        <ele>477</ele>
        <time>2015-03-22T10:04:32.000Z</time>
      </trkpt>
      <trkpt lat="47.51643" lon="6.61911">
        <ele>477</ele>
        <time>2015-03-22T10:04:34.000Z</time>
      </trkpt>
      <trkpt lat="47.51645" lon="6.6191">
        <ele>477</ele>
        <time>2015-03-22T10:04:35.000Z</time>
      </trkpt>
      <trkpt lat="47.51646" lon="6.61908">
        <ele>477</ele>
        <time>2015-03-22T10:04:36.000Z</time>
      </trkpt>
      <trkpt lat="47.51648" lon="6.61905">
        <ele>477</ele>
        <time>2015-03-22T10:04:37.000Z</time>
      </trkpt>
      <trkpt lat="47.51649" lon="6.61903">
        <ele>477</ele>
        <time>2015-03-22T10:04:38.001Z</time>
      </trkpt>
      <trkpt lat="47.51653" lon="6.61898">
        <ele>477</ele>
        <time>2015-03-22T10:04:39.000Z</time>
      </trkpt>
      <trkpt lat="47.51654" lon="6.61895">
        <ele>477</ele>
        <time>2015-03-22T10:04:39.999Z</time>
      </trkpt>
      <trkpt lat="47.51658" lon="6.61891">
        <ele>477</ele>
        <time>2015-03-22T10:04:41.000Z</time>
      </trkpt>
      <trkpt lat="47.5166" lon="6.61888">
        <ele>477</ele>
        <time>2015-03-22T10:04:42.000Z</time>
      </trkpt>
      <trkpt lat="47.51662" lon="6.61886">
        <ele>477</ele>
        <time>2015-03-22T10:04:42.999Z</time>
      </trkpt>
      <trkpt lat="47.51664" lon="6.61881">
        <ele>477</ele>
        <time>2015-03-22T10:04:44.000Z</time>
      </trkpt>
      <trkpt lat="47.51665" lon="6.61877">
        <ele>477</ele>
        <time>2015-03-22T10:04:45.000Z</time>
      </trkpt>
      <trkpt lat="47.51667" lon="6.61874">
        <ele>478</ele>
        <time>2015-03-22T10:04:46.000Z</time>
      </trkpt>
      <trkpt lat="47.51669" lon="6.61871">
        <ele>478</ele>
        <time>2015-03-22T10:04:47.000Z</time>
      </trkpt>
      <trkpt lat="47.51672" lon="6.61867">
        <ele>478</ele>
        <time>2015-03-22T10:04:48.000Z</time>
      </trkpt>
      <trkpt lat="47.51675" lon="6.61863">
        <ele>478</ele>
        <time>2015-03-22T10:04:49.000Z</time>
      </trkpt>
      <trkpt lat="47.51678" lon="6.6186">
        <ele>478</ele>
        <time>2015-03-22T10:04:50.000Z</time>
      </trkpt>
      <trkpt lat="47.5168" lon="6.61858">
        <ele>478</ele>
        <time>2015-03-22T10:04:51.000Z</time>
      </trkpt>
      <trkpt lat="47.51683" lon="6.61856">
        <ele>478</ele>
        <time>2015-03-22T10:04:52.000Z</time>
      </trkpt>
      <trkpt lat="47.51685" lon="6.61855">
        <ele>478</ele>
        <time>2015-03-22T10:04:53.000Z</time>
      </trkpt>
      <trkpt lat="47.51689" lon="6.61853">
        <ele>479</ele>
        <time>2015-03-22T10:04:55.000Z</time>
      </trkpt>
      <trkpt lat="47.5169" lon="6.61853">
        <ele>479</ele>
        <time>2015-03-22T10:04:55.999Z</time>
      </trkpt>
      <trkpt lat="47.51693" lon="6.61853">
        <ele>479</ele>
        <time>2015-03-22T10:04:57.000Z</time>
      </trkpt>
      <trkpt lat="47.51696" lon="6.61854">
        <ele>479</ele>
        <time>2015-03-22T10:04:58.000Z</time>
      </trkpt>
      <trkpt lat="47.51699" lon="6.61854">
        <ele>479</ele>
        <time>2015-03-22T10:04:59.000Z</time>
      </trkpt>
      <trkpt lat="47.51702" lon="6.61854">
        <ele>479</ele>
        <time>2015-03-22T10:05:00.000Z</time>
      </trkpt>
      <trkpt lat="47.51705" lon="6.61855">
        <ele>479</ele>
        <time>2015-03-22T10:05:00.999Z</time>
      </trkpt>
      <trkpt lat="47.51708" lon="6.61854">
        <ele>479</ele>
        <time>2015-03-22T10:05:02.000Z</time>
      </trkpt>
      <trkpt lat="47.51711" lon="6.61853">
        <ele>479</ele>
        <time>2015-03-22T10:05:03.000Z</time>
      </trkpt>
      <trkpt lat="47.51714" lon="6.6185">
        <ele>479</ele>
        <time>2015-03-22T10:05:04.000Z</time>
      </trkpt>
      <trkpt lat="47.51717" lon="6.61847">
        <ele>479</ele>
        <time>2015-03-22T10:05:05.000Z</time>
      </trkpt>
      <trkpt lat="47.51719" lon="6.61843">
        <ele>480</ele>
        <time>2015-03-22T10:05:06.000Z</time>
      </trkpt>
      <trkpt lat="47.51722" lon="6.6184">
        <ele>480</ele>
        <time>2015-03-22T10:05:07.000Z</time>
      </trkpt>
      <trkpt lat="47.51724" lon="6.61837">
        <ele>480</ele>
        <time>2015-03-22T10:05:08.000Z</time>
      </trkpt>
      <trkpt lat="47.51727" lon="6.61832">
        <ele>479</ele>
        <time>2015-03-22T10:05:09.000Z</time>
      </trkpt>
      <trkpt lat="47.51729" lon="6.6183">
        <ele>480</ele>
        <time>2015-03-22T10:05:10.000Z</time>
      </trkpt>
      <trkpt lat="47.51729" lon="6.61827">
        <ele>479</ele>
        <time>2015-03-22T10:05:11.000Z</time>
      </trkpt>
      <trkpt lat="47.51729" lon="6.61823">
        <ele>479</ele>
        <time>2015-03-22T10:05:12.000Z</time>
      </trkpt>
      <trkpt lat="47.51729" lon="6.61819">
        <ele>479</ele>
        <time>2015-03-22T10:05:13.000Z</time>
      </trkpt>
      <trkpt lat="47.51729" lon="6.61815">
        <ele>479</ele>
        <time>2015-03-22T10:05:14.000Z</time>
      </trkpt>
      <trkpt lat="47.51729" lon="6.61812">
        <ele>479</ele>
        <time>2015-03-22T10:05:15.000Z</time>
      </trkpt>
      <trkpt lat="47.5173" lon="6.61808">
        <ele>479</ele>
        <time>2015-03-22T10:05:16.000Z</time>
      </trkpt>
      <trkpt lat="47.51731" lon="6.61802">
        <ele>479</ele>
        <time>2015-03-22T10:05:18.000Z</time>
      </trkpt>
      <trkpt lat="47.51731" lon="6.618">
        <ele>479</ele>
        <time>2015-03-22T10:05:19.000Z</time>
      </trkpt>
      <trkpt lat="47.51731" lon="6.61795">
        <ele>479</ele>
        <time>2015-03-22T10:05:21.000Z</time>
      </trkpt>
      <trkpt lat="47.5173" lon="6.61792">
        <ele>479</ele>
        <time>2015-03-22T10:05:22.000Z</time>
      </trkpt>
      <trkpt lat="47.5173" lon="6.61788">
        <ele>479</ele>
        <time>2015-03-22T10:05:23.000Z</time>
      </trkpt>
      <trkpt lat="47.5173" lon="6.61785">
        <ele>479</ele>
        <time>2015-03-22T10:05:24.000Z</time>
      </trkpt>
      <trkpt lat="47.51731" lon="6.61779">
        <ele>479</ele>
        <time>2015-03-22T10:05:26.000Z</time>
      </trkpt>
      <trkpt lat="47.51733" lon="6.61777">
        <ele>479</ele>
        <time>2015-03-22T10:05:27.000Z</time>
      </trkpt>
      <trkpt lat="47.51735" lon="6.61772">
        <ele>479</ele>
        <time>2015-03-22T10:05:31.000Z</time>
      </trkpt>
      <trkpt lat="47.51735" lon="6.61771">
        <ele>479</ele>
        <time>2015-03-22T10:05:32.000Z</time>
      </trkpt>
      <trkpt lat="47.51735" lon="6.61765">
        <ele>479</ele>
        <time>2015-03-22T10:05:43.000Z</time>
      </trkpt>
      <trkpt lat="47.51735" lon="6.61764">
        <ele>479</ele>
        <time>2015-03-22T10:05:44.001Z</time>
      </trkpt>
      <trkpt lat="47.51739" lon="6.61766">
        <ele>479</ele>
        <time>2015-03-22T10:05:49.000Z</time>
      </trkpt>
      <trkpt lat="47.5174" lon="6.61767">
        <ele>479</ele>
        <time>2015-03-22T10:05:50.000Z</time>
      </trkpt>
      <trkpt lat="47.51742" lon="6.61769">
        <ele>479</ele>
        <time>2015-03-22T10:05:53.000Z</time>
      </trkpt>
      <trkpt lat="47.51744" lon="6.6177">
        <ele>479</ele>
        <time>2015-03-22T10:05:54.000Z</time>
      </trkpt>
      <trkpt lat="47.51748" lon="6.61771">
        <ele>479</ele>
        <time>2015-03-22T10:05:56.000Z</time>
      </trkpt>
      <trkpt lat="47.5175" lon="6.61771">
        <ele>479</ele>
        <time>2015-03-22T10:05:57.000Z</time>
      </trkpt>
      <trkpt lat="47.51754" lon="6.61772">
        <ele>480</ele>
        <time>2015-03-22T10:05:59.000Z</time>
      </trkpt>
      <trkpt lat="47.51755" lon="6.61772">
        <ele>480</ele>
        <time>2015-03-22T10:06:00.000Z</time>
      </trkpt>
      <trkpt lat="47.51757" lon="6.61777">
        <ele>480</ele>
        <time>2015-03-22T10:06:05.000Z</time>
      </trkpt>
      <trkpt lat="47.51758" lon="6.61778">
        <ele>480</ele>
        <time>2015-03-22T10:06:06.000Z</time>
      </trkpt>
      <trkpt lat="47.51761" lon="6.61781">
        <ele>480</ele>
        <time>2015-03-22T10:06:08.000Z</time>
      </trkpt>
      <trkpt lat="47.51763" lon="6.61782">
        <ele>480</ele>
        <time>2015-03-22T10:06:09.000Z</time>
      </trkpt>
      <trkpt lat="47.51766" lon="6.61783">
        <ele>480</ele>
        <time>2015-03-22T10:06:10.000Z</time>
      </trkpt>
      <trkpt lat="47.51768" lon="6.61784">
        <ele>480</ele>
        <time>2015-03-22T10:06:11.000Z</time>
      </trkpt>
      <trkpt lat="47.51771" lon="6.61786">
        <ele>480</ele>
        <time>2015-03-22T10:06:12.000Z</time>
      </trkpt>
      <trkpt lat="47.51773" lon="6.61786">
        <ele>480</ele>
        <time>2015-03-22T10:06:13.094Z</time>
      </trkpt>
      <trkpt lat="47.51777" lon="6.61788">
        <ele>480</ele>
        <time>2015-03-22T10:06:14.000Z</time>
      </trkpt>
      <trkpt lat="47.5178" lon="6.61788">
        <ele>480</ele>
        <time>2015-03-22T10:06:15.000Z</time>
      </trkpt>
      <trkpt lat="47.51782" lon="6.61789">
        <ele>480</ele>
        <time>2015-03-22T10:06:16.000Z</time>
      </trkpt>
      <trkpt lat="47.51784" lon="6.6179">
        <ele>480</ele>
        <time>2015-03-22T10:06:17.000Z</time>
      </trkpt>
      <trkpt lat="47.51788" lon="6.61792">
        <ele>480</ele>
        <time>2015-03-22T10:06:19.000Z</time>
      </trkpt>
      <trkpt lat="47.5179" lon="6.61793">
        <ele>481</ele>
        <time>2015-03-22T10:06:20.000Z</time>
      </trkpt>
      <trkpt lat="47.51792" lon="6.61795">
        <ele>480</ele>
        <time>2015-03-22T10:06:21.000Z</time>
      </trkpt>
      <trkpt lat="47.51794" lon="6.61797">
        <ele>480</ele>
        <time>2015-03-22T10:06:22.000Z</time>
      </trkpt>
      <trkpt lat="47.51798" lon="6.61799">
        <ele>480</ele>
        <time>2015-03-22T10:06:24.000Z</time>
      </trkpt>
      <trkpt lat="47.518" lon="6.618">
        <ele>480</ele>
        <time>2015-03-22T10:06:25.000Z</time>
      </trkpt>
      <trkpt lat="47.51801" lon="6.61802">
        <ele>480</ele>
        <time>2015-03-22T10:06:26.000Z</time>
      </trkpt>
      <trkpt lat="47.51804" lon="6.61803">
        <ele>480</ele>
        <time>2015-03-22T10:06:27.000Z</time>
      </trkpt>
      <trkpt lat="47.51806" lon="6.61805">
        <ele>480</ele>
        <time>2015-03-22T10:06:28.000Z</time>
      </trkpt>
      <trkpt lat="47.51808" lon="6.61807">
        <ele>480</ele>
        <time>2015-03-22T10:06:29.000Z</time>
      </trkpt>
      <trkpt lat="47.5181" lon="6.61809">
        <ele>480</ele>
        <time>2015-03-22T10:06:30.000Z</time>
      </trkpt>
      <trkpt lat="47.51812" lon="6.61811">
        <ele>480</ele>
        <time>2015-03-22T10:06:31.000Z</time>
      </trkpt>
      <trkpt lat="47.51815" lon="6.61814">
        <ele>480</ele>
        <time>2015-03-22T10:06:33.000Z</time>
      </trkpt>
      <trkpt lat="47.51816" lon="6.61816">
        <ele>480</ele>
        <time>2015-03-22T10:06:34.000Z</time>
      </trkpt>
      <trkpt lat="47.51819" lon="6.61821">
        <ele>480</ele>
        <time>2015-03-22T10:06:36.000Z</time>
      </trkpt>
      <trkpt lat="47.51821" lon="6.61822">
        <ele>480</ele>
        <time>2015-03-22T10:06:37.000Z</time>
      </trkpt>
      <trkpt lat="47.51824" lon="6.61823">
        <ele>480</ele>
        <time>2015-03-22T10:06:38.000Z</time>
      </trkpt>
      <trkpt lat="47.51826" lon="6.61824">
        <ele>480</ele>
        <time>2015-03-22T10:06:39.000Z</time>
      </trkpt>
      <trkpt lat="47.51829" lon="6.61824">
        <ele>480</ele>
        <time>2015-03-22T10:06:40.000Z</time>
      </trkpt>
      <trkpt lat="47.51831" lon="6.61825">
        <ele>480</ele>
        <time>2015-03-22T10:06:41.000Z</time>
      </trkpt>
      <trkpt lat="47.51834" lon="6.61826">
        <ele>480</ele>
        <time>2015-03-22T10:06:42.000Z</time>
      </trkpt>
      <trkpt lat="47.51836" lon="6.61828">
        <ele>480</ele>
        <time>2015-03-22T10:06:43.000Z</time>
      </trkpt>
      <trkpt lat="47.51838" lon="6.61831">
        <ele>480</ele>
        <time>2015-03-22T10:06:44.001Z</time>
      </trkpt>
      <trkpt lat="47.51841" lon="6.61836">
        <ele>479</ele>
        <time>2015-03-22T10:06:45.000Z</time>
      </trkpt>
      <trkpt lat="47.51843" lon="6.61839">
        <ele>479</ele>
        <time>2015-03-22T10:06:46.000Z</time>
      </trkpt>
      <trkpt lat="47.51847" lon="6.61846">
        <ele>478</ele>
        <time>2015-03-22T10:06:47.000Z</time>
      </trkpt>
      <trkpt lat="47.5185" lon="6.61851">
        <ele>478</ele>
        <time>2015-03-22T10:06:48.000Z</time>
      </trkpt>
      <trkpt lat="47.51853" lon="6.61857">
        <ele>478</ele>
        <time>2015-03-22T10:06:49.000Z</time>
      </trkpt>
      <trkpt lat="47.51856" lon="6.61862">
        <ele>477</ele>
        <time>2015-03-22T10:06:50.000Z</time>
      </trkpt>
      <trkpt lat="47.5186" lon="6.61867">
        <ele>477</ele>
        <time>2015-03-22T10:06:51.000Z</time>
      </trkpt>
      <trkpt lat="47.51864" lon="6.61871">
        <ele>477</ele>
        <time>2015-03-22T10:06:52.000Z</time>
      </trkpt>
      <trkpt lat="47.51868" lon="6.61875">
        <ele>477</ele>
        <time>2015-03-22T10:06:53.000Z</time>
      </trkpt>
      <trkpt lat="47.51871" lon="6.61877">
        <ele>477</ele>
        <time>2015-03-22T10:06:54.000Z</time>
      </trkpt>
      <trkpt lat="47.51873" lon="6.61878">
        <ele>477</ele>
        <time>2015-03-22T10:06:55.000Z</time>
      </trkpt>
      <trkpt lat="47.51877" lon="6.6188">
        <ele>477</ele>
        <time>2015-03-22T10:06:58.000Z</time>
      </trkpt>
      <trkpt lat="47.51877" lon="6.61882">
        <ele>477</ele>
        <time>2015-03-22T10:06:59.000Z</time>
      </trkpt>
      <trkpt lat="47.51875" lon="6.61887">
        <ele>477</ele>
        <time>2015-03-22T10:07:01.000Z</time>
      </trkpt>
      <trkpt lat="47.51873" lon="6.61888">
        <ele>477</ele>
        <time>2015-03-22T10:07:02.001Z</time>
      </trkpt>
      <trkpt lat="47.51872" lon="6.61893">
        <ele>477</ele>
        <time>2015-03-22T10:07:03.000Z</time>
      </trkpt>
      <trkpt lat="47.51873" lon="6.61896">
        <ele>477</ele>
        <time>2015-03-22T10:07:04.000Z</time>
      </trkpt>
      <trkpt lat="47.51875" lon="6.61899">
        <ele>477</ele>
        <time>2015-03-22T10:07:05.000Z</time>
      </trkpt>
      <trkpt lat="47.51878" lon="6.61902">
        <ele>476</ele>
        <time>2015-03-22T10:07:06.000Z</time>
      </trkpt>
      <trkpt lat="47.51882" lon="6.61904">
        <ele>476</ele>
        <time>2015-03-22T10:07:07.000Z</time>
      </trkpt>
      <trkpt lat="47.51886" lon="6.61906">
        <ele>476</ele>
        <time>2015-03-22T10:07:08.000Z</time>
      </trkpt>
      <trkpt lat="47.51891" lon="6.61908">
        <ele>476</ele>
        <time>2015-03-22T10:07:09.000Z</time>
      </trkpt>
      <trkpt lat="47.51896" lon="6.61909">
        <ele>475</ele>
        <time>2015-03-22T10:07:10.000Z</time>
      </trkpt>
      <trkpt lat="47.51901" lon="6.61911">
        <ele>475</ele>
        <time>2015-03-22T10:07:11.000Z</time>
      </trkpt>
      <trkpt lat="47.51905" lon="6.61913">
        <ele>474</ele>
        <time>2015-03-22T10:07:12.000Z</time>
      </trkpt>
      <trkpt lat="47.51908" lon="6.61917">
        <ele>474</ele>
        <time>2015-03-22T10:07:13.000Z</time>
      </trkpt>
      <trkpt lat="47.51912" lon="6.6192">
        <ele>474</ele>
        <time>2015-03-22T10:07:14.000Z</time>
      </trkpt>
      <trkpt lat="47.51916" lon="6.61924">
        <ele>474</ele>
        <time>2015-03-22T10:07:15.000Z</time>
      </trkpt>
      <trkpt lat="47.5192" lon="6.61925">
        <ele>471</ele>
        <time>2015-03-22T10:07:16.000Z</time>
      </trkpt>
      <trkpt lat="47.51923" lon="6.61927">
        <ele>471</ele>
        <time>2015-03-22T10:07:17.000Z</time>
      </trkpt>
      <trkpt lat="47.51926" lon="6.61928">
        <ele>470</ele>
        <time>2015-03-22T10:07:18.000Z</time>
      </trkpt>
      <trkpt lat="47.51929" lon="6.61931">
        <ele>470</ele>
        <time>2015-03-22T10:07:19.000Z</time>
      </trkpt>
      <trkpt lat="47.51933" lon="6.61934">
        <ele>469</ele>
        <time>2015-03-22T10:07:20.000Z</time>
      </trkpt>
      <trkpt lat="47.51938" lon="6.61936">
        <ele>469</ele>
        <time>2015-03-22T10:07:21.000Z</time>
      </trkpt>
      <trkpt lat="47.51943" lon="6.6194">
        <ele>468</ele>
        <time>2015-03-22T10:07:22.000Z</time>
      </trkpt>
      <trkpt lat="47.51959" lon="6.61951">
        <ele>467</ele>
        <time>2015-03-22T10:07:23.000Z</time>
      </trkpt>
      <trkpt lat="47.51966" lon="6.61958">
        <ele>467</ele>
        <time>2015-03-22T10:07:24.000Z</time>
      </trkpt>
      <trkpt lat="47.51973" lon="6.61965">
        <ele>466</ele>
        <time>2015-03-22T10:07:25.000Z</time>
      </trkpt>
      <trkpt lat="47.51981" lon="6.61973">
        <ele>466</ele>
        <time>2015-03-22T10:07:26.000Z</time>
      </trkpt>
      <trkpt lat="47.51987" lon="6.6198">
        <ele>465</ele>
        <time>2015-03-22T10:07:27.000Z</time>
      </trkpt>
      <trkpt lat="47.51997" lon="6.61988">
        <ele>464</ele>
        <time>2015-03-22T10:07:28.000Z</time>
      </trkpt>
      <trkpt lat="47.52005" lon="6.61995">
        <ele>460</ele>
        <time>2015-03-22T10:07:29.000Z</time>
      </trkpt>
      <trkpt lat="47.52011" lon="6.62002">
        <ele>459</ele>
        <time>2015-03-22T10:07:30.000Z</time>
      </trkpt>
      <trkpt lat="47.52008" lon="6.62011">
        <ele>459</ele>
        <time>2015-03-22T10:07:31.000Z</time>
      </trkpt>
      <trkpt lat="47.52009" lon="6.62019">
        <ele>457</ele>
        <time>2015-03-22T10:07:32.000Z</time>
      </trkpt>
      <trkpt lat="47.5201" lon="6.62029">
        <ele>457</ele>
        <time>2015-03-22T10:07:33.000Z</time>
      </trkpt>
      <trkpt lat="47.52013" lon="6.62041">
        <ele>456</ele>
        <time>2015-03-22T10:07:34.000Z</time>
      </trkpt>
      <trkpt lat="47.52015" lon="6.62051">
        <ele>456</ele>
        <time>2015-03-22T10:07:35.000Z</time>
      </trkpt>
      <trkpt lat="47.52021" lon="6.62058">
        <ele>455</ele>
        <time>2015-03-22T10:07:36.000Z</time>
      </trkpt>
      <trkpt lat="47.52029" lon="6.62063">
        <ele>455</ele>
        <time>2015-03-22T10:07:37.000Z</time>
      </trkpt>
      <trkpt lat="47.52034" lon="6.62067">
        <ele>454</ele>
        <time>2015-03-22T10:07:38.000Z</time>
      </trkpt>
      <trkpt lat="47.52038" lon="6.6207">
        <ele>454</ele>
        <time>2015-03-22T10:07:39.000Z</time>
      </trkpt>
      <trkpt lat="47.52043" lon="6.62073">
        <ele>454</ele>
        <time>2015-03-22T10:07:40.000Z</time>
      </trkpt>
      <trkpt lat="47.52047" lon="6.62076">
        <ele>453</ele>
        <time>2015-03-22T10:07:41.000Z</time>
      </trkpt>
      <trkpt lat="47.52051" lon="6.62079">
        <ele>453</ele>
        <time>2015-03-22T10:07:42.000Z</time>
      </trkpt>
      <trkpt lat="47.52058" lon="6.62081">
        <ele>452</ele>
        <time>2015-03-22T10:07:43.000Z</time>
      </trkpt>
      <trkpt lat="47.52063" lon="6.62082">
        <ele>451</ele>
        <time>2015-03-22T10:07:44.000Z</time>
      </trkpt>
      <trkpt lat="47.52068" lon="6.62083">
        <ele>451</ele>
        <time>2015-03-22T10:07:45.000Z</time>
      </trkpt>
      <trkpt lat="47.52073" lon="6.62084">
        <ele>450</ele>
        <time>2015-03-22T10:07:46.000Z</time>
      </trkpt>
      <trkpt lat="47.52077" lon="6.62084">
        <ele>449</ele>
        <time>2015-03-22T10:07:47.000Z</time>
      </trkpt>
      <trkpt lat="47.52081" lon="6.62084">
        <ele>448</ele>
        <time>2015-03-22T10:07:48.000Z</time>
      </trkpt>
      <trkpt lat="47.52094" lon="6.62085">
        <ele>446</ele>
        <time>2015-03-22T10:07:49.000Z</time>
      </trkpt>
      <trkpt lat="47.52104" lon="6.62088">
        <ele>444</ele>
        <time>2015-03-22T10:07:50.000Z</time>
      </trkpt>
      <trkpt lat="47.52111" lon="6.62092">
        <ele>443</ele>
        <time>2015-03-22T10:07:51.000Z</time>
      </trkpt>
      <trkpt lat="47.52118" lon="6.62094">
        <ele>443</ele>
        <time>2015-03-22T10:07:52.000Z</time>
      </trkpt>
      <trkpt lat="47.52126" lon="6.62096">
        <ele>442</ele>
        <time>2015-03-22T10:07:53.000Z</time>
      </trkpt>
      <trkpt lat="47.52132" lon="6.621">
        <ele>441</ele>
        <time>2015-03-22T10:07:54.000Z</time>
      </trkpt>
      <trkpt lat="47.52139" lon="6.62102">
        <ele>441</ele>
        <time>2015-03-22T10:07:55.000Z</time>
      </trkpt>
      <trkpt lat="47.52148" lon="6.62105">
        <ele>440</ele>
        <time>2015-03-22T10:07:56.000Z</time>
      </trkpt>
      <trkpt lat="47.52153" lon="6.62107">
        <ele>440</ele>
        <time>2015-03-22T10:07:57.000Z</time>
      </trkpt>
      <trkpt lat="47.52158" lon="6.62112">
        <ele>440</ele>
        <time>2015-03-22T10:07:58.000Z</time>
      </trkpt>
      <trkpt lat="47.52165" lon="6.62117">
        <ele>440</ele>
        <time>2015-03-22T10:07:59.000Z</time>
      </trkpt>
      <trkpt lat="47.5217" lon="6.62122">
        <ele>435</ele>
        <time>2015-03-22T10:08:00.000Z</time>
      </trkpt>
      <trkpt lat="47.52175" lon="6.62127">
        <ele>435</ele>
        <time>2015-03-22T10:08:01.000Z</time>
      </trkpt>
      <trkpt lat="47.5218" lon="6.62132">
        <ele>435</ele>
        <time>2015-03-22T10:08:02.000Z</time>
      </trkpt>
      <trkpt lat="47.52184" lon="6.62139">
        <ele>435</ele>
        <time>2015-03-22T10:08:03.000Z</time>
      </trkpt>
      <trkpt lat="47.52189" lon="6.62144">
        <ele>435</ele>
        <time>2015-03-22T10:08:04.000Z</time>
      </trkpt>
      <trkpt lat="47.52194" lon="6.62149">
        <ele>435</ele>
        <time>2015-03-22T10:08:05.000Z</time>
      </trkpt>
      <trkpt lat="47.52198" lon="6.62153">
        <ele>435</ele>
        <time>2015-03-22T10:08:06.000Z</time>
      </trkpt>
      <trkpt lat="47.52203" lon="6.62158">
        <ele>435</ele>
        <time>2015-03-22T10:08:07.000Z</time>
      </trkpt>
      <trkpt lat="47.52206" lon="6.62161">
        <ele>435</ele>
        <time>2015-03-22T10:08:08.000Z</time>
      </trkpt>
      <trkpt lat="47.5221" lon="6.62165">
        <ele>434</ele>
        <time>2015-03-22T10:08:09.000Z</time>
      </trkpt>
      <trkpt lat="47.52215" lon="6.62169">
        <ele>435</ele>
        <time>2015-03-22T10:08:10.000Z</time>
      </trkpt>
      <trkpt lat="47.52218" lon="6.62173">
        <ele>435</ele>
        <time>2015-03-22T10:08:11.000Z</time>
      </trkpt>
      <trkpt lat="47.52222" lon="6.62178">
        <ele>435</ele>
        <time>2015-03-22T10:08:12.000Z</time>
      </trkpt>
      <trkpt lat="47.52226" lon="6.62181">
        <ele>434</ele>
        <time>2015-03-22T10:08:13.000Z</time>
      </trkpt>
      <trkpt lat="47.52229" lon="6.62185">
        <ele>434</ele>
        <time>2015-03-22T10:08:14.000Z</time>
      </trkpt>
      <trkpt lat="47.52234" lon="6.62188">
        <ele>434</ele>
        <time>2015-03-22T10:08:15.000Z</time>
      </trkpt>
      <trkpt lat="47.5224" lon="6.62193">
        <ele>434</ele>
        <time>2015-03-22T10:08:16.000Z</time>
      </trkpt>
      <trkpt lat="47.52244" lon="6.62195">
        <ele>434</ele>
        <time>2015-03-22T10:08:17.000Z</time>
      </trkpt>
      <trkpt lat="47.52249" lon="6.62198">
        <ele>434</ele>
        <time>2015-03-22T10:08:18.000Z</time>
      </trkpt>
      <trkpt lat="47.52253" lon="6.62201">
        <ele>434</ele>
        <time>2015-03-22T10:08:19.000Z</time>
      </trkpt>
      <trkpt lat="47.52257" lon="6.62204">
        <ele>434</ele>
        <time>2015-03-22T10:08:20.000Z</time>
      </trkpt>
      <trkpt lat="47.52262" lon="6.62207">
        <ele>434</ele>
        <time>2015-03-22T10:08:21.000Z</time>
      </trkpt>
      <trkpt lat="47.52266" lon="6.62209">
        <ele>434</ele>
        <time>2015-03-22T10:08:22.000Z</time>
      </trkpt>
      <trkpt lat="47.52271" lon="6.6221">
        <ele>434</ele>
        <time>2015-03-22T10:08:23.000Z</time>
      </trkpt>
      <trkpt lat="47.52276" lon="6.6221">
        <ele>434</ele>
        <time>2015-03-22T10:08:24.000Z</time>
      </trkpt>
      <trkpt lat="47.52282" lon="6.62211">
        <ele>434</ele>
        <time>2015-03-22T10:08:25.000Z</time>
      </trkpt>
      <trkpt lat="47.52285" lon="6.62213">
        <ele>434</ele>
        <time>2015-03-22T10:08:26.000Z</time>
      </trkpt>
      <trkpt lat="47.52287" lon="6.62215">
        <ele>434</ele>
        <time>2015-03-22T10:08:27.000Z</time>
      </trkpt>
      <trkpt lat="47.5229" lon="6.62219">
        <ele>434</ele>
        <time>2015-03-22T10:08:28.000Z</time>
      </trkpt>
      <trkpt lat="47.52292" lon="6.62222">
        <ele>434</ele>
        <time>2015-03-22T10:08:29.000Z</time>
      </trkpt>
      <trkpt lat="47.52294" lon="6.62227">
        <ele>434</ele>
        <time>2015-03-22T10:08:30.000Z</time>
      </trkpt>
      <trkpt lat="47.52296" lon="6.62231">
        <ele>434</ele>
        <time>2015-03-22T10:08:31.001Z</time>
      </trkpt>
      <trkpt lat="47.52298" lon="6.62235">
        <ele>434</ele>
        <time>2015-03-22T10:08:32.000Z</time>
      </trkpt>
      <trkpt lat="47.523" lon="6.62239">
        <ele>434</ele>
        <time>2015-03-22T10:08:33.000Z</time>
      </trkpt>
      <trkpt lat="47.52303" lon="6.62242">
        <ele>434</ele>
        <time>2015-03-22T10:08:34.000Z</time>
      </trkpt>
      <trkpt lat="47.52306" lon="6.62246">
        <ele>434</ele>
        <time>2015-03-22T10:08:35.000Z</time>
      </trkpt>
      <trkpt lat="47.52309" lon="6.62249">
        <ele>434</ele>
        <time>2015-03-22T10:08:36.000Z</time>
      </trkpt>
      <trkpt lat="47.52313" lon="6.62251">
        <ele>434</ele>
        <time>2015-03-22T10:08:37.000Z</time>
      </trkpt>
      <trkpt lat="47.52317" lon="6.62254">
        <ele>434</ele>
        <time>2015-03-22T10:08:38.000Z</time>
      </trkpt>
      <trkpt lat="47.52321" lon="6.62256">
        <ele>434</ele>
        <time>2015-03-22T10:08:39.000Z</time>
      </trkpt>
      <trkpt lat="47.52325" lon="6.62258">
        <ele>434</ele>
        <time>2015-03-22T10:08:40.000Z</time>
      </trkpt>
      <trkpt lat="47.52329" lon="6.6226">
        <ele>434</ele>
        <time>2015-03-22T10:08:41.000Z</time>
      </trkpt>
      <trkpt lat="47.52333" lon="6.62261">
        <ele>434</ele>
        <time>2015-03-22T10:08:42.000Z</time>
      </trkpt>
      <trkpt lat="47.52337" lon="6.62262">
        <ele>433</ele>
        <time>2015-03-22T10:08:43.000Z</time>
      </trkpt>
      <trkpt lat="47.5234" lon="6.62263">
        <ele>433</ele>
        <time>2015-03-22T10:08:44.000Z</time>
      </trkpt>
      <trkpt lat="47.52342" lon="6.62264">
        <ele>433</ele>
        <time>2015-03-22T10:08:45.000Z</time>
      </trkpt>
      <trkpt lat="47.52344" lon="6.62266">
        <ele>433</ele>
        <time>2015-03-22T10:08:46.000Z</time>
      </trkpt>
      <trkpt lat="47.52346" lon="6.62269">
        <ele>433</ele>
        <time>2015-03-22T10:08:47.000Z</time>
      </trkpt>
      <trkpt lat="47.52348" lon="6.62273">
        <ele>433</ele>
        <time>2015-03-22T10:08:48.000Z</time>
      </trkpt>
      <trkpt lat="47.5235" lon="6.62278">
        <ele>433</ele>
        <time>2015-03-22T10:08:49.000Z</time>
      </trkpt>
      <trkpt lat="47.52351" lon="6.62285">
        <ele>433</ele>
        <time>2015-03-22T10:08:50.000Z</time>
      </trkpt>
      <trkpt lat="47.52351" lon="6.6229">
        <ele>433</ele>
        <time>2015-03-22T10:08:51.000Z</time>
      </trkpt>
      <trkpt lat="47.5235" lon="6.62295">
        <ele>433</ele>
        <time>2015-03-22T10:08:52.000Z</time>
      </trkpt>
      <trkpt lat="47.5235" lon="6.62299">
        <ele>433</ele>
        <time>2015-03-22T10:08:53.000Z</time>
      </trkpt>
      <trkpt lat="47.52353" lon="6.62304">
        <ele>433</ele>
        <time>2015-03-22T10:08:57.000Z</time>
      </trkpt>
      <trkpt lat="47.52354" lon="6.62305">
        <ele>433</ele>
        <time>2015-03-22T10:08:58.000Z</time>
      </trkpt>
      <trkpt lat="47.52358" lon="6.62308">
        <ele>433</ele>
        <time>2015-03-22T10:09:01.000Z</time>
      </trkpt>
      <trkpt lat="47.52359" lon="6.62308">
        <ele>433</ele>
        <time>2015-03-22T10:09:02.000Z</time>
      </trkpt>
      <trkpt lat="47.52361" lon="6.62309">
        <ele>433</ele>
        <time>2015-03-22T10:09:03.000Z</time>
      </trkpt>
      <trkpt lat="47.52364" lon="6.62308">
        <ele>433</ele>
        <time>2015-03-22T10:09:04.000Z</time>
      </trkpt>
      <trkpt lat="47.52365" lon="6.62308">
        <ele>433</ele>
        <time>2015-03-22T10:09:05.002Z</time>
      </trkpt>
      <trkpt lat="47.52371" lon="6.62305">
        <ele>432</ele>
        <time>2015-03-22T10:09:06.000Z</time>
      </trkpt>
      <trkpt lat="47.52376" lon="6.62304">
        <ele>432</ele>
        <time>2015-03-22T10:09:07.000Z</time>
      </trkpt>
      <trkpt lat="47.5238" lon="6.62303">
        <ele>432</ele>
        <time>2015-03-22T10:09:08.000Z</time>
      </trkpt>
      <trkpt lat="47.52384" lon="6.62302">
        <ele>432</ele>
        <time>2015-03-22T10:09:09.000Z</time>
      </trkpt>
      <trkpt lat="47.52388" lon="6.62301">
        <ele>432</ele>
        <time>2015-03-22T10:09:10.000Z</time>
      </trkpt>
      <trkpt lat="47.5239" lon="6.623">
        <ele>432</ele>
        <time>2015-03-22T10:09:11.001Z</time>
      </trkpt>
      <trkpt lat="47.52395" lon="6.62299">
        <ele>432</ele>
        <time>2015-03-22T10:09:12.000Z</time>
      </trkpt>
      <trkpt lat="47.52397" lon="6.62299">
        <ele>432</ele>
        <time>2015-03-22T10:09:13.000Z</time>
      </trkpt>
      <trkpt lat="47.52401" lon="6.62298">
        <ele>432</ele>
        <time>2015-03-22T10:09:15.000Z</time>
      </trkpt>
      <trkpt lat="47.52403" lon="6.62296">
        <ele>432</ele>
        <time>2015-03-22T10:09:16.000Z</time>
      </trkpt>
      <trkpt lat="47.52405" lon="6.62295">
        <ele>432</ele>
        <time>2015-03-22T10:09:17.000Z</time>
      </trkpt>
      <trkpt lat="47.52409" lon="6.62294">
        <ele>432</ele>
        <time>2015-03-22T10:09:18.000Z</time>
      </trkpt>
      <trkpt lat="47.52413" lon="6.62292">
        <ele>432</ele>
        <time>2015-03-22T10:09:19.000Z</time>
      </trkpt>
      <trkpt lat="47.52418" lon="6.62291">
        <ele>429</ele>
        <time>2015-03-22T10:09:20.000Z</time>
      </trkpt>
      <trkpt lat="47.52423" lon="6.62289">
        <ele>429</ele>
        <time>2015-03-22T10:09:21.000Z</time>
      </trkpt>
      <trkpt lat="47.52428" lon="6.62287">
        <ele>429</ele>
        <time>2015-03-22T10:09:22.000Z</time>
      </trkpt>
      <trkpt lat="47.52433" lon="6.62287">
        <ele>429</ele>
        <time>2015-03-22T10:09:23.000Z</time>
      </trkpt>
      <trkpt lat="47.52438" lon="6.62288">
        <ele>429</ele>
        <time>2015-03-22T10:09:24.000Z</time>
      </trkpt>
      <trkpt lat="47.52443" lon="6.6229">
        <ele>429</ele>
        <time>2015-03-22T10:09:25.000Z</time>
      </trkpt>
      <trkpt lat="47.52448" lon="6.62292">
        <ele>429</ele>
        <time>2015-03-22T10:09:26.000Z</time>
      </trkpt>
      <trkpt lat="47.52453" lon="6.62295">
        <ele>428</ele>
        <time>2015-03-22T10:09:27.000Z</time>
      </trkpt>
      <trkpt lat="47.52458" lon="6.62297">
        <ele>428</ele>
        <time>2015-03-22T10:09:28.000Z</time>
      </trkpt>
      <trkpt lat="47.52462" lon="6.62298">
        <ele>428</ele>
        <time>2015-03-22T10:09:29.000Z</time>
      </trkpt>
      <trkpt lat="47.52467" lon="6.62299">
        <ele>428</ele>
        <time>2015-03-22T10:09:30.000Z</time>
      </trkpt>
      <trkpt lat="47.52469" lon="6.623">
        <ele>428</ele>
        <time>2015-03-22T10:09:31.000Z</time>
      </trkpt>
      <trkpt lat="47.52472" lon="6.62303">
        <ele>428</ele>
        <time>2015-03-22T10:09:34.000Z</time>
      </trkpt>
      <trkpt lat="47.52474" lon="6.62306">
        <ele>428</ele>
        <time>2015-03-22T10:09:35.000Z</time>
      </trkpt>
      <trkpt lat="47.52478" lon="6.62309">
        <ele>428</ele>
        <time>2015-03-22T10:09:36.000Z</time>
      </trkpt>
      <trkpt lat="47.52482" lon="6.62312">
        <ele>428</ele>
        <time>2015-03-22T10:09:37.000Z</time>
      </trkpt>
      <trkpt lat="47.52485" lon="6.62317">
        <ele>428</ele>
        <time>2015-03-22T10:09:38.000Z</time>
      </trkpt>
      <trkpt lat="47.52488" lon="6.62323">
        <ele>428</ele>
        <time>2015-03-22T10:09:39.000Z</time>
      </trkpt>
      <trkpt lat="47.5249" lon="6.6233">
        <ele>427</ele>
        <time>2015-03-22T10:09:40.000Z</time>
      </trkpt>
      <trkpt lat="47.52493" lon="6.62336">
        <ele>428</ele>
        <time>2015-03-22T10:09:41.000Z</time>
      </trkpt>
      <trkpt lat="47.52495" lon="6.62342">
        <ele>428</ele>
        <time>2015-03-22T10:09:42.000Z</time>
      </trkpt>
      <trkpt lat="47.52497" lon="6.62348">
        <ele>428</ele>
        <time>2015-03-22T10:09:43.000Z</time>
      </trkpt>
      <trkpt lat="47.525" lon="6.62353">
        <ele>428</ele>
        <time>2015-03-22T10:09:44.001Z</time>
      </trkpt>
      <trkpt lat="47.52502" lon="6.62358">
        <ele>427</ele>
        <time>2015-03-22T10:09:45.000Z</time>
      </trkpt>
      <trkpt lat="47.52504" lon="6.62363">
        <ele>427</ele>
        <time>2015-03-22T10:09:46.000Z</time>
      </trkpt>
      <trkpt lat="47.52515" lon="6.62387">
        <ele>428</ele>
        <time>2015-03-22T10:09:47.000Z</time>
      </trkpt>
      <trkpt lat="47.52518" lon="6.62397">
        <ele>428</ele>
        <time>2015-03-22T10:09:48.000Z</time>
      </trkpt>
      <trkpt lat="47.52519" lon="6.62401">
        <ele>428</ele>
        <time>2015-03-22T10:09:49.000Z</time>
      </trkpt>
      <trkpt lat="47.52521" lon="6.62406">
        <ele>428</ele>
        <time>2015-03-22T10:09:50.000Z</time>
      </trkpt>
      <trkpt lat="47.52523" lon="6.62413">
        <ele>428</ele>
        <time>2015-03-22T10:09:51.000Z</time>
      </trkpt>
      <trkpt lat="47.52526" lon="6.62418">
        <ele>431</ele>
        <time>2015-03-22T10:09:52.000Z</time>
      </trkpt>
      <trkpt lat="47.52524" lon="6.62423">
        <ele>431</ele>
        <time>2015-03-22T10:09:53.000Z</time>
      </trkpt>
      <trkpt lat="47.52525" lon="6.62429">
        <ele>431</ele>
        <time>2015-03-22T10:09:54.000Z</time>
      </trkpt>
      <trkpt lat="47.52526" lon="6.62433">
        <ele>431</ele>
        <time>2015-03-22T10:09:55.000Z</time>
      </trkpt>
      <trkpt lat="47.52528" lon="6.62437">
        <ele>431</ele>
        <time>2015-03-22T10:09:56.000Z</time>
      </trkpt>
      <trkpt lat="47.52529" lon="6.62442">
        <ele>431</ele>
        <time>2015-03-22T10:09:57.000Z</time>
      </trkpt>
      <trkpt lat="47.52532" lon="6.62446">
        <ele>432</ele>
        <time>2015-03-22T10:09:58.000Z</time>
      </trkpt>
      <trkpt lat="47.52535" lon="6.62451">
        <ele>432</ele>
        <time>2015-03-22T10:09:59.000Z</time>
      </trkpt>
      <trkpt lat="47.52537" lon="6.62456">
        <ele>432</ele>
        <time>2015-03-22T10:10:00.000Z</time>
      </trkpt>
      <trkpt lat="47.5254" lon="6.6246">
        <ele>432</ele>
        <time>2015-03-22T10:10:01.000Z</time>
      </trkpt>
      <trkpt lat="47.52544" lon="6.6247">
        <ele>432</ele>
        <time>2015-03-22T10:10:03.000Z</time>
      </trkpt>
      <trkpt lat="47.52546" lon="6.62474">
        <ele>432</ele>
        <time>2015-03-22T10:10:04.000Z</time>
      </trkpt>
      <trkpt lat="47.52548" lon="6.62479">
        <ele>433</ele>
        <time>2015-03-22T10:10:05.000Z</time>
      </trkpt>
      <trkpt lat="47.52549" lon="6.62482">
        <ele>433</ele>
        <time>2015-03-22T10:10:06.000Z</time>
      </trkpt>
      <trkpt lat="47.52551" lon="6.62488">
        <ele>433</ele>
        <time>2015-03-22T10:10:07.000Z</time>
      </trkpt>
      <trkpt lat="47.52553" lon="6.62493">
        <ele>433</ele>
        <time>2015-03-22T10:10:08.000Z</time>
      </trkpt>
      <trkpt lat="47.52555" lon="6.62498">
        <ele>433</ele>
        <time>2015-03-22T10:10:09.000Z</time>
      </trkpt>
      <trkpt lat="47.52556" lon="6.62503">
        <ele>435</ele>
        <time>2015-03-22T10:10:10.000Z</time>
      </trkpt>
      <trkpt lat="47.52558" lon="6.62508">
        <ele>435</ele>
        <time>2015-03-22T10:10:11.000Z</time>
      </trkpt>
      <trkpt lat="47.5256" lon="6.62512">
        <ele>435</ele>
        <time>2015-03-22T10:10:12.000Z</time>
      </trkpt>
      <trkpt lat="47.52561" lon="6.62516">
        <ele>435</ele>
        <time>2015-03-22T10:10:13.000Z</time>
      </trkpt>
      <trkpt lat="47.52564" lon="6.62519">
        <ele>435</ele>
        <time>2015-03-22T10:10:14.000Z</time>
      </trkpt>
      <trkpt lat="47.52566" lon="6.62522">
        <ele>436</ele>
        <time>2015-03-22T10:10:15.000Z</time>
      </trkpt>
      <trkpt lat="47.52568" lon="6.62525">
        <ele>436</ele>
        <time>2015-03-22T10:10:16.000Z</time>
      </trkpt>
      <trkpt lat="47.52571" lon="6.62528">
        <ele>436</ele>
        <time>2015-03-22T10:10:17.000Z</time>
      </trkpt>
      <trkpt lat="47.52573" lon="6.62532">
        <ele>436</ele>
        <time>2015-03-22T10:10:18.000Z</time>
      </trkpt>
      <trkpt lat="47.52574" lon="6.62535">
        <ele>436</ele>
        <time>2015-03-22T10:10:19.000Z</time>
      </trkpt>
      <trkpt lat="47.52575" lon="6.62539">
        <ele>436</ele>
        <time>2015-03-22T10:10:20.000Z</time>
      </trkpt>
      <trkpt lat="47.52576" lon="6.62543">
        <ele>436</ele>
        <time>2015-03-22T10:10:21.000Z</time>
      </trkpt>
      <trkpt lat="47.52577" lon="6.62547">
        <ele>436</ele>
        <time>2015-03-22T10:10:22.000Z</time>
      </trkpt>
      <trkpt lat="47.52578" lon="6.62551">
        <ele>436</ele>
        <time>2015-03-22T10:10:23.000Z</time>
      </trkpt>
      <trkpt lat="47.52579" lon="6.62554">
        <ele>436</ele>
        <time>2015-03-22T10:10:24.000Z</time>
      </trkpt>
      <trkpt lat="47.52579" lon="6.62558">
        <ele>436</ele>
        <time>2015-03-22T10:10:25.000Z</time>
      </trkpt>
      <trkpt lat="47.5258" lon="6.62563">
        <ele>436</ele>
        <time>2015-03-22T10:10:27.000Z</time>
      </trkpt>
      <trkpt lat="47.5258" lon="6.62566">
        <ele>436</ele>
        <time>2015-03-22T10:10:28.000Z</time>
      </trkpt>
      <trkpt lat="47.5258" lon="6.6257">
        <ele>436</ele>
        <time>2015-03-22T10:10:29.000Z</time>
      </trkpt>
      <trkpt lat="47.52579" lon="6.62574">
        <ele>437</ele>
        <time>2015-03-22T10:10:30.000Z</time>
      </trkpt>
      <trkpt lat="47.52579" lon="6.62579">
        <ele>437</ele>
        <time>2015-03-22T10:10:31.000Z</time>
      </trkpt>
      <trkpt lat="47.52578" lon="6.62583">
        <ele>437</ele>
        <time>2015-03-22T10:10:32.000Z</time>
      </trkpt>
      <trkpt lat="47.52577" lon="6.62588">
        <ele>437</ele>
        <time>2015-03-22T10:10:33.000Z</time>
      </trkpt>
      <trkpt lat="47.52577" lon="6.62593">
        <ele>437</ele>
        <time>2015-03-22T10:10:34.000Z</time>
      </trkpt>
      <trkpt lat="47.52576" lon="6.62596">
        <ele>437</ele>
        <time>2015-03-22T10:10:35.000Z</time>
      </trkpt>
      <trkpt lat="47.52576" lon="6.626">
        <ele>437</ele>
        <time>2015-03-22T10:10:36.000Z</time>
      </trkpt>
      <trkpt lat="47.52576" lon="6.62603">
        <ele>437</ele>
        <time>2015-03-22T10:10:37.000Z</time>
      </trkpt>
      <trkpt lat="47.52576" lon="6.62607">
        <ele>438</ele>
        <time>2015-03-22T10:10:38.000Z</time>
      </trkpt>
      <trkpt lat="47.52576" lon="6.6261">
        <ele>438</ele>
        <time>2015-03-22T10:10:39.000Z</time>
      </trkpt>
      <trkpt lat="47.52576" lon="6.62614">
        <ele>438</ele>
        <time>2015-03-22T10:10:40.000Z</time>
      </trkpt>
      <trkpt lat="47.52577" lon="6.6262">
        <ele>438</ele>
        <time>2015-03-22T10:10:42.000Z</time>
      </trkpt>
      <trkpt lat="47.52577" lon="6.62623">
        <ele>438</ele>
        <time>2015-03-22T10:10:43.000Z</time>
      </trkpt>
      <trkpt lat="47.52579" lon="6.62626">
        <ele>438</ele>
        <time>2015-03-22T10:10:44.000Z</time>
      </trkpt>
      <trkpt lat="47.5258" lon="6.62629">
        <ele>438</ele>
        <time>2015-03-22T10:10:45.000Z</time>
      </trkpt>
      <trkpt lat="47.52582" lon="6.62632">
        <ele>438</ele>
        <time>2015-03-22T10:10:46.000Z</time>
      </trkpt>
      <trkpt lat="47.52584" lon="6.62635">
        <ele>439</ele>
        <time>2015-03-22T10:10:46.999Z</time>
      </trkpt>
      <trkpt lat="47.52584" lon="6.62639">
        <ele>439</ele>
        <time>2015-03-22T10:10:48.000Z</time>
      </trkpt>
      <trkpt lat="47.52584" lon="6.62642">
        <ele>439</ele>
        <time>2015-03-22T10:10:49.000Z</time>
      </trkpt>
      <trkpt lat="47.5258" lon="6.62645">
        <ele>438</ele>
        <time>2015-03-22T10:10:52.000Z</time>
      </trkpt>
      <trkpt lat="47.52579" lon="6.62645">
        <ele>438</ele>
        <time>2015-03-22T10:10:53.000Z</time>
      </trkpt>
      <trkpt lat="47.52577" lon="6.62649">
        <ele>438</ele>
        <time>2015-03-22T10:10:57.000Z</time>
      </trkpt>
      <trkpt lat="47.52576" lon="6.62651">
        <ele>438</ele>
        <time>2015-03-22T10:10:58.000Z</time>
      </trkpt>
      <trkpt lat="47.52575" lon="6.62655">
        <ele>438</ele>
        <time>2015-03-22T10:11:00.000Z</time>
      </trkpt>
      <trkpt lat="47.52574" lon="6.62658">
        <ele>438</ele>
        <time>2015-03-22T10:11:01.000Z</time>
      </trkpt>
      <trkpt lat="47.52573" lon="6.62661">
        <ele>439</ele>
        <time>2015-03-22T10:11:02.000Z</time>
      </trkpt>
      <trkpt lat="47.52573" lon="6.62665">
        <ele>439</ele>
        <time>2015-03-22T10:11:03.000Z</time>
      </trkpt>
      <trkpt lat="47.52573" lon="6.6267">
        <ele>439</ele>
        <time>2015-03-22T10:11:04.000Z</time>
      </trkpt>
      <trkpt lat="47.52573" lon="6.62674">
        <ele>439</ele>
        <time>2015-03-22T10:11:05.000Z</time>
      </trkpt>
      <trkpt lat="47.52574" lon="6.62678">
        <ele>439</ele>
        <time>2015-03-22T10:11:06.000Z</time>
      </trkpt>
      <trkpt lat="47.52576" lon="6.62682">
        <ele>439</ele>
        <time>2015-03-22T10:11:07.000Z</time>
      </trkpt>
      <trkpt lat="47.52577" lon="6.62685">
        <ele>439</ele>
        <time>2015-03-22T10:11:08.000Z</time>
      </trkpt>
      <trkpt lat="47.52579" lon="6.62691">
        <ele>439</ele>
        <time>2015-03-22T10:11:09.000Z</time>
      </trkpt>
      <trkpt lat="47.5258" lon="6.62697">
        <ele>439</ele>
        <time>2015-03-22T10:11:10.000Z</time>
      </trkpt>
      <trkpt lat="47.5258" lon="6.62703">
        <ele>439</ele>
        <time>2015-03-22T10:11:11.000Z</time>
      </trkpt>
      <trkpt lat="47.52581" lon="6.62709">
        <ele>439</ele>
        <time>2015-03-22T10:11:12.000Z</time>
      </trkpt>
      <trkpt lat="47.52581" lon="6.62714">
        <ele>439</ele>
        <time>2015-03-22T10:11:13.000Z</time>
      </trkpt>
      <trkpt lat="47.5258" lon="6.62718">
        <ele>439</ele>
        <time>2015-03-22T10:11:14.000Z</time>
      </trkpt>
      <trkpt lat="47.5258" lon="6.62721">
        <ele>439</ele>
        <time>2015-03-22T10:11:15.000Z</time>
      </trkpt>
      <trkpt lat="47.52578" lon="6.62726">
        <ele>439</ele>
        <time>2015-03-22T10:11:17.000Z</time>
      </trkpt>
      <trkpt lat="47.52576" lon="6.62728">
        <ele>439</ele>
        <time>2015-03-22T10:11:18.000Z</time>
      </trkpt>
      <trkpt lat="47.52575" lon="6.62731">
        <ele>439</ele>
        <time>2015-03-22T10:11:19.000Z</time>
      </trkpt>
      <trkpt lat="47.52575" lon="6.62735">
        <ele>439</ele>
        <time>2015-03-22T10:11:20.000Z</time>
      </trkpt>
      <trkpt lat="47.52576" lon="6.6274">
        <ele>439</ele>
        <time>2015-03-22T10:11:21.000Z</time>
      </trkpt>
      <trkpt lat="47.52576" lon="6.62746">
        <ele>440</ele>
        <time>2015-03-22T10:11:22.000Z</time>
      </trkpt>
      <trkpt lat="47.52577" lon="6.62752">
        <ele>439</ele>
        <time>2015-03-22T10:11:23.000Z</time>
      </trkpt>
      <trkpt lat="47.52578" lon="6.62758">
        <ele>439</ele>
        <time>2015-03-22T10:11:24.000Z</time>
      </trkpt>
      <trkpt lat="47.52575" lon="6.62773">
        <ele>438</ele>
        <time>2015-03-22T10:11:25.000Z</time>
      </trkpt>
      <trkpt lat="47.52572" lon="6.6278">
        <ele>438</ele>
        <time>2015-03-22T10:11:26.000Z</time>
      </trkpt>
      <trkpt lat="47.52573" lon="6.62785">
        <ele>438</ele>
        <time>2015-03-22T10:11:27.000Z</time>
      </trkpt>
      <trkpt lat="47.52572" lon="6.62792">
        <ele>438</ele>
        <time>2015-03-22T10:11:28.000Z</time>
      </trkpt>
      <trkpt lat="47.52572" lon="6.62797">
        <ele>438</ele>
        <time>2015-03-22T10:11:29.000Z</time>
      </trkpt>
      <trkpt lat="47.52572" lon="6.62803">
        <ele>438</ele>
        <time>2015-03-22T10:11:30.000Z</time>
      </trkpt>
      <trkpt lat="47.52572" lon="6.62807">
        <ele>438</ele>
        <time>2015-03-22T10:11:31.000Z</time>
      </trkpt>
      <trkpt lat="47.52573" lon="6.62812">
        <ele>437</ele>
        <time>2015-03-22T10:11:32.000Z</time>
      </trkpt>
      <trkpt lat="47.52571" lon="6.62818">
        <ele>437</ele>
        <time>2015-03-22T10:11:33.000Z</time>
      </trkpt>
      <trkpt lat="47.5257" lon="6.62823">
        <ele>437</ele>
        <time>2015-03-22T10:11:34.000Z</time>
      </trkpt>
      <trkpt lat="47.5257" lon="6.62828">
        <ele>437</ele>
        <time>2015-03-22T10:11:35.000Z</time>
      </trkpt>
      <trkpt lat="47.52569" lon="6.62833">
        <ele>437</ele>
        <time>2015-03-22T10:11:36.000Z</time>
      </trkpt>
      <trkpt lat="47.52569" lon="6.62838">
        <ele>436</ele>
        <time>2015-03-22T10:11:37.000Z</time>
      </trkpt>
      <trkpt lat="47.52569" lon="6.62842">
        <ele>436</ele>
        <time>2015-03-22T10:11:38.000Z</time>
      </trkpt>
      <trkpt lat="47.52569" lon="6.62847">
        <ele>436</ele>
        <time>2015-03-22T10:11:39.000Z</time>
      </trkpt>
      <trkpt lat="47.5257" lon="6.62852">
        <ele>436</ele>
        <time>2015-03-22T10:11:40.000Z</time>
      </trkpt>
      <trkpt lat="47.5257" lon="6.62857">
        <ele>436</ele>
        <time>2015-03-22T10:11:41.000Z</time>
      </trkpt>
      <trkpt lat="47.5257" lon="6.62863">
        <ele>435</ele>
        <time>2015-03-22T10:11:42.000Z</time>
      </trkpt>
      <trkpt lat="47.5257" lon="6.62868">
        <ele>435</ele>
        <time>2015-03-22T10:11:43.000Z</time>
      </trkpt>
      <trkpt lat="47.5257" lon="6.62874">
        <ele>435</ele>
        <time>2015-03-22T10:11:44.000Z</time>
      </trkpt>
      <trkpt lat="47.5257" lon="6.6288">
        <ele>435</ele>
        <time>2015-03-22T10:11:45.000Z</time>
      </trkpt>
      <trkpt lat="47.52571" lon="6.62884">
        <ele>435</ele>
        <time>2015-03-22T10:11:46.000Z</time>
      </trkpt>
      <trkpt lat="47.52571" lon="6.62888">
        <ele>435</ele>
        <time>2015-03-22T10:11:47.000Z</time>
      </trkpt>
      <trkpt lat="47.52574" lon="6.62889">
        <ele>435</ele>
        <time>2015-03-22T10:11:48.000Z</time>
      </trkpt>
      <trkpt lat="47.52576" lon="6.62892">
        <ele>435</ele>
        <time>2015-03-22T10:11:49.000Z</time>
      </trkpt>
      <trkpt lat="47.52577" lon="6.62896">
        <ele>435</ele>
        <time>2015-03-22T10:11:50.000Z</time>
      </trkpt>
      <trkpt lat="47.52576" lon="6.62901">
        <ele>435</ele>
        <time>2015-03-22T10:11:51.000Z</time>
      </trkpt>
      <trkpt lat="47.52576" lon="6.62907">
        <ele>434</ele>
        <time>2015-03-22T10:11:52.000Z</time>
      </trkpt>
      <trkpt lat="47.52574" lon="6.62912">
        <ele>434</ele>
        <time>2015-03-22T10:11:53.000Z</time>
      </trkpt>
      <trkpt lat="47.52574" lon="6.62915">
        <ele>434</ele>
        <time>2015-03-22T10:11:54.001Z</time>
      </trkpt>
      <trkpt lat="47.52573" lon="6.62919">
        <ele>433</ele>
        <time>2015-03-22T10:11:55.000Z</time>
      </trkpt>
      <trkpt lat="47.52572" lon="6.62926">
        <ele>433</ele>
        <time>2015-03-22T10:11:59.000Z</time>
      </trkpt>
      <trkpt lat="47.52571" lon="6.62927">
        <ele>432</ele>
        <time>2015-03-22T10:12:00.000Z</time>
      </trkpt>
      <trkpt lat="47.52572" lon="6.62933">
        <ele>432</ele>
        <time>2015-03-22T10:12:42.000Z</time>
      </trkpt>
      <trkpt lat="47.52572" lon="6.62934">
        <ele>432</ele>
        <time>2015-03-22T10:12:43.000Z</time>
      </trkpt>
      <trkpt lat="47.52572" lon="6.62938">
        <ele>432</ele>
        <time>2015-03-22T10:12:55.000Z</time>
      </trkpt>
      <trkpt lat="47.52571" lon="6.6294">
        <ele>432</ele>
        <time>2015-03-22T10:12:56.000Z</time>
      </trkpt>
      <trkpt lat="47.5257" lon="6.62943">
        <ele>432</ele>
        <time>2015-03-22T10:12:57.000Z</time>
      </trkpt>
      <trkpt lat="47.52567" lon="6.62955">
        <ele>431</ele>
        <time>2015-03-22T10:12:58.000Z</time>
      </trkpt>
      <trkpt lat="47.52566" lon="6.62961">
        <ele>431</ele>
        <time>2015-03-22T10:12:59.000Z</time>
      </trkpt>
      <trkpt lat="47.52566" lon="6.62967">
        <ele>430</ele>
        <time>2015-03-22T10:13:00.000Z</time>
      </trkpt>
      <trkpt lat="47.52566" lon="6.6297">
        <ele>430</ele>
        <time>2015-03-22T10:13:01.000Z</time>
      </trkpt>
      <trkpt lat="47.52567" lon="6.62978">
        <ele>430</ele>
        <time>2015-03-22T10:13:02.000Z</time>
      </trkpt>
      <trkpt lat="47.52568" lon="6.62984">
        <ele>430</ele>
        <time>2015-03-22T10:13:03.000Z</time>
      </trkpt>
      <trkpt lat="47.52568" lon="6.62989">
        <ele>429</ele>
        <time>2015-03-22T10:13:03.999Z</time>
      </trkpt>
      <trkpt lat="47.52572" lon="6.62988">
        <ele>429</ele>
        <time>2015-03-22T10:13:05.000Z</time>
      </trkpt>
      <trkpt lat="47.52562" lon="6.6302">
        <ele>426</ele>
        <time>2015-03-22T10:13:06.000Z</time>
      </trkpt>
      <trkpt lat="47.52559" lon="6.63035">
        <ele>426</ele>
        <time>2015-03-22T10:13:07.000Z</time>
      </trkpt>
      <trkpt lat="47.52551" lon="6.63055">
        <ele>425</ele>
        <time>2015-03-22T10:13:08.000Z</time>
      </trkpt>
      <trkpt lat="47.52546" lon="6.63071">
        <ele>425</ele>
        <time>2015-03-22T10:13:09.000Z</time>
      </trkpt>
      <trkpt lat="47.52539" lon="6.63088">
        <ele>422</ele>
        <time>2015-03-22T10:13:10.000Z</time>
      </trkpt>
      <trkpt lat="47.52533" lon="6.63105">
        <ele>422</ele>
        <time>2015-03-22T10:13:11.001Z</time>
      </trkpt>
      <trkpt lat="47.52533" lon="6.6311">
        <ele>422</ele>
        <time>2015-03-22T10:13:12.000Z</time>
      </trkpt>
      <trkpt lat="47.52531" lon="6.63122">
        <ele>422</ele>
        <time>2015-03-22T10:13:13.000Z</time>
      </trkpt>
      <trkpt lat="47.52527" lon="6.63132">
        <ele>422</ele>
        <time>2015-03-22T10:13:14.000Z</time>
      </trkpt>
      <trkpt lat="47.52524" lon="6.63141">
        <ele>422</ele>
        <time>2015-03-22T10:13:15.000Z</time>
      </trkpt>
      <trkpt lat="47.52529" lon="6.63148">
        <ele>422</ele>
        <time>2015-03-22T10:13:16.000Z</time>
      </trkpt>
      <trkpt lat="47.52525" lon="6.63154">
        <ele>422</ele>
        <time>2015-03-22T10:13:17.000Z</time>
      </trkpt>
      <trkpt lat="47.52524" lon="6.6316">
        <ele>422</ele>
        <time>2015-03-22T10:13:18.000Z</time>
      </trkpt>
      <trkpt lat="47.52524" lon="6.63163">
        <ele>422</ele>
        <time>2015-03-22T10:13:19.000Z</time>
      </trkpt>
      <trkpt lat="47.52525" lon="6.6317">
        <ele>421</ele>
        <time>2015-03-22T10:13:20.000Z</time>
      </trkpt>
      <trkpt lat="47.52522" lon="6.63174">
        <ele>421</ele>
        <time>2015-03-22T10:13:21.000Z</time>
      </trkpt>
      <trkpt lat="47.52523" lon="6.6318">
        <ele>421</ele>
        <time>2015-03-22T10:13:22.000Z</time>
      </trkpt>
      <trkpt lat="47.52522" lon="6.63185">
        <ele>421</ele>
        <time>2015-03-22T10:13:23.000Z</time>
      </trkpt>
      <trkpt lat="47.52521" lon="6.6319">
        <ele>421</ele>
        <time>2015-03-22T10:13:24.000Z</time>
      </trkpt>
      <trkpt lat="47.52519" lon="6.63195">
        <ele>421</ele>
        <time>2015-03-22T10:13:25.000Z</time>
      </trkpt>
      <trkpt lat="47.52519" lon="6.632">
        <ele>421</ele>
        <time>2015-03-22T10:13:26.000Z</time>
      </trkpt>
      <trkpt lat="47.52519" lon="6.63205">
        <ele>421</ele>
        <time>2015-03-22T10:13:27.000Z</time>
      </trkpt>
      <trkpt lat="47.52518" lon="6.6321">
        <ele>421</ele>
        <time>2015-03-22T10:13:28.000Z</time>
      </trkpt>
      <trkpt lat="47.52516" lon="6.63215">
        <ele>421</ele>
        <time>2015-03-22T10:13:29.000Z</time>
      </trkpt>
      <trkpt lat="47.52515" lon="6.6322">
        <ele>421</ele>
        <time>2015-03-22T10:13:30.000Z</time>
      </trkpt>
      <trkpt lat="47.52514" lon="6.63225">
        <ele>421</ele>
        <time>2015-03-22T10:13:31.000Z</time>
      </trkpt>
      <trkpt lat="47.52512" lon="6.6323">
        <ele>421</ele>
        <time>2015-03-22T10:13:32.000Z</time>
      </trkpt>
      <trkpt lat="47.52509" lon="6.63235">
        <ele>421</ele>
        <time>2015-03-22T10:13:33.000Z</time>
      </trkpt>
      <trkpt lat="47.52508" lon="6.63239">
        <ele>421</ele>
        <time>2015-03-22T10:13:34.000Z</time>
      </trkpt>
      <trkpt lat="47.52487" lon="6.6326">
        <ele>420</ele>
        <time>2015-03-22T10:13:35.000Z</time>
      </trkpt>
      <trkpt lat="47.52485" lon="6.63268">
        <ele>420</ele>
        <time>2015-03-22T10:13:36.000Z</time>
      </trkpt>
      <trkpt lat="47.52484" lon="6.63277">
        <ele>420</ele>
        <time>2015-03-22T10:13:37.000Z</time>
      </trkpt>
      <trkpt lat="47.52482" lon="6.63285">
        <ele>419</ele>
        <time>2015-03-22T10:13:38.000Z</time>
      </trkpt>
      <trkpt lat="47.52481" lon="6.63294">
        <ele>419</ele>
        <time>2015-03-22T10:13:39.000Z</time>
      </trkpt>
      <trkpt lat="47.52481" lon="6.63304">
        <ele>419</ele>
        <time>2015-03-22T10:13:40.000Z</time>
      </trkpt>
      <trkpt lat="47.5248" lon="6.63317">
        <ele>419</ele>
        <time>2015-03-22T10:13:41.000Z</time>
      </trkpt>
      <trkpt lat="47.52478" lon="6.63328">
        <ele>419</ele>
        <time>2015-03-22T10:13:42.000Z</time>
      </trkpt>
      <trkpt lat="47.52477" lon="6.63337">
        <ele>417</ele>
        <time>2015-03-22T10:13:43.000Z</time>
      </trkpt>
      <trkpt lat="47.52472" lon="6.63352">
        <ele>416</ele>
        <time>2015-03-22T10:13:44.000Z</time>
      </trkpt>
      <trkpt lat="47.52469" lon="6.63363">
        <ele>416</ele>
        <time>2015-03-22T10:13:45.000Z</time>
      </trkpt>
      <trkpt lat="47.52468" lon="6.63375">
        <ele>416</ele>
        <time>2015-03-22T10:13:46.000Z</time>
      </trkpt>
      <trkpt lat="47.52466" lon="6.63386">
        <ele>416</ele>
        <time>2015-03-22T10:13:47.000Z</time>
      </trkpt>
      <trkpt lat="47.52467" lon="6.63396">
        <ele>416</ele>
        <time>2015-03-22T10:13:48.000Z</time>
      </trkpt>
      <trkpt lat="47.52463" lon="6.63411">
        <ele>415</ele>
        <time>2015-03-22T10:13:49.000Z</time>
      </trkpt>
      <trkpt lat="47.52462" lon="6.63423">
        <ele>414</ele>
        <time>2015-03-22T10:13:50.000Z</time>
      </trkpt>
      <trkpt lat="47.52461" lon="6.63434">
        <ele>413</ele>
        <time>2015-03-22T10:13:51.000Z</time>
      </trkpt>
      <trkpt lat="47.5246" lon="6.63444">
        <ele>413</ele>
        <time>2015-03-22T10:13:52.000Z</time>
      </trkpt>
      <trkpt lat="47.5246" lon="6.63459">
        <ele>413</ele>
        <time>2015-03-22T10:13:53.000Z</time>
      </trkpt>
      <trkpt lat="47.52461" lon="6.6347">
        <ele>413</ele>
        <time>2015-03-22T10:13:54.000Z</time>
      </trkpt>
      <trkpt lat="47.52461" lon="6.63484">
        <ele>413</ele>
        <time>2015-03-22T10:13:55.000Z</time>
      </trkpt>
      <trkpt lat="47.52461" lon="6.63496">
        <ele>412</ele>
        <time>2015-03-22T10:13:56.000Z</time>
      </trkpt>
      <trkpt lat="47.5246" lon="6.63514">
        <ele>410</ele>
        <time>2015-03-22T10:13:57.000Z</time>
      </trkpt>
      <trkpt lat="47.52457" lon="6.6353">
        <ele>410</ele>
        <time>2015-03-22T10:13:58.000Z</time>
      </trkpt>
      <trkpt lat="47.52456" lon="6.63542">
        <ele>409</ele>
        <time>2015-03-22T10:13:59.000Z</time>
      </trkpt>
      <trkpt lat="47.52453" lon="6.63554">
        <ele>409</ele>
        <time>2015-03-22T10:14:00.000Z</time>
      </trkpt>
      <trkpt lat="47.52451" lon="6.63565">
        <ele>409</ele>
        <time>2015-03-22T10:14:01.000Z</time>
      </trkpt>
      <trkpt lat="47.52451" lon="6.63579">
        <ele>409</ele>
        <time>2015-03-22T10:14:02.000Z</time>
      </trkpt>
      <trkpt lat="47.5245" lon="6.63591">
        <ele>406</ele>
        <time>2015-03-22T10:14:03.000Z</time>
      </trkpt>
      <trkpt lat="47.52449" lon="6.63603">
        <ele>406</ele>
        <time>2015-03-22T10:14:03.999Z</time>
      </trkpt>
      <trkpt lat="47.52444" lon="6.63616">
        <ele>405</ele>
        <time>2015-03-22T10:14:05.000Z</time>
      </trkpt>
      <trkpt lat="47.52441" lon="6.63627">
        <ele>405</ele>
        <time>2015-03-22T10:14:06.000Z</time>
      </trkpt>
      <trkpt lat="47.52438" lon="6.63637">
        <ele>405</ele>
        <time>2015-03-22T10:14:07.000Z</time>
      </trkpt>
      <trkpt lat="47.52435" lon="6.63647">
        <ele>405</ele>
        <time>2015-03-22T10:14:08.000Z</time>
      </trkpt>
      <trkpt lat="47.52432" lon="6.63658">
        <ele>405</ele>
        <time>2015-03-22T10:14:09.000Z</time>
      </trkpt>
      <trkpt lat="47.52429" lon="6.63667">
        <ele>404</ele>
        <time>2015-03-22T10:14:10.000Z</time>
      </trkpt>
      <trkpt lat="47.52429" lon="6.63675">
        <ele>404</ele>
        <time>2015-03-22T10:14:11.000Z</time>
      </trkpt>
      <trkpt lat="47.52413" lon="6.63701">
        <ele>401</ele>
        <time>2015-03-22T10:14:12.000Z</time>
      </trkpt>
      <trkpt lat="47.52402" lon="6.63717">
        <ele>401</ele>
        <time>2015-03-22T10:14:13.000Z</time>
      </trkpt>
      <trkpt lat="47.52396" lon="6.63732">
        <ele>401</ele>
        <time>2015-03-22T10:14:14.000Z</time>
      </trkpt>
      <trkpt lat="47.52396" lon="6.63738">
        <ele>401</ele>
        <time>2015-03-22T10:14:15.000Z</time>
      </trkpt>
      <trkpt lat="47.52391" lon="6.63747">
        <ele>400</ele>
        <time>2015-03-22T10:14:16.000Z</time>
      </trkpt>
      <trkpt lat="47.52385" lon="6.6375">
        <ele>400</ele>
        <time>2015-03-22T10:14:17.000Z</time>
      </trkpt>
      <trkpt lat="47.52379" lon="6.63756">
        <ele>400</ele>
        <time>2015-03-22T10:14:18.000Z</time>
      </trkpt>
      <trkpt lat="47.52372" lon="6.63765">
        <ele>399</ele>
        <time>2015-03-22T10:14:19.000Z</time>
      </trkpt>
      <trkpt lat="47.52365" lon="6.63775">
        <ele>399</ele>
        <time>2015-03-22T10:14:19.999Z</time>
      </trkpt>
      <trkpt lat="47.5236" lon="6.63779">
        <ele>399</ele>
        <time>2015-03-22T10:14:21.000Z</time>
      </trkpt>
      <trkpt lat="47.5236" lon="6.63788">
        <ele>399</ele>
        <time>2015-03-22T10:14:22.000Z</time>
      </trkpt>
      <trkpt lat="47.5236" lon="6.63794">
        <ele>399</ele>
        <time>2015-03-22T10:14:23.000Z</time>
      </trkpt>
      <trkpt lat="47.52363" lon="6.63796">
        <ele>400</ele>
        <time>2015-03-22T10:14:24.000Z</time>
      </trkpt>
      <trkpt lat="47.52363" lon="6.63799">
        <ele>400</ele>
        <time>2015-03-22T10:14:25.000Z</time>
      </trkpt>
      <trkpt lat="47.52365" lon="6.63802">
        <ele>400</ele>
        <time>2015-03-22T10:14:26.000Z</time>
      </trkpt>
      <trkpt lat="47.52366" lon="6.63809">
        <ele>400</ele>
        <time>2015-03-22T10:14:27.000Z</time>
      </trkpt>
      <trkpt lat="47.52367" lon="6.63819">
        <ele>400</ele>
        <time>2015-03-22T10:14:28.000Z</time>
      </trkpt>
      <trkpt lat="47.52368" lon="6.63827">
        <ele>400</ele>
        <time>2015-03-22T10:14:29.000Z</time>
      </trkpt>
      <trkpt lat="47.52369" lon="6.63836">
        <ele>402</ele>
        <time>2015-03-22T10:14:30.000Z</time>
      </trkpt>
      <trkpt lat="47.52368" lon="6.63847">
        <ele>402</ele>
        <time>2015-03-22T10:14:31.000Z</time>
      </trkpt>
      <trkpt lat="47.52367" lon="6.63854">
        <ele>402</ele>
        <time>2015-03-22T10:14:32.002Z</time>
      </trkpt>
      <trkpt lat="47.52367" lon="6.63861">
        <ele>403</ele>
        <time>2015-03-22T10:14:33.000Z</time>
      </trkpt>
      <trkpt lat="47.52365" lon="6.63875">
        <ele>403</ele>
        <time>2015-03-22T10:14:34.000Z</time>
      </trkpt>
      <trkpt lat="47.52364" lon="6.63886">
        <ele>403</ele>
        <time>2015-03-22T10:14:35.000Z</time>
      </trkpt>
      <trkpt lat="47.52361" lon="6.63896">
        <ele>402</ele>
        <time>2015-03-22T10:14:36.000Z</time>
      </trkpt>
      <trkpt lat="47.52358" lon="6.63909">
        <ele>402</ele>
        <time>2015-03-22T10:14:37.000Z</time>
      </trkpt>
      <trkpt lat="47.52356" lon="6.63921">
        <ele>403</ele>
        <time>2015-03-22T10:14:38.000Z</time>
      </trkpt>
      <trkpt lat="47.52354" lon="6.63929">
        <ele>403</ele>
        <time>2015-03-22T10:14:39.000Z</time>
      </trkpt>
      <trkpt lat="47.52352" lon="6.63938">
        <ele>403</ele>
        <time>2015-03-22T10:14:40.000Z</time>
      </trkpt>
      <trkpt lat="47.52353" lon="6.63944">
        <ele>403</ele>
        <time>2015-03-22T10:14:42.000Z</time>
      </trkpt>
      <trkpt lat="47.52354" lon="6.63951">
        <ele>404</ele>
        <time>2015-03-22T10:14:43.000Z</time>
      </trkpt>
      <trkpt lat="47.52354" lon="6.63958">
        <ele>404</ele>
        <time>2015-03-22T10:14:44.000Z</time>
      </trkpt>
      <trkpt lat="47.52354" lon="6.63963">
        <ele>404</ele>
        <time>2015-03-22T10:14:45.000Z</time>
      </trkpt>
      <trkpt lat="47.52352" lon="6.63968">
        <ele>404</ele>
        <time>2015-03-22T10:14:46.000Z</time>
      </trkpt>
      <trkpt lat="47.52352" lon="6.63971">
        <ele>404</ele>
        <time>2015-03-22T10:14:47.000Z</time>
      </trkpt>
      <trkpt lat="47.5235" lon="6.63978">
        <ele>404</ele>
        <time>2015-03-22T10:14:48.000Z</time>
      </trkpt>
      <trkpt lat="47.52347" lon="6.63986">
        <ele>403</ele>
        <time>2015-03-22T10:14:49.000Z</time>
      </trkpt>
      <trkpt lat="47.52346" lon="6.63992">
        <ele>403</ele>
        <time>2015-03-22T10:14:50.000Z</time>
      </trkpt>
      <trkpt lat="47.52345" lon="6.63998">
        <ele>403</ele>
        <time>2015-03-22T10:14:51.000Z</time>
      </trkpt>
      <trkpt lat="47.52344" lon="6.64005">
        <ele>402</ele>
        <time>2015-03-22T10:14:52.000Z</time>
      </trkpt>
      <trkpt lat="47.52344" lon="6.64026">
        <ele>402</ele>
        <time>2015-03-22T10:14:53.000Z</time>
      </trkpt>
      <trkpt lat="47.52345" lon="6.64036">
        <ele>402</ele>
        <time>2015-03-22T10:14:54.000Z</time>
      </trkpt>
      <trkpt lat="47.52346" lon="6.64047">
        <ele>402</ele>
        <time>2015-03-22T10:14:55.000Z</time>
      </trkpt>
      <trkpt lat="47.52345" lon="6.64059">
        <ele>401</ele>
        <time>2015-03-22T10:14:56.000Z</time>
      </trkpt>
      <trkpt lat="47.52346" lon="6.64068">
        <ele>401</ele>
        <time>2015-03-22T10:14:57.000Z</time>
      </trkpt>
      <trkpt lat="47.52345" lon="6.6408">
        <ele>400</ele>
        <time>2015-03-22T10:14:58.000Z</time>
      </trkpt>
      <trkpt lat="47.52345" lon="6.64089">
        <ele>397</ele>
        <time>2015-03-22T10:14:59.000Z</time>
      </trkpt>
      <trkpt lat="47.52347" lon="6.64099">
        <ele>396</ele>
        <time>2015-03-22T10:15:00.000Z</time>
      </trkpt>
      <trkpt lat="47.52347" lon="6.64112">
        <ele>394</ele>
        <time>2015-03-22T10:15:01.000Z</time>
      </trkpt>
      <trkpt lat="47.52348" lon="6.64122">
        <ele>393</ele>
        <time>2015-03-22T10:15:02.000Z</time>
      </trkpt>
      <trkpt lat="47.52343" lon="6.64136">
        <ele>392</ele>
        <time>2015-03-22T10:15:03.000Z</time>
      </trkpt>
      <trkpt lat="47.52342" lon="6.64147">
        <ele>390</ele>
        <time>2015-03-22T10:15:04.000Z</time>
      </trkpt>
      <trkpt lat="47.52338" lon="6.64162">
        <ele>388</ele>
        <time>2015-03-22T10:15:05.000Z</time>
      </trkpt>
      <trkpt lat="47.52335" lon="6.64176">
        <ele>385</ele>
        <time>2015-03-22T10:15:06.000Z</time>
      </trkpt>
      <trkpt lat="47.52333" lon="6.64192">
        <ele>382</ele>
        <time>2015-03-22T10:15:07.000Z</time>
      </trkpt>
      <trkpt lat="47.5233" lon="6.64208">
        <ele>380</ele>
        <time>2015-03-22T10:15:08.000Z</time>
      </trkpt>
      <trkpt lat="47.52327" lon="6.64221">
        <ele>379</ele>
        <time>2015-03-22T10:15:09.000Z</time>
      </trkpt>
      <trkpt lat="47.52325" lon="6.64232">
        <ele>378</ele>
        <time>2015-03-22T10:15:10.000Z</time>
      </trkpt>
      <trkpt lat="47.52323" lon="6.64243">
        <ele>377</ele>
        <time>2015-03-22T10:15:11.000Z</time>
      </trkpt>
      <trkpt lat="47.5232" lon="6.64252">
        <ele>377</ele>
        <time>2015-03-22T10:15:12.000Z</time>
      </trkpt>
      <trkpt lat="47.52318" lon="6.64261">
        <ele>377</ele>
        <time>2015-03-22T10:15:13.000Z</time>
      </trkpt>
      <trkpt lat="47.52317" lon="6.64269">
        <ele>377</ele>
        <time>2015-03-22T10:15:14.000Z</time>
      </trkpt>
      <trkpt lat="47.52314" lon="6.64276">
        <ele>377</ele>
        <time>2015-03-22T10:15:15.000Z</time>
      </trkpt>
      <trkpt lat="47.52313" lon="6.64281">
        <ele>377</ele>
        <time>2015-03-22T10:15:16.000Z</time>
      </trkpt>
      <trkpt lat="47.52312" lon="6.64287">
        <ele>377</ele>
        <time>2015-03-22T10:15:17.000Z</time>
      </trkpt>
      <trkpt lat="47.52311" lon="6.64292">
        <ele>378</ele>
        <time>2015-03-22T10:15:18.000Z</time>
      </trkpt>
      <trkpt lat="47.5231" lon="6.64298">
        <ele>378</ele>
        <time>2015-03-22T10:15:19.000Z</time>
      </trkpt>
      <trkpt lat="47.52309" lon="6.64303">
        <ele>378</ele>
        <time>2015-03-22T10:15:20.000Z</time>
      </trkpt>
      <trkpt lat="47.52308" lon="6.64309">
        <ele>378</ele>
        <time>2015-03-22T10:15:21.000Z</time>
      </trkpt>
      <trkpt lat="47.52307" lon="6.64313">
        <ele>378</ele>
        <time>2015-03-22T10:15:22.000Z</time>
      </trkpt>
      <trkpt lat="47.52306" lon="6.64318">
        <ele>378</ele>
        <time>2015-03-22T10:15:23.000Z</time>
      </trkpt>
      <trkpt lat="47.52305" lon="6.64321">
        <ele>378</ele>
        <time>2015-03-22T10:15:24.000Z</time>
      </trkpt>
      <trkpt lat="47.52304" lon="6.64325">
        <ele>378</ele>
        <time>2015-03-22T10:15:25.000Z</time>
      </trkpt>
      <trkpt lat="47.52303" lon="6.64329">
        <ele>378</ele>
        <time>2015-03-22T10:15:26.000Z</time>
      </trkpt>
      <trkpt lat="47.52301" lon="6.64332">
        <ele>378</ele>
        <time>2015-03-22T10:15:27.000Z</time>
      </trkpt>
      <trkpt lat="47.52299" lon="6.64334">
        <ele>382</ele>
        <time>2015-03-22T10:15:28.000Z</time>
      </trkpt>
      <trkpt lat="47.52297" lon="6.64337">
        <ele>382</ele>
        <time>2015-03-22T10:15:29.000Z</time>
      </trkpt>
      <trkpt lat="47.52294" lon="6.64339">
        <ele>382</ele>
        <time>2015-03-22T10:15:30.000Z</time>
      </trkpt>
      <trkpt lat="47.52291" lon="6.64341">
        <ele>382</ele>
        <time>2015-03-22T10:15:31.000Z</time>
      </trkpt>
      <trkpt lat="47.52287" lon="6.64344">
        <ele>382</ele>
        <time>2015-03-22T10:15:32.000Z</time>
      </trkpt>
      <trkpt lat="47.5228" lon="6.64341">
        <ele>382</ele>
        <time>2015-03-22T10:15:33.000Z</time>
      </trkpt>
      <trkpt lat="47.52274" lon="6.64343">
        <ele>382</ele>
        <time>2015-03-22T10:15:34.000Z</time>
      </trkpt>
      <trkpt lat="47.52269" lon="6.64344">
        <ele>382</ele>
        <time>2015-03-22T10:15:35.000Z</time>
      </trkpt>
      <trkpt lat="47.52263" lon="6.64347">
        <ele>382</ele>
        <time>2015-03-22T10:15:36.000Z</time>
      </trkpt>
      <trkpt lat="47.52257" lon="6.6435">
        <ele>382</ele>
        <time>2015-03-22T10:15:37.000Z</time>
      </trkpt>
      <trkpt lat="47.52252" lon="6.64352">
        <ele>382</ele>
        <time>2015-03-22T10:15:38.000Z</time>
      </trkpt>
      <trkpt lat="47.52248" lon="6.64354">
        <ele>384</ele>
        <time>2015-03-22T10:15:39.000Z</time>
      </trkpt>
      <trkpt lat="47.52243" lon="6.64355">
        <ele>384</ele>
        <time>2015-03-22T10:15:40.000Z</time>
      </trkpt>
      <trkpt lat="47.52237" lon="6.64355">
        <ele>384</ele>
        <time>2015-03-22T10:15:41.000Z</time>
      </trkpt>
      <trkpt lat="47.52231" lon="6.64353">
        <ele>384</ele>
        <time>2015-03-22T10:15:42.000Z</time>
      </trkpt>
      <trkpt lat="47.52227" lon="6.64353">
        <ele>385</ele>
        <time>2015-03-22T10:15:43.000Z</time>
      </trkpt>
      <trkpt lat="47.5222" lon="6.64352">
        <ele>385</ele>
        <time>2015-03-22T10:15:44.000Z</time>
      </trkpt>
      <trkpt lat="47.52217" lon="6.64349">
        <ele>385</ele>
        <time>2015-03-22T10:15:45.000Z</time>
      </trkpt>
      <trkpt lat="47.52212" lon="6.64344">
        <ele>385</ele>
        <time>2015-03-22T10:15:46.000Z</time>
      </trkpt>
      <trkpt lat="47.52204" lon="6.6434">
        <ele>385</ele>
        <time>2015-03-22T10:15:47.000Z</time>
      </trkpt>
      <trkpt lat="47.52197" lon="6.64337">
        <ele>385</ele>
        <time>2015-03-22T10:15:48.000Z</time>
      </trkpt>
      <trkpt lat="47.52192" lon="6.64332">
        <ele>379</ele>
        <time>2015-03-22T10:15:49.000Z</time>
      </trkpt>
      <trkpt lat="47.52186" lon="6.64329">
        <ele>380</ele>
        <time>2015-03-22T10:15:50.000Z</time>
      </trkpt>
      <trkpt lat="47.5218" lon="6.64327">
        <ele>380</ele>
        <time>2015-03-22T10:15:51.000Z</time>
      </trkpt>
      <trkpt lat="47.52174" lon="6.64328">
        <ele>381</ele>
        <time>2015-03-22T10:15:52.000Z</time>
      </trkpt>
      <trkpt lat="47.52167" lon="6.64323">
        <ele>380</ele>
        <time>2015-03-22T10:15:53.000Z</time>
      </trkpt>
      <trkpt lat="47.52162" lon="6.64325">
        <ele>379</ele>
        <time>2015-03-22T10:15:54.000Z</time>
      </trkpt>
      <trkpt lat="47.52153" lon="6.64325">
        <ele>378</ele>
        <time>2015-03-22T10:15:55.000Z</time>
      </trkpt>
      <trkpt lat="47.52147" lon="6.64332">
        <ele>378</ele>
        <time>2015-03-22T10:15:56.000Z</time>
      </trkpt>
      <trkpt lat="47.52141" lon="6.64338">
        <ele>383</ele>
        <time>2015-03-22T10:15:57.000Z</time>
      </trkpt>
      <trkpt lat="47.52138" lon="6.64346">
        <ele>383</ele>
        <time>2015-03-22T10:15:58.000Z</time>
      </trkpt>
      <trkpt lat="47.52133" lon="6.64352">
        <ele>383</ele>
        <time>2015-03-22T10:15:59.000Z</time>
      </trkpt>
      <trkpt lat="47.52128" lon="6.64357">
        <ele>383</ele>
        <time>2015-03-22T10:16:00.000Z</time>
      </trkpt>
      <trkpt lat="47.52124" lon="6.64363">
        <ele>383</ele>
        <time>2015-03-22T10:16:01.000Z</time>
      </trkpt>
      <trkpt lat="47.52119" lon="6.6437">
        <ele>383</ele>
        <time>2015-03-22T10:16:02.000Z</time>
      </trkpt>
      <trkpt lat="47.52114" lon="6.64377">
        <ele>384</ele>
        <time>2015-03-22T10:16:03.000Z</time>
      </trkpt>
      <trkpt lat="47.52109" lon="6.64384">
        <ele>384</ele>
        <time>2015-03-22T10:16:04.000Z</time>
      </trkpt>
      <trkpt lat="47.52105" lon="6.64391">
        <ele>384</ele>
        <time>2015-03-22T10:16:05.000Z</time>
      </trkpt>
      <trkpt lat="47.521" lon="6.64396">
        <ele>384</ele>
        <time>2015-03-22T10:16:06.000Z</time>
      </trkpt>
      <trkpt lat="47.52095" lon="6.64402">
        <ele>384</ele>
        <time>2015-03-22T10:16:07.000Z</time>
      </trkpt>
      <trkpt lat="47.5209" lon="6.64408">
        <ele>385</ele>
        <time>2015-03-22T10:16:08.000Z</time>
      </trkpt>
      <trkpt lat="47.52085" lon="6.64413">
        <ele>385</ele>
        <time>2015-03-22T10:16:09.000Z</time>
      </trkpt>
      <trkpt lat="47.52082" lon="6.64418">
        <ele>385</ele>
        <time>2015-03-22T10:16:10.000Z</time>
      </trkpt>
      <trkpt lat="47.52078" lon="6.64424">
        <ele>386</ele>
        <time>2015-03-22T10:16:11.000Z</time>
      </trkpt>
      <trkpt lat="47.52074" lon="6.6443">
        <ele>386</ele>
        <time>2015-03-22T10:16:12.000Z</time>
      </trkpt>
      <trkpt lat="47.5207" lon="6.64436">
        <ele>386</ele>
        <time>2015-03-22T10:16:13.000Z</time>
      </trkpt>
      <trkpt lat="47.52065" lon="6.6444">
        <ele>386</ele>
        <time>2015-03-22T10:16:14.000Z</time>
      </trkpt>
      <trkpt lat="47.5206" lon="6.64445">
        <ele>387</ele>
        <time>2015-03-22T10:16:15.000Z</time>
      </trkpt>
      <trkpt lat="47.52054" lon="6.6445">
        <ele>387</ele>
        <time>2015-03-22T10:16:16.000Z</time>
      </trkpt>
      <trkpt lat="47.52046" lon="6.64453">
        <ele>387</ele>
        <time>2015-03-22T10:16:17.000Z</time>
      </trkpt>
      <trkpt lat="47.5204" lon="6.64456">
        <ele>386</ele>
        <time>2015-03-22T10:16:18.000Z</time>
      </trkpt>
      <trkpt lat="47.52032" lon="6.64458">
        <ele>386</ele>
        <time>2015-03-22T10:16:19.000Z</time>
      </trkpt>
      <trkpt lat="47.52025" lon="6.64461">
        <ele>386</ele>
        <time>2015-03-22T10:16:20.000Z</time>
      </trkpt>
      <trkpt lat="47.52018" lon="6.64463">
        <ele>386</ele>
        <time>2015-03-22T10:16:21.000Z</time>
      </trkpt>
      <trkpt lat="47.5201" lon="6.64464">
        <ele>386</ele>
        <time>2015-03-22T10:16:22.000Z</time>
      </trkpt>
      <trkpt lat="47.52003" lon="6.64468">
        <ele>386</ele>
        <time>2015-03-22T10:16:23.000Z</time>
      </trkpt>
      <trkpt lat="47.51997" lon="6.64469">
        <ele>383</ele>
        <time>2015-03-22T10:16:24.000Z</time>
      </trkpt>
      <trkpt lat="47.5199" lon="6.64473">
        <ele>383</ele>
        <time>2015-03-22T10:16:25.000Z</time>
      </trkpt>
      <trkpt lat="47.51984" lon="6.64475">
        <ele>383</ele>
        <time>2015-03-22T10:16:26.000Z</time>
      </trkpt>
      <trkpt lat="47.51979" lon="6.64479">
        <ele>383</ele>
        <time>2015-03-22T10:16:27.000Z</time>
      </trkpt>
      <trkpt lat="47.51972" lon="6.64482">
        <ele>383</ele>
        <time>2015-03-22T10:16:28.000Z</time>
      </trkpt>
      <trkpt lat="47.51965" lon="6.64486">
        <ele>383</ele>
        <time>2015-03-22T10:16:29.000Z</time>
      </trkpt>
      <trkpt lat="47.51958" lon="6.64489">
        <ele>383</ele>
        <time>2015-03-22T10:16:30.000Z</time>
      </trkpt>
      <trkpt lat="47.51952" lon="6.64493">
        <ele>383</ele>
        <time>2015-03-22T10:16:31.000Z</time>
      </trkpt>
      <trkpt lat="47.51944" lon="6.64497">
        <ele>383</ele>
        <time>2015-03-22T10:16:32.000Z</time>
      </trkpt>
      <trkpt lat="47.51937" lon="6.64504">
        <ele>385</ele>
        <time>2015-03-22T10:16:33.000Z</time>
      </trkpt>
      <trkpt lat="47.5193" lon="6.6451">
        <ele>384</ele>
        <time>2015-03-22T10:16:34.000Z</time>
      </trkpt>
      <trkpt lat="47.51924" lon="6.64516">
        <ele>385</ele>
        <time>2015-03-22T10:16:35.000Z</time>
      </trkpt>
      <trkpt lat="47.51918" lon="6.64521">
        <ele>385</ele>
        <time>2015-03-22T10:16:36.000Z</time>
      </trkpt>
      <trkpt lat="47.51916" lon="6.64527">
        <ele>381</ele>
        <time>2015-03-22T10:16:37.000Z</time>
      </trkpt>
      <trkpt lat="47.51912" lon="6.64533">
        <ele>381</ele>
        <time>2015-03-22T10:16:38.000Z</time>
      </trkpt>
      <trkpt lat="47.51906" lon="6.64539">
        <ele>381</ele>
        <time>2015-03-22T10:16:39.000Z</time>
      </trkpt>
      <trkpt lat="47.51898" lon="6.64545">
        <ele>381</ele>
        <time>2015-03-22T10:16:40.000Z</time>
      </trkpt>
      <trkpt lat="47.51891" lon="6.64552">
        <ele>380</ele>
        <time>2015-03-22T10:16:41.000Z</time>
      </trkpt>
      <trkpt lat="47.51882" lon="6.64556">
        <ele>380</ele>
        <time>2015-03-22T10:16:42.000Z</time>
      </trkpt>
      <trkpt lat="47.51875" lon="6.6456">
        <ele>380</ele>
        <time>2015-03-22T10:16:43.000Z</time>
      </trkpt>
      <trkpt lat="47.51868" lon="6.64563">
        <ele>379</ele>
        <time>2015-03-22T10:16:44.000Z</time>
      </trkpt>
      <trkpt lat="47.51861" lon="6.64567">
        <ele>379</ele>
        <time>2015-03-22T10:16:45.000Z</time>
      </trkpt>
      <trkpt lat="47.5185" lon="6.6457">
        <ele>378</ele>
        <time>2015-03-22T10:16:46.000Z</time>
      </trkpt>
      <trkpt lat="47.51841" lon="6.64574">
        <ele>377</ele>
        <time>2015-03-22T10:16:47.000Z</time>
      </trkpt>
      <trkpt lat="47.51834" lon="6.64577">
        <ele>376</ele>
        <time>2015-03-22T10:16:48.000Z</time>
      </trkpt>
      <trkpt lat="47.51825" lon="6.64578">
        <ele>373</ele>
        <time>2015-03-22T10:16:49.000Z</time>
      </trkpt>
      <trkpt lat="47.51817" lon="6.6458">
        <ele>372</ele>
        <time>2015-03-22T10:16:50.000Z</time>
      </trkpt>
      <trkpt lat="47.51809" lon="6.64582">
        <ele>371</ele>
        <time>2015-03-22T10:16:51.000Z</time>
      </trkpt>
      <trkpt lat="47.51802" lon="6.64584">
        <ele>369</ele>
        <time>2015-03-22T10:16:52.000Z</time>
      </trkpt>
      <trkpt lat="47.51796" lon="6.64585">
        <ele>369</ele>
        <time>2015-03-22T10:16:53.000Z</time>
      </trkpt>
      <trkpt lat="47.51789" lon="6.64587">
        <ele>368</ele>
        <time>2015-03-22T10:16:54.000Z</time>
      </trkpt>
      <trkpt lat="47.51783" lon="6.64589">
        <ele>367</ele>
        <time>2015-03-22T10:16:55.000Z</time>
      </trkpt>
      <trkpt lat="47.51777" lon="6.6459">
        <ele>366</ele>
        <time>2015-03-22T10:16:56.000Z</time>
      </trkpt>
      <trkpt lat="47.51771" lon="6.64593">
        <ele>366</ele>
        <time>2015-03-22T10:16:57.000Z</time>
      </trkpt>
      <trkpt lat="47.51768" lon="6.64595">
        <ele>365</ele>
        <time>2015-03-22T10:16:58.000Z</time>
      </trkpt>
      <trkpt lat="47.51764" lon="6.64598">
        <ele>365</ele>
        <time>2015-03-22T10:16:59.000Z</time>
      </trkpt>
      <trkpt lat="47.51761" lon="6.64603">
        <ele>365</ele>
        <time>2015-03-22T10:17:00.000Z</time>
      </trkpt>
      <trkpt lat="47.51759" lon="6.64607">
        <ele>365</ele>
        <time>2015-03-22T10:17:01.000Z</time>
      </trkpt>
      <trkpt lat="47.51757" lon="6.64613">
        <ele>366</ele>
        <time>2015-03-22T10:17:02.000Z</time>
      </trkpt>
      <trkpt lat="47.51755" lon="6.6462">
        <ele>366</ele>
        <time>2015-03-22T10:17:03.000Z</time>
      </trkpt>
      <trkpt lat="47.51753" lon="6.64625">
        <ele>366</ele>
        <time>2015-03-22T10:17:04.000Z</time>
      </trkpt>
      <trkpt lat="47.51752" lon="6.64634">
        <ele>365</ele>
        <time>2015-03-22T10:17:05.000Z</time>
      </trkpt>
      <trkpt lat="47.51751" lon="6.64641">
        <ele>365</ele>
        <time>2015-03-22T10:17:06.000Z</time>
      </trkpt>
      <trkpt lat="47.5175" lon="6.64649">
        <ele>365</ele>
        <time>2015-03-22T10:17:07.000Z</time>
      </trkpt>
      <trkpt lat="47.5175" lon="6.64658">
        <ele>361</ele>
        <time>2015-03-22T10:17:08.000Z</time>
      </trkpt>
      <trkpt lat="47.51749" lon="6.64665">
        <ele>362</ele>
        <time>2015-03-22T10:17:09.000Z</time>
      </trkpt>
      <trkpt lat="47.5175" lon="6.64673">
        <ele>362</ele>
        <time>2015-03-22T10:17:10.000Z</time>
      </trkpt>
      <trkpt lat="47.5175" lon="6.64682">
        <ele>364</ele>
        <time>2015-03-22T10:17:11.000Z</time>
      </trkpt>
      <trkpt lat="47.5175" lon="6.64689">
        <ele>364</ele>
        <time>2015-03-22T10:17:12.000Z</time>
      </trkpt>
      <trkpt lat="47.5175" lon="6.64697">
        <ele>364</ele>
        <time>2015-03-22T10:17:13.000Z</time>
      </trkpt>
      <trkpt lat="47.5175" lon="6.64704">
        <ele>364</ele>
        <time>2015-03-22T10:17:14.000Z</time>
      </trkpt>
      <trkpt lat="47.51751" lon="6.64713">
        <ele>364</ele>
        <time>2015-03-22T10:17:15.000Z</time>
      </trkpt>
      <trkpt lat="47.51752" lon="6.64722">
        <ele>364</ele>
        <time>2015-03-22T10:17:16.000Z</time>
      </trkpt>
      <trkpt lat="47.51753" lon="6.64732">
        <ele>363</ele>
        <time>2015-03-22T10:17:17.000Z</time>
      </trkpt>
      <trkpt lat="47.51754" lon="6.64739">
        <ele>363</ele>
        <time>2015-03-22T10:17:18.000Z</time>
      </trkpt>
      <trkpt lat="47.51754" lon="6.64746">
        <ele>362</ele>
        <time>2015-03-22T10:17:19.000Z</time>
      </trkpt>
      <trkpt lat="47.51755" lon="6.64753">
        <ele>361</ele>
        <time>2015-03-22T10:17:20.000Z</time>
      </trkpt>
      <trkpt lat="47.51757" lon="6.64761">
        <ele>362</ele>
        <time>2015-03-22T10:17:21.000Z</time>
      </trkpt>
      <trkpt lat="47.51759" lon="6.64769">
        <ele>362</ele>
        <time>2015-03-22T10:17:22.000Z</time>
      </trkpt>
      <trkpt lat="47.5176" lon="6.64778">
        <ele>362</ele>
        <time>2015-03-22T10:17:23.000Z</time>
      </trkpt>
      <trkpt lat="47.51761" lon="6.64785">
        <ele>362</ele>
        <time>2015-03-22T10:17:24.000Z</time>
      </trkpt>
      <trkpt lat="47.51762" lon="6.64793">
        <ele>362</ele>
        <time>2015-03-22T10:17:25.000Z</time>
      </trkpt>
      <trkpt lat="47.51764" lon="6.64801">
        <ele>362</ele>
        <time>2015-03-22T10:17:26.000Z</time>
      </trkpt>
      <trkpt lat="47.51766" lon="6.64807">
        <ele>361</ele>
        <time>2015-03-22T10:17:27.000Z</time>
      </trkpt>
      <trkpt lat="47.51768" lon="6.64814">
        <ele>361</ele>
        <time>2015-03-22T10:17:28.000Z</time>
      </trkpt>
      <trkpt lat="47.51769" lon="6.64821">
        <ele>361</ele>
        <time>2015-03-22T10:17:29.000Z</time>
      </trkpt>
      <trkpt lat="47.5177" lon="6.64827">
        <ele>361</ele>
        <time>2015-03-22T10:17:30.000Z</time>
      </trkpt>
      <trkpt lat="47.51771" lon="6.64834">
        <ele>360</ele>
        <time>2015-03-22T10:17:31.000Z</time>
      </trkpt>
      <trkpt lat="47.51773" lon="6.64842">
        <ele>360</ele>
        <time>2015-03-22T10:17:32.000Z</time>
      </trkpt>
      <trkpt lat="47.51774" lon="6.64849">
        <ele>360</ele>
        <time>2015-03-22T10:17:33.000Z</time>
      </trkpt>
      <trkpt lat="47.51776" lon="6.64857">
        <ele>360</ele>
        <time>2015-03-22T10:17:34.000Z</time>
      </trkpt>
      <trkpt lat="47.51778" lon="6.64864">
        <ele>360</ele>
        <time>2015-03-22T10:17:35.000Z</time>
      </trkpt>
      <trkpt lat="47.51779" lon="6.64871">
        <ele>360</ele>
        <time>2015-03-22T10:17:36.000Z</time>
      </trkpt>
      <trkpt lat="47.51782" lon="6.64878">
        <ele>360</ele>
        <time>2015-03-22T10:17:37.000Z</time>
      </trkpt>
      <trkpt lat="47.51784" lon="6.64886">
        <ele>360</ele>
        <time>2015-03-22T10:17:38.000Z</time>
      </trkpt>
      <trkpt lat="47.51787" lon="6.64892">
        <ele>360</ele>
        <time>2015-03-22T10:17:39.000Z</time>
      </trkpt>
      <trkpt lat="47.51789" lon="6.64898">
        <ele>360</ele>
        <time>2015-03-22T10:17:40.000Z</time>
      </trkpt>
      <trkpt lat="47.5179" lon="6.64905">
        <ele>360</ele>
        <time>2015-03-22T10:17:41.000Z</time>
      </trkpt>
      <trkpt lat="47.51792" lon="6.6491">
        <ele>360</ele>
        <time>2015-03-22T10:17:42.000Z</time>
      </trkpt>
      <trkpt lat="47.51793" lon="6.64917">
        <ele>360</ele>
        <time>2015-03-22T10:17:42.999Z</time>
      </trkpt>
      <trkpt lat="47.51796" lon="6.64922">
        <ele>360</ele>
        <time>2015-03-22T10:17:44.000Z</time>
      </trkpt>
      <trkpt lat="47.51798" lon="6.64929">
        <ele>360</ele>
        <time>2015-03-22T10:17:45.000Z</time>
      </trkpt>
      <trkpt lat="47.518" lon="6.64936">
        <ele>360</ele>
        <time>2015-03-22T10:17:46.000Z</time>
      </trkpt>
      <trkpt lat="47.51802" lon="6.64942">
        <ele>360</ele>
        <time>2015-03-22T10:17:47.000Z</time>
      </trkpt>
      <trkpt lat="47.51804" lon="6.64948">
        <ele>360</ele>
        <time>2015-03-22T10:17:48.000Z</time>
      </trkpt>
      <trkpt lat="47.51806" lon="6.64953">
        <ele>360</ele>
        <time>2015-03-22T10:17:49.000Z</time>
      </trkpt>
      <trkpt lat="47.51807" lon="6.6496">
        <ele>360</ele>
        <time>2015-03-22T10:17:50.000Z</time>
      </trkpt>
      <trkpt lat="47.51809" lon="6.64966">
        <ele>360</ele>
        <time>2015-03-22T10:17:51.000Z</time>
      </trkpt>
      <trkpt lat="47.51811" lon="6.64972">
        <ele>360</ele>
        <time>2015-03-22T10:17:52.000Z</time>
      </trkpt>
      <trkpt lat="47.51813" lon="6.64976">
        <ele>360</ele>
        <time>2015-03-22T10:17:53.000Z</time>
      </trkpt>
      <trkpt lat="47.51815" lon="6.64982">
        <ele>361</ele>
        <time>2015-03-22T10:17:53.999Z</time>
      </trkpt>
      <trkpt lat="47.51817" lon="6.64986">
        <ele>361</ele>
        <time>2015-03-22T10:17:55.000Z</time>
      </trkpt>
      <trkpt lat="47.51818" lon="6.64991">
        <ele>361</ele>
        <time>2015-03-22T10:17:56.000Z</time>
      </trkpt>
      <trkpt lat="47.5182" lon="6.64997">
        <ele>361</ele>
        <time>2015-03-22T10:17:57.000Z</time>
      </trkpt>
      <trkpt lat="47.51822" lon="6.65002">
        <ele>361</ele>
        <time>2015-03-22T10:17:58.000Z</time>
      </trkpt>
      <trkpt lat="47.51824" lon="6.65008">
        <ele>361</ele>
        <time>2015-03-22T10:17:59.000Z</time>
      </trkpt>
      <trkpt lat="47.51825" lon="6.65013">
        <ele>361</ele>
        <time>2015-03-22T10:18:00.000Z</time>
      </trkpt>
      <trkpt lat="47.51827" lon="6.65018">
        <ele>361</ele>
        <time>2015-03-22T10:18:01.000Z</time>
      </trkpt>
      <trkpt lat="47.51828" lon="6.65023">
        <ele>361</ele>
        <time>2015-03-22T10:18:02.000Z</time>
      </trkpt>
      <trkpt lat="47.5183" lon="6.65028">
        <ele>361</ele>
        <time>2015-03-22T10:18:03.000Z</time>
      </trkpt>
      <trkpt lat="47.51831" lon="6.65032">
        <ele>361</ele>
        <time>2015-03-22T10:18:04.000Z</time>
      </trkpt>
      <trkpt lat="47.51832" lon="6.65036">
        <ele>361</ele>
        <time>2015-03-22T10:18:05.000Z</time>
      </trkpt>
      <trkpt lat="47.51834" lon="6.6504">
        <ele>364</ele>
        <time>2015-03-22T10:18:06.000Z</time>
      </trkpt>
      <trkpt lat="47.51835" lon="6.65045">
        <ele>364</ele>
        <time>2015-03-22T10:18:07.000Z</time>
      </trkpt>
      <trkpt lat="47.51836" lon="6.65048">
        <ele>364</ele>
        <time>2015-03-22T10:18:08.000Z</time>
      </trkpt>
      <trkpt lat="47.51837" lon="6.65052">
        <ele>364</ele>
        <time>2015-03-22T10:18:09.000Z</time>
      </trkpt>
      <trkpt lat="47.51838" lon="6.65056">
        <ele>364</ele>
        <time>2015-03-22T10:18:10.000Z</time>
      </trkpt>
      <trkpt lat="47.51839" lon="6.6506">
        <ele>364</ele>
        <time>2015-03-22T10:18:11.000Z</time>
      </trkpt>
      <trkpt lat="47.51841" lon="6.65065">
        <ele>364</ele>
        <time>2015-03-22T10:18:12.000Z</time>
      </trkpt>
      <trkpt lat="47.51842" lon="6.65069">
        <ele>364</ele>
        <time>2015-03-22T10:18:13.000Z</time>
      </trkpt>
      <trkpt lat="47.51844" lon="6.65073">
        <ele>364</ele>
        <time>2015-03-22T10:18:14.000Z</time>
      </trkpt>
      <trkpt lat="47.51845" lon="6.65076">
        <ele>364</ele>
        <time>2015-03-22T10:18:15.000Z</time>
      </trkpt>
      <trkpt lat="47.51846" lon="6.65079">
        <ele>364</ele>
        <time>2015-03-22T10:18:16.000Z</time>
      </trkpt>
      <trkpt lat="47.51847" lon="6.65082">
        <ele>364</ele>
        <time>2015-03-22T10:18:17.000Z</time>
      </trkpt>
      <trkpt lat="47.51848" lon="6.65088">
        <ele>364</ele>
        <time>2015-03-22T10:18:19.000Z</time>
      </trkpt>
      <trkpt lat="47.51849" lon="6.65091">
        <ele>364</ele>
        <time>2015-03-22T10:18:20.000Z</time>
      </trkpt>
      <trkpt lat="47.5185" lon="6.65094">
        <ele>364</ele>
        <time>2015-03-22T10:18:21.000Z</time>
      </trkpt>
      <trkpt lat="47.51851" lon="6.65097">
        <ele>364</ele>
        <time>2015-03-22T10:18:22.000Z</time>
      </trkpt>
      <trkpt lat="47.51852" lon="6.65101">
        <ele>365</ele>
        <time>2015-03-22T10:18:23.000Z</time>
      </trkpt>
      <trkpt lat="47.51853" lon="6.65105">
        <ele>365</ele>
        <time>2015-03-22T10:18:24.000Z</time>
      </trkpt>
      <trkpt lat="47.51855" lon="6.65109">
        <ele>365</ele>
        <time>2015-03-22T10:18:25.000Z</time>
      </trkpt>
      <trkpt lat="47.51856" lon="6.65112">
        <ele>365</ele>
        <time>2015-03-22T10:18:26.000Z</time>
      </trkpt>
      <trkpt lat="47.51858" lon="6.65116">
        <ele>365</ele>
        <time>2015-03-22T10:18:27.000Z</time>
      </trkpt>
      <trkpt lat="47.51859" lon="6.65119">
        <ele>365</ele>
        <time>2015-03-22T10:18:28.000Z</time>
      </trkpt>
      <trkpt lat="47.5186" lon="6.65123">
        <ele>365</ele>
        <time>2015-03-22T10:18:29.000Z</time>
      </trkpt>
      <trkpt lat="47.51861" lon="6.65126">
        <ele>365</ele>
        <time>2015-03-22T10:18:30.000Z</time>
      </trkpt>
      <trkpt lat="47.51862" lon="6.65129">
        <ele>365</ele>
        <time>2015-03-22T10:18:31.000Z</time>
      </trkpt>
      <trkpt lat="47.51863" lon="6.65132">
        <ele>365</ele>
        <time>2015-03-22T10:18:32.000Z</time>
      </trkpt>
      <trkpt lat="47.51864" lon="6.65136">
        <ele>365</ele>
        <time>2015-03-22T10:18:33.000Z</time>
      </trkpt>
      <trkpt lat="47.51865" lon="6.65139">
        <ele>365</ele>
        <time>2015-03-22T10:18:34.000Z</time>
      </trkpt>
      <trkpt lat="47.51866" lon="6.65143">
        <ele>365</ele>
        <time>2015-03-22T10:18:35.000Z</time>
      </trkpt>
      <trkpt lat="47.51867" lon="6.65148">
        <ele>365</ele>
        <time>2015-03-22T10:18:36.000Z</time>
      </trkpt>
      <trkpt lat="47.51868" lon="6.65152">
        <ele>365</ele>
        <time>2015-03-22T10:18:37.000Z</time>
      </trkpt>
      <trkpt lat="47.51869" lon="6.65156">
        <ele>365</ele>
        <time>2015-03-22T10:18:38.000Z</time>
      </trkpt>
      <trkpt lat="47.5187" lon="6.6516">
        <ele>366</ele>
        <time>2015-03-22T10:18:39.000Z</time>
      </trkpt>
      <trkpt lat="47.51871" lon="6.65164">
        <ele>366</ele>
        <time>2015-03-22T10:18:40.000Z</time>
      </trkpt>
      <trkpt lat="47.51872" lon="6.65168">
        <ele>365</ele>
        <time>2015-03-22T10:18:41.000Z</time>
      </trkpt>
      <trkpt lat="47.51873" lon="6.65172">
        <ele>365</ele>
        <time>2015-03-22T10:18:42.000Z</time>
      </trkpt>
      <trkpt lat="47.51875" lon="6.65176">
        <ele>365</ele>
        <time>2015-03-22T10:18:43.000Z</time>
      </trkpt>
      <trkpt lat="47.51876" lon="6.65181">
        <ele>366</ele>
        <time>2015-03-22T10:18:44.000Z</time>
      </trkpt>
      <trkpt lat="47.51877" lon="6.65186">
        <ele>366</ele>
        <time>2015-03-22T10:18:45.000Z</time>
      </trkpt>
      <trkpt lat="47.51879" lon="6.65191">
        <ele>366</ele>
        <time>2015-03-22T10:18:46.000Z</time>
      </trkpt>
      <trkpt lat="47.5188" lon="6.65197">
        <ele>366</ele>
        <time>2015-03-22T10:18:47.000Z</time>
      </trkpt>
      <trkpt lat="47.51881" lon="6.65203">
        <ele>366</ele>
        <time>2015-03-22T10:18:48.000Z</time>
      </trkpt>
      <trkpt lat="47.51882" lon="6.65208">
        <ele>366</ele>
        <time>2015-03-22T10:18:49.000Z</time>
      </trkpt>
      <trkpt lat="47.51883" lon="6.65214">
        <ele>366</ele>
        <time>2015-03-22T10:18:50.000Z</time>
      </trkpt>
      <trkpt lat="47.51883" lon="6.65219">
        <ele>366</ele>
        <time>2015-03-22T10:18:51.000Z</time>
      </trkpt>
      <trkpt lat="47.51884" lon="6.65224">
        <ele>366</ele>
        <time>2015-03-22T10:18:52.000Z</time>
      </trkpt>
      <trkpt lat="47.51885" lon="6.65229">
        <ele>366</ele>
        <time>2015-03-22T10:18:53.000Z</time>
      </trkpt>
      <trkpt lat="47.51886" lon="6.65233">
        <ele>366</ele>
        <time>2015-03-22T10:18:54.000Z</time>
      </trkpt>
      <trkpt lat="47.51886" lon="6.65238">
        <ele>366</ele>
        <time>2015-03-22T10:18:55.000Z</time>
      </trkpt>
      <trkpt lat="47.51887" lon="6.65244">
        <ele>366</ele>
        <time>2015-03-22T10:18:56.000Z</time>
      </trkpt>
      <trkpt lat="47.51888" lon="6.65249">
        <ele>366</ele>
        <time>2015-03-22T10:18:57.000Z</time>
      </trkpt>
      <trkpt lat="47.51888" lon="6.65254">
        <ele>365</ele>
        <time>2015-03-22T10:18:58.000Z</time>
      </trkpt>
      <trkpt lat="47.51888" lon="6.65258">
        <ele>365</ele>
        <time>2015-03-22T10:18:59.000Z</time>
      </trkpt>
      <trkpt lat="47.51888" lon="6.65261">
        <ele>365</ele>
        <time>2015-03-22T10:19:00.000Z</time>
      </trkpt>
      <trkpt lat="47.51885" lon="6.65264">
        <ele>365</ele>
        <time>2015-03-22T10:19:17.000Z</time>
      </trkpt>
      <trkpt lat="47.51882" lon="6.65265">
        <ele>365</ele>
        <time>2015-03-22T10:19:18.000Z</time>
      </trkpt>
      <trkpt lat="47.51879" lon="6.65266">
        <ele>365</ele>
        <time>2015-03-22T10:19:19.000Z</time>
      </trkpt>
      <trkpt lat="47.51875" lon="6.65266">
        <ele>365</ele>
        <time>2015-03-22T10:19:20.000Z</time>
      </trkpt>
      <trkpt lat="47.5187" lon="6.65268">
        <ele>365</ele>
        <time>2015-03-22T10:19:21.000Z</time>
      </trkpt>
      <trkpt lat="47.51866" lon="6.6527">
        <ele>365</ele>
        <time>2015-03-22T10:19:22.000Z</time>
      </trkpt>
      <trkpt lat="47.51862" lon="6.65272">
        <ele>365</ele>
        <time>2015-03-22T10:19:23.000Z</time>
      </trkpt>
      <trkpt lat="47.51858" lon="6.65275">
        <ele>365</ele>
        <time>2015-03-22T10:19:24.000Z</time>
      </trkpt>
      <trkpt lat="47.51855" lon="6.65278">
        <ele>365</ele>
        <time>2015-03-22T10:19:25.000Z</time>
      </trkpt>
      <trkpt lat="47.51851" lon="6.65281">
        <ele>365</ele>
        <time>2015-03-22T10:19:26.000Z</time>
      </trkpt>
      <trkpt lat="47.51848" lon="6.65284">
        <ele>365</ele>
        <time>2015-03-22T10:19:27.000Z</time>
      </trkpt>
      <trkpt lat="47.51844" lon="6.65286">
        <ele>365</ele>
        <time>2015-03-22T10:19:28.000Z</time>
      </trkpt>
      <trkpt lat="47.51839" lon="6.65289">
        <ele>365</ele>
        <time>2015-03-22T10:19:29.000Z</time>
      </trkpt>
      <trkpt lat="47.51836" lon="6.65295">
        <ele>364</ele>
        <time>2015-03-22T10:19:30.000Z</time>
      </trkpt>
      <trkpt lat="47.51833" lon="6.65301">
        <ele>363</ele>
        <time>2015-03-22T10:19:31.000Z</time>
      </trkpt>
      <trkpt lat="47.51829" lon="6.65306">
        <ele>363</ele>
        <time>2015-03-22T10:19:32.000Z</time>
      </trkpt>
      <trkpt lat="47.51827" lon="6.65313">
        <ele>363</ele>
        <time>2015-03-22T10:19:33.000Z</time>
      </trkpt>
      <trkpt lat="47.51824" lon="6.65319">
        <ele>363</ele>
        <time>2015-03-22T10:19:34.000Z</time>
      </trkpt>
      <trkpt lat="47.51822" lon="6.65325">
        <ele>363</ele>
        <time>2015-03-22T10:19:35.000Z</time>
      </trkpt>
      <trkpt lat="47.5182" lon="6.65331">
        <ele>363</ele>
        <time>2015-03-22T10:19:36.000Z</time>
      </trkpt>
      <trkpt lat="47.51817" lon="6.65337">
        <ele>362</ele>
        <time>2015-03-22T10:19:37.000Z</time>
      </trkpt>
      <trkpt lat="47.51814" lon="6.65342">
        <ele>362</ele>
        <time>2015-03-22T10:19:38.000Z</time>
      </trkpt>
      <trkpt lat="47.51812" lon="6.65347">
        <ele>362</ele>
        <time>2015-03-22T10:19:39.000Z</time>
      </trkpt>
      <trkpt lat="47.51809" lon="6.65352">
        <ele>362</ele>
        <time>2015-03-22T10:19:40.000Z</time>
      </trkpt>
      <trkpt lat="47.51807" lon="6.65358">
        <ele>362</ele>
        <time>2015-03-22T10:19:41.000Z</time>
      </trkpt>
      <trkpt lat="47.51805" lon="6.65363">
        <ele>362</ele>
        <time>2015-03-22T10:19:42.000Z</time>
      </trkpt>
      <trkpt lat="47.51802" lon="6.65369">
        <ele>362</ele>
        <time>2015-03-22T10:19:43.000Z</time>
      </trkpt>
      <trkpt lat="47.51799" lon="6.65377">
        <ele>362</ele>
        <time>2015-03-22T10:19:44.000Z</time>
      </trkpt>
      <trkpt lat="47.51796" lon="6.65384">
        <ele>362</ele>
        <time>2015-03-22T10:19:45.000Z</time>
      </trkpt>
      <trkpt lat="47.51793" lon="6.65391">
        <ele>362</ele>
        <time>2015-03-22T10:19:46.000Z</time>
      </trkpt>
      <trkpt lat="47.51789" lon="6.65398">
        <ele>362</ele>
        <time>2015-03-22T10:19:47.000Z</time>
      </trkpt>
      <trkpt lat="47.51785" lon="6.65404">
        <ele>362</ele>
        <time>2015-03-22T10:19:48.000Z</time>
      </trkpt>
      <trkpt lat="47.51781" lon="6.65412">
        <ele>362</ele>
        <time>2015-03-22T10:19:49.000Z</time>
      </trkpt>
      <trkpt lat="47.51776" lon="6.65418">
        <ele>361</ele>
        <time>2015-03-22T10:19:50.000Z</time>
      </trkpt>
      <trkpt lat="47.51771" lon="6.65422">
        <ele>361</ele>
        <time>2015-03-22T10:19:51.000Z</time>
      </trkpt>
      <trkpt lat="47.51768" lon="6.65427">
        <ele>361</ele>
        <time>2015-03-22T10:19:52.000Z</time>
      </trkpt>
      <trkpt lat="47.51764" lon="6.6543">
        <ele>361</ele>
        <time>2015-03-22T10:19:53.000Z</time>
      </trkpt>
      <trkpt lat="47.5176" lon="6.65435">
        <ele>361</ele>
        <time>2015-03-22T10:19:54.000Z</time>
      </trkpt>
      <trkpt lat="47.51756" lon="6.65438">
        <ele>361</ele>
        <time>2015-03-22T10:19:55.000Z</time>
      </trkpt>
      <trkpt lat="47.51752" lon="6.65443">
        <ele>361</ele>
        <time>2015-03-22T10:19:56.000Z</time>
      </trkpt>
      <trkpt lat="47.51748" lon="6.65446">
        <ele>362</ele>
        <time>2015-03-22T10:19:57.000Z</time>
      </trkpt>
      <trkpt lat="47.51745" lon="6.65449">
        <ele>362</ele>
        <time>2015-03-22T10:19:58.000Z</time>
      </trkpt>
      <trkpt lat="47.51742" lon="6.65453">
        <ele>362</ele>
        <time>2015-03-22T10:19:59.000Z</time>
      </trkpt>
      <trkpt lat="47.51739" lon="6.65456">
        <ele>362</ele>
        <time>2015-03-22T10:20:00.000Z</time>
      </trkpt>
      <trkpt lat="47.51736" lon="6.65459">
        <ele>362</ele>
        <time>2015-03-22T10:20:01.000Z</time>
      </trkpt>
      <trkpt lat="47.51732" lon="6.65466">
        <ele>362</ele>
        <time>2015-03-22T10:20:03.000Z</time>
      </trkpt>
      <trkpt lat="47.51732" lon="6.6547">
        <ele>362</ele>
        <time>2015-03-22T10:20:04.000Z</time>
      </trkpt>
      <trkpt lat="47.51732" lon="6.65475">
        <ele>362</ele>
        <time>2015-03-22T10:20:05.000Z</time>
      </trkpt>
      <trkpt lat="47.51731" lon="6.65479">
        <ele>362</ele>
        <time>2015-03-22T10:20:06.000Z</time>
      </trkpt>
      <trkpt lat="47.51732" lon="6.65483">
        <ele>362</ele>
        <time>2015-03-22T10:20:07.000Z</time>
      </trkpt>
      <trkpt lat="47.51734" lon="6.65488">
        <ele>361</ele>
        <time>2015-03-22T10:20:08.000Z</time>
      </trkpt>
      <trkpt lat="47.51736" lon="6.65492">
        <ele>361</ele>
        <time>2015-03-22T10:20:09.000Z</time>
      </trkpt>
      <trkpt lat="47.51739" lon="6.65495">
        <ele>361</ele>
        <time>2015-03-22T10:20:10.000Z</time>
      </trkpt>
      <trkpt lat="47.51743" lon="6.65499">
        <ele>361</ele>
        <time>2015-03-22T10:20:11.000Z</time>
      </trkpt>
      <trkpt lat="47.51746" lon="6.65502">
        <ele>360</ele>
        <time>2015-03-22T10:20:12.000Z</time>
      </trkpt>
      <trkpt lat="47.5175" lon="6.65505">
        <ele>360</ele>
        <time>2015-03-22T10:20:13.000Z</time>
      </trkpt>
      <trkpt lat="47.51753" lon="6.65507">
        <ele>360</ele>
        <time>2015-03-22T10:20:14.000Z</time>
      </trkpt>
      <trkpt lat="47.51756" lon="6.6551">
        <ele>360</ele>
        <time>2015-03-22T10:20:15.000Z</time>
      </trkpt>
      <trkpt lat="47.51759" lon="6.65512">
        <ele>360</ele>
        <time>2015-03-22T10:20:16.000Z</time>
      </trkpt>
      <trkpt lat="47.51763" lon="6.65514">
        <ele>360</ele>
        <time>2015-03-22T10:20:17.000Z</time>
      </trkpt>
      <trkpt lat="47.51766" lon="6.65517">
        <ele>360</ele>
        <time>2015-03-22T10:20:18.000Z</time>
      </trkpt>
      <trkpt lat="47.5177" lon="6.65519">
        <ele>360</ele>
        <time>2015-03-22T10:20:19.000Z</time>
      </trkpt>
      <trkpt lat="47.51773" lon="6.65521">
        <ele>360</ele>
        <time>2015-03-22T10:20:20.000Z</time>
      </trkpt>
      <trkpt lat="47.51777" lon="6.65524">
        <ele>360</ele>
        <time>2015-03-22T10:20:21.000Z</time>
      </trkpt>
      <trkpt lat="47.51781" lon="6.65526">
        <ele>360</ele>
        <time>2015-03-22T10:20:22.000Z</time>
      </trkpt>
      <trkpt lat="47.51784" lon="6.65529">
        <ele>360</ele>
        <time>2015-03-22T10:20:23.000Z</time>
      </trkpt>
      <trkpt lat="47.51788" lon="6.65531">
        <ele>360</ele>
        <time>2015-03-22T10:20:24.000Z</time>
      </trkpt>
      <trkpt lat="47.51792" lon="6.65534">
        <ele>360</ele>
        <time>2015-03-22T10:20:25.000Z</time>
      </trkpt>
      <trkpt lat="47.51798" lon="6.65535">
        <ele>360</ele>
        <time>2015-03-22T10:20:26.000Z</time>
      </trkpt>
      <trkpt lat="47.51803" lon="6.65537">
        <ele>360</ele>
        <time>2015-03-22T10:20:27.000Z</time>
      </trkpt>
      <trkpt lat="47.51806" lon="6.6554">
        <ele>360</ele>
        <time>2015-03-22T10:20:28.000Z</time>
      </trkpt>
      <trkpt lat="47.51811" lon="6.65543">
        <ele>360</ele>
        <time>2015-03-22T10:20:29.000Z</time>
      </trkpt>
      <trkpt lat="47.51815" lon="6.65544">
        <ele>360</ele>
        <time>2015-03-22T10:20:30.000Z</time>
      </trkpt>
      <trkpt lat="47.5182" lon="6.65546">
        <ele>360</ele>
        <time>2015-03-22T10:20:31.000Z</time>
      </trkpt>
      <trkpt lat="47.51823" lon="6.65549">
        <ele>360</ele>
        <time>2015-03-22T10:20:32.000Z</time>
      </trkpt>
      <trkpt lat="47.51828" lon="6.65551">
        <ele>360</ele>
        <time>2015-03-22T10:20:33.000Z</time>
      </trkpt>
      <trkpt lat="47.51831" lon="6.65553">
        <ele>360</ele>
        <time>2015-03-22T10:20:34.000Z</time>
      </trkpt>
      <trkpt lat="47.51834" lon="6.65555">
        <ele>360</ele>
        <time>2015-03-22T10:20:35.000Z</time>
      </trkpt>
      <trkpt lat="47.51838" lon="6.65559">
        <ele>360</ele>
        <time>2015-03-22T10:20:36.000Z</time>
      </trkpt>
      <trkpt lat="47.51841" lon="6.65561">
        <ele>360</ele>
        <time>2015-03-22T10:20:37.000Z</time>
      </trkpt>
      <trkpt lat="47.51844" lon="6.65563">
        <ele>360</ele>
        <time>2015-03-22T10:20:38.000Z</time>
      </trkpt>
      <trkpt lat="47.51847" lon="6.65567">
        <ele>360</ele>
        <time>2015-03-22T10:20:39.000Z</time>
      </trkpt>
      <trkpt lat="47.5185" lon="6.6557">
        <ele>360</ele>
        <time>2015-03-22T10:20:40.000Z</time>
      </trkpt>
      <trkpt lat="47.51853" lon="6.65573">
        <ele>360</ele>
        <time>2015-03-22T10:20:41.000Z</time>
      </trkpt>
      <trkpt lat="47.51856" lon="6.65577">
        <ele>360</ele>
        <time>2015-03-22T10:20:42.000Z</time>
      </trkpt>
      <trkpt lat="47.5186" lon="6.6558">
        <ele>360</ele>
        <time>2015-03-22T10:20:43.000Z</time>
      </trkpt>
      <trkpt lat="47.51864" lon="6.65583">
        <ele>360</ele>
        <time>2015-03-22T10:20:44.000Z</time>
      </trkpt>
      <trkpt lat="47.51867" lon="6.65587">
        <ele>361</ele>
        <time>2015-03-22T10:20:45.000Z</time>
      </trkpt>
      <trkpt lat="47.5187" lon="6.6559">
        <ele>361</ele>
        <time>2015-03-22T10:20:46.000Z</time>
      </trkpt>
      <trkpt lat="47.51873" lon="6.65594">
        <ele>361</ele>
        <time>2015-03-22T10:20:47.000Z</time>
      </trkpt>
      <trkpt lat="47.51875" lon="6.65598">
        <ele>361</ele>
        <time>2015-03-22T10:20:48.000Z</time>
      </trkpt>
      <trkpt lat="47.51878" lon="6.65602">
        <ele>361</ele>
        <time>2015-03-22T10:20:49.000Z</time>
      </trkpt>
      <trkpt lat="47.51881" lon="6.65607">
        <ele>361</ele>
        <time>2015-03-22T10:20:50.000Z</time>
      </trkpt>
      <trkpt lat="47.51883" lon="6.65611">
        <ele>361</ele>
        <time>2015-03-22T10:20:51.000Z</time>
      </trkpt>
      <trkpt lat="47.51886" lon="6.65617">
        <ele>361</ele>
        <time>2015-03-22T10:20:52.000Z</time>
      </trkpt>
      <trkpt lat="47.51889" lon="6.65622">
        <ele>361</ele>
        <time>2015-03-22T10:20:53.000Z</time>
      </trkpt>
      <trkpt lat="47.51892" lon="6.65626">
        <ele>362</ele>
        <time>2015-03-22T10:20:54.000Z</time>
      </trkpt>
      <trkpt lat="47.51896" lon="6.6563">
        <ele>362</ele>
        <time>2015-03-22T10:20:55.000Z</time>
      </trkpt>
      <trkpt lat="47.51899" lon="6.65633">
        <ele>362</ele>
        <time>2015-03-22T10:20:56.000Z</time>
      </trkpt>
      <trkpt lat="47.51903" lon="6.65636">
        <ele>362</ele>
        <time>2015-03-22T10:20:57.000Z</time>
      </trkpt>
      <trkpt lat="47.51906" lon="6.6564">
        <ele>362</ele>
        <time>2015-03-22T10:20:58.000Z</time>
      </trkpt>
      <trkpt lat="47.51909" lon="6.65644">
        <ele>362</ele>
        <time>2015-03-22T10:20:59.000Z</time>
      </trkpt>
      <trkpt lat="47.51911" lon="6.65648">
        <ele>362</ele>
        <time>2015-03-22T10:21:00.000Z</time>
      </trkpt>
      <trkpt lat="47.51914" lon="6.65652">
        <ele>362</ele>
        <time>2015-03-22T10:21:01.001Z</time>
      </trkpt>
      <trkpt lat="47.51918" lon="6.6566">
        <ele>363</ele>
        <time>2015-03-22T10:21:03.000Z</time>
      </trkpt>
      <trkpt lat="47.51921" lon="6.65663">
        <ele>363</ele>
        <time>2015-03-22T10:21:04.000Z</time>
      </trkpt>
      <trkpt lat="47.51924" lon="6.65666">
        <ele>363</ele>
        <time>2015-03-22T10:21:05.000Z</time>
      </trkpt>
      <trkpt lat="47.51926" lon="6.65669">
        <ele>364</ele>
        <time>2015-03-22T10:21:06.000Z</time>
      </trkpt>
      <trkpt lat="47.51928" lon="6.65672">
        <ele>364</ele>
        <time>2015-03-22T10:21:07.000Z</time>
      </trkpt>
      <trkpt lat="47.51929" lon="6.65674">
        <ele>364</ele>
        <time>2015-03-22T10:21:08.000Z</time>
      </trkpt>
      <trkpt lat="47.51931" lon="6.65677">
        <ele>364</ele>
        <time>2015-03-22T10:21:09.000Z</time>
      </trkpt>
      <trkpt lat="47.51933" lon="6.65679">
        <ele>364</ele>
        <time>2015-03-22T10:21:10.000Z</time>
      </trkpt>
      <trkpt lat="47.51935" lon="6.65681">
        <ele>364</ele>
        <time>2015-03-22T10:21:11.000Z</time>
      </trkpt>
      <trkpt lat="47.51938" lon="6.65684">
        <ele>364</ele>
        <time>2015-03-22T10:21:12.000Z</time>
      </trkpt>
      <trkpt lat="47.51941" lon="6.65688">
        <ele>364</ele>
        <time>2015-03-22T10:21:13.000Z</time>
      </trkpt>
      <trkpt lat="47.51943" lon="6.65692">
        <ele>364</ele>
        <time>2015-03-22T10:21:14.000Z</time>
      </trkpt>
      <trkpt lat="47.51947" lon="6.65697">
        <ele>364</ele>
        <time>2015-03-22T10:21:15.000Z</time>
      </trkpt>
      <trkpt lat="47.5195" lon="6.65702">
        <ele>365</ele>
        <time>2015-03-22T10:21:16.001Z</time>
      </trkpt>
      <trkpt lat="47.51954" lon="6.65706">
        <ele>365</ele>
        <time>2015-03-22T10:21:17.000Z</time>
      </trkpt>
      <trkpt lat="47.51958" lon="6.6571">
        <ele>365</ele>
        <time>2015-03-22T10:21:18.000Z</time>
      </trkpt>
      <trkpt lat="47.51962" lon="6.65713">
        <ele>365</ele>
        <time>2015-03-22T10:21:19.000Z</time>
      </trkpt>
      <trkpt lat="47.51966" lon="6.65717">
        <ele>365</ele>
        <time>2015-03-22T10:21:20.000Z</time>
      </trkpt>
      <trkpt lat="47.5197" lon="6.6572">
        <ele>365</ele>
        <time>2015-03-22T10:21:21.000Z</time>
      </trkpt>
      <trkpt lat="47.51974" lon="6.65723">
        <ele>365</ele>
        <time>2015-03-22T10:21:22.000Z</time>
      </trkpt>
      <trkpt lat="47.51977" lon="6.65726">
        <ele>365</ele>
        <time>2015-03-22T10:21:23.000Z</time>
      </trkpt>
      <trkpt lat="47.51981" lon="6.65729">
        <ele>365</ele>
        <time>2015-03-22T10:21:24.000Z</time>
      </trkpt>
      <trkpt lat="47.51984" lon="6.65732">
        <ele>366</ele>
        <time>2015-03-22T10:21:25.000Z</time>
      </trkpt>
      <trkpt lat="47.51987" lon="6.65734">
        <ele>366</ele>
        <time>2015-03-22T10:21:26.000Z</time>
      </trkpt>
      <trkpt lat="47.5199" lon="6.65737">
        <ele>366</ele>
        <time>2015-03-22T10:21:27.000Z</time>
      </trkpt>
      <trkpt lat="47.51993" lon="6.65739">
        <ele>366</ele>
        <time>2015-03-22T10:21:28.000Z</time>
      </trkpt>
      <trkpt lat="47.51997" lon="6.65741">
        <ele>366</ele>
        <time>2015-03-22T10:21:29.000Z</time>
      </trkpt>
      <trkpt lat="47.52001" lon="6.65742">
        <ele>366</ele>
        <time>2015-03-22T10:21:30.000Z</time>
      </trkpt>
      <trkpt lat="47.52006" lon="6.65743">
        <ele>366</ele>
        <time>2015-03-22T10:21:31.000Z</time>
      </trkpt>
      <trkpt lat="47.5201" lon="6.65744">
        <ele>366</ele>
        <time>2015-03-22T10:21:32.000Z</time>
      </trkpt>
      <trkpt lat="47.52014" lon="6.65745">
        <ele>366</ele>
        <time>2015-03-22T10:21:32.998Z</time>
      </trkpt>
      <trkpt lat="47.52017" lon="6.65744">
        <ele>366</ele>
        <time>2015-03-22T10:21:34.000Z</time>
      </trkpt>
      <trkpt lat="47.52019" lon="6.65744">
        <ele>366</ele>
        <time>2015-03-22T10:21:35.000Z</time>
      </trkpt>
      <trkpt lat="47.52022" lon="6.65745">
        <ele>366</ele>
        <time>2015-03-22T10:21:36.000Z</time>
      </trkpt>
      <trkpt lat="47.52025" lon="6.65746">
        <ele>366</ele>
        <time>2015-03-22T10:21:37.000Z</time>
      </trkpt>
      <trkpt lat="47.52028" lon="6.65748">
        <ele>366</ele>
        <time>2015-03-22T10:21:38.000Z</time>
      </trkpt>
      <trkpt lat="47.52031" lon="6.6575">
        <ele>366</ele>
        <time>2015-03-22T10:21:39.000Z</time>
      </trkpt>
      <trkpt lat="47.52035" lon="6.65753">
        <ele>367</ele>
        <time>2015-03-22T10:21:40.000Z</time>
      </trkpt>
      <trkpt lat="47.52038" lon="6.65757">
        <ele>367</ele>
        <time>2015-03-22T10:21:41.000Z</time>
      </trkpt>
      <trkpt lat="47.52042" lon="6.65762">
        <ele>367</ele>
        <time>2015-03-22T10:21:42.000Z</time>
      </trkpt>
      <trkpt lat="47.52044" lon="6.65767">
        <ele>367</ele>
        <time>2015-03-22T10:21:43.000Z</time>
      </trkpt>
      <trkpt lat="47.52047" lon="6.65773">
        <ele>367</ele>
        <time>2015-03-22T10:21:44.000Z</time>
      </trkpt>
      <trkpt lat="47.52048" lon="6.65779">
        <ele>367</ele>
        <time>2015-03-22T10:21:45.000Z</time>
      </trkpt>
      <trkpt lat="47.5205" lon="6.65784">
        <ele>367</ele>
        <time>2015-03-22T10:21:46.000Z</time>
      </trkpt>
      <trkpt lat="47.52052" lon="6.6579">
        <ele>367</ele>
        <time>2015-03-22T10:21:47.000Z</time>
      </trkpt>
      <trkpt lat="47.52054" lon="6.65796">
        <ele>367</ele>
        <time>2015-03-22T10:21:48.000Z</time>
      </trkpt>
      <trkpt lat="47.52057" lon="6.65801">
        <ele>367</ele>
        <time>2015-03-22T10:21:49.000Z</time>
      </trkpt>
      <trkpt lat="47.52059" lon="6.65806">
        <ele>367</ele>
        <time>2015-03-22T10:21:50.000Z</time>
      </trkpt>
      <trkpt lat="47.52061" lon="6.65811">
        <ele>367</ele>
        <time>2015-03-22T10:21:51.000Z</time>
      </trkpt>
      <trkpt lat="47.52063" lon="6.65816">
        <ele>367</ele>
        <time>2015-03-22T10:21:52.000Z</time>
      </trkpt>
      <trkpt lat="47.52065" lon="6.6582">
        <ele>368</ele>
        <time>2015-03-22T10:21:53.000Z</time>
      </trkpt>
      <trkpt lat="47.52066" lon="6.65824">
        <ele>368</ele>
        <time>2015-03-22T10:21:54.000Z</time>
      </trkpt>
      <trkpt lat="47.52068" lon="6.65829">
        <ele>368</ele>
        <time>2015-03-22T10:21:55.000Z</time>
      </trkpt>
      <trkpt lat="47.52068" lon="6.65833">
        <ele>368</ele>
        <time>2015-03-22T10:21:56.000Z</time>
      </trkpt>
      <trkpt lat="47.52069" lon="6.65837">
        <ele>369</ele>
        <time>2015-03-22T10:21:57.000Z</time>
      </trkpt>
      <trkpt lat="47.52069" lon="6.65842">
        <ele>369</ele>
        <time>2015-03-22T10:21:58.000Z</time>
      </trkpt>
      <trkpt lat="47.52071" lon="6.65846">
        <ele>369</ele>
        <time>2015-03-22T10:21:59.000Z</time>
      </trkpt>
      <trkpt lat="47.52072" lon="6.65852">
        <ele>369</ele>
        <time>2015-03-22T10:22:00.000Z</time>
      </trkpt>
      <trkpt lat="47.52074" lon="6.65857">
        <ele>369</ele>
        <time>2015-03-22T10:22:01.000Z</time>
      </trkpt>
      <trkpt lat="47.52078" lon="6.65865">
        <ele>370</ele>
        <time>2015-03-22T10:22:03.000Z</time>
      </trkpt>
      <trkpt lat="47.52078" lon="6.6587">
        <ele>370</ele>
        <time>2015-03-22T10:22:05.000Z</time>
      </trkpt>
      <trkpt lat="47.52077" lon="6.65873">
        <ele>370</ele>
        <time>2015-03-22T10:22:06.000Z</time>
      </trkpt>
      <trkpt lat="47.52075" lon="6.65875">
        <ele>370</ele>
        <time>2015-03-22T10:22:07.000Z</time>
      </trkpt>
      <trkpt lat="47.52073" lon="6.65878">
        <ele>370</ele>
        <time>2015-03-22T10:22:08.000Z</time>
      </trkpt>
      <trkpt lat="47.52071" lon="6.65883">
        <ele>370</ele>
        <time>2015-03-22T10:22:09.000Z</time>
      </trkpt>
      <trkpt lat="47.52069" lon="6.65887">
        <ele>370</ele>
        <time>2015-03-22T10:22:10.000Z</time>
      </trkpt>
      <trkpt lat="47.52067" lon="6.65891">
        <ele>370</ele>
        <time>2015-03-22T10:22:11.000Z</time>
      </trkpt>
      <trkpt lat="47.52066" lon="6.65896">
        <ele>370</ele>
        <time>2015-03-22T10:22:12.000Z</time>
      </trkpt>
      <trkpt lat="47.52065" lon="6.65901">
        <ele>371</ele>
        <time>2015-03-22T10:22:13.000Z</time>
      </trkpt>
      <trkpt lat="47.52065" lon="6.65906">
        <ele>371</ele>
        <time>2015-03-22T10:22:14.000Z</time>
      </trkpt>
      <trkpt lat="47.52064" lon="6.65911">
        <ele>371</ele>
        <time>2015-03-22T10:22:15.000Z</time>
      </trkpt>
      <trkpt lat="47.52064" lon="6.65916">
        <ele>371</ele>
        <time>2015-03-22T10:22:16.000Z</time>
      </trkpt>
      <trkpt lat="47.52064" lon="6.65921">
        <ele>372</ele>
        <time>2015-03-22T10:22:17.000Z</time>
      </trkpt>
      <trkpt lat="47.52064" lon="6.65926">
        <ele>372</ele>
        <time>2015-03-22T10:22:18.000Z</time>
      </trkpt>
      <trkpt lat="47.52064" lon="6.6593">
        <ele>372</ele>
        <time>2015-03-22T10:22:19.000Z</time>
      </trkpt>
      <trkpt lat="47.52066" lon="6.65935">
        <ele>372</ele>
        <time>2015-03-22T10:22:20.000Z</time>
      </trkpt>
      <trkpt lat="47.52068" lon="6.6594">
        <ele>372</ele>
        <time>2015-03-22T10:22:21.000Z</time>
      </trkpt>
      <trkpt lat="47.52074" lon="6.65949">
        <ele>373</ele>
        <time>2015-03-22T10:22:22.000Z</time>
      </trkpt>
      <trkpt lat="47.52075" lon="6.65954">
        <ele>373</ele>
        <time>2015-03-22T10:22:23.000Z</time>
      </trkpt>
      <trkpt lat="47.52077" lon="6.65959">
        <ele>373</ele>
        <time>2015-03-22T10:22:24.000Z</time>
      </trkpt>
      <trkpt lat="47.52077" lon="6.65962">
        <ele>373</ele>
        <time>2015-03-22T10:22:25.000Z</time>
      </trkpt>
      <trkpt lat="47.52078" lon="6.65968">
        <ele>373</ele>
        <time>2015-03-22T10:22:26.000Z</time>
      </trkpt>
      <trkpt lat="47.5208" lon="6.65972">
        <ele>373</ele>
        <time>2015-03-22T10:22:27.000Z</time>
      </trkpt>
      <trkpt lat="47.52082" lon="6.65976">
        <ele>373</ele>
        <time>2015-03-22T10:22:28.000Z</time>
      </trkpt>
      <trkpt lat="47.52084" lon="6.65979">
        <ele>372</ele>
        <time>2015-03-22T10:22:29.000Z</time>
      </trkpt>
      <trkpt lat="47.52085" lon="6.65984">
        <ele>372</ele>
        <time>2015-03-22T10:22:30.000Z</time>
      </trkpt>
      <trkpt lat="47.52087" lon="6.65988">
        <ele>373</ele>
        <time>2015-03-22T10:22:31.000Z</time>
      </trkpt>
      <trkpt lat="47.52089" lon="6.65992">
        <ele>373</ele>
        <time>2015-03-22T10:22:32.000Z</time>
      </trkpt>
      <trkpt lat="47.52092" lon="6.65996">
        <ele>373</ele>
        <time>2015-03-22T10:22:33.000Z</time>
      </trkpt>
      <trkpt lat="47.52094" lon="6.66">
        <ele>374</ele>
        <time>2015-03-22T10:22:34.000Z</time>
      </trkpt>
      <trkpt lat="47.52096" lon="6.66004">
        <ele>374</ele>
        <time>2015-03-22T10:22:35.000Z</time>
      </trkpt>
      <trkpt lat="47.52098" lon="6.66008">
        <ele>374</ele>
        <time>2015-03-22T10:22:36.000Z</time>
      </trkpt>
      <trkpt lat="47.521" lon="6.66011">
        <ele>374</ele>
        <time>2015-03-22T10:22:37.000Z</time>
      </trkpt>
      <trkpt lat="47.52102" lon="6.66015">
        <ele>374</ele>
        <time>2015-03-22T10:22:38.000Z</time>
      </trkpt>
      <trkpt lat="47.52104" lon="6.66019">
        <ele>374</ele>
        <time>2015-03-22T10:22:39.000Z</time>
      </trkpt>
      <trkpt lat="47.52106" lon="6.66023">
        <ele>374</ele>
        <time>2015-03-22T10:22:40.000Z</time>
      </trkpt>
      <trkpt lat="47.52107" lon="6.66027">
        <ele>374</ele>
        <time>2015-03-22T10:22:41.001Z</time>
      </trkpt>
      <trkpt lat="47.5211" lon="6.66031">
        <ele>374</ele>
        <time>2015-03-22T10:22:42.000Z</time>
      </trkpt>
      <trkpt lat="47.52111" lon="6.66035">
        <ele>374</ele>
        <time>2015-03-22T10:22:43.000Z</time>
      </trkpt>
      <trkpt lat="47.52112" lon="6.66038">
        <ele>374</ele>
        <time>2015-03-22T10:22:44.000Z</time>
      </trkpt>
      <trkpt lat="47.52111" lon="6.66043">
        <ele>374</ele>
        <time>2015-03-22T10:22:46.000Z</time>
      </trkpt>
      <trkpt lat="47.5211" lon="6.66046">
        <ele>374</ele>
        <time>2015-03-22T10:22:47.000Z</time>
      </trkpt>
      <trkpt lat="47.52108" lon="6.66049">
        <ele>375</ele>
        <time>2015-03-22T10:22:48.000Z</time>
      </trkpt>
      <trkpt lat="47.52106" lon="6.66052">
        <ele>375</ele>
        <time>2015-03-22T10:22:49.000Z</time>
      </trkpt>
      <trkpt lat="47.52103" lon="6.66054">
        <ele>375</ele>
        <time>2015-03-22T10:22:50.000Z</time>
      </trkpt>
      <trkpt lat="47.521" lon="6.66055">
        <ele>375</ele>
        <time>2015-03-22T10:22:51.000Z</time>
      </trkpt>
      <trkpt lat="47.52097" lon="6.66056">
        <ele>375</ele>
        <time>2015-03-22T10:22:52.000Z</time>
      </trkpt>
      <trkpt lat="47.52095" lon="6.66058">
        <ele>375</ele>
        <time>2015-03-22T10:22:53.000Z</time>
      </trkpt>
      <trkpt lat="47.52093" lon="6.66061">
        <ele>376</ele>
        <time>2015-03-22T10:22:54.000Z</time>
      </trkpt>
      <trkpt lat="47.52091" lon="6.66064">
        <ele>376</ele>
        <time>2015-03-22T10:22:55.000Z</time>
      </trkpt>
      <trkpt lat="47.5209" lon="6.66068">
        <ele>376</ele>
        <time>2015-03-22T10:22:56.000Z</time>
      </trkpt>
      <trkpt lat="47.52089" lon="6.66073">
        <ele>377</ele>
        <time>2015-03-22T10:22:57.000Z</time>
      </trkpt>
      <trkpt lat="47.52089" lon="6.6608">
        <ele>377</ele>
        <time>2015-03-22T10:22:58.000Z</time>
      </trkpt>
      <trkpt lat="47.5209" lon="6.66086">
        <ele>378</ele>
        <time>2015-03-22T10:22:59.000Z</time>
      </trkpt>
      <trkpt lat="47.52091" lon="6.66093">
        <ele>378</ele>
        <time>2015-03-22T10:23:00.000Z</time>
      </trkpt>
      <trkpt lat="47.52091" lon="6.66099">
        <ele>377</ele>
        <time>2015-03-22T10:23:01.000Z</time>
      </trkpt>
      <trkpt lat="47.52098" lon="6.66113">
        <ele>377</ele>
        <time>2015-03-22T10:23:03.000Z</time>
      </trkpt>
      <trkpt lat="47.52103" lon="6.66117">
        <ele>377</ele>
        <time>2015-03-22T10:23:03.999Z</time>
      </trkpt>
      <trkpt lat="47.52101" lon="6.66122">
        <ele>377</ele>
        <time>2015-03-22T10:23:05.000Z</time>
      </trkpt>
      <trkpt lat="47.52101" lon="6.66127">
        <ele>377</ele>
        <time>2015-03-22T10:23:06.000Z</time>
      </trkpt>
      <trkpt lat="47.521" lon="6.66132">
        <ele>377</ele>
        <time>2015-03-22T10:23:07.000Z</time>
      </trkpt>
      <trkpt lat="47.52099" lon="6.66137">
        <ele>377</ele>
        <time>2015-03-22T10:23:08.000Z</time>
      </trkpt>
      <trkpt lat="47.52098" lon="6.66146">
        <ele>377</ele>
        <time>2015-03-22T10:23:09.000Z</time>
      </trkpt>
      <trkpt lat="47.52099" lon="6.66152">
        <ele>378</ele>
        <time>2015-03-22T10:23:10.000Z</time>
      </trkpt>
      <trkpt lat="47.521" lon="6.66156">
        <ele>378</ele>
        <time>2015-03-22T10:23:11.000Z</time>
      </trkpt>
      <trkpt lat="47.521" lon="6.66161">
        <ele>378</ele>
        <time>2015-03-22T10:23:12.000Z</time>
      </trkpt>
      <trkpt lat="47.52102" lon="6.66166">
        <ele>378</ele>
        <time>2015-03-22T10:23:13.000Z</time>
      </trkpt>
      <trkpt lat="47.52103" lon="6.6617">
        <ele>378</ele>
        <time>2015-03-22T10:23:14.000Z</time>
      </trkpt>
      <trkpt lat="47.52102" lon="6.66173">
        <ele>378</ele>
        <time>2015-03-22T10:23:15.000Z</time>
      </trkpt>
      <trkpt lat="47.52103" lon="6.66178">
        <ele>378</ele>
        <time>2015-03-22T10:23:16.000Z</time>
      </trkpt>
      <trkpt lat="47.52105" lon="6.66183">
        <ele>378</ele>
        <time>2015-03-22T10:23:17.000Z</time>
      </trkpt>
      <trkpt lat="47.52107" lon="6.66188">
        <ele>378</ele>
        <time>2015-03-22T10:23:18.000Z</time>
      </trkpt>
      <trkpt lat="47.52109" lon="6.66192">
        <ele>378</ele>
        <time>2015-03-22T10:23:19.000Z</time>
      </trkpt>
      <trkpt lat="47.52111" lon="6.66197">
        <ele>378</ele>
        <time>2015-03-22T10:23:20.000Z</time>
      </trkpt>
      <trkpt lat="47.52113" lon="6.66202">
        <ele>378</ele>
        <time>2015-03-22T10:23:21.000Z</time>
      </trkpt>
      <trkpt lat="47.52115" lon="6.66206">
        <ele>378</ele>
        <time>2015-03-22T10:23:22.000Z</time>
      </trkpt>
      <trkpt lat="47.52117" lon="6.66211">
        <ele>378</ele>
        <time>2015-03-22T10:23:23.000Z</time>
      </trkpt>
      <trkpt lat="47.52119" lon="6.66215">
        <ele>378</ele>
        <time>2015-03-22T10:23:24.000Z</time>
      </trkpt>
      <trkpt lat="47.52121" lon="6.6622">
        <ele>378</ele>
        <time>2015-03-22T10:23:25.000Z</time>
      </trkpt>
      <trkpt lat="47.52123" lon="6.66224">
        <ele>378</ele>
        <time>2015-03-22T10:23:26.000Z</time>
      </trkpt>
      <trkpt lat="47.52125" lon="6.6623">
        <ele>378</ele>
        <time>2015-03-22T10:23:27.000Z</time>
      </trkpt>
      <trkpt lat="47.52127" lon="6.66235">
        <ele>378</ele>
        <time>2015-03-22T10:23:28.000Z</time>
      </trkpt>
      <trkpt lat="47.5213" lon="6.66239">
        <ele>378</ele>
        <time>2015-03-22T10:23:29.000Z</time>
      </trkpt>
      <trkpt lat="47.52132" lon="6.66244">
        <ele>378</ele>
        <time>2015-03-22T10:23:30.000Z</time>
      </trkpt>
      <trkpt lat="47.52134" lon="6.66248">
        <ele>378</ele>
        <time>2015-03-22T10:23:31.000Z</time>
      </trkpt>
      <trkpt lat="47.52136" lon="6.66252">
        <ele>378</ele>
        <time>2015-03-22T10:23:32.000Z</time>
      </trkpt>
      <trkpt lat="47.52138" lon="6.66256">
        <ele>378</ele>
        <time>2015-03-22T10:23:33.000Z</time>
      </trkpt>
      <trkpt lat="47.52139" lon="6.6626">
        <ele>378</ele>
        <time>2015-03-22T10:23:34.000Z</time>
      </trkpt>
      <trkpt lat="47.52138" lon="6.66265">
        <ele>378</ele>
        <time>2015-03-22T10:23:35.000Z</time>
      </trkpt>
      <trkpt lat="47.52136" lon="6.6627">
        <ele>378</ele>
        <time>2015-03-22T10:23:36.000Z</time>
      </trkpt>
      <trkpt lat="47.52134" lon="6.66275">
        <ele>378</ele>
        <time>2015-03-22T10:23:37.000Z</time>
      </trkpt>
      <trkpt lat="47.52131" lon="6.66279">
        <ele>378</ele>
        <time>2015-03-22T10:23:38.000Z</time>
      </trkpt>
      <trkpt lat="47.52128" lon="6.66284">
        <ele>378</ele>
        <time>2015-03-22T10:23:39.000Z</time>
      </trkpt>
      <trkpt lat="47.52124" lon="6.66288">
        <ele>378</ele>
        <time>2015-03-22T10:23:40.000Z</time>
      </trkpt>
      <trkpt lat="47.52121" lon="6.66293">
        <ele>378</ele>
        <time>2015-03-22T10:23:41.000Z</time>
      </trkpt>
      <trkpt lat="47.52118" lon="6.66298">
        <ele>378</ele>
        <time>2015-03-22T10:23:42.000Z</time>
      </trkpt>
      <trkpt lat="47.52112" lon="6.66306">
        <ele>378</ele>
        <time>2015-03-22T10:23:43.000Z</time>
      </trkpt>
      <trkpt lat="47.52109" lon="6.66309">
        <ele>378</ele>
        <time>2015-03-22T10:23:44.000Z</time>
      </trkpt>
      <trkpt lat="47.52107" lon="6.66315">
        <ele>377</ele>
        <time>2015-03-22T10:23:45.000Z</time>
      </trkpt>
      <trkpt lat="47.52105" lon="6.6632">
        <ele>377</ele>
        <time>2015-03-22T10:23:46.000Z</time>
      </trkpt>
      <trkpt lat="47.52105" lon="6.66326">
        <ele>377</ele>
        <time>2015-03-22T10:23:47.000Z</time>
      </trkpt>
      <trkpt lat="47.52105" lon="6.66332">
        <ele>377</ele>
        <time>2015-03-22T10:23:48.000Z</time>
      </trkpt>
      <trkpt lat="47.52105" lon="6.66339">
        <ele>377</ele>
        <time>2015-03-22T10:23:49.000Z</time>
      </trkpt>
      <trkpt lat="47.52106" lon="6.66345">
        <ele>377</ele>
        <time>2015-03-22T10:23:50.000Z</time>
      </trkpt>
      <trkpt lat="47.52107" lon="6.66352">
        <ele>377</ele>
        <time>2015-03-22T10:23:51.000Z</time>
      </trkpt>
      <trkpt lat="47.52108" lon="6.66358">
        <ele>377</ele>
        <time>2015-03-22T10:23:52.000Z</time>
      </trkpt>
      <trkpt lat="47.52108" lon="6.66364">
        <ele>377</ele>
        <time>2015-03-22T10:23:53.000Z</time>
      </trkpt>
      <trkpt lat="47.52109" lon="6.6637">
        <ele>377</ele>
        <time>2015-03-22T10:23:54.000Z</time>
      </trkpt>
      <trkpt lat="47.52111" lon="6.66376">
        <ele>377</ele>
        <time>2015-03-22T10:23:55.000Z</time>
      </trkpt>
      <trkpt lat="47.52111" lon="6.66382">
        <ele>377</ele>
        <time>2015-03-22T10:23:56.000Z</time>
      </trkpt>
      <trkpt lat="47.52112" lon="6.66387">
        <ele>377</ele>
        <time>2015-03-22T10:23:57.000Z</time>
      </trkpt>
      <trkpt lat="47.52113" lon="6.66392">
        <ele>377</ele>
        <time>2015-03-22T10:23:58.000Z</time>
      </trkpt>
      <trkpt lat="47.52112" lon="6.66399">
        <ele>377</ele>
        <time>2015-03-22T10:23:59.000Z</time>
      </trkpt>
      <trkpt lat="47.52111" lon="6.66405">
        <ele>377</ele>
        <time>2015-03-22T10:24:00.000Z</time>
      </trkpt>
      <trkpt lat="47.52112" lon="6.6641">
        <ele>377</ele>
        <time>2015-03-22T10:24:01.000Z</time>
      </trkpt>
      <trkpt lat="47.52114" lon="6.66424">
        <ele>377</ele>
        <time>2015-03-22T10:24:03.000Z</time>
      </trkpt>
      <trkpt lat="47.52115" lon="6.6643">
        <ele>377</ele>
        <time>2015-03-22T10:24:04.000Z</time>
      </trkpt>
      <trkpt lat="47.52115" lon="6.66436">
        <ele>377</ele>
        <time>2015-03-22T10:24:05.000Z</time>
      </trkpt>
      <trkpt lat="47.52115" lon="6.66442">
        <ele>378</ele>
        <time>2015-03-22T10:24:06.000Z</time>
      </trkpt>
      <trkpt lat="47.52115" lon="6.66448">
        <ele>378</ele>
        <time>2015-03-22T10:24:07.000Z</time>
      </trkpt>
      <trkpt lat="47.52115" lon="6.66455">
        <ele>378</ele>
        <time>2015-03-22T10:24:08.000Z</time>
      </trkpt>
      <trkpt lat="47.52115" lon="6.66461">
        <ele>378</ele>
        <time>2015-03-22T10:24:09.000Z</time>
      </trkpt>
      <trkpt lat="47.52115" lon="6.66468">
        <ele>378</ele>
        <time>2015-03-22T10:24:10.000Z</time>
      </trkpt>
      <trkpt lat="47.52114" lon="6.66475">
        <ele>378</ele>
        <time>2015-03-22T10:24:11.000Z</time>
      </trkpt>
      <trkpt lat="47.52114" lon="6.66481">
        <ele>378</ele>
        <time>2015-03-22T10:24:12.000Z</time>
      </trkpt>
      <trkpt lat="47.52114" lon="6.66488">
        <ele>378</ele>
        <time>2015-03-22T10:24:13.000Z</time>
      </trkpt>
      <trkpt lat="47.52114" lon="6.66495">
        <ele>378</ele>
        <time>2015-03-22T10:24:14.000Z</time>
      </trkpt>
      <trkpt lat="47.52114" lon="6.66502">
        <ele>378</ele>
        <time>2015-03-22T10:24:15.000Z</time>
      </trkpt>
      <trkpt lat="47.52113" lon="6.66508">
        <ele>378</ele>
        <time>2015-03-22T10:24:16.000Z</time>
      </trkpt>
      <trkpt lat="47.52113" lon="6.66514">
        <ele>378</ele>
        <time>2015-03-22T10:24:17.000Z</time>
      </trkpt>
      <trkpt lat="47.52112" lon="6.6652">
        <ele>378</ele>
        <time>2015-03-22T10:24:18.000Z</time>
      </trkpt>
      <trkpt lat="47.52112" lon="6.66526">
        <ele>378</ele>
        <time>2015-03-22T10:24:19.000Z</time>
      </trkpt>
      <trkpt lat="47.52111" lon="6.66532">
        <ele>378</ele>
        <time>2015-03-22T10:24:20.000Z</time>
      </trkpt>
      <trkpt lat="47.52111" lon="6.66538">
        <ele>378</ele>
        <time>2015-03-22T10:24:21.000Z</time>
      </trkpt>
      <trkpt lat="47.5211" lon="6.66543">
        <ele>378</ele>
        <time>2015-03-22T10:24:22.000Z</time>
      </trkpt>
      <trkpt lat="47.52108" lon="6.66548">
        <ele>378</ele>
        <time>2015-03-22T10:24:23.000Z</time>
      </trkpt>
      <trkpt lat="47.52107" lon="6.66553">
        <ele>378</ele>
        <time>2015-03-22T10:24:24.000Z</time>
      </trkpt>
      <trkpt lat="47.52106" lon="6.66559">
        <ele>378</ele>
        <time>2015-03-22T10:24:25.000Z</time>
      </trkpt>
      <trkpt lat="47.52106" lon="6.66564">
        <ele>378</ele>
        <time>2015-03-22T10:24:26.000Z</time>
      </trkpt>
      <trkpt lat="47.52106" lon="6.6657">
        <ele>377</ele>
        <time>2015-03-22T10:24:27.000Z</time>
      </trkpt>
      <trkpt lat="47.52106" lon="6.66577">
        <ele>377</ele>
        <time>2015-03-22T10:24:28.000Z</time>
      </trkpt>
      <trkpt lat="47.52106" lon="6.66583">
        <ele>377</ele>
        <time>2015-03-22T10:24:29.000Z</time>
      </trkpt>
      <trkpt lat="47.52106" lon="6.66589">
        <ele>377</ele>
        <time>2015-03-22T10:24:30.000Z</time>
      </trkpt>
      <trkpt lat="47.52106" lon="6.66595">
        <ele>377</ele>
        <time>2015-03-22T10:24:31.000Z</time>
      </trkpt>
      <trkpt lat="47.52107" lon="6.66601">
        <ele>378</ele>
        <time>2015-03-22T10:24:32.000Z</time>
      </trkpt>
      <trkpt lat="47.52107" lon="6.66607">
        <ele>378</ele>
        <time>2015-03-22T10:24:33.000Z</time>
      </trkpt>
      <trkpt lat="47.52106" lon="6.66612">
        <ele>378</ele>
        <time>2015-03-22T10:24:34.000Z</time>
      </trkpt>
      <trkpt lat="47.52106" lon="6.66616">
        <ele>378</ele>
        <time>2015-03-22T10:24:35.000Z</time>
      </trkpt>
      <trkpt lat="47.52106" lon="6.66621">
        <ele>378</ele>
        <time>2015-03-22T10:24:36.000Z</time>
      </trkpt>
      <trkpt lat="47.52107" lon="6.66625">
        <ele>378</ele>
        <time>2015-03-22T10:24:37.000Z</time>
      </trkpt>
      <trkpt lat="47.52107" lon="6.66629">
        <ele>378</ele>
        <time>2015-03-22T10:24:38.000Z</time>
      </trkpt>
      <trkpt lat="47.52108" lon="6.66635">
        <ele>378</ele>
        <time>2015-03-22T10:24:39.000Z</time>
      </trkpt>
      <trkpt lat="47.52109" lon="6.66641">
        <ele>378</ele>
        <time>2015-03-22T10:24:40.000Z</time>
      </trkpt>
      <trkpt lat="47.52109" lon="6.66648">
        <ele>378</ele>
        <time>2015-03-22T10:24:41.000Z</time>
      </trkpt>
      <trkpt lat="47.52109" lon="6.66655">
        <ele>378</ele>
        <time>2015-03-22T10:24:42.000Z</time>
      </trkpt>
      <trkpt lat="47.5211" lon="6.66661">
        <ele>378</ele>
        <time>2015-03-22T10:24:43.000Z</time>
      </trkpt>
      <trkpt lat="47.5211" lon="6.66667">
        <ele>377</ele>
        <time>2015-03-22T10:24:44.000Z</time>
      </trkpt>
      <trkpt lat="47.5211" lon="6.66674">
        <ele>377</ele>
        <time>2015-03-22T10:24:45.000Z</time>
      </trkpt>
      <trkpt lat="47.52109" lon="6.6668">
        <ele>377</ele>
        <time>2015-03-22T10:24:46.000Z</time>
      </trkpt>
      <trkpt lat="47.52109" lon="6.66686">
        <ele>377</ele>
        <time>2015-03-22T10:24:47.000Z</time>
      </trkpt>
      <trkpt lat="47.52109" lon="6.66693">
        <ele>377</ele>
        <time>2015-03-22T10:24:48.000Z</time>
      </trkpt>
      <trkpt lat="47.52109" lon="6.66701">
        <ele>377</ele>
        <time>2015-03-22T10:24:49.000Z</time>
      </trkpt>
      <trkpt lat="47.52107" lon="6.66708">
        <ele>377</ele>
        <time>2015-03-22T10:24:50.000Z</time>
      </trkpt>
      <trkpt lat="47.52108" lon="6.66714">
        <ele>377</ele>
        <time>2015-03-22T10:24:51.000Z</time>
      </trkpt>
      <trkpt lat="47.52108" lon="6.66719">
        <ele>377</ele>
        <time>2015-03-22T10:24:52.000Z</time>
      </trkpt>
      <trkpt lat="47.52108" lon="6.66724">
        <ele>377</ele>
        <time>2015-03-22T10:24:53.000Z</time>
      </trkpt>
      <trkpt lat="47.52107" lon="6.66732">
        <ele>377</ele>
        <time>2015-03-22T10:24:54.000Z</time>
      </trkpt>
      <trkpt lat="47.52107" lon="6.66738">
        <ele>377</ele>
        <time>2015-03-22T10:24:55.000Z</time>
      </trkpt>
      <trkpt lat="47.52106" lon="6.66743">
        <ele>377</ele>
        <time>2015-03-22T10:24:56.000Z</time>
      </trkpt>
      <trkpt lat="47.52106" lon="6.66749">
        <ele>377</ele>
        <time>2015-03-22T10:24:57.000Z</time>
      </trkpt>
      <trkpt lat="47.52104" lon="6.66756">
        <ele>377</ele>
        <time>2015-03-22T10:24:58.000Z</time>
      </trkpt>
      <trkpt lat="47.52103" lon="6.66766">
        <ele>377</ele>
        <time>2015-03-22T10:24:59.000Z</time>
      </trkpt>
      <trkpt lat="47.52103" lon="6.66773">
        <ele>377</ele>
        <time>2015-03-22T10:25:00.000Z</time>
      </trkpt>
      <trkpt lat="47.52103" lon="6.66781">
        <ele>377</ele>
        <time>2015-03-22T10:25:01.000Z</time>
      </trkpt>
      <trkpt lat="47.52103" lon="6.66795">
        <ele>377</ele>
        <time>2015-03-22T10:25:03.000Z</time>
      </trkpt>
      <trkpt lat="47.52103" lon="6.66802">
        <ele>377</ele>
        <time>2015-03-22T10:25:04.000Z</time>
      </trkpt>
      <trkpt lat="47.52103" lon="6.6681">
        <ele>377</ele>
        <time>2015-03-22T10:25:05.000Z</time>
      </trkpt>
      <trkpt lat="47.52103" lon="6.66818">
        <ele>376</ele>
        <time>2015-03-22T10:25:06.000Z</time>
      </trkpt>
      <trkpt lat="47.52103" lon="6.66825">
        <ele>376</ele>
        <time>2015-03-22T10:25:07.000Z</time>
      </trkpt>
      <trkpt lat="47.52103" lon="6.66834">
        <ele>376</ele>
        <time>2015-03-22T10:25:08.000Z</time>
      </trkpt>
      <trkpt lat="47.52104" lon="6.66842">
        <ele>376</ele>
        <time>2015-03-22T10:25:09.000Z</time>
      </trkpt>
      <trkpt lat="47.52105" lon="6.6685">
        <ele>376</ele>
        <time>2015-03-22T10:25:10.000Z</time>
      </trkpt>
      <trkpt lat="47.52104" lon="6.66858">
        <ele>376</ele>
        <time>2015-03-22T10:25:11.000Z</time>
      </trkpt>
      <trkpt lat="47.52105" lon="6.66867">
        <ele>376</ele>
        <time>2015-03-22T10:25:12.000Z</time>
      </trkpt>
      <trkpt lat="47.52105" lon="6.66875">
        <ele>376</ele>
        <time>2015-03-22T10:25:13.000Z</time>
      </trkpt>
      <trkpt lat="47.52104" lon="6.66882">
        <ele>376</ele>
        <time>2015-03-22T10:25:14.000Z</time>
      </trkpt>
      <trkpt lat="47.52105" lon="6.6689">
        <ele>376</ele>
        <time>2015-03-22T10:25:15.000Z</time>
      </trkpt>
      <trkpt lat="47.52105" lon="6.66897">
        <ele>376</ele>
        <time>2015-03-22T10:25:16.000Z</time>
      </trkpt>
      <trkpt lat="47.52106" lon="6.66905">
        <ele>376</ele>
        <time>2015-03-22T10:25:17.000Z</time>
      </trkpt>
      <trkpt lat="47.52106" lon="6.66912">
        <ele>376</ele>
        <time>2015-03-22T10:25:18.000Z</time>
      </trkpt>
      <trkpt lat="47.52107" lon="6.6692">
        <ele>375</ele>
        <time>2015-03-22T10:25:19.000Z</time>
      </trkpt>
      <trkpt lat="47.52108" lon="6.66927">
        <ele>375</ele>
        <time>2015-03-22T10:25:20.000Z</time>
      </trkpt>
      <trkpt lat="47.52108" lon="6.66936">
        <ele>375</ele>
        <time>2015-03-22T10:25:21.000Z</time>
      </trkpt>
      <trkpt lat="47.52107" lon="6.66941">
        <ele>375</ele>
        <time>2015-03-22T10:25:22.000Z</time>
      </trkpt>
      <trkpt lat="47.52107" lon="6.6695">
        <ele>375</ele>
        <time>2015-03-22T10:25:23.000Z</time>
      </trkpt>
      <trkpt lat="47.52108" lon="6.66957">
        <ele>375</ele>
        <time>2015-03-22T10:25:24.000Z</time>
      </trkpt>
      <trkpt lat="47.52108" lon="6.66965">
        <ele>375</ele>
        <time>2015-03-22T10:25:25.000Z</time>
      </trkpt>
      <trkpt lat="47.52108" lon="6.66973">
        <ele>375</ele>
        <time>2015-03-22T10:25:26.000Z</time>
      </trkpt>
      <trkpt lat="47.52109" lon="6.66981">
        <ele>375</ele>
        <time>2015-03-22T10:25:27.000Z</time>
      </trkpt>
      <trkpt lat="47.5211" lon="6.66988">
        <ele>375</ele>
        <time>2015-03-22T10:25:28.000Z</time>
      </trkpt>
      <trkpt lat="47.52112" lon="6.66995">
        <ele>375</ele>
        <time>2015-03-22T10:25:29.000Z</time>
      </trkpt>
      <trkpt lat="47.52114" lon="6.67004">
        <ele>374</ele>
        <time>2015-03-22T10:25:30.000Z</time>
      </trkpt>
      <trkpt lat="47.52116" lon="6.6701">
        <ele>374</ele>
        <time>2015-03-22T10:25:31.000Z</time>
      </trkpt>
      <trkpt lat="47.52117" lon="6.67016">
        <ele>374</ele>
        <time>2015-03-22T10:25:32.000Z</time>
      </trkpt>
      <trkpt lat="47.52119" lon="6.67024">
        <ele>374</ele>
        <time>2015-03-22T10:25:33.000Z</time>
      </trkpt>
      <trkpt lat="47.5212" lon="6.67031">
        <ele>374</ele>
        <time>2015-03-22T10:25:34.000Z</time>
      </trkpt>
      <trkpt lat="47.52121" lon="6.67037">
        <ele>374</ele>
        <time>2015-03-22T10:25:35.000Z</time>
      </trkpt>
      <trkpt lat="47.52123" lon="6.67044">
        <ele>374</ele>
        <time>2015-03-22T10:25:36.000Z</time>
      </trkpt>
      <trkpt lat="47.52124" lon="6.67053">
        <ele>374</ele>
        <time>2015-03-22T10:25:37.000Z</time>
      </trkpt>
      <trkpt lat="47.52126" lon="6.6706">
        <ele>374</ele>
        <time>2015-03-22T10:25:37.999Z</time>
      </trkpt>
      <trkpt lat="47.52128" lon="6.67068">
        <ele>374</ele>
        <time>2015-03-22T10:25:39.000Z</time>
      </trkpt>
      <trkpt lat="47.52129" lon="6.67075">
        <ele>373</ele>
        <time>2015-03-22T10:25:40.000Z</time>
      </trkpt>
      <trkpt lat="47.52131" lon="6.67082">
        <ele>373</ele>
        <time>2015-03-22T10:25:41.000Z</time>
      </trkpt>
      <trkpt lat="47.52132" lon="6.6709">
        <ele>373</ele>
        <time>2015-03-22T10:25:42.000Z</time>
      </trkpt>
      <trkpt lat="47.52133" lon="6.67096">
        <ele>373</ele>
        <time>2015-03-22T10:25:43.000Z</time>
      </trkpt>
      <trkpt lat="47.52135" lon="6.67103">
        <ele>372</ele>
        <time>2015-03-22T10:25:44.000Z</time>
      </trkpt>
      <trkpt lat="47.52136" lon="6.67111">
        <ele>372</ele>
        <time>2015-03-22T10:25:45.000Z</time>
      </trkpt>
      <trkpt lat="47.52137" lon="6.67119">
        <ele>372</ele>
        <time>2015-03-22T10:25:46.000Z</time>
      </trkpt>
      <trkpt lat="47.52139" lon="6.67126">
        <ele>372</ele>
        <time>2015-03-22T10:25:47.000Z</time>
      </trkpt>
      <trkpt lat="47.5214" lon="6.67134">
        <ele>372</ele>
        <time>2015-03-22T10:25:48.000Z</time>
      </trkpt>
      <trkpt lat="47.52141" lon="6.67141">
        <ele>372</ele>
        <time>2015-03-22T10:25:49.000Z</time>
      </trkpt>
      <trkpt lat="47.52143" lon="6.67149">
        <ele>372</ele>
        <time>2015-03-22T10:25:50.000Z</time>
      </trkpt>
      <trkpt lat="47.52145" lon="6.67157">
        <ele>372</ele>
        <time>2015-03-22T10:25:51.000Z</time>
      </trkpt>
      <trkpt lat="47.52147" lon="6.67165">
        <ele>372</ele>
        <time>2015-03-22T10:25:52.000Z</time>
      </trkpt>
      <trkpt lat="47.52148" lon="6.67173">
        <ele>372</ele>
        <time>2015-03-22T10:25:53.000Z</time>
      </trkpt>
      <trkpt lat="47.52149" lon="6.6718">
        <ele>372</ele>
        <time>2015-03-22T10:25:54.000Z</time>
      </trkpt>
      <trkpt lat="47.52151" lon="6.67187">
        <ele>372</ele>
        <time>2015-03-22T10:25:55.000Z</time>
      </trkpt>
      <trkpt lat="47.52152" lon="6.67195">
        <ele>372</ele>
        <time>2015-03-22T10:25:56.000Z</time>
      </trkpt>
      <trkpt lat="47.52154" lon="6.67201">
        <ele>371</ele>
        <time>2015-03-22T10:25:57.000Z</time>
      </trkpt>
      <trkpt lat="47.52155" lon="6.67209">
        <ele>371</ele>
        <time>2015-03-22T10:25:58.000Z</time>
      </trkpt>
      <trkpt lat="47.52157" lon="6.67218">
        <ele>372</ele>
        <time>2015-03-22T10:25:59.000Z</time>
      </trkpt>
      <trkpt lat="47.52159" lon="6.67226">
        <ele>372</ele>
        <time>2015-03-22T10:26:00.000Z</time>
      </trkpt>
      <trkpt lat="47.5216" lon="6.67233">
        <ele>372</ele>
        <time>2015-03-22T10:26:01.000Z</time>
      </trkpt>
      <trkpt lat="47.52161" lon="6.6724">
        <ele>372</ele>
        <time>2015-03-22T10:26:02.000Z</time>
      </trkpt>
      <trkpt lat="47.52163" lon="6.67247">
        <ele>372</ele>
        <time>2015-03-22T10:26:03.000Z</time>
      </trkpt>
      <trkpt lat="47.52164" lon="6.67254">
        <ele>372</ele>
        <time>2015-03-22T10:26:04.000Z</time>
      </trkpt>
      <trkpt lat="47.52165" lon="6.67261">
        <ele>372</ele>
        <time>2015-03-22T10:26:05.000Z</time>
      </trkpt>
      <trkpt lat="47.52166" lon="6.67267">
        <ele>372</ele>
        <time>2015-03-22T10:26:06.000Z</time>
      </trkpt>
      <trkpt lat="47.52166" lon="6.67275">
        <ele>371</ele>
        <time>2015-03-22T10:26:07.000Z</time>
      </trkpt>
      <trkpt lat="47.52166" lon="6.67281">
        <ele>371</ele>
        <time>2015-03-22T10:26:08.000Z</time>
      </trkpt>
      <trkpt lat="47.52167" lon="6.67291">
        <ele>372</ele>
        <time>2015-03-22T10:26:09.000Z</time>
      </trkpt>
      <trkpt lat="47.52167" lon="6.67299">
        <ele>372</ele>
        <time>2015-03-22T10:26:10.000Z</time>
      </trkpt>
      <trkpt lat="47.52168" lon="6.67305">
        <ele>372</ele>
        <time>2015-03-22T10:26:11.000Z</time>
      </trkpt>
      <trkpt lat="47.52168" lon="6.67313">
        <ele>372</ele>
        <time>2015-03-22T10:26:12.000Z</time>
      </trkpt>
      <trkpt lat="47.52168" lon="6.67322">
        <ele>372</ele>
        <time>2015-03-22T10:26:13.000Z</time>
      </trkpt>
      <trkpt lat="47.52169" lon="6.67331">
        <ele>372</ele>
        <time>2015-03-22T10:26:14.000Z</time>
      </trkpt>
      <trkpt lat="47.52169" lon="6.67339">
        <ele>372</ele>
        <time>2015-03-22T10:26:14.999Z</time>
      </trkpt>
      <trkpt lat="47.5217" lon="6.67347">
        <ele>372</ele>
        <time>2015-03-22T10:26:16.001Z</time>
      </trkpt>
      <trkpt lat="47.52171" lon="6.67356">
        <ele>372</ele>
        <time>2015-03-22T10:26:17.000Z</time>
      </trkpt>
      <trkpt lat="47.52172" lon="6.67362">
        <ele>372</ele>
        <time>2015-03-22T10:26:18.000Z</time>
      </trkpt>
      <trkpt lat="47.52174" lon="6.67371">
        <ele>372</ele>
        <time>2015-03-22T10:26:19.000Z</time>
      </trkpt>
      <trkpt lat="47.52175" lon="6.6738">
        <ele>372</ele>
        <time>2015-03-22T10:26:20.000Z</time>
      </trkpt>
      <trkpt lat="47.52177" lon="6.67388">
        <ele>372</ele>
        <time>2015-03-22T10:26:21.000Z</time>
      </trkpt>
      <trkpt lat="47.5218" lon="6.67395">
        <ele>372</ele>
        <time>2015-03-22T10:26:22.000Z</time>
      </trkpt>
      <trkpt lat="47.52183" lon="6.674">
        <ele>371</ele>
        <time>2015-03-22T10:26:23.000Z</time>
      </trkpt>
      <trkpt lat="47.52184" lon="6.67406">
        <ele>371</ele>
        <time>2015-03-22T10:26:24.000Z</time>
      </trkpt>
      <trkpt lat="47.52187" lon="6.67411">
        <ele>371</ele>
        <time>2015-03-22T10:26:25.000Z</time>
      </trkpt>
      <trkpt lat="47.52189" lon="6.67418">
        <ele>371</ele>
        <time>2015-03-22T10:26:26.000Z</time>
      </trkpt>
      <trkpt lat="47.52191" lon="6.67425">
        <ele>371</ele>
        <time>2015-03-22T10:26:27.000Z</time>
      </trkpt>
      <trkpt lat="47.52193" lon="6.67432">
        <ele>371</ele>
        <time>2015-03-22T10:26:28.000Z</time>
      </trkpt>
      <trkpt lat="47.52195" lon="6.67439">
        <ele>371</ele>
        <time>2015-03-22T10:26:29.000Z</time>
      </trkpt>
      <trkpt lat="47.52198" lon="6.67445">
        <ele>371</ele>
        <time>2015-03-22T10:26:30.000Z</time>
      </trkpt>
      <trkpt lat="47.522" lon="6.67451">
        <ele>371</ele>
        <time>2015-03-22T10:26:31.000Z</time>
      </trkpt>
      <trkpt lat="47.52201" lon="6.67459">
        <ele>371</ele>
        <time>2015-03-22T10:26:32.000Z</time>
      </trkpt>
      <trkpt lat="47.52203" lon="6.67466">
        <ele>371</ele>
        <time>2015-03-22T10:26:33.000Z</time>
      </trkpt>
      <trkpt lat="47.52203" lon="6.67472">
        <ele>371</ele>
        <time>2015-03-22T10:26:34.000Z</time>
      </trkpt>
      <trkpt lat="47.52204" lon="6.67477">
        <ele>371</ele>
        <time>2015-03-22T10:26:34.999Z</time>
      </trkpt>
      <trkpt lat="47.52203" lon="6.67487">
        <ele>371</ele>
        <time>2015-03-22T10:26:36.000Z</time>
      </trkpt>
      <trkpt lat="47.52204" lon="6.67495">
        <ele>371</ele>
        <time>2015-03-22T10:26:37.000Z</time>
      </trkpt>
      <trkpt lat="47.52204" lon="6.67502">
        <ele>371</ele>
        <time>2015-03-22T10:26:38.000Z</time>
      </trkpt>
      <trkpt lat="47.52204" lon="6.6751">
        <ele>371</ele>
        <time>2015-03-22T10:26:39.000Z</time>
      </trkpt>
      <trkpt lat="47.52204" lon="6.67518">
        <ele>371</ele>
        <time>2015-03-22T10:26:40.000Z</time>
      </trkpt>
      <trkpt lat="47.52204" lon="6.67525">
        <ele>371</ele>
        <time>2015-03-22T10:26:41.000Z</time>
      </trkpt>
      <trkpt lat="47.52204" lon="6.67533">
        <ele>371</ele>
        <time>2015-03-22T10:26:42.000Z</time>
      </trkpt>
      <trkpt lat="47.52203" lon="6.6754">
        <ele>371</ele>
        <time>2015-03-22T10:26:43.000Z</time>
      </trkpt>
      <trkpt lat="47.52201" lon="6.67548">
        <ele>371</ele>
        <time>2015-03-22T10:26:44.000Z</time>
      </trkpt>
      <trkpt lat="47.52201" lon="6.67555">
        <ele>371</ele>
        <time>2015-03-22T10:26:45.000Z</time>
      </trkpt>
      <trkpt lat="47.52201" lon="6.67562">
        <ele>371</ele>
        <time>2015-03-22T10:26:46.000Z</time>
      </trkpt>
      <trkpt lat="47.52201" lon="6.6757">
        <ele>371</ele>
        <time>2015-03-22T10:26:47.000Z</time>
      </trkpt>
      <trkpt lat="47.52202" lon="6.67576">
        <ele>370</ele>
        <time>2015-03-22T10:26:48.000Z</time>
      </trkpt>
      <trkpt lat="47.52202" lon="6.67584">
        <ele>369</ele>
        <time>2015-03-22T10:26:49.000Z</time>
      </trkpt>
      <trkpt lat="47.52202" lon="6.67592">
        <ele>369</ele>
        <time>2015-03-22T10:26:50.000Z</time>
      </trkpt>
      <trkpt lat="47.52202" lon="6.67598">
        <ele>369</ele>
        <time>2015-03-22T10:26:51.000Z</time>
      </trkpt>
      <trkpt lat="47.52202" lon="6.67607">
        <ele>369</ele>
        <time>2015-03-22T10:26:52.000Z</time>
      </trkpt>
      <trkpt lat="47.52202" lon="6.67615">
        <ele>369</ele>
        <time>2015-03-22T10:26:53.000Z</time>
      </trkpt>
      <trkpt lat="47.52201" lon="6.67624">
        <ele>369</ele>
        <time>2015-03-22T10:26:54.000Z</time>
      </trkpt>
      <trkpt lat="47.52201" lon="6.67633">
        <ele>369</ele>
        <time>2015-03-22T10:26:55.000Z</time>
      </trkpt>
      <trkpt lat="47.52201" lon="6.67641">
        <ele>368</ele>
        <time>2015-03-22T10:26:56.000Z</time>
      </trkpt>
      <trkpt lat="47.52201" lon="6.67649">
        <ele>368</ele>
        <time>2015-03-22T10:26:57.000Z</time>
      </trkpt>
      <trkpt lat="47.52202" lon="6.67657">
        <ele>368</ele>
        <time>2015-03-22T10:26:58.000Z</time>
      </trkpt>
      <trkpt lat="47.52201" lon="6.67665">
        <ele>368</ele>
        <time>2015-03-22T10:26:59.000Z</time>
      </trkpt>
      <trkpt lat="47.522" lon="6.67673">
        <ele>367</ele>
        <time>2015-03-22T10:27:00.000Z</time>
      </trkpt>
      <trkpt lat="47.522" lon="6.67681">
        <ele>367</ele>
        <time>2015-03-22T10:27:01.000Z</time>
      </trkpt>
      <trkpt lat="47.52199" lon="6.677">
        <ele>367</ele>
        <time>2015-03-22T10:27:03.000Z</time>
      </trkpt>
      <trkpt lat="47.52198" lon="6.6771">
        <ele>367</ele>
        <time>2015-03-22T10:27:04.000Z</time>
      </trkpt>
      <trkpt lat="47.52198" lon="6.67718">
        <ele>367</ele>
        <time>2015-03-22T10:27:05.000Z</time>
      </trkpt>
      <trkpt lat="47.52197" lon="6.67727">
        <ele>367</ele>
        <time>2015-03-22T10:27:06.000Z</time>
      </trkpt>
      <trkpt lat="47.52197" lon="6.67736">
        <ele>367</ele>
        <time>2015-03-22T10:27:07.000Z</time>
      </trkpt>
      <trkpt lat="47.52196" lon="6.67744">
        <ele>367</ele>
        <time>2015-03-22T10:27:08.000Z</time>
      </trkpt>
      <trkpt lat="47.52196" lon="6.67752">
        <ele>366</ele>
        <time>2015-03-22T10:27:09.000Z</time>
      </trkpt>
      <trkpt lat="47.52195" lon="6.67761">
        <ele>366</ele>
        <time>2015-03-22T10:27:10.000Z</time>
      </trkpt>
      <trkpt lat="47.52195" lon="6.6777">
        <ele>366</ele>
        <time>2015-03-22T10:27:11.000Z</time>
      </trkpt>
      <trkpt lat="47.52194" lon="6.67777">
        <ele>366</ele>
        <time>2015-03-22T10:27:12.000Z</time>
      </trkpt>
      <trkpt lat="47.52194" lon="6.67785">
        <ele>366</ele>
        <time>2015-03-22T10:27:13.000Z</time>
      </trkpt>
      <trkpt lat="47.52193" lon="6.67793">
        <ele>366</ele>
        <time>2015-03-22T10:27:14.000Z</time>
      </trkpt>
      <trkpt lat="47.52193" lon="6.67799">
        <ele>366</ele>
        <time>2015-03-22T10:27:15.000Z</time>
      </trkpt>
      <trkpt lat="47.52191" lon="6.67807">
        <ele>366</ele>
        <time>2015-03-22T10:27:16.000Z</time>
      </trkpt>
      <trkpt lat="47.5219" lon="6.67817">
        <ele>366</ele>
        <time>2015-03-22T10:27:17.000Z</time>
      </trkpt>
      <trkpt lat="47.5219" lon="6.67824">
        <ele>365</ele>
        <time>2015-03-22T10:27:18.000Z</time>
      </trkpt>
      <trkpt lat="47.52189" lon="6.67833">
        <ele>365</ele>
        <time>2015-03-22T10:27:19.000Z</time>
      </trkpt>
      <trkpt lat="47.52189" lon="6.67842">
        <ele>365</ele>
        <time>2015-03-22T10:27:20.000Z</time>
      </trkpt>
      <trkpt lat="47.52189" lon="6.67849">
        <ele>365</ele>
        <time>2015-03-22T10:27:21.000Z</time>
      </trkpt>
      <trkpt lat="47.52189" lon="6.67855">
        <ele>365</ele>
        <time>2015-03-22T10:27:22.000Z</time>
      </trkpt>
      <trkpt lat="47.52189" lon="6.67863">
        <ele>365</ele>
        <time>2015-03-22T10:27:23.000Z</time>
      </trkpt>
      <trkpt lat="47.52189" lon="6.67872">
        <ele>365</ele>
        <time>2015-03-22T10:27:24.000Z</time>
      </trkpt>
      <trkpt lat="47.52187" lon="6.6788">
        <ele>364</ele>
        <time>2015-03-22T10:27:25.000Z</time>
      </trkpt>
      <trkpt lat="47.52186" lon="6.67888">
        <ele>364</ele>
        <time>2015-03-22T10:27:26.000Z</time>
      </trkpt>
      <trkpt lat="47.52185" lon="6.67896">
        <ele>364</ele>
        <time>2015-03-22T10:27:27.000Z</time>
      </trkpt>
      <trkpt lat="47.52184" lon="6.67904">
        <ele>364</ele>
        <time>2015-03-22T10:27:28.000Z</time>
      </trkpt>
      <trkpt lat="47.52185" lon="6.67912">
        <ele>364</ele>
        <time>2015-03-22T10:27:29.000Z</time>
      </trkpt>
      <trkpt lat="47.52184" lon="6.6792">
        <ele>364</ele>
        <time>2015-03-22T10:27:30.000Z</time>
      </trkpt>
      <trkpt lat="47.52183" lon="6.67928">
        <ele>364</ele>
        <time>2015-03-22T10:27:31.000Z</time>
      </trkpt>
      <trkpt lat="47.52182" lon="6.67936">
        <ele>364</ele>
        <time>2015-03-22T10:27:32.000Z</time>
      </trkpt>
      <trkpt lat="47.52181" lon="6.67943">
        <ele>364</ele>
        <time>2015-03-22T10:27:33.000Z</time>
      </trkpt>
      <trkpt lat="47.5218" lon="6.67951">
        <ele>364</ele>
        <time>2015-03-22T10:27:34.000Z</time>
      </trkpt>
      <trkpt lat="47.5218" lon="6.67959">
        <ele>363</ele>
        <time>2015-03-22T10:27:35.000Z</time>
      </trkpt>
      <trkpt lat="47.5218" lon="6.67968">
        <ele>363</ele>
        <time>2015-03-22T10:27:36.000Z</time>
      </trkpt>
      <trkpt lat="47.52179" lon="6.67977">
        <ele>363</ele>
        <time>2015-03-22T10:27:37.000Z</time>
      </trkpt>
      <trkpt lat="47.52178" lon="6.67985">
        <ele>363</ele>
        <time>2015-03-22T10:27:38.000Z</time>
      </trkpt>
      <trkpt lat="47.52178" lon="6.67993">
        <ele>363</ele>
        <time>2015-03-22T10:27:39.000Z</time>
      </trkpt>
      <trkpt lat="47.52177" lon="6.67999">
        <ele>363</ele>
        <time>2015-03-22T10:27:40.000Z</time>
      </trkpt>
      <trkpt lat="47.52176" lon="6.68008">
        <ele>363</ele>
        <time>2015-03-22T10:27:41.000Z</time>
      </trkpt>
      <trkpt lat="47.52175" lon="6.68015">
        <ele>363</ele>
        <time>2015-03-22T10:27:42.000Z</time>
      </trkpt>
      <trkpt lat="47.52174" lon="6.68021">
        <ele>363</ele>
        <time>2015-03-22T10:27:43.000Z</time>
      </trkpt>
      <trkpt lat="47.52174" lon="6.68029">
        <ele>363</ele>
        <time>2015-03-22T10:27:44.000Z</time>
      </trkpt>
      <trkpt lat="47.52174" lon="6.68036">
        <ele>363</ele>
        <time>2015-03-22T10:27:45.000Z</time>
      </trkpt>
      <trkpt lat="47.52173" lon="6.68043">
        <ele>362</ele>
        <time>2015-03-22T10:27:46.000Z</time>
      </trkpt>
      <trkpt lat="47.52172" lon="6.68051">
        <ele>362</ele>
        <time>2015-03-22T10:27:47.000Z</time>
      </trkpt>
      <trkpt lat="47.52172" lon="6.68057">
        <ele>362</ele>
        <time>2015-03-22T10:27:48.000Z</time>
      </trkpt>
      <trkpt lat="47.52171" lon="6.68064">
        <ele>362</ele>
        <time>2015-03-22T10:27:49.000Z</time>
      </trkpt>
      <trkpt lat="47.52171" lon="6.68071">
        <ele>362</ele>
        <time>2015-03-22T10:27:50.000Z</time>
      </trkpt>
      <trkpt lat="47.52171" lon="6.68079">
        <ele>362</ele>
        <time>2015-03-22T10:27:51.000Z</time>
      </trkpt>
      <trkpt lat="47.5217" lon="6.68086">
        <ele>362</ele>
        <time>2015-03-22T10:27:52.000Z</time>
      </trkpt>
      <trkpt lat="47.5217" lon="6.68093">
        <ele>362</ele>
        <time>2015-03-22T10:27:53.000Z</time>
      </trkpt>
      <trkpt lat="47.5217" lon="6.68098">
        <ele>362</ele>
        <time>2015-03-22T10:27:54.000Z</time>
      </trkpt>
      <trkpt lat="47.5217" lon="6.68104">
        <ele>361</ele>
        <time>2015-03-22T10:27:55.000Z</time>
      </trkpt>
      <trkpt lat="47.52169" lon="6.68111">
        <ele>361</ele>
        <time>2015-03-22T10:27:56.000Z</time>
      </trkpt>
      <trkpt lat="47.52169" lon="6.68117">
        <ele>361</ele>
        <time>2015-03-22T10:27:57.000Z</time>
      </trkpt>
      <trkpt lat="47.52166" lon="6.68124">
        <ele>361</ele>
        <time>2015-03-22T10:27:58.000Z</time>
      </trkpt>
      <trkpt lat="47.52163" lon="6.68129">
        <ele>361</ele>
        <time>2015-03-22T10:27:59.000Z</time>
      </trkpt>
      <trkpt lat="47.52162" lon="6.68136">
        <ele>361</ele>
        <time>2015-03-22T10:28:00.000Z</time>
      </trkpt>
      <trkpt lat="47.52161" lon="6.68145">
        <ele>361</ele>
        <time>2015-03-22T10:28:01.000Z</time>
      </trkpt>
      <trkpt lat="47.52161" lon="6.68152">
        <ele>361</ele>
        <time>2015-03-22T10:28:02.000Z</time>
      </trkpt>
      <trkpt lat="47.52161" lon="6.68162">
        <ele>360</ele>
        <time>2015-03-22T10:28:03.000Z</time>
      </trkpt>
      <trkpt lat="47.52161" lon="6.68173">
        <ele>360</ele>
        <time>2015-03-22T10:28:04.000Z</time>
      </trkpt>
      <trkpt lat="47.52161" lon="6.68183">
        <ele>360</ele>
        <time>2015-03-22T10:28:05.000Z</time>
      </trkpt>
      <trkpt lat="47.52161" lon="6.68192">
        <ele>360</ele>
        <time>2015-03-22T10:28:06.000Z</time>
      </trkpt>
      <trkpt lat="47.52162" lon="6.68201">
        <ele>360</ele>
        <time>2015-03-22T10:28:07.000Z</time>
      </trkpt>
      <trkpt lat="47.52162" lon="6.68211">
        <ele>360</ele>
        <time>2015-03-22T10:28:08.000Z</time>
      </trkpt>
      <trkpt lat="47.52163" lon="6.68221">
        <ele>360</ele>
        <time>2015-03-22T10:28:09.000Z</time>
      </trkpt>
      <trkpt lat="47.52165" lon="6.68232">
        <ele>360</ele>
        <time>2015-03-22T10:28:10.000Z</time>
      </trkpt>
      <trkpt lat="47.52167" lon="6.68242">
        <ele>359</ele>
        <time>2015-03-22T10:28:11.000Z</time>
      </trkpt>
      <trkpt lat="47.5217" lon="6.68251">
        <ele>359</ele>
        <time>2015-03-22T10:28:12.000Z</time>
      </trkpt>
      <trkpt lat="47.52172" lon="6.68261">
        <ele>359</ele>
        <time>2015-03-22T10:28:13.000Z</time>
      </trkpt>
      <trkpt lat="47.52175" lon="6.6827">
        <ele>359</ele>
        <time>2015-03-22T10:28:14.000Z</time>
      </trkpt>
      <trkpt lat="47.52176" lon="6.68278">
        <ele>359</ele>
        <time>2015-03-22T10:28:15.000Z</time>
      </trkpt>
      <trkpt lat="47.52178" lon="6.68283">
        <ele>359</ele>
        <time>2015-03-22T10:28:16.000Z</time>
      </trkpt>
      <trkpt lat="47.52178" lon="6.68292">
        <ele>359</ele>
        <time>2015-03-22T10:28:17.000Z</time>
      </trkpt>
      <trkpt lat="47.52179" lon="6.683">
        <ele>359</ele>
        <time>2015-03-22T10:28:18.000Z</time>
      </trkpt>
      <trkpt lat="47.5218" lon="6.68305">
        <ele>359</ele>
        <time>2015-03-22T10:28:19.000Z</time>
      </trkpt>
      <trkpt lat="47.52181" lon="6.68311">
        <ele>359</ele>
        <time>2015-03-22T10:28:20.000Z</time>
      </trkpt>
      <trkpt lat="47.52182" lon="6.68317">
        <ele>359</ele>
        <time>2015-03-22T10:28:21.000Z</time>
      </trkpt>
      <trkpt lat="47.52183" lon="6.68322">
        <ele>359</ele>
        <time>2015-03-22T10:28:22.000Z</time>
      </trkpt>
      <trkpt lat="47.52184" lon="6.68328">
        <ele>359</ele>
        <time>2015-03-22T10:28:23.000Z</time>
      </trkpt>
      <trkpt lat="47.52186" lon="6.68333">
        <ele>359</ele>
        <time>2015-03-22T10:28:24.000Z</time>
      </trkpt>
      <trkpt lat="47.52188" lon="6.68337">
        <ele>359</ele>
        <time>2015-03-22T10:28:25.000Z</time>
      </trkpt>
      <trkpt lat="47.52189" lon="6.68342">
        <ele>359</ele>
        <time>2015-03-22T10:28:26.000Z</time>
      </trkpt>
      <trkpt lat="47.52189" lon="6.68348">
        <ele>359</ele>
        <time>2015-03-22T10:28:27.000Z</time>
      </trkpt>
      <trkpt lat="47.5219" lon="6.68353">
        <ele>359</ele>
        <time>2015-03-22T10:28:28.000Z</time>
      </trkpt>
      <trkpt lat="47.52191" lon="6.68358">
        <ele>359</ele>
        <time>2015-03-22T10:28:29.000Z</time>
      </trkpt>
      <trkpt lat="47.52193" lon="6.68366">
        <ele>359</ele>
        <time>2015-03-22T10:28:30.000Z</time>
      </trkpt>
      <trkpt lat="47.52195" lon="6.68372">
        <ele>359</ele>
        <time>2015-03-22T10:28:31.000Z</time>
      </trkpt>
      <trkpt lat="47.52194" lon="6.68378">
        <ele>359</ele>
        <time>2015-03-22T10:28:32.000Z</time>
      </trkpt>
      <trkpt lat="47.52195" lon="6.68385">
        <ele>359</ele>
        <time>2015-03-22T10:28:33.000Z</time>
      </trkpt>
      <trkpt lat="47.52198" lon="6.68391">
        <ele>359</ele>
        <time>2015-03-22T10:28:34.000Z</time>
      </trkpt>
      <trkpt lat="47.52199" lon="6.68398">
        <ele>359</ele>
        <time>2015-03-22T10:28:35.000Z</time>
      </trkpt>
      <trkpt lat="47.522" lon="6.68405">
        <ele>359</ele>
        <time>2015-03-22T10:28:36.000Z</time>
      </trkpt>
      <trkpt lat="47.52201" lon="6.68412">
        <ele>359</ele>
        <time>2015-03-22T10:28:37.000Z</time>
      </trkpt>
      <trkpt lat="47.52202" lon="6.68418">
        <ele>358</ele>
        <time>2015-03-22T10:28:38.000Z</time>
      </trkpt>
      <trkpt lat="47.52204" lon="6.68425">
        <ele>358</ele>
        <time>2015-03-22T10:28:39.000Z</time>
      </trkpt>
      <trkpt lat="47.52206" lon="6.68428">
        <ele>358</ele>
        <time>2015-03-22T10:28:40.000Z</time>
      </trkpt>
      <trkpt lat="47.52207" lon="6.68435">
        <ele>358</ele>
        <time>2015-03-22T10:28:41.000Z</time>
      </trkpt>
      <trkpt lat="47.52208" lon="6.68442">
        <ele>358</ele>
        <time>2015-03-22T10:28:42.000Z</time>
      </trkpt>
      <trkpt lat="47.52209" lon="6.68449">
        <ele>359</ele>
        <time>2015-03-22T10:28:42.999Z</time>
      </trkpt>
      <trkpt lat="47.52211" lon="6.68456">
        <ele>359</ele>
        <time>2015-03-22T10:28:44.000Z</time>
      </trkpt>
      <trkpt lat="47.52213" lon="6.68463">
        <ele>359</ele>
        <time>2015-03-22T10:28:45.000Z</time>
      </trkpt>
      <trkpt lat="47.52214" lon="6.6847">
        <ele>359</ele>
        <time>2015-03-22T10:28:46.000Z</time>
      </trkpt>
      <trkpt lat="47.52216" lon="6.68477">
        <ele>359</ele>
        <time>2015-03-22T10:28:47.000Z</time>
      </trkpt>
      <trkpt lat="47.52218" lon="6.68483">
        <ele>359</ele>
        <time>2015-03-22T10:28:48.000Z</time>
      </trkpt>
      <trkpt lat="47.52219" lon="6.68489">
        <ele>359</ele>
        <time>2015-03-22T10:28:49.000Z</time>
      </trkpt>
      <trkpt lat="47.52221" lon="6.68495">
        <ele>359</ele>
        <time>2015-03-22T10:28:50.000Z</time>
      </trkpt>
      <trkpt lat="47.52223" lon="6.68502">
        <ele>360</ele>
        <time>2015-03-22T10:28:51.000Z</time>
      </trkpt>
      <trkpt lat="47.52225" lon="6.68508">
        <ele>360</ele>
        <time>2015-03-22T10:28:52.000Z</time>
      </trkpt>
      <trkpt lat="47.52226" lon="6.68513">
        <ele>360</ele>
        <time>2015-03-22T10:28:53.000Z</time>
      </trkpt>
      <trkpt lat="47.52228" lon="6.68518">
        <ele>360</ele>
        <time>2015-03-22T10:28:54.000Z</time>
      </trkpt>
      <trkpt lat="47.5223" lon="6.68525">
        <ele>360</ele>
        <time>2015-03-22T10:28:55.000Z</time>
      </trkpt>
      <trkpt lat="47.52232" lon="6.68531">
        <ele>360</ele>
        <time>2015-03-22T10:28:56.000Z</time>
      </trkpt>
      <trkpt lat="47.52234" lon="6.68535">
        <ele>360</ele>
        <time>2015-03-22T10:28:57.000Z</time>
      </trkpt>
      <trkpt lat="47.52237" lon="6.68541">
        <ele>360</ele>
        <time>2015-03-22T10:28:58.000Z</time>
      </trkpt>
      <trkpt lat="47.5224" lon="6.68544">
        <ele>360</ele>
        <time>2015-03-22T10:28:59.000Z</time>
      </trkpt>
      <trkpt lat="47.52243" lon="6.68545">
        <ele>360</ele>
        <time>2015-03-22T10:29:00.000Z</time>
      </trkpt>
      <trkpt lat="47.52246" lon="6.68549">
        <ele>361</ele>
        <time>2015-03-22T10:29:01.000Z</time>
      </trkpt>
      <trkpt lat="47.52252" lon="6.68557">
        <ele>364</ele>
        <time>2015-03-22T10:29:03.000Z</time>
      </trkpt>
      <trkpt lat="47.52255" lon="6.6856">
        <ele>364</ele>
        <time>2015-03-22T10:29:04.000Z</time>
      </trkpt>
      <trkpt lat="47.52258" lon="6.68564">
        <ele>364</ele>
        <time>2015-03-22T10:29:05.000Z</time>
      </trkpt>
      <trkpt lat="47.52261" lon="6.68567">
        <ele>364</ele>
        <time>2015-03-22T10:29:06.000Z</time>
      </trkpt>
      <trkpt lat="47.52263" lon="6.68568">
        <ele>364</ele>
        <time>2015-03-22T10:29:07.000Z</time>
      </trkpt>
      <trkpt lat="47.52266" lon="6.6857">
        <ele>365</ele>
        <time>2015-03-22T10:29:08.000Z</time>
      </trkpt>
      <trkpt lat="47.52269" lon="6.6857">
        <ele>365</ele>
        <time>2015-03-22T10:29:09.000Z</time>
      </trkpt>
      <trkpt lat="47.52272" lon="6.68571">
        <ele>365</ele>
        <time>2015-03-22T10:29:11.000Z</time>
      </trkpt>
      <trkpt lat="47.52273" lon="6.68571">
        <ele>365</ele>
        <time>2015-03-22T10:29:12.000Z</time>
      </trkpt>
      <trkpt lat="47.52276" lon="6.68571">
        <ele>365</ele>
        <time>2015-03-22T10:29:14.000Z</time>
      </trkpt>
      <trkpt lat="47.52278" lon="6.68571">
        <ele>365</ele>
        <time>2015-03-22T10:29:15.000Z</time>
      </trkpt>
      <trkpt lat="47.5228" lon="6.6857">
        <ele>365</ele>
        <time>2015-03-22T10:29:16.000Z</time>
      </trkpt>
      <trkpt lat="47.52283" lon="6.68569">
        <ele>366</ele>
        <time>2015-03-22T10:29:17.000Z</time>
      </trkpt>
      <trkpt lat="47.52286" lon="6.68568">
        <ele>366</ele>
        <time>2015-03-22T10:29:18.000Z</time>
      </trkpt>
      <trkpt lat="47.52289" lon="6.68566">
        <ele>366</ele>
        <time>2015-03-22T10:29:19.000Z</time>
      </trkpt>
      <trkpt lat="47.52292" lon="6.68566">
        <ele>366</ele>
        <time>2015-03-22T10:29:20.000Z</time>
      </trkpt>
      <trkpt lat="47.52294" lon="6.68565">
        <ele>366</ele>
        <time>2015-03-22T10:29:21.000Z</time>
      </trkpt>
      <trkpt lat="47.52296" lon="6.68565">
        <ele>366</ele>
        <time>2015-03-22T10:29:22.000Z</time>
      </trkpt>
      <trkpt lat="47.523" lon="6.68565">
        <ele>367</ele>
        <time>2015-03-22T10:29:23.000Z</time>
      </trkpt>
      <trkpt lat="47.52303" lon="6.68565">
        <ele>367</ele>
        <time>2015-03-22T10:29:24.000Z</time>
      </trkpt>
      <trkpt lat="47.52306" lon="6.68565">
        <ele>367</ele>
        <time>2015-03-22T10:29:25.000Z</time>
      </trkpt>
      <trkpt lat="47.52308" lon="6.68564">
        <ele>367</ele>
        <time>2015-03-22T10:29:26.000Z</time>
      </trkpt>
      <trkpt lat="47.5231" lon="6.68563">
        <ele>367</ele>
        <time>2015-03-22T10:29:27.000Z</time>
      </trkpt>
      <trkpt lat="47.52313" lon="6.68561">
        <ele>367</ele>
        <time>2015-03-22T10:29:28.000Z</time>
      </trkpt>
      <trkpt lat="47.52315" lon="6.6856">
        <ele>367</ele>
        <time>2015-03-22T10:29:29.000Z</time>
      </trkpt>
      <trkpt lat="47.52318" lon="6.68556">
        <ele>367</ele>
        <time>2015-03-22T10:29:32.000Z</time>
      </trkpt>
      <trkpt lat="47.52318" lon="6.68555">
        <ele>367</ele>
        <time>2015-03-22T10:29:33.000Z</time>
      </trkpt>
      <trkpt lat="47.5232" lon="6.68552">
        <ele>367</ele>
        <time>2015-03-22T10:29:36.000Z</time>
      </trkpt>
      <trkpt lat="47.52323" lon="6.68551">
        <ele>367</ele>
        <time>2015-03-22T10:29:37.000Z</time>
      </trkpt>
      <trkpt lat="47.52326" lon="6.6855">
        <ele>367</ele>
        <time>2015-03-22T10:29:38.000Z</time>
      </trkpt>
      <trkpt lat="47.52329" lon="6.68549">
        <ele>367</ele>
        <time>2015-03-22T10:29:39.000Z</time>
      </trkpt>
      <trkpt lat="47.52332" lon="6.68548">
        <ele>367</ele>
        <time>2015-03-22T10:29:40.000Z</time>
      </trkpt>
      <trkpt lat="47.52336" lon="6.68548">
        <ele>371</ele>
        <time>2015-03-22T10:29:41.000Z</time>
      </trkpt>
      <trkpt lat="47.52339" lon="6.68548">
        <ele>371</ele>
        <time>2015-03-22T10:29:42.000Z</time>
      </trkpt>
      <trkpt lat="47.52342" lon="6.68548">
        <ele>371</ele>
        <time>2015-03-22T10:29:43.000Z</time>
      </trkpt>
      <trkpt lat="47.52346" lon="6.68548">
        <ele>371</ele>
        <time>2015-03-22T10:29:44.000Z</time>
      </trkpt>
      <trkpt lat="47.52348" lon="6.68549">
        <ele>371</ele>
        <time>2015-03-22T10:29:45.000Z</time>
      </trkpt>
      <trkpt lat="47.5235" lon="6.68551">
        <ele>371</ele>
        <time>2015-03-22T10:29:46.000Z</time>
      </trkpt>
      <trkpt lat="47.52352" lon="6.68554">
        <ele>371</ele>
        <time>2015-03-22T10:29:47.000Z</time>
      </trkpt>
      <trkpt lat="47.52353" lon="6.68557">
        <ele>371</ele>
        <time>2015-03-22T10:29:48.000Z</time>
      </trkpt>
      <trkpt lat="47.52354" lon="6.68561">
        <ele>372</ele>
        <time>2015-03-22T10:29:49.000Z</time>
      </trkpt>
      <trkpt lat="47.52354" lon="6.68567">
        <ele>372</ele>
        <time>2015-03-22T10:29:51.000Z</time>
      </trkpt>
      <trkpt lat="47.52354" lon="6.6857">
        <ele>372</ele>
        <time>2015-03-22T10:29:52.000Z</time>
      </trkpt>
      <trkpt lat="47.52353" lon="6.68574">
        <ele>372</ele>
        <time>2015-03-22T10:29:53.000Z</time>
      </trkpt>
      <trkpt lat="47.52353" lon="6.68578">
        <ele>372</ele>
        <time>2015-03-22T10:29:54.000Z</time>
      </trkpt>
      <trkpt lat="47.52353" lon="6.68582">
        <ele>372</ele>
        <time>2015-03-22T10:29:55.000Z</time>
      </trkpt>
      <trkpt lat="47.52353" lon="6.68587">
        <ele>372</ele>
        <time>2015-03-22T10:29:56.000Z</time>
      </trkpt>
      <trkpt lat="47.52354" lon="6.68592">
        <ele>372</ele>
        <time>2015-03-22T10:29:57.000Z</time>
      </trkpt>
      <trkpt lat="47.52355" lon="6.68596">
        <ele>372</ele>
        <time>2015-03-22T10:29:58.000Z</time>
      </trkpt>
      <trkpt lat="47.52356" lon="6.68602">
        <ele>372</ele>
        <time>2015-03-22T10:30:00.000Z</time>
      </trkpt>
      <trkpt lat="47.52356" lon="6.68606">
        <ele>372</ele>
        <time>2015-03-22T10:30:01.000Z</time>
      </trkpt>
      <trkpt lat="47.52356" lon="6.6861">
        <ele>372</ele>
        <time>2015-03-22T10:30:02.000Z</time>
      </trkpt>
      <trkpt lat="47.52355" lon="6.68613">
        <ele>372</ele>
        <time>2015-03-22T10:30:03.000Z</time>
      </trkpt>
      <trkpt lat="47.52354" lon="6.68619">
        <ele>372</ele>
        <time>2015-03-22T10:30:04.000Z</time>
      </trkpt>
      <trkpt lat="47.52353" lon="6.68624">
        <ele>372</ele>
        <time>2015-03-22T10:30:05.000Z</time>
      </trkpt>
      <trkpt lat="47.52351" lon="6.68628">
        <ele>372</ele>
        <time>2015-03-22T10:30:06.001Z</time>
      </trkpt>
      <trkpt lat="47.52351" lon="6.68634">
        <ele>372</ele>
        <time>2015-03-22T10:30:07.000Z</time>
      </trkpt>
      <trkpt lat="47.5235" lon="6.68638">
        <ele>372</ele>
        <time>2015-03-22T10:30:08.000Z</time>
      </trkpt>
      <trkpt lat="47.52349" lon="6.68641">
        <ele>372</ele>
        <time>2015-03-22T10:30:09.000Z</time>
      </trkpt>
      <trkpt lat="47.52349" lon="6.68645">
        <ele>372</ele>
        <time>2015-03-22T10:30:10.000Z</time>
      </trkpt>
      <trkpt lat="47.52348" lon="6.68649">
        <ele>372</ele>
        <time>2015-03-22T10:30:11.000Z</time>
      </trkpt>
      <trkpt lat="47.52348" lon="6.68652">
        <ele>372</ele>
        <time>2015-03-22T10:30:12.000Z</time>
      </trkpt>
      <trkpt lat="47.52347" lon="6.68655">
        <ele>372</ele>
        <time>2015-03-22T10:30:13.000Z</time>
      </trkpt>
      <trkpt lat="47.52346" lon="6.68659">
        <ele>372</ele>
        <time>2015-03-22T10:30:14.000Z</time>
      </trkpt>
      <trkpt lat="47.52346" lon="6.68663">
        <ele>372</ele>
        <time>2015-03-22T10:30:15.000Z</time>
      </trkpt>
      <trkpt lat="47.52345" lon="6.68667">
        <ele>371</ele>
        <time>2015-03-22T10:30:16.000Z</time>
      </trkpt>
      <trkpt lat="47.52344" lon="6.68672">
        <ele>371</ele>
        <time>2015-03-22T10:30:17.000Z</time>
      </trkpt>
      <trkpt lat="47.52343" lon="6.68677">
        <ele>371</ele>
        <time>2015-03-22T10:30:18.000Z</time>
      </trkpt>
      <trkpt lat="47.52344" lon="6.68681">
        <ele>371</ele>
        <time>2015-03-22T10:30:19.000Z</time>
      </trkpt>
      <trkpt lat="47.52344" lon="6.68685">
        <ele>371</ele>
        <time>2015-03-22T10:30:20.000Z</time>
      </trkpt>
      <trkpt lat="47.52345" lon="6.68689">
        <ele>371</ele>
        <time>2015-03-22T10:30:21.000Z</time>
      </trkpt>
      <trkpt lat="47.52346" lon="6.68693">
        <ele>371</ele>
        <time>2015-03-22T10:30:22.000Z</time>
      </trkpt>
      <trkpt lat="47.52347" lon="6.68697">
        <ele>371</ele>
        <time>2015-03-22T10:30:23.000Z</time>
      </trkpt>
      <trkpt lat="47.52348" lon="6.68701">
        <ele>371</ele>
        <time>2015-03-22T10:30:24.000Z</time>
      </trkpt>
      <trkpt lat="47.5235" lon="6.68705">
        <ele>371</ele>
        <time>2015-03-22T10:30:25.000Z</time>
      </trkpt>
      <trkpt lat="47.52351" lon="6.68709">
        <ele>371</ele>
        <time>2015-03-22T10:30:26.000Z</time>
      </trkpt>
      <trkpt lat="47.52353" lon="6.68713">
        <ele>371</ele>
        <time>2015-03-22T10:30:27.000Z</time>
      </trkpt>
      <trkpt lat="47.52355" lon="6.68717">
        <ele>371</ele>
        <time>2015-03-22T10:30:28.000Z</time>
      </trkpt>
      <trkpt lat="47.52356" lon="6.68721">
        <ele>371</ele>
        <time>2015-03-22T10:30:29.000Z</time>
      </trkpt>
      <trkpt lat="47.52357" lon="6.68725">
        <ele>371</ele>
        <time>2015-03-22T10:30:30.000Z</time>
      </trkpt>
      <trkpt lat="47.52359" lon="6.68727">
        <ele>371</ele>
        <time>2015-03-22T10:30:31.000Z</time>
      </trkpt>
      <trkpt lat="47.52363" lon="6.68729">
        <ele>371</ele>
        <time>2015-03-22T10:30:33.000Z</time>
      </trkpt>
      <trkpt lat="47.52365" lon="6.6873">
        <ele>371</ele>
        <time>2015-03-22T10:30:34.000Z</time>
      </trkpt>
      <trkpt lat="47.52367" lon="6.68733">
        <ele>371</ele>
        <time>2015-03-22T10:30:35.000Z</time>
      </trkpt>
      <trkpt lat="47.52369" lon="6.68736">
        <ele>371</ele>
        <time>2015-03-22T10:30:36.000Z</time>
      </trkpt>
      <trkpt lat="47.52371" lon="6.68742">
        <ele>371</ele>
        <time>2015-03-22T10:30:37.000Z</time>
      </trkpt>
      <trkpt lat="47.52372" lon="6.68747">
        <ele>371</ele>
        <time>2015-03-22T10:30:38.000Z</time>
      </trkpt>
      <trkpt lat="47.52374" lon="6.68753">
        <ele>371</ele>
        <time>2015-03-22T10:30:39.000Z</time>
      </trkpt>
      <trkpt lat="47.52376" lon="6.68758">
        <ele>371</ele>
        <time>2015-03-22T10:30:40.000Z</time>
      </trkpt>
      <trkpt lat="47.52377" lon="6.68762">
        <ele>371</ele>
        <time>2015-03-22T10:30:40.999Z</time>
      </trkpt>
      <trkpt lat="47.52379" lon="6.68768">
        <ele>371</ele>
        <time>2015-03-22T10:30:42.000Z</time>
      </trkpt>
      <trkpt lat="47.5238" lon="6.68773">
        <ele>371</ele>
        <time>2015-03-22T10:30:43.000Z</time>
      </trkpt>
      <trkpt lat="47.52381" lon="6.68778">
        <ele>371</ele>
        <time>2015-03-22T10:30:44.000Z</time>
      </trkpt>
      <trkpt lat="47.52382" lon="6.68784">
        <ele>371</ele>
        <time>2015-03-22T10:30:45.000Z</time>
      </trkpt>
      <trkpt lat="47.52383" lon="6.68792">
        <ele>371</ele>
        <time>2015-03-22T10:30:46.000Z</time>
      </trkpt>
      <trkpt lat="47.52384" lon="6.688">
        <ele>371</ele>
        <time>2015-03-22T10:30:47.000Z</time>
      </trkpt>
      <trkpt lat="47.52386" lon="6.68807">
        <ele>371</ele>
        <time>2015-03-22T10:30:48.000Z</time>
      </trkpt>
      <trkpt lat="47.52388" lon="6.68815">
        <ele>371</ele>
        <time>2015-03-22T10:30:49.000Z</time>
      </trkpt>
      <trkpt lat="47.5239" lon="6.68821">
        <ele>371</ele>
        <time>2015-03-22T10:30:50.000Z</time>
      </trkpt>
      <trkpt lat="47.52393" lon="6.68827">
        <ele>370</ele>
        <time>2015-03-22T10:30:51.000Z</time>
      </trkpt>
      <trkpt lat="47.52396" lon="6.68832">
        <ele>370</ele>
        <time>2015-03-22T10:30:52.000Z</time>
      </trkpt>
      <trkpt lat="47.52399" lon="6.68835">
        <ele>370</ele>
        <time>2015-03-22T10:30:53.000Z</time>
      </trkpt>
      <trkpt lat="47.52402" lon="6.68836">
        <ele>370</ele>
        <time>2015-03-22T10:30:54.000Z</time>
      </trkpt>
      <trkpt lat="47.52405" lon="6.68837">
        <ele>370</ele>
        <time>2015-03-22T10:30:55.000Z</time>
      </trkpt>
      <trkpt lat="47.52409" lon="6.68838">
        <ele>370</ele>
        <time>2015-03-22T10:30:56.000Z</time>
      </trkpt>
      <trkpt lat="47.52413" lon="6.68838">
        <ele>370</ele>
        <time>2015-03-22T10:30:57.000Z</time>
      </trkpt>
      <trkpt lat="47.52417" lon="6.6884">
        <ele>369</ele>
        <time>2015-03-22T10:30:58.000Z</time>
      </trkpt>
      <trkpt lat="47.52421" lon="6.68842">
        <ele>369</ele>
        <time>2015-03-22T10:30:59.000Z</time>
      </trkpt>
      <trkpt lat="47.52425" lon="6.68843">
        <ele>369</ele>
        <time>2015-03-22T10:31:00.002Z</time>
      </trkpt>
      <trkpt lat="47.52429" lon="6.68847">
        <ele>369</ele>
        <time>2015-03-22T10:31:01.000Z</time>
      </trkpt>
      <trkpt lat="47.52434" lon="6.68856">
        <ele>368</ele>
        <time>2015-03-22T10:31:03.000Z</time>
      </trkpt>
      <trkpt lat="47.52439" lon="6.68881">
        <ele>368</ele>
        <time>2015-03-22T10:31:04.000Z</time>
      </trkpt>
      <trkpt lat="47.52443" lon="6.68891">
        <ele>368</ele>
        <time>2015-03-22T10:31:05.000Z</time>
      </trkpt>
      <trkpt lat="47.52448" lon="6.68901">
        <ele>368</ele>
        <time>2015-03-22T10:31:06.000Z</time>
      </trkpt>
      <trkpt lat="47.52452" lon="6.6891">
        <ele>368</ele>
        <time>2015-03-22T10:31:07.000Z</time>
      </trkpt>
      <trkpt lat="47.52455" lon="6.68922">
        <ele>366</ele>
        <time>2015-03-22T10:31:08.000Z</time>
      </trkpt>
      <trkpt lat="47.5246" lon="6.68933">
        <ele>366</ele>
        <time>2015-03-22T10:31:09.000Z</time>
      </trkpt>
      <trkpt lat="47.52467" lon="6.68943">
        <ele>365</ele>
        <time>2015-03-22T10:31:10.000Z</time>
      </trkpt>
      <trkpt lat="47.52472" lon="6.68951">
        <ele>365</ele>
        <time>2015-03-22T10:31:11.000Z</time>
      </trkpt>
      <trkpt lat="47.52477" lon="6.68959">
        <ele>365</ele>
        <time>2015-03-22T10:31:12.000Z</time>
      </trkpt>
      <trkpt lat="47.52481" lon="6.68964">
        <ele>365</ele>
        <time>2015-03-22T10:31:13.000Z</time>
      </trkpt>
      <trkpt lat="47.52485" lon="6.68971">
        <ele>365</ele>
        <time>2015-03-22T10:31:14.000Z</time>
      </trkpt>
      <trkpt lat="47.52489" lon="6.68977">
        <ele>364</ele>
        <time>2015-03-22T10:31:15.000Z</time>
      </trkpt>
      <trkpt lat="47.52493" lon="6.68983">
        <ele>364</ele>
        <time>2015-03-22T10:31:16.000Z</time>
      </trkpt>
      <trkpt lat="47.52497" lon="6.68988">
        <ele>364</ele>
        <time>2015-03-22T10:31:17.000Z</time>
      </trkpt>
      <trkpt lat="47.52502" lon="6.68994">
        <ele>363</ele>
        <time>2015-03-22T10:31:18.000Z</time>
      </trkpt>
      <trkpt lat="47.52506" lon="6.68999">
        <ele>363</ele>
        <time>2015-03-22T10:31:19.000Z</time>
      </trkpt>
      <trkpt lat="47.52509" lon="6.69005">
        <ele>362</ele>
        <time>2015-03-22T10:31:20.000Z</time>
      </trkpt>
      <trkpt lat="47.52515" lon="6.69011">
        <ele>362</ele>
        <time>2015-03-22T10:31:21.000Z</time>
      </trkpt>
      <trkpt lat="47.52519" lon="6.69017">
        <ele>362</ele>
        <time>2015-03-22T10:31:22.000Z</time>
      </trkpt>
      <trkpt lat="47.52524" lon="6.69023">
        <ele>362</ele>
        <time>2015-03-22T10:31:23.000Z</time>
      </trkpt>
      <trkpt lat="47.52529" lon="6.6903">
        <ele>361</ele>
        <time>2015-03-22T10:31:24.000Z</time>
      </trkpt>
      <trkpt lat="47.52533" lon="6.69036">
        <ele>361</ele>
        <time>2015-03-22T10:31:25.000Z</time>
      </trkpt>
      <trkpt lat="47.52537" lon="6.69042">
        <ele>361</ele>
        <time>2015-03-22T10:31:26.000Z</time>
      </trkpt>
      <trkpt lat="47.52542" lon="6.69049">
        <ele>361</ele>
        <time>2015-03-22T10:31:27.000Z</time>
      </trkpt>
      <trkpt lat="47.52547" lon="6.69054">
        <ele>361</ele>
        <time>2015-03-22T10:31:28.000Z</time>
      </trkpt>
      <trkpt lat="47.52551" lon="6.6906">
        <ele>361</ele>
        <time>2015-03-22T10:31:29.000Z</time>
      </trkpt>
      <trkpt lat="47.52554" lon="6.69068">
        <ele>360</ele>
        <time>2015-03-22T10:31:30.000Z</time>
      </trkpt>
      <trkpt lat="47.52556" lon="6.69076">
        <ele>360</ele>
        <time>2015-03-22T10:31:31.000Z</time>
      </trkpt>
      <trkpt lat="47.52559" lon="6.69083">
        <ele>359</ele>
        <time>2015-03-22T10:31:32.000Z</time>
      </trkpt>
      <trkpt lat="47.52562" lon="6.69091">
        <ele>359</ele>
        <time>2015-03-22T10:31:33.000Z</time>
      </trkpt>
      <trkpt lat="47.52565" lon="6.69097">
        <ele>359</ele>
        <time>2015-03-22T10:31:34.000Z</time>
      </trkpt>
      <trkpt lat="47.52569" lon="6.69107">
        <ele>358</ele>
        <time>2015-03-22T10:31:35.000Z</time>
      </trkpt>
      <trkpt lat="47.52571" lon="6.69115">
        <ele>358</ele>
        <time>2015-03-22T10:31:36.000Z</time>
      </trkpt>
      <trkpt lat="47.52573" lon="6.69123">
        <ele>358</ele>
        <time>2015-03-22T10:31:37.000Z</time>
      </trkpt>
      <trkpt lat="47.52575" lon="6.69131">
        <ele>358</ele>
        <time>2015-03-22T10:31:38.000Z</time>
      </trkpt>
      <trkpt lat="47.52576" lon="6.6914">
        <ele>358</ele>
        <time>2015-03-22T10:31:39.000Z</time>
      </trkpt>
      <trkpt lat="47.52578" lon="6.69149">
        <ele>357</ele>
        <time>2015-03-22T10:31:40.000Z</time>
      </trkpt>
      <trkpt lat="47.5258" lon="6.69157">
        <ele>357</ele>
        <time>2015-03-22T10:31:41.000Z</time>
      </trkpt>
      <trkpt lat="47.52581" lon="6.69165">
        <ele>356</ele>
        <time>2015-03-22T10:31:42.000Z</time>
      </trkpt>
      <trkpt lat="47.52582" lon="6.69175">
        <ele>356</ele>
        <time>2015-03-22T10:31:43.000Z</time>
      </trkpt>
      <trkpt lat="47.52583" lon="6.69183">
        <ele>356</ele>
        <time>2015-03-22T10:31:44.000Z</time>
      </trkpt>
      <trkpt lat="47.52584" lon="6.69192">
        <ele>355</ele>
        <time>2015-03-22T10:31:45.000Z</time>
      </trkpt>
      <trkpt lat="47.52585" lon="6.69199">
        <ele>355</ele>
        <time>2015-03-22T10:31:46.000Z</time>
      </trkpt>
      <trkpt lat="47.52585" lon="6.69207">
        <ele>355</ele>
        <time>2015-03-22T10:31:47.000Z</time>
      </trkpt>
      <trkpt lat="47.52587" lon="6.69214">
        <ele>355</ele>
        <time>2015-03-22T10:31:48.000Z</time>
      </trkpt>
      <trkpt lat="47.52588" lon="6.69223">
        <ele>355</ele>
        <time>2015-03-22T10:31:49.000Z</time>
      </trkpt>
      <trkpt lat="47.52588" lon="6.6923">
        <ele>355</ele>
        <time>2015-03-22T10:31:50.000Z</time>
      </trkpt>
      <trkpt lat="47.5259" lon="6.69236">
        <ele>355</ele>
        <time>2015-03-22T10:31:51.000Z</time>
      </trkpt>
      <trkpt lat="47.5259" lon="6.69244">
        <ele>354</ele>
        <time>2015-03-22T10:31:52.000Z</time>
      </trkpt>
      <trkpt lat="47.52592" lon="6.69251">
        <ele>353</ele>
        <time>2015-03-22T10:31:53.000Z</time>
      </trkpt>
      <trkpt lat="47.52593" lon="6.69258">
        <ele>353</ele>
        <time>2015-03-22T10:31:54.000Z</time>
      </trkpt>
      <trkpt lat="47.52595" lon="6.69264">
        <ele>353</ele>
        <time>2015-03-22T10:31:55.000Z</time>
      </trkpt>
      <trkpt lat="47.52595" lon="6.69271">
        <ele>353</ele>
        <time>2015-03-22T10:31:56.000Z</time>
      </trkpt>
      <trkpt lat="47.52596" lon="6.6928">
        <ele>353</ele>
        <time>2015-03-22T10:31:57.000Z</time>
      </trkpt>
      <trkpt lat="47.52593" lon="6.69289">
        <ele>352</ele>
        <time>2015-03-22T10:31:58.000Z</time>
      </trkpt>
      <trkpt lat="47.52592" lon="6.693">
        <ele>352</ele>
        <time>2015-03-22T10:31:59.000Z</time>
      </trkpt>
      <trkpt lat="47.52593" lon="6.6931">
        <ele>352</ele>
        <time>2015-03-22T10:32:00.000Z</time>
      </trkpt>
      <trkpt lat="47.52593" lon="6.69318">
        <ele>352</ele>
        <time>2015-03-22T10:32:01.000Z</time>
      </trkpt>
      <trkpt lat="47.52594" lon="6.69337">
        <ele>350</ele>
        <time>2015-03-22T10:32:03.000Z</time>
      </trkpt>
      <trkpt lat="47.52595" lon="6.69348">
        <ele>350</ele>
        <time>2015-03-22T10:32:04.000Z</time>
      </trkpt>
      <trkpt lat="47.52593" lon="6.69354">
        <ele>350</ele>
        <time>2015-03-22T10:32:05.000Z</time>
      </trkpt>
      <trkpt lat="47.52592" lon="6.69365">
        <ele>350</ele>
        <time>2015-03-22T10:32:06.000Z</time>
      </trkpt>
      <trkpt lat="47.5259" lon="6.69373">
        <ele>350</ele>
        <time>2015-03-22T10:32:07.000Z</time>
      </trkpt>
      <trkpt lat="47.5259" lon="6.69381">
        <ele>349</ele>
        <time>2015-03-22T10:32:08.000Z</time>
      </trkpt>
      <trkpt lat="47.5259" lon="6.69394">
        <ele>349</ele>
        <time>2015-03-22T10:32:09.000Z</time>
      </trkpt>
      <trkpt lat="47.52591" lon="6.69403">
        <ele>349</ele>
        <time>2015-03-22T10:32:10.000Z</time>
      </trkpt>
      <trkpt lat="47.5259" lon="6.69412">
        <ele>348</ele>
        <time>2015-03-22T10:32:11.000Z</time>
      </trkpt>
      <trkpt lat="47.52591" lon="6.6942">
        <ele>348</ele>
        <time>2015-03-22T10:32:12.001Z</time>
      </trkpt>
      <trkpt lat="47.52592" lon="6.69422">
        <ele>348</ele>
        <time>2015-03-22T10:32:14.000Z</time>
      </trkpt>
      <trkpt lat="47.52586" lon="6.69433">
        <ele>348</ele>
        <time>2015-03-22T10:32:15.000Z</time>
      </trkpt>
      <trkpt lat="47.52584" lon="6.6944">
        <ele>347</ele>
        <time>2015-03-22T10:32:16.000Z</time>
      </trkpt>
      <trkpt lat="47.52585" lon="6.69446">
        <ele>347</ele>
        <time>2015-03-22T10:32:17.000Z</time>
      </trkpt>
      <trkpt lat="47.52585" lon="6.6945">
        <ele>347</ele>
        <time>2015-03-22T10:32:18.001Z</time>
      </trkpt>
      <trkpt lat="47.52593" lon="6.69456">
        <ele>347</ele>
        <time>2015-03-22T10:32:19.000Z</time>
      </trkpt>
      <trkpt lat="47.52599" lon="6.69461">
        <ele>347</ele>
        <time>2015-03-22T10:32:20.000Z</time>
      </trkpt>
      <trkpt lat="47.52602" lon="6.69463">
        <ele>347</ele>
        <time>2015-03-22T10:32:21.000Z</time>
      </trkpt>
      <trkpt lat="47.52605" lon="6.69467">
        <ele>347</ele>
        <time>2015-03-22T10:32:22.000Z</time>
      </trkpt>
      <trkpt lat="47.52607" lon="6.69473">
        <ele>347</ele>
        <time>2015-03-22T10:32:23.000Z</time>
      </trkpt>
      <trkpt lat="47.5261" lon="6.69476">
        <ele>347</ele>
        <time>2015-03-22T10:32:24.000Z</time>
      </trkpt>
      <trkpt lat="47.52615" lon="6.69478">
        <ele>347</ele>
        <time>2015-03-22T10:32:25.000Z</time>
      </trkpt>
      <trkpt lat="47.5262" lon="6.6948">
        <ele>347</ele>
        <time>2015-03-22T10:32:26.000Z</time>
      </trkpt>
      <trkpt lat="47.52623" lon="6.69483">
        <ele>347</ele>
        <time>2015-03-22T10:32:27.000Z</time>
      </trkpt>
      <trkpt lat="47.52626" lon="6.69485">
        <ele>347</ele>
        <time>2015-03-22T10:32:28.000Z</time>
      </trkpt>
      <trkpt lat="47.52628" lon="6.69488">
        <ele>347</ele>
        <time>2015-03-22T10:32:29.000Z</time>
      </trkpt>
      <trkpt lat="47.52628" lon="6.69491">
        <ele>347</ele>
        <time>2015-03-22T10:32:30.000Z</time>
      </trkpt>
      <trkpt lat="47.52628" lon="6.69494">
        <ele>347</ele>
        <time>2015-03-22T10:32:31.000Z</time>
      </trkpt>
      <trkpt lat="47.52627" lon="6.69498">
        <ele>347</ele>
        <time>2015-03-22T10:32:32.000Z</time>
      </trkpt>
      <trkpt lat="47.52627" lon="6.69501">
        <ele>346</ele>
        <time>2015-03-22T10:32:33.000Z</time>
      </trkpt>
      <trkpt lat="47.52626" lon="6.69505">
        <ele>345</ele>
        <time>2015-03-22T10:32:34.000Z</time>
      </trkpt>
      <trkpt lat="47.52627" lon="6.69511">
        <ele>345</ele>
        <time>2015-03-22T10:32:36.001Z</time>
      </trkpt>
      <trkpt lat="47.52627" lon="6.69515">
        <ele>345</ele>
        <time>2015-03-22T10:32:36.999Z</time>
      </trkpt>
      <trkpt lat="47.52627" lon="6.69518">
        <ele>345</ele>
        <time>2015-03-22T10:32:38.000Z</time>
      </trkpt>
      <trkpt lat="47.52627" lon="6.69522">
        <ele>345</ele>
        <time>2015-03-22T10:32:39.000Z</time>
      </trkpt>
      <trkpt lat="47.52627" lon="6.69525">
        <ele>345</ele>
        <time>2015-03-22T10:32:40.000Z</time>
      </trkpt>
      <trkpt lat="47.52627" lon="6.69528">
        <ele>345</ele>
        <time>2015-03-22T10:32:41.000Z</time>
      </trkpt>
      <trkpt lat="47.52626" lon="6.69532">
        <ele>345</ele>
        <time>2015-03-22T10:32:42.000Z</time>
      </trkpt>
      <trkpt lat="47.52626" lon="6.69538">
        <ele>345</ele>
        <time>2015-03-22T10:32:43.000Z</time>
      </trkpt>
      <trkpt lat="47.52626" lon="6.69544">
        <ele>345</ele>
        <time>2015-03-22T10:32:44.000Z</time>
      </trkpt>
      <trkpt lat="47.52625" lon="6.69551">
        <ele>345</ele>
        <time>2015-03-22T10:32:45.000Z</time>
      </trkpt>
      <trkpt lat="47.52623" lon="6.69564">
        <ele>345</ele>
        <time>2015-03-22T10:32:46.000Z</time>
      </trkpt>
      <trkpt lat="47.52623" lon="6.6957">
        <ele>345</ele>
        <time>2015-03-22T10:32:47.000Z</time>
      </trkpt>
      <trkpt lat="47.52623" lon="6.69575">
        <ele>345</ele>
        <time>2015-03-22T10:32:48.000Z</time>
      </trkpt>
      <trkpt lat="47.52622" lon="6.69582">
        <ele>345</ele>
        <time>2015-03-22T10:32:49.000Z</time>
      </trkpt>
      <trkpt lat="47.52622" lon="6.69587">
        <ele>345</ele>
        <time>2015-03-22T10:32:50.000Z</time>
      </trkpt>
      <trkpt lat="47.52621" lon="6.69593">
        <ele>345</ele>
        <time>2015-03-22T10:32:51.000Z</time>
      </trkpt>
      <trkpt lat="47.52622" lon="6.69599">
        <ele>345</ele>
        <time>2015-03-22T10:32:52.000Z</time>
      </trkpt>
      <trkpt lat="47.52623" lon="6.69602">
        <ele>345</ele>
        <time>2015-03-22T10:32:53.000Z</time>
      </trkpt>
      <trkpt lat="47.52624" lon="6.69606">
        <ele>345</ele>
        <time>2015-03-22T10:32:54.000Z</time>
      </trkpt>
      <trkpt lat="47.52626" lon="6.69608">
        <ele>345</ele>
        <time>2015-03-22T10:32:55.000Z</time>
      </trkpt>
      <trkpt lat="47.52628" lon="6.6961">
        <ele>346</ele>
        <time>2015-03-22T10:32:56.000Z</time>
      </trkpt>
      <trkpt lat="47.5263" lon="6.69613">
        <ele>346</ele>
        <time>2015-03-22T10:32:57.000Z</time>
      </trkpt>
      <trkpt lat="47.52632" lon="6.69615">
        <ele>346</ele>
        <time>2015-03-22T10:32:58.000Z</time>
      </trkpt>
      <trkpt lat="47.52634" lon="6.69618">
        <ele>346</ele>
        <time>2015-03-22T10:32:59.000Z</time>
      </trkpt>
      <trkpt lat="47.52635" lon="6.69622">
        <ele>346</ele>
        <time>2015-03-22T10:33:00.000Z</time>
      </trkpt>
      <trkpt lat="47.52636" lon="6.69626">
        <ele>346</ele>
        <time>2015-03-22T10:33:01.000Z</time>
      </trkpt>
      <trkpt lat="47.52636" lon="6.69631">
        <ele>346</ele>
        <time>2015-03-22T10:33:02.000Z</time>
      </trkpt>
      <trkpt lat="47.52636" lon="6.69637">
        <ele>346</ele>
        <time>2015-03-22T10:33:03.000Z</time>
      </trkpt>
      <trkpt lat="47.52635" lon="6.69644">
        <ele>346</ele>
        <time>2015-03-22T10:33:04.000Z</time>
      </trkpt>
      <trkpt lat="47.52634" lon="6.69651">
        <ele>346</ele>
        <time>2015-03-22T10:33:05.000Z</time>
      </trkpt>
      <trkpt lat="47.52633" lon="6.69658">
        <ele>346</ele>
        <time>2015-03-22T10:33:06.000Z</time>
      </trkpt>
      <trkpt lat="47.52631" lon="6.69666">
        <ele>346</ele>
        <time>2015-03-22T10:33:07.000Z</time>
      </trkpt>
      <trkpt lat="47.5263" lon="6.69673">
        <ele>349</ele>
        <time>2015-03-22T10:33:08.000Z</time>
      </trkpt>
      <trkpt lat="47.52628" lon="6.6968">
        <ele>349</ele>
        <time>2015-03-22T10:33:09.000Z</time>
      </trkpt>
      <trkpt lat="47.52626" lon="6.69687">
        <ele>349</ele>
        <time>2015-03-22T10:33:10.000Z</time>
      </trkpt>
      <trkpt lat="47.52623" lon="6.69693">
        <ele>349</ele>
        <time>2015-03-22T10:33:11.000Z</time>
      </trkpt>
      <trkpt lat="47.52621" lon="6.69698">
        <ele>349</ele>
        <time>2015-03-22T10:33:12.000Z</time>
      </trkpt>
      <trkpt lat="47.52618" lon="6.69703">
        <ele>350</ele>
        <time>2015-03-22T10:33:13.000Z</time>
      </trkpt>
      <trkpt lat="47.52616" lon="6.69707">
        <ele>350</ele>
        <time>2015-03-22T10:33:14.000Z</time>
      </trkpt>
      <trkpt lat="47.52613" lon="6.69711">
        <ele>350</ele>
        <time>2015-03-22T10:33:15.000Z</time>
      </trkpt>
      <trkpt lat="47.52611" lon="6.69714">
        <ele>350</ele>
        <time>2015-03-22T10:33:16.000Z</time>
      </trkpt>
      <trkpt lat="47.5261" lon="6.69717">
        <ele>350</ele>
        <time>2015-03-22T10:33:17.000Z</time>
      </trkpt>
      <trkpt lat="47.52611" lon="6.69722">
        <ele>350</ele>
        <time>2015-03-22T10:33:20.000Z</time>
      </trkpt>
      <trkpt lat="47.52613" lon="6.69724">
        <ele>350</ele>
        <time>2015-03-22T10:33:21.000Z</time>
      </trkpt>
      <trkpt lat="47.52616" lon="6.69726">
        <ele>350</ele>
        <time>2015-03-22T10:33:22.000Z</time>
      </trkpt>
      <trkpt lat="47.52619" lon="6.6973">
        <ele>350</ele>
        <time>2015-03-22T10:33:23.000Z</time>
      </trkpt>
      <trkpt lat="47.52622" lon="6.69735">
        <ele>351</ele>
        <time>2015-03-22T10:33:24.000Z</time>
      </trkpt>
      <trkpt lat="47.52625" lon="6.69739">
        <ele>351</ele>
        <time>2015-03-22T10:33:25.000Z</time>
      </trkpt>
      <trkpt lat="47.52629" lon="6.69742">
        <ele>351</ele>
        <time>2015-03-22T10:33:26.000Z</time>
      </trkpt>
      <trkpt lat="47.52633" lon="6.69745">
        <ele>351</ele>
        <time>2015-03-22T10:33:27.000Z</time>
      </trkpt>
      <trkpt lat="47.52637" lon="6.69746">
        <ele>351</ele>
        <time>2015-03-22T10:33:28.000Z</time>
      </trkpt>
      <trkpt lat="47.5264" lon="6.69747">
        <ele>351</ele>
        <time>2015-03-22T10:33:29.000Z</time>
      </trkpt>
      <trkpt lat="47.52643" lon="6.69747">
        <ele>351</ele>
        <time>2015-03-22T10:33:30.000Z</time>
      </trkpt>
      <trkpt lat="47.52646" lon="6.69748">
        <ele>351</ele>
        <time>2015-03-22T10:33:31.001Z</time>
      </trkpt>
      <trkpt lat="47.52651" lon="6.69748">
        <ele>351</ele>
        <time>2015-03-22T10:33:32.000Z</time>
      </trkpt>
      <trkpt lat="47.52656" lon="6.69748">
        <ele>351</ele>
        <time>2015-03-22T10:33:33.000Z</time>
      </trkpt>
      <trkpt lat="47.52668" lon="6.69749">
        <ele>352</ele>
        <time>2015-03-22T10:33:34.000Z</time>
      </trkpt>
      <trkpt lat="47.52673" lon="6.69749">
        <ele>351</ele>
        <time>2015-03-22T10:33:35.000Z</time>
      </trkpt>
      <trkpt lat="47.52678" lon="6.6975">
        <ele>351</ele>
        <time>2015-03-22T10:33:36.000Z</time>
      </trkpt>
      <trkpt lat="47.52681" lon="6.6975">
        <ele>351</ele>
        <time>2015-03-22T10:33:37.000Z</time>
      </trkpt>
      <trkpt lat="47.52684" lon="6.69752">
        <ele>350</ele>
        <time>2015-03-22T10:33:38.000Z</time>
      </trkpt>
      <trkpt lat="47.52687" lon="6.69757">
        <ele>350</ele>
        <time>2015-03-22T10:33:39.000Z</time>
      </trkpt>
      <trkpt lat="47.5269" lon="6.69761">
        <ele>350</ele>
        <time>2015-03-22T10:33:40.000Z</time>
      </trkpt>
      <trkpt lat="47.52694" lon="6.69764">
        <ele>350</ele>
        <time>2015-03-22T10:33:41.000Z</time>
      </trkpt>
      <trkpt lat="47.52697" lon="6.6977">
        <ele>349</ele>
        <time>2015-03-22T10:33:42.000Z</time>
      </trkpt>
      <trkpt lat="47.527" lon="6.69774">
        <ele>349</ele>
        <time>2015-03-22T10:33:44.000Z</time>
      </trkpt>
      <trkpt lat="47.52703" lon="6.6978">
        <ele>349</ele>
        <time>2015-03-22T10:33:45.000Z</time>
      </trkpt>
      <trkpt lat="47.52709" lon="6.69786">
        <ele>349</ele>
        <time>2015-03-22T10:33:46.000Z</time>
      </trkpt>
      <trkpt lat="47.52713" lon="6.69791">
        <ele>348</ele>
        <time>2015-03-22T10:33:47.000Z</time>
      </trkpt>
      <trkpt lat="47.52718" lon="6.69795">
        <ele>348</ele>
        <time>2015-03-22T10:33:48.000Z</time>
      </trkpt>
      <trkpt lat="47.52724" lon="6.698">
        <ele>348</ele>
        <time>2015-03-22T10:33:49.000Z</time>
      </trkpt>
      <trkpt lat="47.52729" lon="6.69803">
        <ele>347</ele>
        <time>2015-03-22T10:33:49.999Z</time>
      </trkpt>
      <trkpt lat="47.52729" lon="6.69812">
        <ele>347</ele>
        <time>2015-03-22T10:33:51.000Z</time>
      </trkpt>
      <trkpt lat="47.52729" lon="6.69824">
        <ele>346</ele>
        <time>2015-03-22T10:33:52.000Z</time>
      </trkpt>
      <trkpt lat="47.52726" lon="6.69839">
        <ele>345</ele>
        <time>2015-03-22T10:33:53.000Z</time>
      </trkpt>
      <trkpt lat="47.52724" lon="6.69853">
        <ele>345</ele>
        <time>2015-03-22T10:33:54.000Z</time>
      </trkpt>
      <trkpt lat="47.52725" lon="6.69862">
        <ele>345</ele>
        <time>2015-03-22T10:33:55.000Z</time>
      </trkpt>
      <trkpt lat="47.52726" lon="6.6987">
        <ele>345</ele>
        <time>2015-03-22T10:33:56.000Z</time>
      </trkpt>
      <trkpt lat="47.52725" lon="6.69882">
        <ele>345</ele>
        <time>2015-03-22T10:33:57.000Z</time>
      </trkpt>
      <trkpt lat="47.5273" lon="6.69891">
        <ele>345</ele>
        <time>2015-03-22T10:33:58.000Z</time>
      </trkpt>
      <trkpt lat="47.52732" lon="6.69899">
        <ele>345</ele>
        <time>2015-03-22T10:33:59.000Z</time>
      </trkpt>
      <trkpt lat="47.52735" lon="6.69905">
        <ele>344</ele>
        <time>2015-03-22T10:34:00.000Z</time>
      </trkpt>
      <trkpt lat="47.52738" lon="6.69911">
        <ele>344</ele>
        <time>2015-03-22T10:34:01.000Z</time>
      </trkpt>
      <trkpt lat="47.52738" lon="6.69918">
        <ele>343</ele>
        <time>2015-03-22T10:34:02.000Z</time>
      </trkpt>
      <trkpt lat="47.5274" lon="6.69923">
        <ele>343</ele>
        <time>2015-03-22T10:34:03.000Z</time>
      </trkpt>
      <trkpt lat="47.5274" lon="6.69931">
        <ele>343</ele>
        <time>2015-03-22T10:34:04.000Z</time>
      </trkpt>
      <trkpt lat="47.52741" lon="6.69938">
        <ele>343</ele>
        <time>2015-03-22T10:34:05.000Z</time>
      </trkpt>
      <trkpt lat="47.52741" lon="6.69947">
        <ele>344</ele>
        <time>2015-03-22T10:34:06.000Z</time>
      </trkpt>
      <trkpt lat="47.52743" lon="6.69954">
        <ele>344</ele>
        <time>2015-03-22T10:34:07.000Z</time>
      </trkpt>
      <trkpt lat="47.52746" lon="6.6996">
        <ele>344</ele>
        <time>2015-03-22T10:34:08.000Z</time>
      </trkpt>
      <trkpt lat="47.52747" lon="6.69967">
        <ele>344</ele>
        <time>2015-03-22T10:34:09.000Z</time>
      </trkpt>
      <trkpt lat="47.52749" lon="6.69973">
        <ele>344</ele>
        <time>2015-03-22T10:34:10.000Z</time>
      </trkpt>
      <trkpt lat="47.5275" lon="6.69981">
        <ele>344</ele>
        <time>2015-03-22T10:34:11.000Z</time>
      </trkpt>
      <trkpt lat="47.52751" lon="6.69989">
        <ele>344</ele>
        <time>2015-03-22T10:34:12.000Z</time>
      </trkpt>
      <trkpt lat="47.52754" lon="6.69995">
        <ele>343</ele>
        <time>2015-03-22T10:34:13.000Z</time>
      </trkpt>
      <trkpt lat="47.52754" lon="6.70003">
        <ele>344</ele>
        <time>2015-03-22T10:34:14.000Z</time>
      </trkpt>
      <trkpt lat="47.52757" lon="6.70012">
        <ele>345</ele>
        <time>2015-03-22T10:34:15.000Z</time>
      </trkpt>
      <trkpt lat="47.52759" lon="6.70017">
        <ele>346</ele>
        <time>2015-03-22T10:34:16.000Z</time>
      </trkpt>
      <trkpt lat="47.52761" lon="6.70022">
        <ele>346</ele>
        <time>2015-03-22T10:34:17.000Z</time>
      </trkpt>
      <trkpt lat="47.52763" lon="6.70028">
        <ele>346</ele>
        <time>2015-03-22T10:34:18.000Z</time>
      </trkpt>
      <trkpt lat="47.52765" lon="6.70031">
        <ele>347</ele>
        <time>2015-03-22T10:34:19.000Z</time>
      </trkpt>
      <trkpt lat="47.52766" lon="6.70035">
        <ele>347</ele>
        <time>2015-03-22T10:34:20.000Z</time>
      </trkpt>
      <trkpt lat="47.52767" lon="6.7004">
        <ele>347</ele>
        <time>2015-03-22T10:34:21.000Z</time>
      </trkpt>
      <trkpt lat="47.52769" lon="6.70043">
        <ele>347</ele>
        <time>2015-03-22T10:34:22.000Z</time>
      </trkpt>
      <trkpt lat="47.5277" lon="6.70046">
        <ele>347</ele>
        <time>2015-03-22T10:34:23.000Z</time>
      </trkpt>
      <trkpt lat="47.52772" lon="6.70049">
        <ele>347</ele>
        <time>2015-03-22T10:34:24.000Z</time>
      </trkpt>
      <trkpt lat="47.52774" lon="6.70052">
        <ele>347</ele>
        <time>2015-03-22T10:34:26.001Z</time>
      </trkpt>
      <trkpt lat="47.52776" lon="6.70056">
        <ele>347</ele>
        <time>2015-03-22T10:34:27.000Z</time>
      </trkpt>
      <trkpt lat="47.52777" lon="6.70061">
        <ele>348</ele>
        <time>2015-03-22T10:34:28.000Z</time>
      </trkpt>
      <trkpt lat="47.52778" lon="6.70067">
        <ele>348</ele>
        <time>2015-03-22T10:34:29.000Z</time>
      </trkpt>
      <trkpt lat="47.52779" lon="6.70073">
        <ele>348</ele>
        <time>2015-03-22T10:34:30.000Z</time>
      </trkpt>
      <trkpt lat="47.5278" lon="6.70081">
        <ele>348</ele>
        <time>2015-03-22T10:34:31.000Z</time>
      </trkpt>
      <trkpt lat="47.52781" lon="6.7009">
        <ele>349</ele>
        <time>2015-03-22T10:34:32.000Z</time>
      </trkpt>
      <trkpt lat="47.52781" lon="6.70099">
        <ele>350</ele>
        <time>2015-03-22T10:34:33.000Z</time>
      </trkpt>
      <trkpt lat="47.52782" lon="6.70108">
        <ele>350</ele>
        <time>2015-03-22T10:34:34.000Z</time>
      </trkpt>
      <trkpt lat="47.52783" lon="6.70117">
        <ele>350</ele>
        <time>2015-03-22T10:34:35.000Z</time>
      </trkpt>
      <trkpt lat="47.52783" lon="6.70126">
        <ele>350</ele>
        <time>2015-03-22T10:34:36.000Z</time>
      </trkpt>
      <trkpt lat="47.52784" lon="6.70135">
        <ele>350</ele>
        <time>2015-03-22T10:34:37.000Z</time>
      </trkpt>
      <trkpt lat="47.52785" lon="6.70145">
        <ele>350</ele>
        <time>2015-03-22T10:34:38.000Z</time>
      </trkpt>
      <trkpt lat="47.52787" lon="6.70153">
        <ele>351</ele>
        <time>2015-03-22T10:34:39.000Z</time>
      </trkpt>
      <trkpt lat="47.52789" lon="6.70162">
        <ele>351</ele>
        <time>2015-03-22T10:34:40.000Z</time>
      </trkpt>
      <trkpt lat="47.5279" lon="6.70169">
        <ele>351</ele>
        <time>2015-03-22T10:34:41.000Z</time>
      </trkpt>
      <trkpt lat="47.52791" lon="6.70177">
        <ele>351</ele>
        <time>2015-03-22T10:34:42.000Z</time>
      </trkpt>
      <trkpt lat="47.52791" lon="6.70184">
        <ele>351</ele>
        <time>2015-03-22T10:34:43.000Z</time>
      </trkpt>
      <trkpt lat="47.52792" lon="6.70191">
        <ele>351</ele>
        <time>2015-03-22T10:34:44.000Z</time>
      </trkpt>
      <trkpt lat="47.52792" lon="6.70199">
        <ele>351</ele>
        <time>2015-03-22T10:34:45.000Z</time>
      </trkpt>
      <trkpt lat="47.52793" lon="6.70207">
        <ele>351</ele>
        <time>2015-03-22T10:34:46.000Z</time>
      </trkpt>
      <trkpt lat="47.52794" lon="6.70216">
        <ele>351</ele>
        <time>2015-03-22T10:34:47.000Z</time>
      </trkpt>
      <trkpt lat="47.52795" lon="6.70225">
        <ele>351</ele>
        <time>2015-03-22T10:34:48.000Z</time>
      </trkpt>
      <trkpt lat="47.52796" lon="6.70235">
        <ele>352</ele>
        <time>2015-03-22T10:34:49.000Z</time>
      </trkpt>
      <trkpt lat="47.52797" lon="6.70256">
        <ele>350</ele>
        <time>2015-03-22T10:34:50.000Z</time>
      </trkpt>
      <trkpt lat="47.52798" lon="6.70264">
        <ele>350</ele>
        <time>2015-03-22T10:34:51.000Z</time>
      </trkpt>
      <trkpt lat="47.52799" lon="6.70271">
        <ele>350</ele>
        <time>2015-03-22T10:34:52.000Z</time>
      </trkpt>
      <trkpt lat="47.52799" lon="6.7028">
        <ele>350</ele>
        <time>2015-03-22T10:34:53.000Z</time>
      </trkpt>
      <trkpt lat="47.52799" lon="6.70287">
        <ele>350</ele>
        <time>2015-03-22T10:34:54.000Z</time>
      </trkpt>
      <trkpt lat="47.52799" lon="6.70294">
        <ele>350</ele>
        <time>2015-03-22T10:34:55.000Z</time>
      </trkpt>
      <trkpt lat="47.52801" lon="6.703">
        <ele>349</ele>
        <time>2015-03-22T10:34:56.000Z</time>
      </trkpt>
      <trkpt lat="47.52802" lon="6.70305">
        <ele>349</ele>
        <time>2015-03-22T10:34:57.000Z</time>
      </trkpt>
      <trkpt lat="47.52804" lon="6.70311">
        <ele>349</ele>
        <time>2015-03-22T10:34:58.000Z</time>
      </trkpt>
      <trkpt lat="47.52808" lon="6.70318">
        <ele>349</ele>
        <time>2015-03-22T10:34:59.000Z</time>
      </trkpt>
      <trkpt lat="47.52811" lon="6.70322">
        <ele>349</ele>
        <time>2015-03-22T10:35:00.000Z</time>
      </trkpt>
      <trkpt lat="47.52812" lon="6.70328">
        <ele>349</ele>
        <time>2015-03-22T10:35:01.000Z</time>
      </trkpt>
      <trkpt lat="47.52813" lon="6.70334">
        <ele>347</ele>
        <time>2015-03-22T10:35:02.000Z</time>
      </trkpt>
      <trkpt lat="47.52814" lon="6.70339">
        <ele>347</ele>
        <time>2015-03-22T10:35:03.000Z</time>
      </trkpt>
      <trkpt lat="47.52815" lon="6.70344">
        <ele>347</ele>
        <time>2015-03-22T10:35:04.000Z</time>
      </trkpt>
      <trkpt lat="47.52816" lon="6.70349">
        <ele>347</ele>
        <time>2015-03-22T10:35:05.000Z</time>
      </trkpt>
      <trkpt lat="47.52817" lon="6.70353">
        <ele>347</ele>
        <time>2015-03-22T10:35:06.000Z</time>
      </trkpt>
      <trkpt lat="47.52819" lon="6.70356">
        <ele>347</ele>
        <time>2015-03-22T10:35:07.000Z</time>
      </trkpt>
      <trkpt lat="47.5282" lon="6.70359">
        <ele>347</ele>
        <time>2015-03-22T10:35:08.000Z</time>
      </trkpt>
      <trkpt lat="47.52821" lon="6.70361">
        <ele>347</ele>
        <time>2015-03-22T10:35:09.002Z</time>
      </trkpt>
      <trkpt lat="47.52823" lon="6.70367">
        <ele>347</ele>
        <time>2015-03-22T10:35:10.000Z</time>
      </trkpt>
      <trkpt lat="47.52825" lon="6.70374">
        <ele>347</ele>
        <time>2015-03-22T10:35:11.000Z</time>
      </trkpt>
      <trkpt lat="47.52826" lon="6.7038">
        <ele>346</ele>
        <time>2015-03-22T10:35:12.000Z</time>
      </trkpt>
      <trkpt lat="47.52828" lon="6.70387">
        <ele>346</ele>
        <time>2015-03-22T10:35:13.000Z</time>
      </trkpt>
      <trkpt lat="47.5283" lon="6.70393">
        <ele>346</ele>
        <time>2015-03-22T10:35:14.000Z</time>
      </trkpt>
      <trkpt lat="47.52832" lon="6.70399">
        <ele>346</ele>
        <time>2015-03-22T10:35:15.000Z</time>
      </trkpt>
      <trkpt lat="47.52835" lon="6.70405">
        <ele>347</ele>
        <time>2015-03-22T10:35:16.000Z</time>
      </trkpt>
      <trkpt lat="47.52838" lon="6.70411">
        <ele>347</ele>
        <time>2015-03-22T10:35:17.000Z</time>
      </trkpt>
      <trkpt lat="47.52841" lon="6.70418">
        <ele>348</ele>
        <time>2015-03-22T10:35:18.000Z</time>
      </trkpt>
      <trkpt lat="47.52844" lon="6.70447">
        <ele>350</ele>
        <time>2015-03-22T10:35:19.000Z</time>
      </trkpt>
      <trkpt lat="47.52846" lon="6.70456">
        <ele>351</ele>
        <time>2015-03-22T10:35:20.000Z</time>
      </trkpt>
      <trkpt lat="47.52848" lon="6.70464">
        <ele>351</ele>
        <time>2015-03-22T10:35:21.000Z</time>
      </trkpt>
      <trkpt lat="47.52849" lon="6.70469">
        <ele>351</ele>
        <time>2015-03-22T10:35:22.000Z</time>
      </trkpt>
      <trkpt lat="47.5285" lon="6.70472">
        <ele>351</ele>
        <time>2015-03-22T10:35:23.000Z</time>
      </trkpt>
      <trkpt lat="47.52852" lon="6.70477">
        <ele>351</ele>
        <time>2015-03-22T10:35:24.000Z</time>
      </trkpt>
      <trkpt lat="47.52852" lon="6.70484">
        <ele>351</ele>
        <time>2015-03-22T10:35:25.000Z</time>
      </trkpt>
      <trkpt lat="47.52848" lon="6.7049">
        <ele>351</ele>
        <time>2015-03-22T10:35:26.000Z</time>
      </trkpt>
      <trkpt lat="47.52848" lon="6.70496">
        <ele>351</ele>
        <time>2015-03-22T10:35:27.000Z</time>
      </trkpt>
      <trkpt lat="47.52847" lon="6.705">
        <ele>351</ele>
        <time>2015-03-22T10:35:28.000Z</time>
      </trkpt>
      <trkpt lat="47.52846" lon="6.70505">
        <ele>352</ele>
        <time>2015-03-22T10:35:29.000Z</time>
      </trkpt>
      <trkpt lat="47.52846" lon="6.70507">
        <ele>352</ele>
        <time>2015-03-22T10:35:30.000Z</time>
      </trkpt>
      <trkpt lat="47.52848" lon="6.70514">
        <ele>353</ele>
        <time>2015-03-22T10:35:31.000Z</time>
      </trkpt>
      <trkpt lat="47.52849" lon="6.70518">
        <ele>354</ele>
        <time>2015-03-22T10:35:32.000Z</time>
      </trkpt>
      <trkpt lat="47.52851" lon="6.70523">
        <ele>354</ele>
        <time>2015-03-22T10:35:33.000Z</time>
      </trkpt>
      <trkpt lat="47.52853" lon="6.70527">
        <ele>355</ele>
        <time>2015-03-22T10:35:34.000Z</time>
      </trkpt>
      <trkpt lat="47.52855" lon="6.70532">
        <ele>355</ele>
        <time>2015-03-22T10:35:35.000Z</time>
      </trkpt>
      <trkpt lat="47.52856" lon="6.70538">
        <ele>355</ele>
        <time>2015-03-22T10:35:37.000Z</time>
      </trkpt>
      <trkpt lat="47.52853" lon="6.70539">
        <ele>355</ele>
        <time>2015-03-22T10:35:38.000Z</time>
      </trkpt>
      <trkpt lat="47.52849" lon="6.70541">
        <ele>355</ele>
        <time>2015-03-22T10:35:39.000Z</time>
      </trkpt>
      <trkpt lat="47.52844" lon="6.70542">
        <ele>355</ele>
        <time>2015-03-22T10:35:40.000Z</time>
      </trkpt>
      <trkpt lat="47.5284" lon="6.70544">
        <ele>354</ele>
        <time>2015-03-22T10:35:41.000Z</time>
      </trkpt>
      <trkpt lat="47.52835" lon="6.70546">
        <ele>354</ele>
        <time>2015-03-22T10:35:42.000Z</time>
      </trkpt>
      <trkpt lat="47.5283" lon="6.70546">
        <ele>349</ele>
        <time>2015-03-22T10:35:43.000Z</time>
      </trkpt>
      <trkpt lat="47.52826" lon="6.70545">
        <ele>349</ele>
        <time>2015-03-22T10:35:44.000Z</time>
      </trkpt>
      <trkpt lat="47.52821" lon="6.70543">
        <ele>348</ele>
        <time>2015-03-22T10:35:45.000Z</time>
      </trkpt>
      <trkpt lat="47.52817" lon="6.70541">
        <ele>348</ele>
        <time>2015-03-22T10:35:46.000Z</time>
      </trkpt>
      <trkpt lat="47.52813" lon="6.70541">
        <ele>348</ele>
        <time>2015-03-22T10:35:47.000Z</time>
      </trkpt>
      <trkpt lat="47.52809" lon="6.70541">
        <ele>348</ele>
        <time>2015-03-22T10:35:48.000Z</time>
      </trkpt>
      <trkpt lat="47.52805" lon="6.70543">
        <ele>348</ele>
        <time>2015-03-22T10:35:49.000Z</time>
      </trkpt>
      <trkpt lat="47.528" lon="6.70544">
        <ele>348</ele>
        <time>2015-03-22T10:35:50.000Z</time>
      </trkpt>
      <trkpt lat="47.52796" lon="6.70546">
        <ele>348</ele>
        <time>2015-03-22T10:35:51.000Z</time>
      </trkpt>
      <trkpt lat="47.52792" lon="6.70548">
        <ele>348</ele>
        <time>2015-03-22T10:35:52.000Z</time>
      </trkpt>
      <trkpt lat="47.5279" lon="6.70551">
        <ele>348</ele>
        <time>2015-03-22T10:35:53.000Z</time>
      </trkpt>
      <trkpt lat="47.52789" lon="6.70555">
        <ele>348</ele>
        <time>2015-03-22T10:35:54.000Z</time>
      </trkpt>
      <trkpt lat="47.52789" lon="6.7056">
        <ele>348</ele>
        <time>2015-03-22T10:35:55.000Z</time>
      </trkpt>
      <trkpt lat="47.5279" lon="6.70564">
        <ele>348</ele>
        <time>2015-03-22T10:35:55.999Z</time>
      </trkpt>
      <trkpt lat="47.52791" lon="6.70569">
        <ele>348</ele>
        <time>2015-03-22T10:35:57.000Z</time>
      </trkpt>
      <trkpt lat="47.52792" lon="6.70574">
        <ele>348</ele>
        <time>2015-03-22T10:35:58.000Z</time>
      </trkpt>
      <trkpt lat="47.52792" lon="6.7058">
        <ele>348</ele>
        <time>2015-03-22T10:35:59.000Z</time>
      </trkpt>
      <trkpt lat="47.52792" lon="6.70585">
        <ele>350</ele>
        <time>2015-03-22T10:36:00.000Z</time>
      </trkpt>
      <trkpt lat="47.5279" lon="6.7059">
        <ele>350</ele>
        <time>2015-03-22T10:36:01.000Z</time>
      </trkpt>
      <trkpt lat="47.52788" lon="6.70593">
        <ele>350</ele>
        <time>2015-03-22T10:36:02.000Z</time>
      </trkpt>
      <trkpt lat="47.52786" lon="6.70596">
        <ele>350</ele>
        <time>2015-03-22T10:36:03.000Z</time>
      </trkpt>
      <trkpt lat="47.52783" lon="6.70597">
        <ele>350</ele>
        <time>2015-03-22T10:36:04.000Z</time>
      </trkpt>
      <trkpt lat="47.5278" lon="6.70598">
        <ele>350</ele>
        <time>2015-03-22T10:36:05.000Z</time>
      </trkpt>
      <trkpt lat="47.52776" lon="6.706">
        <ele>350</ele>
        <time>2015-03-22T10:36:06.000Z</time>
      </trkpt>
      <trkpt lat="47.52773" lon="6.70601">
        <ele>350</ele>
        <time>2015-03-22T10:36:07.000Z</time>
      </trkpt>
      <trkpt lat="47.52769" lon="6.70603">
        <ele>350</ele>
        <time>2015-03-22T10:36:08.000Z</time>
      </trkpt>
      <trkpt lat="47.52765" lon="6.70606">
        <ele>350</ele>
        <time>2015-03-22T10:36:09.000Z</time>
      </trkpt>
      <trkpt lat="47.52761" lon="6.70608">
        <ele>350</ele>
        <time>2015-03-22T10:36:10.000Z</time>
      </trkpt>
      <trkpt lat="47.52756" lon="6.7061">
        <ele>350</ele>
        <time>2015-03-22T10:36:11.000Z</time>
      </trkpt>
      <trkpt lat="47.52752" lon="6.70612">
        <ele>350</ele>
        <time>2015-03-22T10:36:12.000Z</time>
      </trkpt>
      <trkpt lat="47.52748" lon="6.70614">
        <ele>356</ele>
        <time>2015-03-22T10:36:13.000Z</time>
      </trkpt>
      <trkpt lat="47.52745" lon="6.70615">
        <ele>357</ele>
        <time>2015-03-22T10:36:14.000Z</time>
      </trkpt>
      <trkpt lat="47.52747" lon="6.70621">
        <ele>357</ele>
        <time>2015-03-22T10:36:17.000Z</time>
      </trkpt>
      <trkpt lat="47.52749" lon="6.70624">
        <ele>357</ele>
        <time>2015-03-22T10:36:18.000Z</time>
      </trkpt>
      <trkpt lat="47.52751" lon="6.70627">
        <ele>351</ele>
        <time>2015-03-22T10:36:19.000Z</time>
      </trkpt>
      <trkpt lat="47.52753" lon="6.7063">
        <ele>351</ele>
        <time>2015-03-22T10:36:20.001Z</time>
      </trkpt>
      <trkpt lat="47.52756" lon="6.70633">
        <ele>351</ele>
        <time>2015-03-22T10:36:21.000Z</time>
      </trkpt>
      <trkpt lat="47.52758" lon="6.70636">
        <ele>352</ele>
        <time>2015-03-22T10:36:22.000Z</time>
      </trkpt>
      <trkpt lat="47.5276" lon="6.7064">
        <ele>352</ele>
        <time>2015-03-22T10:36:23.000Z</time>
      </trkpt>
      <trkpt lat="47.52761" lon="6.70643">
        <ele>352</ele>
        <time>2015-03-22T10:36:24.000Z</time>
      </trkpt>
      <trkpt lat="47.52762" lon="6.70646">
        <ele>352</ele>
        <time>2015-03-22T10:36:25.000Z</time>
      </trkpt>
      <trkpt lat="47.52763" lon="6.7065">
        <ele>352</ele>
        <time>2015-03-22T10:36:26.000Z</time>
      </trkpt>
      <trkpt lat="47.52763" lon="6.70654">
        <ele>352</ele>
        <time>2015-03-22T10:36:27.000Z</time>
      </trkpt>
      <trkpt lat="47.52763" lon="6.70659">
        <ele>353</ele>
        <time>2015-03-22T10:36:28.000Z</time>
      </trkpt>
      <trkpt lat="47.52763" lon="6.70664">
        <ele>353</ele>
        <time>2015-03-22T10:36:29.000Z</time>
      </trkpt>
      <trkpt lat="47.52763" lon="6.70669">
        <ele>354</ele>
        <time>2015-03-22T10:36:30.000Z</time>
      </trkpt>
      <trkpt lat="47.52763" lon="6.70675">
        <ele>354</ele>
        <time>2015-03-22T10:36:31.000Z</time>
      </trkpt>
      <trkpt lat="47.52763" lon="6.70681">
        <ele>354</ele>
        <time>2015-03-22T10:36:32.000Z</time>
      </trkpt>
      <trkpt lat="47.52762" lon="6.70687">
        <ele>354</ele>
        <time>2015-03-22T10:36:33.000Z</time>
      </trkpt>
      <trkpt lat="47.52761" lon="6.70693">
        <ele>354</ele>
        <time>2015-03-22T10:36:34.000Z</time>
      </trkpt>
      <trkpt lat="47.52761" lon="6.70699">
        <ele>354</ele>
        <time>2015-03-22T10:36:35.000Z</time>
      </trkpt>
      <trkpt lat="47.5276" lon="6.70704">
        <ele>354</ele>
        <time>2015-03-22T10:36:36.000Z</time>
      </trkpt>
      <trkpt lat="47.5276" lon="6.70709">
        <ele>354</ele>
        <time>2015-03-22T10:36:37.000Z</time>
      </trkpt>
      <trkpt lat="47.52759" lon="6.70715">
        <ele>354</ele>
        <time>2015-03-22T10:36:38.000Z</time>
      </trkpt>
      <trkpt lat="47.52759" lon="6.70722">
        <ele>354</ele>
        <time>2015-03-22T10:36:39.000Z</time>
      </trkpt>
      <trkpt lat="47.52758" lon="6.70729">
        <ele>355</ele>
        <time>2015-03-22T10:36:40.000Z</time>
      </trkpt>
      <trkpt lat="47.52758" lon="6.70735">
        <ele>355</ele>
        <time>2015-03-22T10:36:41.000Z</time>
      </trkpt>
      <trkpt lat="47.52758" lon="6.7074">
        <ele>355</ele>
        <time>2015-03-22T10:36:42.000Z</time>
      </trkpt>
      <trkpt lat="47.52758" lon="6.70744">
        <ele>355</ele>
        <time>2015-03-22T10:36:43.000Z</time>
      </trkpt>
      <trkpt lat="47.52758" lon="6.70748">
        <ele>355</ele>
        <time>2015-03-22T10:36:44.000Z</time>
      </trkpt>
      <trkpt lat="47.52758" lon="6.70752">
        <ele>356</ele>
        <time>2015-03-22T10:36:45.000Z</time>
      </trkpt>
      <trkpt lat="47.52757" lon="6.70756">
        <ele>356</ele>
        <time>2015-03-22T10:36:46.000Z</time>
      </trkpt>
      <trkpt lat="47.52757" lon="6.7076">
        <ele>355</ele>
        <time>2015-03-22T10:36:47.000Z</time>
      </trkpt>
      <trkpt lat="47.52757" lon="6.70764">
        <ele>355</ele>
        <time>2015-03-22T10:36:48.000Z</time>
      </trkpt>
      <trkpt lat="47.52757" lon="6.70768">
        <ele>355</ele>
        <time>2015-03-22T10:36:49.000Z</time>
      </trkpt>
      <trkpt lat="47.52756" lon="6.70773">
        <ele>355</ele>
        <time>2015-03-22T10:36:50.000Z</time>
      </trkpt>
      <trkpt lat="47.52754" lon="6.70777">
        <ele>355</ele>
        <time>2015-03-22T10:36:51.000Z</time>
      </trkpt>
      <trkpt lat="47.52753" lon="6.70781">
        <ele>355</ele>
        <time>2015-03-22T10:36:52.000Z</time>
      </trkpt>
      <trkpt lat="47.52752" lon="6.70785">
        <ele>355</ele>
        <time>2015-03-22T10:36:53.000Z</time>
      </trkpt>
      <trkpt lat="47.52752" lon="6.70789">
        <ele>355</ele>
        <time>2015-03-22T10:36:54.000Z</time>
      </trkpt>
      <trkpt lat="47.52751" lon="6.70794">
        <ele>355</ele>
        <time>2015-03-22T10:36:55.000Z</time>
      </trkpt>
      <trkpt lat="47.5275" lon="6.708">
        <ele>354</ele>
        <time>2015-03-22T10:36:56.000Z</time>
      </trkpt>
      <trkpt lat="47.5275" lon="6.70808">
        <ele>360</ele>
        <time>2015-03-22T10:36:57.000Z</time>
      </trkpt>
      <trkpt lat="47.52749" lon="6.70816">
        <ele>359</ele>
        <time>2015-03-22T10:36:58.000Z</time>
      </trkpt>
      <trkpt lat="47.52748" lon="6.70824">
        <ele>357</ele>
        <time>2015-03-22T10:36:59.000Z</time>
      </trkpt>
      <trkpt lat="47.52748" lon="6.70832">
        <ele>354</ele>
        <time>2015-03-22T10:37:00.000Z</time>
      </trkpt>
      <trkpt lat="47.52747" lon="6.70839">
        <ele>355</ele>
        <time>2015-03-22T10:37:01.000Z</time>
      </trkpt>
      <trkpt lat="47.52747" lon="6.70845">
        <ele>357</ele>
        <time>2015-03-22T10:37:02.000Z</time>
      </trkpt>
      <trkpt lat="47.52746" lon="6.70851">
        <ele>358</ele>
        <time>2015-03-22T10:37:03.000Z</time>
      </trkpt>
      <trkpt lat="47.52745" lon="6.70857">
        <ele>359</ele>
        <time>2015-03-22T10:37:04.000Z</time>
      </trkpt>
      <trkpt lat="47.52744" lon="6.70862">
        <ele>359</ele>
        <time>2015-03-22T10:37:05.000Z</time>
      </trkpt>
      <trkpt lat="47.52742" lon="6.70866">
        <ele>359</ele>
        <time>2015-03-22T10:37:06.000Z</time>
      </trkpt>
      <trkpt lat="47.52741" lon="6.70871">
        <ele>360</ele>
        <time>2015-03-22T10:37:07.000Z</time>
      </trkpt>
      <trkpt lat="47.5274" lon="6.70875">
        <ele>360</ele>
        <time>2015-03-22T10:37:08.000Z</time>
      </trkpt>
      <trkpt lat="47.5274" lon="6.70879">
        <ele>360</ele>
        <time>2015-03-22T10:37:09.000Z</time>
      </trkpt>
      <trkpt lat="47.5274" lon="6.70883">
        <ele>359</ele>
        <time>2015-03-22T10:37:10.000Z</time>
      </trkpt>
      <trkpt lat="47.5274" lon="6.70887">
        <ele>359</ele>
        <time>2015-03-22T10:37:11.000Z</time>
      </trkpt>
      <trkpt lat="47.5274" lon="6.70891">
        <ele>359</ele>
        <time>2015-03-22T10:37:12.000Z</time>
      </trkpt>
      <trkpt lat="47.5274" lon="6.70896">
        <ele>358</ele>
        <time>2015-03-22T10:37:13.000Z</time>
      </trkpt>
      <trkpt lat="47.5274" lon="6.709">
        <ele>357</ele>
        <time>2015-03-22T10:37:14.000Z</time>
      </trkpt>
      <trkpt lat="47.5274" lon="6.70906">
        <ele>357</ele>
        <time>2015-03-22T10:37:15.000Z</time>
      </trkpt>
      <trkpt lat="47.5274" lon="6.70911">
        <ele>356</ele>
        <time>2015-03-22T10:37:16.000Z</time>
      </trkpt>
      <trkpt lat="47.5274" lon="6.70918">
        <ele>355</ele>
        <time>2015-03-22T10:37:17.000Z</time>
      </trkpt>
      <trkpt lat="47.52739" lon="6.70925">
        <ele>356</ele>
        <time>2015-03-22T10:37:18.000Z</time>
      </trkpt>
      <trkpt lat="47.5274" lon="6.70933">
        <ele>357</ele>
        <time>2015-03-22T10:37:19.000Z</time>
      </trkpt>
      <trkpt lat="47.52741" lon="6.70941">
        <ele>358</ele>
        <time>2015-03-22T10:37:20.000Z</time>
      </trkpt>
      <trkpt lat="47.52743" lon="6.70948">
        <ele>359</ele>
        <time>2015-03-22T10:37:21.000Z</time>
      </trkpt>
      <trkpt lat="47.52745" lon="6.70954">
        <ele>359</ele>
        <time>2015-03-22T10:37:22.000Z</time>
      </trkpt>
      <trkpt lat="47.52746" lon="6.7096">
        <ele>359</ele>
        <time>2015-03-22T10:37:23.000Z</time>
      </trkpt>
      <trkpt lat="47.52747" lon="6.70966">
        <ele>359</ele>
        <time>2015-03-22T10:37:24.000Z</time>
      </trkpt>
      <trkpt lat="47.52748" lon="6.70972">
        <ele>358</ele>
        <time>2015-03-22T10:37:25.000Z</time>
      </trkpt>
      <trkpt lat="47.52749" lon="6.70979">
        <ele>357</ele>
        <time>2015-03-22T10:37:26.000Z</time>
      </trkpt>
      <trkpt lat="47.5275" lon="6.70985">
        <ele>353</ele>
        <time>2015-03-22T10:37:27.000Z</time>
      </trkpt>
      <trkpt lat="47.52752" lon="6.70992">
        <ele>352</ele>
        <time>2015-03-22T10:37:28.000Z</time>
      </trkpt>
      <trkpt lat="47.52752" lon="6.70997">
        <ele>352</ele>
        <time>2015-03-22T10:37:29.000Z</time>
      </trkpt>
      <trkpt lat="47.52751" lon="6.71003">
        <ele>352</ele>
        <time>2015-03-22T10:37:30.000Z</time>
      </trkpt>
      <trkpt lat="47.52751" lon="6.71007">
        <ele>353</ele>
        <time>2015-03-22T10:37:31.000Z</time>
      </trkpt>
      <trkpt lat="47.52749" lon="6.71013">
        <ele>356</ele>
        <time>2015-03-22T10:37:34.000Z</time>
      </trkpt>
      <trkpt lat="47.52749" lon="6.71014">
        <ele>356</ele>
        <time>2015-03-22T10:37:35.000Z</time>
      </trkpt>
      <trkpt lat="47.52748" lon="6.7102">
        <ele>357</ele>
        <time>2015-03-22T10:37:38.000Z</time>
      </trkpt>
      <trkpt lat="47.52748" lon="6.71022">
        <ele>357</ele>
        <time>2015-03-22T10:37:39.000Z</time>
      </trkpt>
      <trkpt lat="47.52747" lon="6.71028">
        <ele>358</ele>
        <time>2015-03-22T10:37:43.000Z</time>
      </trkpt>
      <trkpt lat="47.52747" lon="6.71028">
        <ele>358</ele>
        <time>2015-03-22T10:37:44.000Z</time>
      </trkpt>
      <trkpt lat="47.52748" lon="6.71033">
        <ele>358</ele>
        <time>2015-03-22T10:38:08.000Z</time>
      </trkpt>
      <trkpt lat="47.52749" lon="6.71035">
        <ele>358</ele>
        <time>2015-03-22T10:38:09.000Z</time>
      </trkpt>
      <trkpt lat="47.52751" lon="6.71038">
        <ele>354</ele>
        <time>2015-03-22T10:38:10.000Z</time>
      </trkpt>
      <trkpt lat="47.52752" lon="6.71042">
        <ele>354</ele>
        <time>2015-03-22T10:38:11.000Z</time>
      </trkpt>
      <trkpt lat="47.52754" lon="6.71047">
        <ele>354</ele>
        <time>2015-03-22T10:38:12.000Z</time>
      </trkpt>
      <trkpt lat="47.52756" lon="6.71053">
        <ele>354</ele>
        <time>2015-03-22T10:38:13.000Z</time>
      </trkpt>
      <trkpt lat="47.52758" lon="6.71059">
        <ele>354</ele>
        <time>2015-03-22T10:38:14.000Z</time>
      </trkpt>
      <trkpt lat="47.52759" lon="6.71066">
        <ele>354</ele>
        <time>2015-03-22T10:38:15.000Z</time>
      </trkpt>
      <trkpt lat="47.52761" lon="6.71072">
        <ele>354</ele>
        <time>2015-03-22T10:38:16.000Z</time>
      </trkpt>
      <trkpt lat="47.52763" lon="6.71078">
        <ele>354</ele>
        <time>2015-03-22T10:38:17.000Z</time>
      </trkpt>
      <trkpt lat="47.52765" lon="6.71084">
        <ele>354</ele>
        <time>2015-03-22T10:38:18.000Z</time>
      </trkpt>
      <trkpt lat="47.52768" lon="6.7109">
        <ele>354</ele>
        <time>2015-03-22T10:38:19.000Z</time>
      </trkpt>
      <trkpt lat="47.52769" lon="6.71095">
        <ele>355</ele>
        <time>2015-03-22T10:38:20.000Z</time>
      </trkpt>
      <trkpt lat="47.52771" lon="6.71101">
        <ele>355</ele>
        <time>2015-03-22T10:38:21.000Z</time>
      </trkpt>
      <trkpt lat="47.52772" lon="6.71107">
        <ele>355</ele>
        <time>2015-03-22T10:38:22.000Z</time>
      </trkpt>
      <trkpt lat="47.52774" lon="6.71112">
        <ele>355</ele>
        <time>2015-03-22T10:38:23.000Z</time>
      </trkpt>
      <trkpt lat="47.52775" lon="6.71118">
        <ele>355</ele>
        <time>2015-03-22T10:38:24.000Z</time>
      </trkpt>
      <trkpt lat="47.52777" lon="6.71124">
        <ele>355</ele>
        <time>2015-03-22T10:38:25.000Z</time>
      </trkpt>
      <trkpt lat="47.52779" lon="6.7113">
        <ele>355</ele>
        <time>2015-03-22T10:38:26.000Z</time>
      </trkpt>
      <trkpt lat="47.52782" lon="6.71136">
        <ele>355</ele>
        <time>2015-03-22T10:38:27.000Z</time>
      </trkpt>
      <trkpt lat="47.52785" lon="6.71142">
        <ele>355</ele>
        <time>2015-03-22T10:38:28.000Z</time>
      </trkpt>
      <trkpt lat="47.52787" lon="6.71149">
        <ele>355</ele>
        <time>2015-03-22T10:38:29.000Z</time>
      </trkpt>
      <trkpt lat="47.52789" lon="6.71154">
        <ele>355</ele>
        <time>2015-03-22T10:38:30.000Z</time>
      </trkpt>
      <trkpt lat="47.52792" lon="6.71159">
        <ele>354</ele>
        <time>2015-03-22T10:38:31.000Z</time>
      </trkpt>
      <trkpt lat="47.52794" lon="6.71163">
        <ele>354</ele>
        <time>2015-03-22T10:38:32.000Z</time>
      </trkpt>
      <trkpt lat="47.52801" lon="6.71175">
        <ele>353</ele>
        <time>2015-03-22T10:38:33.000Z</time>
      </trkpt>
      <trkpt lat="47.52803" lon="6.71183">
        <ele>353</ele>
        <time>2015-03-22T10:38:34.000Z</time>
      </trkpt>
      <trkpt lat="47.52805" lon="6.71188">
        <ele>353</ele>
        <time>2015-03-22T10:38:35.000Z</time>
      </trkpt>
      <trkpt lat="47.52807" lon="6.71195">
        <ele>353</ele>
        <time>2015-03-22T10:38:36.000Z</time>
      </trkpt>
      <trkpt lat="47.52809" lon="6.712">
        <ele>353</ele>
        <time>2015-03-22T10:38:37.000Z</time>
      </trkpt>
      <trkpt lat="47.52812" lon="6.71204">
        <ele>353</ele>
        <time>2015-03-22T10:38:38.000Z</time>
      </trkpt>
      <trkpt lat="47.52814" lon="6.71209">
        <ele>353</ele>
        <time>2015-03-22T10:38:39.000Z</time>
      </trkpt>
      <trkpt lat="47.52816" lon="6.71213">
        <ele>353</ele>
        <time>2015-03-22T10:38:40.000Z</time>
      </trkpt>
      <trkpt lat="47.52817" lon="6.71218">
        <ele>352</ele>
        <time>2015-03-22T10:38:41.000Z</time>
      </trkpt>
      <trkpt lat="47.52819" lon="6.71222">
        <ele>352</ele>
        <time>2015-03-22T10:38:42.000Z</time>
      </trkpt>
      <trkpt lat="47.52822" lon="6.71228">
        <ele>352</ele>
        <time>2015-03-22T10:38:43.000Z</time>
      </trkpt>
      <trkpt lat="47.52824" lon="6.71233">
        <ele>351</ele>
        <time>2015-03-22T10:38:44.000Z</time>
      </trkpt>
      <trkpt lat="47.52828" lon="6.71238">
        <ele>351</ele>
        <time>2015-03-22T10:38:45.000Z</time>
      </trkpt>
      <trkpt lat="47.5283" lon="6.71243">
        <ele>350</ele>
        <time>2015-03-22T10:38:46.000Z</time>
      </trkpt>
      <trkpt lat="47.52833" lon="6.71247">
        <ele>349</ele>
        <time>2015-03-22T10:38:47.000Z</time>
      </trkpt>
      <trkpt lat="47.52836" lon="6.71252">
        <ele>349</ele>
        <time>2015-03-22T10:38:48.000Z</time>
      </trkpt>
      <trkpt lat="47.52839" lon="6.71256">
        <ele>349</ele>
        <time>2015-03-22T10:38:49.000Z</time>
      </trkpt>
      <trkpt lat="47.52842" lon="6.71259">
        <ele>350</ele>
        <time>2015-03-22T10:38:50.000Z</time>
      </trkpt>
      <trkpt lat="47.52846" lon="6.71263">
        <ele>350</ele>
        <time>2015-03-22T10:38:51.000Z</time>
      </trkpt>
      <trkpt lat="47.5285" lon="6.71268">
        <ele>351</ele>
        <time>2015-03-22T10:38:52.000Z</time>
      </trkpt>
      <trkpt lat="47.52853" lon="6.71273">
        <ele>351</ele>
        <time>2015-03-22T10:38:53.000Z</time>
      </trkpt>
      <trkpt lat="47.52854" lon="6.71277">
        <ele>352</ele>
        <time>2015-03-22T10:38:54.000Z</time>
      </trkpt>
      <trkpt lat="47.52855" lon="6.71282">
        <ele>352</ele>
        <time>2015-03-22T10:38:55.000Z</time>
      </trkpt>
      <trkpt lat="47.52855" lon="6.71286">
        <ele>352</ele>
        <time>2015-03-22T10:38:56.000Z</time>
      </trkpt>
      <trkpt lat="47.52855" lon="6.71291">
        <ele>352</ele>
        <time>2015-03-22T10:38:57.000Z</time>
      </trkpt>
      <trkpt lat="47.52854" lon="6.71295">
        <ele>353</ele>
        <time>2015-03-22T10:38:58.000Z</time>
      </trkpt>
      <trkpt lat="47.52854" lon="6.71298">
        <ele>353</ele>
        <time>2015-03-22T10:38:59.000Z</time>
      </trkpt>
      <trkpt lat="47.52854" lon="6.71302">
        <ele>353</ele>
        <time>2015-03-22T10:39:00.000Z</time>
      </trkpt>
      <trkpt lat="47.52855" lon="6.71308">
        <ele>353</ele>
        <time>2015-03-22T10:39:02.000Z</time>
      </trkpt>
      <trkpt lat="47.52857" lon="6.7131">
        <ele>354</ele>
        <time>2015-03-22T10:39:03.000Z</time>
      </trkpt>
      <trkpt lat="47.52859" lon="6.71312">
        <ele>354</ele>
        <time>2015-03-22T10:39:04.000Z</time>
      </trkpt>
      <trkpt lat="47.52861" lon="6.71313">
        <ele>353</ele>
        <time>2015-03-22T10:39:05.000Z</time>
      </trkpt>
      <trkpt lat="47.52865" lon="6.71315">
        <ele>353</ele>
        <time>2015-03-22T10:39:06.000Z</time>
      </trkpt>
      <trkpt lat="47.52869" lon="6.71317">
        <ele>353</ele>
        <time>2015-03-22T10:39:07.000Z</time>
      </trkpt>
      <trkpt lat="47.52873" lon="6.71319">
        <ele>353</ele>
        <time>2015-03-22T10:39:08.000Z</time>
      </trkpt>
      <trkpt lat="47.52876" lon="6.71321">
        <ele>352</ele>
        <time>2015-03-22T10:39:09.000Z</time>
      </trkpt>
      <trkpt lat="47.5288" lon="6.71323">
        <ele>352</ele>
        <time>2015-03-22T10:39:10.000Z</time>
      </trkpt>
      <trkpt lat="47.52883" lon="6.71325">
        <ele>352</ele>
        <time>2015-03-22T10:39:11.000Z</time>
      </trkpt>
      <trkpt lat="47.52886" lon="6.71328">
        <ele>352</ele>
        <time>2015-03-22T10:39:12.000Z</time>
      </trkpt>
      <trkpt lat="47.52888" lon="6.71332">
        <ele>351</ele>
        <time>2015-03-22T10:39:13.000Z</time>
      </trkpt>
      <trkpt lat="47.5289" lon="6.71335">
        <ele>355</ele>
        <time>2015-03-22T10:39:14.000Z</time>
      </trkpt>
      <trkpt lat="47.52892" lon="6.71341">
        <ele>355</ele>
        <time>2015-03-22T10:39:15.000Z</time>
      </trkpt>
      <trkpt lat="47.52895" lon="6.71345">
        <ele>355</ele>
        <time>2015-03-22T10:39:16.000Z</time>
      </trkpt>
      <trkpt lat="47.52898" lon="6.7135">
        <ele>355</ele>
        <time>2015-03-22T10:39:17.000Z</time>
      </trkpt>
      <trkpt lat="47.529" lon="6.71354">
        <ele>355</ele>
        <time>2015-03-22T10:39:18.000Z</time>
      </trkpt>
      <trkpt lat="47.52902" lon="6.71359">
        <ele>355</ele>
        <time>2015-03-22T10:39:19.000Z</time>
      </trkpt>
      <trkpt lat="47.52906" lon="6.71364">
        <ele>356</ele>
        <time>2015-03-22T10:39:20.000Z</time>
      </trkpt>
      <trkpt lat="47.52909" lon="6.7137">
        <ele>356</ele>
        <time>2015-03-22T10:39:21.000Z</time>
      </trkpt>
      <trkpt lat="47.52913" lon="6.71375">
        <ele>356</ele>
        <time>2015-03-22T10:39:22.000Z</time>
      </trkpt>
      <trkpt lat="47.52918" lon="6.7138">
        <ele>353</ele>
        <time>2015-03-22T10:39:23.000Z</time>
      </trkpt>
      <trkpt lat="47.52921" lon="6.71386">
        <ele>353</ele>
        <time>2015-03-22T10:39:24.000Z</time>
      </trkpt>
      <trkpt lat="47.52924" lon="6.71392">
        <ele>354</ele>
        <time>2015-03-22T10:39:25.000Z</time>
      </trkpt>
      <trkpt lat="47.52927" lon="6.71397">
        <ele>354</ele>
        <time>2015-03-22T10:39:26.000Z</time>
      </trkpt>
      <trkpt lat="47.52928" lon="6.71403">
        <ele>355</ele>
        <time>2015-03-22T10:39:27.000Z</time>
      </trkpt>
      <trkpt lat="47.52931" lon="6.71408">
        <ele>355</ele>
        <time>2015-03-22T10:39:28.000Z</time>
      </trkpt>
      <trkpt lat="47.52932" lon="6.71414">
        <ele>355</ele>
        <time>2015-03-22T10:39:29.000Z</time>
      </trkpt>
      <trkpt lat="47.52934" lon="6.7142">
        <ele>357</ele>
        <time>2015-03-22T10:39:30.000Z</time>
      </trkpt>
      <trkpt lat="47.5294" lon="6.71432">
        <ele>357</ele>
        <time>2015-03-22T10:39:31.000Z</time>
      </trkpt>
      <trkpt lat="47.52944" lon="6.71438">
        <ele>357</ele>
        <time>2015-03-22T10:39:32.000Z</time>
      </trkpt>
      <trkpt lat="47.5295" lon="6.71442">
        <ele>357</ele>
        <time>2015-03-22T10:39:33.000Z</time>
      </trkpt>
      <trkpt lat="47.52954" lon="6.71448">
        <ele>357</ele>
        <time>2015-03-22T10:39:34.000Z</time>
      </trkpt>
      <trkpt lat="47.52956" lon="6.71456">
        <ele>358</ele>
        <time>2015-03-22T10:39:35.000Z</time>
      </trkpt>
      <trkpt lat="47.52962" lon="6.71459">
        <ele>357</ele>
        <time>2015-03-22T10:39:36.000Z</time>
      </trkpt>
      <trkpt lat="47.52965" lon="6.71464">
        <ele>357</ele>
        <time>2015-03-22T10:39:37.000Z</time>
      </trkpt>
      <trkpt lat="47.52969" lon="6.71469">
        <ele>357</ele>
        <time>2015-03-22T10:39:38.000Z</time>
      </trkpt>
      <trkpt lat="47.52973" lon="6.71476">
        <ele>357</ele>
        <time>2015-03-22T10:39:39.000Z</time>
      </trkpt>
      <trkpt lat="47.52976" lon="6.71482">
        <ele>356</ele>
        <time>2015-03-22T10:39:40.000Z</time>
      </trkpt>
      <trkpt lat="47.5298" lon="6.71488">
        <ele>356</ele>
        <time>2015-03-22T10:39:41.000Z</time>
      </trkpt>
      <trkpt lat="47.5298" lon="6.71494">
        <ele>356</ele>
        <time>2015-03-22T10:39:42.000Z</time>
      </trkpt>
      <trkpt lat="47.52983" lon="6.71499">
        <ele>355</ele>
        <time>2015-03-22T10:39:43.000Z</time>
      </trkpt>
      <trkpt lat="47.52989" lon="6.71506">
        <ele>357</ele>
        <time>2015-03-22T10:39:44.000Z</time>
      </trkpt>
      <trkpt lat="47.52993" lon="6.71512">
        <ele>357</ele>
        <time>2015-03-22T10:39:45.000Z</time>
      </trkpt>
      <trkpt lat="47.52996" lon="6.71518">
        <ele>358</ele>
        <time>2015-03-22T10:39:46.000Z</time>
      </trkpt>
      <trkpt lat="47.53" lon="6.71521">
        <ele>358</ele>
        <time>2015-03-22T10:39:47.000Z</time>
      </trkpt>
      <trkpt lat="47.53005" lon="6.71528">
        <ele>353</ele>
        <time>2015-03-22T10:39:48.000Z</time>
      </trkpt>
      <trkpt lat="47.53009" lon="6.71535">
        <ele>353</ele>
        <time>2015-03-22T10:39:49.000Z</time>
      </trkpt>
      <trkpt lat="47.53011" lon="6.71541">
        <ele>353</ele>
        <time>2015-03-22T10:39:50.000Z</time>
      </trkpt>
      <trkpt lat="47.53014" lon="6.71545">
        <ele>353</ele>
        <time>2015-03-22T10:39:50.999Z</time>
      </trkpt>
      <trkpt lat="47.53018" lon="6.71549">
        <ele>353</ele>
        <time>2015-03-22T10:39:52.000Z</time>
      </trkpt>
      <trkpt lat="47.53023" lon="6.71557">
        <ele>353</ele>
        <time>2015-03-22T10:39:53.000Z</time>
      </trkpt>
      <trkpt lat="47.53027" lon="6.71561">
        <ele>353</ele>
        <time>2015-03-22T10:39:54.001Z</time>
      </trkpt>
      <trkpt lat="47.5303" lon="6.71572">
        <ele>353</ele>
        <time>2015-03-22T10:39:55.000Z</time>
      </trkpt>
      <trkpt lat="47.53032" lon="6.71579">
        <ele>353</ele>
        <time>2015-03-22T10:39:56.000Z</time>
      </trkpt>
      <trkpt lat="47.53035" lon="6.71589">
        <ele>355</ele>
        <time>2015-03-22T10:39:57.000Z</time>
      </trkpt>
      <trkpt lat="47.53037" lon="6.71597">
        <ele>354</ele>
        <time>2015-03-22T10:39:58.000Z</time>
      </trkpt>
      <trkpt lat="47.53043" lon="6.71607">
        <ele>354</ele>
        <time>2015-03-22T10:39:59.000Z</time>
      </trkpt>
      <trkpt lat="47.53044" lon="6.71615">
        <ele>354</ele>
        <time>2015-03-22T10:40:00.000Z</time>
      </trkpt>
      <trkpt lat="47.53045" lon="6.71624">
        <ele>355</ele>
        <time>2015-03-22T10:40:01.000Z</time>
      </trkpt>
      <trkpt lat="47.53047" lon="6.71629">
        <ele>355</ele>
        <time>2015-03-22T10:40:02.000Z</time>
      </trkpt>
      <trkpt lat="47.5305" lon="6.71633">
        <ele>354</ele>
        <time>2015-03-22T10:40:03.000Z</time>
      </trkpt>
      <trkpt lat="47.53053" lon="6.71639">
        <ele>354</ele>
        <time>2015-03-22T10:40:04.000Z</time>
      </trkpt>
      <trkpt lat="47.53061" lon="6.71644">
        <ele>353</ele>
        <time>2015-03-22T10:40:05.000Z</time>
      </trkpt>
      <trkpt lat="47.53062" lon="6.7165">
        <ele>353</ele>
        <time>2015-03-22T10:40:06.000Z</time>
      </trkpt>
      <trkpt lat="47.53066" lon="6.71655">
        <ele>352</ele>
        <time>2015-03-22T10:40:07.000Z</time>
      </trkpt>
      <trkpt lat="47.53069" lon="6.7166">
        <ele>351</ele>
        <time>2015-03-22T10:40:08.000Z</time>
      </trkpt>
      <trkpt lat="47.53075" lon="6.71665">
        <ele>350</ele>
        <time>2015-03-22T10:40:09.000Z</time>
      </trkpt>
      <trkpt lat="47.53079" lon="6.71667">
        <ele>349</ele>
        <time>2015-03-22T10:40:10.000Z</time>
      </trkpt>
      <trkpt lat="47.53083" lon="6.71666">
        <ele>347</ele>
        <time>2015-03-22T10:40:11.000Z</time>
      </trkpt>
      <trkpt lat="47.53088" lon="6.71665">
        <ele>348</ele>
        <time>2015-03-22T10:40:12.000Z</time>
      </trkpt>
      <trkpt lat="47.53093" lon="6.71662">
        <ele>348</ele>
        <time>2015-03-22T10:40:13.000Z</time>
      </trkpt>
      <trkpt lat="47.53098" lon="6.7166">
        <ele>348</ele>
        <time>2015-03-22T10:40:14.000Z</time>
      </trkpt>
      <trkpt lat="47.53102" lon="6.71655">
        <ele>349</ele>
        <time>2015-03-22T10:40:15.000Z</time>
      </trkpt>
      <trkpt lat="47.53107" lon="6.71651">
        <ele>349</ele>
        <time>2015-03-22T10:40:16.000Z</time>
      </trkpt>
      <trkpt lat="47.53112" lon="6.71646">
        <ele>349</ele>
        <time>2015-03-22T10:40:17.000Z</time>
      </trkpt>
      <trkpt lat="47.53117" lon="6.71641">
        <ele>349</ele>
        <time>2015-03-22T10:40:18.000Z</time>
      </trkpt>
      <trkpt lat="47.53118" lon="6.71639">
        <ele>349</ele>
        <time>2015-03-22T10:40:19.000Z</time>
      </trkpt>
      <trkpt lat="47.53121" lon="6.71636">
        <ele>350</ele>
        <time>2015-03-22T10:40:20.000Z</time>
      </trkpt>
      <trkpt lat="47.53123" lon="6.71633">
        <ele>350</ele>
        <time>2015-03-22T10:40:20.999Z</time>
      </trkpt>
      <trkpt lat="47.53128" lon="6.71644">
        <ele>350</ele>
        <time>2015-03-22T10:40:22.000Z</time>
      </trkpt>
      <trkpt lat="47.5313" lon="6.7165">
        <ele>350</ele>
        <time>2015-03-22T10:40:23.000Z</time>
      </trkpt>
      <trkpt lat="47.53132" lon="6.71657">
        <ele>349</ele>
        <time>2015-03-22T10:40:24.000Z</time>
      </trkpt>
      <trkpt lat="47.53134" lon="6.71662">
        <ele>349</ele>
        <time>2015-03-22T10:40:25.000Z</time>
      </trkpt>
      <trkpt lat="47.53139" lon="6.71667">
        <ele>349</ele>
        <time>2015-03-22T10:40:26.000Z</time>
      </trkpt>
      <trkpt lat="47.53144" lon="6.71674">
        <ele>348</ele>
        <time>2015-03-22T10:40:27.000Z</time>
      </trkpt>
      <trkpt lat="47.53148" lon="6.7168">
        <ele>348</ele>
        <time>2015-03-22T10:40:28.000Z</time>
      </trkpt>
      <trkpt lat="47.53151" lon="6.71687">
        <ele>348</ele>
        <time>2015-03-22T10:40:29.000Z</time>
      </trkpt>
      <trkpt lat="47.53154" lon="6.71693">
        <ele>348</ele>
        <time>2015-03-22T10:40:30.000Z</time>
      </trkpt>
      <trkpt lat="47.53158" lon="6.71701">
        <ele>348</ele>
        <time>2015-03-22T10:40:31.000Z</time>
      </trkpt>
      <trkpt lat="47.53162" lon="6.71709">
        <ele>347</ele>
        <time>2015-03-22T10:40:32.000Z</time>
      </trkpt>
      <trkpt lat="47.53166" lon="6.71715">
        <ele>347</ele>
        <time>2015-03-22T10:40:33.000Z</time>
      </trkpt>
      <trkpt lat="47.53171" lon="6.71722">
        <ele>348</ele>
        <time>2015-03-22T10:40:34.000Z</time>
      </trkpt>
      <trkpt lat="47.53174" lon="6.71731">
        <ele>347</ele>
        <time>2015-03-22T10:40:35.000Z</time>
      </trkpt>
      <trkpt lat="47.53177" lon="6.71735">
        <ele>347</ele>
        <time>2015-03-22T10:40:36.000Z</time>
      </trkpt>
      <trkpt lat="47.53181" lon="6.71742">
        <ele>347</ele>
        <time>2015-03-22T10:40:37.000Z</time>
      </trkpt>
      <trkpt lat="47.53186" lon="6.71749">
        <ele>347</ele>
        <time>2015-03-22T10:40:38.000Z</time>
      </trkpt>
      <trkpt lat="47.5319" lon="6.71756">
        <ele>345</ele>
        <time>2015-03-22T10:40:39.000Z</time>
      </trkpt>
      <trkpt lat="47.53194" lon="6.71762">
        <ele>345</ele>
        <time>2015-03-22T10:40:40.000Z</time>
      </trkpt>
      <trkpt lat="47.53199" lon="6.71767">
        <ele>345</ele>
        <time>2015-03-22T10:40:41.000Z</time>
      </trkpt>
      <trkpt lat="47.53201" lon="6.71773">
        <ele>345</ele>
        <time>2015-03-22T10:40:42.000Z</time>
      </trkpt>
      <trkpt lat="47.53206" lon="6.71774">
        <ele>346</ele>
        <time>2015-03-22T10:40:43.000Z</time>
      </trkpt>
      <trkpt lat="47.5321" lon="6.71776">
        <ele>346</ele>
        <time>2015-03-22T10:40:44.000Z</time>
      </trkpt>
      <trkpt lat="47.53215" lon="6.71779">
        <ele>346</ele>
        <time>2015-03-22T10:40:45.000Z</time>
      </trkpt>
      <trkpt lat="47.5322" lon="6.71781">
        <ele>346</ele>
        <time>2015-03-22T10:40:46.000Z</time>
      </trkpt>
      <trkpt lat="47.53225" lon="6.71784">
        <ele>346</ele>
        <time>2015-03-22T10:40:47.000Z</time>
      </trkpt>
      <trkpt lat="47.5323" lon="6.71786">
        <ele>346</ele>
        <time>2015-03-22T10:40:48.000Z</time>
      </trkpt>
      <trkpt lat="47.53233" lon="6.71791">
        <ele>346</ele>
        <time>2015-03-22T10:40:49.000Z</time>
      </trkpt>
      <trkpt lat="47.53236" lon="6.71794">
        <ele>346</ele>
        <time>2015-03-22T10:40:50.000Z</time>
      </trkpt>
      <trkpt lat="47.53238" lon="6.71797">
        <ele>346</ele>
        <time>2015-03-22T10:40:51.000Z</time>
      </trkpt>
      <trkpt lat="47.53237" lon="6.71808">
        <ele>346</ele>
        <time>2015-03-22T10:40:52.000Z</time>
      </trkpt>
      <trkpt lat="47.53235" lon="6.71812">
        <ele>346</ele>
        <time>2015-03-22T10:40:53.000Z</time>
      </trkpt>
      <trkpt lat="47.53232" lon="6.71818">
        <ele>346</ele>
        <time>2015-03-22T10:40:54.000Z</time>
      </trkpt>
      <trkpt lat="47.53234" lon="6.71821">
        <ele>347</ele>
        <time>2015-03-22T10:40:55.000Z</time>
      </trkpt>
      <trkpt lat="47.5323" lon="6.71826">
        <ele>346</ele>
        <time>2015-03-22T10:40:56.000Z</time>
      </trkpt>
      <trkpt lat="47.53229" lon="6.71829">
        <ele>346</ele>
        <time>2015-03-22T10:40:57.000Z</time>
      </trkpt>
      <trkpt lat="47.53228" lon="6.71832">
        <ele>346</ele>
        <time>2015-03-22T10:40:58.000Z</time>
      </trkpt>
      <trkpt lat="47.53226" lon="6.71837">
        <ele>347</ele>
        <time>2015-03-22T10:41:00.000Z</time>
      </trkpt>
      <trkpt lat="47.53226" lon="6.7184">
        <ele>347</ele>
        <time>2015-03-22T10:41:01.000Z</time>
      </trkpt>
      <trkpt lat="47.53225" lon="6.71845">
        <ele>347</ele>
        <time>2015-03-22T10:41:03.000Z</time>
      </trkpt>
      <trkpt lat="47.53224" lon="6.71849">
        <ele>347</ele>
        <time>2015-03-22T10:41:04.000Z</time>
      </trkpt>
      <trkpt lat="47.53224" lon="6.71855">
        <ele>347</ele>
        <time>2015-03-22T10:41:06.000Z</time>
      </trkpt>
      <trkpt lat="47.53224" lon="6.71858">
        <ele>347</ele>
        <time>2015-03-22T10:41:07.000Z</time>
      </trkpt>
      <trkpt lat="47.53224" lon="6.71863">
        <ele>347</ele>
        <time>2015-03-22T10:41:09.000Z</time>
      </trkpt>
      <trkpt lat="47.53224" lon="6.71865">
        <ele>347</ele>
        <time>2015-03-22T10:41:10.000Z</time>
      </trkpt>
      <trkpt lat="47.53224" lon="6.71872">
        <ele>347</ele>
        <time>2015-03-22T10:41:12.000Z</time>
      </trkpt>
      <trkpt lat="47.53224" lon="6.71875">
        <ele>348</ele>
        <time>2015-03-22T10:41:13.000Z</time>
      </trkpt>
      <trkpt lat="47.53224" lon="6.71882">
        <ele>348</ele>
        <time>2015-03-22T10:41:15.000Z</time>
      </trkpt>
      <trkpt lat="47.53224" lon="6.71885">
        <ele>348</ele>
        <time>2015-03-22T10:41:16.000Z</time>
      </trkpt>
      <trkpt lat="47.53225" lon="6.71891">
        <ele>348</ele>
        <time>2015-03-22T10:41:18.000Z</time>
      </trkpt>
      <trkpt lat="47.53224" lon="6.71895">
        <ele>348</ele>
        <time>2015-03-22T10:41:19.000Z</time>
      </trkpt>
      <trkpt lat="47.53224" lon="6.71899">
        <ele>348</ele>
        <time>2015-03-22T10:41:20.000Z</time>
      </trkpt>
      <trkpt lat="47.53224" lon="6.71903">
        <ele>348</ele>
        <time>2015-03-22T10:41:21.000Z</time>
      </trkpt>
      <trkpt lat="47.53225" lon="6.71907">
        <ele>349</ele>
        <time>2015-03-22T10:41:22.000Z</time>
      </trkpt>
      <trkpt lat="47.53226" lon="6.7191">
        <ele>349</ele>
        <time>2015-03-22T10:41:23.000Z</time>
      </trkpt>
      <trkpt lat="47.53227" lon="6.71913">
        <ele>349</ele>
        <time>2015-03-22T10:41:24.000Z</time>
      </trkpt>
      <trkpt lat="47.53228" lon="6.71916">
        <ele>349</ele>
        <time>2015-03-22T10:41:25.000Z</time>
      </trkpt>
      <trkpt lat="47.53232" lon="6.71919">
        <ele>351</ele>
        <time>2015-03-22T10:41:27.000Z</time>
      </trkpt>
      <trkpt lat="47.53234" lon="6.71919">
        <ele>351</ele>
        <time>2015-03-22T10:41:28.000Z</time>
      </trkpt>
      <trkpt lat="47.53238" lon="6.71918">
        <ele>351</ele>
        <time>2015-03-22T10:41:30.000Z</time>
      </trkpt>
      <trkpt lat="47.5324" lon="6.71917">
        <ele>351</ele>
        <time>2015-03-22T10:41:31.000Z</time>
      </trkpt>
      <trkpt lat="47.53243" lon="6.71915">
        <ele>351</ele>
        <time>2015-03-22T10:41:33.000Z</time>
      </trkpt>
      <trkpt lat="47.53245" lon="6.71914">
        <ele>351</ele>
        <time>2015-03-22T10:41:34.000Z</time>
      </trkpt>
      <trkpt lat="47.53249" lon="6.71913">
        <ele>351</ele>
        <time>2015-03-22T10:41:36.000Z</time>
      </trkpt>
      <trkpt lat="47.5325" lon="6.71913">
        <ele>351</ele>
        <time>2015-03-22T10:41:37.000Z</time>
      </trkpt>
      <trkpt lat="47.53253" lon="6.71913">
        <ele>352</ele>
        <time>2015-03-22T10:41:39.000Z</time>
      </trkpt>
      <trkpt lat="47.53255" lon="6.71914">
        <ele>352</ele>
        <time>2015-03-22T10:41:40.000Z</time>
      </trkpt>
      <trkpt lat="47.53258" lon="6.71914">
        <ele>353</ele>
        <time>2015-03-22T10:41:41.000Z</time>
      </trkpt>
      <trkpt lat="47.5326" lon="6.71915">
        <ele>353</ele>
        <time>2015-03-22T10:41:42.000Z</time>
      </trkpt>
      <trkpt lat="47.53263" lon="6.71917">
        <ele>353</ele>
        <time>2015-03-22T10:41:43.000Z</time>
      </trkpt>
      <trkpt lat="47.53264" lon="6.71917">
        <ele>354</ele>
        <time>2015-03-22T10:41:44.000Z</time>
      </trkpt>
      <trkpt lat="47.53269" lon="6.71919">
        <ele>354</ele>
        <time>2015-03-22T10:41:46.000Z</time>
      </trkpt>
      <trkpt lat="47.5327" lon="6.7192">
        <ele>354</ele>
        <time>2015-03-22T10:41:47.000Z</time>
      </trkpt>
      <trkpt lat="47.53274" lon="6.71923">
        <ele>355</ele>
        <time>2015-03-22T10:41:49.000Z</time>
      </trkpt>
      <trkpt lat="47.53276" lon="6.71925">
        <ele>355</ele>
        <time>2015-03-22T10:41:50.000Z</time>
      </trkpt>
      <trkpt lat="47.53278" lon="6.71928">
        <ele>355</ele>
        <time>2015-03-22T10:41:52.000Z</time>
      </trkpt>
      <trkpt lat="47.53279" lon="6.7193">
        <ele>355</ele>
        <time>2015-03-22T10:41:53.000Z</time>
      </trkpt>
      <trkpt lat="47.53281" lon="6.71931">
        <ele>355</ele>
        <time>2015-03-22T10:41:54.000Z</time>
      </trkpt>
      <trkpt lat="47.53284" lon="6.71933">
        <ele>355</ele>
        <time>2015-03-22T10:41:55.000Z</time>
      </trkpt>
      <trkpt lat="47.53287" lon="6.71934">
        <ele>355</ele>
        <time>2015-03-22T10:41:56.000Z</time>
      </trkpt>
      <trkpt lat="47.5329" lon="6.71936">
        <ele>356</ele>
        <time>2015-03-22T10:41:57.000Z</time>
      </trkpt>
      <trkpt lat="47.53293" lon="6.71937">
        <ele>356</ele>
        <time>2015-03-22T10:41:58.000Z</time>
      </trkpt>
      <trkpt lat="47.53295" lon="6.71939">
        <ele>356</ele>
        <time>2015-03-22T10:41:59.000Z</time>
      </trkpt>
      <trkpt lat="47.53297" lon="6.71942">
        <ele>356</ele>
        <time>2015-03-22T10:42:01.000Z</time>
      </trkpt>
      <trkpt lat="47.53297" lon="6.71945">
        <ele>356</ele>
        <time>2015-03-22T10:42:02.000Z</time>
      </trkpt>
      <trkpt lat="47.53297" lon="6.71948">
        <ele>356</ele>
        <time>2015-03-22T10:42:03.000Z</time>
      </trkpt>
      <trkpt lat="47.53297" lon="6.71952">
        <ele>356</ele>
        <time>2015-03-22T10:42:04.000Z</time>
      </trkpt>
      <trkpt lat="47.53296" lon="6.71955">
        <ele>356</ele>
        <time>2015-03-22T10:42:05.000Z</time>
      </trkpt>
      <trkpt lat="47.53296" lon="6.71959">
        <ele>356</ele>
        <time>2015-03-22T10:42:06.000Z</time>
      </trkpt>
      <trkpt lat="47.53295" lon="6.71963">
        <ele>356</ele>
        <time>2015-03-22T10:42:07.000Z</time>
      </trkpt>
      <trkpt lat="47.53295" lon="6.71967">
        <ele>356</ele>
        <time>2015-03-22T10:42:08.000Z</time>
      </trkpt>
      <trkpt lat="47.53294" lon="6.71973">
        <ele>356</ele>
        <time>2015-03-22T10:42:09.000Z</time>
      </trkpt>
      <trkpt lat="47.53294" lon="6.71978">
        <ele>356</ele>
        <time>2015-03-22T10:42:10.000Z</time>
      </trkpt>
      <trkpt lat="47.53294" lon="6.71984">
        <ele>356</ele>
        <time>2015-03-22T10:42:11.000Z</time>
      </trkpt>
      <trkpt lat="47.53295" lon="6.71988">
        <ele>356</ele>
        <time>2015-03-22T10:42:12.000Z</time>
      </trkpt>
      <trkpt lat="47.53296" lon="6.71992">
        <ele>356</ele>
        <time>2015-03-22T10:42:13.000Z</time>
      </trkpt>
      <trkpt lat="47.53297" lon="6.71996">
        <ele>356</ele>
        <time>2015-03-22T10:42:14.000Z</time>
      </trkpt>
      <trkpt lat="47.53299" lon="6.72">
        <ele>356</ele>
        <time>2015-03-22T10:42:15.000Z</time>
      </trkpt>
      <trkpt lat="47.53301" lon="6.72004">
        <ele>356</ele>
        <time>2015-03-22T10:42:16.000Z</time>
      </trkpt>
      <trkpt lat="47.53303" lon="6.72008">
        <ele>356</ele>
        <time>2015-03-22T10:42:17.000Z</time>
      </trkpt>
      <trkpt lat="47.53306" lon="6.72013">
        <ele>356</ele>
        <time>2015-03-22T10:42:18.000Z</time>
      </trkpt>
      <trkpt lat="47.53308" lon="6.72017">
        <ele>357</ele>
        <time>2015-03-22T10:42:19.000Z</time>
      </trkpt>
      <trkpt lat="47.5331" lon="6.7202">
        <ele>357</ele>
        <time>2015-03-22T10:42:20.000Z</time>
      </trkpt>
      <trkpt lat="47.53312" lon="6.72023">
        <ele>357</ele>
        <time>2015-03-22T10:42:21.000Z</time>
      </trkpt>
      <trkpt lat="47.53315" lon="6.72026">
        <ele>357</ele>
        <time>2015-03-22T10:42:22.000Z</time>
      </trkpt>
      <trkpt lat="47.53318" lon="6.72029">
        <ele>357</ele>
        <time>2015-03-22T10:42:23.000Z</time>
      </trkpt>
      <trkpt lat="47.53321" lon="6.72032">
        <ele>357</ele>
        <time>2015-03-22T10:42:24.000Z</time>
      </trkpt>
      <trkpt lat="47.53325" lon="6.72035">
        <ele>357</ele>
        <time>2015-03-22T10:42:25.000Z</time>
      </trkpt>
      <trkpt lat="47.53329" lon="6.72038">
        <ele>357</ele>
        <time>2015-03-22T10:42:26.000Z</time>
      </trkpt>
      <trkpt lat="47.53332" lon="6.72042">
        <ele>357</ele>
        <time>2015-03-22T10:42:27.000Z</time>
      </trkpt>
      <trkpt lat="47.53336" lon="6.72045">
        <ele>358</ele>
        <time>2015-03-22T10:42:28.000Z</time>
      </trkpt>
      <trkpt lat="47.53339" lon="6.72049">
        <ele>358</ele>
        <time>2015-03-22T10:42:29.000Z</time>
      </trkpt>
      <trkpt lat="47.53345" lon="6.72052">
        <ele>358</ele>
        <time>2015-03-22T10:42:30.000Z</time>
      </trkpt>
      <trkpt lat="47.53349" lon="6.72056">
        <ele>358</ele>
        <time>2015-03-22T10:42:31.000Z</time>
      </trkpt>
      <trkpt lat="47.53352" lon="6.7206">
        <ele>358</ele>
        <time>2015-03-22T10:42:32.000Z</time>
      </trkpt>
      <trkpt lat="47.53355" lon="6.72065">
        <ele>358</ele>
        <time>2015-03-22T10:42:33.000Z</time>
      </trkpt>
      <trkpt lat="47.53358" lon="6.72072">
        <ele>358</ele>
        <time>2015-03-22T10:42:34.000Z</time>
      </trkpt>
      <trkpt lat="47.53361" lon="6.72079">
        <ele>358</ele>
        <time>2015-03-22T10:42:35.000Z</time>
      </trkpt>
      <trkpt lat="47.53363" lon="6.72086">
        <ele>357</ele>
        <time>2015-03-22T10:42:35.999Z</time>
      </trkpt>
      <trkpt lat="47.53364" lon="6.72094">
        <ele>356</ele>
        <time>2015-03-22T10:42:37.000Z</time>
      </trkpt>
      <trkpt lat="47.53364" lon="6.72102">
        <ele>356</ele>
        <time>2015-03-22T10:42:38.000Z</time>
      </trkpt>
      <trkpt lat="47.53365" lon="6.72109">
        <ele>356</ele>
        <time>2015-03-22T10:42:39.000Z</time>
      </trkpt>
      <trkpt lat="47.53364" lon="6.72116">
        <ele>356</ele>
        <time>2015-03-22T10:42:40.000Z</time>
      </trkpt>
      <trkpt lat="47.53365" lon="6.72123">
        <ele>356</ele>
        <time>2015-03-22T10:42:41.000Z</time>
      </trkpt>
      <trkpt lat="47.53365" lon="6.72129">
        <ele>356</ele>
        <time>2015-03-22T10:42:42.000Z</time>
      </trkpt>
      <trkpt lat="47.53364" lon="6.72136">
        <ele>356</ele>
        <time>2015-03-22T10:42:43.000Z</time>
      </trkpt>
      <trkpt lat="47.53362" lon="6.72143">
        <ele>356</ele>
        <time>2015-03-22T10:42:44.000Z</time>
      </trkpt>
      <trkpt lat="47.5336" lon="6.72151">
        <ele>356</ele>
        <time>2015-03-22T10:42:45.000Z</time>
      </trkpt>
      <trkpt lat="47.53358" lon="6.72158">
        <ele>356</ele>
        <time>2015-03-22T10:42:46.000Z</time>
      </trkpt>
      <trkpt lat="47.53356" lon="6.72165">
        <ele>355</ele>
        <time>2015-03-22T10:42:47.000Z</time>
      </trkpt>
      <trkpt lat="47.53354" lon="6.72171">
        <ele>355</ele>
        <time>2015-03-22T10:42:48.000Z</time>
      </trkpt>
      <trkpt lat="47.53352" lon="6.72179">
        <ele>355</ele>
        <time>2015-03-22T10:42:49.000Z</time>
      </trkpt>
      <trkpt lat="47.53349" lon="6.72186">
        <ele>355</ele>
        <time>2015-03-22T10:42:50.000Z</time>
      </trkpt>
      <trkpt lat="47.53345" lon="6.72195">
        <ele>355</ele>
        <time>2015-03-22T10:42:51.000Z</time>
      </trkpt>
      <trkpt lat="47.53341" lon="6.72201">
        <ele>355</ele>
        <time>2015-03-22T10:42:52.000Z</time>
      </trkpt>
      <trkpt lat="47.53337" lon="6.72205">
        <ele>355</ele>
        <time>2015-03-22T10:42:53.000Z</time>
      </trkpt>
      <trkpt lat="47.53334" lon="6.7221">
        <ele>355</ele>
        <time>2015-03-22T10:42:54.000Z</time>
      </trkpt>
      <trkpt lat="47.53331" lon="6.72215">
        <ele>353</ele>
        <time>2015-03-22T10:42:55.000Z</time>
      </trkpt>
      <trkpt lat="47.53328" lon="6.72221">
        <ele>353</ele>
        <time>2015-03-22T10:42:56.000Z</time>
      </trkpt>
      <trkpt lat="47.53326" lon="6.72228">
        <ele>353</ele>
        <time>2015-03-22T10:42:57.000Z</time>
      </trkpt>
      <trkpt lat="47.53325" lon="6.72232">
        <ele>354</ele>
        <time>2015-03-22T10:42:58.000Z</time>
      </trkpt>
      <trkpt lat="47.53325" lon="6.72235">
        <ele>354</ele>
        <time>2015-03-22T10:42:59.000Z</time>
      </trkpt>
      <trkpt lat="47.53323" lon="6.7224">
        <ele>354</ele>
        <time>2015-03-22T10:43:00.000Z</time>
      </trkpt>
      <trkpt lat="47.53321" lon="6.72245">
        <ele>354</ele>
        <time>2015-03-22T10:43:01.000Z</time>
      </trkpt>
      <trkpt lat="47.5332" lon="6.72252">
        <ele>354</ele>
        <time>2015-03-22T10:43:02.000Z</time>
      </trkpt>
      <trkpt lat="47.53318" lon="6.72257">
        <ele>354</ele>
        <time>2015-03-22T10:43:03.000Z</time>
      </trkpt>
      <trkpt lat="47.53318" lon="6.72262">
        <ele>354</ele>
        <time>2015-03-22T10:43:04.000Z</time>
      </trkpt>
      <trkpt lat="47.53318" lon="6.72267">
        <ele>354</ele>
        <time>2015-03-22T10:43:05.000Z</time>
      </trkpt>
      <trkpt lat="47.53316" lon="6.72271">
        <ele>354</ele>
        <time>2015-03-22T10:43:06.000Z</time>
      </trkpt>
      <trkpt lat="47.53315" lon="6.72277">
        <ele>354</ele>
        <time>2015-03-22T10:43:07.000Z</time>
      </trkpt>
      <trkpt lat="47.53314" lon="6.72282">
        <ele>354</ele>
        <time>2015-03-22T10:43:08.000Z</time>
      </trkpt>
      <trkpt lat="47.53313" lon="6.72288">
        <ele>355</ele>
        <time>2015-03-22T10:43:09.000Z</time>
      </trkpt>
      <trkpt lat="47.53313" lon="6.72294">
        <ele>355</ele>
        <time>2015-03-22T10:43:10.000Z</time>
      </trkpt>
      <trkpt lat="47.53313" lon="6.72299">
        <ele>355</ele>
        <time>2015-03-22T10:43:11.000Z</time>
      </trkpt>
      <trkpt lat="47.53313" lon="6.72304">
        <ele>355</ele>
        <time>2015-03-22T10:43:12.000Z</time>
      </trkpt>
      <trkpt lat="47.53314" lon="6.72309">
        <ele>355</ele>
        <time>2015-03-22T10:43:13.000Z</time>
      </trkpt>
      <trkpt lat="47.53316" lon="6.72315">
        <ele>355</ele>
        <time>2015-03-22T10:43:14.000Z</time>
      </trkpt>
      <trkpt lat="47.53316" lon="6.72322">
        <ele>355</ele>
        <time>2015-03-22T10:43:15.000Z</time>
      </trkpt>
      <trkpt lat="47.53317" lon="6.72328">
        <ele>355</ele>
        <time>2015-03-22T10:43:16.000Z</time>
      </trkpt>
      <trkpt lat="47.53318" lon="6.72335">
        <ele>356</ele>
        <time>2015-03-22T10:43:17.000Z</time>
      </trkpt>
      <trkpt lat="47.53319" lon="6.72342">
        <ele>356</ele>
        <time>2015-03-22T10:43:17.998Z</time>
      </trkpt>
      <trkpt lat="47.53321" lon="6.72347">
        <ele>355</ele>
        <time>2015-03-22T10:43:19.000Z</time>
      </trkpt>
      <trkpt lat="47.53322" lon="6.72354">
        <ele>355</ele>
        <time>2015-03-22T10:43:20.000Z</time>
      </trkpt>
      <trkpt lat="47.53323" lon="6.7236">
        <ele>355</ele>
        <time>2015-03-22T10:43:21.000Z</time>
      </trkpt>
      <trkpt lat="47.53324" lon="6.72366">
        <ele>355</ele>
        <time>2015-03-22T10:43:22.000Z</time>
      </trkpt>
      <trkpt lat="47.53324" lon="6.72372">
        <ele>355</ele>
        <time>2015-03-22T10:43:23.000Z</time>
      </trkpt>
      <trkpt lat="47.53324" lon="6.72378">
        <ele>355</ele>
        <time>2015-03-22T10:43:24.000Z</time>
      </trkpt>
      <trkpt lat="47.53324" lon="6.72384">
        <ele>355</ele>
        <time>2015-03-22T10:43:24.999Z</time>
      </trkpt>
      <trkpt lat="47.53321" lon="6.72396">
        <ele>355</ele>
        <time>2015-03-22T10:43:26.000Z</time>
      </trkpt>
      <trkpt lat="47.53319" lon="6.72405">
        <ele>355</ele>
        <time>2015-03-22T10:43:27.000Z</time>
      </trkpt>
      <trkpt lat="47.53319" lon="6.72414">
        <ele>355</ele>
        <time>2015-03-22T10:43:28.000Z</time>
      </trkpt>
      <trkpt lat="47.53319" lon="6.72424">
        <ele>354</ele>
        <time>2015-03-22T10:43:29.000Z</time>
      </trkpt>
      <trkpt lat="47.53318" lon="6.72435">
        <ele>353</ele>
        <time>2015-03-22T10:43:30.000Z</time>
      </trkpt>
      <trkpt lat="47.53319" lon="6.72444">
        <ele>353</ele>
        <time>2015-03-22T10:43:31.000Z</time>
      </trkpt>
      <trkpt lat="47.53321" lon="6.72452">
        <ele>353</ele>
        <time>2015-03-22T10:43:32.000Z</time>
      </trkpt>
      <trkpt lat="47.53324" lon="6.7246">
        <ele>352</ele>
        <time>2015-03-22T10:43:33.000Z</time>
      </trkpt>
      <trkpt lat="47.5333" lon="6.72468">
        <ele>352</ele>
        <time>2015-03-22T10:43:34.000Z</time>
      </trkpt>
      <trkpt lat="47.53335" lon="6.72475">
        <ele>351</ele>
        <time>2015-03-22T10:43:35.000Z</time>
      </trkpt>
      <trkpt lat="47.53339" lon="6.72485">
        <ele>351</ele>
        <time>2015-03-22T10:43:36.000Z</time>
      </trkpt>
      <trkpt lat="47.53345" lon="6.72491">
        <ele>351</ele>
        <time>2015-03-22T10:43:37.000Z</time>
      </trkpt>
      <trkpt lat="47.5335" lon="6.72494">
        <ele>351</ele>
        <time>2015-03-22T10:43:38.000Z</time>
      </trkpt>
      <trkpt lat="47.53353" lon="6.72496">
        <ele>351</ele>
        <time>2015-03-22T10:43:40.000Z</time>
      </trkpt>
      <trkpt lat="47.53356" lon="6.72498">
        <ele>351</ele>
        <time>2015-03-22T10:43:41.000Z</time>
      </trkpt>
      <trkpt lat="47.53363" lon="6.72499">
        <ele>351</ele>
        <time>2015-03-22T10:43:42.000Z</time>
      </trkpt>
      <trkpt lat="47.53373" lon="6.72499">
        <ele>350</ele>
        <time>2015-03-22T10:43:43.000Z</time>
      </trkpt>
      <trkpt lat="47.53381" lon="6.725">
        <ele>347</ele>
        <time>2015-03-22T10:43:44.000Z</time>
      </trkpt>
      <trkpt lat="47.53389" lon="6.72501">
        <ele>346</ele>
        <time>2015-03-22T10:43:44.998Z</time>
      </trkpt>
      <trkpt lat="47.53395" lon="6.72508">
        <ele>346</ele>
        <time>2015-03-22T10:43:46.000Z</time>
      </trkpt>
      <trkpt lat="47.53403" lon="6.72514">
        <ele>346</ele>
        <time>2015-03-22T10:43:47.000Z</time>
      </trkpt>
      <trkpt lat="47.53409" lon="6.72518">
        <ele>346</ele>
        <time>2015-03-22T10:43:48.000Z</time>
      </trkpt>
      <trkpt lat="47.53415" lon="6.72525">
        <ele>346</ele>
        <time>2015-03-22T10:43:49.000Z</time>
      </trkpt>
      <trkpt lat="47.5342" lon="6.72533">
        <ele>346</ele>
        <time>2015-03-22T10:43:50.000Z</time>
      </trkpt>
      <trkpt lat="47.53425" lon="6.72539">
        <ele>345</ele>
        <time>2015-03-22T10:43:51.000Z</time>
      </trkpt>
      <trkpt lat="47.5343" lon="6.72546">
        <ele>345</ele>
        <time>2015-03-22T10:43:52.000Z</time>
      </trkpt>
      <trkpt lat="47.53434" lon="6.72552">
        <ele>345</ele>
        <time>2015-03-22T10:43:53.000Z</time>
      </trkpt>
      <trkpt lat="47.53438" lon="6.7256">
        <ele>345</ele>
        <time>2015-03-22T10:43:54.000Z</time>
      </trkpt>
      <trkpt lat="47.53442" lon="6.72566">
        <ele>345</ele>
        <time>2015-03-22T10:43:55.001Z</time>
      </trkpt>
      <trkpt lat="47.53446" lon="6.72573">
        <ele>344</ele>
        <time>2015-03-22T10:43:56.000Z</time>
      </trkpt>
      <trkpt lat="47.53448" lon="6.72579">
        <ele>344</ele>
        <time>2015-03-22T10:43:57.000Z</time>
      </trkpt>
      <trkpt lat="47.53451" lon="6.72586">
        <ele>343</ele>
        <time>2015-03-22T10:43:58.000Z</time>
      </trkpt>
      <trkpt lat="47.53454" lon="6.72594">
        <ele>343</ele>
        <time>2015-03-22T10:43:59.000Z</time>
      </trkpt>
      <trkpt lat="47.53456" lon="6.72599">
        <ele>343</ele>
        <time>2015-03-22T10:44:00.000Z</time>
      </trkpt>
      <trkpt lat="47.5346" lon="6.72605">
        <ele>343</ele>
        <time>2015-03-22T10:44:01.000Z</time>
      </trkpt>
      <trkpt lat="47.53462" lon="6.72609">
        <ele>343</ele>
        <time>2015-03-22T10:44:02.000Z</time>
      </trkpt>
      <trkpt lat="47.53464" lon="6.72616">
        <ele>343</ele>
        <time>2015-03-22T10:44:03.000Z</time>
      </trkpt>
      <trkpt lat="47.53467" lon="6.72622">
        <ele>343</ele>
        <time>2015-03-22T10:44:04.000Z</time>
      </trkpt>
      <trkpt lat="47.53469" lon="6.72627">
        <ele>344</ele>
        <time>2015-03-22T10:44:05.000Z</time>
      </trkpt>
      <trkpt lat="47.53471" lon="6.72633">
        <ele>344</ele>
        <time>2015-03-22T10:44:06.000Z</time>
      </trkpt>
      <trkpt lat="47.53473" lon="6.72638">
        <ele>344</ele>
        <time>2015-03-22T10:44:07.000Z</time>
      </trkpt>
      <trkpt lat="47.53475" lon="6.72642">
        <ele>344</ele>
        <time>2015-03-22T10:44:08.000Z</time>
      </trkpt>
      <trkpt lat="47.53477" lon="6.72644">
        <ele>344</ele>
        <time>2015-03-22T10:44:09.000Z</time>
      </trkpt>
      <trkpt lat="47.53479" lon="6.72648">
        <ele>344</ele>
        <time>2015-03-22T10:44:10.000Z</time>
      </trkpt>
      <trkpt lat="47.53481" lon="6.72653">
        <ele>344</ele>
        <time>2015-03-22T10:44:11.000Z</time>
      </trkpt>
      <trkpt lat="47.53482" lon="6.72658">
        <ele>344</ele>
        <time>2015-03-22T10:44:12.000Z</time>
      </trkpt>
      <trkpt lat="47.53483" lon="6.72664">
        <ele>344</ele>
        <time>2015-03-22T10:44:13.000Z</time>
      </trkpt>
      <trkpt lat="47.53484" lon="6.72669">
        <ele>346</ele>
        <time>2015-03-22T10:44:14.000Z</time>
      </trkpt>
      <trkpt lat="47.53485" lon="6.72673">
        <ele>346</ele>
        <time>2015-03-22T10:44:15.000Z</time>
      </trkpt>
      <trkpt lat="47.53486" lon="6.72678">
        <ele>346</ele>
        <time>2015-03-22T10:44:16.000Z</time>
      </trkpt>
      <trkpt lat="47.53488" lon="6.72682">
        <ele>346</ele>
        <time>2015-03-22T10:44:17.000Z</time>
      </trkpt>
      <trkpt lat="47.53489" lon="6.72686">
        <ele>347</ele>
        <time>2015-03-22T10:44:18.000Z</time>
      </trkpt>
      <trkpt lat="47.53491" lon="6.7269">
        <ele>347</ele>
        <time>2015-03-22T10:44:19.000Z</time>
      </trkpt>
      <trkpt lat="47.53492" lon="6.72695">
        <ele>347</ele>
        <time>2015-03-22T10:44:20.000Z</time>
      </trkpt>
      <trkpt lat="47.53493" lon="6.72701">
        <ele>347</ele>
        <time>2015-03-22T10:44:21.000Z</time>
      </trkpt>
      <trkpt lat="47.53494" lon="6.72706">
        <ele>348</ele>
        <time>2015-03-22T10:44:22.000Z</time>
      </trkpt>
      <trkpt lat="47.53495" lon="6.7271">
        <ele>348</ele>
        <time>2015-03-22T10:44:23.000Z</time>
      </trkpt>
      <trkpt lat="47.53496" lon="6.72715">
        <ele>348</ele>
        <time>2015-03-22T10:44:24.000Z</time>
      </trkpt>
      <trkpt lat="47.53497" lon="6.72719">
        <ele>348</ele>
        <time>2015-03-22T10:44:25.000Z</time>
      </trkpt>
      <trkpt lat="47.53497" lon="6.72724">
        <ele>349</ele>
        <time>2015-03-22T10:44:26.000Z</time>
      </trkpt>
      <trkpt lat="47.53498" lon="6.72729">
        <ele>349</ele>
        <time>2015-03-22T10:44:27.000Z</time>
      </trkpt>
      <trkpt lat="47.53498" lon="6.72733">
        <ele>349</ele>
        <time>2015-03-22T10:44:28.000Z</time>
      </trkpt>
      <trkpt lat="47.53499" lon="6.72738">
        <ele>350</ele>
        <time>2015-03-22T10:44:29.000Z</time>
      </trkpt>
      <trkpt lat="47.535" lon="6.72742">
        <ele>350</ele>
        <time>2015-03-22T10:44:30.000Z</time>
      </trkpt>
      <trkpt lat="47.535" lon="6.72746">
        <ele>351</ele>
        <time>2015-03-22T10:44:31.000Z</time>
      </trkpt>
      <trkpt lat="47.53501" lon="6.72751">
        <ele>351</ele>
        <time>2015-03-22T10:44:32.000Z</time>
      </trkpt>
      <trkpt lat="47.53501" lon="6.72755">
        <ele>352</ele>
        <time>2015-03-22T10:44:33.000Z</time>
      </trkpt>
      <trkpt lat="47.53502" lon="6.72759">
        <ele>353</ele>
        <time>2015-03-22T10:44:34.000Z</time>
      </trkpt>
      <trkpt lat="47.53503" lon="6.72762">
        <ele>354</ele>
        <time>2015-03-22T10:44:35.000Z</time>
      </trkpt>
      <trkpt lat="47.53504" lon="6.72767">
        <ele>354</ele>
        <time>2015-03-22T10:44:36.000Z</time>
      </trkpt>
      <trkpt lat="47.53504" lon="6.72771">
        <ele>355</ele>
        <time>2015-03-22T10:44:37.000Z</time>
      </trkpt>
      <trkpt lat="47.53505" lon="6.72776">
        <ele>355</ele>
        <time>2015-03-22T10:44:38.000Z</time>
      </trkpt>
      <trkpt lat="47.53506" lon="6.72779">
        <ele>355</ele>
        <time>2015-03-22T10:44:39.000Z</time>
      </trkpt>
      <trkpt lat="47.53509" lon="6.72784">
        <ele>356</ele>
        <time>2015-03-22T10:44:41.000Z</time>
      </trkpt>
      <trkpt lat="47.53511" lon="6.72785">
        <ele>356</ele>
        <time>2015-03-22T10:44:42.000Z</time>
      </trkpt>
      <trkpt lat="47.53514" lon="6.72787">
        <ele>356</ele>
        <time>2015-03-22T10:44:44.000Z</time>
      </trkpt>
      <trkpt lat="47.53515" lon="6.7279">
        <ele>356</ele>
        <time>2015-03-22T10:44:45.000Z</time>
      </trkpt>
      <trkpt lat="47.53516" lon="6.72793">
        <ele>356</ele>
        <time>2015-03-22T10:44:46.000Z</time>
      </trkpt>
      <trkpt lat="47.53516" lon="6.72798">
        <ele>356</ele>
        <time>2015-03-22T10:44:47.000Z</time>
      </trkpt>
      <trkpt lat="47.53516" lon="6.72803">
        <ele>356</ele>
        <time>2015-03-22T10:44:48.000Z</time>
      </trkpt>
      <trkpt lat="47.53517" lon="6.72808">
        <ele>356</ele>
        <time>2015-03-22T10:44:49.000Z</time>
      </trkpt>
      <trkpt lat="47.53517" lon="6.72813">
        <ele>356</ele>
        <time>2015-03-22T10:44:50.000Z</time>
      </trkpt>
      <trkpt lat="47.53518" lon="6.72818">
        <ele>356</ele>
        <time>2015-03-22T10:44:51.000Z</time>
      </trkpt>
      <trkpt lat="47.53518" lon="6.72822">
        <ele>356</ele>
        <time>2015-03-22T10:44:52.000Z</time>
      </trkpt>
      <trkpt lat="47.53519" lon="6.72826">
        <ele>356</ele>
        <time>2015-03-22T10:44:53.000Z</time>
      </trkpt>
      <trkpt lat="47.5352" lon="6.72829">
        <ele>356</ele>
        <time>2015-03-22T10:44:54.000Z</time>
      </trkpt>
      <trkpt lat="47.53522" lon="6.72832">
        <ele>357</ele>
        <time>2015-03-22T10:44:55.000Z</time>
      </trkpt>
      <trkpt lat="47.53523" lon="6.72835">
        <ele>358</ele>
        <time>2015-03-22T10:44:56.000Z</time>
      </trkpt>
      <trkpt lat="47.53524" lon="6.72838">
        <ele>359</ele>
        <time>2015-03-22T10:44:57.000Z</time>
      </trkpt>
      <trkpt lat="47.53524" lon="6.72842">
        <ele>359</ele>
        <time>2015-03-22T10:44:58.000Z</time>
      </trkpt>
      <trkpt lat="47.53525" lon="6.72846">
        <ele>359</ele>
        <time>2015-03-22T10:44:59.000Z</time>
      </trkpt>
      <trkpt lat="47.53525" lon="6.72851">
        <ele>359</ele>
        <time>2015-03-22T10:45:00.000Z</time>
      </trkpt>
      <trkpt lat="47.53526" lon="6.72856">
        <ele>360</ele>
        <time>2015-03-22T10:45:01.000Z</time>
      </trkpt>
      <trkpt lat="47.53526" lon="6.7286">
        <ele>360</ele>
        <time>2015-03-22T10:45:02.000Z</time>
      </trkpt>
      <trkpt lat="47.53524" lon="6.72871">
        <ele>360</ele>
        <time>2015-03-22T10:45:03.000Z</time>
      </trkpt>
      <trkpt lat="47.53525" lon="6.72877">
        <ele>360</ele>
        <time>2015-03-22T10:45:04.000Z</time>
      </trkpt>
      <trkpt lat="47.53525" lon="6.72879">
        <ele>360</ele>
        <time>2015-03-22T10:45:05.000Z</time>
      </trkpt>
      <trkpt lat="47.53526" lon="6.72883">
        <ele>360</ele>
        <time>2015-03-22T10:45:06.000Z</time>
      </trkpt>
      <trkpt lat="47.53527" lon="6.72886">
        <ele>360</ele>
        <time>2015-03-22T10:45:07.000Z</time>
      </trkpt>
      <trkpt lat="47.53528" lon="6.72891">
        <ele>360</ele>
        <time>2015-03-22T10:45:09.000Z</time>
      </trkpt>
      <trkpt lat="47.53528" lon="6.72894">
        <ele>360</ele>
        <time>2015-03-22T10:45:10.000Z</time>
      </trkpt>
      <trkpt lat="47.53528" lon="6.729">
        <ele>360</ele>
        <time>2015-03-22T10:45:11.000Z</time>
      </trkpt>
      <trkpt lat="47.53529" lon="6.72902">
        <ele>360</ele>
        <time>2015-03-22T10:45:12.000Z</time>
      </trkpt>
      <trkpt lat="47.53531" lon="6.72906">
        <ele>360</ele>
        <time>2015-03-22T10:45:13.000Z</time>
      </trkpt>
      <trkpt lat="47.53532" lon="6.72909">
        <ele>361</ele>
        <time>2015-03-22T10:45:14.000Z</time>
      </trkpt>
      <trkpt lat="47.53534" lon="6.72913">
        <ele>361</ele>
        <time>2015-03-22T10:45:15.000Z</time>
      </trkpt>
      <trkpt lat="47.53535" lon="6.72916">
        <ele>361</ele>
        <time>2015-03-22T10:45:16.000Z</time>
      </trkpt>
      <trkpt lat="47.53536" lon="6.7292">
        <ele>362</ele>
        <time>2015-03-22T10:45:17.000Z</time>
      </trkpt>
      <trkpt lat="47.53538" lon="6.72924">
        <ele>363</ele>
        <time>2015-03-22T10:45:18.000Z</time>
      </trkpt>
      <trkpt lat="47.53539" lon="6.72928">
        <ele>363</ele>
        <time>2015-03-22T10:45:19.000Z</time>
      </trkpt>
      <trkpt lat="47.5354" lon="6.72931">
        <ele>363</ele>
        <time>2015-03-22T10:45:20.000Z</time>
      </trkpt>
      <trkpt lat="47.53542" lon="6.72934">
        <ele>363</ele>
        <time>2015-03-22T10:45:21.000Z</time>
      </trkpt>
      <trkpt lat="47.53543" lon="6.72937">
        <ele>363</ele>
        <time>2015-03-22T10:45:22.000Z</time>
      </trkpt>
      <trkpt lat="47.53544" lon="6.72941">
        <ele>363</ele>
        <time>2015-03-22T10:45:23.000Z</time>
      </trkpt>
      <trkpt lat="47.53546" lon="6.72945">
        <ele>363</ele>
        <time>2015-03-22T10:45:24.000Z</time>
      </trkpt>
      <trkpt lat="47.53547" lon="6.7295">
        <ele>364</ele>
        <time>2015-03-22T10:45:25.000Z</time>
      </trkpt>
      <trkpt lat="47.53548" lon="6.72955">
        <ele>364</ele>
        <time>2015-03-22T10:45:26.000Z</time>
      </trkpt>
      <trkpt lat="47.5355" lon="6.7296">
        <ele>364</ele>
        <time>2015-03-22T10:45:27.000Z</time>
      </trkpt>
      <trkpt lat="47.53551" lon="6.72965">
        <ele>364</ele>
        <time>2015-03-22T10:45:28.000Z</time>
      </trkpt>
      <trkpt lat="47.53552" lon="6.72971">
        <ele>364</ele>
        <time>2015-03-22T10:45:29.000Z</time>
      </trkpt>
      <trkpt lat="47.53552" lon="6.72978">
        <ele>364</ele>
        <time>2015-03-22T10:45:30.000Z</time>
      </trkpt>
      <trkpt lat="47.53553" lon="6.72985">
        <ele>365</ele>
        <time>2015-03-22T10:45:31.000Z</time>
      </trkpt>
      <trkpt lat="47.53554" lon="6.7299">
        <ele>365</ele>
        <time>2015-03-22T10:45:32.000Z</time>
      </trkpt>
      <trkpt lat="47.53556" lon="6.72994">
        <ele>365</ele>
        <time>2015-03-22T10:45:33.000Z</time>
      </trkpt>
      <trkpt lat="47.53557" lon="6.72997">
        <ele>366</ele>
        <time>2015-03-22T10:45:34.000Z</time>
      </trkpt>
      <trkpt lat="47.53559" lon="6.73">
        <ele>366</ele>
        <time>2015-03-22T10:45:35.000Z</time>
      </trkpt>
      <trkpt lat="47.5356" lon="6.73003">
        <ele>367</ele>
        <time>2015-03-22T10:45:36.000Z</time>
      </trkpt>
      <trkpt lat="47.53563" lon="6.73007">
        <ele>367</ele>
        <time>2015-03-22T10:45:38.000Z</time>
      </trkpt>
      <trkpt lat="47.53564" lon="6.73009">
        <ele>367</ele>
        <time>2015-03-22T10:45:39.000Z</time>
      </trkpt>
      <trkpt lat="47.53566" lon="6.73011">
        <ele>367</ele>
        <time>2015-03-22T10:45:40.000Z</time>
      </trkpt>
      <trkpt lat="47.53568" lon="6.73013">
        <ele>368</ele>
        <time>2015-03-22T10:45:41.000Z</time>
      </trkpt>
      <trkpt lat="47.5357" lon="6.73016">
        <ele>368</ele>
        <time>2015-03-22T10:45:42.000Z</time>
      </trkpt>
      <trkpt lat="47.53572" lon="6.73018">
        <ele>368</ele>
        <time>2015-03-22T10:45:43.000Z</time>
      </trkpt>
      <trkpt lat="47.53573" lon="6.73021">
        <ele>368</ele>
        <time>2015-03-22T10:45:44.000Z</time>
      </trkpt>
      <trkpt lat="47.53575" lon="6.73025">
        <ele>367</ele>
        <time>2015-03-22T10:45:45.000Z</time>
      </trkpt>
      <trkpt lat="47.53577" lon="6.73029">
        <ele>367</ele>
        <time>2015-03-22T10:45:46.000Z</time>
      </trkpt>
      <trkpt lat="47.53577" lon="6.73033">
        <ele>367</ele>
        <time>2015-03-22T10:45:47.000Z</time>
      </trkpt>
      <trkpt lat="47.53578" lon="6.73037">
        <ele>367</ele>
        <time>2015-03-22T10:45:48.000Z</time>
      </trkpt>
      <trkpt lat="47.53579" lon="6.73041">
        <ele>367</ele>
        <time>2015-03-22T10:45:49.000Z</time>
      </trkpt>
      <trkpt lat="47.53579" lon="6.73046">
        <ele>367</ele>
        <time>2015-03-22T10:45:50.000Z</time>
      </trkpt>
      <trkpt lat="47.53579" lon="6.73051">
        <ele>367</ele>
        <time>2015-03-22T10:45:51.000Z</time>
      </trkpt>
      <trkpt lat="47.53579" lon="6.73056">
        <ele>368</ele>
        <time>2015-03-22T10:45:52.000Z</time>
      </trkpt>
      <trkpt lat="47.53579" lon="6.73061">
        <ele>368</ele>
        <time>2015-03-22T10:45:53.000Z</time>
      </trkpt>
      <trkpt lat="47.53578" lon="6.73066">
        <ele>368</ele>
        <time>2015-03-22T10:45:54.000Z</time>
      </trkpt>
      <trkpt lat="47.53578" lon="6.73071">
        <ele>369</ele>
        <time>2015-03-22T10:45:55.000Z</time>
      </trkpt>
      <trkpt lat="47.53578" lon="6.73076">
        <ele>369</ele>
        <time>2015-03-22T10:45:56.000Z</time>
      </trkpt>
      <trkpt lat="47.53578" lon="6.73081">
        <ele>370</ele>
        <time>2015-03-22T10:45:57.000Z</time>
      </trkpt>
      <trkpt lat="47.53579" lon="6.73086">
        <ele>370</ele>
        <time>2015-03-22T10:45:58.000Z</time>
      </trkpt>
      <trkpt lat="47.53578" lon="6.73092">
        <ele>370</ele>
        <time>2015-03-22T10:45:59.000Z</time>
      </trkpt>
      <trkpt lat="47.53578" lon="6.73096">
        <ele>369</ele>
        <time>2015-03-22T10:46:00.000Z</time>
      </trkpt>
      <trkpt lat="47.53578" lon="6.73101">
        <ele>369</ele>
        <time>2015-03-22T10:46:01.000Z</time>
      </trkpt>
      <trkpt lat="47.53578" lon="6.73106">
        <ele>369</ele>
        <time>2015-03-22T10:46:02.000Z</time>
      </trkpt>
      <trkpt lat="47.53579" lon="6.73111">
        <ele>369</ele>
        <time>2015-03-22T10:46:03.000Z</time>
      </trkpt>
      <trkpt lat="47.53579" lon="6.73116">
        <ele>369</ele>
        <time>2015-03-22T10:46:04.000Z</time>
      </trkpt>
      <trkpt lat="47.53579" lon="6.73121">
        <ele>369</ele>
        <time>2015-03-22T10:46:05.000Z</time>
      </trkpt>
      <trkpt lat="47.53579" lon="6.73127">
        <ele>369</ele>
        <time>2015-03-22T10:46:06.000Z</time>
      </trkpt>
      <trkpt lat="47.53579" lon="6.73133">
        <ele>369</ele>
        <time>2015-03-22T10:46:07.000Z</time>
      </trkpt>
      <trkpt lat="47.53579" lon="6.73139">
        <ele>369</ele>
        <time>2015-03-22T10:46:08.000Z</time>
      </trkpt>
      <trkpt lat="47.53578" lon="6.73146">
        <ele>369</ele>
        <time>2015-03-22T10:46:09.000Z</time>
      </trkpt>
      <trkpt lat="47.53577" lon="6.73153">
        <ele>370</ele>
        <time>2015-03-22T10:46:10.000Z</time>
      </trkpt>
      <trkpt lat="47.53576" lon="6.73159">
        <ele>370</ele>
        <time>2015-03-22T10:46:11.000Z</time>
      </trkpt>
      <trkpt lat="47.53575" lon="6.73166">
        <ele>370</ele>
        <time>2015-03-22T10:46:12.000Z</time>
      </trkpt>
      <trkpt lat="47.53574" lon="6.73173">
        <ele>370</ele>
        <time>2015-03-22T10:46:13.000Z</time>
      </trkpt>
      <trkpt lat="47.53573" lon="6.73179">
        <ele>370</ele>
        <time>2015-03-22T10:46:14.000Z</time>
      </trkpt>
      <trkpt lat="47.53573" lon="6.73185">
        <ele>370</ele>
        <time>2015-03-22T10:46:15.000Z</time>
      </trkpt>
      <trkpt lat="47.53572" lon="6.73191">
        <ele>370</ele>
        <time>2015-03-22T10:46:16.000Z</time>
      </trkpt>
      <trkpt lat="47.53572" lon="6.73196">
        <ele>370</ele>
        <time>2015-03-22T10:46:17.000Z</time>
      </trkpt>
      <trkpt lat="47.53573" lon="6.732">
        <ele>370</ele>
        <time>2015-03-22T10:46:18.000Z</time>
      </trkpt>
      <trkpt lat="47.53574" lon="6.73204">
        <ele>370</ele>
        <time>2015-03-22T10:46:19.000Z</time>
      </trkpt>
      <trkpt lat="47.53575" lon="6.73207">
        <ele>370</ele>
        <time>2015-03-22T10:46:20.000Z</time>
      </trkpt>
      <trkpt lat="47.53576" lon="6.73211">
        <ele>370</ele>
        <time>2015-03-22T10:46:21.000Z</time>
      </trkpt>
      <trkpt lat="47.53577" lon="6.73216">
        <ele>371</ele>
        <time>2015-03-22T10:46:22.000Z</time>
      </trkpt>
      <trkpt lat="47.53577" lon="6.73221">
        <ele>371</ele>
        <time>2015-03-22T10:46:23.000Z</time>
      </trkpt>
      <trkpt lat="47.53576" lon="6.73227">
        <ele>371</ele>
        <time>2015-03-22T10:46:24.000Z</time>
      </trkpt>
      <trkpt lat="47.53576" lon="6.73233">
        <ele>371</ele>
        <time>2015-03-22T10:46:25.000Z</time>
      </trkpt>
      <trkpt lat="47.53575" lon="6.7324">
        <ele>372</ele>
        <time>2015-03-22T10:46:26.000Z</time>
      </trkpt>
      <trkpt lat="47.53574" lon="6.73246">
        <ele>372</ele>
        <time>2015-03-22T10:46:27.000Z</time>
      </trkpt>
      <trkpt lat="47.53574" lon="6.73253">
        <ele>373</ele>
        <time>2015-03-22T10:46:28.000Z</time>
      </trkpt>
      <trkpt lat="47.53573" lon="6.73259">
        <ele>372</ele>
        <time>2015-03-22T10:46:29.000Z</time>
      </trkpt>
      <trkpt lat="47.53573" lon="6.73265">
        <ele>372</ele>
        <time>2015-03-22T10:46:30.000Z</time>
      </trkpt>
      <trkpt lat="47.53572" lon="6.73271">
        <ele>372</ele>
        <time>2015-03-22T10:46:31.000Z</time>
      </trkpt>
      <trkpt lat="47.53572" lon="6.73276">
        <ele>371</ele>
        <time>2015-03-22T10:46:32.000Z</time>
      </trkpt>
      <trkpt lat="47.53571" lon="6.73282">
        <ele>371</ele>
        <time>2015-03-22T10:46:33.000Z</time>
      </trkpt>
      <trkpt lat="47.5357" lon="6.73288">
        <ele>371</ele>
        <time>2015-03-22T10:46:34.000Z</time>
      </trkpt>
      <trkpt lat="47.5357" lon="6.73292">
        <ele>371</ele>
        <time>2015-03-22T10:46:35.000Z</time>
      </trkpt>
      <trkpt lat="47.53569" lon="6.73298">
        <ele>371</ele>
        <time>2015-03-22T10:46:38.000Z</time>
      </trkpt>
      <trkpt lat="47.53569" lon="6.73301">
        <ele>371</ele>
        <time>2015-03-22T10:46:39.000Z</time>
      </trkpt>
      <trkpt lat="47.53569" lon="6.73306">
        <ele>371</ele>
        <time>2015-03-22T10:46:40.000Z</time>
      </trkpt>
      <trkpt lat="47.53568" lon="6.73311">
        <ele>371</ele>
        <time>2015-03-22T10:46:41.000Z</time>
      </trkpt>
      <trkpt lat="47.53569" lon="6.73317">
        <ele>372</ele>
        <time>2015-03-22T10:46:42.000Z</time>
      </trkpt>
      <trkpt lat="47.53569" lon="6.73323">
        <ele>372</ele>
        <time>2015-03-22T10:46:43.000Z</time>
      </trkpt>
      <trkpt lat="47.53569" lon="6.73329">
        <ele>372</ele>
        <time>2015-03-22T10:46:44.000Z</time>
      </trkpt>
      <trkpt lat="47.53569" lon="6.73335">
        <ele>372</ele>
        <time>2015-03-22T10:46:45.000Z</time>
      </trkpt>
      <trkpt lat="47.53569" lon="6.7334">
        <ele>372</ele>
        <time>2015-03-22T10:46:46.000Z</time>
      </trkpt>
      <trkpt lat="47.5357" lon="6.73346">
        <ele>372</ele>
        <time>2015-03-22T10:46:47.000Z</time>
      </trkpt>
      <trkpt lat="47.53571" lon="6.73352">
        <ele>372</ele>
        <time>2015-03-22T10:46:48.000Z</time>
      </trkpt>
      <trkpt lat="47.53573" lon="6.73356">
        <ele>372</ele>
        <time>2015-03-22T10:46:49.000Z</time>
      </trkpt>
      <trkpt lat="47.53575" lon="6.7336">
        <ele>372</ele>
        <time>2015-03-22T10:46:50.000Z</time>
      </trkpt>
      <trkpt lat="47.53577" lon="6.73363">
        <ele>372</ele>
        <time>2015-03-22T10:46:51.000Z</time>
      </trkpt>
      <trkpt lat="47.53579" lon="6.73365">
        <ele>372</ele>
        <time>2015-03-22T10:46:52.000Z</time>
      </trkpt>
      <trkpt lat="47.5358" lon="6.73369">
        <ele>372</ele>
        <time>2015-03-22T10:46:53.000Z</time>
      </trkpt>
      <trkpt lat="47.53582" lon="6.73373">
        <ele>372</ele>
        <time>2015-03-22T10:46:54.000Z</time>
      </trkpt>
      <trkpt lat="47.53582" lon="6.73378">
        <ele>372</ele>
        <time>2015-03-22T10:46:55.000Z</time>
      </trkpt>
      <trkpt lat="47.53583" lon="6.73383">
        <ele>372</ele>
        <time>2015-03-22T10:46:56.000Z</time>
      </trkpt>
      <trkpt lat="47.53583" lon="6.73388">
        <ele>372</ele>
        <time>2015-03-22T10:46:57.000Z</time>
      </trkpt>
      <trkpt lat="47.53583" lon="6.73394">
        <ele>372</ele>
        <time>2015-03-22T10:46:58.000Z</time>
      </trkpt>
      <trkpt lat="47.53583" lon="6.73399">
        <ele>373</ele>
        <time>2015-03-22T10:46:59.000Z</time>
      </trkpt>
      <trkpt lat="47.53583" lon="6.73404">
        <ele>373</ele>
        <time>2015-03-22T10:47:00.000Z</time>
      </trkpt>
      <trkpt lat="47.53584" lon="6.73408">
        <ele>377</ele>
        <time>2015-03-22T10:47:01.000Z</time>
      </trkpt>
      <trkpt lat="47.53584" lon="6.73412">
        <ele>376</ele>
        <time>2015-03-22T10:47:02.000Z</time>
      </trkpt>
      <trkpt lat="47.53585" lon="6.73415">
        <ele>375</ele>
        <time>2015-03-22T10:47:03.000Z</time>
      </trkpt>
      <trkpt lat="47.53586" lon="6.73418">
        <ele>375</ele>
        <time>2015-03-22T10:47:04.000Z</time>
      </trkpt>
      <trkpt lat="47.53587" lon="6.73422">
        <ele>376</ele>
        <time>2015-03-22T10:47:05.000Z</time>
      </trkpt>
      <trkpt lat="47.53587" lon="6.73426">
        <ele>377</ele>
        <time>2015-03-22T10:47:06.000Z</time>
      </trkpt>
      <trkpt lat="47.53588" lon="6.73429">
        <ele>378</ele>
        <time>2015-03-22T10:47:07.000Z</time>
      </trkpt>
      <trkpt lat="47.5359" lon="6.73433">
        <ele>379</ele>
        <time>2015-03-22T10:47:08.000Z</time>
      </trkpt>
      <trkpt lat="47.53591" lon="6.73436">
        <ele>380</ele>
        <time>2015-03-22T10:47:09.000Z</time>
      </trkpt>
      <trkpt lat="47.53593" lon="6.73439">
        <ele>380</ele>
        <time>2015-03-22T10:47:10.000Z</time>
      </trkpt>
      <trkpt lat="47.53595" lon="6.73442">
        <ele>381</ele>
        <time>2015-03-22T10:47:11.000Z</time>
      </trkpt>
      <trkpt lat="47.53592" lon="6.73456">
        <ele>381</ele>
        <time>2015-03-22T10:47:12.000Z</time>
      </trkpt>
      <trkpt lat="47.53594" lon="6.7346">
        <ele>381</ele>
        <time>2015-03-22T10:47:14.000Z</time>
      </trkpt>
      <trkpt lat="47.53595" lon="6.73463">
        <ele>381</ele>
        <time>2015-03-22T10:47:15.000Z</time>
      </trkpt>
      <trkpt lat="47.53598" lon="6.73468">
        <ele>381</ele>
        <time>2015-03-22T10:47:17.000Z</time>
      </trkpt>
      <trkpt lat="47.536" lon="6.7347">
        <ele>381</ele>
        <time>2015-03-22T10:47:18.000Z</time>
      </trkpt>
      <trkpt lat="47.536" lon="6.73479">
        <ele>381</ele>
        <time>2015-03-22T10:47:19.000Z</time>
      </trkpt>
      <trkpt lat="47.536" lon="6.73485">
        <ele>380</ele>
        <time>2015-03-22T10:47:20.000Z</time>
      </trkpt>
      <trkpt lat="47.536" lon="6.73489">
        <ele>380</ele>
        <time>2015-03-22T10:47:21.000Z</time>
      </trkpt>
      <trkpt lat="47.53603" lon="6.7349">
        <ele>380</ele>
        <time>2015-03-22T10:47:23.000Z</time>
      </trkpt>
      <trkpt lat="47.53605" lon="6.73492">
        <ele>381</ele>
        <time>2015-03-22T10:47:24.000Z</time>
      </trkpt>
      <trkpt lat="47.53608" lon="6.73494">
        <ele>381</ele>
        <time>2015-03-22T10:47:26.000Z</time>
      </trkpt>
      <trkpt lat="47.53609" lon="6.73497">
        <ele>382</ele>
        <time>2015-03-22T10:47:27.000Z</time>
      </trkpt>
      <trkpt lat="47.53609" lon="6.73501">
        <ele>382</ele>
        <time>2015-03-22T10:47:28.000Z</time>
      </trkpt>
      <trkpt lat="47.53609" lon="6.73507">
        <ele>382</ele>
        <time>2015-03-22T10:47:29.000Z</time>
      </trkpt>
      <trkpt lat="47.53609" lon="6.73513">
        <ele>382</ele>
        <time>2015-03-22T10:47:30.000Z</time>
      </trkpt>
      <trkpt lat="47.53609" lon="6.73519">
        <ele>382</ele>
        <time>2015-03-22T10:47:31.000Z</time>
      </trkpt>
      <trkpt lat="47.53609" lon="6.73524">
        <ele>383</ele>
        <time>2015-03-22T10:47:32.000Z</time>
      </trkpt>
      <trkpt lat="47.53609" lon="6.73529">
        <ele>383</ele>
        <time>2015-03-22T10:47:33.000Z</time>
      </trkpt>
      <trkpt lat="47.5361" lon="6.73534">
        <ele>383</ele>
        <time>2015-03-22T10:47:34.000Z</time>
      </trkpt>
      <trkpt lat="47.5361" lon="6.73538">
        <ele>383</ele>
        <time>2015-03-22T10:47:35.000Z</time>
      </trkpt>
      <trkpt lat="47.53611" lon="6.73542">
        <ele>383</ele>
        <time>2015-03-22T10:47:36.000Z</time>
      </trkpt>
      <trkpt lat="47.53611" lon="6.73546">
        <ele>384</ele>
        <time>2015-03-22T10:47:37.000Z</time>
      </trkpt>
      <trkpt lat="47.53612" lon="6.7355">
        <ele>384</ele>
        <time>2015-03-22T10:47:38.000Z</time>
      </trkpt>
      <trkpt lat="47.53613" lon="6.73554">
        <ele>384</ele>
        <time>2015-03-22T10:47:39.000Z</time>
      </trkpt>
      <trkpt lat="47.53613" lon="6.73559">
        <ele>384</ele>
        <time>2015-03-22T10:47:40.000Z</time>
      </trkpt>
      <trkpt lat="47.53613" lon="6.73563">
        <ele>383</ele>
        <time>2015-03-22T10:47:41.000Z</time>
      </trkpt>
      <trkpt lat="47.53613" lon="6.73568">
        <ele>383</ele>
        <time>2015-03-22T10:47:42.000Z</time>
      </trkpt>
      <trkpt lat="47.53613" lon="6.73573">
        <ele>383</ele>
        <time>2015-03-22T10:47:43.000Z</time>
      </trkpt>
      <trkpt lat="47.53614" lon="6.73577">
        <ele>383</ele>
        <time>2015-03-22T10:47:44.000Z</time>
      </trkpt>
      <trkpt lat="47.53614" lon="6.73581">
        <ele>383</ele>
        <time>2015-03-22T10:47:45.000Z</time>
      </trkpt>
      <trkpt lat="47.53613" lon="6.73585">
        <ele>384</ele>
        <time>2015-03-22T10:47:46.000Z</time>
      </trkpt>
      <trkpt lat="47.53613" lon="6.73589">
        <ele>384</ele>
        <time>2015-03-22T10:47:47.000Z</time>
      </trkpt>
      <trkpt lat="47.53612" lon="6.73593">
        <ele>384</ele>
        <time>2015-03-22T10:47:48.000Z</time>
      </trkpt>
      <trkpt lat="47.53612" lon="6.73597">
        <ele>384</ele>
        <time>2015-03-22T10:47:49.000Z</time>
      </trkpt>
      <trkpt lat="47.53612" lon="6.73602">
        <ele>384</ele>
        <time>2015-03-22T10:47:50.000Z</time>
      </trkpt>
      <trkpt lat="47.53611" lon="6.73607">
        <ele>384</ele>
        <time>2015-03-22T10:47:51.000Z</time>
      </trkpt>
      <trkpt lat="47.53611" lon="6.73612">
        <ele>384</ele>
        <time>2015-03-22T10:47:52.000Z</time>
      </trkpt>
      <trkpt lat="47.5361" lon="6.73617">
        <ele>384</ele>
        <time>2015-03-22T10:47:53.000Z</time>
      </trkpt>
      <trkpt lat="47.5361" lon="6.73624">
        <ele>385</ele>
        <time>2015-03-22T10:47:54.000Z</time>
      </trkpt>
      <trkpt lat="47.53609" lon="6.7363">
        <ele>385</ele>
        <time>2015-03-22T10:47:55.000Z</time>
      </trkpt>
      <trkpt lat="47.53609" lon="6.73635">
        <ele>385</ele>
        <time>2015-03-22T10:47:56.000Z</time>
      </trkpt>
      <trkpt lat="47.53609" lon="6.7364">
        <ele>385</ele>
        <time>2015-03-22T10:47:57.000Z</time>
      </trkpt>
      <trkpt lat="47.53609" lon="6.73644">
        <ele>385</ele>
        <time>2015-03-22T10:47:58.000Z</time>
      </trkpt>
      <trkpt lat="47.53609" lon="6.73648">
        <ele>384</ele>
        <time>2015-03-22T10:47:59.000Z</time>
      </trkpt>
      <trkpt lat="47.53609" lon="6.73653">
        <ele>384</ele>
        <time>2015-03-22T10:48:00.000Z</time>
      </trkpt>
      <trkpt lat="47.5361" lon="6.73657">
        <ele>384</ele>
        <time>2015-03-22T10:48:01.000Z</time>
      </trkpt>
      <trkpt lat="47.5361" lon="6.73661">
        <ele>384</ele>
        <time>2015-03-22T10:48:02.000Z</time>
      </trkpt>
      <trkpt lat="47.53611" lon="6.73666">
        <ele>384</ele>
        <time>2015-03-22T10:48:03.000Z</time>
      </trkpt>
      <trkpt lat="47.53611" lon="6.73671">
        <ele>385</ele>
        <time>2015-03-22T10:48:04.000Z</time>
      </trkpt>
      <trkpt lat="47.53612" lon="6.73676">
        <ele>385</ele>
        <time>2015-03-22T10:48:05.000Z</time>
      </trkpt>
      <trkpt lat="47.53612" lon="6.73681">
        <ele>385</ele>
        <time>2015-03-22T10:48:06.000Z</time>
      </trkpt>
      <trkpt lat="47.53612" lon="6.73686">
        <ele>385</ele>
        <time>2015-03-22T10:48:07.000Z</time>
      </trkpt>
      <trkpt lat="47.53611" lon="6.73692">
        <ele>385</ele>
        <time>2015-03-22T10:48:09.000Z</time>
      </trkpt>
      <trkpt lat="47.53611" lon="6.73695">
        <ele>385</ele>
        <time>2015-03-22T10:48:10.000Z</time>
      </trkpt>
      <trkpt lat="47.53611" lon="6.737">
        <ele>385</ele>
        <time>2015-03-22T10:48:12.000Z</time>
      </trkpt>
      <trkpt lat="47.53611" lon="6.73703">
        <ele>385</ele>
        <time>2015-03-22T10:48:13.000Z</time>
      </trkpt>
      <trkpt lat="47.53611" lon="6.73709">
        <ele>386</ele>
        <time>2015-03-22T10:48:15.000Z</time>
      </trkpt>
      <trkpt lat="47.53612" lon="6.73711">
        <ele>386</ele>
        <time>2015-03-22T10:48:16.000Z</time>
      </trkpt>
      <trkpt lat="47.53614" lon="6.73716">
        <ele>386</ele>
        <time>2015-03-22T10:48:19.000Z</time>
      </trkpt>
      <trkpt lat="47.53615" lon="6.73719">
        <ele>386</ele>
        <time>2015-03-22T10:48:20.000Z</time>
      </trkpt>
      <trkpt lat="47.53615" lon="6.73723">
        <ele>386</ele>
        <time>2015-03-22T10:48:21.000Z</time>
      </trkpt>
      <trkpt lat="47.53616" lon="6.73728">
        <ele>386</ele>
        <time>2015-03-22T10:48:22.000Z</time>
      </trkpt>
      <trkpt lat="47.53616" lon="6.73732">
        <ele>386</ele>
        <time>2015-03-22T10:48:23.000Z</time>
      </trkpt>
      <trkpt lat="47.53617" lon="6.73735">
        <ele>386</ele>
        <time>2015-03-22T10:48:24.000Z</time>
      </trkpt>
      <trkpt lat="47.53618" lon="6.73738">
        <ele>386</ele>
        <time>2015-03-22T10:48:25.000Z</time>
      </trkpt>
      <trkpt lat="47.5362" lon="6.73741">
        <ele>386</ele>
        <time>2015-03-22T10:48:26.000Z</time>
      </trkpt>
      <trkpt lat="47.53621" lon="6.73744">
        <ele>386</ele>
        <time>2015-03-22T10:48:27.000Z</time>
      </trkpt>
      <trkpt lat="47.53622" lon="6.73748">
        <ele>386</ele>
        <time>2015-03-22T10:48:28.000Z</time>
      </trkpt>
      <trkpt lat="47.53623" lon="6.73751">
        <ele>387</ele>
        <time>2015-03-22T10:48:29.000Z</time>
      </trkpt>
      <trkpt lat="47.53624" lon="6.73755">
        <ele>387</ele>
        <time>2015-03-22T10:48:30.000Z</time>
      </trkpt>
      <trkpt lat="47.53625" lon="6.73758">
        <ele>387</ele>
        <time>2015-03-22T10:48:31.000Z</time>
      </trkpt>
      <trkpt lat="47.53626" lon="6.73761">
        <ele>387</ele>
        <time>2015-03-22T10:48:32.000Z</time>
      </trkpt>
      <trkpt lat="47.53627" lon="6.73764">
        <ele>387</ele>
        <time>2015-03-22T10:48:33.000Z</time>
      </trkpt>
      <trkpt lat="47.53628" lon="6.73768">
        <ele>387</ele>
        <time>2015-03-22T10:48:34.000Z</time>
      </trkpt>
      <trkpt lat="47.53629" lon="6.73771">
        <ele>387</ele>
        <time>2015-03-22T10:48:35.000Z</time>
      </trkpt>
      <trkpt lat="47.5363" lon="6.73774">
        <ele>388</ele>
        <time>2015-03-22T10:48:36.000Z</time>
      </trkpt>
      <trkpt lat="47.53631" lon="6.73777">
        <ele>388</ele>
        <time>2015-03-22T10:48:37.000Z</time>
      </trkpt>
      <trkpt lat="47.53633" lon="6.7378">
        <ele>388</ele>
        <time>2015-03-22T10:48:38.000Z</time>
      </trkpt>
      <trkpt lat="47.53635" lon="6.73785">
        <ele>388</ele>
        <time>2015-03-22T10:48:40.000Z</time>
      </trkpt>
      <trkpt lat="47.53637" lon="6.73788">
        <ele>388</ele>
        <time>2015-03-22T10:48:41.000Z</time>
      </trkpt>
      <trkpt lat="47.53638" lon="6.73791">
        <ele>388</ele>
        <time>2015-03-22T10:48:42.000Z</time>
      </trkpt>
      <trkpt lat="47.53638" lon="6.73795">
        <ele>388</ele>
        <time>2015-03-22T10:48:43.000Z</time>
      </trkpt>
      <trkpt lat="47.5364" lon="6.73798">
        <ele>388</ele>
        <time>2015-03-22T10:48:44.000Z</time>
      </trkpt>
      <trkpt lat="47.53641" lon="6.73801">
        <ele>388</ele>
        <time>2015-03-22T10:48:45.000Z</time>
      </trkpt>
      <trkpt lat="47.53643" lon="6.73805">
        <ele>389</ele>
        <time>2015-03-22T10:48:46.000Z</time>
      </trkpt>
      <trkpt lat="47.53645" lon="6.73808">
        <ele>389</ele>
        <time>2015-03-22T10:48:47.000Z</time>
      </trkpt>
      <trkpt lat="47.53646" lon="6.73812">
        <ele>389</ele>
        <time>2015-03-22T10:48:48.000Z</time>
      </trkpt>
      <trkpt lat="47.53647" lon="6.73816">
        <ele>389</ele>
        <time>2015-03-22T10:48:49.000Z</time>
      </trkpt>
      <trkpt lat="47.53648" lon="6.7382">
        <ele>389</ele>
        <time>2015-03-22T10:48:50.000Z</time>
      </trkpt>
      <trkpt lat="47.53648" lon="6.73823">
        <ele>389</ele>
        <time>2015-03-22T10:48:51.000Z</time>
      </trkpt>
      <trkpt lat="47.53649" lon="6.73826">
        <ele>389</ele>
        <time>2015-03-22T10:48:52.000Z</time>
      </trkpt>
      <trkpt lat="47.5365" lon="6.7383">
        <ele>390</ele>
        <time>2015-03-22T10:48:53.000Z</time>
      </trkpt>
      <trkpt lat="47.5365" lon="6.73834">
        <ele>390</ele>
        <time>2015-03-22T10:48:54.000Z</time>
      </trkpt>
      <trkpt lat="47.53651" lon="6.73838">
        <ele>390</ele>
        <time>2015-03-22T10:48:55.000Z</time>
      </trkpt>
      <trkpt lat="47.53651" lon="6.73843">
        <ele>390</ele>
        <time>2015-03-22T10:48:56.000Z</time>
      </trkpt>
      <trkpt lat="47.53651" lon="6.73847">
        <ele>390</ele>
        <time>2015-03-22T10:48:57.000Z</time>
      </trkpt>
      <trkpt lat="47.53651" lon="6.73851">
        <ele>390</ele>
        <time>2015-03-22T10:48:58.000Z</time>
      </trkpt>
      <trkpt lat="47.5365" lon="6.73854">
        <ele>389</ele>
        <time>2015-03-22T10:48:59.000Z</time>
      </trkpt>
      <trkpt lat="47.53649" lon="6.73857">
        <ele>389</ele>
        <time>2015-03-22T10:49:00.000Z</time>
      </trkpt>
      <trkpt lat="47.53648" lon="6.7386">
        <ele>389</ele>
        <time>2015-03-22T10:49:01.000Z</time>
      </trkpt>
      <trkpt lat="47.53647" lon="6.73863">
        <ele>389</ele>
        <time>2015-03-22T10:49:02.000Z</time>
      </trkpt>
      <trkpt lat="47.53646" lon="6.73867">
        <ele>389</ele>
        <time>2015-03-22T10:49:03.000Z</time>
      </trkpt>
      <trkpt lat="47.53645" lon="6.7387">
        <ele>389</ele>
        <time>2015-03-22T10:49:04.000Z</time>
      </trkpt>
      <trkpt lat="47.53644" lon="6.73874">
        <ele>389</ele>
        <time>2015-03-22T10:49:05.000Z</time>
      </trkpt>
      <trkpt lat="47.53642" lon="6.73878">
        <ele>389</ele>
        <time>2015-03-22T10:49:06.000Z</time>
      </trkpt>
      <trkpt lat="47.5364" lon="6.73882">
        <ele>389</ele>
        <time>2015-03-22T10:49:07.000Z</time>
      </trkpt>
      <trkpt lat="47.53637" lon="6.73885">
        <ele>389</ele>
        <time>2015-03-22T10:49:08.000Z</time>
      </trkpt>
      <trkpt lat="47.53633" lon="6.73888">
        <ele>388</ele>
        <time>2015-03-22T10:49:09.000Z</time>
      </trkpt>
      <trkpt lat="47.5363" lon="6.73892">
        <ele>388</ele>
        <time>2015-03-22T10:49:10.000Z</time>
      </trkpt>
      <trkpt lat="47.53627" lon="6.73895">
        <ele>388</ele>
        <time>2015-03-22T10:49:11.000Z</time>
      </trkpt>
      <trkpt lat="47.53624" lon="6.73898">
        <ele>388</ele>
        <time>2015-03-22T10:49:12.000Z</time>
      </trkpt>
      <trkpt lat="47.53621" lon="6.73902">
        <ele>388</ele>
        <time>2015-03-22T10:49:13.000Z</time>
      </trkpt>
      <trkpt lat="47.53619" lon="6.73905">
        <ele>388</ele>
        <time>2015-03-22T10:49:14.000Z</time>
      </trkpt>
      <trkpt lat="47.53617" lon="6.73908">
        <ele>388</ele>
        <time>2015-03-22T10:49:15.000Z</time>
      </trkpt>
      <trkpt lat="47.53614" lon="6.73911">
        <ele>388</ele>
        <time>2015-03-22T10:49:17.000Z</time>
      </trkpt>
      <trkpt lat="47.53612" lon="6.73912">
        <ele>388</ele>
        <time>2015-03-22T10:49:18.000Z</time>
      </trkpt>
      <trkpt lat="47.5361" lon="6.73917">
        <ele>388</ele>
        <time>2015-03-22T10:49:20.000Z</time>
      </trkpt>
      <trkpt lat="47.53609" lon="6.73919">
        <ele>388</ele>
        <time>2015-03-22T10:49:21.000Z</time>
      </trkpt>
      <trkpt lat="47.53607" lon="6.73921">
        <ele>388</ele>
        <time>2015-03-22T10:49:22.000Z</time>
      </trkpt>
      <trkpt lat="47.53606" lon="6.73925">
        <ele>388</ele>
        <time>2015-03-22T10:49:23.000Z</time>
      </trkpt>
      <trkpt lat="47.53604" lon="6.73928">
        <ele>388</ele>
        <time>2015-03-22T10:49:24.000Z</time>
      </trkpt>
      <trkpt lat="47.53603" lon="6.73933">
        <ele>388</ele>
        <time>2015-03-22T10:49:25.000Z</time>
      </trkpt>
      <trkpt lat="47.53603" lon="6.73938">
        <ele>388</ele>
        <time>2015-03-22T10:49:26.000Z</time>
      </trkpt>
      <trkpt lat="47.53602" lon="6.73943">
        <ele>388</ele>
        <time>2015-03-22T10:49:27.000Z</time>
      </trkpt>
      <trkpt lat="47.53602" lon="6.73947">
        <ele>388</ele>
        <time>2015-03-22T10:49:28.000Z</time>
      </trkpt>
      <trkpt lat="47.53602" lon="6.73951">
        <ele>388</ele>
        <time>2015-03-22T10:49:29.000Z</time>
      </trkpt>
      <trkpt lat="47.53602" lon="6.73956">
        <ele>388</ele>
        <time>2015-03-22T10:49:30.000Z</time>
      </trkpt>
      <trkpt lat="47.53602" lon="6.7396">
        <ele>388</ele>
        <time>2015-03-22T10:49:31.000Z</time>
      </trkpt>
      <trkpt lat="47.53601" lon="6.73963">
        <ele>388</ele>
        <time>2015-03-22T10:49:32.000Z</time>
      </trkpt>
      <trkpt lat="47.53601" lon="6.73967">
        <ele>389</ele>
        <time>2015-03-22T10:49:33.000Z</time>
      </trkpt>
      <trkpt lat="47.536" lon="6.73971">
        <ele>389</ele>
        <time>2015-03-22T10:49:34.000Z</time>
      </trkpt>
      <trkpt lat="47.536" lon="6.73975">
        <ele>389</ele>
        <time>2015-03-22T10:49:35.000Z</time>
      </trkpt>
      <trkpt lat="47.536" lon="6.73979">
        <ele>389</ele>
        <time>2015-03-22T10:49:36.000Z</time>
      </trkpt>
      <trkpt lat="47.53599" lon="6.73983">
        <ele>389</ele>
        <time>2015-03-22T10:49:37.000Z</time>
      </trkpt>
      <trkpt lat="47.53599" lon="6.73986">
        <ele>389</ele>
        <time>2015-03-22T10:49:38.000Z</time>
      </trkpt>
      <trkpt lat="47.536" lon="6.7399">
        <ele>389</ele>
        <time>2015-03-22T10:49:39.000Z</time>
      </trkpt>
      <trkpt lat="47.536" lon="6.73993">
        <ele>389</ele>
        <time>2015-03-22T10:49:40.000Z</time>
      </trkpt>
      <trkpt lat="47.536" lon="6.73997">
        <ele>389</ele>
        <time>2015-03-22T10:49:41.000Z</time>
      </trkpt>
      <trkpt lat="47.536" lon="6.74">
        <ele>389</ele>
        <time>2015-03-22T10:49:42.000Z</time>
      </trkpt>
      <trkpt lat="47.536" lon="6.74005">
        <ele>389</ele>
        <time>2015-03-22T10:49:43.000Z</time>
      </trkpt>
      <trkpt lat="47.536" lon="6.74009">
        <ele>389</ele>
        <time>2015-03-22T10:49:44.000Z</time>
      </trkpt>
      <trkpt lat="47.53599" lon="6.74013">
        <ele>389</ele>
        <time>2015-03-22T10:49:45.000Z</time>
      </trkpt>
      <trkpt lat="47.53599" lon="6.74018">
        <ele>389</ele>
        <time>2015-03-22T10:49:46.000Z</time>
      </trkpt>
      <trkpt lat="47.53598" lon="6.74022">
        <ele>389</ele>
        <time>2015-03-22T10:49:47.000Z</time>
      </trkpt>
      <trkpt lat="47.53598" lon="6.74026">
        <ele>389</ele>
        <time>2015-03-22T10:49:48.000Z</time>
      </trkpt>
      <trkpt lat="47.53597" lon="6.74031">
        <ele>389</ele>
        <time>2015-03-22T10:49:49.000Z</time>
      </trkpt>
      <trkpt lat="47.53597" lon="6.74035">
        <ele>389</ele>
        <time>2015-03-22T10:49:50.000Z</time>
      </trkpt>
      <trkpt lat="47.53596" lon="6.74039">
        <ele>389</ele>
        <time>2015-03-22T10:49:51.000Z</time>
      </trkpt>
      <trkpt lat="47.53596" lon="6.74043">
        <ele>389</ele>
        <time>2015-03-22T10:49:52.000Z</time>
      </trkpt>
      <trkpt lat="47.53596" lon="6.74047">
        <ele>390</ele>
        <time>2015-03-22T10:49:53.000Z</time>
      </trkpt>
      <trkpt lat="47.53595" lon="6.74052">
        <ele>390</ele>
        <time>2015-03-22T10:49:54.000Z</time>
      </trkpt>
      <trkpt lat="47.53595" lon="6.74056">
        <ele>390</ele>
        <time>2015-03-22T10:49:55.000Z</time>
      </trkpt>
      <trkpt lat="47.53594" lon="6.74061">
        <ele>390</ele>
        <time>2015-03-22T10:49:56.000Z</time>
      </trkpt>
      <trkpt lat="47.53594" lon="6.74065">
        <ele>390</ele>
        <time>2015-03-22T10:49:57.000Z</time>
      </trkpt>
      <trkpt lat="47.53594" lon="6.74069">
        <ele>390</ele>
        <time>2015-03-22T10:49:58.000Z</time>
      </trkpt>
      <trkpt lat="47.53594" lon="6.74073">
        <ele>390</ele>
        <time>2015-03-22T10:49:59.000Z</time>
      </trkpt>
      <trkpt lat="47.53594" lon="6.74077">
        <ele>390</ele>
        <time>2015-03-22T10:50:00.000Z</time>
      </trkpt>
      <trkpt lat="47.53594" lon="6.7408">
        <ele>390</ele>
        <time>2015-03-22T10:50:01.000Z</time>
      </trkpt>
      <trkpt lat="47.53594" lon="6.74084">
        <ele>392</ele>
        <time>2015-03-22T10:50:02.000Z</time>
      </trkpt>
      <trkpt lat="47.53594" lon="6.74088">
        <ele>392</ele>
        <time>2015-03-22T10:50:03.000Z</time>
      </trkpt>
      <trkpt lat="47.53594" lon="6.74092">
        <ele>392</ele>
        <time>2015-03-22T10:50:04.000Z</time>
      </trkpt>
      <trkpt lat="47.53594" lon="6.74096">
        <ele>392</ele>
        <time>2015-03-22T10:50:05.000Z</time>
      </trkpt>
      <trkpt lat="47.53594" lon="6.741">
        <ele>392</ele>
        <time>2015-03-22T10:50:06.000Z</time>
      </trkpt>
      <trkpt lat="47.53593" lon="6.74103">
        <ele>392</ele>
        <time>2015-03-22T10:50:07.000Z</time>
      </trkpt>
      <trkpt lat="47.53593" lon="6.74109">
        <ele>392</ele>
        <time>2015-03-22T10:50:09.000Z</time>
      </trkpt>
      <trkpt lat="47.53593" lon="6.74112">
        <ele>393</ele>
        <time>2015-03-22T10:50:10.000Z</time>
      </trkpt>
      <trkpt lat="47.53592" lon="6.74117">
        <ele>393</ele>
        <time>2015-03-22T10:50:12.000Z</time>
      </trkpt>
      <trkpt lat="47.53591" lon="6.74119">
        <ele>393</ele>
        <time>2015-03-22T10:50:13.000Z</time>
      </trkpt>
      <trkpt lat="47.5359" lon="6.74123">
        <ele>393</ele>
        <time>2015-03-22T10:50:14.000Z</time>
      </trkpt>
      <trkpt lat="47.53589" lon="6.74126">
        <ele>393</ele>
        <time>2015-03-22T10:50:15.000Z</time>
      </trkpt>
      <trkpt lat="47.53588" lon="6.7413">
        <ele>393</ele>
        <time>2015-03-22T10:50:16.000Z</time>
      </trkpt>
      <trkpt lat="47.53587" lon="6.74134">
        <ele>394</ele>
        <time>2015-03-22T10:50:17.000Z</time>
      </trkpt>
      <trkpt lat="47.53587" lon="6.74137">
        <ele>394</ele>
        <time>2015-03-22T10:50:18.000Z</time>
      </trkpt>
      <trkpt lat="47.53587" lon="6.74141">
        <ele>394</ele>
        <time>2015-03-22T10:50:19.000Z</time>
      </trkpt>
      <trkpt lat="47.53588" lon="6.74145">
        <ele>394</ele>
        <time>2015-03-22T10:50:20.000Z</time>
      </trkpt>
      <trkpt lat="47.53588" lon="6.74148">
        <ele>394</ele>
        <time>2015-03-22T10:50:21.000Z</time>
      </trkpt>
      <trkpt lat="47.53589" lon="6.74154">
        <ele>395</ele>
        <time>2015-03-22T10:50:23.000Z</time>
      </trkpt>
      <trkpt lat="47.5359" lon="6.74156">
        <ele>395</ele>
        <time>2015-03-22T10:50:24.000Z</time>
      </trkpt>
      <trkpt lat="47.53591" lon="6.74161">
        <ele>395</ele>
        <time>2015-03-22T10:50:26.000Z</time>
      </trkpt>
      <trkpt lat="47.53592" lon="6.74163">
        <ele>395</ele>
        <time>2015-03-22T10:50:27.000Z</time>
      </trkpt>
      <trkpt lat="47.53594" lon="6.74168">
        <ele>397</ele>
        <time>2015-03-22T10:50:29.000Z</time>
      </trkpt>
      <trkpt lat="47.53594" lon="6.74169">
        <ele>397</ele>
        <time>2015-03-22T10:50:30.000Z</time>
      </trkpt>
      <trkpt lat="47.53595" lon="6.74175">
        <ele>397</ele>
        <time>2015-03-22T10:50:32.000Z</time>
      </trkpt>
      <trkpt lat="47.53596" lon="6.74178">
        <ele>398</ele>
        <time>2015-03-22T10:50:33.000Z</time>
      </trkpt>
      <trkpt lat="47.53597" lon="6.74183">
        <ele>398</ele>
        <time>2015-03-22T10:50:35.000Z</time>
      </trkpt>
      <trkpt lat="47.53598" lon="6.74185">
        <ele>398</ele>
        <time>2015-03-22T10:50:36.000Z</time>
      </trkpt>
      <trkpt lat="47.53599" lon="6.7419">
        <ele>398</ele>
        <time>2015-03-22T10:50:38.000Z</time>
      </trkpt>
      <trkpt lat="47.536" lon="6.74192">
        <ele>398</ele>
        <time>2015-03-22T10:50:39.000Z</time>
      </trkpt>
      <trkpt lat="47.53601" lon="6.74197">
        <ele>399</ele>
        <time>2015-03-22T10:50:41.000Z</time>
      </trkpt>
      <trkpt lat="47.53602" lon="6.74199">
        <ele>399</ele>
        <time>2015-03-22T10:50:42.000Z</time>
      </trkpt>
      <trkpt lat="47.53603" lon="6.74203">
        <ele>399</ele>
        <time>2015-03-22T10:50:44.000Z</time>
      </trkpt>
      <trkpt lat="47.53603" lon="6.74206">
        <ele>399</ele>
        <time>2015-03-22T10:50:45.000Z</time>
      </trkpt>
      <trkpt lat="47.53604" lon="6.74211">
        <ele>399</ele>
        <time>2015-03-22T10:50:47.000Z</time>
      </trkpt>
      <trkpt lat="47.53604" lon="6.74214">
        <ele>400</ele>
        <time>2015-03-22T10:50:48.000Z</time>
      </trkpt>
      <trkpt lat="47.53605" lon="6.74219">
        <ele>400</ele>
        <time>2015-03-22T10:50:50.000Z</time>
      </trkpt>
      <trkpt lat="47.53606" lon="6.74222">
        <ele>400</ele>
        <time>2015-03-22T10:50:51.000Z</time>
      </trkpt>
      <trkpt lat="47.53607" lon="6.74227">
        <ele>400</ele>
        <time>2015-03-22T10:50:53.000Z</time>
      </trkpt>
      <trkpt lat="47.53608" lon="6.7423">
        <ele>400</ele>
        <time>2015-03-22T10:50:54.000Z</time>
      </trkpt>
      <trkpt lat="47.53608" lon="6.74234">
        <ele>400</ele>
        <time>2015-03-22T10:50:55.000Z</time>
      </trkpt>
      <trkpt lat="47.53608" lon="6.74237">
        <ele>401</ele>
        <time>2015-03-22T10:50:56.000Z</time>
      </trkpt>
      <trkpt lat="47.53609" lon="6.74242">
        <ele>401</ele>
        <time>2015-03-22T10:50:58.000Z</time>
      </trkpt>
      <trkpt lat="47.5361" lon="6.74244">
        <ele>401</ele>
        <time>2015-03-22T10:50:59.000Z</time>
      </trkpt>
      <trkpt lat="47.53612" lon="6.74248">
        <ele>401</ele>
        <time>2015-03-22T10:51:01.000Z</time>
      </trkpt>
      <trkpt lat="47.53614" lon="6.74249">
        <ele>401</ele>
        <time>2015-03-22T10:51:02.000Z</time>
      </trkpt>
      <trkpt lat="47.53615" lon="6.74253">
        <ele>404</ele>
        <time>2015-03-22T10:51:04.000Z</time>
      </trkpt>
      <trkpt lat="47.53616" lon="6.74255">
        <ele>404</ele>
        <time>2015-03-22T10:51:05.000Z</time>
      </trkpt>
      <trkpt lat="47.53617" lon="6.7426">
        <ele>404</ele>
        <time>2015-03-22T10:51:07.000Z</time>
      </trkpt>
      <trkpt lat="47.53617" lon="6.74263">
        <ele>404</ele>
        <time>2015-03-22T10:51:08.000Z</time>
      </trkpt>
      <trkpt lat="47.53618" lon="6.74268">
        <ele>404</ele>
        <time>2015-03-22T10:51:10.000Z</time>
      </trkpt>
      <trkpt lat="47.53618" lon="6.7427">
        <ele>404</ele>
        <time>2015-03-22T10:51:11.000Z</time>
      </trkpt>
      <trkpt lat="47.5362" lon="6.74274">
        <ele>404</ele>
        <time>2015-03-22T10:51:13.000Z</time>
      </trkpt>
      <trkpt lat="47.53621" lon="6.74275">
        <ele>404</ele>
        <time>2015-03-22T10:51:14.000Z</time>
      </trkpt>
      <trkpt lat="47.53623" lon="6.74281">
        <ele>404</ele>
        <time>2015-03-22T10:51:17.000Z</time>
      </trkpt>
      <trkpt lat="47.53624" lon="6.74284">
        <ele>404</ele>
        <time>2015-03-22T10:51:18.000Z</time>
      </trkpt>
      <trkpt lat="47.53624" lon="6.74287">
        <ele>404</ele>
        <time>2015-03-22T10:51:19.000Z</time>
      </trkpt>
      <trkpt lat="47.53625" lon="6.74291">
        <ele>404</ele>
        <time>2015-03-22T10:51:20.000Z</time>
      </trkpt>
      <trkpt lat="47.53625" lon="6.74296">
        <ele>404</ele>
        <time>2015-03-22T10:51:21.000Z</time>
      </trkpt>
      <trkpt lat="47.53626" lon="6.743">
        <ele>404</ele>
        <time>2015-03-22T10:51:22.000Z</time>
      </trkpt>
      <trkpt lat="47.53627" lon="6.74304">
        <ele>405</ele>
        <time>2015-03-22T10:51:23.000Z</time>
      </trkpt>
      <trkpt lat="47.53628" lon="6.74307">
        <ele>405</ele>
        <time>2015-03-22T10:51:24.000Z</time>
      </trkpt>
      <trkpt lat="47.5363" lon="6.74313">
        <ele>405</ele>
        <time>2015-03-22T10:51:26.000Z</time>
      </trkpt>
      <trkpt lat="47.5363" lon="6.74316">
        <ele>405</ele>
        <time>2015-03-22T10:51:27.000Z</time>
      </trkpt>
      <trkpt lat="47.53632" lon="6.7432">
        <ele>405</ele>
        <time>2015-03-22T10:51:29.000Z</time>
      </trkpt>
      <trkpt lat="47.53632" lon="6.74322">
        <ele>405</ele>
        <time>2015-03-22T10:51:30.000Z</time>
      </trkpt>
      <trkpt lat="47.53633" lon="6.74328">
        <ele>405</ele>
        <time>2015-03-22T10:51:33.000Z</time>
      </trkpt>
      <trkpt lat="47.53634" lon="6.7433">
        <ele>405</ele>
        <time>2015-03-22T10:51:34.000Z</time>
      </trkpt>
      <trkpt lat="47.53635" lon="6.74334">
        <ele>407</ele>
        <time>2015-03-22T10:51:36.000Z</time>
      </trkpt>
      <trkpt lat="47.53637" lon="6.74335">
        <ele>407</ele>
        <time>2015-03-22T10:51:37.000Z</time>
      </trkpt>
      <trkpt lat="47.5364" lon="6.74338">
        <ele>407</ele>
        <time>2015-03-22T10:51:39.000Z</time>
      </trkpt>
      <trkpt lat="47.53641" lon="6.7434">
        <ele>407</ele>
        <time>2015-03-22T10:51:40.000Z</time>
      </trkpt>
      <trkpt lat="47.53644" lon="6.74344">
        <ele>407</ele>
        <time>2015-03-22T10:51:42.000Z</time>
      </trkpt>
      <trkpt lat="47.53646" lon="6.74345">
        <ele>407</ele>
        <time>2015-03-22T10:51:43.000Z</time>
      </trkpt>
      <trkpt lat="47.53646" lon="6.74351">
        <ele>407</ele>
        <time>2015-03-22T10:51:47.000Z</time>
      </trkpt>
      <trkpt lat="47.53647" lon="6.74353">
        <ele>407</ele>
        <time>2015-03-22T10:51:48.000Z</time>
      </trkpt>
      <trkpt lat="47.53648" lon="6.74359">
        <ele>407</ele>
        <time>2015-03-22T10:51:50.000Z</time>
      </trkpt>
      <trkpt lat="47.53649" lon="6.74361">
        <ele>407</ele>
        <time>2015-03-22T10:51:51.000Z</time>
      </trkpt>
      <trkpt lat="47.53651" lon="6.74366">
        <ele>407</ele>
        <time>2015-03-22T10:51:53.000Z</time>
      </trkpt>
      <trkpt lat="47.53651" lon="6.74368">
        <ele>408</ele>
        <time>2015-03-22T10:51:54.000Z</time>
      </trkpt>
      <trkpt lat="47.53654" lon="6.74372">
        <ele>408</ele>
        <time>2015-03-22T10:51:56.000Z</time>
      </trkpt>
      <trkpt lat="47.53655" lon="6.74374">
        <ele>408</ele>
        <time>2015-03-22T10:51:57.000Z</time>
      </trkpt>
      <trkpt lat="47.53656" lon="6.74379">
        <ele>408</ele>
        <time>2015-03-22T10:51:59.000Z</time>
      </trkpt>
      <trkpt lat="47.53657" lon="6.74382">
        <ele>408</ele>
        <time>2015-03-22T10:52:00.000Z</time>
      </trkpt>
      <trkpt lat="47.53658" lon="6.74387">
        <ele>408</ele>
        <time>2015-03-22T10:52:02.000Z</time>
      </trkpt>
      <trkpt lat="47.53658" lon="6.74389">
        <ele>408</ele>
        <time>2015-03-22T10:52:03.000Z</time>
      </trkpt>
      <trkpt lat="47.53659" lon="6.74394">
        <ele>408</ele>
        <time>2015-03-22T10:52:05.000Z</time>
      </trkpt>
      <trkpt lat="47.5366" lon="6.74396">
        <ele>407</ele>
        <time>2015-03-22T10:52:06.000Z</time>
      </trkpt>
      <trkpt lat="47.5366" lon="6.74402">
        <ele>407</ele>
        <time>2015-03-22T10:52:09.000Z</time>
      </trkpt>
      <trkpt lat="47.5366" lon="6.74405">
        <ele>407</ele>
        <time>2015-03-22T10:52:10.000Z</time>
      </trkpt>
      <trkpt lat="47.53661" lon="6.74409">
        <ele>407</ele>
        <time>2015-03-22T10:52:12.000Z</time>
      </trkpt>
      <trkpt lat="47.53662" lon="6.74412">
        <ele>407</ele>
        <time>2015-03-22T10:52:13.000Z</time>
      </trkpt>
      <trkpt lat="47.53663" lon="6.74415">
        <ele>406</ele>
        <time>2015-03-22T10:52:14.000Z</time>
      </trkpt>
      <trkpt lat="47.53663" lon="6.74419">
        <ele>407</ele>
        <time>2015-03-22T10:52:15.000Z</time>
      </trkpt>
      <trkpt lat="47.53664" lon="6.74422">
        <ele>408</ele>
        <time>2015-03-22T10:52:16.000Z</time>
      </trkpt>
      <trkpt lat="47.53665" lon="6.74425">
        <ele>408</ele>
        <time>2015-03-22T10:52:17.000Z</time>
      </trkpt>
      <trkpt lat="47.53666" lon="6.74432">
        <ele>409</ele>
        <time>2015-03-22T10:52:19.000Z</time>
      </trkpt>
      <trkpt lat="47.53667" lon="6.74435">
        <ele>407</ele>
        <time>2015-03-22T10:52:20.000Z</time>
      </trkpt>
      <trkpt lat="47.53668" lon="6.74441">
        <ele>408</ele>
        <time>2015-03-22T10:52:22.000Z</time>
      </trkpt>
      <trkpt lat="47.53668" lon="6.74444">
        <ele>408</ele>
        <time>2015-03-22T10:52:23.000Z</time>
      </trkpt>
      <trkpt lat="47.53668" lon="6.7445">
        <ele>408</ele>
        <time>2015-03-22T10:52:25.000Z</time>
      </trkpt>
      <trkpt lat="47.53669" lon="6.74454">
        <ele>408</ele>
        <time>2015-03-22T10:52:26.000Z</time>
      </trkpt>
      <trkpt lat="47.53669" lon="6.74457">
        <ele>408</ele>
        <time>2015-03-22T10:52:27.000Z</time>
      </trkpt>
      <trkpt lat="47.53669" lon="6.74461">
        <ele>409</ele>
        <time>2015-03-22T10:52:28.000Z</time>
      </trkpt>
      <trkpt lat="47.5367" lon="6.74465">
        <ele>409</ele>
        <time>2015-03-22T10:52:29.000Z</time>
      </trkpt>
      <trkpt lat="47.5367" lon="6.74469">
        <ele>409</ele>
        <time>2015-03-22T10:52:30.000Z</time>
      </trkpt>
      <trkpt lat="47.53671" lon="6.74472">
        <ele>409</ele>
        <time>2015-03-22T10:52:31.000Z</time>
      </trkpt>
      <trkpt lat="47.53672" lon="6.74476">
        <ele>409</ele>
        <time>2015-03-22T10:52:32.000Z</time>
      </trkpt>
      <trkpt lat="47.53672" lon="6.74482">
        <ele>409</ele>
        <time>2015-03-22T10:52:34.000Z</time>
      </trkpt>
      <trkpt lat="47.53672" lon="6.74485">
        <ele>409</ele>
        <time>2015-03-22T10:52:35.000Z</time>
      </trkpt>
      <trkpt lat="47.53672" lon="6.74492">
        <ele>409</ele>
        <time>2015-03-22T10:52:37.000Z</time>
      </trkpt>
      <trkpt lat="47.53672" lon="6.74495">
        <ele>409</ele>
        <time>2015-03-22T10:52:38.000Z</time>
      </trkpt>
      <trkpt lat="47.53673" lon="6.745">
        <ele>410</ele>
        <time>2015-03-22T10:52:40.000Z</time>
      </trkpt>
      <trkpt lat="47.53674" lon="6.74503">
        <ele>410</ele>
        <time>2015-03-22T10:52:41.000Z</time>
      </trkpt>
      <trkpt lat="47.53674" lon="6.74508">
        <ele>411</ele>
        <time>2015-03-22T10:52:43.000Z</time>
      </trkpt>
      <trkpt lat="47.53675" lon="6.74511">
        <ele>411</ele>
        <time>2015-03-22T10:52:44.000Z</time>
      </trkpt>
      <trkpt lat="47.53675" lon="6.74517">
        <ele>411</ele>
        <time>2015-03-22T10:52:46.000Z</time>
      </trkpt>
      <trkpt lat="47.53675" lon="6.7452">
        <ele>412</ele>
        <time>2015-03-22T10:52:47.000Z</time>
      </trkpt>
      <trkpt lat="47.53676" lon="6.74526">
        <ele>412</ele>
        <time>2015-03-22T10:52:49.000Z</time>
      </trkpt>
      <trkpt lat="47.53676" lon="6.74529">
        <ele>412</ele>
        <time>2015-03-22T10:52:50.000Z</time>
      </trkpt>
      <trkpt lat="47.53676" lon="6.74534">
        <ele>412</ele>
        <time>2015-03-22T10:52:52.000Z</time>
      </trkpt>
      <trkpt lat="47.53676" lon="6.74537">
        <ele>413</ele>
        <time>2015-03-22T10:52:53.000Z</time>
      </trkpt>
      <trkpt lat="47.53676" lon="6.74543">
        <ele>413</ele>
        <time>2015-03-22T10:52:55.000Z</time>
      </trkpt>
      <trkpt lat="47.53676" lon="6.74546">
        <ele>413</ele>
        <time>2015-03-22T10:52:56.000Z</time>
      </trkpt>
      <trkpt lat="47.53676" lon="6.74552">
        <ele>413</ele>
        <time>2015-03-22T10:52:58.000Z</time>
      </trkpt>
      <trkpt lat="47.53677" lon="6.74554">
        <ele>413</ele>
        <time>2015-03-22T10:52:59.000Z</time>
      </trkpt>
      <trkpt lat="47.53679" lon="6.74558">
        <ele>413</ele>
        <time>2015-03-22T10:53:02.000Z</time>
      </trkpt>
      <trkpt lat="47.53679" lon="6.7456">
        <ele>413</ele>
        <time>2015-03-22T10:53:03.000Z</time>
      </trkpt>
      <trkpt lat="47.53679" lon="6.74564">
        <ele>414</ele>
        <time>2015-03-22T10:53:05.000Z</time>
      </trkpt>
      <trkpt lat="47.5368" lon="6.74567">
        <ele>414</ele>
        <time>2015-03-22T10:53:06.000Z</time>
      </trkpt>
      <trkpt lat="47.53682" lon="6.74572">
        <ele>414</ele>
        <time>2015-03-22T10:53:08.000Z</time>
      </trkpt>
      <trkpt lat="47.53683" lon="6.74575">
        <ele>414</ele>
        <time>2015-03-22T10:53:09.000Z</time>
      </trkpt>
      <trkpt lat="47.53684" lon="6.7458">
        <ele>414</ele>
        <time>2015-03-22T10:53:11.000Z</time>
      </trkpt>
      <trkpt lat="47.53684" lon="6.74583">
        <ele>414</ele>
        <time>2015-03-22T10:53:12.000Z</time>
      </trkpt>
      <trkpt lat="47.53685" lon="6.74589">
        <ele>416</ele>
        <time>2015-03-22T10:53:15.000Z</time>
      </trkpt>
      <trkpt lat="47.53685" lon="6.74592">
        <ele>416</ele>
        <time>2015-03-22T10:53:16.000Z</time>
      </trkpt>
      <trkpt lat="47.53686" lon="6.74597">
        <ele>417</ele>
        <time>2015-03-22T10:53:18.000Z</time>
      </trkpt>
      <trkpt lat="47.53687" lon="6.746">
        <ele>417</ele>
        <time>2015-03-22T10:53:19.000Z</time>
      </trkpt>
      <trkpt lat="47.53689" lon="6.74605">
        <ele>417</ele>
        <time>2015-03-22T10:53:22.000Z</time>
      </trkpt>
      <trkpt lat="47.53689" lon="6.74607">
        <ele>417</ele>
        <time>2015-03-22T10:53:23.000Z</time>
      </trkpt>
      <trkpt lat="47.53689" lon="6.74613">
        <ele>417</ele>
        <time>2015-03-22T10:53:26.000Z</time>
      </trkpt>
      <trkpt lat="47.5369" lon="6.74615">
        <ele>418</ele>
        <time>2015-03-22T10:53:27.000Z</time>
      </trkpt>
      <trkpt lat="47.53692" lon="6.74619">
        <ele>418</ele>
        <time>2015-03-22T10:53:29.000Z</time>
      </trkpt>
      <trkpt lat="47.53692" lon="6.74621">
        <ele>418</ele>
        <time>2015-03-22T10:53:30.000Z</time>
      </trkpt>
      <trkpt lat="47.53693" lon="6.74626">
        <ele>418</ele>
        <time>2015-03-22T10:53:32.000Z</time>
      </trkpt>
      <trkpt lat="47.53692" lon="6.74628">
        <ele>418</ele>
        <time>2015-03-22T10:53:33.000Z</time>
      </trkpt>
      <trkpt lat="47.53692" lon="6.74633">
        <ele>418</ele>
        <time>2015-03-22T10:53:35.000Z</time>
      </trkpt>
      <trkpt lat="47.53692" lon="6.74635">
        <ele>418</ele>
        <time>2015-03-22T10:53:36.000Z</time>
      </trkpt>
      <trkpt lat="47.53692" lon="6.7464">
        <ele>419</ele>
        <time>2015-03-22T10:53:38.000Z</time>
      </trkpt>
      <trkpt lat="47.53693" lon="6.74643">
        <ele>419</ele>
        <time>2015-03-22T10:53:39.000Z</time>
      </trkpt>
      <trkpt lat="47.53695" lon="6.74648">
        <ele>419</ele>
        <time>2015-03-22T10:53:42.000Z</time>
      </trkpt>
      <trkpt lat="47.53696" lon="6.74649">
        <ele>419</ele>
        <time>2015-03-22T10:53:43.000Z</time>
      </trkpt>
      <trkpt lat="47.53698" lon="6.74653">
        <ele>419</ele>
        <time>2015-03-22T10:53:45.000Z</time>
      </trkpt>
      <trkpt lat="47.53698" lon="6.74655">
        <ele>419</ele>
        <time>2015-03-22T10:53:46.000Z</time>
      </trkpt>
      <trkpt lat="47.53699" lon="6.7466">
        <ele>419</ele>
        <time>2015-03-22T10:53:49.000Z</time>
      </trkpt>
      <trkpt lat="47.53699" lon="6.74662">
        <ele>419</ele>
        <time>2015-03-22T10:53:50.000Z</time>
      </trkpt>
      <trkpt lat="47.537" lon="6.74668">
        <ele>423</ele>
        <time>2015-03-22T10:53:53.000Z</time>
      </trkpt>
      <trkpt lat="47.53701" lon="6.7467">
        <ele>423</ele>
        <time>2015-03-22T10:53:54.000Z</time>
      </trkpt>
      <trkpt lat="47.53703" lon="6.74674">
        <ele>423</ele>
        <time>2015-03-22T10:53:56.000Z</time>
      </trkpt>
      <trkpt lat="47.53704" lon="6.74676">
        <ele>423</ele>
        <time>2015-03-22T10:53:57.000Z</time>
      </trkpt>
      <trkpt lat="47.53706" lon="6.74682">
        <ele>423</ele>
        <time>2015-03-22T10:53:59.000Z</time>
      </trkpt>
      <trkpt lat="47.53707" lon="6.74685">
        <ele>423</ele>
        <time>2015-03-22T10:54:00.000Z</time>
      </trkpt>
      <trkpt lat="47.53708" lon="6.7469">
        <ele>423</ele>
        <time>2015-03-22T10:54:02.000Z</time>
      </trkpt>
      <trkpt lat="47.53709" lon="6.74692">
        <ele>423</ele>
        <time>2015-03-22T10:54:03.000Z</time>
      </trkpt>
      <trkpt lat="47.5371" lon="6.74695">
        <ele>423</ele>
        <time>2015-03-22T10:54:04.000Z</time>
      </trkpt>
      <trkpt lat="47.53711" lon="6.74698">
        <ele>424</ele>
        <time>2015-03-22T10:54:05.000Z</time>
      </trkpt>
      <trkpt lat="47.53713" lon="6.74701">
        <ele>424</ele>
        <time>2015-03-22T10:54:06.000Z</time>
      </trkpt>
      <trkpt lat="47.53714" lon="6.74704">
        <ele>424</ele>
        <time>2015-03-22T10:54:07.000Z</time>
      </trkpt>
      <trkpt lat="47.53714" lon="6.74707">
        <ele>424</ele>
        <time>2015-03-22T10:54:08.000Z</time>
      </trkpt>
      <trkpt lat="47.53715" lon="6.74711">
        <ele>424</ele>
        <time>2015-03-22T10:54:09.000Z</time>
      </trkpt>
      <trkpt lat="47.53715" lon="6.74714">
        <ele>424</ele>
        <time>2015-03-22T10:54:10.000Z</time>
      </trkpt>
      <trkpt lat="47.53716" lon="6.74717">
        <ele>424</ele>
        <time>2015-03-22T10:54:11.000Z</time>
      </trkpt>
      <trkpt lat="47.53717" lon="6.74723">
        <ele>425</ele>
        <time>2015-03-22T10:54:13.000Z</time>
      </trkpt>
      <trkpt lat="47.53718" lon="6.74726">
        <ele>425</ele>
        <time>2015-03-22T10:54:14.000Z</time>
      </trkpt>
      <trkpt lat="47.53718" lon="6.74729">
        <ele>425</ele>
        <time>2015-03-22T10:54:15.000Z</time>
      </trkpt>
      <trkpt lat="47.53718" lon="6.74733">
        <ele>425</ele>
        <time>2015-03-22T10:54:16.000Z</time>
      </trkpt>
      <trkpt lat="47.53719" lon="6.74738">
        <ele>425</ele>
        <time>2015-03-22T10:54:18.000Z</time>
      </trkpt>
      <trkpt lat="47.5372" lon="6.74741">
        <ele>425</ele>
        <time>2015-03-22T10:54:19.000Z</time>
      </trkpt>
      <trkpt lat="47.53722" lon="6.74746">
        <ele>425</ele>
        <time>2015-03-22T10:54:21.000Z</time>
      </trkpt>
      <trkpt lat="47.53723" lon="6.74749">
        <ele>425</ele>
        <time>2015-03-22T10:54:22.000Z</time>
      </trkpt>
      <trkpt lat="47.53725" lon="6.74754">
        <ele>428</ele>
        <time>2015-03-22T10:54:25.000Z</time>
      </trkpt>
      <trkpt lat="47.53726" lon="6.74755">
        <ele>428</ele>
        <time>2015-03-22T10:54:26.000Z</time>
      </trkpt>
      <trkpt lat="47.53728" lon="6.7476">
        <ele>428</ele>
        <time>2015-03-22T10:54:28.000Z</time>
      </trkpt>
      <trkpt lat="47.53729" lon="6.74762">
        <ele>429</ele>
        <time>2015-03-22T10:54:29.000Z</time>
      </trkpt>
      <trkpt lat="47.53732" lon="6.74767">
        <ele>429</ele>
        <time>2015-03-22T10:54:31.000Z</time>
      </trkpt>
      <trkpt lat="47.53733" lon="6.7477">
        <ele>429</ele>
        <time>2015-03-22T10:54:32.000Z</time>
      </trkpt>
      <trkpt lat="47.53735" lon="6.74776">
        <ele>429</ele>
        <time>2015-03-22T10:54:34.000Z</time>
      </trkpt>
      <trkpt lat="47.53735" lon="6.74779">
        <ele>429</ele>
        <time>2015-03-22T10:54:35.000Z</time>
      </trkpt>
      <trkpt lat="47.53737" lon="6.74786">
        <ele>429</ele>
        <time>2015-03-22T10:54:37.000Z</time>
      </trkpt>
      <trkpt lat="47.53737" lon="6.74788">
        <ele>429</ele>
        <time>2015-03-22T10:54:38.000Z</time>
      </trkpt>
      <trkpt lat="47.53739" lon="6.74792">
        <ele>429</ele>
        <time>2015-03-22T10:54:40.000Z</time>
      </trkpt>
      <trkpt lat="47.5374" lon="6.74793">
        <ele>429</ele>
        <time>2015-03-22T10:54:41.000Z</time>
      </trkpt>
      <trkpt lat="47.53742" lon="6.74798">
        <ele>430</ele>
        <time>2015-03-22T10:54:44.000Z</time>
      </trkpt>
      <trkpt lat="47.53744" lon="6.748">
        <ele>430</ele>
        <time>2015-03-22T10:54:45.000Z</time>
      </trkpt>
      <trkpt lat="47.53745" lon="6.74804">
        <ele>430</ele>
        <time>2015-03-22T10:54:47.000Z</time>
      </trkpt>
      <trkpt lat="47.53746" lon="6.74806">
        <ele>430</ele>
        <time>2015-03-22T10:54:48.000Z</time>
      </trkpt>
      <trkpt lat="47.53748" lon="6.7481">
        <ele>430</ele>
        <time>2015-03-22T10:54:50.000Z</time>
      </trkpt>
      <trkpt lat="47.53749" lon="6.74813">
        <ele>430</ele>
        <time>2015-03-22T10:54:51.000Z</time>
      </trkpt>
      <trkpt lat="47.53752" lon="6.74818">
        <ele>432</ele>
        <time>2015-03-22T10:54:53.000Z</time>
      </trkpt>
      <trkpt lat="47.53753" lon="6.7482">
        <ele>432</ele>
        <time>2015-03-22T10:54:54.000Z</time>
      </trkpt>
      <trkpt lat="47.53754" lon="6.74822">
        <ele>432</ele>
        <time>2015-03-22T10:54:55.000Z</time>
      </trkpt>
      <trkpt lat="47.53755" lon="6.74826">
        <ele>432</ele>
        <time>2015-03-22T10:54:56.000Z</time>
      </trkpt>
      <trkpt lat="47.53756" lon="6.74829">
        <ele>432</ele>
        <time>2015-03-22T10:54:57.000Z</time>
      </trkpt>
      <trkpt lat="47.53757" lon="6.74833">
        <ele>432</ele>
        <time>2015-03-22T10:54:58.000Z</time>
      </trkpt>
      <trkpt lat="47.53758" lon="6.74838">
        <ele>432</ele>
        <time>2015-03-22T10:55:00.000Z</time>
      </trkpt>
      <trkpt lat="47.53759" lon="6.74841">
        <ele>433</ele>
        <time>2015-03-22T10:55:01.000Z</time>
      </trkpt>
      <trkpt lat="47.53761" lon="6.74844">
        <ele>433</ele>
        <time>2015-03-22T10:55:02.000Z</time>
      </trkpt>
      <trkpt lat="47.53762" lon="6.74847">
        <ele>433</ele>
        <time>2015-03-22T10:55:03.000Z</time>
      </trkpt>
      <trkpt lat="47.53762" lon="6.74851">
        <ele>434</ele>
        <time>2015-03-22T10:55:04.000Z</time>
      </trkpt>
      <trkpt lat="47.53763" lon="6.74855">
        <ele>434</ele>
        <time>2015-03-22T10:55:05.000Z</time>
      </trkpt>
      <trkpt lat="47.53763" lon="6.7486">
        <ele>434</ele>
        <time>2015-03-22T10:55:06.000Z</time>
      </trkpt>
      <trkpt lat="47.53764" lon="6.74864">
        <ele>434</ele>
        <time>2015-03-22T10:55:07.000Z</time>
      </trkpt>
      <trkpt lat="47.53766" lon="6.74867">
        <ele>434</ele>
        <time>2015-03-22T10:55:08.000Z</time>
      </trkpt>
      <trkpt lat="47.53767" lon="6.74871">
        <ele>434</ele>
        <time>2015-03-22T10:55:09.000Z</time>
      </trkpt>
      <trkpt lat="47.53768" lon="6.74873">
        <ele>434</ele>
        <time>2015-03-22T10:55:10.000Z</time>
      </trkpt>
      <trkpt lat="47.53769" lon="6.74877">
        <ele>434</ele>
        <time>2015-03-22T10:55:11.000Z</time>
      </trkpt>
      <trkpt lat="47.53769" lon="6.74881">
        <ele>435</ele>
        <time>2015-03-22T10:55:12.000Z</time>
      </trkpt>
      <trkpt lat="47.5377" lon="6.74886">
        <ele>434</ele>
        <time>2015-03-22T10:55:13.000Z</time>
      </trkpt>
      <trkpt lat="47.5377" lon="6.74891">
        <ele>434</ele>
        <time>2015-03-22T10:55:14.000Z</time>
      </trkpt>
      <trkpt lat="47.5377" lon="6.74894">
        <ele>434</ele>
        <time>2015-03-22T10:55:15.000Z</time>
      </trkpt>
      <trkpt lat="47.53772" lon="6.749">
        <ele>434</ele>
        <time>2015-03-22T10:55:17.000Z</time>
      </trkpt>
      <trkpt lat="47.53773" lon="6.74902">
        <ele>434</ele>
        <time>2015-03-22T10:55:18.000Z</time>
      </trkpt>
      <trkpt lat="47.53774" lon="6.74908">
        <ele>434</ele>
        <time>2015-03-22T10:55:20.000Z</time>
      </trkpt>
      <trkpt lat="47.53774" lon="6.74912">
        <ele>434</ele>
        <time>2015-03-22T10:55:21.000Z</time>
      </trkpt>
      <trkpt lat="47.53774" lon="6.74916">
        <ele>434</ele>
        <time>2015-03-22T10:55:22.000Z</time>
      </trkpt>
      <trkpt lat="47.53774" lon="6.7492">
        <ele>434</ele>
        <time>2015-03-22T10:55:23.000Z</time>
      </trkpt>
      <trkpt lat="47.53773" lon="6.74924">
        <ele>434</ele>
        <time>2015-03-22T10:55:24.000Z</time>
      </trkpt>
      <trkpt lat="47.53772" lon="6.74928">
        <ele>434</ele>
        <time>2015-03-22T10:55:25.000Z</time>
      </trkpt>
      <trkpt lat="47.5377" lon="6.74932">
        <ele>434</ele>
        <time>2015-03-22T10:55:26.000Z</time>
      </trkpt>
      <trkpt lat="47.53768" lon="6.74936">
        <ele>434</ele>
        <time>2015-03-22T10:55:27.000Z</time>
      </trkpt>
      <trkpt lat="47.53767" lon="6.7494">
        <ele>434</ele>
        <time>2015-03-22T10:55:28.000Z</time>
      </trkpt>
      <trkpt lat="47.53765" lon="6.74943">
        <ele>434</ele>
        <time>2015-03-22T10:55:29.000Z</time>
      </trkpt>
      <trkpt lat="47.53763" lon="6.74946">
        <ele>434</ele>
        <time>2015-03-22T10:55:30.000Z</time>
      </trkpt>
      <trkpt lat="47.53761" lon="6.7495">
        <ele>434</ele>
        <time>2015-03-22T10:55:31.000Z</time>
      </trkpt>
      <trkpt lat="47.53759" lon="6.74953">
        <ele>434</ele>
        <time>2015-03-22T10:55:32.000Z</time>
      </trkpt>
      <trkpt lat="47.53757" lon="6.74956">
        <ele>434</ele>
        <time>2015-03-22T10:55:33.000Z</time>
      </trkpt>
      <trkpt lat="47.53756" lon="6.74959">
        <ele>434</ele>
        <time>2015-03-22T10:55:34.000Z</time>
      </trkpt>
      <trkpt lat="47.53754" lon="6.74962">
        <ele>434</ele>
        <time>2015-03-22T10:55:35.000Z</time>
      </trkpt>
      <trkpt lat="47.53752" lon="6.74966">
        <ele>434</ele>
        <time>2015-03-22T10:55:36.000Z</time>
      </trkpt>
      <trkpt lat="47.5375" lon="6.7497">
        <ele>433</ele>
        <time>2015-03-22T10:55:37.000Z</time>
      </trkpt>
      <trkpt lat="47.53748" lon="6.74974">
        <ele>434</ele>
        <time>2015-03-22T10:55:38.000Z</time>
      </trkpt>
      <trkpt lat="47.53747" lon="6.74978">
        <ele>434</ele>
        <time>2015-03-22T10:55:39.000Z</time>
      </trkpt>
      <trkpt lat="47.53745" lon="6.74982">
        <ele>434</ele>
        <time>2015-03-22T10:55:40.000Z</time>
      </trkpt>
      <trkpt lat="47.53743" lon="6.74986">
        <ele>434</ele>
        <time>2015-03-22T10:55:41.000Z</time>
      </trkpt>
      <trkpt lat="47.53741" lon="6.7499">
        <ele>434</ele>
        <time>2015-03-22T10:55:42.000Z</time>
      </trkpt>
      <trkpt lat="47.53738" lon="6.74995">
        <ele>434</ele>
        <time>2015-03-22T10:55:43.000Z</time>
      </trkpt>
      <trkpt lat="47.53736" lon="6.74999">
        <ele>434</ele>
        <time>2015-03-22T10:55:44.000Z</time>
      </trkpt>
      <trkpt lat="47.53734" lon="6.75004">
        <ele>435</ele>
        <time>2015-03-22T10:55:45.000Z</time>
      </trkpt>
      <trkpt lat="47.53733" lon="6.75009">
        <ele>435</ele>
        <time>2015-03-22T10:55:46.000Z</time>
      </trkpt>
      <trkpt lat="47.53731" lon="6.75014">
        <ele>435</ele>
        <time>2015-03-22T10:55:47.000Z</time>
      </trkpt>
      <trkpt lat="47.5373" lon="6.75018">
        <ele>436</ele>
        <time>2015-03-22T10:55:48.000Z</time>
      </trkpt>
      <trkpt lat="47.53729" lon="6.75023">
        <ele>436</ele>
        <time>2015-03-22T10:55:49.000Z</time>
      </trkpt>
      <trkpt lat="47.53727" lon="6.75027">
        <ele>436</ele>
        <time>2015-03-22T10:55:50.000Z</time>
      </trkpt>
      <trkpt lat="47.53726" lon="6.75031">
        <ele>436</ele>
        <time>2015-03-22T10:55:51.000Z</time>
      </trkpt>
      <trkpt lat="47.53724" lon="6.75036">
        <ele>436</ele>
        <time>2015-03-22T10:55:52.000Z</time>
      </trkpt>
      <trkpt lat="47.53722" lon="6.75041">
        <ele>437</ele>
        <time>2015-03-22T10:55:53.000Z</time>
      </trkpt>
      <trkpt lat="47.5372" lon="6.75045">
        <ele>437</ele>
        <time>2015-03-22T10:55:54.000Z</time>
      </trkpt>
      <trkpt lat="47.53718" lon="6.7505">
        <ele>437</ele>
        <time>2015-03-22T10:55:55.000Z</time>
      </trkpt>
      <trkpt lat="47.53716" lon="6.75055">
        <ele>437</ele>
        <time>2015-03-22T10:55:56.000Z</time>
      </trkpt>
      <trkpt lat="47.53713" lon="6.75061">
        <ele>437</ele>
        <time>2015-03-22T10:55:57.000Z</time>
      </trkpt>
      <trkpt lat="47.53705" lon="6.75086">
        <ele>438</ele>
        <time>2015-03-22T10:55:58.000Z</time>
      </trkpt>
      <trkpt lat="47.53702" lon="6.75094">
        <ele>438</ele>
        <time>2015-03-22T10:55:59.000Z</time>
      </trkpt>
      <trkpt lat="47.537" lon="6.75101">
        <ele>438</ele>
        <time>2015-03-22T10:56:00.000Z</time>
      </trkpt>
      <trkpt lat="47.53698" lon="6.75109">
        <ele>438</ele>
        <time>2015-03-22T10:56:01.000Z</time>
      </trkpt>
      <trkpt lat="47.53696" lon="6.75121">
        <ele>438</ele>
        <time>2015-03-22T10:56:02.000Z</time>
      </trkpt>
      <trkpt lat="47.53695" lon="6.75129">
        <ele>437</ele>
        <time>2015-03-22T10:56:03.000Z</time>
      </trkpt>
      <trkpt lat="47.53692" lon="6.75136">
        <ele>437</ele>
        <time>2015-03-22T10:56:04.000Z</time>
      </trkpt>
      <trkpt lat="47.53689" lon="6.75142">
        <ele>437</ele>
        <time>2015-03-22T10:56:05.000Z</time>
      </trkpt>
      <trkpt lat="47.53686" lon="6.75149">
        <ele>437</ele>
        <time>2015-03-22T10:56:06.000Z</time>
      </trkpt>
      <trkpt lat="47.53683" lon="6.75152">
        <ele>437</ele>
        <time>2015-03-22T10:56:07.000Z</time>
      </trkpt>
      <trkpt lat="47.53679" lon="6.75158">
        <ele>437</ele>
        <time>2015-03-22T10:56:08.000Z</time>
      </trkpt>
      <trkpt lat="47.53676" lon="6.75163">
        <ele>437</ele>
        <time>2015-03-22T10:56:09.000Z</time>
      </trkpt>
      <trkpt lat="47.53673" lon="6.75167">
        <ele>436</ele>
        <time>2015-03-22T10:56:10.000Z</time>
      </trkpt>
      <trkpt lat="47.5367" lon="6.75171">
        <ele>436</ele>
        <time>2015-03-22T10:56:11.000Z</time>
      </trkpt>
      <trkpt lat="47.53666" lon="6.75175">
        <ele>435</ele>
        <time>2015-03-22T10:56:12.000Z</time>
      </trkpt>
      <trkpt lat="47.53664" lon="6.75178">
        <ele>435</ele>
        <time>2015-03-22T10:56:13.000Z</time>
      </trkpt>
      <trkpt lat="47.5366" lon="6.7518">
        <ele>434</ele>
        <time>2015-03-22T10:56:14.000Z</time>
      </trkpt>
      <trkpt lat="47.53656" lon="6.75184">
        <ele>434</ele>
        <time>2015-03-22T10:56:15.000Z</time>
      </trkpt>
      <trkpt lat="47.53647" lon="6.75195">
        <ele>432</ele>
        <time>2015-03-22T10:56:16.000Z</time>
      </trkpt>
      <trkpt lat="47.53641" lon="6.75197">
        <ele>432</ele>
        <time>2015-03-22T10:56:17.000Z</time>
      </trkpt>
      <trkpt lat="47.53634" lon="6.75197">
        <ele>432</ele>
        <time>2015-03-22T10:56:18.000Z</time>
      </trkpt>
      <trkpt lat="47.53627" lon="6.752">
        <ele>432</ele>
        <time>2015-03-22T10:56:19.000Z</time>
      </trkpt>
      <trkpt lat="47.53623" lon="6.75202">
        <ele>431</ele>
        <time>2015-03-22T10:56:20.000Z</time>
      </trkpt>
      <trkpt lat="47.5362" lon="6.75205">
        <ele>431</ele>
        <time>2015-03-22T10:56:21.000Z</time>
      </trkpt>
      <trkpt lat="47.53617" lon="6.75206">
        <ele>431</ele>
        <time>2015-03-22T10:56:23.000Z</time>
      </trkpt>
      <trkpt lat="47.53613" lon="6.75208">
        <ele>431</ele>
        <time>2015-03-22T10:56:24.000Z</time>
      </trkpt>
      <trkpt lat="47.5361" lon="6.7521">
        <ele>431</ele>
        <time>2015-03-22T10:56:25.000Z</time>
      </trkpt>
      <trkpt lat="47.53607" lon="6.75211">
        <ele>431</ele>
        <time>2015-03-22T10:56:26.000Z</time>
      </trkpt>
      <trkpt lat="47.53604" lon="6.75213">
        <ele>431</ele>
        <time>2015-03-22T10:56:27.000Z</time>
      </trkpt>
      <trkpt lat="47.53601" lon="6.75214">
        <ele>430</ele>
        <time>2015-03-22T10:56:28.000Z</time>
      </trkpt>
      <trkpt lat="47.53598" lon="6.75216">
        <ele>430</ele>
        <time>2015-03-22T10:56:29.000Z</time>
      </trkpt>
      <trkpt lat="47.53595" lon="6.75218">
        <ele>430</ele>
        <time>2015-03-22T10:56:30.000Z</time>
      </trkpt>
      <trkpt lat="47.53591" lon="6.75221">
        <ele>430</ele>
        <time>2015-03-22T10:56:31.000Z</time>
      </trkpt>
      <trkpt lat="47.53588" lon="6.75223">
        <ele>430</ele>
        <time>2015-03-22T10:56:32.000Z</time>
      </trkpt>
      <trkpt lat="47.53584" lon="6.75225">
        <ele>429</ele>
        <time>2015-03-22T10:56:33.000Z</time>
      </trkpt>
      <trkpt lat="47.5358" lon="6.75226">
        <ele>426</ele>
        <time>2015-03-22T10:56:34.000Z</time>
      </trkpt>
      <trkpt lat="47.53576" lon="6.75228">
        <ele>426</ele>
        <time>2015-03-22T10:56:35.000Z</time>
      </trkpt>
      <trkpt lat="47.53572" lon="6.75229">
        <ele>426</ele>
        <time>2015-03-22T10:56:36.000Z</time>
      </trkpt>
      <trkpt lat="47.53568" lon="6.75231">
        <ele>426</ele>
        <time>2015-03-22T10:56:37.000Z</time>
      </trkpt>
      <trkpt lat="47.53564" lon="6.75234">
        <ele>426</ele>
        <time>2015-03-22T10:56:38.000Z</time>
      </trkpt>
      <trkpt lat="47.5356" lon="6.75236">
        <ele>426</ele>
        <time>2015-03-22T10:56:39.000Z</time>
      </trkpt>
      <trkpt lat="47.53555" lon="6.75237">
        <ele>426</ele>
        <time>2015-03-22T10:56:40.000Z</time>
      </trkpt>
      <trkpt lat="47.5355" lon="6.75238">
        <ele>426</ele>
        <time>2015-03-22T10:56:41.000Z</time>
      </trkpt>
      <trkpt lat="47.53534" lon="6.75242">
        <ele>425</ele>
        <time>2015-03-22T10:56:42.000Z</time>
      </trkpt>
      <trkpt lat="47.53527" lon="6.75243">
        <ele>425</ele>
        <time>2015-03-22T10:56:43.000Z</time>
      </trkpt>
      <trkpt lat="47.53521" lon="6.75245">
        <ele>424</ele>
        <time>2015-03-22T10:56:44.000Z</time>
      </trkpt>
      <trkpt lat="47.53515" lon="6.75248">
        <ele>424</ele>
        <time>2015-03-22T10:56:45.000Z</time>
      </trkpt>
      <trkpt lat="47.53509" lon="6.75255">
        <ele>422</ele>
        <time>2015-03-22T10:56:46.000Z</time>
      </trkpt>
      <trkpt lat="47.53502" lon="6.75258">
        <ele>422</ele>
        <time>2015-03-22T10:56:47.000Z</time>
      </trkpt>
      <trkpt lat="47.53497" lon="6.75263">
        <ele>420</ele>
        <time>2015-03-22T10:56:48.000Z</time>
      </trkpt>
      <trkpt lat="47.53491" lon="6.75265">
        <ele>420</ele>
        <time>2015-03-22T10:56:49.000Z</time>
      </trkpt>
      <trkpt lat="47.53486" lon="6.75267">
        <ele>420</ele>
        <time>2015-03-22T10:56:50.000Z</time>
      </trkpt>
      <trkpt lat="47.53481" lon="6.75269">
        <ele>419</ele>
        <time>2015-03-22T10:56:51.000Z</time>
      </trkpt>
      <trkpt lat="47.53479" lon="6.75268">
        <ele>419</ele>
        <time>2015-03-22T10:56:52.000Z</time>
      </trkpt>
      <trkpt lat="47.53475" lon="6.75267">
        <ele>419</ele>
        <time>2015-03-22T10:56:53.000Z</time>
      </trkpt>
      <trkpt lat="47.53473" lon="6.75272">
        <ele>419</ele>
        <time>2015-03-22T10:56:58.000Z</time>
      </trkpt>
      <trkpt lat="47.53473" lon="6.75273">
        <ele>419</ele>
        <time>2015-03-22T10:56:59.000Z</time>
      </trkpt>
      <trkpt lat="47.53471" lon="6.75279">
        <ele>418</ele>
        <time>2015-03-22T10:57:03.000Z</time>
      </trkpt>
      <trkpt lat="47.5347" lon="6.75281">
        <ele>418</ele>
        <time>2015-03-22T10:57:04.000Z</time>
      </trkpt>
      <trkpt lat="47.53466" lon="6.75285">
        <ele>418</ele>
        <time>2015-03-22T10:57:06.000Z</time>
      </trkpt>
      <trkpt lat="47.53464" lon="6.75287">
        <ele>418</ele>
        <time>2015-03-22T10:57:07.000Z</time>
      </trkpt>
      <trkpt lat="47.53461" lon="6.7529">
        <ele>418</ele>
        <time>2015-03-22T10:57:08.000Z</time>
      </trkpt>
      <trkpt lat="47.53459" lon="6.75294">
        <ele>418</ele>
        <time>2015-03-22T10:57:09.000Z</time>
      </trkpt>
      <trkpt lat="47.53456" lon="6.75297">
        <ele>418</ele>
        <time>2015-03-22T10:57:10.000Z</time>
      </trkpt>
      <trkpt lat="47.53452" lon="6.75301">
        <ele>417</ele>
        <time>2015-03-22T10:57:11.000Z</time>
      </trkpt>
      <trkpt lat="47.53449" lon="6.75305">
        <ele>417</ele>
        <time>2015-03-22T10:57:12.000Z</time>
      </trkpt>
      <trkpt lat="47.53446" lon="6.75308">
        <ele>417</ele>
        <time>2015-03-22T10:57:13.000Z</time>
      </trkpt>
      <trkpt lat="47.53442" lon="6.7531">
        <ele>417</ele>
        <time>2015-03-22T10:57:14.000Z</time>
      </trkpt>
      <trkpt lat="47.53439" lon="6.75312">
        <ele>417</ele>
        <time>2015-03-22T10:57:15.000Z</time>
      </trkpt>
      <trkpt lat="47.53436" lon="6.75314">
        <ele>417</ele>
        <time>2015-03-22T10:57:16.000Z</time>
      </trkpt>
      <trkpt lat="47.53431" lon="6.75318">
        <ele>416</ele>
        <time>2015-03-22T10:57:17.000Z</time>
      </trkpt>
      <trkpt lat="47.53427" lon="6.75322">
        <ele>416</ele>
        <time>2015-03-22T10:57:18.000Z</time>
      </trkpt>
      <trkpt lat="47.53423" lon="6.75327">
        <ele>415</ele>
        <time>2015-03-22T10:57:19.000Z</time>
      </trkpt>
      <trkpt lat="47.53419" lon="6.75332">
        <ele>414</ele>
        <time>2015-03-22T10:57:20.000Z</time>
      </trkpt>
      <trkpt lat="47.53415" lon="6.75336">
        <ele>413</ele>
        <time>2015-03-22T10:57:21.000Z</time>
      </trkpt>
      <trkpt lat="47.53413" lon="6.75339">
        <ele>413</ele>
        <time>2015-03-22T10:57:22.000Z</time>
      </trkpt>
      <trkpt lat="47.53409" lon="6.75342">
        <ele>412</ele>
        <time>2015-03-22T10:57:24.000Z</time>
      </trkpt>
      <trkpt lat="47.53407" lon="6.75343">
        <ele>412</ele>
        <time>2015-03-22T10:57:25.000Z</time>
      </trkpt>
      <trkpt lat="47.53403" lon="6.75346">
        <ele>411</ele>
        <time>2015-03-22T10:57:27.000Z</time>
      </trkpt>
      <trkpt lat="47.53401" lon="6.75348">
        <ele>411</ele>
        <time>2015-03-22T10:57:28.000Z</time>
      </trkpt>
      <trkpt lat="47.53399" lon="6.75351">
        <ele>410</ele>
        <time>2015-03-22T10:57:29.000Z</time>
      </trkpt>
      <trkpt lat="47.53397" lon="6.75354">
        <ele>410</ele>
        <time>2015-03-22T10:57:30.000Z</time>
      </trkpt>
      <trkpt lat="47.53394" lon="6.75357">
        <ele>410</ele>
        <time>2015-03-22T10:57:31.000Z</time>
      </trkpt>
      <trkpt lat="47.53392" lon="6.7536">
        <ele>410</ele>
        <time>2015-03-22T10:57:32.000Z</time>
      </trkpt>
      <trkpt lat="47.53391" lon="6.75363">
        <ele>409</ele>
        <time>2015-03-22T10:57:33.000Z</time>
      </trkpt>
      <trkpt lat="47.53388" lon="6.75369">
        <ele>409</ele>
        <time>2015-03-22T10:57:34.000Z</time>
      </trkpt>
      <trkpt lat="47.53386" lon="6.75373">
        <ele>409</ele>
        <time>2015-03-22T10:57:36.000Z</time>
      </trkpt>
      <trkpt lat="47.53385" lon="6.75375">
        <ele>409</ele>
        <time>2015-03-22T10:57:37.000Z</time>
      </trkpt>
      <trkpt lat="47.53383" lon="6.7538">
        <ele>408</ele>
        <time>2015-03-22T10:57:39.000Z</time>
      </trkpt>
      <trkpt lat="47.53382" lon="6.75383">
        <ele>408</ele>
        <time>2015-03-22T10:57:40.000Z</time>
      </trkpt>
      <trkpt lat="47.5338" lon="6.75388">
        <ele>408</ele>
        <time>2015-03-22T10:57:42.000Z</time>
      </trkpt>
      <trkpt lat="47.5338" lon="6.75391">
        <ele>408</ele>
        <time>2015-03-22T10:57:43.000Z</time>
      </trkpt>
      <trkpt lat="47.53379" lon="6.75396">
        <ele>408</ele>
        <time>2015-03-22T10:57:45.000Z</time>
      </trkpt>
      <trkpt lat="47.53379" lon="6.75398">
        <ele>408</ele>
        <time>2015-03-22T10:57:46.000Z</time>
      </trkpt>
      <trkpt lat="47.53379" lon="6.75402">
        <ele>408</ele>
        <time>2015-03-22T10:57:49.000Z</time>
      </trkpt>
      <trkpt lat="47.53379" lon="6.75405">
        <ele>407</ele>
        <time>2015-03-22T10:57:50.000Z</time>
      </trkpt>
      <trkpt lat="47.53376" lon="6.7541">
        <ele>407</ele>
        <time>2015-03-22T10:57:55.000Z</time>
      </trkpt>
      <trkpt lat="47.53376" lon="6.7541">
        <ele>407</ele>
        <time>2015-03-22T10:57:56.000Z</time>
      </trkpt>
      <trkpt lat="47.53373" lon="6.75415">
        <ele>407</ele>
        <time>2015-03-22T10:58:01.000Z</time>
      </trkpt>
      <trkpt lat="47.53372" lon="6.75418">
        <ele>404</ele>
        <time>2015-03-22T10:58:03.000Z</time>
      </trkpt>
      <trkpt lat="47.53369" lon="6.75422">
        <ele>403</ele>
        <time>2015-03-22T10:58:07.000Z</time>
      </trkpt>
      <trkpt lat="47.53369" lon="6.75423">
        <ele>403</ele>
        <time>2015-03-22T10:58:08.000Z</time>
      </trkpt>
      <trkpt lat="47.53367" lon="6.75427">
        <ele>403</ele>
        <time>2015-03-22T10:58:10.000Z</time>
      </trkpt>
      <trkpt lat="47.53365" lon="6.75428">
        <ele>403</ele>
        <time>2015-03-22T10:58:11.000Z</time>
      </trkpt>
      <trkpt lat="47.53362" lon="6.75432">
        <ele>403</ele>
        <time>2015-03-22T10:58:13.001Z</time>
      </trkpt>
      <trkpt lat="47.53358" lon="6.75435">
        <ele>403</ele>
        <time>2015-03-22T10:58:14.000Z</time>
      </trkpt>
      <trkpt lat="47.53355" lon="6.75436">
        <ele>403</ele>
        <time>2015-03-22T10:58:15.000Z</time>
      </trkpt>
      <trkpt lat="47.53352" lon="6.75438">
        <ele>403</ele>
        <time>2015-03-22T10:58:16.000Z</time>
      </trkpt>
      <trkpt lat="47.5335" lon="6.75439">
        <ele>403</ele>
        <time>2015-03-22T10:58:17.000Z</time>
      </trkpt>
      <trkpt lat="47.53347" lon="6.7544">
        <ele>403</ele>
        <time>2015-03-22T10:58:18.000Z</time>
      </trkpt>
      <trkpt lat="47.53344" lon="6.75443">
        <ele>403</ele>
        <time>2015-03-22T10:58:19.000Z</time>
      </trkpt>
      <trkpt lat="47.53341" lon="6.75447">
        <ele>403</ele>
        <time>2015-03-22T10:58:20.000Z</time>
      </trkpt>
      <trkpt lat="47.53338" lon="6.75451">
        <ele>403</ele>
        <time>2015-03-22T10:58:21.000Z</time>
      </trkpt>
      <trkpt lat="47.53336" lon="6.75455">
        <ele>403</ele>
        <time>2015-03-22T10:58:22.000Z</time>
      </trkpt>
      <trkpt lat="47.53333" lon="6.75461">
        <ele>400</ele>
        <time>2015-03-22T10:58:23.000Z</time>
      </trkpt>
      <trkpt lat="47.53331" lon="6.75467">
        <ele>400</ele>
        <time>2015-03-22T10:58:24.000Z</time>
      </trkpt>
      <trkpt lat="47.53328" lon="6.75473">
        <ele>400</ele>
        <time>2015-03-22T10:58:25.000Z</time>
      </trkpt>
      <trkpt lat="47.53318" lon="6.75489">
        <ele>400</ele>
        <time>2015-03-22T10:58:26.000Z</time>
      </trkpt>
      <trkpt lat="47.53313" lon="6.75497">
        <ele>399</ele>
        <time>2015-03-22T10:58:27.000Z</time>
      </trkpt>
      <trkpt lat="47.5331" lon="6.75504">
        <ele>395</ele>
        <time>2015-03-22T10:58:28.000Z</time>
      </trkpt>
      <trkpt lat="47.53307" lon="6.75515">
        <ele>395</ele>
        <time>2015-03-22T10:58:29.000Z</time>
      </trkpt>
      <trkpt lat="47.53306" lon="6.75519">
        <ele>394</ele>
        <time>2015-03-22T10:58:30.000Z</time>
      </trkpt>
      <trkpt lat="47.53305" lon="6.75525">
        <ele>394</ele>
        <time>2015-03-22T10:58:31.000Z</time>
      </trkpt>
      <trkpt lat="47.53304" lon="6.75531">
        <ele>393</ele>
        <time>2015-03-22T10:58:32.000Z</time>
      </trkpt>
      <trkpt lat="47.53304" lon="6.75537">
        <ele>393</ele>
        <time>2015-03-22T10:58:33.000Z</time>
      </trkpt>
      <trkpt lat="47.53302" lon="6.75541">
        <ele>393</ele>
        <time>2015-03-22T10:58:34.000Z</time>
      </trkpt>
      <trkpt lat="47.53299" lon="6.75543">
        <ele>392</ele>
        <time>2015-03-22T10:58:35.000Z</time>
      </trkpt>
      <trkpt lat="47.53298" lon="6.75547">
        <ele>392</ele>
        <time>2015-03-22T10:58:36.000Z</time>
      </trkpt>
      <trkpt lat="47.53295" lon="6.75551">
        <ele>392</ele>
        <time>2015-03-22T10:58:37.000Z</time>
      </trkpt>
      <trkpt lat="47.53293" lon="6.75555">
        <ele>392</ele>
        <time>2015-03-22T10:58:38.000Z</time>
      </trkpt>
      <trkpt lat="47.5329" lon="6.75558">
        <ele>391</ele>
        <time>2015-03-22T10:58:39.000Z</time>
      </trkpt>
      <trkpt lat="47.53287" lon="6.75562">
        <ele>391</ele>
        <time>2015-03-22T10:58:40.000Z</time>
      </trkpt>
      <trkpt lat="47.53285" lon="6.75565">
        <ele>391</ele>
        <time>2015-03-22T10:58:41.000Z</time>
      </trkpt>
      <trkpt lat="47.53282" lon="6.7557">
        <ele>390</ele>
        <time>2015-03-22T10:58:42.000Z</time>
      </trkpt>
      <trkpt lat="47.53279" lon="6.75574">
        <ele>390</ele>
        <time>2015-03-22T10:58:43.000Z</time>
      </trkpt>
      <trkpt lat="47.53267" lon="6.75585">
        <ele>384</ele>
        <time>2015-03-22T10:58:44.000Z</time>
      </trkpt>
      <trkpt lat="47.53262" lon="6.75592">
        <ele>384</ele>
        <time>2015-03-22T10:58:45.000Z</time>
      </trkpt>
      <trkpt lat="47.53256" lon="6.75599">
        <ele>384</ele>
        <time>2015-03-22T10:58:46.000Z</time>
      </trkpt>
      <trkpt lat="47.53252" lon="6.75608">
        <ele>384</ele>
        <time>2015-03-22T10:58:47.000Z</time>
      </trkpt>
      <trkpt lat="47.53244" lon="6.75617">
        <ele>380</ele>
        <time>2015-03-22T10:58:48.000Z</time>
      </trkpt>
      <trkpt lat="47.5324" lon="6.75623">
        <ele>380</ele>
        <time>2015-03-22T10:58:49.000Z</time>
      </trkpt>
      <trkpt lat="47.53237" lon="6.75633">
        <ele>379</ele>
        <time>2015-03-22T10:58:50.000Z</time>
      </trkpt>
      <trkpt lat="47.53235" lon="6.75643">
        <ele>379</ele>
        <time>2015-03-22T10:58:51.000Z</time>
      </trkpt>
      <trkpt lat="47.53236" lon="6.75649">
        <ele>378</ele>
        <time>2015-03-22T10:58:52.000Z</time>
      </trkpt>
      <trkpt lat="47.53233" lon="6.75655">
        <ele>378</ele>
        <time>2015-03-22T10:58:53.000Z</time>
      </trkpt>
      <trkpt lat="47.53225" lon="6.75678">
        <ele>375</ele>
        <time>2015-03-22T10:58:54.000Z</time>
      </trkpt>
      <trkpt lat="47.53223" lon="6.75683">
        <ele>375</ele>
        <time>2015-03-22T10:58:55.000Z</time>
      </trkpt>
      <trkpt lat="47.5322" lon="6.75692">
        <ele>375</ele>
        <time>2015-03-22T10:58:56.000Z</time>
      </trkpt>
      <trkpt lat="47.53217" lon="6.757">
        <ele>375</ele>
        <time>2015-03-22T10:58:57.000Z</time>
      </trkpt>
      <trkpt lat="47.53212" lon="6.75704">
        <ele>374</ele>
        <time>2015-03-22T10:58:58.000Z</time>
      </trkpt>
      <trkpt lat="47.53208" lon="6.75707">
        <ele>374</ele>
        <time>2015-03-22T10:58:59.000Z</time>
      </trkpt>
      <trkpt lat="47.53204" lon="6.7571">
        <ele>374</ele>
        <time>2015-03-22T10:59:00.000Z</time>
      </trkpt>
      <trkpt lat="47.53207" lon="6.75708">
        <ele>374</ele>
        <time>2015-03-22T10:59:01.000Z</time>
      </trkpt>
      <trkpt lat="47.53207" lon="6.75715">
        <ele>374</ele>
        <time>2015-03-22T10:59:03.000Z</time>
      </trkpt>
      <trkpt lat="47.53207" lon="6.75719">
        <ele>374</ele>
        <time>2015-03-22T10:59:04.000Z</time>
      </trkpt>
      <trkpt lat="47.53207" lon="6.75724">
        <ele>374</ele>
        <time>2015-03-22T10:59:05.000Z</time>
      </trkpt>
      <trkpt lat="47.53208" lon="6.75727">
        <ele>374</ele>
        <time>2015-03-22T10:59:06.000Z</time>
      </trkpt>
      <trkpt lat="47.53211" lon="6.75731">
        <ele>374</ele>
        <time>2015-03-22T10:59:07.000Z</time>
      </trkpt>
      <trkpt lat="47.53212" lon="6.75737">
        <ele>375</ele>
        <time>2015-03-22T10:59:09.000Z</time>
      </trkpt>
      <trkpt lat="47.53213" lon="6.7574">
        <ele>375</ele>
        <time>2015-03-22T10:59:10.000Z</time>
      </trkpt>
      <trkpt lat="47.53214" lon="6.75746">
        <ele>375</ele>
        <time>2015-03-22T10:59:12.000Z</time>
      </trkpt>
      <trkpt lat="47.53214" lon="6.75749">
        <ele>375</ele>
        <time>2015-03-22T10:59:13.000Z</time>
      </trkpt>
      <trkpt lat="47.53214" lon="6.75755">
        <ele>377</ele>
        <time>2015-03-22T10:59:15.000Z</time>
      </trkpt>
      <trkpt lat="47.53214" lon="6.75759">
        <ele>377</ele>
        <time>2015-03-22T10:59:16.000Z</time>
      </trkpt>
      <trkpt lat="47.53213" lon="6.75764">
        <ele>377</ele>
        <time>2015-03-22T10:59:17.000Z</time>
      </trkpt>
      <trkpt lat="47.53212" lon="6.75768">
        <ele>377</ele>
        <time>2015-03-22T10:59:18.000Z</time>
      </trkpt>
      <trkpt lat="47.53211" lon="6.75773">
        <ele>377</ele>
        <time>2015-03-22T10:59:19.000Z</time>
      </trkpt>
      <trkpt lat="47.5321" lon="6.75777">
        <ele>377</ele>
        <time>2015-03-22T10:59:20.000Z</time>
      </trkpt>
      <trkpt lat="47.5321" lon="6.75781">
        <ele>377</ele>
        <time>2015-03-22T10:59:21.000Z</time>
      </trkpt>
      <trkpt lat="47.5321" lon="6.75784">
        <ele>377</ele>
        <time>2015-03-22T10:59:22.000Z</time>
      </trkpt>
      <trkpt lat="47.53212" lon="6.75788">
        <ele>377</ele>
        <time>2015-03-22T10:59:24.000Z</time>
      </trkpt>
      <trkpt lat="47.53213" lon="6.7579">
        <ele>377</ele>
        <time>2015-03-22T10:59:25.000Z</time>
      </trkpt>
      <trkpt lat="47.53214" lon="6.75794">
        <ele>377</ele>
        <time>2015-03-22T10:59:27.000Z</time>
      </trkpt>
      <trkpt lat="47.53213" lon="6.75797">
        <ele>378</ele>
        <time>2015-03-22T10:59:28.000Z</time>
      </trkpt>
      <trkpt lat="47.53212" lon="6.758">
        <ele>378</ele>
        <time>2015-03-22T10:59:29.000Z</time>
      </trkpt>
      <trkpt lat="47.53211" lon="6.75804">
        <ele>378</ele>
        <time>2015-03-22T10:59:30.000Z</time>
      </trkpt>
      <trkpt lat="47.53211" lon="6.75808">
        <ele>378</ele>
        <time>2015-03-22T10:59:31.000Z</time>
      </trkpt>
      <trkpt lat="47.53211" lon="6.75811">
        <ele>378</ele>
        <time>2015-03-22T10:59:32.000Z</time>
      </trkpt>
      <trkpt lat="47.53211" lon="6.75817">
        <ele>378</ele>
        <time>2015-03-22T10:59:34.000Z</time>
      </trkpt>
      <trkpt lat="47.53212" lon="6.7582">
        <ele>378</ele>
        <time>2015-03-22T10:59:35.000Z</time>
      </trkpt>
      <trkpt lat="47.53214" lon="6.75825">
        <ele>378</ele>
        <time>2015-03-22T10:59:37.000Z</time>
      </trkpt>
      <trkpt lat="47.53215" lon="6.75828">
        <ele>378</ele>
        <time>2015-03-22T10:59:38.000Z</time>
      </trkpt>
      <trkpt lat="47.53215" lon="6.75832">
        <ele>379</ele>
        <time>2015-03-22T10:59:39.000Z</time>
      </trkpt>
      <trkpt lat="47.53215" lon="6.75837">
        <ele>381</ele>
        <time>2015-03-22T10:59:40.000Z</time>
      </trkpt>
      <trkpt lat="47.53215" lon="6.75842">
        <ele>382</ele>
        <time>2015-03-22T10:59:41.000Z</time>
      </trkpt>
      <trkpt lat="47.53215" lon="6.75847">
        <ele>382</ele>
        <time>2015-03-22T10:59:42.000Z</time>
      </trkpt>
      <trkpt lat="47.53215" lon="6.75851">
        <ele>382</ele>
        <time>2015-03-22T10:59:43.000Z</time>
      </trkpt>
      <trkpt lat="47.53215" lon="6.75856">
        <ele>382</ele>
        <time>2015-03-22T10:59:44.000Z</time>
      </trkpt>
      <trkpt lat="47.53215" lon="6.75859">
        <ele>382</ele>
        <time>2015-03-22T10:59:45.000Z</time>
      </trkpt>
      <trkpt lat="47.53215" lon="6.75863">
        <ele>382</ele>
        <time>2015-03-22T10:59:46.000Z</time>
      </trkpt>
      <trkpt lat="47.53216" lon="6.75869">
        <ele>382</ele>
        <time>2015-03-22T10:59:48.000Z</time>
      </trkpt>
      <trkpt lat="47.53216" lon="6.75872">
        <ele>382</ele>
        <time>2015-03-22T10:59:49.000Z</time>
      </trkpt>
      <trkpt lat="47.53217" lon="6.75876">
        <ele>382</ele>
        <time>2015-03-22T10:59:50.000Z</time>
      </trkpt>
      <trkpt lat="47.53218" lon="6.7588">
        <ele>382</ele>
        <time>2015-03-22T10:59:51.000Z</time>
      </trkpt>
      <trkpt lat="47.53219" lon="6.75884">
        <ele>382</ele>
        <time>2015-03-22T10:59:52.000Z</time>
      </trkpt>
      <trkpt lat="47.5322" lon="6.75887">
        <ele>382</ele>
        <time>2015-03-22T10:59:53.000Z</time>
      </trkpt>
      <trkpt lat="47.53222" lon="6.75891">
        <ele>383</ele>
        <time>2015-03-22T10:59:55.000Z</time>
      </trkpt>
      <trkpt lat="47.53223" lon="6.75893">
        <ele>383</ele>
        <time>2015-03-22T10:59:56.000Z</time>
      </trkpt>
      <trkpt lat="47.53225" lon="6.75898">
        <ele>383</ele>
        <time>2015-03-22T10:59:59.000Z</time>
      </trkpt>
      <trkpt lat="47.53226" lon="6.759">
        <ele>383</ele>
        <time>2015-03-22T11:00:00.000Z</time>
      </trkpt>
      <trkpt lat="47.53227" lon="6.75902">
        <ele>383</ele>
        <time>2015-03-22T11:00:01.000Z</time>
      </trkpt>
      <trkpt lat="47.53227" lon="6.75908">
        <ele>383</ele>
        <time>2015-03-22T11:00:03.000Z</time>
      </trkpt>
      <trkpt lat="47.53226" lon="6.75914">
        <ele>383</ele>
        <time>2015-03-22T11:00:06.000Z</time>
      </trkpt>
      <trkpt lat="47.53226" lon="6.75916">
        <ele>383</ele>
        <time>2015-03-22T11:00:07.000Z</time>
      </trkpt>
      <trkpt lat="47.53225" lon="6.75922">
        <ele>384</ele>
        <time>2015-03-22T11:00:09.000Z</time>
      </trkpt>
      <trkpt lat="47.53226" lon="6.75926">
        <ele>384</ele>
        <time>2015-03-22T11:00:10.000Z</time>
      </trkpt>
      <trkpt lat="47.53227" lon="6.7593">
        <ele>384</ele>
        <time>2015-03-22T11:00:11.000Z</time>
      </trkpt>
      <trkpt lat="47.53227" lon="6.75934">
        <ele>384</ele>
        <time>2015-03-22T11:00:12.000Z</time>
      </trkpt>
      <trkpt lat="47.53228" lon="6.75937">
        <ele>384</ele>
        <time>2015-03-22T11:00:13.000Z</time>
      </trkpt>
      <trkpt lat="47.53229" lon="6.7594">
        <ele>384</ele>
        <time>2015-03-22T11:00:14.000Z</time>
      </trkpt>
      <trkpt lat="47.5323" lon="6.75946">
        <ele>384</ele>
        <time>2015-03-22T11:00:16.000Z</time>
      </trkpt>
      <trkpt lat="47.53231" lon="6.75949">
        <ele>384</ele>
        <time>2015-03-22T11:00:17.000Z</time>
      </trkpt>
      <trkpt lat="47.53232" lon="6.75952">
        <ele>384</ele>
        <time>2015-03-22T11:00:18.000Z</time>
      </trkpt>
      <trkpt lat="47.53233" lon="6.75956">
        <ele>384</ele>
        <time>2015-03-22T11:00:19.000Z</time>
      </trkpt>
      <trkpt lat="47.53234" lon="6.75961">
        <ele>384</ele>
        <time>2015-03-22T11:00:20.000Z</time>
      </trkpt>
      <trkpt lat="47.53234" lon="6.75966">
        <ele>384</ele>
        <time>2015-03-22T11:00:21.000Z</time>
      </trkpt>
      <trkpt lat="47.53234" lon="6.75971">
        <ele>384</ele>
        <time>2015-03-22T11:00:22.000Z</time>
      </trkpt>
      <trkpt lat="47.53235" lon="6.75976">
        <ele>384</ele>
        <time>2015-03-22T11:00:23.000Z</time>
      </trkpt>
      <trkpt lat="47.53236" lon="6.75981">
        <ele>384</ele>
        <time>2015-03-22T11:00:24.000Z</time>
      </trkpt>
      <trkpt lat="47.53237" lon="6.75986">
        <ele>384</ele>
        <time>2015-03-22T11:00:25.000Z</time>
      </trkpt>
      <trkpt lat="47.53239" lon="6.75991">
        <ele>384</ele>
        <time>2015-03-22T11:00:26.000Z</time>
      </trkpt>
      <trkpt lat="47.5324" lon="6.75996">
        <ele>384</ele>
        <time>2015-03-22T11:00:27.000Z</time>
      </trkpt>
      <trkpt lat="47.53241" lon="6.76002">
        <ele>383</ele>
        <time>2015-03-22T11:00:28.000Z</time>
      </trkpt>
      <trkpt lat="47.53242" lon="6.76008">
        <ele>383</ele>
        <time>2015-03-22T11:00:29.000Z</time>
      </trkpt>
      <trkpt lat="47.53242" lon="6.76014">
        <ele>384</ele>
        <time>2015-03-22T11:00:30.000Z</time>
      </trkpt>
      <trkpt lat="47.53242" lon="6.76021">
        <ele>384</ele>
        <time>2015-03-22T11:00:31.000Z</time>
      </trkpt>
      <trkpt lat="47.53242" lon="6.76028">
        <ele>384</ele>
        <time>2015-03-22T11:00:32.000Z</time>
      </trkpt>
      <trkpt lat="47.53242" lon="6.76036">
        <ele>384</ele>
        <time>2015-03-22T11:00:33.000Z</time>
      </trkpt>
      <trkpt lat="47.53242" lon="6.76043">
        <ele>384</ele>
        <time>2015-03-22T11:00:34.000Z</time>
      </trkpt>
      <trkpt lat="47.53242" lon="6.76049">
        <ele>384</ele>
        <time>2015-03-22T11:00:35.000Z</time>
      </trkpt>
      <trkpt lat="47.53241" lon="6.76056">
        <ele>384</ele>
        <time>2015-03-22T11:00:36.000Z</time>
      </trkpt>
      <trkpt lat="47.53241" lon="6.76063">
        <ele>384</ele>
        <time>2015-03-22T11:00:37.000Z</time>
      </trkpt>
      <trkpt lat="47.53241" lon="6.7607">
        <ele>384</ele>
        <time>2015-03-22T11:00:38.000Z</time>
      </trkpt>
      <trkpt lat="47.53241" lon="6.76078">
        <ele>384</ele>
        <time>2015-03-22T11:00:39.000Z</time>
      </trkpt>
      <trkpt lat="47.53241" lon="6.76085">
        <ele>384</ele>
        <time>2015-03-22T11:00:40.000Z</time>
      </trkpt>
      <trkpt lat="47.53241" lon="6.76093">
        <ele>384</ele>
        <time>2015-03-22T11:00:41.000Z</time>
      </trkpt>
      <trkpt lat="47.53241" lon="6.761">
        <ele>384</ele>
        <time>2015-03-22T11:00:42.000Z</time>
      </trkpt>
      <trkpt lat="47.5324" lon="6.76107">
        <ele>384</ele>
        <time>2015-03-22T11:00:43.000Z</time>
      </trkpt>
      <trkpt lat="47.5324" lon="6.76114">
        <ele>384</ele>
        <time>2015-03-22T11:00:44.000Z</time>
      </trkpt>
      <trkpt lat="47.53241" lon="6.76119">
        <ele>384</ele>
        <time>2015-03-22T11:00:45.000Z</time>
      </trkpt>
      <trkpt lat="47.53242" lon="6.76124">
        <ele>384</ele>
        <time>2015-03-22T11:00:46.000Z</time>
      </trkpt>
      <trkpt lat="47.53242" lon="6.76129">
        <ele>384</ele>
        <time>2015-03-22T11:00:47.000Z</time>
      </trkpt>
      <trkpt lat="47.53242" lon="6.76132">
        <ele>384</ele>
        <time>2015-03-22T11:00:48.000Z</time>
      </trkpt>
      <trkpt lat="47.53242" lon="6.76136">
        <ele>384</ele>
        <time>2015-03-22T11:00:49.000Z</time>
      </trkpt>
      <trkpt lat="47.53242" lon="6.7614">
        <ele>384</ele>
        <time>2015-03-22T11:00:50.000Z</time>
      </trkpt>
      <trkpt lat="47.53242" lon="6.76145">
        <ele>384</ele>
        <time>2015-03-22T11:00:51.000Z</time>
      </trkpt>
      <trkpt lat="47.53241" lon="6.76151">
        <ele>384</ele>
        <time>2015-03-22T11:00:52.000Z</time>
      </trkpt>
      <trkpt lat="47.53241" lon="6.76156">
        <ele>384</ele>
        <time>2015-03-22T11:00:53.000Z</time>
      </trkpt>
      <trkpt lat="47.53241" lon="6.76162">
        <ele>384</ele>
        <time>2015-03-22T11:00:54.000Z</time>
      </trkpt>
      <trkpt lat="47.53241" lon="6.76166">
        <ele>384</ele>
        <time>2015-03-22T11:00:55.000Z</time>
      </trkpt>
      <trkpt lat="47.53241" lon="6.7617">
        <ele>384</ele>
        <time>2015-03-22T11:00:56.000Z</time>
      </trkpt>
      <trkpt lat="47.53241" lon="6.76175">
        <ele>384</ele>
        <time>2015-03-22T11:00:57.000Z</time>
      </trkpt>
      <trkpt lat="47.53241" lon="6.76179">
        <ele>383</ele>
        <time>2015-03-22T11:00:58.000Z</time>
      </trkpt>
      <trkpt lat="47.53241" lon="6.76184">
        <ele>383</ele>
        <time>2015-03-22T11:00:59.000Z</time>
      </trkpt>
      <trkpt lat="47.5324" lon="6.76189">
        <ele>383</ele>
        <time>2015-03-22T11:01:00.000Z</time>
      </trkpt>
      <trkpt lat="47.5324" lon="6.76194">
        <ele>383</ele>
        <time>2015-03-22T11:01:01.000Z</time>
      </trkpt>
      <trkpt lat="47.53239" lon="6.762">
        <ele>383</ele>
        <time>2015-03-22T11:01:02.000Z</time>
      </trkpt>
      <trkpt lat="47.53238" lon="6.76205">
        <ele>383</ele>
        <time>2015-03-22T11:01:03.000Z</time>
      </trkpt>
      <trkpt lat="47.53237" lon="6.76209">
        <ele>383</ele>
        <time>2015-03-22T11:01:04.000Z</time>
      </trkpt>
      <trkpt lat="47.53237" lon="6.76213">
        <ele>383</ele>
        <time>2015-03-22T11:01:05.000Z</time>
      </trkpt>
      <trkpt lat="47.53236" lon="6.76217">
        <ele>383</ele>
        <time>2015-03-22T11:01:06.000Z</time>
      </trkpt>
      <trkpt lat="47.53235" lon="6.76221">
        <ele>383</ele>
        <time>2015-03-22T11:01:07.000Z</time>
      </trkpt>
      <trkpt lat="47.53234" lon="6.76225">
        <ele>383</ele>
        <time>2015-03-22T11:01:08.000Z</time>
      </trkpt>
      <trkpt lat="47.53233" lon="6.76229">
        <ele>383</ele>
        <time>2015-03-22T11:01:09.000Z</time>
      </trkpt>
      <trkpt lat="47.53231" lon="6.76233">
        <ele>383</ele>
        <time>2015-03-22T11:01:10.000Z</time>
      </trkpt>
      <trkpt lat="47.5323" lon="6.76238">
        <ele>383</ele>
        <time>2015-03-22T11:01:11.000Z</time>
      </trkpt>
      <trkpt lat="47.53228" lon="6.76241">
        <ele>383</ele>
        <time>2015-03-22T11:01:12.000Z</time>
      </trkpt>
      <trkpt lat="47.53226" lon="6.76247">
        <ele>383</ele>
        <time>2015-03-22T11:01:14.000Z</time>
      </trkpt>
      <trkpt lat="47.53225" lon="6.76249">
        <ele>383</ele>
        <time>2015-03-22T11:01:15.000Z</time>
      </trkpt>
      <trkpt lat="47.53224" lon="6.76253">
        <ele>383</ele>
        <time>2015-03-22T11:01:16.000Z</time>
      </trkpt>
      <trkpt lat="47.53223" lon="6.76256">
        <ele>383</ele>
        <time>2015-03-22T11:01:17.000Z</time>
      </trkpt>
      <trkpt lat="47.53221" lon="6.7626">
        <ele>383</ele>
        <time>2015-03-22T11:01:18.000Z</time>
      </trkpt>
      <trkpt lat="47.5322" lon="6.76265">
        <ele>383</ele>
        <time>2015-03-22T11:01:19.000Z</time>
      </trkpt>
      <trkpt lat="47.53218" lon="6.7627">
        <ele>383</ele>
        <time>2015-03-22T11:01:20.000Z</time>
      </trkpt>
      <trkpt lat="47.53218" lon="6.76277">
        <ele>383</ele>
        <time>2015-03-22T11:01:21.000Z</time>
      </trkpt>
      <trkpt lat="47.53217" lon="6.76284">
        <ele>383</ele>
        <time>2015-03-22T11:01:22.000Z</time>
      </trkpt>
      <trkpt lat="47.53216" lon="6.76291">
        <ele>383</ele>
        <time>2015-03-22T11:01:23.000Z</time>
      </trkpt>
      <trkpt lat="47.53215" lon="6.76299">
        <ele>383</ele>
        <time>2015-03-22T11:01:24.000Z</time>
      </trkpt>
      <trkpt lat="47.53213" lon="6.76308">
        <ele>383</ele>
        <time>2015-03-22T11:01:25.000Z</time>
      </trkpt>
      <trkpt lat="47.5321" lon="6.76317">
        <ele>383</ele>
        <time>2015-03-22T11:01:26.000Z</time>
      </trkpt>
      <trkpt lat="47.53208" lon="6.76326">
        <ele>383</ele>
        <time>2015-03-22T11:01:27.000Z</time>
      </trkpt>
      <trkpt lat="47.53206" lon="6.76334">
        <ele>383</ele>
        <time>2015-03-22T11:01:28.000Z</time>
      </trkpt>
      <trkpt lat="47.53204" lon="6.7634">
        <ele>383</ele>
        <time>2015-03-22T11:01:29.000Z</time>
      </trkpt>
      <trkpt lat="47.53203" lon="6.76345">
        <ele>383</ele>
        <time>2015-03-22T11:01:30.000Z</time>
      </trkpt>
      <trkpt lat="47.53201" lon="6.7635">
        <ele>383</ele>
        <time>2015-03-22T11:01:31.000Z</time>
      </trkpt>
      <trkpt lat="47.53201" lon="6.76354">
        <ele>383</ele>
        <time>2015-03-22T11:01:32.000Z</time>
      </trkpt>
      <trkpt lat="47.53199" lon="6.76358">
        <ele>383</ele>
        <time>2015-03-22T11:01:34.000Z</time>
      </trkpt>
      <trkpt lat="47.53198" lon="6.76361">
        <ele>383</ele>
        <time>2015-03-22T11:01:35.000Z</time>
      </trkpt>
      <trkpt lat="47.53196" lon="6.76364">
        <ele>383</ele>
        <time>2015-03-22T11:01:36.000Z</time>
      </trkpt>
      <trkpt lat="47.53195" lon="6.76368">
        <ele>383</ele>
        <time>2015-03-22T11:01:37.000Z</time>
      </trkpt>
      <trkpt lat="47.53193" lon="6.76373">
        <ele>383</ele>
        <time>2015-03-22T11:01:38.000Z</time>
      </trkpt>
      <trkpt lat="47.53192" lon="6.76379">
        <ele>383</ele>
        <time>2015-03-22T11:01:39.000Z</time>
      </trkpt>
      <trkpt lat="47.53191" lon="6.76385">
        <ele>383</ele>
        <time>2015-03-22T11:01:40.000Z</time>
      </trkpt>
      <trkpt lat="47.5319" lon="6.76392">
        <ele>383</ele>
        <time>2015-03-22T11:01:41.000Z</time>
      </trkpt>
      <trkpt lat="47.53189" lon="6.76398">
        <ele>383</ele>
        <time>2015-03-22T11:01:42.000Z</time>
      </trkpt>
      <trkpt lat="47.53189" lon="6.76404">
        <ele>383</ele>
        <time>2015-03-22T11:01:43.000Z</time>
      </trkpt>
      <trkpt lat="47.53189" lon="6.76408">
        <ele>383</ele>
        <time>2015-03-22T11:01:44.000Z</time>
      </trkpt>
      <trkpt lat="47.53189" lon="6.76413">
        <ele>383</ele>
        <time>2015-03-22T11:01:45.000Z</time>
      </trkpt>
      <trkpt lat="47.53188" lon="6.76418">
        <ele>382</ele>
        <time>2015-03-22T11:01:46.000Z</time>
      </trkpt>
      <trkpt lat="47.53189" lon="6.76421">
        <ele>382</ele>
        <time>2015-03-22T11:01:47.000Z</time>
      </trkpt>
      <trkpt lat="47.53189" lon="6.76426">
        <ele>382</ele>
        <time>2015-03-22T11:01:49.000Z</time>
      </trkpt>
      <trkpt lat="47.53189" lon="6.76428">
        <ele>382</ele>
        <time>2015-03-22T11:01:50.000Z</time>
      </trkpt>
      <trkpt lat="47.53187" lon="6.76434">
        <ele>382</ele>
        <time>2015-03-22T11:01:52.000Z</time>
      </trkpt>
      <trkpt lat="47.53185" lon="6.76437">
        <ele>382</ele>
        <time>2015-03-22T11:01:53.000Z</time>
      </trkpt>
      <trkpt lat="47.53182" lon="6.7644">
        <ele>382</ele>
        <time>2015-03-22T11:01:54.000Z</time>
      </trkpt>
      <trkpt lat="47.53179" lon="6.76444">
        <ele>382</ele>
        <time>2015-03-22T11:01:55.000Z</time>
      </trkpt>
      <trkpt lat="47.53177" lon="6.7645">
        <ele>382</ele>
        <time>2015-03-22T11:01:56.000Z</time>
      </trkpt>
      <trkpt lat="47.53176" lon="6.76456">
        <ele>382</ele>
        <time>2015-03-22T11:01:57.000Z</time>
      </trkpt>
      <trkpt lat="47.53176" lon="6.76463">
        <ele>382</ele>
        <time>2015-03-22T11:01:58.000Z</time>
      </trkpt>
      <trkpt lat="47.53175" lon="6.76468">
        <ele>381</ele>
        <time>2015-03-22T11:01:59.000Z</time>
      </trkpt>
      <trkpt lat="47.53174" lon="6.76474">
        <ele>381</ele>
        <time>2015-03-22T11:02:00.000Z</time>
      </trkpt>
      <trkpt lat="47.53172" lon="6.76479">
        <ele>381</ele>
        <time>2015-03-22T11:02:01.000Z</time>
      </trkpt>
      <trkpt lat="47.53169" lon="6.76483">
        <ele>381</ele>
        <time>2015-03-22T11:02:02.000Z</time>
      </trkpt>
      <trkpt lat="47.53166" lon="6.76488">
        <ele>379</ele>
        <time>2015-03-22T11:02:03.000Z</time>
      </trkpt>
      <trkpt lat="47.53163" lon="6.76492">
        <ele>379</ele>
        <time>2015-03-22T11:02:04.000Z</time>
      </trkpt>
      <trkpt lat="47.5316" lon="6.76496">
        <ele>379</ele>
        <time>2015-03-22T11:02:05.000Z</time>
      </trkpt>
      <trkpt lat="47.53156" lon="6.765">
        <ele>379</ele>
        <time>2015-03-22T11:02:06.000Z</time>
      </trkpt>
      <trkpt lat="47.53153" lon="6.76503">
        <ele>379</ele>
        <time>2015-03-22T11:02:07.000Z</time>
      </trkpt>
      <trkpt lat="47.5315" lon="6.76506">
        <ele>379</ele>
        <time>2015-03-22T11:02:08.000Z</time>
      </trkpt>
      <trkpt lat="47.53147" lon="6.76509">
        <ele>378</ele>
        <time>2015-03-22T11:02:09.000Z</time>
      </trkpt>
      <trkpt lat="47.53145" lon="6.76512">
        <ele>378</ele>
        <time>2015-03-22T11:02:10.000Z</time>
      </trkpt>
      <trkpt lat="47.53143" lon="6.76514">
        <ele>378</ele>
        <time>2015-03-22T11:02:11.000Z</time>
      </trkpt>
      <trkpt lat="47.5314" lon="6.76516">
        <ele>378</ele>
        <time>2015-03-22T11:02:12.000Z</time>
      </trkpt>
      <trkpt lat="47.53138" lon="6.76518">
        <ele>378</ele>
        <time>2015-03-22T11:02:13.000Z</time>
      </trkpt>
      <trkpt lat="47.53135" lon="6.7652">
        <ele>378</ele>
        <time>2015-03-22T11:02:14.000Z</time>
      </trkpt>
      <trkpt lat="47.53133" lon="6.76523">
        <ele>378</ele>
        <time>2015-03-22T11:02:15.000Z</time>
      </trkpt>
      <trkpt lat="47.53131" lon="6.76525">
        <ele>378</ele>
        <time>2015-03-22T11:02:16.000Z</time>
      </trkpt>
      <trkpt lat="47.53128" lon="6.76528">
        <ele>378</ele>
        <time>2015-03-22T11:02:17.000Z</time>
      </trkpt>
      <trkpt lat="47.53126" lon="6.76531">
        <ele>378</ele>
        <time>2015-03-22T11:02:18.000Z</time>
      </trkpt>
      <trkpt lat="47.53124" lon="6.76532">
        <ele>378</ele>
        <time>2015-03-22T11:02:19.000Z</time>
      </trkpt>
      <trkpt lat="47.53121" lon="6.76533">
        <ele>378</ele>
        <time>2015-03-22T11:02:20.000Z</time>
      </trkpt>
      <trkpt lat="47.53119" lon="6.76534">
        <ele>378</ele>
        <time>2015-03-22T11:02:21.000Z</time>
      </trkpt>
      <trkpt lat="47.53115" lon="6.76536">
        <ele>378</ele>
        <time>2015-03-22T11:02:23.000Z</time>
      </trkpt>
      <trkpt lat="47.53112" lon="6.76539">
        <ele>378</ele>
        <time>2015-03-22T11:02:24.000Z</time>
      </trkpt>
      <trkpt lat="47.53109" lon="6.76544">
        <ele>378</ele>
        <time>2015-03-22T11:02:25.000Z</time>
      </trkpt>
      <trkpt lat="47.53105" lon="6.76549">
        <ele>378</ele>
        <time>2015-03-22T11:02:26.000Z</time>
      </trkpt>
      <trkpt lat="47.53102" lon="6.76553">
        <ele>378</ele>
        <time>2015-03-22T11:02:27.000Z</time>
      </trkpt>
      <trkpt lat="47.53098" lon="6.76557">
        <ele>378</ele>
        <time>2015-03-22T11:02:28.000Z</time>
      </trkpt>
      <trkpt lat="47.53095" lon="6.76561">
        <ele>378</ele>
        <time>2015-03-22T11:02:29.000Z</time>
      </trkpt>
      <trkpt lat="47.53092" lon="6.76565">
        <ele>378</ele>
        <time>2015-03-22T11:02:30.000Z</time>
      </trkpt>
      <trkpt lat="47.53089" lon="6.76571">
        <ele>378</ele>
        <time>2015-03-22T11:02:31.000Z</time>
      </trkpt>
      <trkpt lat="47.53086" lon="6.76576">
        <ele>378</ele>
        <time>2015-03-22T11:02:32.000Z</time>
      </trkpt>
      <trkpt lat="47.53083" lon="6.76582">
        <ele>378</ele>
        <time>2015-03-22T11:02:33.000Z</time>
      </trkpt>
      <trkpt lat="47.53081" lon="6.76585">
        <ele>378</ele>
        <time>2015-03-22T11:02:34.000Z</time>
      </trkpt>
      <trkpt lat="47.53078" lon="6.76587">
        <ele>378</ele>
        <time>2015-03-22T11:02:35.000Z</time>
      </trkpt>
      <trkpt lat="47.53076" lon="6.76589">
        <ele>378</ele>
        <time>2015-03-22T11:02:36.000Z</time>
      </trkpt>
      <trkpt lat="47.53073" lon="6.7659">
        <ele>378</ele>
        <time>2015-03-22T11:02:37.000Z</time>
      </trkpt>
      <trkpt lat="47.53071" lon="6.76593">
        <ele>378</ele>
        <time>2015-03-22T11:02:38.000Z</time>
      </trkpt>
      <trkpt lat="47.53067" lon="6.76597">
        <ele>378</ele>
        <time>2015-03-22T11:02:39.000Z</time>
      </trkpt>
      <trkpt lat="47.53064" lon="6.76601">
        <ele>378</ele>
        <time>2015-03-22T11:02:40.000Z</time>
      </trkpt>
      <trkpt lat="47.5306" lon="6.76605">
        <ele>378</ele>
        <time>2015-03-22T11:02:41.000Z</time>
      </trkpt>
      <trkpt lat="47.53057" lon="6.76609">
        <ele>378</ele>
        <time>2015-03-22T11:02:42.000Z</time>
      </trkpt>
      <trkpt lat="47.53055" lon="6.76613">
        <ele>378</ele>
        <time>2015-03-22T11:02:43.000Z</time>
      </trkpt>
      <trkpt lat="47.53052" lon="6.76617">
        <ele>378</ele>
        <time>2015-03-22T11:02:44.000Z</time>
      </trkpt>
      <trkpt lat="47.53049" lon="6.76621">
        <ele>378</ele>
        <time>2015-03-22T11:02:45.000Z</time>
      </trkpt>
      <trkpt lat="47.53045" lon="6.76625">
        <ele>378</ele>
        <time>2015-03-22T11:02:46.000Z</time>
      </trkpt>
      <trkpt lat="47.53041" lon="6.76629">
        <ele>378</ele>
        <time>2015-03-22T11:02:47.000Z</time>
      </trkpt>
      <trkpt lat="47.53037" lon="6.76634">
        <ele>378</ele>
        <time>2015-03-22T11:02:48.000Z</time>
      </trkpt>
      <trkpt lat="47.53033" lon="6.76638">
        <ele>378</ele>
        <time>2015-03-22T11:02:49.000Z</time>
      </trkpt>
      <trkpt lat="47.53029" lon="6.76642">
        <ele>378</ele>
        <time>2015-03-22T11:02:50.000Z</time>
      </trkpt>
      <trkpt lat="47.53024" lon="6.76646">
        <ele>378</ele>
        <time>2015-03-22T11:02:51.000Z</time>
      </trkpt>
      <trkpt lat="47.53013" lon="6.76659">
        <ele>378</ele>
        <time>2015-03-22T11:02:52.000Z</time>
      </trkpt>
      <trkpt lat="47.53004" lon="6.76658">
        <ele>378</ele>
        <time>2015-03-22T11:02:53.000Z</time>
      </trkpt>
      <trkpt lat="47.52997" lon="6.76663">
        <ele>377</ele>
        <time>2015-03-22T11:02:54.000Z</time>
      </trkpt>
      <trkpt lat="47.5299" lon="6.76668">
        <ele>377</ele>
        <time>2015-03-22T11:02:55.000Z</time>
      </trkpt>
      <trkpt lat="47.52983" lon="6.76671">
        <ele>376</ele>
        <time>2015-03-22T11:02:56.000Z</time>
      </trkpt>
      <trkpt lat="47.52976" lon="6.76676">
        <ele>376</ele>
        <time>2015-03-22T11:02:57.000Z</time>
      </trkpt>
      <trkpt lat="47.52971" lon="6.76678">
        <ele>376</ele>
        <time>2015-03-22T11:02:58.000Z</time>
      </trkpt>
      <trkpt lat="47.52964" lon="6.76682">
        <ele>375</ele>
        <time>2015-03-22T11:02:59.000Z</time>
      </trkpt>
      <trkpt lat="47.52954" lon="6.76688">
        <ele>375</ele>
        <time>2015-03-22T11:03:00.000Z</time>
      </trkpt>
      <trkpt lat="47.52949" lon="6.76694">
        <ele>375</ele>
        <time>2015-03-22T11:03:01.000Z</time>
      </trkpt>
      <trkpt lat="47.52944" lon="6.76702">
        <ele>375</ele>
        <time>2015-03-22T11:03:02.000Z</time>
      </trkpt>
      <trkpt lat="47.52938" lon="6.76711">
        <ele>374</ele>
        <time>2015-03-22T11:03:03.000Z</time>
      </trkpt>
      <trkpt lat="47.52935" lon="6.76719">
        <ele>374</ele>
        <time>2015-03-22T11:03:04.000Z</time>
      </trkpt>
      <trkpt lat="47.52931" lon="6.76724">
        <ele>374</ele>
        <time>2015-03-22T11:03:05.000Z</time>
      </trkpt>
      <trkpt lat="47.5293" lon="6.76734">
        <ele>374</ele>
        <time>2015-03-22T11:03:06.000Z</time>
      </trkpt>
      <trkpt lat="47.52927" lon="6.76744">
        <ele>374</ele>
        <time>2015-03-22T11:03:07.000Z</time>
      </trkpt>
      <trkpt lat="47.52924" lon="6.76754">
        <ele>374</ele>
        <time>2015-03-22T11:03:08.000Z</time>
      </trkpt>
      <trkpt lat="47.52923" lon="6.76762">
        <ele>375</ele>
        <time>2015-03-22T11:03:09.000Z</time>
      </trkpt>
      <trkpt lat="47.5292" lon="6.76769">
        <ele>375</ele>
        <time>2015-03-22T11:03:10.000Z</time>
      </trkpt>
      <trkpt lat="47.52919" lon="6.76775">
        <ele>376</ele>
        <time>2015-03-22T11:03:11.000Z</time>
      </trkpt>
      <trkpt lat="47.52917" lon="6.76782">
        <ele>376</ele>
        <time>2015-03-22T11:03:12.000Z</time>
      </trkpt>
      <trkpt lat="47.52916" lon="6.76787">
        <ele>374</ele>
        <time>2015-03-22T11:03:13.000Z</time>
      </trkpt>
      <trkpt lat="47.52914" lon="6.76792">
        <ele>374</ele>
        <time>2015-03-22T11:03:14.000Z</time>
      </trkpt>
      <trkpt lat="47.52913" lon="6.76797">
        <ele>374</ele>
        <time>2015-03-22T11:03:15.000Z</time>
      </trkpt>
      <trkpt lat="47.52912" lon="6.76802">
        <ele>375</ele>
        <time>2015-03-22T11:03:16.000Z</time>
      </trkpt>
      <trkpt lat="47.52911" lon="6.76809">
        <ele>375</ele>
        <time>2015-03-22T11:03:17.000Z</time>
      </trkpt>
      <trkpt lat="47.52909" lon="6.76817">
        <ele>375</ele>
        <time>2015-03-22T11:03:18.000Z</time>
      </trkpt>
      <trkpt lat="47.52908" lon="6.76825">
        <ele>375</ele>
        <time>2015-03-22T11:03:19.000Z</time>
      </trkpt>
      <trkpt lat="47.52907" lon="6.76833">
        <ele>375</ele>
        <time>2015-03-22T11:03:20.000Z</time>
      </trkpt>
      <trkpt lat="47.52906" lon="6.7684">
        <ele>377</ele>
        <time>2015-03-22T11:03:21.000Z</time>
      </trkpt>
      <trkpt lat="47.52905" lon="6.76848">
        <ele>378</ele>
        <time>2015-03-22T11:03:22.000Z</time>
      </trkpt>
      <trkpt lat="47.52904" lon="6.76855">
        <ele>378</ele>
        <time>2015-03-22T11:03:23.000Z</time>
      </trkpt>
      <trkpt lat="47.52903" lon="6.76862">
        <ele>378</ele>
        <time>2015-03-22T11:03:24.000Z</time>
      </trkpt>
      <trkpt lat="47.52902" lon="6.76869">
        <ele>378</ele>
        <time>2015-03-22T11:03:25.000Z</time>
      </trkpt>
      <trkpt lat="47.52902" lon="6.76876">
        <ele>379</ele>
        <time>2015-03-22T11:03:26.000Z</time>
      </trkpt>
      <trkpt lat="47.52901" lon="6.76882">
        <ele>379</ele>
        <time>2015-03-22T11:03:27.000Z</time>
      </trkpt>
      <trkpt lat="47.529" lon="6.76887">
        <ele>379</ele>
        <time>2015-03-22T11:03:28.000Z</time>
      </trkpt>
      <trkpt lat="47.52899" lon="6.76893">
        <ele>379</ele>
        <time>2015-03-22T11:03:29.000Z</time>
      </trkpt>
      <trkpt lat="47.52898" lon="6.76899">
        <ele>379</ele>
        <time>2015-03-22T11:03:30.000Z</time>
      </trkpt>
      <trkpt lat="47.52897" lon="6.76905">
        <ele>379</ele>
        <time>2015-03-22T11:03:31.000Z</time>
      </trkpt>
      <trkpt lat="47.52896" lon="6.76911">
        <ele>379</ele>
        <time>2015-03-22T11:03:32.000Z</time>
      </trkpt>
      <trkpt lat="47.52895" lon="6.76916">
        <ele>379</ele>
        <time>2015-03-22T11:03:33.000Z</time>
      </trkpt>
      <trkpt lat="47.52895" lon="6.76922">
        <ele>380</ele>
        <time>2015-03-22T11:03:34.000Z</time>
      </trkpt>
      <trkpt lat="47.52895" lon="6.76928">
        <ele>380</ele>
        <time>2015-03-22T11:03:35.000Z</time>
      </trkpt>
      <trkpt lat="47.52894" lon="6.76934">
        <ele>380</ele>
        <time>2015-03-22T11:03:36.000Z</time>
      </trkpt>
      <trkpt lat="47.52894" lon="6.7694">
        <ele>380</ele>
        <time>2015-03-22T11:03:37.000Z</time>
      </trkpt>
      <trkpt lat="47.52893" lon="6.76945">
        <ele>380</ele>
        <time>2015-03-22T11:03:38.000Z</time>
      </trkpt>
      <trkpt lat="47.52893" lon="6.76949">
        <ele>380</ele>
        <time>2015-03-22T11:03:39.000Z</time>
      </trkpt>
      <trkpt lat="47.52892" lon="6.76954">
        <ele>380</ele>
        <time>2015-03-22T11:03:40.000Z</time>
      </trkpt>
      <trkpt lat="47.52892" lon="6.76959">
        <ele>380</ele>
        <time>2015-03-22T11:03:41.000Z</time>
      </trkpt>
      <trkpt lat="47.52891" lon="6.76966">
        <ele>380</ele>
        <time>2015-03-22T11:03:42.000Z</time>
      </trkpt>
      <trkpt lat="47.52891" lon="6.76973">
        <ele>380</ele>
        <time>2015-03-22T11:03:43.000Z</time>
      </trkpt>
      <trkpt lat="47.5289" lon="6.7698">
        <ele>380</ele>
        <time>2015-03-22T11:03:44.000Z</time>
      </trkpt>
      <trkpt lat="47.52889" lon="6.76987">
        <ele>380</ele>
        <time>2015-03-22T11:03:45.000Z</time>
      </trkpt>
      <trkpt lat="47.52888" lon="6.76993">
        <ele>380</ele>
        <time>2015-03-22T11:03:46.000Z</time>
      </trkpt>
      <trkpt lat="47.52885" lon="6.76999">
        <ele>380</ele>
        <time>2015-03-22T11:03:47.000Z</time>
      </trkpt>
      <trkpt lat="47.52883" lon="6.77005">
        <ele>379</ele>
        <time>2015-03-22T11:03:48.000Z</time>
      </trkpt>
      <trkpt lat="47.5288" lon="6.7701">
        <ele>379</ele>
        <time>2015-03-22T11:03:49.000Z</time>
      </trkpt>
      <trkpt lat="47.52877" lon="6.77015">
        <ele>379</ele>
        <time>2015-03-22T11:03:50.000Z</time>
      </trkpt>
      <trkpt lat="47.52874" lon="6.77019">
        <ele>379</ele>
        <time>2015-03-22T11:03:51.000Z</time>
      </trkpt>
      <trkpt lat="47.5287" lon="6.77022">
        <ele>379</ele>
        <time>2015-03-22T11:03:52.000Z</time>
      </trkpt>
      <trkpt lat="47.52866" lon="6.77026">
        <ele>379</ele>
        <time>2015-03-22T11:03:53.000Z</time>
      </trkpt>
      <trkpt lat="47.52862" lon="6.7703">
        <ele>379</ele>
        <time>2015-03-22T11:03:54.000Z</time>
      </trkpt>
      <trkpt lat="47.52858" lon="6.77034">
        <ele>379</ele>
        <time>2015-03-22T11:03:55.000Z</time>
      </trkpt>
      <trkpt lat="47.52855" lon="6.77036">
        <ele>379</ele>
        <time>2015-03-22T11:03:56.000Z</time>
      </trkpt>
      <trkpt lat="47.52851" lon="6.77038">
        <ele>379</ele>
        <time>2015-03-22T11:03:57.000Z</time>
      </trkpt>
      <trkpt lat="47.52848" lon="6.77041">
        <ele>379</ele>
        <time>2015-03-22T11:03:58.000Z</time>
      </trkpt>
      <trkpt lat="47.52844" lon="6.77043">
        <ele>379</ele>
        <time>2015-03-22T11:03:59.000Z</time>
      </trkpt>
      <trkpt lat="47.52841" lon="6.77046">
        <ele>379</ele>
        <time>2015-03-22T11:04:00.000Z</time>
      </trkpt>
      <trkpt lat="47.52837" lon="6.77049">
        <ele>379</ele>
        <time>2015-03-22T11:04:01.000Z</time>
      </trkpt>
      <trkpt lat="47.52832" lon="6.77054">
        <ele>381</ele>
        <time>2015-03-22T11:04:03.000Z</time>
      </trkpt>
      <trkpt lat="47.52829" lon="6.77056">
        <ele>381</ele>
        <time>2015-03-22T11:04:04.000Z</time>
      </trkpt>
      <trkpt lat="47.52826" lon="6.77059">
        <ele>381</ele>
        <time>2015-03-22T11:04:05.000Z</time>
      </trkpt>
      <trkpt lat="47.52822" lon="6.77063">
        <ele>381</ele>
        <time>2015-03-22T11:04:06.000Z</time>
      </trkpt>
      <trkpt lat="47.52819" lon="6.77068">
        <ele>381</ele>
        <time>2015-03-22T11:04:07.000Z</time>
      </trkpt>
      <trkpt lat="47.52816" lon="6.77073">
        <ele>381</ele>
        <time>2015-03-22T11:04:08.000Z</time>
      </trkpt>
      <trkpt lat="47.52813" lon="6.77079">
        <ele>381</ele>
        <time>2015-03-22T11:04:09.000Z</time>
      </trkpt>
      <trkpt lat="47.5281" lon="6.77083">
        <ele>381</ele>
        <time>2015-03-22T11:04:10.000Z</time>
      </trkpt>
      <trkpt lat="47.52808" lon="6.77088">
        <ele>380</ele>
        <time>2015-03-22T11:04:11.000Z</time>
      </trkpt>
      <trkpt lat="47.52805" lon="6.77092">
        <ele>380</ele>
        <time>2015-03-22T11:04:12.000Z</time>
      </trkpt>
      <trkpt lat="47.52802" lon="6.77096">
        <ele>380</ele>
        <time>2015-03-22T11:04:13.000Z</time>
      </trkpt>
      <trkpt lat="47.52799" lon="6.771">
        <ele>381</ele>
        <time>2015-03-22T11:04:14.000Z</time>
      </trkpt>
      <trkpt lat="47.52796" lon="6.77104">
        <ele>381</ele>
        <time>2015-03-22T11:04:15.000Z</time>
      </trkpt>
      <trkpt lat="47.52794" lon="6.77108">
        <ele>381</ele>
        <time>2015-03-22T11:04:16.000Z</time>
      </trkpt>
      <trkpt lat="47.52791" lon="6.77112">
        <ele>381</ele>
        <time>2015-03-22T11:04:17.000Z</time>
      </trkpt>
      <trkpt lat="47.52788" lon="6.77115">
        <ele>381</ele>
        <time>2015-03-22T11:04:18.000Z</time>
      </trkpt>
      <trkpt lat="47.52785" lon="6.77117">
        <ele>381</ele>
        <time>2015-03-22T11:04:19.000Z</time>
      </trkpt>
      <trkpt lat="47.52782" lon="6.77118">
        <ele>381</ele>
        <time>2015-03-22T11:04:20.000Z</time>
      </trkpt>
      <trkpt lat="47.5278" lon="6.7712">
        <ele>381</ele>
        <time>2015-03-22T11:04:21.000Z</time>
      </trkpt>
      <trkpt lat="47.52777" lon="6.77122">
        <ele>381</ele>
        <time>2015-03-22T11:04:22.000Z</time>
      </trkpt>
      <trkpt lat="47.52775" lon="6.77125">
        <ele>381</ele>
        <time>2015-03-22T11:04:23.000Z</time>
      </trkpt>
      <trkpt lat="47.52772" lon="6.77127">
        <ele>381</ele>
        <time>2015-03-22T11:04:24.000Z</time>
      </trkpt>
      <trkpt lat="47.52769" lon="6.77129">
        <ele>381</ele>
        <time>2015-03-22T11:04:25.000Z</time>
      </trkpt>
      <trkpt lat="47.52766" lon="6.77131">
        <ele>381</ele>
        <time>2015-03-22T11:04:26.000Z</time>
      </trkpt>
      <trkpt lat="47.52763" lon="6.77134">
        <ele>381</ele>
        <time>2015-03-22T11:04:27.000Z</time>
      </trkpt>
      <trkpt lat="47.52761" lon="6.77136">
        <ele>381</ele>
        <time>2015-03-22T11:04:28.000Z</time>
      </trkpt>
      <trkpt lat="47.52758" lon="6.77139">
        <ele>381</ele>
        <time>2015-03-22T11:04:29.000Z</time>
      </trkpt>
      <trkpt lat="47.52756" lon="6.77141">
        <ele>381</ele>
        <time>2015-03-22T11:04:30.000Z</time>
      </trkpt>
      <trkpt lat="47.52754" lon="6.77143">
        <ele>381</ele>
        <time>2015-03-22T11:04:31.000Z</time>
      </trkpt>
      <trkpt lat="47.5275" lon="6.77147">
        <ele>384</ele>
        <time>2015-03-22T11:04:33.000Z</time>
      </trkpt>
      <trkpt lat="47.52747" lon="6.77149">
        <ele>384</ele>
        <time>2015-03-22T11:04:34.000Z</time>
      </trkpt>
      <trkpt lat="47.52745" lon="6.77152">
        <ele>384</ele>
        <time>2015-03-22T11:04:35.000Z</time>
      </trkpt>
      <trkpt lat="47.52743" lon="6.77154">
        <ele>383</ele>
        <time>2015-03-22T11:04:36.000Z</time>
      </trkpt>
      <trkpt lat="47.5274" lon="6.77156">
        <ele>383</ele>
        <time>2015-03-22T11:04:37.000Z</time>
      </trkpt>
      <trkpt lat="47.52738" lon="6.77159">
        <ele>383</ele>
        <time>2015-03-22T11:04:38.000Z</time>
      </trkpt>
      <trkpt lat="47.52735" lon="6.77161">
        <ele>384</ele>
        <time>2015-03-22T11:04:39.000Z</time>
      </trkpt>
      <trkpt lat="47.52732" lon="6.77164">
        <ele>384</ele>
        <time>2015-03-22T11:04:40.000Z</time>
      </trkpt>
      <trkpt lat="47.5273" lon="6.77167">
        <ele>382</ele>
        <time>2015-03-22T11:04:41.000Z</time>
      </trkpt>
      <trkpt lat="47.52728" lon="6.7717">
        <ele>383</ele>
        <time>2015-03-22T11:04:42.000Z</time>
      </trkpt>
      <trkpt lat="47.52726" lon="6.77173">
        <ele>383</ele>
        <time>2015-03-22T11:04:43.000Z</time>
      </trkpt>
      <trkpt lat="47.52723" lon="6.77176">
        <ele>383</ele>
        <time>2015-03-22T11:04:44.000Z</time>
      </trkpt>
      <trkpt lat="47.5272" lon="6.77179">
        <ele>383</ele>
        <time>2015-03-22T11:04:45.000Z</time>
      </trkpt>
      <trkpt lat="47.52717" lon="6.77182">
        <ele>384</ele>
        <time>2015-03-22T11:04:46.000Z</time>
      </trkpt>
      <trkpt lat="47.52715" lon="6.77185">
        <ele>384</ele>
        <time>2015-03-22T11:04:47.000Z</time>
      </trkpt>
      <trkpt lat="47.52712" lon="6.77186">
        <ele>384</ele>
        <time>2015-03-22T11:04:48.000Z</time>
      </trkpt>
      <trkpt lat="47.5271" lon="6.77188">
        <ele>384</ele>
        <time>2015-03-22T11:04:49.000Z</time>
      </trkpt>
      <trkpt lat="47.52707" lon="6.77189">
        <ele>384</ele>
        <time>2015-03-22T11:04:50.000Z</time>
      </trkpt>
      <trkpt lat="47.52705" lon="6.77189">
        <ele>384</ele>
        <time>2015-03-22T11:04:51.000Z</time>
      </trkpt>
      <trkpt lat="47.52702" lon="6.7719">
        <ele>384</ele>
        <time>2015-03-22T11:04:52.000Z</time>
      </trkpt>
      <trkpt lat="47.52698" lon="6.77191">
        <ele>385</ele>
        <time>2015-03-22T11:04:53.000Z</time>
      </trkpt>
      <trkpt lat="47.52695" lon="6.77193">
        <ele>385</ele>
        <time>2015-03-22T11:04:54.000Z</time>
      </trkpt>
      <trkpt lat="47.52691" lon="6.77195">
        <ele>385</ele>
        <time>2015-03-22T11:04:55.000Z</time>
      </trkpt>
      <trkpt lat="47.52688" lon="6.77198">
        <ele>385</ele>
        <time>2015-03-22T11:04:56.000Z</time>
      </trkpt>
      <trkpt lat="47.52685" lon="6.772">
        <ele>385</ele>
        <time>2015-03-22T11:04:57.000Z</time>
      </trkpt>
      <trkpt lat="47.52682" lon="6.77202">
        <ele>385</ele>
        <time>2015-03-22T11:04:58.000Z</time>
      </trkpt>
      <trkpt lat="47.5268" lon="6.77204">
        <ele>385</ele>
        <time>2015-03-22T11:04:59.000Z</time>
      </trkpt>
      <trkpt lat="47.52677" lon="6.77206">
        <ele>385</ele>
        <time>2015-03-22T11:05:00.000Z</time>
      </trkpt>
      <trkpt lat="47.52674" lon="6.77209">
        <ele>385</ele>
        <time>2015-03-22T11:05:01.000Z</time>
      </trkpt>
      <trkpt lat="47.52671" lon="6.77212">
        <ele>385</ele>
        <time>2015-03-22T11:05:02.000Z</time>
      </trkpt>
      <trkpt lat="47.52668" lon="6.77214">
        <ele>385</ele>
        <time>2015-03-22T11:05:03.000Z</time>
      </trkpt>
      <trkpt lat="47.52665" lon="6.77216">
        <ele>387</ele>
        <time>2015-03-22T11:05:04.000Z</time>
      </trkpt>
      <trkpt lat="47.52662" lon="6.77218">
        <ele>387</ele>
        <time>2015-03-22T11:05:05.000Z</time>
      </trkpt>
      <trkpt lat="47.5266" lon="6.7722">
        <ele>387</ele>
        <time>2015-03-22T11:05:06.000Z</time>
      </trkpt>
      <trkpt lat="47.52656" lon="6.77222">
        <ele>387</ele>
        <time>2015-03-22T11:05:08.000Z</time>
      </trkpt>
      <trkpt lat="47.52653" lon="6.77222">
        <ele>387</ele>
        <time>2015-03-22T11:05:09.000Z</time>
      </trkpt>
      <trkpt lat="47.5265" lon="6.77223">
        <ele>387</ele>
        <time>2015-03-22T11:05:10.000Z</time>
      </trkpt>
      <trkpt lat="47.52647" lon="6.77225">
        <ele>387</ele>
        <time>2015-03-22T11:05:11.000Z</time>
      </trkpt>
      <trkpt lat="47.52644" lon="6.77227">
        <ele>387</ele>
        <time>2015-03-22T11:05:12.000Z</time>
      </trkpt>
      <trkpt lat="47.5264" lon="6.77228">
        <ele>387</ele>
        <time>2015-03-22T11:05:13.000Z</time>
      </trkpt>
      <trkpt lat="47.52637" lon="6.7723">
        <ele>387</ele>
        <time>2015-03-22T11:05:14.000Z</time>
      </trkpt>
      <trkpt lat="47.52634" lon="6.77232">
        <ele>387</ele>
        <time>2015-03-22T11:05:15.000Z</time>
      </trkpt>
      <trkpt lat="47.5263" lon="6.77234">
        <ele>387</ele>
        <time>2015-03-22T11:05:16.000Z</time>
      </trkpt>
      <trkpt lat="47.52626" lon="6.77236">
        <ele>387</ele>
        <time>2015-03-22T11:05:17.000Z</time>
      </trkpt>
      <trkpt lat="47.52622" lon="6.77239">
        <ele>387</ele>
        <time>2015-03-22T11:05:18.000Z</time>
      </trkpt>
      <trkpt lat="47.52617" lon="6.77243">
        <ele>387</ele>
        <time>2015-03-22T11:05:19.000Z</time>
      </trkpt>
      <trkpt lat="47.52612" lon="6.77247">
        <ele>387</ele>
        <time>2015-03-22T11:05:20.000Z</time>
      </trkpt>
      <trkpt lat="47.52608" lon="6.77251">
        <ele>387</ele>
        <time>2015-03-22T11:05:21.000Z</time>
      </trkpt>
      <trkpt lat="47.52604" lon="6.77254">
        <ele>387</ele>
        <time>2015-03-22T11:05:22.000Z</time>
      </trkpt>
      <trkpt lat="47.526" lon="6.77258">
        <ele>387</ele>
        <time>2015-03-22T11:05:23.000Z</time>
      </trkpt>
      <trkpt lat="47.52596" lon="6.77261">
        <ele>387</ele>
        <time>2015-03-22T11:05:24.000Z</time>
      </trkpt>
      <trkpt lat="47.52592" lon="6.77264">
        <ele>387</ele>
        <time>2015-03-22T11:05:25.000Z</time>
      </trkpt>
      <trkpt lat="47.52589" lon="6.77267">
        <ele>387</ele>
        <time>2015-03-22T11:05:26.000Z</time>
      </trkpt>
      <trkpt lat="47.52585" lon="6.77269">
        <ele>387</ele>
        <time>2015-03-22T11:05:27.000Z</time>
      </trkpt>
      <trkpt lat="47.52582" lon="6.77272">
        <ele>385</ele>
        <time>2015-03-22T11:05:28.000Z</time>
      </trkpt>
      <trkpt lat="47.52579" lon="6.77276">
        <ele>385</ele>
        <time>2015-03-22T11:05:29.000Z</time>
      </trkpt>
      <trkpt lat="47.52575" lon="6.77281">
        <ele>385</ele>
        <time>2015-03-22T11:05:30.000Z</time>
      </trkpt>
      <trkpt lat="47.52571" lon="6.77287">
        <ele>385</ele>
        <time>2015-03-22T11:05:31.000Z</time>
      </trkpt>
      <trkpt lat="47.52559" lon="6.77303">
        <ele>385</ele>
        <time>2015-03-22T11:05:32.000Z</time>
      </trkpt>
      <trkpt lat="47.52553" lon="6.77308">
        <ele>385</ele>
        <time>2015-03-22T11:05:33.000Z</time>
      </trkpt>
      <trkpt lat="47.52549" lon="6.77312">
        <ele>385</ele>
        <time>2015-03-22T11:05:34.000Z</time>
      </trkpt>
      <trkpt lat="47.52544" lon="6.77315">
        <ele>385</ele>
        <time>2015-03-22T11:05:35.000Z</time>
      </trkpt>
      <trkpt lat="47.5254" lon="6.7732">
        <ele>385</ele>
        <time>2015-03-22T11:05:36.000Z</time>
      </trkpt>
      <trkpt lat="47.52536" lon="6.77321">
        <ele>385</ele>
        <time>2015-03-22T11:05:37.000Z</time>
      </trkpt>
      <trkpt lat="47.52532" lon="6.77325">
        <ele>385</ele>
        <time>2015-03-22T11:05:38.000Z</time>
      </trkpt>
      <trkpt lat="47.52528" lon="6.77326">
        <ele>385</ele>
        <time>2015-03-22T11:05:39.000Z</time>
      </trkpt>
      <trkpt lat="47.52524" lon="6.77328">
        <ele>385</ele>
        <time>2015-03-22T11:05:40.000Z</time>
      </trkpt>
      <trkpt lat="47.5252" lon="6.77331">
        <ele>385</ele>
        <time>2015-03-22T11:05:41.000Z</time>
      </trkpt>
      <trkpt lat="47.52517" lon="6.77333">
        <ele>385</ele>
        <time>2015-03-22T11:05:42.000Z</time>
      </trkpt>
      <trkpt lat="47.52514" lon="6.77335">
        <ele>386</ele>
        <time>2015-03-22T11:05:43.000Z</time>
      </trkpt>
      <trkpt lat="47.52512" lon="6.77337">
        <ele>386</ele>
        <time>2015-03-22T11:05:44.000Z</time>
      </trkpt>
      <trkpt lat="47.52509" lon="6.77339">
        <ele>386</ele>
        <time>2015-03-22T11:05:45.000Z</time>
      </trkpt>
      <trkpt lat="47.52506" lon="6.77342">
        <ele>386</ele>
        <time>2015-03-22T11:05:46.000Z</time>
      </trkpt>
      <trkpt lat="47.52504" lon="6.77345">
        <ele>386</ele>
        <time>2015-03-22T11:05:47.000Z</time>
      </trkpt>
      <trkpt lat="47.52501" lon="6.77349">
        <ele>387</ele>
        <time>2015-03-22T11:05:48.000Z</time>
      </trkpt>
      <trkpt lat="47.52498" lon="6.77352">
        <ele>388</ele>
        <time>2015-03-22T11:05:49.000Z</time>
      </trkpt>
      <trkpt lat="47.52494" lon="6.77356">
        <ele>388</ele>
        <time>2015-03-22T11:05:50.000Z</time>
      </trkpt>
      <trkpt lat="47.52492" lon="6.77359">
        <ele>389</ele>
        <time>2015-03-22T11:05:51.000Z</time>
      </trkpt>
      <trkpt lat="47.52489" lon="6.77363">
        <ele>389</ele>
        <time>2015-03-22T11:05:52.000Z</time>
      </trkpt>
      <trkpt lat="47.52486" lon="6.77366">
        <ele>389</ele>
        <time>2015-03-22T11:05:53.000Z</time>
      </trkpt>
      <trkpt lat="47.52483" lon="6.7737">
        <ele>390</ele>
        <time>2015-03-22T11:05:54.000Z</time>
      </trkpt>
      <trkpt lat="47.5248" lon="6.77374">
        <ele>390</ele>
        <time>2015-03-22T11:05:55.000Z</time>
      </trkpt>
      <trkpt lat="47.52476" lon="6.77378">
        <ele>390</ele>
        <time>2015-03-22T11:05:56.000Z</time>
      </trkpt>
      <trkpt lat="47.52473" lon="6.77381">
        <ele>390</ele>
        <time>2015-03-22T11:05:57.000Z</time>
      </trkpt>
      <trkpt lat="47.5247" lon="6.77385">
        <ele>390</ele>
        <time>2015-03-22T11:05:58.000Z</time>
      </trkpt>
      <trkpt lat="47.52466" lon="6.77388">
        <ele>390</ele>
        <time>2015-03-22T11:05:59.000Z</time>
      </trkpt>
      <trkpt lat="47.52463" lon="6.77391">
        <ele>391</ele>
        <time>2015-03-22T11:06:00.000Z</time>
      </trkpt>
      <trkpt lat="47.5246" lon="6.77395">
        <ele>391</ele>
        <time>2015-03-22T11:06:01.000Z</time>
      </trkpt>
      <trkpt lat="47.52457" lon="6.77398">
        <ele>391</ele>
        <time>2015-03-22T11:06:02.000Z</time>
      </trkpt>
      <trkpt lat="47.52453" lon="6.77402">
        <ele>391</ele>
        <time>2015-03-22T11:06:03.000Z</time>
      </trkpt>
      <trkpt lat="47.5245" lon="6.77405">
        <ele>391</ele>
        <time>2015-03-22T11:06:04.000Z</time>
      </trkpt>
      <trkpt lat="47.52448" lon="6.77408">
        <ele>391</ele>
        <time>2015-03-22T11:06:05.000Z</time>
      </trkpt>
      <trkpt lat="47.52445" lon="6.77412">
        <ele>391</ele>
        <time>2015-03-22T11:06:06.000Z</time>
      </trkpt>
      <trkpt lat="47.52443" lon="6.77416">
        <ele>391</ele>
        <time>2015-03-22T11:06:07.000Z</time>
      </trkpt>
      <trkpt lat="47.5244" lon="6.77419">
        <ele>393</ele>
        <time>2015-03-22T11:06:08.000Z</time>
      </trkpt>
      <trkpt lat="47.52437" lon="6.77422">
        <ele>393</ele>
        <time>2015-03-22T11:06:09.000Z</time>
      </trkpt>
      <trkpt lat="47.52435" lon="6.77425">
        <ele>393</ele>
        <time>2015-03-22T11:06:10.000Z</time>
      </trkpt>
      <trkpt lat="47.52432" lon="6.77429">
        <ele>393</ele>
        <time>2015-03-22T11:06:11.000Z</time>
      </trkpt>
      <trkpt lat="47.52429" lon="6.77432">
        <ele>393</ele>
        <time>2015-03-22T11:06:12.000Z</time>
      </trkpt>
      <trkpt lat="47.52426" lon="6.77434">
        <ele>393</ele>
        <time>2015-03-22T11:06:13.000Z</time>
      </trkpt>
      <trkpt lat="47.52423" lon="6.77436">
        <ele>393</ele>
        <time>2015-03-22T11:06:14.000Z</time>
      </trkpt>
      <trkpt lat="47.52421" lon="6.77439">
        <ele>393</ele>
        <time>2015-03-22T11:06:15.000Z</time>
      </trkpt>
      <trkpt lat="47.52418" lon="6.77441">
        <ele>393</ele>
        <time>2015-03-22T11:06:16.000Z</time>
      </trkpt>
      <trkpt lat="47.52415" lon="6.77443">
        <ele>392</ele>
        <time>2015-03-22T11:06:17.000Z</time>
      </trkpt>
      <trkpt lat="47.52413" lon="6.77444">
        <ele>392</ele>
        <time>2015-03-22T11:06:18.000Z</time>
      </trkpt>
      <trkpt lat="47.5241" lon="6.77446">
        <ele>392</ele>
        <time>2015-03-22T11:06:19.000Z</time>
      </trkpt>
      <trkpt lat="47.52407" lon="6.77448">
        <ele>392</ele>
        <time>2015-03-22T11:06:20.000Z</time>
      </trkpt>
      <trkpt lat="47.52404" lon="6.7745">
        <ele>392</ele>
        <time>2015-03-22T11:06:21.000Z</time>
      </trkpt>
      <trkpt lat="47.52401" lon="6.77452">
        <ele>392</ele>
        <time>2015-03-22T11:06:22.000Z</time>
      </trkpt>
      <trkpt lat="47.52398" lon="6.77455">
        <ele>392</ele>
        <time>2015-03-22T11:06:23.000Z</time>
      </trkpt>
      <trkpt lat="47.52395" lon="6.77457">
        <ele>391</ele>
        <time>2015-03-22T11:06:24.000Z</time>
      </trkpt>
      <trkpt lat="47.52392" lon="6.7746">
        <ele>391</ele>
        <time>2015-03-22T11:06:25.000Z</time>
      </trkpt>
      <trkpt lat="47.52389" lon="6.77462">
        <ele>391</ele>
        <time>2015-03-22T11:06:26.000Z</time>
      </trkpt>
      <trkpt lat="47.52386" lon="6.77465">
        <ele>391</ele>
        <time>2015-03-22T11:06:27.000Z</time>
      </trkpt>
      <trkpt lat="47.52383" lon="6.77468">
        <ele>391</ele>
        <time>2015-03-22T11:06:28.000Z</time>
      </trkpt>
      <trkpt lat="47.5238" lon="6.7747">
        <ele>391</ele>
        <time>2015-03-22T11:06:29.000Z</time>
      </trkpt>
      <trkpt lat="47.52377" lon="6.77472">
        <ele>391</ele>
        <time>2015-03-22T11:06:30.000Z</time>
      </trkpt>
      <trkpt lat="47.52374" lon="6.77474">
        <ele>391</ele>
        <time>2015-03-22T11:06:31.000Z</time>
      </trkpt>
      <trkpt lat="47.52371" lon="6.77476">
        <ele>391</ele>
        <time>2015-03-22T11:06:32.000Z</time>
      </trkpt>
      <trkpt lat="47.52367" lon="6.77479">
        <ele>391</ele>
        <time>2015-03-22T11:06:33.000Z</time>
      </trkpt>
      <trkpt lat="47.52363" lon="6.77481">
        <ele>391</ele>
        <time>2015-03-22T11:06:34.000Z</time>
      </trkpt>
      <trkpt lat="47.52359" lon="6.77483">
        <ele>391</ele>
        <time>2015-03-22T11:06:35.000Z</time>
      </trkpt>
      <trkpt lat="47.52355" lon="6.77487">
        <ele>390</ele>
        <time>2015-03-22T11:06:36.000Z</time>
      </trkpt>
      <trkpt lat="47.5235" lon="6.77491">
        <ele>390</ele>
        <time>2015-03-22T11:06:37.000Z</time>
      </trkpt>
      <trkpt lat="47.52346" lon="6.77495">
        <ele>390</ele>
        <time>2015-03-22T11:06:38.000Z</time>
      </trkpt>
      <trkpt lat="47.52338" lon="6.77505">
        <ele>389</ele>
        <time>2015-03-22T11:06:39.000Z</time>
      </trkpt>
      <trkpt lat="47.52333" lon="6.77511">
        <ele>388</ele>
        <time>2015-03-22T11:06:40.000Z</time>
      </trkpt>
      <trkpt lat="47.52328" lon="6.77515">
        <ele>388</ele>
        <time>2015-03-22T11:06:41.000Z</time>
      </trkpt>
      <trkpt lat="47.52323" lon="6.7752">
        <ele>388</ele>
        <time>2015-03-22T11:06:42.000Z</time>
      </trkpt>
      <trkpt lat="47.52318" lon="6.77523">
        <ele>388</ele>
        <time>2015-03-22T11:06:43.000Z</time>
      </trkpt>
      <trkpt lat="47.52314" lon="6.77526">
        <ele>388</ele>
        <time>2015-03-22T11:06:44.000Z</time>
      </trkpt>
      <trkpt lat="47.52309" lon="6.77529">
        <ele>388</ele>
        <time>2015-03-22T11:06:45.000Z</time>
      </trkpt>
      <trkpt lat="47.52303" lon="6.77532">
        <ele>387</ele>
        <time>2015-03-22T11:06:46.000Z</time>
      </trkpt>
      <trkpt lat="47.52298" lon="6.77535">
        <ele>387</ele>
        <time>2015-03-22T11:06:47.000Z</time>
      </trkpt>
      <trkpt lat="47.52293" lon="6.77538">
        <ele>387</ele>
        <time>2015-03-22T11:06:48.000Z</time>
      </trkpt>
      <trkpt lat="47.52289" lon="6.77543">
        <ele>387</ele>
        <time>2015-03-22T11:06:49.000Z</time>
      </trkpt>
      <trkpt lat="47.52283" lon="6.77547">
        <ele>387</ele>
        <time>2015-03-22T11:06:50.000Z</time>
      </trkpt>
      <trkpt lat="47.52278" lon="6.77551">
        <ele>387</ele>
        <time>2015-03-22T11:06:51.000Z</time>
      </trkpt>
      <trkpt lat="47.52273" lon="6.77556">
        <ele>387</ele>
        <time>2015-03-22T11:06:52.000Z</time>
      </trkpt>
      <trkpt lat="47.5227" lon="6.77559">
        <ele>387</ele>
        <time>2015-03-22T11:06:53.000Z</time>
      </trkpt>
      <trkpt lat="47.52267" lon="6.77562">
        <ele>387</ele>
        <time>2015-03-22T11:06:54.000Z</time>
      </trkpt>
      <trkpt lat="47.52263" lon="6.77565">
        <ele>387</ele>
        <time>2015-03-22T11:06:55.000Z</time>
      </trkpt>
      <trkpt lat="47.52259" lon="6.77569">
        <ele>387</ele>
        <time>2015-03-22T11:06:56.000Z</time>
      </trkpt>
      <trkpt lat="47.52254" lon="6.77573">
        <ele>386</ele>
        <time>2015-03-22T11:06:57.000Z</time>
      </trkpt>
      <trkpt lat="47.52247" lon="6.77576">
        <ele>386</ele>
        <time>2015-03-22T11:06:58.000Z</time>
      </trkpt>
      <trkpt lat="47.52241" lon="6.77579">
        <ele>386</ele>
        <time>2015-03-22T11:06:59.000Z</time>
      </trkpt>
      <trkpt lat="47.52236" lon="6.77584">
        <ele>386</ele>
        <time>2015-03-22T11:07:00.000Z</time>
      </trkpt>
      <trkpt lat="47.52231" lon="6.77586">
        <ele>386</ele>
        <time>2015-03-22T11:07:01.000Z</time>
      </trkpt>
      <trkpt lat="47.5222" lon="6.77593">
        <ele>386</ele>
        <time>2015-03-22T11:07:03.000Z</time>
      </trkpt>
      <trkpt lat="47.52214" lon="6.77597">
        <ele>387</ele>
        <time>2015-03-22T11:07:04.000Z</time>
      </trkpt>
      <trkpt lat="47.52208" lon="6.77601">
        <ele>387</ele>
        <time>2015-03-22T11:07:05.000Z</time>
      </trkpt>
      <trkpt lat="47.52203" lon="6.77604">
        <ele>387</ele>
        <time>2015-03-22T11:07:06.000Z</time>
      </trkpt>
      <trkpt lat="47.52198" lon="6.77609">
        <ele>387</ele>
        <time>2015-03-22T11:07:07.000Z</time>
      </trkpt>
      <trkpt lat="47.52193" lon="6.77612">
        <ele>387</ele>
        <time>2015-03-22T11:07:08.000Z</time>
      </trkpt>
      <trkpt lat="47.52189" lon="6.77616">
        <ele>387</ele>
        <time>2015-03-22T11:07:09.000Z</time>
      </trkpt>
      <trkpt lat="47.52185" lon="6.77618">
        <ele>387</ele>
        <time>2015-03-22T11:07:10.000Z</time>
      </trkpt>
      <trkpt lat="47.52181" lon="6.77621">
        <ele>387</ele>
        <time>2015-03-22T11:07:11.000Z</time>
      </trkpt>
      <trkpt lat="47.52178" lon="6.77624">
        <ele>387</ele>
        <time>2015-03-22T11:07:12.000Z</time>
      </trkpt>
      <trkpt lat="47.52174" lon="6.7763">
        <ele>387</ele>
        <time>2015-03-22T11:07:13.000Z</time>
      </trkpt>
      <trkpt lat="47.52169" lon="6.77633">
        <ele>387</ele>
        <time>2015-03-22T11:07:14.000Z</time>
      </trkpt>
      <trkpt lat="47.52166" lon="6.77634">
        <ele>390</ele>
        <time>2015-03-22T11:07:15.000Z</time>
      </trkpt>
      <trkpt lat="47.52161" lon="6.77637">
        <ele>390</ele>
        <time>2015-03-22T11:07:16.000Z</time>
      </trkpt>
      <trkpt lat="47.52157" lon="6.7764">
        <ele>390</ele>
        <time>2015-03-22T11:07:17.000Z</time>
      </trkpt>
      <trkpt lat="47.52153" lon="6.77641">
        <ele>390</ele>
        <time>2015-03-22T11:07:18.000Z</time>
      </trkpt>
      <trkpt lat="47.52148" lon="6.77642">
        <ele>390</ele>
        <time>2015-03-22T11:07:19.000Z</time>
      </trkpt>
      <trkpt lat="47.52145" lon="6.77644">
        <ele>390</ele>
        <time>2015-03-22T11:07:20.000Z</time>
      </trkpt>
      <trkpt lat="47.5214" lon="6.77644">
        <ele>390</ele>
        <time>2015-03-22T11:07:21.000Z</time>
      </trkpt>
      <trkpt lat="47.52135" lon="6.77648">
        <ele>390</ele>
        <time>2015-03-22T11:07:22.000Z</time>
      </trkpt>
      <trkpt lat="47.52131" lon="6.7765">
        <ele>390</ele>
        <time>2015-03-22T11:07:23.000Z</time>
      </trkpt>
      <trkpt lat="47.52127" lon="6.77652">
        <ele>391</ele>
        <time>2015-03-22T11:07:24.000Z</time>
      </trkpt>
      <trkpt lat="47.52124" lon="6.77654">
        <ele>391</ele>
        <time>2015-03-22T11:07:25.000Z</time>
      </trkpt>
      <trkpt lat="47.5212" lon="6.77656">
        <ele>391</ele>
        <time>2015-03-22T11:07:26.000Z</time>
      </trkpt>
      <trkpt lat="47.52117" lon="6.77659">
        <ele>391</ele>
        <time>2015-03-22T11:07:27.000Z</time>
      </trkpt>
      <trkpt lat="47.52113" lon="6.77662">
        <ele>391</ele>
        <time>2015-03-22T11:07:28.000Z</time>
      </trkpt>
      <trkpt lat="47.5211" lon="6.77664">
        <ele>391</ele>
        <time>2015-03-22T11:07:29.000Z</time>
      </trkpt>
      <trkpt lat="47.52108" lon="6.77667">
        <ele>391</ele>
        <time>2015-03-22T11:07:30.000Z</time>
      </trkpt>
      <trkpt lat="47.52106" lon="6.7767">
        <ele>391</ele>
        <time>2015-03-22T11:07:31.000Z</time>
      </trkpt>
      <trkpt lat="47.52103" lon="6.77673">
        <ele>392</ele>
        <time>2015-03-22T11:07:32.000Z</time>
      </trkpt>
      <trkpt lat="47.52101" lon="6.77669">
        <ele>392</ele>
        <time>2015-03-22T11:07:34.000Z</time>
      </trkpt>
      <trkpt lat="47.521" lon="6.77665">
        <ele>392</ele>
        <time>2015-03-22T11:07:35.000Z</time>
      </trkpt>
      <trkpt lat="47.521" lon="6.77659">
        <ele>392</ele>
        <time>2015-03-22T11:07:36.000Z</time>
      </trkpt>
      <trkpt lat="47.52101" lon="6.77652">
        <ele>391</ele>
        <time>2015-03-22T11:07:37.000Z</time>
      </trkpt>
      <trkpt lat="47.52103" lon="6.77635">
        <ele>391</ele>
        <time>2015-03-22T11:07:38.000Z</time>
      </trkpt>
      <trkpt lat="47.52104" lon="6.77627">
        <ele>391</ele>
        <time>2015-03-22T11:07:39.000Z</time>
      </trkpt>
      <trkpt lat="47.52104" lon="6.7762">
        <ele>391</ele>
        <time>2015-03-22T11:07:40.000Z</time>
      </trkpt>
      <trkpt lat="47.52104" lon="6.77613">
        <ele>391</ele>
        <time>2015-03-22T11:07:41.000Z</time>
      </trkpt>
      <trkpt lat="47.52104" lon="6.77607">
        <ele>391</ele>
        <time>2015-03-22T11:07:42.000Z</time>
      </trkpt>
      <trkpt lat="47.52104" lon="6.776">
        <ele>391</ele>
        <time>2015-03-22T11:07:43.000Z</time>
      </trkpt>
      <trkpt lat="47.52104" lon="6.7759">
        <ele>391</ele>
        <time>2015-03-22T11:07:44.000Z</time>
      </trkpt>
      <trkpt lat="47.52104" lon="6.77581">
        <ele>390</ele>
        <time>2015-03-22T11:07:45.000Z</time>
      </trkpt>
      <trkpt lat="47.52103" lon="6.77572">
        <ele>390</ele>
        <time>2015-03-22T11:07:46.000Z</time>
      </trkpt>
      <trkpt lat="47.52102" lon="6.77565">
        <ele>390</ele>
        <time>2015-03-22T11:07:47.000Z</time>
      </trkpt>
      <trkpt lat="47.52098" lon="6.77558">
        <ele>390</ele>
        <time>2015-03-22T11:07:48.000Z</time>
      </trkpt>
      <trkpt lat="47.52094" lon="6.77554">
        <ele>390</ele>
        <time>2015-03-22T11:07:49.000Z</time>
      </trkpt>
      <trkpt lat="47.52089" lon="6.77549">
        <ele>390</ele>
        <time>2015-03-22T11:07:50.000Z</time>
      </trkpt>
      <trkpt lat="47.52085" lon="6.77547">
        <ele>390</ele>
        <time>2015-03-22T11:07:51.000Z</time>
      </trkpt>
      <trkpt lat="47.52079" lon="6.77546">
        <ele>391</ele>
        <time>2015-03-22T11:07:52.000Z</time>
      </trkpt>
      <trkpt lat="47.52073" lon="6.77543">
        <ele>391</ele>
        <time>2015-03-22T11:07:53.000Z</time>
      </trkpt>
      <trkpt lat="47.52068" lon="6.77541">
        <ele>390</ele>
        <time>2015-03-22T11:07:54.000Z</time>
      </trkpt>
      <trkpt lat="47.52063" lon="6.7754">
        <ele>390</ele>
        <time>2015-03-22T11:07:55.001Z</time>
      </trkpt>
      <trkpt lat="47.52057" lon="6.77539">
        <ele>390</ele>
        <time>2015-03-22T11:07:56.000Z</time>
      </trkpt>
      <trkpt lat="47.52052" lon="6.77538">
        <ele>390</ele>
        <time>2015-03-22T11:07:57.000Z</time>
      </trkpt>
      <trkpt lat="47.52046" lon="6.77536">
        <ele>390</ele>
        <time>2015-03-22T11:07:58.000Z</time>
      </trkpt>
      <trkpt lat="47.52041" lon="6.77534">
        <ele>390</ele>
        <time>2015-03-22T11:07:59.000Z</time>
      </trkpt>
      <trkpt lat="47.52037" lon="6.77534">
        <ele>390</ele>
        <time>2015-03-22T11:08:00.000Z</time>
      </trkpt>
      <trkpt lat="47.5203" lon="6.77534">
        <ele>390</ele>
        <time>2015-03-22T11:08:01.000Z</time>
      </trkpt>
      <trkpt lat="47.52019" lon="6.77534">
        <ele>390</ele>
        <time>2015-03-22T11:08:03.000Z</time>
      </trkpt>
      <trkpt lat="47.52014" lon="6.77534">
        <ele>390</ele>
        <time>2015-03-22T11:08:04.000Z</time>
      </trkpt>
      <trkpt lat="47.52013" lon="6.77534">
        <ele>390</ele>
        <time>2015-03-22T11:08:05.000Z</time>
      </trkpt>
      <trkpt lat="47.52008" lon="6.77534">
        <ele>390</ele>
        <time>2015-03-22T11:08:06.000Z</time>
      </trkpt>
      <trkpt lat="47.52001" lon="6.77534">
        <ele>390</ele>
        <time>2015-03-22T11:08:07.000Z</time>
      </trkpt>
      <trkpt lat="47.51997" lon="6.77531">
        <ele>390</ele>
        <time>2015-03-22T11:08:08.000Z</time>
      </trkpt>
      <trkpt lat="47.51991" lon="6.7753">
        <ele>390</ele>
        <time>2015-03-22T11:08:09.000Z</time>
      </trkpt>
      <trkpt lat="47.51985" lon="6.77529">
        <ele>390</ele>
        <time>2015-03-22T11:08:10.000Z</time>
      </trkpt>
      <trkpt lat="47.51979" lon="6.77527">
        <ele>390</ele>
        <time>2015-03-22T11:08:11.000Z</time>
      </trkpt>
      <trkpt lat="47.51972" lon="6.77526">
        <ele>390</ele>
        <time>2015-03-22T11:08:12.000Z</time>
      </trkpt>
      <trkpt lat="47.51966" lon="6.77523">
        <ele>390</ele>
        <time>2015-03-22T11:08:13.000Z</time>
      </trkpt>
      <trkpt lat="47.5196" lon="6.77523">
        <ele>390</ele>
        <time>2015-03-22T11:08:14.000Z</time>
      </trkpt>
      <trkpt lat="47.51956" lon="6.77522">
        <ele>390</ele>
        <time>2015-03-22T11:08:15.000Z</time>
      </trkpt>
      <trkpt lat="47.5195" lon="6.7752">
        <ele>390</ele>
        <time>2015-03-22T11:08:16.000Z</time>
      </trkpt>
      <trkpt lat="47.51946" lon="6.77517">
        <ele>389</ele>
        <time>2015-03-22T11:08:17.000Z</time>
      </trkpt>
      <trkpt lat="47.51941" lon="6.77515">
        <ele>389</ele>
        <time>2015-03-22T11:08:18.000Z</time>
      </trkpt>
      <trkpt lat="47.51934" lon="6.77515">
        <ele>389</ele>
        <time>2015-03-22T11:08:19.000Z</time>
      </trkpt>
      <trkpt lat="47.5193" lon="6.77513">
        <ele>389</ele>
        <time>2015-03-22T11:08:20.000Z</time>
      </trkpt>
      <trkpt lat="47.51924" lon="6.77512">
        <ele>389</ele>
        <time>2015-03-22T11:08:21.000Z</time>
      </trkpt>
      <trkpt lat="47.51919" lon="6.77512">
        <ele>389</ele>
        <time>2015-03-22T11:08:22.000Z</time>
      </trkpt>
      <trkpt lat="47.51914" lon="6.7751">
        <ele>388</ele>
        <time>2015-03-22T11:08:23.000Z</time>
      </trkpt>
      <trkpt lat="47.51908" lon="6.7751">
        <ele>388</ele>
        <time>2015-03-22T11:08:24.000Z</time>
      </trkpt>
      <trkpt lat="47.51902" lon="6.77508">
        <ele>388</ele>
        <time>2015-03-22T11:08:25.000Z</time>
      </trkpt>
      <trkpt lat="47.51896" lon="6.77505">
        <ele>388</ele>
        <time>2015-03-22T11:08:26.000Z</time>
      </trkpt>
      <trkpt lat="47.51891" lon="6.77505">
        <ele>388</ele>
        <time>2015-03-22T11:08:27.000Z</time>
      </trkpt>
      <trkpt lat="47.51886" lon="6.77505">
        <ele>388</ele>
        <time>2015-03-22T11:08:28.000Z</time>
      </trkpt>
      <trkpt lat="47.5188" lon="6.77504">
        <ele>388</ele>
        <time>2015-03-22T11:08:29.000Z</time>
      </trkpt>
      <trkpt lat="47.51873" lon="6.77501">
        <ele>388</ele>
        <time>2015-03-22T11:08:30.000Z</time>
      </trkpt>
      <trkpt lat="47.51865" lon="6.77503">
        <ele>388</ele>
        <time>2015-03-22T11:08:31.000Z</time>
      </trkpt>
      <trkpt lat="47.51857" lon="6.77505">
        <ele>388</ele>
        <time>2015-03-22T11:08:32.000Z</time>
      </trkpt>
      <trkpt lat="47.5185" lon="6.77504">
        <ele>388</ele>
        <time>2015-03-22T11:08:33.000Z</time>
      </trkpt>
      <trkpt lat="47.51844" lon="6.77503">
        <ele>388</ele>
        <time>2015-03-22T11:08:34.000Z</time>
      </trkpt>
      <trkpt lat="47.51836" lon="6.77502">
        <ele>387</ele>
        <time>2015-03-22T11:08:35.000Z</time>
      </trkpt>
      <trkpt lat="47.51829" lon="6.775">
        <ele>387</ele>
        <time>2015-03-22T11:08:36.000Z</time>
      </trkpt>
      <trkpt lat="47.51822" lon="6.77497">
        <ele>387</ele>
        <time>2015-03-22T11:08:37.000Z</time>
      </trkpt>
      <trkpt lat="47.51818" lon="6.77495">
        <ele>387</ele>
        <time>2015-03-22T11:08:38.000Z</time>
      </trkpt>
      <trkpt lat="47.51814" lon="6.77493">
        <ele>388</ele>
        <time>2015-03-22T11:08:39.000Z</time>
      </trkpt>
      <trkpt lat="47.51812" lon="6.77489">
        <ele>388</ele>
        <time>2015-03-22T11:08:40.000Z</time>
      </trkpt>
      <trkpt lat="47.51817" lon="6.7749">
        <ele>387</ele>
        <time>2015-03-22T11:08:41.000Z</time>
      </trkpt>
      <trkpt lat="47.51821" lon="6.77487">
        <ele>387</ele>
        <time>2015-03-22T11:08:42.000Z</time>
      </trkpt>
      <trkpt lat="47.51821" lon="6.77479">
        <ele>387</ele>
        <time>2015-03-22T11:08:43.000Z</time>
      </trkpt>
      <trkpt lat="47.51822" lon="6.77475">
        <ele>387</ele>
        <time>2015-03-22T11:08:43.999Z</time>
      </trkpt>
      <trkpt lat="47.51817" lon="6.77467">
        <ele>387</ele>
        <time>2015-03-22T11:08:45.000Z</time>
      </trkpt>
      <trkpt lat="47.51815" lon="6.77472">
        <ele>388</ele>
        <time>2015-03-22T11:09:07.000Z</time>
      </trkpt>
      <trkpt lat="47.51814" lon="6.77472">
        <ele>388</ele>
        <time>2015-03-22T11:09:08.000Z</time>
      </trkpt>
      <trkpt lat="47.5181" lon="6.77472">
        <ele>388</ele>
        <time>2015-03-22T11:09:12.000Z</time>
      </trkpt>
      <trkpt lat="47.5181" lon="6.7747">
        <ele>388</ele>
        <time>2015-03-22T11:09:13.000Z</time>
      </trkpt>
      <trkpt lat="47.51806" lon="6.77472">
        <ele>388</ele>
        <time>2015-03-22T11:09:29.000Z</time>
      </trkpt>
      <trkpt lat="47.51805" lon="6.77473">
        <ele>388</ele>
        <time>2015-03-22T11:09:30.000Z</time>
      </trkpt>
      <trkpt lat="47.51802" lon="6.7747">
        <ele>388</ele>
        <time>2015-03-22T11:09:33.000Z</time>
      </trkpt>
      <trkpt lat="47.51801" lon="6.77468">
        <ele>388</ele>
        <time>2015-03-22T11:09:34.000Z</time>
      </trkpt>
      <trkpt lat="47.51803" lon="6.77462">
        <ele>388</ele>
        <time>2015-03-22T11:09:44.000Z</time>
      </trkpt>
      <trkpt lat="47.51803" lon="6.77462">
        <ele>388</ele>
        <time>2015-03-22T11:09:45.000Z</time>
      </trkpt>
      <trkpt lat="47.51804" lon="6.77468">
        <ele>388</ele>
        <time>2015-03-22T11:10:19.000Z</time>
      </trkpt>
      <trkpt lat="47.51804" lon="6.77468">
        <ele>388</ele>
        <time>2015-03-22T11:10:20.000Z</time>
      </trkpt>
      <trkpt lat="47.51805" lon="6.77467">
        <ele>388</ele>
        <time>2015-03-22T11:12:20.000Z</time>
      </trkpt>
    </trkseg>
  </trk>
</gpx>